<gpx xmlns="http://www.topografix.com/GPX/1/1" xmlns:xsi="http://www.w3.org/2001/XMLSchema-instance" version="1.1" xsi:schemaLocation="http://www.topografix.com/GPX/1/1 http://www.topografix.com/GPX/1/1/gpx.xsd" creator="MotionXGPSFull 24.1 Build 5049R64">
<trk>
<name>Toni's Big Day Out</name>
<desc>18 Dec 2015  6:59 am</desc>
<trkseg>
<trkpt lat="-27.3568797" lon="152.9565207">
<ele>12.943</ele>
<time>2015-12-17T21:00:14.000Z</time>
</trkpt>
<trkpt lat="-27.3568797" lon="152.9565207">
<ele>12.937</ele>
<time>2015-12-17T21:00:17.000Z</time>
</trkpt>
<trkpt lat="-27.3568797" lon="152.9565207">
<ele>12.934</ele>
<time>2015-12-17T21:00:17.100Z</time>
</trkpt>
<trkpt lat="-27.3566413" lon="152.9565273">
<ele>12.931</ele>
<time>2015-12-17T21:03:43.775Z</time>
</trkpt>
<trkpt lat="-27.3564859" lon="152.9566422">
<ele>15.225</ele>
<time>2015-12-17T21:03:45.942Z</time>
</trkpt>
<trkpt lat="-27.3562228" lon="152.9569179">
<ele>21.203</ele>
<time>2015-12-17T21:03:49.448Z</time>
</trkpt>
<trkpt lat="-27.3559263" lon="152.9571256">
<ele>27.191</ele>
<time>2015-12-17T21:03:52.735Z</time>
</trkpt>
<trkpt lat="-27.3556338" lon="152.9572362">
<ele>29.558</ele>
<time>2015-12-17T21:03:55.869Z</time>
</trkpt>
<trkpt lat="-27.3554347" lon="152.9572929">
<ele>29.105</ele>
<time>2015-12-17T21:03:58.366Z</time>
</trkpt>
<trkpt lat="-27.3552395" lon="152.9573203">
<ele>27.724</ele>
<time>2015-12-17T21:04:01.311Z</time>
</trkpt>
<trkpt lat="-27.3550339" lon="152.9573363">
<ele>26.578</ele>
<time>2015-12-17T21:04:04.011Z</time>
</trkpt>
<trkpt lat="-27.3548987" lon="152.9570484">
<ele>25.954</ele>
<time>2015-12-17T21:04:06.747Z</time>
</trkpt>
<trkpt lat="-27.3548885" lon="152.9567967">
<ele>25.769</ele>
<time>2015-12-17T21:04:08.764Z</time>
</trkpt>
<trkpt lat="-27.3548834" lon="152.9564049">
<ele>26.075</ele>
<time>2015-12-17T21:04:11.928Z</time>
</trkpt>
<trkpt lat="-27.3548749" lon="152.9560673">
<ele>26.909</ele>
<time>2015-12-17T21:04:14.490Z</time>
</trkpt>
<trkpt lat="-27.3548284" lon="152.9558349">
<ele>28.029</ele>
<time>2015-12-17T21:04:16.268Z</time>
</trkpt>
<trkpt lat="-27.3547101" lon="152.9554305">
<ele>29.321</ele>
<time>2015-12-17T21:04:19.566Z</time>
</trkpt>
<trkpt lat="-27.3545992" lon="152.9552124">
<ele>31.486</ele>
<time>2015-12-17T21:04:21.412Z</time>
</trkpt>
<trkpt lat="-27.3544060" lon="152.9549274">
<ele>34.845</ele>
<time>2015-12-17T21:04:23.907Z</time>
</trkpt>
<trkpt lat="-27.3540889" lon="152.9546271">
<ele>38.415</ele>
<time>2015-12-17T21:04:26.979Z</time>
</trkpt>
<trkpt lat="-27.3538670" lon="152.9544751">
<ele>41.016</ele>
<time>2015-12-17T21:04:28.902Z</time>
</trkpt>
<trkpt lat="-27.3535001" lon="152.9543111">
<ele>42.312</ele>
<time>2015-12-17T21:04:31.832Z</time>
</trkpt>
<trkpt lat="-27.3532334" lon="152.9542547">
<ele>42.585</ele>
<time>2015-12-17T21:04:33.955Z</time>
</trkpt>
<trkpt lat="-27.3529729" lon="152.9542346">
<ele>42.271</ele>
<time>2015-12-17T21:04:36.016Z</time>
</trkpt>
<trkpt lat="-27.3526371" lon="152.9543140">
<ele>41.368</ele>
<time>2015-12-17T21:04:38.689Z</time>
</trkpt>
<trkpt lat="-27.3522687" lon="152.9544455">
<ele>39.522</ele>
<time>2015-12-17T21:04:41.469Z</time>
</trkpt>
<trkpt lat="-27.3520064" lon="152.9545449">
<ele>37.068</ele>
<time>2015-12-17T21:04:43.407Z</time>
</trkpt>
<trkpt lat="-27.3515928" lon="152.9547067">
<ele>35.157</ele>
<time>2015-12-17T21:04:46.486Z</time>
</trkpt>
<trkpt lat="-27.3513346" lon="152.9548098">
<ele>34.372</ele>
<time>2015-12-17T21:04:48.444Z</time>
</trkpt>
<trkpt lat="-27.3509526" lon="152.9549623">
<ele>34.487</ele>
<time>2015-12-17T21:04:51.388Z</time>
</trkpt>
<trkpt lat="-27.3507018" lon="152.9550625">
<ele>35.117</ele>
<time>2015-12-17T21:04:53.320Z</time>
</trkpt>
<trkpt lat="-27.3503196" lon="152.9552152">
<ele>35.672</ele>
<time>2015-12-17T21:04:56.214Z</time>
</trkpt>
<trkpt lat="-27.3499533" lon="152.9553615">
<ele>35.168</ele>
<time>2015-12-17T21:04:58.940Z</time>
</trkpt>
<trkpt lat="-27.3495179" lon="152.9554893">
<ele>33.173</ele>
<time>2015-12-17T21:05:02.185Z</time>
</trkpt>
<trkpt lat="-27.3491826" lon="152.9556719">
<ele>30.490</ele>
<time>2015-12-17T21:05:04.945Z</time>
</trkpt>
<trkpt lat="-27.3489562" lon="152.9558528">
<ele>28.311</ele>
<time>2015-12-17T21:05:06.977Z</time>
</trkpt>
<trkpt lat="-27.3486682" lon="152.9561687">
<ele>27.364</ele>
<time>2015-12-17T21:05:09.890Z</time>
</trkpt>
<trkpt lat="-27.3484688" lon="152.9563823">
<ele>28.098</ele>
<time>2015-12-17T21:05:11.908Z</time>
</trkpt>
<trkpt lat="-27.3482798" lon="152.9565838">
<ele>30.141</ele>
<time>2015-12-17T21:05:13.831Z</time>
</trkpt>
<trkpt lat="-27.3480245" lon="152.9569084">
<ele>32.248</ele>
<time>2015-12-17T21:05:16.666Z</time>
</trkpt>
<trkpt lat="-27.3478891" lon="152.9571727">
<ele>33.353</ele>
<time>2015-12-17T21:05:18.651Z</time>
</trkpt>
<trkpt lat="-27.3477937" lon="152.9574508">
<ele>33.342</ele>
<time>2015-12-17T21:05:20.596Z</time>
</trkpt>
<trkpt lat="-27.3477324" lon="152.9578822">
<ele>32.512</ele>
<time>2015-12-17T21:05:23.433Z</time>
</trkpt>
<trkpt lat="-27.3477595" lon="152.9583219">
<ele>30.856</ele>
<time>2015-12-17T21:05:26.260Z</time>
</trkpt>
<trkpt lat="-27.3478039" lon="152.9586320">
<ele>28.286</ele>
<time>2015-12-17T21:05:28.261Z</time>
</trkpt>
<trkpt lat="-27.3478407" lon="152.9588894">
<ele>25.098</ele>
<time>2015-12-17T21:05:29.926Z</time>
</trkpt>
<trkpt lat="-27.3479083" lon="152.9593979">
<ele>21.878</ele>
<time>2015-12-17T21:05:33.229Z</time>
</trkpt>
<trkpt lat="-27.3479846" lon="152.9598370">
<ele>19.153</ele>
<time>2015-12-17T21:05:36.118Z</time>
</trkpt>
<trkpt lat="-27.3480347" lon="152.9601547">
<ele>17.318</ele>
<time>2015-12-17T21:05:38.187Z</time>
</trkpt>
<trkpt lat="-27.3480153" lon="152.9606167">
<ele>16.812</ele>
<time>2015-12-17T21:05:41.135Z</time>
</trkpt>
<trkpt lat="-27.3479354" lon="152.9609257">
<ele>17.939</ele>
<time>2015-12-17T21:05:43.160Z</time>
</trkpt>
<trkpt lat="-27.3477314" lon="152.9613471">
<ele>20.182</ele>
<time>2015-12-17T21:05:46.145Z</time>
</trkpt>
<trkpt lat="-27.3474234" lon="152.9616828">
<ele>22.489</ele>
<time>2015-12-17T21:05:49.063Z</time>
</trkpt>
<trkpt lat="-27.3472063" lon="152.9619252">
<ele>24.401</ele>
<time>2015-12-17T21:05:51.135Z</time>
</trkpt>
<trkpt lat="-27.3468896" lon="152.9622378">
<ele>26.073</ele>
<time>2015-12-17T21:05:54.050Z</time>
</trkpt>
<trkpt lat="-27.3466807" lon="152.9624399">
<ele>27.576</ele>
<time>2015-12-17T21:05:55.961Z</time>
</trkpt>
<trkpt lat="-27.3464561" lon="152.9626529">
<ele>28.866</ele>
<time>2015-12-17T21:05:58.011Z</time>
</trkpt>
<trkpt lat="-27.3462526" lon="152.9628444">
<ele>29.845</ele>
<time>2015-12-17T21:06:00.049Z</time>
</trkpt>
<trkpt lat="-27.3459434" lon="152.9630685">
<ele>30.340</ele>
<time>2015-12-17T21:06:03.316Z</time>
</trkpt>
<trkpt lat="-27.3457040" lon="152.9630788">
<ele>29.914</ele>
<time>2015-12-17T21:06:05.843Z</time>
</trkpt>
<trkpt lat="-27.3455037" lon="152.9629664">
<ele>28.344</ele>
<time>2015-12-17T21:06:07.984Z</time>
</trkpt>
<trkpt lat="-27.3453221" lon="152.9627406">
<ele>26.474</ele>
<time>2015-12-17T21:06:09.928Z</time>
</trkpt>
<trkpt lat="-27.3450915" lon="152.9624351">
<ele>25.792</ele>
<time>2015-12-17T21:06:12.069Z</time>
</trkpt>
<trkpt lat="-27.3448171" lon="152.9621486">
<ele>26.754</ele>
<time>2015-12-17T21:06:14.179Z</time>
</trkpt>
<trkpt lat="-27.3444000" lon="152.9617974">
<ele>28.335</ele>
<time>2015-12-17T21:06:17.062Z</time>
</trkpt>
<trkpt lat="-27.3439078" lon="152.9615052">
<ele>29.016</ele>
<time>2015-12-17T21:06:20.089Z</time>
</trkpt>
<trkpt lat="-27.3435741" lon="152.9613652">
<ele>28.040</ele>
<time>2015-12-17T21:06:22.018Z</time>
</trkpt>
<trkpt lat="-27.3432216" lon="152.9612502">
<ele>25.888</ele>
<time>2015-12-17T21:06:23.990Z</time>
</trkpt>
<trkpt lat="-27.3428570" lon="152.9611808">
<ele>23.636</ele>
<time>2015-12-17T21:06:25.973Z</time>
</trkpt>
<trkpt lat="-27.3424888" lon="152.9611372">
<ele>21.834</ele>
<time>2015-12-17T21:06:28.000Z</time>
</trkpt>
<trkpt lat="-27.3419604" lon="152.9610869">
<ele>20.440</ele>
<time>2015-12-17T21:06:30.972Z</time>
</trkpt>
<trkpt lat="-27.3416203" lon="152.9610645">
<ele>19.392</ele>
<time>2015-12-17T21:06:32.926Z</time>
</trkpt>
<trkpt lat="-27.3412788" lon="152.9610350">
<ele>18.913</ele>
<time>2015-12-17T21:06:34.883Z</time>
</trkpt>
<trkpt lat="-27.3409391" lon="152.9610058">
<ele>19.285</ele>
<time>2015-12-17T21:06:36.835Z</time>
</trkpt>
<trkpt lat="-27.3404303" lon="152.9609657">
<ele>20.223</ele>
<time>2015-12-17T21:06:39.755Z</time>
</trkpt>
<trkpt lat="-27.3399096" lon="152.9609042">
<ele>21.164</ele>
<time>2015-12-17T21:06:42.753Z</time>
</trkpt>
<trkpt lat="-27.3395741" lon="152.9608275">
<ele>22.330</ele>
<time>2015-12-17T21:06:44.703Z</time>
</trkpt>
<trkpt lat="-27.3390639" lon="152.9606492">
<ele>24.375</ele>
<time>2015-12-17T21:06:47.730Z</time>
</trkpt>
<trkpt lat="-27.3385577" lon="152.9605257">
<ele>27.188</ele>
<time>2015-12-17T21:06:50.659Z</time>
</trkpt>
<trkpt lat="-27.3382170" lon="152.9605065">
<ele>30.199</ele>
<time>2015-12-17T21:06:52.600Z</time>
</trkpt>
<trkpt lat="-27.3378650" lon="152.9605223">
<ele>32.795</ele>
<time>2015-12-17T21:06:54.634Z</time>
</trkpt>
<trkpt lat="-27.3375346" lon="152.9605600">
<ele>34.363</ele>
<time>2015-12-17T21:06:56.605Z</time>
</trkpt>
<trkpt lat="-27.3372203" lon="152.9606003">
<ele>34.806</ele>
<time>2015-12-17T21:06:58.587Z</time>
</trkpt>
<trkpt lat="-27.3367675" lon="152.9606653">
<ele>34.358</ele>
<time>2015-12-17T21:07:01.715Z</time>
</trkpt>
<trkpt lat="-27.3365291" lon="152.9607073">
<ele>32.993</ele>
<time>2015-12-17T21:07:03.848Z</time>
</trkpt>
<trkpt lat="-27.3363205" lon="152.9606606">
<ele>30.668</ele>
<time>2015-12-17T21:07:06.118Z</time>
</trkpt>
<trkpt lat="-27.3361900" lon="152.9605608">
<ele>27.847</ele>
<time>2015-12-17T21:07:07.813Z</time>
</trkpt>
<trkpt lat="-27.3361182" lon="152.9603468">
<ele>25.475</ele>
<time>2015-12-17T21:07:09.668Z</time>
</trkpt>
<trkpt lat="-27.3360710" lon="152.9600571">
<ele>24.568</ele>
<time>2015-12-17T21:07:11.677Z</time>
</trkpt>
<trkpt lat="-27.3360358" lon="152.9596841">
<ele>25.255</ele>
<time>2015-12-17T21:07:14.085Z</time>
</trkpt>
<trkpt lat="-27.3358486" lon="152.9591192">
<ele>26.635</ele>
<time>2015-12-17T21:07:17.728Z</time>
</trkpt>
<trkpt lat="-27.3355386" lon="152.9587315">
<ele>27.900</ele>
<time>2015-12-17T21:07:20.715Z</time>
</trkpt>
<trkpt lat="-27.3352136" lon="152.9583445">
<ele>28.680</ele>
<time>2015-12-17T21:07:23.718Z</time>
</trkpt>
<trkpt lat="-27.3349017" lon="152.9579744">
<ele>28.576</ele>
<time>2015-12-17T21:07:26.654Z</time>
</trkpt>
<trkpt lat="-27.3347032" lon="152.9577402">
<ele>27.401</ele>
<time>2015-12-17T21:07:28.543Z</time>
</trkpt>
<trkpt lat="-27.3343921" lon="152.9573714">
<ele>25.701</ele>
<time>2015-12-17T21:07:31.474Z</time>
</trkpt>
<trkpt lat="-27.3341789" lon="152.9571078">
<ele>24.429</ele>
<time>2015-12-17T21:07:33.480Z</time>
</trkpt>
<trkpt lat="-27.3339767" lon="152.9568451">
<ele>23.951</ele>
<time>2015-12-17T21:07:35.521Z</time>
</trkpt>
<trkpt lat="-27.3338142" lon="152.9566340">
<ele>23.778</ele>
<time>2015-12-17T21:07:37.493Z</time>
</trkpt>
<trkpt lat="-27.3335974" lon="152.9564242">
<ele>23.229</ele>
<time>2015-12-17T21:07:40.488Z</time>
</trkpt>
<trkpt lat="-27.3335344" lon="152.9563238">
<ele>21.906</ele>
<time>2015-12-17T21:07:41.999Z</time>
</trkpt>
<trkpt lat="-27.3335344" lon="152.9563238">
<ele>20.177</ele>
<time>2015-12-17T21:07:44.999Z</time>
</trkpt>
<trkpt lat="-27.3335344" lon="152.9563238">
<ele>19.097</ele>
<time>2015-12-17T21:08:08.192Z</time>
</trkpt>
<trkpt lat="-27.3334465" lon="152.9561935">
<ele>19.151</ele>
<time>2015-12-17T21:08:12.082Z</time>
</trkpt>
<trkpt lat="-27.3333518" lon="152.9560305">
<ele>19.688</ele>
<time>2015-12-17T21:08:14.137Z</time>
</trkpt>
<trkpt lat="-27.3332356" lon="152.9557631">
<ele>20.054</ele>
<time>2015-12-17T21:08:16.394Z</time>
</trkpt>
<trkpt lat="-27.3329484" lon="152.9553118">
<ele>20.471</ele>
<time>2015-12-17T21:08:20.031Z</time>
</trkpt>
<trkpt lat="-27.3327519" lon="152.9550709">
<ele>21.929</ele>
<time>2015-12-17T21:08:22.057Z</time>
</trkpt>
<trkpt lat="-27.3325835" lon="152.9547973">
<ele>24.702</ele>
<time>2015-12-17T21:08:24.149Z</time>
</trkpt>
<trkpt lat="-27.3323397" lon="152.9544031">
<ele>27.496</ele>
<time>2015-12-17T21:08:27.170Z</time>
</trkpt>
<trkpt lat="-27.3320736" lon="152.9539716">
<ele>29.314</ele>
<time>2015-12-17T21:08:30.336Z</time>
</trkpt>
<trkpt lat="-27.3318695" lon="152.9535945">
<ele>30.545</ele>
<time>2015-12-17T21:08:32.785Z</time>
</trkpt>
<trkpt lat="-27.3316975" lon="152.9533215">
<ele>31.607</ele>
<time>2015-12-17T21:08:34.584Z</time>
</trkpt>
<trkpt lat="-27.3314215" lon="152.9528707">
<ele>32.363</ele>
<time>2015-12-17T21:08:37.378Z</time>
</trkpt>
<trkpt lat="-27.3312227" lon="152.9525291">
<ele>33.009</ele>
<time>2015-12-17T21:08:39.383Z</time>
</trkpt>
<trkpt lat="-27.3309192" lon="152.9520077">
<ele>34.102</ele>
<time>2015-12-17T21:08:42.510Z</time>
</trkpt>
<trkpt lat="-27.3306612" lon="152.9514958">
<ele>35.886</ele>
<time>2015-12-17T21:08:45.559Z</time>
</trkpt>
<trkpt lat="-27.3305270" lon="152.9511183">
<ele>38.226</ele>
<time>2015-12-17T21:08:47.636Z</time>
</trkpt>
<trkpt lat="-27.3303572" lon="152.9507285">
<ele>40.595</ele>
<time>2015-12-17T21:08:49.786Z</time>
</trkpt>
<trkpt lat="-27.3301648" lon="152.9503341">
<ele>42.542</ele>
<time>2015-12-17T21:08:51.976Z</time>
</trkpt>
<trkpt lat="-27.3299562" lon="152.9496673">
<ele>44.224</ele>
<time>2015-12-17T21:08:55.336Z</time>
</trkpt>
<trkpt lat="-27.3297309" lon="152.9490642">
<ele>45.923</ele>
<time>2015-12-17T21:08:58.408Z</time>
</trkpt>
<trkpt lat="-27.3295897" lon="152.9486778">
<ele>47.687</ele>
<time>2015-12-17T21:09:00.344Z</time>
</trkpt>
<trkpt lat="-27.3293996" lon="152.9480684">
<ele>49.593</ele>
<time>2015-12-17T21:09:03.245Z</time>
</trkpt>
<trkpt lat="-27.3293091" lon="152.9476440">
<ele>51.371</ele>
<time>2015-12-17T21:09:05.193Z</time>
</trkpt>
<trkpt lat="-27.3292185" lon="152.9469983">
<ele>52.272</ele>
<time>2015-12-17T21:09:08.164Z</time>
</trkpt>
<trkpt lat="-27.3291835" lon="152.9465707">
<ele>51.651</ele>
<time>2015-12-17T21:09:10.141Z</time>
</trkpt>
<trkpt lat="-27.3291839" lon="152.9459380">
<ele>49.986</ele>
<time>2015-12-17T21:09:13.073Z</time>
</trkpt>
<trkpt lat="-27.3292218" lon="152.9455148">
<ele>49.393</ele>
<time>2015-12-17T21:09:15.032Z</time>
</trkpt>
<trkpt lat="-27.3292788" lon="152.9448550">
<ele>51.035</ele>
<time>2015-12-17T21:09:18.082Z</time>
</trkpt>
<trkpt lat="-27.3292990" lon="152.9444487">
<ele>53.284</ele>
<time>2015-12-17T21:09:19.950Z</time>
</trkpt>
<trkpt lat="-27.3293356" lon="152.9437947">
<ele>53.968</ele>
<time>2015-12-17T21:09:22.951Z</time>
</trkpt>
<trkpt lat="-27.3293767" lon="152.9433731">
<ele>52.640</ele>
<time>2015-12-17T21:09:24.893Z</time>
</trkpt>
<trkpt lat="-27.3294212" lon="152.9427330">
<ele>50.424</ele>
<time>2015-12-17T21:09:27.798Z</time>
</trkpt>
<trkpt lat="-27.3294528" lon="152.9423053">
<ele>48.796</ele>
<time>2015-12-17T21:09:29.718Z</time>
</trkpt>
<trkpt lat="-27.3295065" lon="152.9416388">
<ele>48.287</ele>
<time>2015-12-17T21:09:32.713Z</time>
</trkpt>
<trkpt lat="-27.3295089" lon="152.9412072">
<ele>48.611</ele>
<time>2015-12-17T21:09:34.661Z</time>
</trkpt>
<trkpt lat="-27.3295590" lon="152.9405613">
<ele>49.220</ele>
<time>2015-12-17T21:09:37.553Z</time>
</trkpt>
<trkpt lat="-27.3295881" lon="152.9401102">
<ele>50.003</ele>
<time>2015-12-17T21:09:39.559Z</time>
</trkpt>
<trkpt lat="-27.3296288" lon="152.9396791">
<ele>51.140</ele>
<time>2015-12-17T21:09:41.475Z</time>
</trkpt>
<trkpt lat="-27.3296467" lon="152.9392361">
<ele>52.657</ele>
<time>2015-12-17T21:09:43.404Z</time>
</trkpt>
<trkpt lat="-27.3296775" lon="152.9385503">
<ele>54.803</ele>
<time>2015-12-17T21:09:46.385Z</time>
</trkpt>
<trkpt lat="-27.3296874" lon="152.9378792">
<ele>57.348</ele>
<time>2015-12-17T21:09:49.385Z</time>
</trkpt>
<trkpt lat="-27.3296398" lon="152.9374610">
<ele>58.749</ele>
<time>2015-12-17T21:09:51.318Z</time>
</trkpt>
<trkpt lat="-27.3295216" lon="152.9370462">
<ele>58.242</ele>
<time>2015-12-17T21:09:53.356Z</time>
</trkpt>
<trkpt lat="-27.3292397" lon="152.9365208">
<ele>57.372</ele>
<time>2015-12-17T21:09:56.487Z</time>
</trkpt>
<trkpt lat="-27.3290160" lon="152.9363008">
<ele>59.088</ele>
<time>2015-12-17T21:09:58.359Z</time>
</trkpt>
<trkpt lat="-27.3286613" lon="152.9359913">
<ele>63.969</ele>
<time>2015-12-17T21:10:01.163Z</time>
</trkpt>
<trkpt lat="-27.3283964" lon="152.9357770">
<ele>68.986</ele>
<time>2015-12-17T21:10:03.136Z</time>
</trkpt>
<trkpt lat="-27.3281615" lon="152.9355326">
<ele>71.707</ele>
<time>2015-12-17T21:10:04.994Z</time>
</trkpt>
<trkpt lat="-27.3278911" lon="152.9350185">
<ele>72.538</ele>
<time>2015-12-17T21:10:07.950Z</time>
</trkpt>
<trkpt lat="-27.3277572" lon="152.9344156">
<ele>72.459</ele>
<time>2015-12-17T21:10:10.898Z</time>
</trkpt>
<trkpt lat="-27.3278298" lon="152.9339770">
<ele>72.820</ele>
<time>2015-12-17T21:10:12.932Z</time>
</trkpt>
<trkpt lat="-27.3281460" lon="152.9334268">
<ele>74.607</ele>
<time>2015-12-17T21:10:15.836Z</time>
</trkpt>
<trkpt lat="-27.3283580" lon="152.9330247">
<ele>77.861</ele>
<time>2015-12-17T21:10:17.859Z</time>
</trkpt>
<trkpt lat="-27.3286551" lon="152.9324419">
<ele>81.625</ele>
<time>2015-12-17T21:10:20.796Z</time>
</trkpt>
<trkpt lat="-27.3288412" lon="152.9320510">
<ele>84.175</ele>
<time>2015-12-17T21:10:22.737Z</time>
</trkpt>
<trkpt lat="-27.3291437" lon="152.9314527">
<ele>84.680</ele>
<time>2015-12-17T21:10:25.737Z</time>
</trkpt>
<trkpt lat="-27.3294545" lon="152.9308811">
<ele>84.509</ele>
<time>2015-12-17T21:10:28.673Z</time>
</trkpt>
<trkpt lat="-27.3296943" lon="152.9305279">
<ele>85.275</ele>
<time>2015-12-17T21:10:30.630Z</time>
</trkpt>
<trkpt lat="-27.3299964" lon="152.9302309">
<ele>86.947</ele>
<time>2015-12-17T21:10:32.605Z</time>
</trkpt>
<trkpt lat="-27.3304729" lon="152.9298033">
<ele>88.533</ele>
<time>2015-12-17T21:10:35.642Z</time>
</trkpt>
<trkpt lat="-27.3308323" lon="152.9292923">
<ele>89.938</ele>
<time>2015-12-17T21:10:38.595Z</time>
</trkpt>
<trkpt lat="-27.3310147" lon="152.9289087">
<ele>91.546</ele>
<time>2015-12-17T21:10:40.557Z</time>
</trkpt>
<trkpt lat="-27.3311454" lon="152.9284949">
<ele>93.001</ele>
<time>2015-12-17T21:10:42.506Z</time>
</trkpt>
<trkpt lat="-27.3312373" lon="152.9278329">
<ele>93.743</ele>
<time>2015-12-17T21:10:45.482Z</time>
</trkpt>
<trkpt lat="-27.3312844" lon="152.9273909">
<ele>93.800</ele>
<time>2015-12-17T21:10:47.506Z</time>
</trkpt>
<trkpt lat="-27.3312519" lon="152.9267856">
<ele>93.751</ele>
<time>2015-12-17T21:10:50.323Z</time>
</trkpt>
<trkpt lat="-27.3310923" lon="152.9263774">
<ele>94.071</ele>
<time>2015-12-17T21:10:52.362Z</time>
</trkpt>
<trkpt lat="-27.3309346" lon="152.9259656">
<ele>94.687</ele>
<time>2015-12-17T21:10:54.367Z</time>
</trkpt>
<trkpt lat="-27.3308520" lon="152.9255477">
<ele>95.254</ele>
<time>2015-12-17T21:10:56.271Z</time>
</trkpt>
<trkpt lat="-27.3308225" lon="152.9248689">
<ele>95.680</ele>
<time>2015-12-17T21:10:59.282Z</time>
</trkpt>
<trkpt lat="-27.3308022" lon="152.9241986">
<ele>96.095</ele>
<time>2015-12-17T21:11:02.235Z</time>
</trkpt>
<trkpt lat="-27.3307220" lon="152.9235153">
<ele>96.564</ele>
<time>2015-12-17T21:11:05.265Z</time>
</trkpt>
<trkpt lat="-27.3306580" lon="152.9230834">
<ele>97.069</ele>
<time>2015-12-17T21:11:07.191Z</time>
</trkpt>
<trkpt lat="-27.3305567" lon="152.9226489">
<ele>97.680</ele>
<time>2015-12-17T21:11:09.170Z</time>
</trkpt>
<trkpt lat="-27.3304424" lon="152.9222305">
<ele>98.729</ele>
<time>2015-12-17T21:11:11.133Z</time>
</trkpt>
<trkpt lat="-27.3303556" lon="152.9216040">
<ele>100.450</ele>
<time>2015-12-17T21:11:14.027Z</time>
</trkpt>
<trkpt lat="-27.3304042" lon="152.9211704">
<ele>102.489</ele>
<time>2015-12-17T21:11:16.026Z</time>
</trkpt>
<trkpt lat="-27.3305058" lon="152.9207402">
<ele>104.290</ele>
<time>2015-12-17T21:11:18.056Z</time>
</trkpt>
<trkpt lat="-27.3307828" lon="152.9204500">
<ele>105.470</ele>
<time>2015-12-17T21:11:19.994Z</time>
</trkpt>
<trkpt lat="-27.3313178" lon="152.9200818">
<ele>105.880</ele>
<time>2015-12-17T21:11:23.141Z</time>
</trkpt>
<trkpt lat="-27.3318333" lon="152.9197361">
<ele>105.795</ele>
<time>2015-12-17T21:11:26.109Z</time>
</trkpt>
<trkpt lat="-27.3321096" lon="152.9194576">
<ele>105.600</ele>
<time>2015-12-17T21:11:28.013Z</time>
</trkpt>
<trkpt lat="-27.3323344" lon="152.9191351">
<ele>105.665</ele>
<time>2015-12-17T21:11:29.944Z</time>
</trkpt>
<trkpt lat="-27.3325096" lon="152.9187661">
<ele>106.331</ele>
<time>2015-12-17T21:11:31.948Z</time>
</trkpt>
<trkpt lat="-27.3326091" lon="152.9181727">
<ele>107.560</ele>
<time>2015-12-17T21:11:34.990Z</time>
</trkpt>
<trkpt lat="-27.3326366" lon="152.9176753">
<ele>109.031</ele>
<time>2015-12-17T21:11:37.838Z</time>
</trkpt>
<trkpt lat="-27.3326706" lon="152.9174327">
<ele>110.447</ele>
<time>2015-12-17T21:11:39.605Z</time>
</trkpt>
<trkpt lat="-27.3327199" lon="152.9172716">
<ele>111.595</ele>
<time>2015-12-17T21:11:41.171Z</time>
</trkpt>
<trkpt lat="-27.3327428" lon="152.9171717">
<ele>112.483</ele>
<time>2015-12-17T21:11:42.900Z</time>
</trkpt>
<trkpt lat="-27.3326797" lon="152.9170595">
<ele>113.611</ele>
<time>2015-12-17T21:11:45.226Z</time>
</trkpt>
<trkpt lat="-27.3323984" lon="152.9170276">
<ele>115.162</ele>
<time>2015-12-17T21:11:51.138Z</time>
</trkpt>
<trkpt lat="-27.3320146" lon="152.9169724">
<ele>115.947</ele>
<time>2015-12-17T21:11:54.932Z</time>
</trkpt>
<trkpt lat="-27.3318425" lon="152.9168553">
<ele>114.624</ele>
<time>2015-12-17T21:11:56.999Z</time>
</trkpt>
<trkpt lat="-27.3318425" lon="152.9168553">
<ele>112.448</ele>
<time>2015-12-17T21:12:00.999Z</time>
</trkpt>
<trkpt lat="-27.3318425" lon="152.9168553">
<ele>111.531</ele>
<time>2015-12-17T21:14:36.626Z</time>
</trkpt>
<trkpt lat="-27.3316679" lon="152.9168162">
<ele>111.987</ele>
<time>2015-12-17T21:14:41.128Z</time>
</trkpt>
<trkpt lat="-27.3314101" lon="152.9166282">
<ele>112.847</ele>
<time>2015-12-17T21:14:44.335Z</time>
</trkpt>
<trkpt lat="-27.3311781" lon="152.9163127">
<ele>114.052</ele>
<time>2015-12-17T21:14:46.958Z</time>
</trkpt>
<trkpt lat="-27.3308735" lon="152.9158903">
<ele>115.848</ele>
<time>2015-12-17T21:14:50.158Z</time>
</trkpt>
<trkpt lat="-27.3306420" lon="152.9156146">
<ele>118.084</ele>
<time>2015-12-17T21:14:52.341Z</time>
</trkpt>
<trkpt lat="-27.3302701" lon="152.9153451">
<ele>120.081</ele>
<time>2015-12-17T21:14:55.309Z</time>
</trkpt>
<trkpt lat="-27.3299737" lon="152.9153879">
<ele>120.932</ele>
<time>2015-12-17T21:14:57.276Z</time>
</trkpt>
<trkpt lat="-27.3294632" lon="152.9154304">
<ele>120.372</ele>
<time>2015-12-17T21:15:00.449Z</time>
</trkpt>
<trkpt lat="-27.3291635" lon="152.9153580">
<ele>119.368</ele>
<time>2015-12-17T21:15:02.289Z</time>
</trkpt>
<trkpt lat="-27.3288419" lon="152.9152497">
<ele>118.708</ele>
<time>2015-12-17T21:15:04.299Z</time>
</trkpt>
<trkpt lat="-27.3285497" lon="152.9151443">
<ele>118.381</ele>
<time>2015-12-17T21:15:06.135Z</time>
</trkpt>
<trkpt lat="-27.3281499" lon="152.9147886">
<ele>118.471</ele>
<time>2015-12-17T21:15:09.120Z</time>
</trkpt>
<trkpt lat="-27.3279129" lon="152.9144914">
<ele>119.190</ele>
<time>2015-12-17T21:15:11.156Z</time>
</trkpt>
<trkpt lat="-27.3275832" lon="152.9140824">
<ele>120.227</ele>
<time>2015-12-17T21:15:13.987Z</time>
</trkpt>
<trkpt lat="-27.3271680" lon="152.9137543">
<ele>120.471</ele>
<time>2015-12-17T21:15:16.908Z</time>
</trkpt>
<trkpt lat="-27.3266491" lon="152.9135447">
<ele>119.434</ele>
<time>2015-12-17T21:15:20.152Z</time>
</trkpt>
<trkpt lat="-27.3262434" lon="152.9131948">
<ele>118.568</ele>
<time>2015-12-17T21:15:23.407Z</time>
</trkpt>
<trkpt lat="-27.3260294" lon="152.9127872">
<ele>119.106</ele>
<time>2015-12-17T21:15:26.274Z</time>
</trkpt>
<trkpt lat="-27.3256663" lon="152.9125415">
<ele>120.178</ele>
<time>2015-12-17T21:15:29.138Z</time>
</trkpt>
<trkpt lat="-27.3253820" lon="152.9124857">
<ele>120.537</ele>
<time>2015-12-17T21:15:30.992Z</time>
</trkpt>
<trkpt lat="-27.3248874" lon="152.9124323">
<ele>120.109</ele>
<time>2015-12-17T21:15:34.145Z</time>
</trkpt>
<trkpt lat="-27.3245875" lon="152.9124033">
<ele>119.695</ele>
<time>2015-12-17T21:15:36.009Z</time>
</trkpt>
<trkpt lat="-27.3241009" lon="152.9123204">
<ele>120.095</ele>
<time>2015-12-17T21:15:39.058Z</time>
</trkpt>
<trkpt lat="-27.3236539" lon="152.9121580">
<ele>121.146</ele>
<time>2015-12-17T21:15:42.095Z</time>
</trkpt>
<trkpt lat="-27.3233577" lon="152.9118439">
<ele>121.919</ele>
<time>2015-12-17T21:15:44.874Z</time>
</trkpt>
<trkpt lat="-27.3232479" lon="152.9115384">
<ele>121.608</ele>
<time>2015-12-17T21:15:46.832Z</time>
</trkpt>
<trkpt lat="-27.3232396" lon="152.9110249">
<ele>120.164</ele>
<time>2015-12-17T21:15:49.845Z</time>
</trkpt>
<trkpt lat="-27.3232250" lon="152.9105587">
<ele>118.345</ele>
<time>2015-12-17T21:15:52.646Z</time>
</trkpt>
<trkpt lat="-27.3231341" lon="152.9102404">
<ele>116.737</ele>
<time>2015-12-17T21:15:54.766Z</time>
</trkpt>
<trkpt lat="-27.3230029" lon="152.9099569">
<ele>115.226</ele>
<time>2015-12-17T21:15:56.769Z</time>
</trkpt>
<trkpt lat="-27.3227042" lon="152.9095600">
<ele>113.760</ele>
<time>2015-12-17T21:15:59.918Z</time>
</trkpt>
<trkpt lat="-27.3224940" lon="152.9091205">
<ele>112.518</ele>
<time>2015-12-17T21:16:02.929Z</time>
</trkpt>
<trkpt lat="-27.3222424" lon="152.9087514">
<ele>111.488</ele>
<time>2015-12-17T21:16:05.793Z</time>
</trkpt>
<trkpt lat="-27.3219791" lon="152.9083421">
<ele>110.688</ele>
<time>2015-12-17T21:16:08.831Z</time>
</trkpt>
<trkpt lat="-27.3218358" lon="152.9078030">
<ele>110.396</ele>
<time>2015-12-17T21:16:12.140Z</time>
</trkpt>
<trkpt lat="-27.3216733" lon="152.9073498">
<ele>111.016</ele>
<time>2015-12-17T21:16:15.085Z</time>
</trkpt>
<trkpt lat="-27.3215300" lon="152.9070770">
<ele>112.331</ele>
<time>2015-12-17T21:16:17.045Z</time>
</trkpt>
<trkpt lat="-27.3211493" lon="152.9067943">
<ele>113.113</ele>
<time>2015-12-17T21:16:20.183Z</time>
</trkpt>
<trkpt lat="-27.3208396" lon="152.9067327">
<ele>112.351</ele>
<time>2015-12-17T21:16:22.233Z</time>
</trkpt>
<trkpt lat="-27.3203410" lon="152.9067484">
<ele>110.627</ele>
<time>2015-12-17T21:16:25.458Z</time>
</trkpt>
<trkpt lat="-27.3198642" lon="152.9067239">
<ele>110.189</ele>
<time>2015-12-17T21:16:28.829Z</time>
</trkpt>
<trkpt lat="-27.3195979" lon="152.9066907">
<ele>112.227</ele>
<time>2015-12-17T21:16:31.042Z</time>
</trkpt>
<trkpt lat="-27.3194998" lon="152.9065362">
<ele>115.085</ele>
<time>2015-12-17T21:16:32.483Z</time>
</trkpt>
<trkpt lat="-27.3193746" lon="152.9062924">
<ele>117.062</ele>
<time>2015-12-17T21:16:34.476Z</time>
</trkpt>
<trkpt lat="-27.3191520" lon="152.9059475">
<ele>118.717</ele>
<time>2015-12-17T21:16:37.353Z</time>
</trkpt>
<trkpt lat="-27.3189640" lon="152.9057254">
<ele>120.642</ele>
<time>2015-12-17T21:16:39.342Z</time>
</trkpt>
<trkpt lat="-27.3188596" lon="152.9054491">
<ele>122.219</ele>
<time>2015-12-17T21:16:41.238Z</time>
</trkpt>
<trkpt lat="-27.3188133" lon="152.9051079">
<ele>122.571</ele>
<time>2015-12-17T21:16:43.415Z</time>
</trkpt>
<trkpt lat="-27.3187615" lon="152.9046538">
<ele>121.750</ele>
<time>2015-12-17T21:16:46.429Z</time>
</trkpt>
<trkpt lat="-27.3187393" lon="152.9042064">
<ele>120.482</ele>
<time>2015-12-17T21:16:49.690Z</time>
</trkpt>
<trkpt lat="-27.3186586" lon="152.9039700">
<ele>119.344</ele>
<time>2015-12-17T21:16:51.691Z</time>
</trkpt>
<trkpt lat="-27.3183971" lon="152.9036903">
<ele>118.545</ele>
<time>2015-12-17T21:16:54.985Z</time>
</trkpt>
<trkpt lat="-27.3181741" lon="152.9036697">
<ele>118.132</ele>
<time>2015-12-17T21:16:56.984Z</time>
</trkpt>
<trkpt lat="-27.3179697" lon="152.9037434">
<ele>117.603</ele>
<time>2015-12-17T21:16:58.851Z</time>
</trkpt>
<trkpt lat="-27.3176131" lon="152.9037996">
<ele>116.622</ele>
<time>2015-12-17T21:17:02.110Z</time>
</trkpt>
<trkpt lat="-27.3172948" lon="152.9037809">
<ele>115.645</ele>
<time>2015-12-17T21:17:05.480Z</time>
</trkpt>
<trkpt lat="-27.3171143" lon="152.9035842">
<ele>115.349</ele>
<time>2015-12-17T21:17:08.235Z</time>
</trkpt>
<trkpt lat="-27.3170511" lon="152.9034002">
<ele>115.764</ele>
<time>2015-12-17T21:17:10.013Z</time>
</trkpt>
<trkpt lat="-27.3169996" lon="152.9031815">
<ele>116.204</ele>
<time>2015-12-17T21:17:11.987Z</time>
</trkpt>
<trkpt lat="-27.3169355" lon="152.9028348">
<ele>115.996</ele>
<time>2015-12-17T21:17:15.010Z</time>
</trkpt>
<trkpt lat="-27.3168344" lon="152.9024435">
<ele>115.082</ele>
<time>2015-12-17T21:17:18.469Z</time>
</trkpt>
<trkpt lat="-27.3167234" lon="152.9022360">
<ele>113.886</ele>
<time>2015-12-17T21:17:20.491Z</time>
</trkpt>
<trkpt lat="-27.3165124" lon="152.9019811">
<ele>112.958</ele>
<time>2015-12-17T21:17:23.314Z</time>
</trkpt>
<trkpt lat="-27.3162314" lon="152.9017937">
<ele>112.300</ele>
<time>2015-12-17T21:17:26.170Z</time>
</trkpt>
<trkpt lat="-27.3160171" lon="152.9017177">
<ele>111.626</ele>
<time>2015-12-17T21:17:28.101Z</time>
</trkpt>
<trkpt lat="-27.3157799" lon="152.9016220">
<ele>111.229</ele>
<time>2015-12-17T21:17:30.270Z</time>
</trkpt>
<trkpt lat="-27.3154304" lon="152.9015247">
<ele>111.770</ele>
<time>2015-12-17T21:17:33.450Z</time>
</trkpt>
<trkpt lat="-27.3151548" lon="152.9015755">
<ele>113.503</ele>
<time>2015-12-17T21:17:35.931Z</time>
</trkpt>
<trkpt lat="-27.3149436" lon="152.9016218">
<ele>115.978</ele>
<time>2015-12-17T21:17:37.834Z</time>
</trkpt>
<trkpt lat="-27.3145951" lon="152.9016888">
<ele>118.214</ele>
<time>2015-12-17T21:17:40.922Z</time>
</trkpt>
<trkpt lat="-27.3143794" lon="152.9017318">
<ele>119.142</ele>
<time>2015-12-17T21:17:42.742Z</time>
</trkpt>
<trkpt lat="-27.3141564" lon="152.9018177">
<ele>118.612</ele>
<time>2015-12-17T21:17:44.666Z</time>
</trkpt>
<trkpt lat="-27.3139260" lon="152.9019087">
<ele>117.692</ele>
<time>2015-12-17T21:17:46.858Z</time>
</trkpt>
<trkpt lat="-27.3137323" lon="152.9019963">
<ele>117.366</ele>
<time>2015-12-17T21:17:48.972Z</time>
</trkpt>
<trkpt lat="-27.3134951" lon="152.9019957">
<ele>117.664</ele>
<time>2015-12-17T21:17:51.733Z</time>
</trkpt>
<trkpt lat="-27.3133863" lon="152.9017663">
<ele>118.478</ele>
<time>2015-12-17T21:17:54.218Z</time>
</trkpt>
<trkpt lat="-27.3132022" lon="152.9014761">
<ele>119.654</ele>
<time>2015-12-17T21:17:57.200Z</time>
</trkpt>
<trkpt lat="-27.3130189" lon="152.9013042">
<ele>120.585</ele>
<time>2015-12-17T21:17:59.357Z</time>
</trkpt>
<trkpt lat="-27.3127128" lon="152.9011346">
<ele>120.721</ele>
<time>2015-12-17T21:18:02.262Z</time>
</trkpt>
<trkpt lat="-27.3124864" lon="152.9009972">
<ele>120.264</ele>
<time>2015-12-17T21:18:04.410Z</time>
</trkpt>
<trkpt lat="-27.3122162" lon="152.9007537">
<ele>120.038</ele>
<time>2015-12-17T21:18:07.387Z</time>
</trkpt>
<trkpt lat="-27.3120530" lon="152.9005708">
<ele>120.988</ele>
<time>2015-12-17T21:18:09.437Z</time>
</trkpt>
<trkpt lat="-27.3119581" lon="152.9002341">
<ele>123.141</ele>
<time>2015-12-17T21:18:12.260Z</time>
</trkpt>
<trkpt lat="-27.3118937" lon="152.8998515">
<ele>125.932</ele>
<time>2015-12-17T21:18:15.305Z</time>
</trkpt>
<trkpt lat="-27.3118626" lon="152.8995850">
<ele>128.659</ele>
<time>2015-12-17T21:18:17.503Z</time>
</trkpt>
<trkpt lat="-27.3117792" lon="152.8992549">
<ele>130.326</ele>
<time>2015-12-17T21:18:20.564Z</time>
</trkpt>
<trkpt lat="-27.3117346" lon="152.8990435">
<ele>130.282</ele>
<time>2015-12-17T21:18:22.419Z</time>
</trkpt>
<trkpt lat="-27.3116720" lon="152.8988556">
<ele>129.124</ele>
<time>2015-12-17T21:18:23.953Z</time>
</trkpt>
<trkpt lat="-27.3114980" lon="152.8986614">
<ele>128.206</ele>
<time>2015-12-17T21:18:25.840Z</time>
</trkpt>
<trkpt lat="-27.3112419" lon="152.8985332">
<ele>128.729</ele>
<time>2015-12-17T21:18:27.857Z</time>
</trkpt>
<trkpt lat="-27.3108067" lon="152.8984222">
<ele>130.494</ele>
<time>2015-12-17T21:18:31.149Z</time>
</trkpt>
<trkpt lat="-27.3105858" lon="152.8982852">
<ele>132.171</ele>
<time>2015-12-17T21:18:33.049Z</time>
</trkpt>
<trkpt lat="-27.3104264" lon="152.8978734">
<ele>132.926</ele>
<time>2015-12-17T21:18:35.880Z</time>
</trkpt>
<trkpt lat="-27.3102863" lon="152.8974071">
<ele>132.985</ele>
<time>2015-12-17T21:18:38.973Z</time>
</trkpt>
<trkpt lat="-27.3100838" lon="152.8969755">
<ele>133.021</ele>
<time>2015-12-17T21:18:42.088Z</time>
</trkpt>
<trkpt lat="-27.3099299" lon="152.8967403">
<ele>133.444</ele>
<time>2015-12-17T21:18:43.871Z</time>
</trkpt>
<trkpt lat="-27.3096401" lon="152.8965318">
<ele>133.976</ele>
<time>2015-12-17T21:18:46.175Z</time>
</trkpt>
<trkpt lat="-27.3092230" lon="152.8963435">
<ele>134.223</ele>
<time>2015-12-17T21:18:49.204Z</time>
</trkpt>
<trkpt lat="-27.3087499" lon="152.8963832">
<ele>134.137</ele>
<time>2015-12-17T21:18:52.301Z</time>
</trkpt>
<trkpt lat="-27.3084563" lon="152.8964231">
<ele>133.697</ele>
<time>2015-12-17T21:18:54.184Z</time>
</trkpt>
<trkpt lat="-27.3080025" lon="152.8963634">
<ele>132.897</ele>
<time>2015-12-17T21:18:56.836Z</time>
</trkpt>
<trkpt lat="-27.3074630" lon="152.8962470">
<ele>132.007</ele>
<time>2015-12-17T21:18:59.758Z</time>
</trkpt>
<trkpt lat="-27.3070928" lon="152.8961510">
<ele>131.482</ele>
<time>2015-12-17T21:19:01.724Z</time>
</trkpt>
<trkpt lat="-27.3067145" lon="152.8960368">
<ele>131.442</ele>
<time>2015-12-17T21:19:03.764Z</time>
</trkpt>
<trkpt lat="-27.3063392" lon="152.8959328">
<ele>131.647</ele>
<time>2015-12-17T21:19:05.827Z</time>
</trkpt>
<trkpt lat="-27.3058604" lon="152.8958241">
<ele>132.311</ele>
<time>2015-12-17T21:19:08.585Z</time>
</trkpt>
<trkpt lat="-27.3055013" lon="152.8956724">
<ele>134.816</ele>
<time>2015-12-17T21:19:10.854Z</time>
</trkpt>
<trkpt lat="-27.3051205" lon="152.8953606">
<ele>140.029</ele>
<time>2015-12-17T21:19:13.812Z</time>
</trkpt>
<trkpt lat="-27.3048641" lon="152.8951687">
<ele>147.157</ele>
<time>2015-12-17T21:19:15.751Z</time>
</trkpt>
<trkpt lat="-27.3045729" lon="152.8949462">
<ele>154.573</ele>
<time>2015-12-17T21:19:17.987Z</time>
</trkpt>
<trkpt lat="-27.3041468" lon="152.8945859">
<ele>160.610</ele>
<time>2015-12-17T21:19:21.611Z</time>
</trkpt>
<trkpt lat="-27.3039609" lon="152.8943464">
<ele>164.999</ele>
<time>2015-12-17T21:19:23.681Z</time>
</trkpt>
<trkpt lat="-27.3038748" lon="152.8940860">
<ele>168.777</ele>
<time>2015-12-17T21:19:25.531Z</time>
</trkpt>
<trkpt lat="-27.3036808" lon="152.8937273">
<ele>172.599</ele>
<time>2015-12-17T21:19:28.344Z</time>
</trkpt>
<trkpt lat="-27.3034646" lon="152.8934944">
<ele>176.995</ele>
<time>2015-12-17T21:19:30.389Z</time>
</trkpt>
<trkpt lat="-27.3032600" lon="152.8932328">
<ele>182.242</ele>
<time>2015-12-17T21:19:32.242Z</time>
</trkpt>
<trkpt lat="-27.3030528" lon="152.8929012">
<ele>187.229</ele>
<time>2015-12-17T21:19:34.208Z</time>
</trkpt>
<trkpt lat="-27.3028793" lon="152.8925454">
<ele>190.444</ele>
<time>2015-12-17T21:19:36.117Z</time>
</trkpt>
<trkpt lat="-27.3026339" lon="152.8919601">
<ele>191.722</ele>
<time>2015-12-17T21:19:39.073Z</time>
</trkpt>
<trkpt lat="-27.3025337" lon="152.8913086">
<ele>192.076</ele>
<time>2015-12-17T21:19:42.081Z</time>
</trkpt>
<trkpt lat="-27.3024755" lon="152.8908812">
<ele>192.252</ele>
<time>2015-12-17T21:19:44.072Z</time>
</trkpt>
<trkpt lat="-27.3023321" lon="152.8902636">
<ele>192.429</ele>
<time>2015-12-17T21:19:47.087Z</time>
</trkpt>
<trkpt lat="-27.3022372" lon="152.8896574">
<ele>192.487</ele>
<time>2015-12-17T21:19:50.022Z</time>
</trkpt>
<trkpt lat="-27.3022036" lon="152.8890340">
<ele>192.306</ele>
<time>2015-12-17T21:19:53.250Z</time>
</trkpt>
<trkpt lat="-27.3021856" lon="152.8886731">
<ele>191.536</ele>
<time>2015-12-17T21:19:55.281Z</time>
</trkpt>
<trkpt lat="-27.3022129" lon="152.8881791">
<ele>189.420</ele>
<time>2015-12-17T21:19:58.296Z</time>
</trkpt>
<trkpt lat="-27.3023808" lon="152.8877375">
<ele>186.073</ele>
<time>2015-12-17T21:20:01.343Z</time>
</trkpt>
<trkpt lat="-27.3025162" lon="152.8874694">
<ele>182.975</ele>
<time>2015-12-17T21:20:03.283Z</time>
</trkpt>
<trkpt lat="-27.3028240" lon="152.8871547">
<ele>181.309</ele>
<time>2015-12-17T21:20:05.969Z</time>
</trkpt>
<trkpt lat="-27.3032983" lon="152.8869349">
<ele>180.979</ele>
<time>2015-12-17T21:20:09.038Z</time>
</trkpt>
<trkpt lat="-27.3035793" lon="152.8867447">
<ele>182.270</ele>
<time>2015-12-17T21:20:11.042Z</time>
</trkpt>
<trkpt lat="-27.3040033" lon="152.8864437">
<ele>186.020</ele>
<time>2015-12-17T21:20:14.435Z</time>
</trkpt>
<trkpt lat="-27.3042769" lon="152.8863607">
<ele>192.040</ele>
<time>2015-12-17T21:20:16.499Z</time>
</trkpt>
<trkpt lat="-27.3046794" lon="152.8862724">
<ele>198.786</ele>
<time>2015-12-17T21:20:19.971Z</time>
</trkpt>
<trkpt lat="-27.3050173" lon="152.8861777">
<ele>205.118</ele>
<time>2015-12-17T21:20:23.906Z</time>
</trkpt>
<trkpt lat="-27.3051840" lon="152.8861687">
<ele>210.803</ele>
<time>2015-12-17T21:20:26.131Z</time>
</trkpt>
<trkpt lat="-27.3053852" lon="152.8860752">
<ele>215.265</ele>
<time>2015-12-17T21:20:28.869Z</time>
</trkpt>
<trkpt lat="-27.3054264" lon="152.8859227">
<ele>217.702</ele>
<time>2015-12-17T21:20:30.413Z</time>
</trkpt>
<trkpt lat="-27.3053386" lon="152.8857398">
<ele>218.591</ele>
<time>2015-12-17T21:20:32.114Z</time>
</trkpt>
<trkpt lat="-27.3052299" lon="152.8855596">
<ele>219.006</ele>
<time>2015-12-17T21:20:33.773Z</time>
</trkpt>
<trkpt lat="-27.3050693" lon="152.8851559">
<ele>219.669</ele>
<time>2015-12-17T21:20:36.880Z</time>
</trkpt>
<trkpt lat="-27.3049385" lon="152.8847622">
<ele>221.012</ele>
<time>2015-12-17T21:20:39.734Z</time>
</trkpt>
<trkpt lat="-27.3048572" lon="152.8844613">
<ele>222.797</ele>
<time>2015-12-17T21:20:41.802Z</time>
</trkpt>
<trkpt lat="-27.3048647" lon="152.8841426">
<ele>224.141</ele>
<time>2015-12-17T21:20:43.939Z</time>
</trkpt>
<trkpt lat="-27.3048900" lon="152.8838169">
<ele>224.363</ele>
<time>2015-12-17T21:20:46.185Z</time>
</trkpt>
<trkpt lat="-27.3049509" lon="152.8834047">
<ele>223.330</ele>
<time>2015-12-17T21:20:49.043Z</time>
</trkpt>
<trkpt lat="-27.3048957" lon="152.8831345">
<ele>221.018</ele>
<time>2015-12-17T21:20:50.763Z</time>
</trkpt>
<trkpt lat="-27.3047869" lon="152.8828530">
<ele>217.547</ele>
<time>2015-12-17T21:20:52.647Z</time>
</trkpt>
<trkpt lat="-27.3046613" lon="152.8823768">
<ele>213.342</ele>
<time>2015-12-17T21:20:55.618Z</time>
</trkpt>
<trkpt lat="-27.3045744" lon="152.8818992">
<ele>208.445</ele>
<time>2015-12-17T21:20:58.456Z</time>
</trkpt>
<trkpt lat="-27.3043178" lon="152.8814105">
<ele>202.433</ele>
<time>2015-12-17T21:21:01.696Z</time>
</trkpt>
<trkpt lat="-27.3041427" lon="152.8811326">
<ele>196.445</ele>
<time>2015-12-17T21:21:03.618Z</time>
</trkpt>
<trkpt lat="-27.3037869" lon="152.8807988">
<ele>192.776</ele>
<time>2015-12-17T21:21:06.499Z</time>
</trkpt>
<trkpt lat="-27.3035334" lon="152.8803817">
<ele>192.369</ele>
<time>2015-12-17T21:21:09.294Z</time>
</trkpt>
<trkpt lat="-27.3032253" lon="152.8799760">
<ele>194.579</ele>
<time>2015-12-17T21:21:12.230Z</time>
</trkpt>
<trkpt lat="-27.3029041" lon="152.8797388">
<ele>197.950</ele>
<time>2015-12-17T21:21:14.548Z</time>
</trkpt>
<trkpt lat="-27.3026644" lon="152.8794641">
<ele>201.012</ele>
<time>2015-12-17T21:21:16.594Z</time>
</trkpt>
<trkpt lat="-27.3024804" lon="152.8791578">
<ele>203.102</ele>
<time>2015-12-17T21:21:18.603Z</time>
</trkpt>
<trkpt lat="-27.3024029" lon="152.8787656">
<ele>204.284</ele>
<time>2015-12-17T21:21:20.955Z</time>
</trkpt>
<trkpt lat="-27.3025264" lon="152.8784393">
<ele>205.222</ele>
<time>2015-12-17T21:21:23.169Z</time>
</trkpt>
<trkpt lat="-27.3027063" lon="152.8779924">
<ele>206.840</ele>
<time>2015-12-17T21:21:26.450Z</time>
</trkpt>
<trkpt lat="-27.3027314" lon="152.8776974">
<ele>209.371</ele>
<time>2015-12-17T21:21:28.535Z</time>
</trkpt>
<trkpt lat="-27.3026733" lon="152.8772675">
<ele>212.094</ele>
<time>2015-12-17T21:21:31.659Z</time>
</trkpt>
<trkpt lat="-27.3025770" lon="152.8770434">
<ele>214.531</ele>
<time>2015-12-17T21:21:33.285Z</time>
</trkpt>
<trkpt lat="-27.3022075" lon="152.8767552">
<ele>216.914</ele>
<time>2015-12-17T21:21:36.331Z</time>
</trkpt>
<trkpt lat="-27.3019150" lon="152.8766042">
<ele>219.311</ele>
<time>2015-12-17T21:21:38.530Z</time>
</trkpt>
<trkpt lat="-27.3015373" lon="152.8763756">
<ele>221.282</ele>
<time>2015-12-17T21:21:41.582Z</time>
</trkpt>
<trkpt lat="-27.3012542" lon="152.8760405">
<ele>222.330</ele>
<time>2015-12-17T21:21:44.842Z</time>
</trkpt>
<trkpt lat="-27.3011339" lon="152.8757714">
<ele>222.079</ele>
<time>2015-12-17T21:21:46.972Z</time>
</trkpt>
<trkpt lat="-27.3010232" lon="152.8755452">
<ele>220.357</ele>
<time>2015-12-17T21:21:48.653Z</time>
</trkpt>
<trkpt lat="-27.3008682" lon="152.8753407">
<ele>217.256</ele>
<time>2015-12-17T21:21:50.262Z</time>
</trkpt>
<trkpt lat="-27.3006593" lon="152.8751166">
<ele>213.231</ele>
<time>2015-12-17T21:21:52.073Z</time>
</trkpt>
<trkpt lat="-27.3004198" lon="152.8748756">
<ele>209.090</ele>
<time>2015-12-17T21:21:54.072Z</time>
</trkpt>
<trkpt lat="-27.3002413" lon="152.8746228">
<ele>205.538</ele>
<time>2015-12-17T21:21:55.890Z</time>
</trkpt>
<trkpt lat="-27.3000742" lon="152.8743405">
<ele>202.629</ele>
<time>2015-12-17T21:21:57.802Z</time>
</trkpt>
<trkpt lat="-27.2998072" lon="152.8739268">
<ele>200.246</ele>
<time>2015-12-17T21:22:00.649Z</time>
</trkpt>
<trkpt lat="-27.2996011" lon="152.8736185">
<ele>198.594</ele>
<time>2015-12-17T21:22:02.770Z</time>
</trkpt>
<trkpt lat="-27.2992943" lon="152.8731915">
<ele>197.768</ele>
<time>2015-12-17T21:22:05.777Z</time>
</trkpt>
<trkpt lat="-27.2989958" lon="152.8727816">
<ele>197.430</ele>
<time>2015-12-17T21:22:08.711Z</time>
</trkpt>
<trkpt lat="-27.2986588" lon="152.8723838">
<ele>196.748</ele>
<time>2015-12-17T21:22:11.795Z</time>
</trkpt>
<trkpt lat="-27.2983261" lon="152.8719961">
<ele>195.407</ele>
<time>2015-12-17T21:22:14.889Z</time>
</trkpt>
<trkpt lat="-27.2980983" lon="152.8717489">
<ele>194.201</ele>
<time>2015-12-17T21:22:17.029Z</time>
</trkpt>
<trkpt lat="-27.2977870" lon="152.8713919">
<ele>194.051</ele>
<time>2015-12-17T21:22:20.229Z</time>
</trkpt>
<trkpt lat="-27.2976499" lon="152.8711419">
<ele>194.851</ele>
<time>2015-12-17T21:22:22.161Z</time>
</trkpt>
<trkpt lat="-27.2975843" lon="152.8708351">
<ele>195.782</ele>
<time>2015-12-17T21:22:24.275Z</time>
</trkpt>
<trkpt lat="-27.2974956" lon="152.8704012">
<ele>196.167</ele>
<time>2015-12-17T21:22:27.239Z</time>
</trkpt>
<trkpt lat="-27.2973714" lon="152.8701338">
<ele>196.012</ele>
<time>2015-12-17T21:22:29.210Z</time>
</trkpt>
<trkpt lat="-27.2971812" lon="152.8699036">
<ele>195.454</ele>
<time>2015-12-17T21:22:31.186Z</time>
</trkpt>
<trkpt lat="-27.2968681" lon="152.8696530">
<ele>194.428</ele>
<time>2015-12-17T21:22:33.724Z</time>
</trkpt>
<trkpt lat="-27.2965766" lon="152.8694369">
<ele>192.810</ele>
<time>2015-12-17T21:22:36.018Z</time>
</trkpt>
<trkpt lat="-27.2961896" lon="152.8691575">
<ele>190.728</ele>
<time>2015-12-17T21:22:39.056Z</time>
</trkpt>
<trkpt lat="-27.2959421" lon="152.8690039">
<ele>187.780</ele>
<time>2015-12-17T21:22:40.909Z</time>
</trkpt>
<trkpt lat="-27.2956295" lon="152.8688392">
<ele>183.532</ele>
<time>2015-12-17T21:22:43.377Z</time>
</trkpt>
<trkpt lat="-27.2953545" lon="152.8687471">
<ele>178.929</ele>
<time>2015-12-17T21:22:45.515Z</time>
</trkpt>
<trkpt lat="-27.2949951" lon="152.8685566">
<ele>174.938</ele>
<time>2015-12-17T21:22:48.548Z</time>
</trkpt>
<trkpt lat="-27.2948266" lon="152.8683292">
<ele>170.915</ele>
<time>2015-12-17T21:22:50.676Z</time>
</trkpt>
<trkpt lat="-27.2946452" lon="152.8680964">
<ele>166.544</ele>
<time>2015-12-17T21:22:52.848Z</time>
</trkpt>
<trkpt lat="-27.2943374" lon="152.8679142">
<ele>162.535</ele>
<time>2015-12-17T21:22:55.426Z</time>
</trkpt>
<trkpt lat="-27.2939348" lon="152.8678617">
<ele>159.121</ele>
<time>2015-12-17T21:22:58.231Z</time>
</trkpt>
<trkpt lat="-27.2935466" lon="152.8678148">
<ele>156.171</ele>
<time>2015-12-17T21:23:00.691Z</time>
</trkpt>
<trkpt lat="-27.2932502" lon="152.8677682">
<ele>153.989</ele>
<time>2015-12-17T21:23:02.489Z</time>
</trkpt>
<trkpt lat="-27.2927308" lon="152.8676868">
<ele>152.349</ele>
<time>2015-12-17T21:23:05.450Z</time>
</trkpt>
<trkpt lat="-27.2923681" lon="152.8676628">
<ele>149.713</ele>
<time>2015-12-17T21:23:07.492Z</time>
</trkpt>
<trkpt lat="-27.2920030" lon="152.8676710">
<ele>144.947</ele>
<time>2015-12-17T21:23:09.579Z</time>
</trkpt>
<trkpt lat="-27.2915226" lon="152.8677985">
<ele>138.626</ele>
<time>2015-12-17T21:23:12.496Z</time>
</trkpt>
<trkpt lat="-27.2912157" lon="152.8679201">
<ele>132.131</ele>
<time>2015-12-17T21:23:14.438Z</time>
</trkpt>
<trkpt lat="-27.2907201" lon="152.8680110">
<ele>127.027</ele>
<time>2015-12-17T21:23:17.377Z</time>
</trkpt>
<trkpt lat="-27.2903611" lon="152.8680068">
<ele>124.717</ele>
<time>2015-12-17T21:23:19.471Z</time>
</trkpt>
<trkpt lat="-27.2900291" lon="152.8679660">
<ele>124.983</ele>
<time>2015-12-17T21:23:21.464Z</time>
</trkpt>
<trkpt lat="-27.2897014" lon="152.8678664">
<ele>126.161</ele>
<time>2015-12-17T21:23:23.501Z</time>
</trkpt>
<trkpt lat="-27.2892386" lon="152.8676455">
<ele>127.092</ele>
<time>2015-12-17T21:23:26.508Z</time>
</trkpt>
<trkpt lat="-27.2888021" lon="152.8673563">
<ele>127.756</ele>
<time>2015-12-17T21:23:29.575Z</time>
</trkpt>
<trkpt lat="-27.2885201" lon="152.8671551">
<ele>128.275</ele>
<time>2015-12-17T21:23:31.622Z</time>
</trkpt>
<trkpt lat="-27.2881039" lon="152.8669084">
<ele>128.304</ele>
<time>2015-12-17T21:23:34.480Z</time>
</trkpt>
<trkpt lat="-27.2876089" lon="152.8667063">
<ele>126.988</ele>
<time>2015-12-17T21:23:37.897Z</time>
</trkpt>
<trkpt lat="-27.2873140" lon="152.8666428">
<ele>123.469</ele>
<time>2015-12-17T21:23:40.239Z</time>
</trkpt>
<trkpt lat="-27.2868982" lon="152.8665625">
<ele>117.762</ele>
<time>2015-12-17T21:23:44.641Z</time>
</trkpt>
<trkpt lat="-27.2865537" lon="152.8665392">
<ele>110.295</ele>
<time>2015-12-17T21:23:50.445Z</time>
</trkpt>
<trkpt lat="-27.2863358" lon="152.8665585">
<ele>101.845</ele>
<time>2015-12-17T21:23:53.114Z</time>
</trkpt>
<trkpt lat="-27.2862276" lon="152.8664736">
<ele>94.053</ele>
<time>2015-12-17T21:23:54.134Z</time>
</trkpt>
<trkpt lat="-27.2862348" lon="152.8663616">
<ele>88.186</ele>
<time>2015-12-17T21:23:54.905Z</time>
</trkpt>
<trkpt lat="-27.2864485" lon="152.8660938">
<ele>84.486</ele>
<time>2015-12-17T21:23:57.109Z</time>
</trkpt>
<trkpt lat="-27.2866790" lon="152.8656265">
<ele>83.420</ele>
<time>2015-12-17T21:23:59.958Z</time>
</trkpt>
<trkpt lat="-27.2868595" lon="152.8650451">
<ele>84.697</ele>
<time>2015-12-17T21:24:02.919Z</time>
</trkpt>
<trkpt lat="-27.2869497" lon="152.8646450">
<ele>86.316</ele>
<time>2015-12-17T21:24:04.780Z</time>
</trkpt>
<trkpt lat="-27.2869684" lon="152.8641996">
<ele>86.193</ele>
<time>2015-12-17T21:24:06.767Z</time>
</trkpt>
<trkpt lat="-27.2869008" lon="152.8635203">
<ele>84.314</ele>
<time>2015-12-17T21:24:09.739Z</time>
</trkpt>
<trkpt lat="-27.2868163" lon="152.8628495">
<ele>82.263</ele>
<time>2015-12-17T21:24:12.598Z</time>
</trkpt>
<trkpt lat="-27.2867603" lon="152.8621331">
<ele>81.028</ele>
<time>2015-12-17T21:24:15.564Z</time>
</trkpt>
<trkpt lat="-27.2867288" lon="152.8616561">
<ele>80.228</ele>
<time>2015-12-17T21:24:17.528Z</time>
</trkpt>
<trkpt lat="-27.2867073" lon="152.8609601">
<ele>79.081</ele>
<time>2015-12-17T21:24:20.409Z</time>
</trkpt>
<trkpt lat="-27.2867061" lon="152.8604700">
<ele>76.727</ele>
<time>2015-12-17T21:24:22.481Z</time>
</trkpt>
<trkpt lat="-27.2868194" lon="152.8600572">
<ele>73.411</ele>
<time>2015-12-17T21:24:24.320Z</time>
</trkpt>
<trkpt lat="-27.2869599" lon="152.8593734">
<ele>70.585</ele>
<time>2015-12-17T21:24:27.325Z</time>
</trkpt>
<trkpt lat="-27.2870297" lon="152.8589202">
<ele>68.182</ele>
<time>2015-12-17T21:24:29.279Z</time>
</trkpt>
<trkpt lat="-27.2872540" lon="152.8582630">
<ele>64.942</ele>
<time>2015-12-17T21:24:32.278Z</time>
</trkpt>
<trkpt lat="-27.2875015" lon="152.8576225">
<ele>61.415</ele>
<time>2015-12-17T21:24:35.357Z</time>
</trkpt>
<trkpt lat="-27.2876806" lon="152.8572361">
<ele>58.990</ele>
<time>2015-12-17T21:24:37.324Z</time>
</trkpt>
<trkpt lat="-27.2879265" lon="152.8566546">
<ele>57.860</ele>
<time>2015-12-17T21:24:40.319Z</time>
</trkpt>
<trkpt lat="-27.2881613" lon="152.8563465">
<ele>58.144</ele>
<time>2015-12-17T21:24:42.155Z</time>
</trkpt>
<trkpt lat="-27.2884291" lon="152.8560246">
<ele>59.980</ele>
<time>2015-12-17T21:24:44.129Z</time>
</trkpt>
<trkpt lat="-27.2888847" lon="152.8555733">
<ele>62.337</ele>
<time>2015-12-17T21:24:47.193Z</time>
</trkpt>
<trkpt lat="-27.2891358" lon="152.8552357">
<ele>63.553</ele>
<time>2015-12-17T21:24:49.154Z</time>
</trkpt>
<trkpt lat="-27.2894708" lon="152.8546748">
<ele>63.230</ele>
<time>2015-12-17T21:24:52.126Z</time>
</trkpt>
<trkpt lat="-27.2897185" lon="152.8543360">
<ele>62.336</ele>
<time>2015-12-17T21:24:54.045Z</time>
</trkpt>
<trkpt lat="-27.2901577" lon="152.8538752">
<ele>61.753</ele>
<time>2015-12-17T21:24:56.989Z</time>
</trkpt>
<trkpt lat="-27.2904836" lon="152.8536239">
<ele>60.523</ele>
<time>2015-12-17T21:24:58.944Z</time>
</trkpt>
<trkpt lat="-27.2908228" lon="152.8533828">
<ele>57.695</ele>
<time>2015-12-17T21:25:00.951Z</time>
</trkpt>
<trkpt lat="-27.2913262" lon="152.8530298">
<ele>54.499</ele>
<time>2015-12-17T21:25:04.446Z</time>
</trkpt>
<trkpt lat="-27.2915966" lon="152.8528187">
<ele>52.300</ele>
<time>2015-12-17T21:25:06.604Z</time>
</trkpt>
<trkpt lat="-27.2918383" lon="152.8526352">
<ele>50.564</ele>
<time>2015-12-17T21:25:08.534Z</time>
</trkpt>
<trkpt lat="-27.2922238" lon="152.8523745">
<ele>48.543</ele>
<time>2015-12-17T21:25:11.507Z</time>
</trkpt>
<trkpt lat="-27.2926359" lon="152.8521575">
<ele>46.442</ele>
<time>2015-12-17T21:25:14.584Z</time>
</trkpt>
<trkpt lat="-27.2929110" lon="152.8520310">
<ele>45.017</ele>
<time>2015-12-17T21:25:16.696Z</time>
</trkpt>
<trkpt lat="-27.2933022" lon="152.8518478">
<ele>44.489</ele>
<time>2015-12-17T21:25:20.205Z</time>
</trkpt>
<trkpt lat="-27.2935204" lon="152.8517439">
<ele>44.249</ele>
<time>2015-12-17T21:25:22.256Z</time>
</trkpt>
<trkpt lat="-27.2937041" lon="152.8516924">
<ele>43.508</ele>
<time>2015-12-17T21:25:23.785Z</time>
</trkpt>
<trkpt lat="-27.2940510" lon="152.8515712">
<ele>42.306</ele>
<time>2015-12-17T21:25:26.397Z</time>
</trkpt>
<trkpt lat="-27.2943154" lon="152.8515098">
<ele>41.747</ele>
<time>2015-12-17T21:25:28.199Z</time>
</trkpt>
<trkpt lat="-27.2946310" lon="152.8514509">
<ele>42.663</ele>
<time>2015-12-17T21:25:30.306Z</time>
</trkpt>
<trkpt lat="-27.2950696" lon="152.8513365">
<ele>44.617</ele>
<time>2015-12-17T21:25:33.273Z</time>
</trkpt>
<trkpt lat="-27.2955383" lon="152.8512524">
<ele>46.892</ele>
<time>2015-12-17T21:25:36.394Z</time>
</trkpt>
<trkpt lat="-27.2959654" lon="152.8511256">
<ele>49.463</ele>
<time>2015-12-17T21:25:39.279Z</time>
</trkpt>
<trkpt lat="-27.2962187" lon="152.8509238">
<ele>52.813</ele>
<time>2015-12-17T21:25:41.290Z</time>
</trkpt>
<trkpt lat="-27.2965172" lon="152.8505554">
<ele>56.724</ele>
<time>2015-12-17T21:25:44.116Z</time>
</trkpt>
<trkpt lat="-27.2966082" lon="152.8502263">
<ele>59.933</ele>
<time>2015-12-17T21:25:46.044Z</time>
</trkpt>
<trkpt lat="-27.2966912" lon="152.8496785">
<ele>61.646</ele>
<time>2015-12-17T21:25:49.005Z</time>
</trkpt>
<trkpt lat="-27.2968740" lon="152.8491568">
<ele>62.356</ele>
<time>2015-12-17T21:25:51.700Z</time>
</trkpt>
<trkpt lat="-27.2971438" lon="152.8485700">
<ele>62.729</ele>
<time>2015-12-17T21:25:54.670Z</time>
</trkpt>
<trkpt lat="-27.2974232" lon="152.8479705">
<ele>62.866</ele>
<time>2015-12-17T21:25:57.748Z</time>
</trkpt>
<trkpt lat="-27.2976844" lon="152.8474054">
<ele>62.095</ele>
<time>2015-12-17T21:26:00.726Z</time>
</trkpt>
<trkpt lat="-27.2982319" lon="152.8471069">
<ele>59.721</ele>
<time>2015-12-17T21:26:03.907Z</time>
</trkpt>
<trkpt lat="-27.2987318" lon="152.8468431">
<ele>56.200</ele>
<time>2015-12-17T21:26:06.896Z</time>
</trkpt>
<trkpt lat="-27.2990883" lon="152.8467207">
<ele>53.050</ele>
<time>2015-12-17T21:26:09.021Z</time>
</trkpt>
<trkpt lat="-27.2995274" lon="152.8464678">
<ele>50.975</ele>
<time>2015-12-17T21:26:11.880Z</time>
</trkpt>
<trkpt lat="-27.2997942" lon="152.8462169">
<ele>49.287</ele>
<time>2015-12-17T21:26:13.782Z</time>
</trkpt>
<trkpt lat="-27.3000857" lon="152.8456699">
<ele>47.588</ele>
<time>2015-12-17T21:26:16.684Z</time>
</trkpt>
<trkpt lat="-27.3002807" lon="152.8452926">
<ele>46.758</ele>
<time>2015-12-17T21:26:18.672Z</time>
</trkpt>
<trkpt lat="-27.3005029" lon="152.8449409">
<ele>47.242</ele>
<time>2015-12-17T21:26:20.661Z</time>
</trkpt>
<trkpt lat="-27.3007173" lon="152.8445827">
<ele>48.063</ele>
<time>2015-12-17T21:26:22.725Z</time>
</trkpt>
<trkpt lat="-27.3009489" lon="152.8442602">
<ele>48.178</ele>
<time>2015-12-17T21:26:24.788Z</time>
</trkpt>
<trkpt lat="-27.3013201" lon="152.8438485">
<ele>47.605</ele>
<time>2015-12-17T21:26:28.775Z</time>
</trkpt>
<trkpt lat="-27.3014808" lon="152.8436348">
<ele>46.788</ele>
<time>2015-12-17T21:26:32.303Z</time>
</trkpt>
<trkpt lat="-27.3016044" lon="152.8434160">
<ele>45.686</ele>
<time>2015-12-17T21:26:35.460Z</time>
</trkpt>
<trkpt lat="-27.3016889" lon="152.8433211">
<ele>44.288</ele>
<time>2015-12-17T21:26:36.553Z</time>
</trkpt>
<trkpt lat="-27.3019863" lon="152.8431804">
<ele>43.319</ele>
<time>2015-12-17T21:26:38.866Z</time>
</trkpt>
<trkpt lat="-27.3025250" lon="152.8430285">
<ele>44.028</ele>
<time>2015-12-17T21:26:41.760Z</time>
</trkpt>
<trkpt lat="-27.3030191" lon="152.8429821">
<ele>48.369</ele>
<time>2015-12-17T21:26:44.090Z</time>
</trkpt>
<trkpt lat="-27.3035064" lon="152.8428566">
<ele>56.828</ele>
<time>2015-12-17T21:26:46.373Z</time>
</trkpt>
<trkpt lat="-27.3042234" lon="152.8427259">
<ele>66.453</ele>
<time>2015-12-17T21:26:49.462Z</time>
</trkpt>
<trkpt lat="-27.3046975" lon="152.8426346">
<ele>73.684</ele>
<time>2015-12-17T21:26:51.466Z</time>
</trkpt>
<trkpt lat="-27.3051725" lon="152.8425455">
<ele>77.158</ele>
<time>2015-12-17T21:26:53.470Z</time>
</trkpt>
<trkpt lat="-27.3058578" lon="152.8424282">
<ele>77.464</ele>
<time>2015-12-17T21:26:56.301Z</time>
</trkpt>
<trkpt lat="-27.3063632" lon="152.8424299">
<ele>73.281</ele>
<time>2015-12-17T21:26:58.330Z</time>
</trkpt>
<trkpt lat="-27.3068670" lon="152.8424849">
<ele>63.912</ele>
<time>2015-12-17T21:27:00.367Z</time>
</trkpt>
<trkpt lat="-27.3076027" lon="152.8426462">
<ele>54.339</ele>
<time>2015-12-17T21:27:03.456Z</time>
</trkpt>
<trkpt lat="-27.3080556" lon="152.8428247">
<ele>50.086</ele>
<time>2015-12-17T21:27:05.441Z</time>
</trkpt>
<trkpt lat="-27.3087057" lon="152.8431746">
<ele>51.903</ele>
<time>2015-12-17T21:27:08.392Z</time>
</trkpt>
<trkpt lat="-27.3093300" lon="152.8436261">
<ele>57.633</ele>
<time>2015-12-17T21:27:11.399Z</time>
</trkpt>
<trkpt lat="-27.3097088" lon="152.8439633">
<ele>63.731</ele>
<time>2015-12-17T21:27:13.341Z</time>
</trkpt>
<trkpt lat="-27.3100005" lon="152.8444427">
<ele>67.814</ele>
<time>2015-12-17T21:27:15.404Z</time>
</trkpt>
<trkpt lat="-27.3104179" lon="152.8451457">
<ele>69.561</ele>
<time>2015-12-17T21:27:18.369Z</time>
</trkpt>
<trkpt lat="-27.3107593" lon="152.8459104">
<ele>69.379</ele>
<time>2015-12-17T21:27:21.375Z</time>
</trkpt>
<trkpt lat="-27.3109649" lon="152.8467158">
<ele>67.894</ele>
<time>2015-12-17T21:27:24.333Z</time>
</trkpt>
<trkpt lat="-27.3110350" lon="152.8472701">
<ele>65.609</ele>
<time>2015-12-17T21:27:26.321Z</time>
</trkpt>
<trkpt lat="-27.3110466" lon="152.8478255">
<ele>63.073</ele>
<time>2015-12-17T21:27:28.292Z</time>
</trkpt>
<trkpt lat="-27.3110095" lon="152.8483753">
<ele>60.963</ele>
<time>2015-12-17T21:27:30.233Z</time>
</trkpt>
<trkpt lat="-27.3108759" lon="152.8492031">
<ele>59.638</ele>
<time>2015-12-17T21:27:33.207Z</time>
</trkpt>
<trkpt lat="-27.3107556" lon="152.8497431">
<ele>58.906</ele>
<time>2015-12-17T21:27:35.208Z</time>
</trkpt>
<trkpt lat="-27.3105269" lon="152.8505110">
<ele>58.393</ele>
<time>2015-12-17T21:27:38.145Z</time>
</trkpt>
<trkpt lat="-27.3103177" lon="152.8513036">
<ele>57.820</ele>
<time>2015-12-17T21:27:41.104Z</time>
</trkpt>
<trkpt lat="-27.3102747" lon="152.8518770">
<ele>57.537</ele>
<time>2015-12-17T21:27:43.168Z</time>
</trkpt>
<trkpt lat="-27.3102977" lon="152.8527087">
<ele>57.880</ele>
<time>2015-12-17T21:27:46.149Z</time>
</trkpt>
<trkpt lat="-27.3103711" lon="152.8532333">
<ele>58.747</ele>
<time>2015-12-17T21:27:48.037Z</time>
</trkpt>
<trkpt lat="-27.3106045" lon="152.8540500">
<ele>60.209</ele>
<time>2015-12-17T21:27:51.093Z</time>
</trkpt>
<trkpt lat="-27.3109343" lon="152.8547899">
<ele>62.710</ele>
<time>2015-12-17T21:27:54.071Z</time>
</trkpt>
<trkpt lat="-27.3113824" lon="152.8554532">
<ele>66.061</ele>
<time>2015-12-17T21:27:57.036Z</time>
</trkpt>
<trkpt lat="-27.3119313" lon="152.8560267">
<ele>69.625</ele>
<time>2015-12-17T21:28:00.024Z</time>
</trkpt>
<trkpt lat="-27.3125544" lon="152.8564732">
<ele>73.245</ele>
<time>2015-12-17T21:28:03.002Z</time>
</trkpt>
<trkpt lat="-27.3130062" lon="152.8567090">
<ele>76.522</ele>
<time>2015-12-17T21:28:05.018Z</time>
</trkpt>
<trkpt lat="-27.3137124" lon="152.8569571">
<ele>78.749</ele>
<time>2015-12-17T21:28:08.131Z</time>
</trkpt>
<trkpt lat="-27.3141543" lon="152.8571335">
<ele>79.966</ele>
<time>2015-12-17T21:28:10.134Z</time>
</trkpt>
<trkpt lat="-27.3145779" lon="152.8573699">
<ele>80.645</ele>
<time>2015-12-17T21:28:12.137Z</time>
</trkpt>
<trkpt lat="-27.3151617" lon="152.8578270">
<ele>81.312</ele>
<time>2015-12-17T21:28:15.049Z</time>
</trkpt>
<trkpt lat="-27.3156634" lon="152.8584438">
<ele>82.211</ele>
<time>2015-12-17T21:28:18.103Z</time>
</trkpt>
<trkpt lat="-27.3159559" lon="152.8588782">
<ele>82.985</ele>
<time>2015-12-17T21:28:20.156Z</time>
</trkpt>
<trkpt lat="-27.3162689" lon="152.8592560">
<ele>83.015</ele>
<time>2015-12-17T21:28:22.118Z</time>
</trkpt>
<trkpt lat="-27.3166288" lon="152.8595854">
<ele>81.983</ele>
<time>2015-12-17T21:28:24.097Z</time>
</trkpt>
<trkpt lat="-27.3172455" lon="152.8599693">
<ele>80.468</ele>
<time>2015-12-17T21:28:26.987Z</time>
</trkpt>
<trkpt lat="-27.3177147" lon="152.8601668">
<ele>79.619</ele>
<time>2015-12-17T21:28:28.986Z</time>
</trkpt>
<trkpt lat="-27.3184460" lon="152.8603767">
<ele>79.836</ele>
<time>2015-12-17T21:28:31.916Z</time>
</trkpt>
<trkpt lat="-27.3191972" lon="152.8605805">
<ele>80.509</ele>
<time>2015-12-17T21:28:34.921Z</time>
</trkpt>
<trkpt lat="-27.3199507" lon="152.8607692">
<ele>80.975</ele>
<time>2015-12-17T21:28:37.980Z</time>
</trkpt>
<trkpt lat="-27.3204398" lon="152.8608968">
<ele>80.687</ele>
<time>2015-12-17T21:28:40.065Z</time>
</trkpt>
<trkpt lat="-27.3208873" lon="152.8610144">
<ele>79.353</ele>
<time>2015-12-17T21:28:42.093Z</time>
</trkpt>
<trkpt lat="-27.3213219" lon="152.8611265">
<ele>77.239</ele>
<time>2015-12-17T21:28:44.157Z</time>
</trkpt>
<trkpt lat="-27.3217227" lon="152.8612265">
<ele>74.686</ele>
<time>2015-12-17T21:28:46.085Z</time>
</trkpt>
<trkpt lat="-27.3223207" lon="152.8613837">
<ele>71.694</ele>
<time>2015-12-17T21:28:48.993Z</time>
</trkpt>
<trkpt lat="-27.3227317" lon="152.8614896">
<ele>68.690</ele>
<time>2015-12-17T21:28:50.992Z</time>
</trkpt>
<trkpt lat="-27.3233429" lon="152.8616833">
<ele>66.564</ele>
<time>2015-12-17T21:28:54.013Z</time>
</trkpt>
<trkpt lat="-27.3237242" lon="152.8618749">
<ele>65.374</ele>
<time>2015-12-17T21:28:56.008Z</time>
</trkpt>
<trkpt lat="-27.3240842" lon="152.8620913">
<ele>64.300</ele>
<time>2015-12-17T21:28:57.958Z</time>
</trkpt>
<trkpt lat="-27.3245831" lon="152.8625346">
<ele>63.055</ele>
<time>2015-12-17T21:29:00.951Z</time>
</trkpt>
<trkpt lat="-27.3248674" lon="152.8628777">
<ele>61.719</ele>
<time>2015-12-17T21:29:02.910Z</time>
</trkpt>
<trkpt lat="-27.3252584" lon="152.8634434">
<ele>60.419</ele>
<time>2015-12-17T21:29:05.984Z</time>
</trkpt>
<trkpt lat="-27.3255135" lon="152.8638140">
<ele>59.128</ele>
<time>2015-12-17T21:29:08.050Z</time>
</trkpt>
<trkpt lat="-27.3257683" lon="152.8641658">
<ele>57.578</ele>
<time>2015-12-17T21:29:10.060Z</time>
</trkpt>
<trkpt lat="-27.3261663" lon="152.8646764">
<ele>55.924</ele>
<time>2015-12-17T21:29:13.051Z</time>
</trkpt>
<trkpt lat="-27.3265749" lon="152.8651773">
<ele>54.692</ele>
<time>2015-12-17T21:29:16.029Z</time>
</trkpt>
<trkpt lat="-27.3270045" lon="152.8656626">
<ele>54.055</ele>
<time>2015-12-17T21:29:19.027Z</time>
</trkpt>
<trkpt lat="-27.3273172" lon="152.8659555">
<ele>53.914</ele>
<time>2015-12-17T21:29:21.035Z</time>
</trkpt>
<trkpt lat="-27.3276460" lon="152.8662108">
<ele>54.053</ele>
<time>2015-12-17T21:29:23.001Z</time>
</trkpt>
<trkpt lat="-27.3281857" lon="152.8665139">
<ele>54.240</ele>
<time>2015-12-17T21:29:25.996Z</time>
</trkpt>
<trkpt lat="-27.3285508" lon="152.8666547">
<ele>54.295</ele>
<time>2015-12-17T21:29:27.919Z</time>
</trkpt>
<trkpt lat="-27.3289430" lon="152.8667679">
<ele>54.185</ele>
<time>2015-12-17T21:29:29.933Z</time>
</trkpt>
<trkpt lat="-27.3295288" lon="152.8669371">
<ele>54.265</ele>
<time>2015-12-17T21:29:32.943Z</time>
</trkpt>
<trkpt lat="-27.3299136" lon="152.8670897">
<ele>55.132</ele>
<time>2015-12-17T21:29:34.967Z</time>
</trkpt>
<trkpt lat="-27.3304501" lon="152.8673836">
<ele>57.043</ele>
<time>2015-12-17T21:29:37.844Z</time>
</trkpt>
<trkpt lat="-27.3308137" lon="152.8676441">
<ele>60.089</ele>
<time>2015-12-17T21:29:39.892Z</time>
</trkpt>
<trkpt lat="-27.3313158" lon="152.8680969">
<ele>64.062</ele>
<time>2015-12-17T21:29:42.992Z</time>
</trkpt>
<trkpt lat="-27.3316958" lon="152.8685885">
<ele>68.181</ele>
<time>2015-12-17T21:29:45.867Z</time>
</trkpt>
<trkpt lat="-27.3320306" lon="152.8691427">
<ele>71.608</ele>
<time>2015-12-17T21:29:48.815Z</time>
</trkpt>
<trkpt lat="-27.3322679" lon="152.8697694">
<ele>73.808</ele>
<time>2015-12-17T21:29:51.785Z</time>
</trkpt>
<trkpt lat="-27.3324412" lon="152.8704093">
<ele>74.300</ele>
<time>2015-12-17T21:29:54.687Z</time>
</trkpt>
<trkpt lat="-27.3327503" lon="152.8710558">
<ele>72.427</ele>
<time>2015-12-17T21:29:57.845Z</time>
</trkpt>
<trkpt lat="-27.3330232" lon="152.8714029">
<ele>67.696</ele>
<time>2015-12-17T21:29:59.823Z</time>
</trkpt>
<trkpt lat="-27.3335548" lon="152.8717768">
<ele>61.375</ele>
<time>2015-12-17T21:30:02.783Z</time>
</trkpt>
<trkpt lat="-27.3339522" lon="152.8719050">
<ele>56.220</ele>
<time>2015-12-17T21:30:04.741Z</time>
</trkpt>
<trkpt lat="-27.3345682" lon="152.8719111">
<ele>54.505</ele>
<time>2015-12-17T21:30:07.681Z</time>
</trkpt>
<trkpt lat="-27.3351858" lon="152.8717931">
<ele>57.051</ele>
<time>2015-12-17T21:30:10.730Z</time>
</trkpt>
<trkpt lat="-27.3356038" lon="152.8716359">
<ele>63.025</ele>
<time>2015-12-17T21:30:12.916Z</time>
</trkpt>
<trkpt lat="-27.3361946" lon="152.8715133">
<ele>69.785</ele>
<time>2015-12-17T21:30:15.910Z</time>
</trkpt>
<trkpt lat="-27.3367846" lon="152.8714869">
<ele>74.926</ele>
<time>2015-12-17T21:30:18.802Z</time>
</trkpt>
<trkpt lat="-27.3371896" lon="152.8714738">
<ele>78.342</ele>
<time>2015-12-17T21:30:20.757Z</time>
</trkpt>
<trkpt lat="-27.3378072" lon="152.8714917">
<ele>80.773</ele>
<time>2015-12-17T21:30:23.745Z</time>
</trkpt>
<trkpt lat="-27.3384134" lon="152.8715174">
<ele>81.982</ele>
<time>2015-12-17T21:30:26.743Z</time>
</trkpt>
<trkpt lat="-27.3390102" lon="152.8715473">
<ele>81.483</ele>
<time>2015-12-17T21:30:29.764Z</time>
</trkpt>
<trkpt lat="-27.3395784" lon="152.8715604">
<ele>79.408</ele>
<time>2015-12-17T21:30:32.643Z</time>
</trkpt>
<trkpt lat="-27.3399709" lon="152.8715681">
<ele>76.686</ele>
<time>2015-12-17T21:30:34.611Z</time>
</trkpt>
<trkpt lat="-27.3403633" lon="152.8715911">
<ele>74.551</ele>
<time>2015-12-17T21:30:36.555Z</time>
</trkpt>
<trkpt lat="-27.3407712" lon="152.8716277">
<ele>73.920</ele>
<time>2015-12-17T21:30:38.550Z</time>
</trkpt>
<trkpt lat="-27.3411943" lon="152.8716756">
<ele>74.768</ele>
<time>2015-12-17T21:30:40.616Z</time>
</trkpt>
<trkpt lat="-27.3418100" lon="152.8717418">
<ele>76.216</ele>
<time>2015-12-17T21:30:43.710Z</time>
</trkpt>
<trkpt lat="-27.3423823" lon="152.8718131">
<ele>77.935</ele>
<time>2015-12-17T21:30:46.747Z</time>
</trkpt>
<trkpt lat="-27.3427352" lon="152.8719132">
<ele>79.941</ele>
<time>2015-12-17T21:30:48.677Z</time>
</trkpt>
<trkpt lat="-27.3432261" lon="152.8722328">
<ele>81.539</ele>
<time>2015-12-17T21:30:51.601Z</time>
</trkpt>
<trkpt lat="-27.3435494" lon="152.8724754">
<ele>82.161</ele>
<time>2015-12-17T21:30:53.606Z</time>
</trkpt>
<trkpt lat="-27.3438725" lon="152.8726759">
<ele>81.890</ele>
<time>2015-12-17T21:30:55.547Z</time>
</trkpt>
<trkpt lat="-27.3443449" lon="152.8730798">
<ele>80.424</ele>
<time>2015-12-17T21:30:58.840Z</time>
</trkpt>
<trkpt lat="-27.3446357" lon="152.8733124">
<ele>77.623</ele>
<time>2015-12-17T21:31:00.888Z</time>
</trkpt>
<trkpt lat="-27.3448761" lon="152.8735826">
<ele>74.708</ele>
<time>2015-12-17T21:31:02.839Z</time>
</trkpt>
<trkpt lat="-27.3450967" lon="152.8741030">
<ele>73.425</ele>
<time>2015-12-17T21:31:05.689Z</time>
</trkpt>
<trkpt lat="-27.3451950" lon="152.8747150">
<ele>74.582</ele>
<time>2015-12-17T21:31:08.709Z</time>
</trkpt>
<trkpt lat="-27.3452748" lon="152.8751314">
<ele>77.500</ele>
<time>2015-12-17T21:31:10.795Z</time>
</trkpt>
<trkpt lat="-27.3454711" lon="152.8756878">
<ele>80.341</ele>
<time>2015-12-17T21:31:13.766Z</time>
</trkpt>
<trkpt lat="-27.3456131" lon="152.8760665">
<ele>81.771</ele>
<time>2015-12-17T21:31:15.814Z</time>
</trkpt>
<trkpt lat="-27.3458173" lon="152.8766130">
<ele>81.885</ele>
<time>2015-12-17T21:31:18.757Z</time>
</trkpt>
<trkpt lat="-27.3459586" lon="152.8769818">
<ele>81.707</ele>
<time>2015-12-17T21:31:20.742Z</time>
</trkpt>
<trkpt lat="-27.3460707" lon="152.8773632">
<ele>82.195</ele>
<time>2015-12-17T21:31:22.742Z</time>
</trkpt>
<trkpt lat="-27.3461397" lon="152.8777545">
<ele>83.386</ele>
<time>2015-12-17T21:31:24.757Z</time>
</trkpt>
<trkpt lat="-27.3462361" lon="152.8783183">
<ele>84.762</ele>
<time>2015-12-17T21:31:27.786Z</time>
</trkpt>
<trkpt lat="-27.3464823" lon="152.8787736">
<ele>86.026</ele>
<time>2015-12-17T21:31:30.588Z</time>
</trkpt>
<trkpt lat="-27.3466930" lon="152.8790669">
<ele>87.372</ele>
<time>2015-12-17T21:31:32.495Z</time>
</trkpt>
<trkpt lat="-27.3470481" lon="152.8795309">
<ele>88.838</ele>
<time>2015-12-17T21:31:35.465Z</time>
</trkpt>
<trkpt lat="-27.3473990" lon="152.8799916">
<ele>89.869</ele>
<time>2015-12-17T21:31:38.383Z</time>
</trkpt>
<trkpt lat="-27.3476374" lon="152.8803056">
<ele>89.606</ele>
<time>2015-12-17T21:31:40.395Z</time>
</trkpt>
<trkpt lat="-27.3480099" lon="152.8807776">
<ele>87.803</ele>
<time>2015-12-17T21:31:43.472Z</time>
</trkpt>
<trkpt lat="-27.3482727" lon="152.8810705">
<ele>85.087</ele>
<time>2015-12-17T21:31:45.516Z</time>
</trkpt>
<trkpt lat="-27.3485515" lon="152.8813440">
<ele>82.443</ele>
<time>2015-12-17T21:31:47.596Z</time>
</trkpt>
<trkpt lat="-27.3489549" lon="152.8817217">
<ele>80.364</ele>
<time>2015-12-17T21:31:50.727Z</time>
</trkpt>
<trkpt lat="-27.3493709" lon="152.8819815">
<ele>78.395</ele>
<time>2015-12-17T21:31:53.720Z</time>
</trkpt>
<trkpt lat="-27.3498478" lon="152.8820444">
<ele>75.801</ele>
<time>2015-12-17T21:31:56.630Z</time>
</trkpt>
<trkpt lat="-27.3501827" lon="152.8819796">
<ele>72.587</ele>
<time>2015-12-17T21:31:58.592Z</time>
</trkpt>
<trkpt lat="-27.3506552" lon="152.8817547">
<ele>69.405</ele>
<time>2015-12-17T21:32:01.436Z</time>
</trkpt>
<trkpt lat="-27.3510063" lon="152.8816049">
<ele>66.722</ele>
<time>2015-12-17T21:32:03.464Z</time>
</trkpt>
<trkpt lat="-27.3513441" lon="152.8814482">
<ele>64.363</ele>
<time>2015-12-17T21:32:05.407Z</time>
</trkpt>
<trkpt lat="-27.3518931" lon="152.8812523">
<ele>61.913</ele>
<time>2015-12-17T21:32:08.490Z</time>
</trkpt>
<trkpt lat="-27.3522341" lon="152.8811044">
<ele>58.836</ele>
<time>2015-12-17T21:32:10.468Z</time>
</trkpt>
<trkpt lat="-27.3526057" lon="152.8810248">
<ele>54.730</ele>
<time>2015-12-17T21:32:12.501Z</time>
</trkpt>
<trkpt lat="-27.3531658" lon="152.8810101">
<ele>50.167</ele>
<time>2015-12-17T21:32:15.524Z</time>
</trkpt>
<trkpt lat="-27.3537141" lon="152.8810989">
<ele>46.138</ele>
<time>2015-12-17T21:32:18.570Z</time>
</trkpt>
<trkpt lat="-27.3542226" lon="152.8812850">
<ele>43.080</ele>
<time>2015-12-17T21:32:21.570Z</time>
</trkpt>
<trkpt lat="-27.3545446" lon="152.8814586">
<ele>40.867</ele>
<time>2015-12-17T21:32:23.603Z</time>
</trkpt>
<trkpt lat="-27.3548460" lon="152.8816574">
<ele>39.310</ele>
<time>2015-12-17T21:32:25.594Z</time>
</trkpt>
<trkpt lat="-27.3551036" lon="152.8818793">
<ele>38.470</ele>
<time>2015-12-17T21:32:27.428Z</time>
</trkpt>
<trkpt lat="-27.3554915" lon="152.8822893">
<ele>38.261</ele>
<time>2015-12-17T21:32:30.411Z</time>
</trkpt>
<trkpt lat="-27.3558799" lon="152.8827218">
<ele>38.384</ele>
<time>2015-12-17T21:32:33.485Z</time>
</trkpt>
<trkpt lat="-27.3562241" lon="152.8831639">
<ele>38.612</ele>
<time>2015-12-17T21:32:36.450Z</time>
</trkpt>
<trkpt lat="-27.3566062" lon="152.8835792">
<ele>38.821</ele>
<time>2015-12-17T21:32:39.482Z</time>
</trkpt>
<trkpt lat="-27.3568732" lon="152.8838211">
<ele>39.001</ele>
<time>2015-12-17T21:32:41.439Z</time>
</trkpt>
<trkpt lat="-27.3571515" lon="152.8840500">
<ele>39.183</ele>
<time>2015-12-17T21:32:43.407Z</time>
</trkpt>
<trkpt lat="-27.3575573" lon="152.8843868">
<ele>39.373</ele>
<time>2015-12-17T21:32:46.291Z</time>
</trkpt>
<trkpt lat="-27.3578396" lon="152.8846183">
<ele>39.757</ele>
<time>2015-12-17T21:32:48.276Z</time>
</trkpt>
<trkpt lat="-27.3581148" lon="152.8848420">
<ele>40.468</ele>
<time>2015-12-17T21:32:50.201Z</time>
</trkpt>
<trkpt lat="-27.3583931" lon="152.8850731">
<ele>41.223</ele>
<time>2015-12-17T21:32:52.168Z</time>
</trkpt>
<trkpt lat="-27.3586820" lon="152.8853148">
<ele>41.881</ele>
<time>2015-12-17T21:32:54.276Z</time>
</trkpt>
<trkpt lat="-27.3590802" lon="152.8856319">
<ele>42.561</ele>
<time>2015-12-17T21:32:57.184Z</time>
</trkpt>
<trkpt lat="-27.3594804" lon="152.8859512">
<ele>42.953</ele>
<time>2015-12-17T21:33:00.059Z</time>
</trkpt>
<trkpt lat="-27.3597638" lon="152.8861922">
<ele>42.714</ele>
<time>2015-12-17T21:33:02.057Z</time>
</trkpt>
<trkpt lat="-27.3600551" lon="152.8864334">
<ele>42.148</ele>
<time>2015-12-17T21:33:04.092Z</time>
</trkpt>
<trkpt lat="-27.3603474" lon="152.8866387">
<ele>41.771</ele>
<time>2015-12-17T21:33:06.064Z</time>
</trkpt>
<trkpt lat="-27.3608050" lon="152.8869149">
<ele>41.820</ele>
<time>2015-12-17T21:33:09.045Z</time>
</trkpt>
<trkpt lat="-27.3610902" lon="152.8871299">
<ele>42.486</ele>
<time>2015-12-17T21:33:11.016Z</time>
</trkpt>
<trkpt lat="-27.3613591" lon="152.8873486">
<ele>43.709</ele>
<time>2015-12-17T21:33:12.987Z</time>
</trkpt>
<trkpt lat="-27.3617404" lon="152.8876933">
<ele>44.915</ele>
<time>2015-12-17T21:33:16.068Z</time>
</trkpt>
<trkpt lat="-27.3620989" lon="152.8879805">
<ele>45.642</ele>
<time>2015-12-17T21:33:18.983Z</time>
</trkpt>
<trkpt lat="-27.3625195" lon="152.8881260">
<ele>46.023</ele>
<time>2015-12-17T21:33:21.839Z</time>
</trkpt>
<trkpt lat="-27.3628466" lon="152.8881564">
<ele>46.784</ele>
<time>2015-12-17T21:33:23.913Z</time>
</trkpt>
<trkpt lat="-27.3633007" lon="152.8881852">
<ele>48.612</ele>
<time>2015-12-17T21:33:26.772Z</time>
</trkpt>
<trkpt lat="-27.3637750" lon="152.8882145">
<ele>50.921</ele>
<time>2015-12-17T21:33:29.726Z</time>
</trkpt>
<trkpt lat="-27.3641033" lon="152.8882406">
<ele>52.125</ele>
<time>2015-12-17T21:33:31.797Z</time>
</trkpt>
<trkpt lat="-27.3645754" lon="152.8882697">
<ele>51.337</ele>
<time>2015-12-17T21:33:34.833Z</time>
</trkpt>
<trkpt lat="-27.3648753" lon="152.8882925">
<ele>49.107</ele>
<time>2015-12-17T21:33:36.834Z</time>
</trkpt>
<trkpt lat="-27.3653224" lon="152.8883025">
<ele>46.504</ele>
<time>2015-12-17T21:33:39.844Z</time>
</trkpt>
<trkpt lat="-27.3656131" lon="152.8883217">
<ele>44.229</ele>
<time>2015-12-17T21:33:41.799Z</time>
</trkpt>
<trkpt lat="-27.3659188" lon="152.8883340">
<ele>42.719</ele>
<time>2015-12-17T21:33:43.863Z</time>
</trkpt>
<trkpt lat="-27.3662094" lon="152.8883497">
<ele>42.159</ele>
<time>2015-12-17T21:33:45.836Z</time>
</trkpt>
<trkpt lat="-27.3666579" lon="152.8884058">
<ele>42.274</ele>
<time>2015-12-17T21:33:48.935Z</time>
</trkpt>
<trkpt lat="-27.3669382" lon="152.8884383">
<ele>42.480</ele>
<time>2015-12-17T21:33:50.985Z</time>
</trkpt>
<trkpt lat="-27.3671998" lon="152.8884408">
<ele>42.334</ele>
<time>2015-12-17T21:33:52.983Z</time>
</trkpt>
<trkpt lat="-27.3674326" lon="152.8883705">
<ele>41.810</ele>
<time>2015-12-17T21:33:54.807Z</time>
</trkpt>
<trkpt lat="-27.3677835" lon="152.8881548">
<ele>41.195</ele>
<time>2015-12-17T21:33:57.765Z</time>
</trkpt>
<trkpt lat="-27.3680031" lon="152.8879748">
<ele>40.954</ele>
<time>2015-12-17T21:33:59.774Z</time>
</trkpt>
<trkpt lat="-27.3683534" lon="152.8877482">
<ele>41.255</ele>
<time>2015-12-17T21:34:02.852Z</time>
</trkpt>
<trkpt lat="-27.3686829" lon="152.8875588">
<ele>41.686</ele>
<time>2015-12-17T21:34:05.774Z</time>
</trkpt>
<trkpt lat="-27.3689145" lon="152.8874562">
<ele>41.781</ele>
<time>2015-12-17T21:34:07.788Z</time>
</trkpt>
<trkpt lat="-27.3691292" lon="152.8873639">
<ele>41.507</ele>
<time>2015-12-17T21:34:09.731Z</time>
</trkpt>
<trkpt lat="-27.3693444" lon="152.8873282">
<ele>41.076</ele>
<time>2015-12-17T21:34:11.779Z</time>
</trkpt>
<trkpt lat="-27.3696234" lon="152.8872663">
<ele>40.641</ele>
<time>2015-12-17T21:34:14.810Z</time>
</trkpt>
<trkpt lat="-27.3697741" lon="152.8872312">
<ele>40.181</ele>
<time>2015-12-17T21:34:17.371Z</time>
</trkpt>
<trkpt lat="-27.3698915" lon="152.8872186">
<ele>39.653</ele>
<time>2015-12-17T21:34:20.212Z</time>
</trkpt>
<trkpt lat="-27.3699922" lon="152.8871489">
<ele>39.072</ele>
<time>2015-12-17T21:34:23.384Z</time>
</trkpt>
<trkpt lat="-27.3700102" lon="152.8869986">
<ele>38.560</ele>
<time>2015-12-17T21:34:26.531Z</time>
</trkpt>
<trkpt lat="-27.3699255" lon="152.8868677">
<ele>38.262</ele>
<time>2015-12-17T21:34:28.757Z</time>
</trkpt>
<trkpt lat="-27.3697674" lon="152.8867237">
<ele>38.238</ele>
<time>2015-12-17T21:34:30.956Z</time>
</trkpt>
<trkpt lat="-27.3694971" lon="152.8864656">
<ele>38.605</ele>
<time>2015-12-17T21:34:34.125Z</time>
</trkpt>
<trkpt lat="-27.3692434" lon="152.8862119">
<ele>39.495</ele>
<time>2015-12-17T21:34:37.343Z</time>
</trkpt>
<trkpt lat="-27.3690766" lon="152.8860671">
<ele>40.713</ele>
<time>2015-12-17T21:34:40.359Z</time>
</trkpt>
<trkpt lat="-27.3689725" lon="152.8861159">
<ele>41.790</ele>
<time>2015-12-17T21:34:43.267Z</time>
</trkpt>
<trkpt lat="-27.3689048" lon="152.8861952">
<ele>42.411</ele>
<time>2015-12-17T21:34:46.992Z</time>
</trkpt>
<trkpt lat="-27.3689048" lon="152.8861952">
<ele>42.597</ele>
<time>2015-12-17T21:34:49.992Z</time>
</trkpt>
<trkpt lat="-27.3689048" lon="152.8861952">
<ele>42.577</ele>
<time>2015-12-17T22:43:14.646Z</time>
</trkpt>
<trkpt lat="-27.3690217" lon="152.8861341">
<ele>42.513</ele>
<time>2015-12-17T22:43:22.272Z</time>
</trkpt>
<trkpt lat="-27.3691057" lon="152.8860954">
<ele>41.603</ele>
<time>2015-12-17T22:43:25.082Z</time>
</trkpt>
<trkpt lat="-27.3691977" lon="152.8861593">
<ele>39.359</ele>
<time>2015-12-17T22:43:26.907Z</time>
</trkpt>
<trkpt lat="-27.3693866" lon="152.8863993">
<ele>37.247</ele>
<time>2015-12-17T22:43:30.173Z</time>
</trkpt>
<trkpt lat="-27.3695340" lon="152.8865406">
<ele>36.581</ele>
<time>2015-12-17T22:43:32.161Z</time>
</trkpt>
<trkpt lat="-27.3696992" lon="152.8867302">
<ele>36.767</ele>
<time>2015-12-17T22:43:34.796Z</time>
</trkpt>
<trkpt lat="-27.3698525" lon="152.8868696">
<ele>36.745</ele>
<time>2015-12-17T22:43:37.346Z</time>
</trkpt>
<trkpt lat="-27.3699608" lon="152.8870265">
<ele>36.154</ele>
<time>2015-12-17T22:43:40.071Z</time>
</trkpt>
<trkpt lat="-27.3699608" lon="152.8870265">
<ele>35.419</ele>
<time>2015-12-17T22:43:44.077Z</time>
</trkpt>
<trkpt lat="-27.3699608" lon="152.8870265">
<ele>35.047</ele>
<time>2015-12-17T22:43:47.859Z</time>
</trkpt>
<trkpt lat="-27.3701318" lon="152.8871479">
<ele>35.068</ele>
<time>2015-12-17T22:43:53.609Z</time>
</trkpt>
<trkpt lat="-27.3702936" lon="152.8871253">
<ele>35.198</ele>
<time>2015-12-17T22:43:55.463Z</time>
</trkpt>
<trkpt lat="-27.3706118" lon="152.8870571">
<ele>35.212</ele>
<time>2015-12-17T22:43:58.547Z</time>
</trkpt>
<trkpt lat="-27.3708473" lon="152.8870124">
<ele>35.410</ele>
<time>2015-12-17T22:44:00.557Z</time>
</trkpt>
<trkpt lat="-27.3712117" lon="152.8869493">
<ele>36.239</ele>
<time>2015-12-17T22:44:03.615Z</time>
</trkpt>
<trkpt lat="-27.3715637" lon="152.8869060">
<ele>37.501</ele>
<time>2015-12-17T22:44:06.608Z</time>
</trkpt>
<trkpt lat="-27.3717654" lon="152.8868750">
<ele>38.649</ele>
<time>2015-12-17T22:44:08.770Z</time>
</trkpt>
<trkpt lat="-27.3719791" lon="152.8868480">
<ele>39.419</ele>
<time>2015-12-17T22:44:11.977Z</time>
</trkpt>
<trkpt lat="-27.3720860" lon="152.8868210">
<ele>39.418</ele>
<time>2015-12-17T22:44:14.249Z</time>
</trkpt>
<trkpt lat="-27.3722253" lon="152.8867937">
<ele>38.454</ele>
<time>2015-12-17T22:44:16.996Z</time>
</trkpt>
<trkpt lat="-27.3724536" lon="152.8867322">
<ele>37.212</ele>
<time>2015-12-17T22:44:20.169Z</time>
</trkpt>
<trkpt lat="-27.3727453" lon="152.8866676">
<ele>36.705</ele>
<time>2015-12-17T22:44:23.360Z</time>
</trkpt>
<trkpt lat="-27.3729269" lon="152.8866344">
<ele>37.401</ele>
<time>2015-12-17T22:44:25.305Z</time>
</trkpt>
<trkpt lat="-27.3731754" lon="152.8865889">
<ele>38.847</ele>
<time>2015-12-17T22:44:28.199Z</time>
</trkpt>
<trkpt lat="-27.3733302" lon="152.8865637">
<ele>40.058</ele>
<time>2015-12-17T22:44:30.143Z</time>
</trkpt>
<trkpt lat="-27.3735606" lon="152.8865839">
<ele>40.580</ele>
<time>2015-12-17T22:44:33.127Z</time>
</trkpt>
<trkpt lat="-27.3737023" lon="152.8865800">
<ele>40.864</ele>
<time>2015-12-17T22:44:35.184Z</time>
</trkpt>
<trkpt lat="-27.3738080" lon="152.8864262">
<ele>41.365</ele>
<time>2015-12-17T22:44:37.843Z</time>
</trkpt>
<trkpt lat="-27.3736862" lon="152.8862419">
<ele>41.838</ele>
<time>2015-12-17T22:44:40.445Z</time>
</trkpt>
<trkpt lat="-27.3735634" lon="152.8860430">
<ele>41.945</ele>
<time>2015-12-17T22:44:42.412Z</time>
</trkpt>
<trkpt lat="-27.3734414" lon="152.8856240">
<ele>41.913</ele>
<time>2015-12-17T22:44:45.485Z</time>
</trkpt>
<trkpt lat="-27.3733938" lon="152.8853099">
<ele>42.216</ele>
<time>2015-12-17T22:44:47.480Z</time>
</trkpt>
<trkpt lat="-27.3733466" lon="152.8849951">
<ele>42.919</ele>
<time>2015-12-17T22:44:49.434Z</time>
</trkpt>
<trkpt lat="-27.3732811" lon="152.8845183">
<ele>43.615</ele>
<time>2015-12-17T22:44:52.342Z</time>
</trkpt>
<trkpt lat="-27.3732331" lon="152.8841872">
<ele>44.171</ele>
<time>2015-12-17T22:44:54.323Z</time>
</trkpt>
<trkpt lat="-27.3731792" lon="152.8838589">
<ele>45.008</ele>
<time>2015-12-17T22:44:56.285Z</time>
</trkpt>
<trkpt lat="-27.3731105" lon="152.8833741">
<ele>46.296</ele>
<time>2015-12-17T22:44:59.168Z</time>
</trkpt>
<trkpt lat="-27.3730616" lon="152.8830432">
<ele>47.691</ele>
<time>2015-12-17T22:45:01.122Z</time>
</trkpt>
<trkpt lat="-27.3730002" lon="152.8825375">
<ele>48.772</ele>
<time>2015-12-17T22:45:04.064Z</time>
</trkpt>
<trkpt lat="-27.3729686" lon="152.8821862">
<ele>49.132</ele>
<time>2015-12-17T22:45:06.070Z</time>
</trkpt>
<trkpt lat="-27.3730020" lon="152.8816669">
<ele>48.590</ele>
<time>2015-12-17T22:45:09.005Z</time>
</trkpt>
<trkpt lat="-27.3731400" lon="152.8811609">
<ele>47.410</ele>
<time>2015-12-17T22:45:11.968Z</time>
</trkpt>
<trkpt lat="-27.3732955" lon="152.8808589">
<ele>46.115</ele>
<time>2015-12-17T22:45:13.926Z</time>
</trkpt>
<trkpt lat="-27.3735591" lon="152.8804413">
<ele>45.291</ele>
<time>2015-12-17T22:45:16.823Z</time>
</trkpt>
<trkpt lat="-27.3737453" lon="152.8801672">
<ele>45.436</ele>
<time>2015-12-17T22:45:18.788Z</time>
</trkpt>
<trkpt lat="-27.3739256" lon="152.8798877">
<ele>46.521</ele>
<time>2015-12-17T22:45:20.754Z</time>
</trkpt>
<trkpt lat="-27.3741989" lon="152.8794738">
<ele>48.172</ele>
<time>2015-12-17T22:45:23.682Z</time>
</trkpt>
<trkpt lat="-27.3744006" lon="152.8791928">
<ele>50.004</ele>
<time>2015-12-17T22:45:25.720Z</time>
</trkpt>
<trkpt lat="-27.3745891" lon="152.8789182">
<ele>51.548</ele>
<time>2015-12-17T22:45:27.669Z</time>
</trkpt>
<trkpt lat="-27.3748878" lon="152.8785128">
<ele>52.363</ele>
<time>2015-12-17T22:45:30.655Z</time>
</trkpt>
<trkpt lat="-27.3750669" lon="152.8782334">
<ele>52.599</ele>
<time>2015-12-17T22:45:32.619Z</time>
</trkpt>
<trkpt lat="-27.3753548" lon="152.8778202">
<ele>52.656</ele>
<time>2015-12-17T22:45:35.573Z</time>
</trkpt>
<trkpt lat="-27.3756359" lon="152.8774046">
<ele>52.922</ele>
<time>2015-12-17T22:45:38.509Z</time>
</trkpt>
<trkpt lat="-27.3758348" lon="152.8771116">
<ele>53.736</ele>
<time>2015-12-17T22:45:40.576Z</time>
</trkpt>
<trkpt lat="-27.3760225" lon="152.8768408">
<ele>55.079</ele>
<time>2015-12-17T22:45:42.502Z</time>
</trkpt>
<trkpt lat="-27.3761863" lon="152.8765570">
<ele>56.844</ele>
<time>2015-12-17T22:45:44.436Z</time>
</trkpt>
<trkpt lat="-27.3763220" lon="152.8762505">
<ele>58.957</ele>
<time>2015-12-17T22:45:46.426Z</time>
</trkpt>
<trkpt lat="-27.3764403" lon="152.8757770">
<ele>61.129</ele>
<time>2015-12-17T22:45:49.301Z</time>
</trkpt>
<trkpt lat="-27.3764900" lon="152.8754222">
<ele>63.037</ele>
<time>2015-12-17T22:45:51.367Z</time>
</trkpt>
<trkpt lat="-27.3764921" lon="152.8750764">
<ele>64.381</ele>
<time>2015-12-17T22:45:53.312Z</time>
</trkpt>
<trkpt lat="-27.3764510" lon="152.8745378">
<ele>64.799</ele>
<time>2015-12-17T22:45:56.282Z</time>
</trkpt>
<trkpt lat="-27.3763654" lon="152.8741846">
<ele>64.045</ele>
<time>2015-12-17T22:45:58.244Z</time>
</trkpt>
<trkpt lat="-27.3761663" lon="152.8736619">
<ele>62.183</ele>
<time>2015-12-17T22:46:01.243Z</time>
</trkpt>
<trkpt lat="-27.3759948" lon="152.8733442">
<ele>59.740</ele>
<time>2015-12-17T22:46:03.208Z</time>
</trkpt>
<trkpt lat="-27.3756971" lon="152.8729301">
<ele>57.185</ele>
<time>2015-12-17T22:46:06.086Z</time>
</trkpt>
<trkpt lat="-27.3753197" lon="152.8725532">
<ele>54.506</ele>
<time>2015-12-17T22:46:09.151Z</time>
</trkpt>
<trkpt lat="-27.3750417" lon="152.8723342">
<ele>51.781</ele>
<time>2015-12-17T22:46:11.148Z</time>
</trkpt>
<trkpt lat="-27.3745889" lon="152.8720852">
<ele>49.556</ele>
<time>2015-12-17T22:46:14.067Z</time>
</trkpt>
<trkpt lat="-27.3741473" lon="152.8718395">
<ele>48.107</ele>
<time>2015-12-17T22:46:16.976Z</time>
</trkpt>
<trkpt lat="-27.3738546" lon="152.8716738">
<ele>47.240</ele>
<time>2015-12-17T22:46:18.946Z</time>
</trkpt>
<trkpt lat="-27.3734307" lon="152.8713719">
<ele>46.977</ele>
<time>2015-12-17T22:46:21.990Z</time>
</trkpt>
<trkpt lat="-27.3730640" lon="152.8709028">
<ele>47.595</ele>
<time>2015-12-17T22:46:25.166Z</time>
</trkpt>
<trkpt lat="-27.3728860" lon="152.8705454">
<ele>49.141</ele>
<time>2015-12-17T22:46:27.106Z</time>
</trkpt>
<trkpt lat="-27.3726588" lon="152.8699663">
<ele>51.010</ele>
<time>2015-12-17T22:46:30.131Z</time>
</trkpt>
<trkpt lat="-27.3724964" lon="152.8694234">
<ele>51.838</ele>
<time>2015-12-17T22:46:32.950Z</time>
</trkpt>
<trkpt lat="-27.3723876" lon="152.8688332">
<ele>50.953</ele>
<time>2015-12-17T22:46:35.956Z</time>
</trkpt>
<trkpt lat="-27.3723434" lon="152.8684581">
<ele>49.312</ele>
<time>2015-12-17T22:46:37.876Z</time>
</trkpt>
<trkpt lat="-27.3723012" lon="152.8679457">
<ele>48.121</ele>
<time>2015-12-17T22:46:40.695Z</time>
</trkpt>
<trkpt lat="-27.3722902" lon="152.8675567">
<ele>47.360</ele>
<time>2015-12-17T22:46:43.274Z</time>
</trkpt>
<trkpt lat="-27.3722849" lon="152.8672624">
<ele>46.241</ele>
<time>2015-12-17T22:46:45.706Z</time>
</trkpt>
<trkpt lat="-27.3722698" lon="152.8670974">
<ele>44.462</ele>
<time>2015-12-17T22:46:47.256Z</time>
</trkpt>
<trkpt lat="-27.3722670" lon="152.8669034">
<ele>42.682</ele>
<time>2015-12-17T22:46:49.368Z</time>
</trkpt>
<trkpt lat="-27.3722634" lon="152.8666452">
<ele>41.615</ele>
<time>2015-12-17T22:46:51.852Z</time>
</trkpt>
<trkpt lat="-27.3722458" lon="152.8663535">
<ele>41.570</ele>
<time>2015-12-17T22:46:54.086Z</time>
</trkpt>
<trkpt lat="-27.3722191" lon="152.8658780">
<ele>42.325</ele>
<time>2015-12-17T22:46:57.257Z</time>
</trkpt>
<trkpt lat="-27.3722079" lon="152.8653670">
<ele>43.246</ele>
<time>2015-12-17T22:47:00.420Z</time>
</trkpt>
<trkpt lat="-27.3721893" lon="152.8648425">
<ele>44.140</ele>
<time>2015-12-17T22:47:03.432Z</time>
</trkpt>
<trkpt lat="-27.3721792" lon="152.8644765">
<ele>45.421</ele>
<time>2015-12-17T22:47:05.440Z</time>
</trkpt>
<trkpt lat="-27.3721045" lon="152.8639250">
<ele>47.087</ele>
<time>2015-12-17T22:47:08.415Z</time>
</trkpt>
<trkpt lat="-27.3720181" lon="152.8635456">
<ele>48.771</ele>
<time>2015-12-17T22:47:10.465Z</time>
</trkpt>
<trkpt lat="-27.3718062" lon="152.8630006">
<ele>50.312</ele>
<time>2015-12-17T22:47:13.490Z</time>
</trkpt>
<trkpt lat="-27.3716281" lon="152.8626519">
<ele>51.716</ele>
<time>2015-12-17T22:47:15.500Z</time>
</trkpt>
<trkpt lat="-27.3713013" lon="152.8621924">
<ele>52.922</ele>
<time>2015-12-17T22:47:18.450Z</time>
</trkpt>
<trkpt lat="-27.3710519" lon="152.8619131">
<ele>53.776</ele>
<time>2015-12-17T22:47:20.445Z</time>
</trkpt>
<trkpt lat="-27.3706754" lon="152.8614380">
<ele>54.263</ele>
<time>2015-12-17T22:47:23.573Z</time>
</trkpt>
<trkpt lat="-27.3703270" lon="152.8609241">
<ele>54.682</ele>
<time>2015-12-17T22:47:26.546Z</time>
</trkpt>
<trkpt lat="-27.3700300" lon="152.8603823">
<ele>55.260</ele>
<time>2015-12-17T22:47:29.401Z</time>
</trkpt>
<trkpt lat="-27.3698546" lon="152.8600173">
<ele>55.849</ele>
<time>2015-12-17T22:47:31.267Z</time>
</trkpt>
<trkpt lat="-27.3696643" lon="152.8596203">
<ele>56.077</ele>
<time>2015-12-17T22:47:33.304Z</time>
</trkpt>
<trkpt lat="-27.3694148" lon="152.8590321">
<ele>55.785</ele>
<time>2015-12-17T22:47:36.262Z</time>
</trkpt>
<trkpt lat="-27.3693031" lon="152.8586285">
<ele>55.036</ele>
<time>2015-12-17T22:47:38.194Z</time>
</trkpt>
<trkpt lat="-27.3692659" lon="152.8581976">
<ele>54.065</ele>
<time>2015-12-17T22:47:40.184Z</time>
</trkpt>
<trkpt lat="-27.3692675" lon="152.8577694">
<ele>53.303</ele>
<time>2015-12-17T22:47:42.181Z</time>
</trkpt>
<trkpt lat="-27.3694038" lon="152.8571441">
<ele>53.067</ele>
<time>2015-12-17T22:47:45.226Z</time>
</trkpt>
<trkpt lat="-27.3695255" lon="152.8567361">
<ele>53.249</ele>
<time>2015-12-17T22:47:47.238Z</time>
</trkpt>
<trkpt lat="-27.3696927" lon="152.8561081">
<ele>53.554</ele>
<time>2015-12-17T22:47:50.226Z</time>
</trkpt>
<trkpt lat="-27.3698756" lon="152.8554834">
<ele>53.732</ele>
<time>2015-12-17T22:47:53.179Z</time>
</trkpt>
<trkpt lat="-27.3700548" lon="152.8548374">
<ele>53.750</ele>
<time>2015-12-17T22:47:56.191Z</time>
</trkpt>
<trkpt lat="-27.3702411" lon="152.8541822">
<ele>53.693</ele>
<time>2015-12-17T22:47:59.213Z</time>
</trkpt>
<trkpt lat="-27.3703466" lon="152.8537662">
<ele>53.640</ele>
<time>2015-12-17T22:48:01.104Z</time>
</trkpt>
<trkpt lat="-27.3706188" lon="152.8531596">
<ele>53.649</ele>
<time>2015-12-17T22:48:04.084Z</time>
</trkpt>
<trkpt lat="-27.3708605" lon="152.8527641">
<ele>53.726</ele>
<time>2015-12-17T22:48:06.183Z</time>
</trkpt>
<trkpt lat="-27.3712200" lon="152.8522157">
<ele>53.812</ele>
<time>2015-12-17T22:48:09.130Z</time>
</trkpt>
<trkpt lat="-27.3715687" lon="152.8516765">
<ele>53.890</ele>
<time>2015-12-17T22:48:12.026Z</time>
</trkpt>
<trkpt lat="-27.3717650" lon="152.8510736">
<ele>54.088</ele>
<time>2015-12-17T22:48:14.900Z</time>
</trkpt>
<trkpt lat="-27.3718273" lon="152.8506664">
<ele>54.437</ele>
<time>2015-12-17T22:48:16.803Z</time>
</trkpt>
<trkpt lat="-27.3718639" lon="152.8502466">
<ele>54.871</ele>
<time>2015-12-17T22:48:18.778Z</time>
</trkpt>
<trkpt lat="-27.3719769" lon="152.8496401">
<ele>55.466</ele>
<time>2015-12-17T22:48:21.670Z</time>
</trkpt>
<trkpt lat="-27.3721442" lon="152.8492470">
<ele>56.162</ele>
<time>2015-12-17T22:48:23.697Z</time>
</trkpt>
<trkpt lat="-27.3723619" lon="152.8488886">
<ele>56.652</ele>
<time>2015-12-17T22:48:25.692Z</time>
</trkpt>
<trkpt lat="-27.3726402" lon="152.8485750">
<ele>56.957</ele>
<time>2015-12-17T22:48:27.707Z</time>
</trkpt>
<trkpt lat="-27.3729889" lon="152.8483796">
<ele>57.317</ele>
<time>2015-12-17T22:48:29.696Z</time>
</trkpt>
<trkpt lat="-27.3733241" lon="152.8481768">
<ele>57.746</ele>
<time>2015-12-17T22:48:31.643Z</time>
</trkpt>
<trkpt lat="-27.3737677" lon="152.8478137">
<ele>58.166</ele>
<time>2015-12-17T22:48:34.496Z</time>
</trkpt>
<trkpt lat="-27.3740088" lon="152.8475047">
<ele>58.546</ele>
<time>2015-12-17T22:48:36.427Z</time>
</trkpt>
<trkpt lat="-27.3741776" lon="152.8471271">
<ele>58.787</ele>
<time>2015-12-17T22:48:38.441Z</time>
</trkpt>
<trkpt lat="-27.3742978" lon="152.8464977">
<ele>58.835</ele>
<time>2015-12-17T22:48:41.458Z</time>
</trkpt>
<trkpt lat="-27.3743362" lon="152.8460595">
<ele>58.684</ele>
<time>2015-12-17T22:48:43.483Z</time>
</trkpt>
<trkpt lat="-27.3743978" lon="152.8454150">
<ele>58.290</ele>
<time>2015-12-17T22:48:46.384Z</time>
</trkpt>
<trkpt lat="-27.3744783" lon="152.8447673">
<ele>57.764</ele>
<time>2015-12-17T22:48:49.311Z</time>
</trkpt>
<trkpt lat="-27.3746370" lon="152.8441339">
<ele>57.373</ele>
<time>2015-12-17T22:48:52.268Z</time>
</trkpt>
<trkpt lat="-27.3747601" lon="152.8437254">
<ele>57.326</ele>
<time>2015-12-17T22:48:54.204Z</time>
</trkpt>
<trkpt lat="-27.3749698" lon="152.8430939">
<ele>57.571</ele>
<time>2015-12-17T22:48:57.227Z</time>
</trkpt>
<trkpt lat="-27.3750881" lon="152.8426863">
<ele>57.909</ele>
<time>2015-12-17T22:48:59.152Z</time>
</trkpt>
<trkpt lat="-27.3751772" lon="152.8422867">
<ele>58.341</ele>
<time>2015-12-17T22:49:01.012Z</time>
</trkpt>
<trkpt lat="-27.3752020" lon="152.8417080">
<ele>58.914</ele>
<time>2015-12-17T22:49:03.750Z</time>
</trkpt>
<trkpt lat="-27.3751655" lon="152.8412971">
<ele>59.519</ele>
<time>2015-12-17T22:49:05.772Z</time>
</trkpt>
<trkpt lat="-27.3751055" lon="152.8408765">
<ele>60.434</ele>
<time>2015-12-17T22:49:07.856Z</time>
</trkpt>
<trkpt lat="-27.3750756" lon="152.8404561">
<ele>61.905</ele>
<time>2015-12-17T22:49:09.848Z</time>
</trkpt>
<trkpt lat="-27.3751373" lon="152.8398535">
<ele>63.789</ele>
<time>2015-12-17T22:49:12.694Z</time>
</trkpt>
<trkpt lat="-27.3753239" lon="152.8392893">
<ele>66.085</ele>
<time>2015-12-17T22:49:15.581Z</time>
</trkpt>
<trkpt lat="-27.3755017" lon="152.8389476">
<ele>68.767</ele>
<time>2015-12-17T22:49:17.529Z</time>
</trkpt>
<trkpt lat="-27.3757700" lon="152.8385004">
<ele>71.152</ele>
<time>2015-12-17T22:49:20.242Z</time>
</trkpt>
<trkpt lat="-27.3760195" lon="152.8379987">
<ele>72.836</ele>
<time>2015-12-17T22:49:23.238Z</time>
</trkpt>
<trkpt lat="-27.3762805" lon="152.8374846">
<ele>74.224</ele>
<time>2015-12-17T22:49:26.320Z</time>
</trkpt>
<trkpt lat="-27.3764687" lon="152.8371248">
<ele>75.624</ele>
<time>2015-12-17T22:49:28.422Z</time>
</trkpt>
<trkpt lat="-27.3766521" lon="152.8367627">
<ele>76.743</ele>
<time>2015-12-17T22:49:30.472Z</time>
</trkpt>
<trkpt lat="-27.3767895" lon="152.8363812">
<ele>77.302</ele>
<time>2015-12-17T22:49:32.452Z</time>
</trkpt>
<trkpt lat="-27.3769030" lon="152.8357684">
<ele>77.200</ele>
<time>2015-12-17T22:49:35.436Z</time>
</trkpt>
<trkpt lat="-27.3769161" lon="152.8351089">
<ele>76.543</ele>
<time>2015-12-17T22:49:38.544Z</time>
</trkpt>
<trkpt lat="-27.3769034" lon="152.8346668">
<ele>75.536</ele>
<time>2015-12-17T22:49:40.579Z</time>
</trkpt>
<trkpt lat="-27.3769359" lon="152.8340080">
<ele>74.167</ele>
<time>2015-12-17T22:49:43.507Z</time>
</trkpt>
<trkpt lat="-27.3769543" lon="152.8335568">
<ele>72.487</ele>
<time>2015-12-17T22:49:45.483Z</time>
</trkpt>
<trkpt lat="-27.3771028" lon="152.8329066">
<ele>70.925</ele>
<time>2015-12-17T22:49:48.428Z</time>
</trkpt>
<trkpt lat="-27.3774263" lon="152.8323357">
<ele>69.804</ele>
<time>2015-12-17T22:49:51.413Z</time>
</trkpt>
<trkpt lat="-27.3777194" lon="152.8320143">
<ele>69.222</ele>
<time>2015-12-17T22:49:53.441Z</time>
</trkpt>
<trkpt lat="-27.3780094" lon="152.8316870">
<ele>69.079</ele>
<time>2015-12-17T22:49:55.450Z</time>
</trkpt>
<trkpt lat="-27.3784313" lon="152.8312169">
<ele>69.142</ele>
<time>2015-12-17T22:49:58.316Z</time>
</trkpt>
<trkpt lat="-27.3787002" lon="152.8308831">
<ele>69.311</ele>
<time>2015-12-17T22:50:00.261Z</time>
</trkpt>
<trkpt lat="-27.3790149" lon="152.8303032">
<ele>69.501</ele>
<time>2015-12-17T22:50:03.231Z</time>
</trkpt>
<trkpt lat="-27.3792312" lon="152.8296748">
<ele>69.576</ele>
<time>2015-12-17T22:50:06.202Z</time>
</trkpt>
<trkpt lat="-27.3792987" lon="152.8292446">
<ele>69.542</ele>
<time>2015-12-17T22:50:08.142Z</time>
</trkpt>
<trkpt lat="-27.3792943" lon="152.8285708">
<ele>69.485</ele>
<time>2015-12-17T22:50:11.144Z</time>
</trkpt>
<trkpt lat="-27.3792281" lon="152.8281230">
<ele>69.528</ele>
<time>2015-12-17T22:50:13.149Z</time>
</trkpt>
<trkpt lat="-27.3791388" lon="152.8276833">
<ele>69.832</ele>
<time>2015-12-17T22:50:15.122Z</time>
</trkpt>
<trkpt lat="-27.3790630" lon="152.8272440">
<ele>70.526</ele>
<time>2015-12-17T22:50:17.053Z</time>
</trkpt>
<trkpt lat="-27.3789933" lon="152.8267944">
<ele>71.460</ele>
<time>2015-12-17T22:50:19.012Z</time>
</trkpt>
<trkpt lat="-27.3788724" lon="152.8261391">
<ele>72.413</ele>
<time>2015-12-17T22:50:21.895Z</time>
</trkpt>
<trkpt lat="-27.3787558" lon="152.8257081">
<ele>73.398</ele>
<time>2015-12-17T22:50:23.853Z</time>
</trkpt>
<trkpt lat="-27.3785828" lon="152.8253064">
<ele>74.419</ele>
<time>2015-12-17T22:50:25.795Z</time>
</trkpt>
<trkpt lat="-27.3782479" lon="152.8247245">
<ele>75.306</ele>
<time>2015-12-17T22:50:28.813Z</time>
</trkpt>
<trkpt lat="-27.3780041" lon="152.8243515">
<ele>76.119</ele>
<time>2015-12-17T22:50:30.812Z</time>
</trkpt>
<trkpt lat="-27.3776544" lon="152.8238039">
<ele>76.940</ele>
<time>2015-12-17T22:50:33.698Z</time>
</trkpt>
<trkpt lat="-27.3774153" lon="152.8232007">
<ele>77.255</ele>
<time>2015-12-17T22:50:36.540Z</time>
</trkpt>
<trkpt lat="-27.3773066" lon="152.8227524">
<ele>76.722</ele>
<time>2015-12-17T22:50:38.567Z</time>
</trkpt>
<trkpt lat="-27.3772637" lon="152.8223204">
<ele>75.912</ele>
<time>2015-12-17T22:50:40.468Z</time>
</trkpt>
<trkpt lat="-27.3772868" lon="152.8216694">
<ele>75.421</ele>
<time>2015-12-17T22:50:43.335Z</time>
</trkpt>
<trkpt lat="-27.3774326" lon="152.8210327">
<ele>75.442</ele>
<time>2015-12-17T22:50:46.286Z</time>
</trkpt>
<trkpt lat="-27.3776496" lon="152.8204078">
<ele>76.015</ele>
<time>2015-12-17T22:50:49.294Z</time>
</trkpt>
<trkpt lat="-27.3778313" lon="152.8197685">
<ele>76.854</ele>
<time>2015-12-17T22:50:52.262Z</time>
</trkpt>
<trkpt lat="-27.3779554" lon="152.8191051">
<ele>77.562</ele>
<time>2015-12-17T22:50:55.234Z</time>
</trkpt>
<trkpt lat="-27.3780253" lon="152.8184417">
<ele>77.975</ele>
<time>2015-12-17T22:50:58.174Z</time>
</trkpt>
<trkpt lat="-27.3780968" lon="152.8177996">
<ele>78.215</ele>
<time>2015-12-17T22:51:01.044Z</time>
</trkpt>
<trkpt lat="-27.3781335" lon="152.8173600">
<ele>78.914</ele>
<time>2015-12-17T22:51:03.015Z</time>
</trkpt>
<trkpt lat="-27.3781693" lon="152.8169248">
<ele>80.489</ele>
<time>2015-12-17T22:51:04.974Z</time>
</trkpt>
<trkpt lat="-27.3782157" lon="152.8162828">
<ele>82.255</ele>
<time>2015-12-17T22:51:07.864Z</time>
</trkpt>
<trkpt lat="-27.3782940" lon="152.8156403">
<ele>83.323</ele>
<time>2015-12-17T22:51:10.786Z</time>
</trkpt>
<trkpt lat="-27.3783430" lon="152.8151927">
<ele>83.922</ele>
<time>2015-12-17T22:51:12.823Z</time>
</trkpt>
<trkpt lat="-27.3784134" lon="152.8145378">
<ele>84.715</ele>
<time>2015-12-17T22:51:15.796Z</time>
</trkpt>
<trkpt lat="-27.3784666" lon="152.8140918">
<ele>86.007</ele>
<time>2015-12-17T22:51:17.801Z</time>
</trkpt>
<trkpt lat="-27.3785354" lon="152.8134200">
<ele>87.551</ele>
<time>2015-12-17T22:51:20.793Z</time>
</trkpt>
<trkpt lat="-27.3785776" lon="152.8129863">
<ele>88.724</ele>
<time>2015-12-17T22:51:22.717Z</time>
</trkpt>
<trkpt lat="-27.3786560" lon="152.8123375">
<ele>89.334</ele>
<time>2015-12-17T22:51:25.602Z</time>
</trkpt>
<trkpt lat="-27.3787271" lon="152.8117115">
<ele>89.881</ele>
<time>2015-12-17T22:51:28.398Z</time>
</trkpt>
<trkpt lat="-27.3788257" lon="152.8110866">
<ele>90.869</ele>
<time>2015-12-17T22:51:31.249Z</time>
</trkpt>
<trkpt lat="-27.3789645" lon="152.8104805">
<ele>92.387</ele>
<time>2015-12-17T22:51:34.121Z</time>
</trkpt>
<trkpt lat="-27.3790350" lon="152.8100662">
<ele>94.479</ele>
<time>2015-12-17T22:51:36.084Z</time>
</trkpt>
<trkpt lat="-27.3791119" lon="152.8096401">
<ele>97.159</ele>
<time>2015-12-17T22:51:38.105Z</time>
</trkpt>
<trkpt lat="-27.3791265" lon="152.8089769">
<ele>100.078</ele>
<time>2015-12-17T22:51:41.156Z</time>
</trkpt>
<trkpt lat="-27.3790843" lon="152.8083117">
<ele>102.812</ele>
<time>2015-12-17T22:51:44.182Z</time>
</trkpt>
<trkpt lat="-27.3789716" lon="152.8076469">
<ele>105.239</ele>
<time>2015-12-17T22:51:47.212Z</time>
</trkpt>
<trkpt lat="-27.3788250" lon="152.8069850">
<ele>107.807</ele>
<time>2015-12-17T22:51:50.223Z</time>
</trkpt>
<trkpt lat="-27.3786398" lon="152.8063367">
<ele>111.174</ele>
<time>2015-12-17T22:51:53.200Z</time>
</trkpt>
<trkpt lat="-27.3784579" lon="152.8057016">
<ele>114.734</ele>
<time>2015-12-17T22:51:56.098Z</time>
</trkpt>
<trkpt lat="-27.3782676" lon="152.8050685">
<ele>117.535</ele>
<time>2015-12-17T22:51:58.989Z</time>
</trkpt>
<trkpt lat="-27.3780827" lon="152.8044471">
<ele>119.678</ele>
<time>2015-12-17T22:52:01.831Z</time>
</trkpt>
<trkpt lat="-27.3779648" lon="152.8040372">
<ele>121.532</ele>
<time>2015-12-17T22:52:03.710Z</time>
</trkpt>
<trkpt lat="-27.3778516" lon="152.8036377">
<ele>123.119</ele>
<time>2015-12-17T22:52:05.557Z</time>
</trkpt>
<trkpt lat="-27.3776706" lon="152.8030399">
<ele>124.494</ele>
<time>2015-12-17T22:52:08.367Z</time>
</trkpt>
<trkpt lat="-27.3775063" lon="152.8026570">
<ele>125.862</ele>
<time>2015-12-17T22:52:10.298Z</time>
</trkpt>
<trkpt lat="-27.3771122" lon="152.8021971">
<ele>127.215</ele>
<time>2015-12-17T22:52:13.243Z</time>
</trkpt>
<trkpt lat="-27.3767905" lon="152.8019668">
<ele>128.371</ele>
<time>2015-12-17T22:52:15.233Z</time>
</trkpt>
<trkpt lat="-27.3764245" lon="152.8018120">
<ele>129.522</ele>
<time>2015-12-17T22:52:17.273Z</time>
</trkpt>
<trkpt lat="-27.3758574" lon="152.8017415">
<ele>130.717</ele>
<time>2015-12-17T22:52:20.215Z</time>
</trkpt>
<trkpt lat="-27.3754793" lon="152.8017584">
<ele>131.501</ele>
<time>2015-12-17T22:52:22.131Z</time>
</trkpt>
<trkpt lat="-27.3749130" lon="152.8019776">
<ele>131.630</ele>
<time>2015-12-17T22:52:25.212Z</time>
</trkpt>
<trkpt lat="-27.3743362" lon="152.8020888">
<ele>131.328</ele>
<time>2015-12-17T22:52:28.265Z</time>
</trkpt>
<trkpt lat="-27.3739383" lon="152.8020804">
<ele>130.718</ele>
<time>2015-12-17T22:52:30.312Z</time>
</trkpt>
<trkpt lat="-27.3735371" lon="152.8020495">
<ele>129.821</ele>
<time>2015-12-17T22:52:32.367Z</time>
</trkpt>
<trkpt lat="-27.3729476" lon="152.8020018">
<ele>128.710</ele>
<time>2015-12-17T22:52:35.372Z</time>
</trkpt>
<trkpt lat="-27.3723584" lon="152.8020459">
<ele>127.313</ele>
<time>2015-12-17T22:52:38.330Z</time>
</trkpt>
<trkpt lat="-27.3719698" lon="152.8021721">
<ele>125.480</ele>
<time>2015-12-17T22:52:40.331Z</time>
</trkpt>
<trkpt lat="-27.3715998" lon="152.8022688">
<ele>123.372</ele>
<time>2015-12-17T22:52:42.219Z</time>
</trkpt>
<trkpt lat="-27.3712051" lon="152.8022793">
<ele>121.317</ele>
<time>2015-12-17T22:52:44.185Z</time>
</trkpt>
<trkpt lat="-27.3706125" lon="152.8021381">
<ele>119.373</ele>
<time>2015-12-17T22:52:47.218Z</time>
</trkpt>
<trkpt lat="-27.3700496" lon="152.8018163">
<ele>117.403</ele>
<time>2015-12-17T22:52:50.421Z</time>
</trkpt>
<trkpt lat="-27.3697233" lon="152.8016036">
<ele>115.259</ele>
<time>2015-12-17T22:52:52.306Z</time>
</trkpt>
<trkpt lat="-27.3693467" lon="152.8011762">
<ele>113.168</ele>
<time>2015-12-17T22:52:54.921Z</time>
</trkpt>
<trkpt lat="-27.3691828" lon="152.8007856">
<ele>111.825</ele>
<time>2015-12-17T22:52:56.804Z</time>
</trkpt>
<trkpt lat="-27.3690700" lon="152.8003955">
<ele>112.051</ele>
<time>2015-12-17T22:52:58.656Z</time>
</trkpt>
<trkpt lat="-27.3689948" lon="152.8000338">
<ele>113.785</ele>
<time>2015-12-17T22:53:00.401Z</time>
</trkpt>
<trkpt lat="-27.3688913" lon="152.7995072">
<ele>115.823</ele>
<time>2015-12-17T22:53:02.961Z</time>
</trkpt>
<trkpt lat="-27.3688677" lon="152.7989740">
<ele>117.280</ele>
<time>2015-12-17T22:53:05.559Z</time>
</trkpt>
<trkpt lat="-27.3689574" lon="152.7985118">
<ele>118.311</ele>
<time>2015-12-17T22:53:08.000Z</time>
</trkpt>
<trkpt lat="-27.3690307" lon="152.7980693">
<ele>118.976</ele>
<time>2015-12-17T22:53:10.430Z</time>
</trkpt>
<trkpt lat="-27.3689479" lon="152.7977318">
<ele>119.207</ele>
<time>2015-12-17T22:53:12.398Z</time>
</trkpt>
<trkpt lat="-27.3687554" lon="152.7974865">
<ele>119.628</ele>
<time>2015-12-17T22:53:14.301Z</time>
</trkpt>
<trkpt lat="-27.3684055" lon="152.7971689">
<ele>120.689</ele>
<time>2015-12-17T22:53:17.360Z</time>
</trkpt>
<trkpt lat="-27.3681291" lon="152.7970108">
<ele>121.839</ele>
<time>2015-12-17T22:53:19.524Z</time>
</trkpt>
<trkpt lat="-27.3677841" lon="152.7968524">
<ele>122.582</ele>
<time>2015-12-17T22:53:22.069Z</time>
</trkpt>
<trkpt lat="-27.3673412" lon="152.7968161">
<ele>123.063</ele>
<time>2015-12-17T22:53:25.066Z</time>
</trkpt>
<trkpt lat="-27.3669178" lon="152.7968890">
<ele>123.274</ele>
<time>2015-12-17T22:53:27.864Z</time>
</trkpt>
<trkpt lat="-27.3666520" lon="152.7970008">
<ele>123.058</ele>
<time>2015-12-17T22:53:29.571Z</time>
</trkpt>
<trkpt lat="-27.3662168" lon="152.7970176">
<ele>122.533</ele>
<time>2015-12-17T22:53:32.182Z</time>
</trkpt>
<trkpt lat="-27.3659517" lon="152.7967768">
<ele>122.067</ele>
<time>2015-12-17T22:53:34.343Z</time>
</trkpt>
<trkpt lat="-27.3656176" lon="152.7962980">
<ele>122.078</ele>
<time>2015-12-17T22:53:37.978Z</time>
</trkpt>
<trkpt lat="-27.3652589" lon="152.7959075">
<ele>122.836</ele>
<time>2015-12-17T22:53:41.394Z</time>
</trkpt>
<trkpt lat="-27.3649938" lon="152.7956692">
<ele>124.159</ele>
<time>2015-12-17T22:53:43.614Z</time>
</trkpt>
<trkpt lat="-27.3647213" lon="152.7952948">
<ele>125.790</ele>
<time>2015-12-17T22:53:46.203Z</time>
</trkpt>
<trkpt lat="-27.3646405" lon="152.7950083">
<ele>127.630</ele>
<time>2015-12-17T22:53:47.749Z</time>
</trkpt>
<trkpt lat="-27.3646314" lon="152.7945546">
<ele>129.737</ele>
<time>2015-12-17T22:53:50.076Z</time>
</trkpt>
<trkpt lat="-27.3647473" lon="152.7943084">
<ele>132.213</ele>
<time>2015-12-17T22:53:51.543Z</time>
</trkpt>
<trkpt lat="-27.3648454" lon="152.7941038">
<ele>134.565</ele>
<time>2015-12-17T22:53:52.833Z</time>
</trkpt>
<trkpt lat="-27.3647436" lon="152.7936831">
<ele>136.111</ele>
<time>2015-12-17T22:53:55.399Z</time>
</trkpt>
<trkpt lat="-27.3646406" lon="152.7933419">
<ele>137.608</ele>
<time>2015-12-17T22:53:57.681Z</time>
</trkpt>
<trkpt lat="-27.3645461" lon="152.7930215">
<ele>140.548</ele>
<time>2015-12-17T22:53:59.893Z</time>
</trkpt>
<trkpt lat="-27.3644505" lon="152.7927407">
<ele>144.773</ele>
<time>2015-12-17T22:54:02.045Z</time>
</trkpt>
<trkpt lat="-27.3644807" lon="152.7922442">
<ele>148.454</ele>
<time>2015-12-17T22:54:05.752Z</time>
</trkpt>
<trkpt lat="-27.3644819" lon="152.7918660">
<ele>151.042</ele>
<time>2015-12-17T22:54:08.154Z</time>
</trkpt>
<trkpt lat="-27.3644432" lon="152.7912578">
<ele>153.530</ele>
<time>2015-12-17T22:54:11.730Z</time>
</trkpt>
<trkpt lat="-27.3643995" lon="152.7908707">
<ele>157.041</ele>
<time>2015-12-17T22:54:14.133Z</time>
</trkpt>
<trkpt lat="-27.3642969" lon="152.7903132">
<ele>161.657</ele>
<time>2015-12-17T22:54:17.409Z</time>
</trkpt>
<trkpt lat="-27.3642454" lon="152.7899468">
<ele>165.780</ele>
<time>2015-12-17T22:54:19.316Z</time>
</trkpt>
<trkpt lat="-27.3641376" lon="152.7894121">
<ele>167.417</ele>
<time>2015-12-17T22:54:22.050Z</time>
</trkpt>
<trkpt lat="-27.3638890" lon="152.7889509">
<ele>166.642</ele>
<time>2015-12-17T22:54:24.751Z</time>
</trkpt>
<trkpt lat="-27.3636565" lon="152.7884985">
<ele>165.350</ele>
<time>2015-12-17T22:54:27.436Z</time>
</trkpt>
<trkpt lat="-27.3635067" lon="152.7883394">
<ele>164.977</ele>
<time>2015-12-17T22:54:28.668Z</time>
</trkpt>
<trkpt lat="-27.3632032" lon="152.7882125">
<ele>165.242</ele>
<time>2015-12-17T22:54:30.621Z</time>
</trkpt>
<trkpt lat="-27.3629599" lon="152.7883544">
<ele>165.495</ele>
<time>2015-12-17T22:54:32.310Z</time>
</trkpt>
<trkpt lat="-27.3627139" lon="152.7884845">
<ele>166.041</ele>
<time>2015-12-17T22:54:34.031Z</time>
</trkpt>
<trkpt lat="-27.3623066" lon="152.7885584">
<ele>168.004</ele>
<time>2015-12-17T22:54:36.784Z</time>
</trkpt>
<trkpt lat="-27.3618482" lon="152.7884482">
<ele>172.075</ele>
<time>2015-12-17T22:54:40.575Z</time>
</trkpt>
<trkpt lat="-27.3615858" lon="152.7885153">
<ele>177.149</ele>
<time>2015-12-17T22:54:42.931Z</time>
</trkpt>
<trkpt lat="-27.3612194" lon="152.7886611">
<ele>181.134</ele>
<time>2015-12-17T22:54:45.906Z</time>
</trkpt>
<trkpt lat="-27.3609735" lon="152.7885652">
<ele>183.269</ele>
<time>2015-12-17T22:54:47.786Z</time>
</trkpt>
<trkpt lat="-27.3607691" lon="152.7882825">
<ele>184.672</ele>
<time>2015-12-17T22:54:50.010Z</time>
</trkpt>
<trkpt lat="-27.3607135" lon="152.7879573">
<ele>186.281</ele>
<time>2015-12-17T22:54:52.014Z</time>
</trkpt>
<trkpt lat="-27.3606305" lon="152.7877090">
<ele>188.081</ele>
<time>2015-12-17T22:54:53.673Z</time>
</trkpt>
<trkpt lat="-27.3604685" lon="152.7874843">
<ele>190.110</ele>
<time>2015-12-17T22:54:55.586Z</time>
</trkpt>
<trkpt lat="-27.3602743" lon="152.7871431">
<ele>192.680</ele>
<time>2015-12-17T22:54:58.416Z</time>
</trkpt>
<trkpt lat="-27.3601673" lon="152.7869185">
<ele>195.580</ele>
<time>2015-12-17T22:55:00.374Z</time>
</trkpt>
<trkpt lat="-27.3602858" lon="152.7867258">
<ele>198.015</ele>
<time>2015-12-17T22:55:02.304Z</time>
</trkpt>
<trkpt lat="-27.3605416" lon="152.7865811">
<ele>199.683</ele>
<time>2015-12-17T22:55:04.982Z</time>
</trkpt>
<trkpt lat="-27.3608622" lon="152.7865871">
<ele>201.502</ele>
<time>2015-12-17T22:55:07.655Z</time>
</trkpt>
<trkpt lat="-27.3611112" lon="152.7865165">
<ele>204.309</ele>
<time>2015-12-17T22:55:09.683Z</time>
</trkpt>
<trkpt lat="-27.3613215" lon="152.7863528">
<ele>207.586</ele>
<time>2015-12-17T22:55:11.742Z</time>
</trkpt>
<trkpt lat="-27.3614709" lon="152.7860320">
<ele>210.435</ele>
<time>2015-12-17T22:55:14.769Z</time>
</trkpt>
<trkpt lat="-27.3614611" lon="152.7856516">
<ele>212.826</ele>
<time>2015-12-17T22:55:18.530Z</time>
</trkpt>
<trkpt lat="-27.3615613" lon="152.7854747">
<ele>215.158</ele>
<time>2015-12-17T22:55:20.340Z</time>
</trkpt>
<trkpt lat="-27.3617139" lon="152.7852832">
<ele>217.257</ele>
<time>2015-12-17T22:55:22.200Z</time>
</trkpt>
<trkpt lat="-27.3618419" lon="152.7849133">
<ele>218.801</ele>
<time>2015-12-17T22:55:24.887Z</time>
</trkpt>
<trkpt lat="-27.3618682" lon="152.7846320">
<ele>219.832</ele>
<time>2015-12-17T22:55:26.995Z</time>
</trkpt>
<trkpt lat="-27.3616369" lon="152.7842375">
<ele>220.416</ele>
<time>2015-12-17T22:55:30.838Z</time>
</trkpt>
<trkpt lat="-27.3611487" lon="152.7839256">
<ele>220.503</ele>
<time>2015-12-17T22:55:36.324Z</time>
</trkpt>
<trkpt lat="-27.3609048" lon="152.7837239">
<ele>220.036</ele>
<time>2015-12-17T22:55:39.035Z</time>
</trkpt>
<trkpt lat="-27.3605947" lon="152.7833963">
<ele>219.123</ele>
<time>2015-12-17T22:55:42.482Z</time>
</trkpt>
<trkpt lat="-27.3604890" lon="152.7827739">
<ele>217.889</ele>
<time>2015-12-17T22:55:46.418Z</time>
</trkpt>
<trkpt lat="-27.3604334" lon="152.7824170">
<ele>216.498</ele>
<time>2015-12-17T22:55:48.481Z</time>
</trkpt>
<trkpt lat="-27.3603323" lon="152.7820997">
<ele>215.676</ele>
<time>2015-12-17T22:55:50.425Z</time>
</trkpt>
<trkpt lat="-27.3600989" lon="152.7816378">
<ele>215.949</ele>
<time>2015-12-17T22:55:53.415Z</time>
</trkpt>
<trkpt lat="-27.3600103" lon="152.7813105">
<ele>217.249</ele>
<time>2015-12-17T22:55:55.264Z</time>
</trkpt>
<trkpt lat="-27.3600235" lon="152.7810104">
<ele>219.155</ele>
<time>2015-12-17T22:55:56.889Z</time>
</trkpt>
<trkpt lat="-27.3601528" lon="152.7806262">
<ele>220.750</ele>
<time>2015-12-17T22:55:59.173Z</time>
</trkpt>
<trkpt lat="-27.3602497" lon="152.7804177">
<ele>221.497</ele>
<time>2015-12-17T22:56:00.498Z</time>
</trkpt>
<trkpt lat="-27.3602887" lon="152.7801646">
<ele>221.725</ele>
<time>2015-12-17T22:56:01.962Z</time>
</trkpt>
<trkpt lat="-27.3600015" lon="152.7798336">
<ele>221.740</ele>
<time>2015-12-17T22:56:04.743Z</time>
</trkpt>
<trkpt lat="-27.3598706" lon="152.7796416">
<ele>222.284</ele>
<time>2015-12-17T22:56:06.368Z</time>
</trkpt>
<trkpt lat="-27.3598915" lon="152.7794140">
<ele>224.006</ele>
<time>2015-12-17T22:56:07.930Z</time>
</trkpt>
<trkpt lat="-27.3599843" lon="152.7790634">
<ele>226.652</ele>
<time>2015-12-17T22:56:10.708Z</time>
</trkpt>
<trkpt lat="-27.3599281" lon="152.7786345">
<ele>230.042</ele>
<time>2015-12-17T22:56:14.037Z</time>
</trkpt>
<trkpt lat="-27.3597674" lon="152.7782443">
<ele>234.413</ele>
<time>2015-12-17T22:56:17.240Z</time>
</trkpt>
<trkpt lat="-27.3594680" lon="152.7779683">
<ele>239.236</ele>
<time>2015-12-17T22:56:20.895Z</time>
</trkpt>
<trkpt lat="-27.3592570" lon="152.7780054">
<ele>243.532</ele>
<time>2015-12-17T22:56:22.895Z</time>
</trkpt>
<trkpt lat="-27.3591234" lon="152.7776380">
<ele>246.746</ele>
<time>2015-12-17T22:56:25.916Z</time>
</trkpt>
<trkpt lat="-27.3590802" lon="152.7773345">
<ele>249.540</ele>
<time>2015-12-17T22:56:28.091Z</time>
</trkpt>
<trkpt lat="-27.3591898" lon="152.7771823">
<ele>252.511</ele>
<time>2015-12-17T22:56:29.424Z</time>
</trkpt>
<trkpt lat="-27.3595204" lon="152.7770196">
<ele>255.023</ele>
<time>2015-12-17T22:56:32.243Z</time>
</trkpt>
<trkpt lat="-27.3597624" lon="152.7769322">
<ele>256.752</ele>
<time>2015-12-17T22:56:34.414Z</time>
</trkpt>
<trkpt lat="-27.3599258" lon="152.7765526">
<ele>258.418</ele>
<time>2015-12-17T22:56:37.920Z</time>
</trkpt>
<trkpt lat="-27.3599344" lon="152.7761189">
<ele>260.100</ele>
<time>2015-12-17T22:56:42.056Z</time>
</trkpt>
<trkpt lat="-27.3598907" lon="152.7758269">
<ele>261.348</ele>
<time>2015-12-17T22:56:44.675Z</time>
</trkpt>
<trkpt lat="-27.3598757" lon="152.7755368">
<ele>262.027</ele>
<time>2015-12-17T22:56:46.849Z</time>
</trkpt>
<trkpt lat="-27.3597836" lon="152.7752742">
<ele>261.652</ele>
<time>2015-12-17T22:56:48.902Z</time>
</trkpt>
<trkpt lat="-27.3596248" lon="152.7750929">
<ele>259.605</ele>
<time>2015-12-17T22:56:50.678Z</time>
</trkpt>
<trkpt lat="-27.3594348" lon="152.7749349">
<ele>256.213</ele>
<time>2015-12-17T22:56:52.503Z</time>
</trkpt>
<trkpt lat="-27.3593279" lon="152.7749711">
<ele>252.097</ele>
<time>2015-12-17T22:56:53.333Z</time>
</trkpt>
<trkpt lat="-27.3593008" lon="152.7752019">
<ele>248.164</ele>
<time>2015-12-17T22:56:54.907Z</time>
</trkpt>
<trkpt lat="-27.3593644" lon="152.7754140">
<ele>245.989</ele>
<time>2015-12-17T22:56:56.474Z</time>
</trkpt>
<trkpt lat="-27.3592605" lon="152.7757069">
<ele>246.411</ele>
<time>2015-12-17T22:56:58.824Z</time>
</trkpt>
<trkpt lat="-27.3591453" lon="152.7760141">
<ele>248.953</ele>
<time>2015-12-17T22:57:01.616Z</time>
</trkpt>
<trkpt lat="-27.3590470" lon="152.7761505">
<ele>252.424</ele>
<time>2015-12-17T22:57:03.420Z</time>
</trkpt>
<trkpt lat="-27.3588112" lon="152.7761423">
<ele>255.638</ele>
<time>2015-12-17T22:57:07.109Z</time>
</trkpt>
<trkpt lat="-27.3585715" lon="152.7761076">
<ele>258.404</ele>
<time>2015-12-17T22:57:10.394Z</time>
</trkpt>
<trkpt lat="-27.3583341" lon="152.7761051">
<ele>261.104</ele>
<time>2015-12-17T22:57:12.891Z</time>
</trkpt>
<trkpt lat="-27.3579011" lon="152.7762090">
<ele>263.746</ele>
<time>2015-12-17T22:57:17.469Z</time>
</trkpt>
<trkpt lat="-27.3576002" lon="152.7763040">
<ele>266.784</ele>
<time>2015-12-17T22:57:20.938Z</time>
</trkpt>
<trkpt lat="-27.3572292" lon="152.7763574">
<ele>271.049</ele>
<time>2015-12-17T22:57:24.273Z</time>
</trkpt>
<trkpt lat="-27.3570634" lon="152.7763684">
<ele>276.115</ele>
<time>2015-12-17T22:57:25.508Z</time>
</trkpt>
<trkpt lat="-27.3569477" lon="152.7764352">
<ele>280.609</ele>
<time>2015-12-17T22:57:26.475Z</time>
</trkpt>
<trkpt lat="-27.3567929" lon="152.7767141">
<ele>283.818</ele>
<time>2015-12-17T22:57:28.458Z</time>
</trkpt>
<trkpt lat="-27.3568954" lon="152.7771053">
<ele>286.483</ele>
<time>2015-12-17T22:57:30.923Z</time>
</trkpt>
<trkpt lat="-27.3570269" lon="152.7774819">
<ele>289.643</ele>
<time>2015-12-17T22:57:33.801Z</time>
</trkpt>
<trkpt lat="-27.3572119" lon="152.7776696">
<ele>293.026</ele>
<time>2015-12-17T22:57:36.799Z</time>
</trkpt>
<trkpt lat="-27.3571126" lon="152.7778019">
<ele>295.713</ele>
<time>2015-12-17T22:57:38.808Z</time>
</trkpt>
<trkpt lat="-27.3569155" lon="152.7777254">
<ele>297.554</ele>
<time>2015-12-17T22:57:41.015Z</time>
</trkpt>
<trkpt lat="-27.3567342" lon="152.7774064">
<ele>299.275</ele>
<time>2015-12-17T22:57:43.989Z</time>
</trkpt>
<trkpt lat="-27.3565178" lon="152.7769517">
<ele>302.488</ele>
<time>2015-12-17T22:57:48.909Z</time>
</trkpt>
<trkpt lat="-27.3563641" lon="152.7766407">
<ele>308.582</ele>
<time>2015-12-17T22:57:53.366Z</time>
</trkpt>
<trkpt lat="-27.3563086" lon="152.7761636">
<ele>316.469</ele>
<time>2015-12-17T22:57:57.040Z</time>
</trkpt>
<trkpt lat="-27.3564005" lon="152.7758181">
<ele>323.699</ele>
<time>2015-12-17T22:57:59.247Z</time>
</trkpt>
<trkpt lat="-27.3565546" lon="152.7754880">
<ele>329.593</ele>
<time>2015-12-17T22:58:01.496Z</time>
</trkpt>
<trkpt lat="-27.3567050" lon="152.7750348">
<ele>335.039</ele>
<time>2015-12-17T22:58:04.494Z</time>
</trkpt>
<trkpt lat="-27.3566459" lon="152.7746480">
<ele>340.256</ele>
<time>2015-12-17T22:58:06.795Z</time>
</trkpt>
<trkpt lat="-27.3564327" lon="152.7741720">
<ele>344.904</ele>
<time>2015-12-17T22:58:09.911Z</time>
</trkpt>
<trkpt lat="-27.3562143" lon="152.7736592">
<ele>349.720</ele>
<time>2015-12-17T22:58:13.648Z</time>
</trkpt>
<trkpt lat="-27.3560613" lon="152.7731743">
<ele>355.965</ele>
<time>2015-12-17T22:58:16.754Z</time>
</trkpt>
<trkpt lat="-27.3560882" lon="152.7728948">
<ele>362.995</ele>
<time>2015-12-17T22:58:18.275Z</time>
</trkpt>
<trkpt lat="-27.3561963" lon="152.7725839">
<ele>369.173</ele>
<time>2015-12-17T22:58:20.089Z</time>
</trkpt>
<trkpt lat="-27.3561866" lon="152.7722592">
<ele>373.821</ele>
<time>2015-12-17T22:58:21.860Z</time>
</trkpt>
<trkpt lat="-27.3560186" lon="152.7720927">
<ele>377.475</ele>
<time>2015-12-17T22:58:23.551Z</time>
</trkpt>
<trkpt lat="-27.3558779" lon="152.7719190">
<ele>381.062</ele>
<time>2015-12-17T22:58:25.217Z</time>
</trkpt>
<trkpt lat="-27.3557748" lon="152.7717313">
<ele>384.936</ele>
<time>2015-12-17T22:58:27.245Z</time>
</trkpt>
<trkpt lat="-27.3555938" lon="152.7716814">
<ele>388.704</ele>
<time>2015-12-17T22:58:29.228Z</time>
</trkpt>
<trkpt lat="-27.3552520" lon="152.7715214">
<ele>392.395</ele>
<time>2015-12-17T22:58:33.161Z</time>
</trkpt>
<trkpt lat="-27.3549035" lon="152.7712420">
<ele>397.131</ele>
<time>2015-12-17T22:58:37.325Z</time>
</trkpt>
<trkpt lat="-27.3547593" lon="152.7709484">
<ele>404.116</ele>
<time>2015-12-17T22:58:40.194Z</time>
</trkpt>
<trkpt lat="-27.3545468" lon="152.7704568">
<ele>412.481</ele>
<time>2015-12-17T22:58:44.116Z</time>
</trkpt>
<trkpt lat="-27.3543241" lon="152.7701623">
<ele>420.576</ele>
<time>2015-12-17T22:58:46.566Z</time>
</trkpt>
<trkpt lat="-27.3540838" lon="152.7698822">
<ele>427.997</ele>
<time>2015-12-17T22:58:48.862Z</time>
</trkpt>
<trkpt lat="-27.3538518" lon="152.7696938">
<ele>434.727</ele>
<time>2015-12-17T22:58:50.686Z</time>
</trkpt>
<trkpt lat="-27.3534167" lon="152.7695149">
<ele>440.077</ele>
<time>2015-12-17T22:58:53.455Z</time>
</trkpt>
<trkpt lat="-27.3531219" lon="152.7694550">
<ele>444.150</ele>
<time>2015-12-17T22:58:55.226Z</time>
</trkpt>
<trkpt lat="-27.3527894" lon="152.7695165">
<ele>447.725</ele>
<time>2015-12-17T22:58:57.296Z</time>
</trkpt>
<trkpt lat="-27.3524589" lon="152.7695915">
<ele>451.101</ele>
<time>2015-12-17T22:58:59.431Z</time>
</trkpt>
<trkpt lat="-27.3519695" lon="152.7696315">
<ele>454.722</ele>
<time>2015-12-17T22:59:02.654Z</time>
</trkpt>
<trkpt lat="-27.3516811" lon="152.7696268">
<ele>459.275</ele>
<time>2015-12-17T22:59:04.476Z</time>
</trkpt>
<trkpt lat="-27.3513246" lon="152.7695445">
<ele>464.178</ele>
<time>2015-12-17T22:59:06.714Z</time>
</trkpt>
<trkpt lat="-27.3511725" lon="152.7694992">
<ele>468.642</ele>
<time>2015-12-17T22:59:07.675Z</time>
</trkpt>
<trkpt lat="-27.3510690" lon="152.7695401">
<ele>472.307</ele>
<time>2015-12-17T22:59:08.364Z</time>
</trkpt>
<trkpt lat="-27.3509649" lon="152.7696355">
<ele>474.877</ele>
<time>2015-12-17T22:59:09.229Z</time>
</trkpt>
<trkpt lat="-27.3507469" lon="152.7700076">
<ele>476.760</ele>
<time>2015-12-17T22:59:11.927Z</time>
</trkpt>
<trkpt lat="-27.3505848" lon="152.7703289">
<ele>479.417</ele>
<time>2015-12-17T22:59:14.614Z</time>
</trkpt>
<trkpt lat="-27.3503954" lon="152.7707841">
<ele>483.749</ele>
<time>2015-12-17T22:59:21.822Z</time>
</trkpt>
<trkpt lat="-27.3502724" lon="152.7713049">
<ele>489.223</ele>
<time>2015-12-17T22:59:27.803Z</time>
</trkpt>
<trkpt lat="-27.3501661" lon="152.7716371">
<ele>494.707</ele>
<time>2015-12-17T22:59:30.058Z</time>
</trkpt>
<trkpt lat="-27.3500462" lon="152.7719133">
<ele>499.032</ele>
<time>2015-12-17T22:59:31.889Z</time>
</trkpt>
<trkpt lat="-27.3497952" lon="152.7723497">
<ele>501.576</ele>
<time>2015-12-17T22:59:34.804Z</time>
</trkpt>
<trkpt lat="-27.3495305" lon="152.7724344">
<ele>503.645</ele>
<time>2015-12-17T22:59:36.539Z</time>
</trkpt>
<trkpt lat="-27.3489859" lon="152.7720754">
<ele>506.809</ele>
<time>2015-12-17T22:59:40.741Z</time>
</trkpt>
<trkpt lat="-27.3487493" lon="152.7717625">
<ele>511.218</ele>
<time>2015-12-17T22:59:43.261Z</time>
</trkpt>
<trkpt lat="-27.3483409" lon="152.7712785">
<ele>516.348</ele>
<time>2015-12-17T22:59:47.578Z</time>
</trkpt>
<trkpt lat="-27.3478964" lon="152.7710493">
<ele>521.522</ele>
<time>2015-12-17T22:59:50.636Z</time>
</trkpt>
<trkpt lat="-27.3475678" lon="152.7709952">
<ele>526.106</ele>
<time>2015-12-17T22:59:52.564Z</time>
</trkpt>
<trkpt lat="-27.3472044" lon="152.7710284">
<ele>529.803</ele>
<time>2015-12-17T22:59:54.683Z</time>
</trkpt>
<trkpt lat="-27.3468574" lon="152.7711695">
<ele>532.805</ele>
<time>2015-12-17T22:59:56.881Z</time>
</trkpt>
<trkpt lat="-27.3464179" lon="152.7714532">
<ele>535.970</ele>
<time>2015-12-17T22:59:59.787Z</time>
</trkpt>
<trkpt lat="-27.3460989" lon="152.7718209">
<ele>540.148</ele>
<time>2015-12-17T23:00:02.332Z</time>
</trkpt>
<trkpt lat="-27.3458006" lon="152.7719206">
<ele>544.904</ele>
<time>2015-12-17T23:00:04.139Z</time>
</trkpt>
<trkpt lat="-27.3452834" lon="152.7720017">
<ele>548.927</ele>
<time>2015-12-17T23:00:07.330Z</time>
</trkpt>
<trkpt lat="-27.3448953" lon="152.7720142">
<ele>551.846</ele>
<time>2015-12-17T23:00:09.696Z</time>
</trkpt>
<trkpt lat="-27.3443498" lon="152.7720463">
<ele>554.000</ele>
<time>2015-12-17T23:00:12.796Z</time>
</trkpt>
<trkpt lat="-27.3438088" lon="152.7720231">
<ele>554.573</ele>
<time>2015-12-17T23:00:15.676Z</time>
</trkpt>
<trkpt lat="-27.3434595" lon="152.7719358">
<ele>552.539</ele>
<time>2015-12-17T23:00:17.609Z</time>
</trkpt>
<trkpt lat="-27.3429546" lon="152.7716593">
<ele>548.525</ele>
<time>2015-12-17T23:00:20.673Z</time>
</trkpt>
<trkpt lat="-27.3426345" lon="152.7714737">
<ele>544.167</ele>
<time>2015-12-17T23:00:22.641Z</time>
</trkpt>
<trkpt lat="-27.3423426" lon="152.7713271">
<ele>540.758</ele>
<time>2015-12-17T23:00:24.383Z</time>
</trkpt>
<trkpt lat="-27.3419668" lon="152.7709804">
<ele>538.723</ele>
<time>2015-12-17T23:00:27.088Z</time>
</trkpt>
<trkpt lat="-27.3417736" lon="152.7707213">
<ele>537.609</ele>
<time>2015-12-17T23:00:28.859Z</time>
</trkpt>
<trkpt lat="-27.3414257" lon="152.7702878">
<ele>536.840</ele>
<time>2015-12-17T23:00:32.055Z</time>
</trkpt>
<trkpt lat="-27.3411114" lon="152.7700633">
<ele>535.871</ele>
<time>2015-12-17T23:00:34.342Z</time>
</trkpt>
<trkpt lat="-27.3406340" lon="152.7698308">
<ele>534.433</ele>
<time>2015-12-17T23:00:37.436Z</time>
</trkpt>
<trkpt lat="-27.3403142" lon="152.7696780">
<ele>533.870</ele>
<time>2015-12-17T23:00:39.446Z</time>
</trkpt>
<trkpt lat="-27.3399474" lon="152.7695747">
<ele>535.491</ele>
<time>2015-12-17T23:00:41.617Z</time>
</trkpt>
<trkpt lat="-27.3395819" lon="152.7695180">
<ele>538.486</ele>
<time>2015-12-17T23:00:43.700Z</time>
</trkpt>
<trkpt lat="-27.3392667" lon="152.7694393">
<ele>541.743</ele>
<time>2015-12-17T23:00:45.489Z</time>
</trkpt>
<trkpt lat="-27.3389744" lon="152.7693064">
<ele>545.105</ele>
<time>2015-12-17T23:00:47.208Z</time>
</trkpt>
<trkpt lat="-27.3386629" lon="152.7691247">
<ele>548.282</ele>
<time>2015-12-17T23:00:49.138Z</time>
</trkpt>
<trkpt lat="-27.3382613" lon="152.7688211">
<ele>550.618</ele>
<time>2015-12-17T23:00:51.923Z</time>
</trkpt>
<trkpt lat="-27.3379957" lon="152.7686235">
<ele>551.233</ele>
<time>2015-12-17T23:00:53.796Z</time>
</trkpt>
<trkpt lat="-27.3376691" lon="152.7686268">
<ele>550.012</ele>
<time>2015-12-17T23:00:55.746Z</time>
</trkpt>
<trkpt lat="-27.3374440" lon="152.7686896">
<ele>548.292</ele>
<time>2015-12-17T23:00:57.177Z</time>
</trkpt>
<trkpt lat="-27.3371060" lon="152.7688606">
<ele>547.747</ele>
<time>2015-12-17T23:00:59.747Z</time>
</trkpt>
<trkpt lat="-27.3368702" lon="152.7689379">
<ele>549.349</ele>
<time>2015-12-17T23:01:01.634Z</time>
</trkpt>
<trkpt lat="-27.3366265" lon="152.7690213">
<ele>552.921</ele>
<time>2015-12-17T23:01:03.777Z</time>
</trkpt>
<trkpt lat="-27.3362498" lon="152.7691176">
<ele>557.262</ele>
<time>2015-12-17T23:01:06.951Z</time>
</trkpt>
<trkpt lat="-27.3358687" lon="152.7691995">
<ele>561.733</ele>
<time>2015-12-17T23:01:10.044Z</time>
</trkpt>
<trkpt lat="-27.3354939" lon="152.7692927">
<ele>566.722</ele>
<time>2015-12-17T23:01:13.012Z</time>
</trkpt>
<trkpt lat="-27.3351129" lon="152.7693658">
<ele>572.371</ele>
<time>2015-12-17T23:01:15.972Z</time>
</trkpt>
<trkpt lat="-27.3348653" lon="152.7694368">
<ele>577.798</ele>
<time>2015-12-17T23:01:17.905Z</time>
</trkpt>
<trkpt lat="-27.3346383" lon="152.7695633">
<ele>582.033</ele>
<time>2015-12-17T23:01:19.821Z</time>
</trkpt>
<trkpt lat="-27.3344627" lon="152.7697813">
<ele>584.820</ele>
<time>2015-12-17T23:01:21.798Z</time>
</trkpt>
<trkpt lat="-27.3342676" lon="152.7702097">
<ele>586.510</ele>
<time>2015-12-17T23:01:25.082Z</time>
</trkpt>
<trkpt lat="-27.3341072" lon="152.7704386">
<ele>587.901</ele>
<time>2015-12-17T23:01:27.077Z</time>
</trkpt>
<trkpt lat="-27.3339237" lon="152.7706951">
<ele>589.470</ele>
<time>2015-12-17T23:01:29.289Z</time>
</trkpt>
<trkpt lat="-27.3336662" lon="152.7708649">
<ele>590.936</ele>
<time>2015-12-17T23:01:31.510Z</time>
</trkpt>
<trkpt lat="-27.3334776" lon="152.7707416">
<ele>592.405</ele>
<time>2015-12-17T23:01:33.139Z</time>
</trkpt>
<trkpt lat="-27.3333373" lon="152.7704655">
<ele>594.175</ele>
<time>2015-12-17T23:01:35.526Z</time>
</trkpt>
<trkpt lat="-27.3333917" lon="152.7702313">
<ele>595.968</ele>
<time>2015-12-17T23:01:37.566Z</time>
</trkpt>
<trkpt lat="-27.3335967" lon="152.7697942">
<ele>597.626</ele>
<time>2015-12-17T23:01:42.120Z</time>
</trkpt>
<trkpt lat="-27.3337188" lon="152.7694870">
<ele>599.286</ele>
<time>2015-12-17T23:01:45.177Z</time>
</trkpt>
<trkpt lat="-27.3339014" lon="152.7690710">
<ele>600.892</ele>
<time>2015-12-17T23:01:48.752Z</time>
</trkpt>
<trkpt lat="-27.3340767" lon="152.7687401">
<ele>602.424</ele>
<time>2015-12-17T23:01:51.256Z</time>
</trkpt>
<trkpt lat="-27.3341973" lon="152.7685162">
<ele>603.951</ele>
<time>2015-12-17T23:01:52.902Z</time>
</trkpt>
<trkpt lat="-27.3344054" lon="152.7681503">
<ele>605.511</ele>
<time>2015-12-17T23:01:55.779Z</time>
</trkpt>
<trkpt lat="-27.3346334" lon="152.7678397">
<ele>607.051</ele>
<time>2015-12-17T23:01:58.646Z</time>
</trkpt>
<trkpt lat="-27.3348020" lon="152.7676330">
<ele>608.540</ele>
<time>2015-12-17T23:02:00.668Z</time>
</trkpt>
<trkpt lat="-27.3350637" lon="152.7673121">
<ele>609.986</ele>
<time>2015-12-17T23:02:03.769Z</time>
</trkpt>
<trkpt lat="-27.3352799" lon="152.7669483">
<ele>611.187</ele>
<time>2015-12-17T23:02:06.844Z</time>
</trkpt>
<trkpt lat="-27.3354046" lon="152.7666661">
<ele>611.633</ele>
<time>2015-12-17T23:02:08.965Z</time>
</trkpt>
<trkpt lat="-27.3355335" lon="152.7662556">
<ele>610.932</ele>
<time>2015-12-17T23:02:11.901Z</time>
</trkpt>
<trkpt lat="-27.3355635" lon="152.7659629">
<ele>609.464</ele>
<time>2015-12-17T23:02:13.899Z</time>
</trkpt>
<trkpt lat="-27.3356026" lon="152.7655494">
<ele>608.082</ele>
<time>2015-12-17T23:02:16.714Z</time>
</trkpt>
<trkpt lat="-27.3355968" lon="152.7652464">
<ele>607.336</ele>
<time>2015-12-17T23:02:18.744Z</time>
</trkpt>
<trkpt lat="-27.3355417" lon="152.7648168">
<ele>607.343</ele>
<time>2015-12-17T23:02:21.630Z</time>
</trkpt>
<trkpt lat="-27.3354075" lon="152.7644070">
<ele>608.238</ele>
<time>2015-12-17T23:02:24.599Z</time>
</trkpt>
<trkpt lat="-27.3352445" lon="152.7640297">
<ele>609.761</ele>
<time>2015-12-17T23:02:27.484Z</time>
</trkpt>
<trkpt lat="-27.3350236" lon="152.7636586">
<ele>611.204</ele>
<time>2015-12-17T23:02:30.517Z</time>
</trkpt>
<trkpt lat="-27.3348428" lon="152.7634161">
<ele>612.264</ele>
<time>2015-12-17T23:02:32.661Z</time>
</trkpt>
<trkpt lat="-27.3346160" lon="152.7631801">
<ele>613.586</ele>
<time>2015-12-17T23:02:35.011Z</time>
</trkpt>
<trkpt lat="-27.3343431" lon="152.7629003">
<ele>615.835</ele>
<time>2015-12-17T23:02:37.780Z</time>
</trkpt>
<trkpt lat="-27.3340267" lon="152.7626171">
<ele>619.447</ele>
<time>2015-12-17T23:02:40.675Z</time>
</trkpt>
<trkpt lat="-27.3338028" lon="152.7624523">
<ele>624.445</ele>
<time>2015-12-17T23:02:42.598Z</time>
</trkpt>
<trkpt lat="-27.3336071" lon="152.7622613">
<ele>629.920</ele>
<time>2015-12-17T23:02:44.476Z</time>
</trkpt>
<trkpt lat="-27.3333961" lon="152.7620976">
<ele>634.371</ele>
<time>2015-12-17T23:02:46.362Z</time>
</trkpt>
<trkpt lat="-27.3330860" lon="152.7618362">
<ele>637.190</ele>
<time>2015-12-17T23:02:49.204Z</time>
</trkpt>
<trkpt lat="-27.3328724" lon="152.7616881">
<ele>638.977</ele>
<time>2015-12-17T23:02:51.084Z</time>
</trkpt>
<trkpt lat="-27.3325776" lon="152.7614272">
<ele>640.347</ele>
<time>2015-12-17T23:02:53.970Z</time>
</trkpt>
<trkpt lat="-27.3323923" lon="152.7612391">
<ele>641.182</ele>
<time>2015-12-17T23:02:55.863Z</time>
</trkpt>
<trkpt lat="-27.3320812" lon="152.7609539">
<ele>641.448</ele>
<time>2015-12-17T23:02:58.930Z</time>
</trkpt>
<trkpt lat="-27.3318447" lon="152.7608015">
<ele>641.563</ele>
<time>2015-12-17T23:03:01.074Z</time>
</trkpt>
<trkpt lat="-27.3315398" lon="152.7605253">
<ele>641.977</ele>
<time>2015-12-17T23:03:04.130Z</time>
</trkpt>
<trkpt lat="-27.3312233" lon="152.7602292">
<ele>643.140</ele>
<time>2015-12-17T23:03:07.214Z</time>
</trkpt>
<trkpt lat="-27.3309767" lon="152.7600659">
<ele>645.229</ele>
<time>2015-12-17T23:03:09.292Z</time>
</trkpt>
<trkpt lat="-27.3306619" lon="152.7598185">
<ele>647.558</ele>
<time>2015-12-17T23:03:12.054Z</time>
</trkpt>
<trkpt lat="-27.3304595" lon="152.7596284">
<ele>649.245</ele>
<time>2015-12-17T23:03:13.955Z</time>
</trkpt>
<trkpt lat="-27.3302783" lon="152.7593963">
<ele>650.295</ele>
<time>2015-12-17T23:03:15.990Z</time>
</trkpt>
<trkpt lat="-27.3300520" lon="152.7589959">
<ele>651.105</ele>
<time>2015-12-17T23:03:19.185Z</time>
</trkpt>
<trkpt lat="-27.3298415" lon="152.7585593">
<ele>651.690</ele>
<time>2015-12-17T23:03:22.490Z</time>
</trkpt>
<trkpt lat="-27.3296464" lon="152.7581000">
<ele>651.975</ele>
<time>2015-12-17T23:03:25.784Z</time>
</trkpt>
<trkpt lat="-27.3295190" lon="152.7578525">
<ele>652.062</ele>
<time>2015-12-17T23:03:27.572Z</time>
</trkpt>
<trkpt lat="-27.3293890" lon="152.7576116">
<ele>652.189</ele>
<time>2015-12-17T23:03:29.332Z</time>
</trkpt>
<trkpt lat="-27.3291911" lon="152.7572234">
<ele>652.559</ele>
<time>2015-12-17T23:03:32.162Z</time>
</trkpt>
<trkpt lat="-27.3290546" lon="152.7569837">
<ele>653.297</ele>
<time>2015-12-17T23:03:34.037Z</time>
</trkpt>
<trkpt lat="-27.3289142" lon="152.7567249">
<ele>654.382</ele>
<time>2015-12-17T23:03:36.086Z</time>
</trkpt>
<trkpt lat="-27.3287823" lon="152.7564556">
<ele>655.970</ele>
<time>2015-12-17T23:03:38.146Z</time>
</trkpt>
<trkpt lat="-27.3285886" lon="152.7560910">
<ele>658.280</ele>
<time>2015-12-17T23:03:40.951Z</time>
</trkpt>
<trkpt lat="-27.3284428" lon="152.7558798">
<ele>661.439</ele>
<time>2015-12-17T23:03:42.695Z</time>
</trkpt>
<trkpt lat="-27.3281656" lon="152.7555978">
<ele>665.049</ele>
<time>2015-12-17T23:03:45.414Z</time>
</trkpt>
<trkpt lat="-27.3278076" lon="152.7553881">
<ele>668.212</ele>
<time>2015-12-17T23:03:48.401Z</time>
</trkpt>
<trkpt lat="-27.3272807" lon="152.7553608">
<ele>670.607</ele>
<time>2015-12-17T23:03:52.509Z</time>
</trkpt>
<trkpt lat="-27.3268727" lon="152.7553375">
<ele>672.483</ele>
<time>2015-12-17T23:03:55.665Z</time>
</trkpt>
<trkpt lat="-27.3264848" lon="152.7553718">
<ele>673.672</ele>
<time>2015-12-17T23:03:58.498Z</time>
</trkpt>
<trkpt lat="-27.3261105" lon="152.7554304">
<ele>674.129</ele>
<time>2015-12-17T23:04:01.119Z</time>
</trkpt>
<trkpt lat="-27.3257436" lon="152.7554235">
<ele>674.370</ele>
<time>2015-12-17T23:04:03.670Z</time>
</trkpt>
<trkpt lat="-27.3254739" lon="152.7554445">
<ele>674.839</ele>
<time>2015-12-17T23:04:05.603Z</time>
</trkpt>
<trkpt lat="-27.3251991" lon="152.7554275">
<ele>675.425</ele>
<time>2015-12-17T23:04:07.670Z</time>
</trkpt>
<trkpt lat="-27.3249393" lon="152.7554005">
<ele>675.759</ele>
<time>2015-12-17T23:04:09.668Z</time>
</trkpt>
<trkpt lat="-27.3245447" lon="152.7553263">
<ele>675.657</ele>
<time>2015-12-17T23:04:12.705Z</time>
</trkpt>
<trkpt lat="-27.3242795" lon="152.7552428">
<ele>674.770</ele>
<time>2015-12-17T23:04:14.729Z</time>
</trkpt>
<trkpt lat="-27.3238922" lon="152.7551390">
<ele>673.056</ele>
<time>2015-12-17T23:04:17.660Z</time>
</trkpt>
<trkpt lat="-27.3235861" lon="152.7549314">
<ele>670.728</ele>
<time>2015-12-17T23:04:20.326Z</time>
</trkpt>
<trkpt lat="-27.3231695" lon="152.7546252">
<ele>667.798</ele>
<time>2015-12-17T23:04:23.992Z</time>
</trkpt>
<trkpt lat="-27.3229216" lon="152.7544710">
<ele>664.685</ele>
<time>2015-12-17T23:04:25.998Z</time>
</trkpt>
<trkpt lat="-27.3227515" lon="152.7542548">
<ele>662.324</ele>
<time>2015-12-17T23:04:27.703Z</time>
</trkpt>
<trkpt lat="-27.3225581" lon="152.7540026">
<ele>661.117</ele>
<time>2015-12-17T23:04:29.579Z</time>
</trkpt>
<trkpt lat="-27.3222468" lon="152.7536869">
<ele>660.958</ele>
<time>2015-12-17T23:04:32.272Z</time>
</trkpt>
<trkpt lat="-27.3220344" lon="152.7534578">
<ele>661.727</ele>
<time>2015-12-17T23:04:34.367Z</time>
</trkpt>
<trkpt lat="-27.3217904" lon="152.7530669">
<ele>663.062</ele>
<time>2015-12-17T23:04:37.550Z</time>
</trkpt>
<trkpt lat="-27.3216302" lon="152.7526217">
<ele>664.187</ele>
<time>2015-12-17T23:04:40.685Z</time>
</trkpt>
<trkpt lat="-27.3215155" lon="152.7523620">
<ele>664.604</ele>
<time>2015-12-17T23:04:42.544Z</time>
</trkpt>
<trkpt lat="-27.3211122" lon="152.7520171">
<ele>664.471</ele>
<time>2015-12-17T23:04:46.020Z</time>
</trkpt>
<trkpt lat="-27.3208580" lon="152.7518358">
<ele>664.532</ele>
<time>2015-12-17T23:04:47.996Z</time>
</trkpt>
<trkpt lat="-27.3206276" lon="152.7515435">
<ele>665.435</ele>
<time>2015-12-17T23:04:50.306Z</time>
</trkpt>
<trkpt lat="-27.3204392" lon="152.7512437">
<ele>667.068</ele>
<time>2015-12-17T23:04:52.399Z</time>
</trkpt>
<trkpt lat="-27.3202085" lon="152.7506121">
<ele>669.013</ele>
<time>2015-12-17T23:04:56.116Z</time>
</trkpt>
<trkpt lat="-27.3199814" lon="152.7501033">
<ele>670.858</ele>
<time>2015-12-17T23:04:59.084Z</time>
</trkpt>
<trkpt lat="-27.3197417" lon="152.7496660">
<ele>672.614</ele>
<time>2015-12-17T23:05:01.635Z</time>
</trkpt>
<trkpt lat="-27.3195804" lon="152.7494016">
<ele>674.445</ele>
<time>2015-12-17T23:05:03.218Z</time>
</trkpt>
<trkpt lat="-27.3192113" lon="152.7492030">
<ele>675.628</ele>
<time>2015-12-17T23:05:05.613Z</time>
</trkpt>
<trkpt lat="-27.3188324" lon="152.7490176">
<ele>675.354</ele>
<time>2015-12-17T23:05:08.206Z</time>
</trkpt>
<trkpt lat="-27.3185878" lon="152.7488256">
<ele>674.040</ele>
<time>2015-12-17T23:05:10.225Z</time>
</trkpt>
<trkpt lat="-27.3182822" lon="152.7484661">
<ele>672.723</ele>
<time>2015-12-17T23:05:13.273Z</time>
</trkpt>
<trkpt lat="-27.3181141" lon="152.7482361">
<ele>672.372</ele>
<time>2015-12-17T23:05:15.072Z</time>
</trkpt>
<trkpt lat="-27.3178741" lon="152.7478040">
<ele>673.558</ele>
<time>2015-12-17T23:05:18.107Z</time>
</trkpt>
<trkpt lat="-27.3176308" lon="152.7476166">
<ele>676.154</ele>
<time>2015-12-17T23:05:20.125Z</time>
</trkpt>
<trkpt lat="-27.3174064" lon="152.7475334">
<ele>679.154</ele>
<time>2015-12-17T23:05:21.788Z</time>
</trkpt>
<trkpt lat="-27.3170011" lon="152.7476321">
<ele>681.573</ele>
<time>2015-12-17T23:05:24.840Z</time>
</trkpt>
<trkpt lat="-27.3168086" lon="152.7476943">
<ele>683.435</ele>
<time>2015-12-17T23:05:26.449Z</time>
</trkpt>
<trkpt lat="-27.3164717" lon="152.7476469">
<ele>685.268</ele>
<time>2015-12-17T23:05:29.461Z</time>
</trkpt>
<trkpt lat="-27.3161709" lon="152.7474322">
<ele>687.370</ele>
<time>2015-12-17T23:05:32.454Z</time>
</trkpt>
<trkpt lat="-27.3159348" lon="152.7472138">
<ele>689.942</ele>
<time>2015-12-17T23:05:35.047Z</time>
</trkpt>
<trkpt lat="-27.3156657" lon="152.7469110">
<ele>692.724</ele>
<time>2015-12-17T23:05:38.383Z</time>
</trkpt>
<trkpt lat="-27.3154634" lon="152.7466491">
<ele>695.108</ele>
<time>2015-12-17T23:05:40.852Z</time>
</trkpt>
<trkpt lat="-27.3152483" lon="152.7465924">
<ele>696.847</ele>
<time>2015-12-17T23:05:42.466Z</time>
</trkpt>
<trkpt lat="-27.3149442" lon="152.7468633">
<ele>698.035</ele>
<time>2015-12-17T23:05:45.395Z</time>
</trkpt>
<trkpt lat="-27.3147195" lon="152.7470053">
<ele>699.093</ele>
<time>2015-12-17T23:05:47.503Z</time>
</trkpt>
<trkpt lat="-27.3144410" lon="152.7471379">
<ele>700.285</ele>
<time>2015-12-17T23:05:50.298Z</time>
</trkpt>
<trkpt lat="-27.3139511" lon="152.7472347">
<ele>701.090</ele>
<time>2015-12-17T23:05:54.554Z</time>
</trkpt>
<trkpt lat="-27.3137125" lon="152.7473488">
<ele>700.754</ele>
<time>2015-12-17T23:05:56.428Z</time>
</trkpt>
<trkpt lat="-27.3134909" lon="152.7474278">
<ele>699.165</ele>
<time>2015-12-17T23:05:57.983Z</time>
</trkpt>
<trkpt lat="-27.3131257" lon="152.7476657">
<ele>697.004</ele>
<time>2015-12-17T23:06:00.757Z</time>
</trkpt>
<trkpt lat="-27.3129705" lon="152.7478894">
<ele>694.827</ele>
<time>2015-12-17T23:06:02.525Z</time>
</trkpt>
<trkpt lat="-27.3128140" lon="152.7481558">
<ele>692.691</ele>
<time>2015-12-17T23:06:04.605Z</time>
</trkpt>
<trkpt lat="-27.3125544" lon="152.7485573">
<ele>690.812</ele>
<time>2015-12-17T23:06:07.965Z</time>
</trkpt>
<trkpt lat="-27.3123975" lon="152.7488142">
<ele>689.065</ele>
<time>2015-12-17T23:06:10.033Z</time>
</trkpt>
<trkpt lat="-27.3122598" lon="152.7490121">
<ele>686.994</ele>
<time>2015-12-17T23:06:11.615Z</time>
</trkpt>
<trkpt lat="-27.3121494" lon="152.7493616">
<ele>684.488</ele>
<time>2015-12-17T23:06:13.935Z</time>
</trkpt>
<trkpt lat="-27.3120644" lon="152.7496540">
<ele>681.283</ele>
<time>2015-12-17T23:06:15.897Z</time>
</trkpt>
<trkpt lat="-27.3121096" lon="152.7499331">
<ele>677.304</ele>
<time>2015-12-17T23:06:17.906Z</time>
</trkpt>
<trkpt lat="-27.3123454" lon="152.7501604">
<ele>673.560</ele>
<time>2015-12-17T23:06:20.761Z</time>
</trkpt>
<trkpt lat="-27.3125040" lon="152.7502945">
<ele>671.161</ele>
<time>2015-12-17T23:06:22.907Z</time>
</trkpt>
<trkpt lat="-27.3125798" lon="152.7504911">
<ele>669.984</ele>
<time>2015-12-17T23:06:25.331Z</time>
</trkpt>
<trkpt lat="-27.3127386" lon="152.7507065">
<ele>669.309</ele>
<time>2015-12-17T23:06:28.447Z</time>
</trkpt>
<trkpt lat="-27.3126548" lon="152.7510894">
<ele>668.776</ele>
<time>2015-12-17T23:06:32.295Z</time>
</trkpt>
<trkpt lat="-27.3124797" lon="152.7513307">
<ele>668.059</ele>
<time>2015-12-17T23:06:35.041Z</time>
</trkpt>
<trkpt lat="-27.3122180" lon="152.7516775">
<ele>666.822</ele>
<time>2015-12-17T23:06:38.781Z</time>
</trkpt>
<trkpt lat="-27.3119771" lon="152.7518648">
<ele>665.055</ele>
<time>2015-12-17T23:06:41.268Z</time>
</trkpt>
<trkpt lat="-27.3114926" lon="152.7519622">
<ele>663.052</ele>
<time>2015-12-17T23:06:45.067Z</time>
</trkpt>
<trkpt lat="-27.3111963" lon="152.7521657">
<ele>661.332</ele>
<time>2015-12-17T23:06:47.552Z</time>
</trkpt>
<trkpt lat="-27.3111567" lon="152.7524896">
<ele>660.050</ele>
<time>2015-12-17T23:06:49.747Z</time>
</trkpt>
<trkpt lat="-27.3111108" lon="152.7527274">
<ele>659.039</ele>
<time>2015-12-17T23:06:51.460Z</time>
</trkpt>
<trkpt lat="-27.3111229" lon="152.7528852">
<ele>658.866</ele>
<time>2015-12-17T23:06:52.684Z</time>
</trkpt>
<trkpt lat="-27.3110671" lon="152.7532247">
<ele>660.068</ele>
<time>2015-12-17T23:06:55.954Z</time>
</trkpt>
<trkpt lat="-27.3111785" lon="152.7536208">
<ele>661.965</ele>
<time>2015-12-17T23:07:00.648Z</time>
</trkpt>
<trkpt lat="-27.3111491" lon="152.7539713">
<ele>663.615</ele>
<time>2015-12-17T23:07:03.683Z</time>
</trkpt>
<trkpt lat="-27.3110318" lon="152.7541825">
<ele>664.703</ele>
<time>2015-12-17T23:07:05.799Z</time>
</trkpt>
<trkpt lat="-27.3108948" lon="152.7543390">
<ele>665.195</ele>
<time>2015-12-17T23:07:07.696Z</time>
</trkpt>
<trkpt lat="-27.3105178" lon="152.7543948">
<ele>665.189</ele>
<time>2015-12-17T23:07:11.442Z</time>
</trkpt>
<trkpt lat="-27.3103565" lon="152.7544673">
<ele>664.810</ele>
<time>2015-12-17T23:07:13.199Z</time>
</trkpt>
<trkpt lat="-27.3101566" lon="152.7547430">
<ele>664.070</ele>
<time>2015-12-17T23:07:16.524Z</time>
</trkpt>
<trkpt lat="-27.3100711" lon="152.7550382">
<ele>663.171</ele>
<time>2015-12-17T23:07:19.273Z</time>
</trkpt>
<trkpt lat="-27.3098710" lon="152.7555414">
<ele>662.241</ele>
<time>2015-12-17T23:07:23.193Z</time>
</trkpt>
<trkpt lat="-27.3095951" lon="152.7560078">
<ele>660.512</ele>
<time>2015-12-17T23:07:26.541Z</time>
</trkpt>
<trkpt lat="-27.3092108" lon="152.7562729">
<ele>657.408</ele>
<time>2015-12-17T23:07:29.520Z</time>
</trkpt>
<trkpt lat="-27.3089047" lon="152.7563050">
<ele>654.110</ele>
<time>2015-12-17T23:07:31.603Z</time>
</trkpt>
<trkpt lat="-27.3085989" lon="152.7562706">
<ele>652.283</ele>
<time>2015-12-17T23:07:33.679Z</time>
</trkpt>
<trkpt lat="-27.3083504" lon="152.7561574">
<ele>652.117</ele>
<time>2015-12-17T23:07:35.618Z</time>
</trkpt>
<trkpt lat="-27.3080826" lon="152.7560543">
<ele>652.582</ele>
<time>2015-12-17T23:07:37.931Z</time>
</trkpt>
<trkpt lat="-27.3078214" lon="152.7560478">
<ele>652.156</ele>
<time>2015-12-17T23:07:40.416Z</time>
</trkpt>
<trkpt lat="-27.3075955" lon="152.7561441">
<ele>650.219</ele>
<time>2015-12-17T23:07:42.614Z</time>
</trkpt>
<trkpt lat="-27.3073956" lon="152.7563220">
<ele>647.895</ele>
<time>2015-12-17T23:07:44.716Z</time>
</trkpt>
<trkpt lat="-27.3071849" lon="152.7565086">
<ele>646.428</ele>
<time>2015-12-17T23:07:46.758Z</time>
</trkpt>
<trkpt lat="-27.3068873" lon="152.7566424">
<ele>645.719</ele>
<time>2015-12-17T23:07:49.084Z</time>
</trkpt>
<trkpt lat="-27.3064344" lon="152.7566652">
<ele>645.247</ele>
<time>2015-12-17T23:07:52.274Z</time>
</trkpt>
<trkpt lat="-27.3061066" lon="152.7566553">
<ele>644.826</ele>
<time>2015-12-17T23:07:54.413Z</time>
</trkpt>
<trkpt lat="-27.3057518" lon="152.7566522">
<ele>644.546</ele>
<time>2015-12-17T23:07:56.628Z</time>
</trkpt>
<trkpt lat="-27.3052596" lon="152.7567514">
<ele>644.089</ele>
<time>2015-12-17T23:07:59.784Z</time>
</trkpt>
<trkpt lat="-27.3050100" lon="152.7567653">
<ele>642.582</ele>
<time>2015-12-17T23:08:01.463Z</time>
</trkpt>
<trkpt lat="-27.3047082" lon="152.7566486">
<ele>639.863</ele>
<time>2015-12-17T23:08:03.625Z</time>
</trkpt>
<trkpt lat="-27.3042697" lon="152.7565379">
<ele>636.954</ele>
<time>2015-12-17T23:08:06.788Z</time>
</trkpt>
<trkpt lat="-27.3040383" lon="152.7564447">
<ele>633.968</ele>
<time>2015-12-17T23:08:08.860Z</time>
</trkpt>
<trkpt lat="-27.3037433" lon="152.7564000">
<ele>630.316</ele>
<time>2015-12-17T23:08:13.156Z</time>
</trkpt>
<trkpt lat="-27.3038300" lon="152.7564476">
<ele>626.368</ele>
<time>2015-12-17T23:08:15.000Z</time>
</trkpt>
<trkpt lat="-27.3038300" lon="152.7564476">
<ele>623.085</ele>
<time>2015-12-17T23:08:15.001Z</time>
</trkpt>
<trkpt lat="-27.3038300" lon="152.7564476">
<ele>621.140</ele>
<time>2015-12-17T23:08:31.763Z</time>
</trkpt>
<trkpt lat="-27.3036586" lon="152.7564716">
<ele>620.658</ele>
<time>2015-12-17T23:08:37.543Z</time>
</trkpt>
<trkpt lat="-27.3035015" lon="152.7564592">
<ele>621.096</ele>
<time>2015-12-17T23:08:39.571Z</time>
</trkpt>
<trkpt lat="-27.3031897" lon="152.7564358">
<ele>621.996</ele>
<time>2015-12-17T23:08:42.828Z</time>
</trkpt>
<trkpt lat="-27.3029355" lon="152.7564168">
<ele>623.582</ele>
<time>2015-12-17T23:08:45.072Z</time>
</trkpt>
<trkpt lat="-27.3025906" lon="152.7565108">
<ele>626.124</ele>
<time>2015-12-17T23:08:47.974Z</time>
</trkpt>
<trkpt lat="-27.3022212" lon="152.7566872">
<ele>629.467</ele>
<time>2015-12-17T23:08:51.000Z</time>
</trkpt>
<trkpt lat="-27.3020354" lon="152.7569305">
<ele>633.714</ele>
<time>2015-12-17T23:08:53.184Z</time>
</trkpt>
<trkpt lat="-27.3017433" lon="152.7571830">
<ele>638.644</ele>
<time>2015-12-17T23:08:56.094Z</time>
</trkpt>
<trkpt lat="-27.3013324" lon="152.7570768">
<ele>643.249</ele>
<time>2015-12-17T23:08:59.275Z</time>
</trkpt>
<trkpt lat="-27.3010466" lon="152.7570024">
<ele>647.483</ele>
<time>2015-12-17T23:09:01.317Z</time>
</trkpt>
<trkpt lat="-27.3006209" lon="152.7569047">
<ele>652.059</ele>
<time>2015-12-17T23:09:04.400Z</time>
</trkpt>
<trkpt lat="-27.3002421" lon="152.7567361">
<ele>656.521</ele>
<time>2015-12-17T23:09:07.287Z</time>
</trkpt>
<trkpt lat="-27.2998854" lon="152.7563809">
<ele>659.830</ele>
<time>2015-12-17T23:09:10.541Z</time>
</trkpt>
<trkpt lat="-27.2996417" lon="152.7561964">
<ele>661.816</ele>
<time>2015-12-17T23:09:12.564Z</time>
</trkpt>
<trkpt lat="-27.2992789" lon="152.7559002">
<ele>662.918</ele>
<time>2015-12-17T23:09:15.747Z</time>
</trkpt>
<trkpt lat="-27.2990525" lon="152.7557104">
<ele>663.549</ele>
<time>2015-12-17T23:09:17.639Z</time>
</trkpt>
<trkpt lat="-27.2988229" lon="152.7554428">
<ele>664.049</ele>
<time>2015-12-17T23:09:19.710Z</time>
</trkpt>
<trkpt lat="-27.2984810" lon="152.7549948">
<ele>664.562</ele>
<time>2015-12-17T23:09:22.851Z</time>
</trkpt>
<trkpt lat="-27.2981868" lon="152.7545272">
<ele>664.672</ele>
<time>2015-12-17T23:09:25.936Z</time>
</trkpt>
<trkpt lat="-27.2978859" lon="152.7540319">
<ele>663.702</ele>
<time>2015-12-17T23:09:29.692Z</time>
</trkpt>
<trkpt lat="-27.2977811" lon="152.7536428">
<ele>661.759</ele>
<time>2015-12-17T23:09:32.524Z</time>
</trkpt>
<trkpt lat="-27.2977608" lon="152.7533383">
<ele>659.802</ele>
<time>2015-12-17T23:09:34.624Z</time>
</trkpt>
<trkpt lat="-27.2978478" lon="152.7529106">
<ele>659.050</ele>
<time>2015-12-17T23:09:37.748Z</time>
</trkpt>
<trkpt lat="-27.2979549" lon="152.7526625">
<ele>660.588</ele>
<time>2015-12-17T23:09:39.894Z</time>
</trkpt>
<trkpt lat="-27.2979364" lon="152.7524307">
<ele>663.941</ele>
<time>2015-12-17T23:09:41.759Z</time>
</trkpt>
<trkpt lat="-27.2978439" lon="152.7520870">
<ele>667.283</ele>
<time>2015-12-17T23:09:44.795Z</time>
</trkpt>
<trkpt lat="-27.2977119" lon="152.7519559">
<ele>669.896</ele>
<time>2015-12-17T23:09:46.456Z</time>
</trkpt>
<trkpt lat="-27.2973810" lon="152.7518315">
<ele>672.422</ele>
<time>2015-12-17T23:09:49.471Z</time>
</trkpt>
<trkpt lat="-27.2971517" lon="152.7514537">
<ele>675.519</ele>
<time>2015-12-17T23:09:52.514Z</time>
</trkpt>
<trkpt lat="-27.2969304" lon="152.7509747">
<ele>679.691</ele>
<time>2015-12-17T23:09:56.168Z</time>
</trkpt>
<trkpt lat="-27.2968256" lon="152.7507063">
<ele>684.819</ele>
<time>2015-12-17T23:09:58.387Z</time>
</trkpt>
<trkpt lat="-27.2966432" lon="152.7504004">
<ele>689.646</ele>
<time>2015-12-17T23:10:01.236Z</time>
</trkpt>
<trkpt lat="-27.2963060" lon="152.7502599">
<ele>692.685</ele>
<time>2015-12-17T23:10:04.182Z</time>
</trkpt>
<trkpt lat="-27.2958445" lon="152.7502305">
<ele>694.097</ele>
<time>2015-12-17T23:10:07.664Z</time>
</trkpt>
<trkpt lat="-27.2955801" lon="152.7502141">
<ele>693.972</ele>
<time>2015-12-17T23:10:09.633Z</time>
</trkpt>
<trkpt lat="-27.2951674" lon="152.7502551">
<ele>691.940</ele>
<time>2015-12-17T23:10:12.792Z</time>
</trkpt>
<trkpt lat="-27.2949071" lon="152.7502518">
<ele>689.448</ele>
<time>2015-12-17T23:10:14.924Z</time>
</trkpt>
<trkpt lat="-27.2945495" lon="152.7501625">
<ele>688.187</ele>
<time>2015-12-17T23:10:17.832Z</time>
</trkpt>
<trkpt lat="-27.2942580" lon="152.7498806">
<ele>687.916</ele>
<time>2015-12-17T23:10:20.563Z</time>
</trkpt>
<trkpt lat="-27.2940596" lon="152.7491452">
<ele>688.010</ele>
<time>2015-12-17T23:10:24.999Z</time>
</trkpt>
<trkpt lat="-27.2940325" lon="152.7486761">
<ele>688.218</ele>
<time>2015-12-17T23:10:27.704Z</time>
</trkpt>
<trkpt lat="-27.2939889" lon="152.7481902">
<ele>689.255</ele>
<time>2015-12-17T23:10:30.470Z</time>
</trkpt>
<trkpt lat="-27.2938791" lon="152.7478654">
<ele>691.890</ele>
<time>2015-12-17T23:10:32.370Z</time>
</trkpt>
<trkpt lat="-27.2936785" lon="152.7473120">
<ele>695.602</ele>
<time>2015-12-17T23:10:35.617Z</time>
</trkpt>
<trkpt lat="-27.2935649" lon="152.7469446">
<ele>699.440</ele>
<time>2015-12-17T23:10:37.832Z</time>
</trkpt>
<trkpt lat="-27.2935008" lon="152.7465896">
<ele>703.009</ele>
<time>2015-12-17T23:10:40.047Z</time>
</trkpt>
<trkpt lat="-27.2933356" lon="152.7460832">
<ele>705.738</ele>
<time>2015-12-17T23:10:43.989Z</time>
</trkpt>
<trkpt lat="-27.2932269" lon="152.7456539">
<ele>707.069</ele>
<time>2015-12-17T23:10:46.914Z</time>
</trkpt>
<trkpt lat="-27.2932295" lon="152.7453789">
<ele>706.923</ele>
<time>2015-12-17T23:10:48.580Z</time>
</trkpt>
<trkpt lat="-27.2932823" lon="152.7451016">
<ele>705.834</ele>
<time>2015-12-17T23:10:50.202Z</time>
</trkpt>
<trkpt lat="-27.2933934" lon="152.7447528">
<ele>704.564</ele>
<time>2015-12-17T23:10:52.291Z</time>
</trkpt>
<trkpt lat="-27.2937777" lon="152.7444594">
<ele>703.359</ele>
<time>2015-12-17T23:10:55.361Z</time>
</trkpt>
<trkpt lat="-27.2941936" lon="152.7440905">
<ele>702.046</ele>
<time>2015-12-17T23:10:59.305Z</time>
</trkpt>
<trkpt lat="-27.2943702" lon="152.7436879">
<ele>700.833</ele>
<time>2015-12-17T23:11:02.291Z</time>
</trkpt>
<trkpt lat="-27.2944121" lon="152.7434134">
<ele>700.095</ele>
<time>2015-12-17T23:11:04.121Z</time>
</trkpt>
<trkpt lat="-27.2943471" lon="152.7429276">
<ele>699.074</ele>
<time>2015-12-17T23:11:07.623Z</time>
</trkpt>
<trkpt lat="-27.2942248" lon="152.7426337">
<ele>696.984</ele>
<time>2015-12-17T23:11:10.385Z</time>
</trkpt>
<trkpt lat="-27.2940343" lon="152.7424204">
<ele>694.824</ele>
<time>2015-12-17T23:11:13.287Z</time>
</trkpt>
<trkpt lat="-27.2937148" lon="152.7421865">
<ele>693.755</ele>
<time>2015-12-17T23:11:16.597Z</time>
</trkpt>
<trkpt lat="-27.2935637" lon="152.7420067">
<ele>693.374</ele>
<time>2015-12-17T23:11:18.256Z</time>
</trkpt>
<trkpt lat="-27.2935408" lon="152.7418128">
<ele>692.779</ele>
<time>2015-12-17T23:11:19.544Z</time>
</trkpt>
<trkpt lat="-27.2935741" lon="152.7415757">
<ele>691.281</ele>
<time>2015-12-17T23:11:21.060Z</time>
</trkpt>
<trkpt lat="-27.2937308" lon="152.7413344">
<ele>688.296</ele>
<time>2015-12-17T23:11:22.942Z</time>
</trkpt>
<trkpt lat="-27.2938553" lon="152.7410892">
<ele>683.515</ele>
<time>2015-12-17T23:11:24.714Z</time>
</trkpt>
<trkpt lat="-27.2939696" lon="152.7407531">
<ele>677.796</ele>
<time>2015-12-17T23:11:26.873Z</time>
</trkpt>
<trkpt lat="-27.2940954" lon="152.7403187">
<ele>672.519</ele>
<time>2015-12-17T23:11:29.392Z</time>
</trkpt>
<trkpt lat="-27.2940581" lon="152.7398205">
<ele>667.483</ele>
<time>2015-12-17T23:11:32.124Z</time>
</trkpt>
<trkpt lat="-27.2940078" lon="152.7394706">
<ele>662.175</ele>
<time>2015-12-17T23:11:34.158Z</time>
</trkpt>
<trkpt lat="-27.2939437" lon="152.7388995">
<ele>657.730</ele>
<time>2015-12-17T23:11:37.668Z</time>
</trkpt>
<trkpt lat="-27.2938913" lon="152.7385772">
<ele>655.044</ele>
<time>2015-12-17T23:11:39.782Z</time>
</trkpt>
<trkpt lat="-27.2938145" lon="152.7382487">
<ele>653.687</ele>
<time>2015-12-17T23:11:42.091Z</time>
</trkpt>
<trkpt lat="-27.2936673" lon="152.7379562">
<ele>653.260</ele>
<time>2015-12-17T23:11:44.757Z</time>
</trkpt>
<trkpt lat="-27.2934718" lon="152.7375287">
<ele>653.777</ele>
<time>2015-12-17T23:11:49.610Z</time>
</trkpt>
<trkpt lat="-27.2934043" lon="152.7371010">
<ele>655.388</ele>
<time>2015-12-17T23:11:54.233Z</time>
</trkpt>
<trkpt lat="-27.2933581" lon="152.7368815">
<ele>658.107</ele>
<time>2015-12-17T23:11:56.075Z</time>
</trkpt>
<trkpt lat="-27.2934459" lon="152.7365882">
<ele>661.515</ele>
<time>2015-12-17T23:11:58.268Z</time>
</trkpt>
<trkpt lat="-27.2935600" lon="152.7365637">
<ele>664.957</ele>
<time>2015-12-17T23:11:59.165Z</time>
</trkpt>
<trkpt lat="-27.2937087" lon="152.7366322">
<ele>668.047</ele>
<time>2015-12-17T23:12:00.374Z</time>
</trkpt>
<trkpt lat="-27.2939660" lon="152.7368387">
<ele>670.552</ele>
<time>2015-12-17T23:12:02.627Z</time>
</trkpt>
<trkpt lat="-27.2943264" lon="152.7370416">
<ele>672.162</ele>
<time>2015-12-17T23:12:05.492Z</time>
</trkpt>
<trkpt lat="-27.2946253" lon="152.7370433">
<ele>673.012</ele>
<time>2015-12-17T23:12:07.726Z</time>
</trkpt>
<trkpt lat="-27.2949139" lon="152.7370416">
<ele>673.498</ele>
<time>2015-12-17T23:12:09.984Z</time>
</trkpt>
<trkpt lat="-27.2953359" lon="152.7369115">
<ele>673.748</ele>
<time>2015-12-17T23:12:13.647Z</time>
</trkpt>
<trkpt lat="-27.2956423" lon="152.7366329">
<ele>673.674</ele>
<time>2015-12-17T23:12:16.746Z</time>
</trkpt>
<trkpt lat="-27.2958614" lon="152.7364944">
<ele>673.308</ele>
<time>2015-12-17T23:12:18.527Z</time>
</trkpt>
<trkpt lat="-27.2960783" lon="152.7363670">
<ele>672.895</ele>
<time>2015-12-17T23:12:20.138Z</time>
</trkpt>
<trkpt lat="-27.2963153" lon="152.7360975">
<ele>672.587</ele>
<time>2015-12-17T23:12:22.340Z</time>
</trkpt>
<trkpt lat="-27.2964027" lon="152.7358541">
<ele>671.672</ele>
<time>2015-12-17T23:12:23.857Z</time>
</trkpt>
<trkpt lat="-27.2964624" lon="152.7353304">
<ele>668.449</ele>
<time>2015-12-17T23:12:27.193Z</time>
</trkpt>
<trkpt lat="-27.2965873" lon="152.7348199">
<ele>662.231</ele>
<time>2015-12-17T23:12:30.724Z</time>
</trkpt>
<trkpt lat="-27.2966466" lon="152.7343119">
<ele>654.461</ele>
<time>2015-12-17T23:12:33.906Z</time>
</trkpt>
<trkpt lat="-27.2966318" lon="152.7340126">
<ele>646.752</ele>
<time>2015-12-17T23:12:35.680Z</time>
</trkpt>
<trkpt lat="-27.2966332" lon="152.7335649">
<ele>639.551</ele>
<time>2015-12-17T23:12:38.541Z</time>
</trkpt>
<trkpt lat="-27.2966788" lon="152.7332638">
<ele>633.248</ele>
<time>2015-12-17T23:12:41.036Z</time>
</trkpt>
<trkpt lat="-27.2968722" lon="152.7327656">
<ele>628.761</ele>
<time>2015-12-17T23:12:45.406Z</time>
</trkpt>
<trkpt lat="-27.2970861" lon="152.7323358">
<ele>625.836</ele>
<time>2015-12-17T23:12:48.762Z</time>
</trkpt>
<trkpt lat="-27.2971292" lon="152.7321237">
<ele>622.705</ele>
<time>2015-12-17T23:12:50.161Z</time>
</trkpt>
<trkpt lat="-27.2970446" lon="152.7317791">
<ele>618.441</ele>
<time>2015-12-17T23:12:52.561Z</time>
</trkpt>
<trkpt lat="-27.2968796" lon="152.7315325">
<ele>613.679</ele>
<time>2015-12-17T23:12:54.732Z</time>
</trkpt>
<trkpt lat="-27.2967310" lon="152.7312797">
<ele>609.413</ele>
<time>2015-12-17T23:12:56.963Z</time>
</trkpt>
<trkpt lat="-27.2966146" lon="152.7309659">
<ele>606.511</ele>
<time>2015-12-17T23:12:59.477Z</time>
</trkpt>
<trkpt lat="-27.2965400" lon="152.7304804">
<ele>605.257</ele>
<time>2015-12-17T23:13:03.178Z</time>
</trkpt>
<trkpt lat="-27.2964669" lon="152.7301060">
<ele>604.669</ele>
<time>2015-12-17T23:13:06.106Z</time>
</trkpt>
<trkpt lat="-27.2963682" lon="152.7298364">
<ele>603.268</ele>
<time>2015-12-17T23:13:08.745Z</time>
</trkpt>
<trkpt lat="-27.2961719" lon="152.7295318">
<ele>600.895</ele>
<time>2015-12-17T23:13:12.536Z</time>
</trkpt>
<trkpt lat="-27.2960828" lon="152.7293142">
<ele>598.453</ele>
<time>2015-12-17T23:13:14.495Z</time>
</trkpt>
<trkpt lat="-27.2960136" lon="152.7290151">
<ele>596.139</ele>
<time>2015-12-17T23:13:16.479Z</time>
</trkpt>
<trkpt lat="-27.2958621" lon="152.7286880">
<ele>593.630</ele>
<time>2015-12-17T23:13:18.594Z</time>
</trkpt>
<trkpt lat="-27.2957888" lon="152.7284761">
<ele>591.259</ele>
<time>2015-12-17T23:13:19.873Z</time>
</trkpt>
<trkpt lat="-27.2958377" lon="152.7283005">
<ele>589.343</ele>
<time>2015-12-17T23:13:20.892Z</time>
</trkpt>
<trkpt lat="-27.2960991" lon="152.7281040">
<ele>587.485</ele>
<time>2015-12-17T23:13:22.846Z</time>
</trkpt>
<trkpt lat="-27.2964508" lon="152.7279933">
<ele>585.383</ele>
<time>2015-12-17T23:13:25.343Z</time>
</trkpt>
<trkpt lat="-27.2968109" lon="152.7279767">
<ele>583.443</ele>
<time>2015-12-17T23:13:28.231Z</time>
</trkpt>
<trkpt lat="-27.2972756" lon="152.7278673">
<ele>582.158</ele>
<time>2015-12-17T23:13:32.450Z</time>
</trkpt>
<trkpt lat="-27.2977517" lon="152.7276784">
<ele>581.467</ele>
<time>2015-12-17T23:13:36.527Z</time>
</trkpt>
<trkpt lat="-27.2980540" lon="152.7275610">
<ele>580.335</ele>
<time>2015-12-17T23:13:38.980Z</time>
</trkpt>
<trkpt lat="-27.2983705" lon="152.7273835">
<ele>576.790</ele>
<time>2015-12-17T23:13:41.747Z</time>
</trkpt>
<trkpt lat="-27.2986299" lon="152.7272012">
<ele>570.518</ele>
<time>2015-12-17T23:13:44.198Z</time>
</trkpt>
<trkpt lat="-27.2990201" lon="152.7270629">
<ele>562.984</ele>
<time>2015-12-17T23:13:47.302Z</time>
</trkpt>
<trkpt lat="-27.2992600" lon="152.7269464">
<ele>555.760</ele>
<time>2015-12-17T23:13:49.108Z</time>
</trkpt>
<trkpt lat="-27.2994656" lon="152.7267434">
<ele>550.495</ele>
<time>2015-12-17T23:13:50.903Z</time>
</trkpt>
<trkpt lat="-27.2995936" lon="152.7263919">
<ele>547.973</ele>
<time>2015-12-17T23:13:53.065Z</time>
</trkpt>
<trkpt lat="-27.2997694" lon="152.7261989">
<ele>545.290</ele>
<time>2015-12-17T23:13:54.618Z</time>
</trkpt>
<trkpt lat="-27.3001721" lon="152.7259681">
<ele>540.043</ele>
<time>2015-12-17T23:13:57.422Z</time>
</trkpt>
<trkpt lat="-27.3004617" lon="152.7258279">
<ele>534.258</ele>
<time>2015-12-17T23:13:59.343Z</time>
</trkpt>
<trkpt lat="-27.3007652" lon="152.7257699">
<ele>530.630</ele>
<time>2015-12-17T23:14:01.230Z</time>
</trkpt>
<trkpt lat="-27.3012440" lon="152.7257744">
<ele>528.486</ele>
<time>2015-12-17T23:14:04.592Z</time>
</trkpt>
<trkpt lat="-27.3017361" lon="152.7257944">
<ele>526.476</ele>
<time>2015-12-17T23:14:08.750Z</time>
</trkpt>
<trkpt lat="-27.3020650" lon="152.7257604">
<ele>524.117</ele>
<time>2015-12-17T23:14:11.344Z</time>
</trkpt>
<trkpt lat="-27.3023886" lon="152.7256870">
<ele>521.735</ele>
<time>2015-12-17T23:14:13.569Z</time>
</trkpt>
<trkpt lat="-27.3026679" lon="152.7256447">
<ele>519.682</ele>
<time>2015-12-17T23:14:15.414Z</time>
</trkpt>
<trkpt lat="-27.3029547" lon="152.7255173">
<ele>517.940</ele>
<time>2015-12-17T23:14:17.495Z</time>
</trkpt>
<trkpt lat="-27.3030876" lon="152.7252946">
<ele>516.085</ele>
<time>2015-12-17T23:14:19.139Z</time>
</trkpt>
<trkpt lat="-27.3031757" lon="152.7248538">
<ele>514.000</ele>
<time>2015-12-17T23:14:21.928Z</time>
</trkpt>
<trkpt lat="-27.3031767" lon="152.7244757">
<ele>510.882</ele>
<time>2015-12-17T23:14:24.301Z</time>
</trkpt>
<trkpt lat="-27.3032042" lon="152.7239423">
<ele>505.300</ele>
<time>2015-12-17T23:14:28.109Z</time>
</trkpt>
<trkpt lat="-27.3032877" lon="152.7236530">
<ele>496.672</ele>
<time>2015-12-17T23:14:30.845Z</time>
</trkpt>
<trkpt lat="-27.3034795" lon="152.7231850">
<ele>487.135</ele>
<time>2015-12-17T23:14:36.343Z</time>
</trkpt>
<trkpt lat="-27.3035144" lon="152.7227562">
<ele>478.815</ele>
<time>2015-12-17T23:14:39.675Z</time>
</trkpt>
<trkpt lat="-27.3034729" lon="152.7223347">
<ele>471.688</ele>
<time>2015-12-17T23:14:42.549Z</time>
</trkpt>
<trkpt lat="-27.3034737" lon="152.7220043">
<ele>465.650</ele>
<time>2015-12-17T23:14:44.809Z</time>
</trkpt>
<trkpt lat="-27.3035315" lon="152.7218323">
<ele>461.095</ele>
<time>2015-12-17T23:14:46.104Z</time>
</trkpt>
<trkpt lat="-27.3036876" lon="152.7218067">
<ele>457.445</ele>
<time>2015-12-17T23:14:47.390Z</time>
</trkpt>
<trkpt lat="-27.3040242" lon="152.7217465">
<ele>454.735</ele>
<time>2015-12-17T23:14:50.131Z</time>
</trkpt>
<trkpt lat="-27.3042720" lon="152.7216347">
<ele>453.323</ele>
<time>2015-12-17T23:14:52.237Z</time>
</trkpt>
<trkpt lat="-27.3044905" lon="152.7214765">
<ele>452.762</ele>
<time>2015-12-17T23:14:54.333Z</time>
</trkpt>
<trkpt lat="-27.3048078" lon="152.7212297">
<ele>452.098</ele>
<time>2015-12-17T23:14:58.183Z</time>
</trkpt>
<trkpt lat="-27.3049555" lon="152.7209990">
<ele>450.699</ele>
<time>2015-12-17T23:15:01.657Z</time>
</trkpt>
<trkpt lat="-27.3049690" lon="152.7206014">
<ele>448.138</ele>
<time>2015-12-17T23:15:06.825Z</time>
</trkpt>
<trkpt lat="-27.3049448" lon="152.7201622">
<ele>443.458</ele>
<time>2015-12-17T23:15:11.979Z</time>
</trkpt>
<trkpt lat="-27.3048915" lon="152.7199248">
<ele>436.687</ele>
<time>2015-12-17T23:15:14.104Z</time>
</trkpt>
<trkpt lat="-27.3048799" lon="152.7197052">
<ele>429.196</ele>
<time>2015-12-17T23:15:15.746Z</time>
</trkpt>
<trkpt lat="-27.3048661" lon="152.7195405">
<ele>421.775</ele>
<time>2015-12-17T23:15:16.920Z</time>
</trkpt>
<trkpt lat="-27.3047332" lon="152.7193740">
<ele>415.182</ele>
<time>2015-12-17T23:15:18.512Z</time>
</trkpt>
<trkpt lat="-27.3045459" lon="152.7194250">
<ele>410.759</ele>
<time>2015-12-17T23:15:20.012Z</time>
</trkpt>
<trkpt lat="-27.3044009" lon="152.7193986">
<ele>408.209</ele>
<time>2015-12-17T23:15:21.131Z</time>
</trkpt>
<trkpt lat="-27.3043591" lon="152.7191361">
<ele>406.048</ele>
<time>2015-12-17T23:15:22.844Z</time>
</trkpt>
<trkpt lat="-27.3045753" lon="152.7190013">
<ele>402.417</ele>
<time>2015-12-17T23:15:24.621Z</time>
</trkpt>
<trkpt lat="-27.3047541" lon="152.7188688">
<ele>396.597</ele>
<time>2015-12-17T23:15:26.176Z</time>
</trkpt>
<trkpt lat="-27.3050171" lon="152.7186627">
<ele>390.813</ele>
<time>2015-12-17T23:15:28.929Z</time>
</trkpt>
<trkpt lat="-27.3051563" lon="152.7184351">
<ele>387.251</ele>
<time>2015-12-17T23:15:31.661Z</time>
</trkpt>
<trkpt lat="-27.3052365" lon="152.7181666">
<ele>385.125</ele>
<time>2015-12-17T23:15:34.405Z</time>
</trkpt>
<trkpt lat="-27.3051594" lon="152.7178093">
<ele>383.166</ele>
<time>2015-12-17T23:15:37.552Z</time>
</trkpt>
<trkpt lat="-27.3050441" lon="152.7173502">
<ele>381.060</ele>
<time>2015-12-17T23:15:40.944Z</time>
</trkpt>
<trkpt lat="-27.3049734" lon="152.7170618">
<ele>377.869</ele>
<time>2015-12-17T23:15:42.797Z</time>
</trkpt>
<trkpt lat="-27.3049175" lon="152.7167564">
<ele>373.364</ele>
<time>2015-12-17T23:15:44.672Z</time>
</trkpt>
<trkpt lat="-27.3050199" lon="152.7166178">
<ele>368.817</ele>
<time>2015-12-17T23:15:45.768Z</time>
</trkpt>
<trkpt lat="-27.3053188" lon="152.7165190">
<ele>363.665</ele>
<time>2015-12-17T23:15:47.971Z</time>
</trkpt>
<trkpt lat="-27.3055573" lon="152.7162863">
<ele>357.122</ele>
<time>2015-12-17T23:15:50.341Z</time>
</trkpt>
<trkpt lat="-27.3056750" lon="152.7158627">
<ele>350.985</ele>
<time>2015-12-17T23:15:53.327Z</time>
</trkpt>
<trkpt lat="-27.3057103" lon="152.7155518">
<ele>346.832</ele>
<time>2015-12-17T23:15:55.423Z</time>
</trkpt>
<trkpt lat="-27.3057145" lon="152.7150375">
<ele>344.061</ele>
<time>2015-12-17T23:15:58.999Z</time>
</trkpt>
<trkpt lat="-27.3057406" lon="152.7147078">
<ele>340.512</ele>
<time>2015-12-17T23:16:01.478Z</time>
</trkpt>
<trkpt lat="-27.3059235" lon="152.7144626">
<ele>335.233</ele>
<time>2015-12-17T23:16:03.960Z</time>
</trkpt>
<trkpt lat="-27.3062449" lon="152.7142193">
<ele>328.380</ele>
<time>2015-12-17T23:16:07.899Z</time>
</trkpt>
<trkpt lat="-27.3066493" lon="152.7141379">
<ele>319.788</ele>
<time>2015-12-17T23:16:13.266Z</time>
</trkpt>
<trkpt lat="-27.3070184" lon="152.7141775">
<ele>311.595</ele>
<time>2015-12-17T23:16:17.708Z</time>
</trkpt>
<trkpt lat="-27.3072576" lon="152.7141593">
<ele>306.804</ele>
<time>2015-12-17T23:16:20.254Z</time>
</trkpt>
<trkpt lat="-27.3075799" lon="152.7141100">
<ele>305.150</ele>
<time>2015-12-17T23:16:23.543Z</time>
</trkpt>
<trkpt lat="-27.3077267" lon="152.7139438">
<ele>303.540</ele>
<time>2015-12-17T23:16:25.315Z</time>
</trkpt>
<trkpt lat="-27.3078152" lon="152.7136957">
<ele>299.710</ele>
<time>2015-12-17T23:16:27.114Z</time>
</trkpt>
<trkpt lat="-27.3077856" lon="152.7135217">
<ele>294.526</ele>
<time>2015-12-17T23:16:28.312Z</time>
</trkpt>
<trkpt lat="-27.3076497" lon="152.7134286">
<ele>289.627</ele>
<time>2015-12-17T23:16:29.541Z</time>
</trkpt>
<trkpt lat="-27.3074947" lon="152.7134144">
<ele>285.379</ele>
<time>2015-12-17T23:16:30.828Z</time>
</trkpt>
<trkpt lat="-27.3072635" lon="152.7136586">
<ele>282.188</ele>
<time>2015-12-17T23:16:33.563Z</time>
</trkpt>
<trkpt lat="-27.3071096" lon="152.7137745">
<ele>280.244</ele>
<time>2015-12-17T23:16:35.169Z</time>
</trkpt>
<trkpt lat="-27.3069340" lon="152.7138185">
<ele>279.190</ele>
<time>2015-12-17T23:16:36.676Z</time>
</trkpt>
<trkpt lat="-27.3067289" lon="152.7137821">
<ele>278.575</ele>
<time>2015-12-17T23:16:38.335Z</time>
</trkpt>
<trkpt lat="-27.3064810" lon="152.7136020">
<ele>277.430</ele>
<time>2015-12-17T23:16:40.673Z</time>
</trkpt>
<trkpt lat="-27.3061575" lon="152.7133191">
<ele>275.055</ele>
<time>2015-12-17T23:16:44.201Z</time>
</trkpt>
<trkpt lat="-27.3059622" lon="152.7131638">
<ele>272.374</ele>
<time>2015-12-17T23:16:46.792Z</time>
</trkpt>
<trkpt lat="-27.3056224" lon="152.7131161">
<ele>269.565</ele>
<time>2015-12-17T23:16:50.775Z</time>
</trkpt>
<trkpt lat="-27.3052860" lon="152.7132931">
<ele>265.501</ele>
<time>2015-12-17T23:16:54.831Z</time>
</trkpt>
<trkpt lat="-27.3050537" lon="152.7133454">
<ele>260.912</ele>
<time>2015-12-17T23:16:57.474Z</time>
</trkpt>
<trkpt lat="-27.3047744" lon="152.7133436">
<ele>257.610</ele>
<time>2015-12-17T23:17:00.767Z</time>
</trkpt>
<trkpt lat="-27.3044519" lon="152.7132384">
<ele>255.794</ele>
<time>2015-12-17T23:17:04.236Z</time>
</trkpt>
<trkpt lat="-27.3042907" lon="152.7131741">
<ele>253.848</ele>
<time>2015-12-17T23:17:05.788Z</time>
</trkpt>
<trkpt lat="-27.3042107" lon="152.7128998">
<ele>250.830</ele>
<time>2015-12-17T23:17:08.063Z</time>
</trkpt>
<trkpt lat="-27.3042792" lon="152.7127268">
<ele>246.117</ele>
<time>2015-12-17T23:17:09.566Z</time>
</trkpt>
<trkpt lat="-27.3045597" lon="152.7126255">
<ele>239.432</ele>
<time>2015-12-17T23:17:12.133Z</time>
</trkpt>
<trkpt lat="-27.3047549" lon="152.7126572">
<ele>232.874</ele>
<time>2015-12-17T23:17:13.740Z</time>
</trkpt>
<trkpt lat="-27.3049135" lon="152.7125904">
<ele>228.832</ele>
<time>2015-12-17T23:17:15.025Z</time>
</trkpt>
<trkpt lat="-27.3050218" lon="152.7123556">
<ele>226.777</ele>
<time>2015-12-17T23:17:16.533Z</time>
</trkpt>
<trkpt lat="-27.3048554" lon="152.7120466">
<ele>225.514</ele>
<time>2015-12-17T23:17:18.543Z</time>
</trkpt>
<trkpt lat="-27.3047259" lon="152.7118407">
<ele>224.456</ele>
<time>2015-12-17T23:17:19.857Z</time>
</trkpt>
<trkpt lat="-27.3046788" lon="152.7114771">
<ele>222.973</ele>
<time>2015-12-17T23:17:21.774Z</time>
</trkpt>
<trkpt lat="-27.3047671" lon="152.7112206">
<ele>220.579</ele>
<time>2015-12-17T23:17:23.219Z</time>
</trkpt>
<trkpt lat="-27.3046667" lon="152.7108540">
<ele>217.201</ele>
<time>2015-12-17T23:17:25.305Z</time>
</trkpt>
<trkpt lat="-27.3045611" lon="152.7105208">
<ele>212.938</ele>
<time>2015-12-17T23:17:27.229Z</time>
</trkpt>
<trkpt lat="-27.3045238" lon="152.7099646">
<ele>208.383</ele>
<time>2015-12-17T23:17:30.160Z</time>
</trkpt>
<trkpt lat="-27.3045177" lon="152.7095735">
<ele>204.029</ele>
<time>2015-12-17T23:17:32.151Z</time>
</trkpt>
<trkpt lat="-27.3043352" lon="152.7090166">
<ele>200.038</ele>
<time>2015-12-17T23:17:35.112Z</time>
</trkpt>
<trkpt lat="-27.3041939" lon="152.7085192">
<ele>196.999</ele>
<time>2015-12-17T23:17:37.710Z</time>
</trkpt>
<trkpt lat="-27.3042006" lon="152.7081517">
<ele>195.086</ele>
<time>2015-12-17T23:17:39.565Z</time>
</trkpt>
<trkpt lat="-27.3043001" lon="152.7075658">
<ele>193.935</ele>
<time>2015-12-17T23:17:42.640Z</time>
</trkpt>
<trkpt lat="-27.3044963" lon="152.7070207">
<ele>193.865</ele>
<time>2015-12-17T23:17:45.541Z</time>
</trkpt>
<trkpt lat="-27.3046641" lon="152.7066541">
<ele>195.068</ele>
<time>2015-12-17T23:17:47.502Z</time>
</trkpt>
<trkpt lat="-27.3048523" lon="152.7060982">
<ele>196.657</ele>
<time>2015-12-17T23:17:50.309Z</time>
</trkpt>
<trkpt lat="-27.3049047" lon="152.7057200">
<ele>197.215</ele>
<time>2015-12-17T23:17:52.126Z</time>
</trkpt>
<trkpt lat="-27.3049515" lon="152.7053253">
<ele>196.263</ele>
<time>2015-12-17T23:17:54.027Z</time>
</trkpt>
<trkpt lat="-27.3049284" lon="152.7046953">
<ele>194.290</ele>
<time>2015-12-17T23:17:57.196Z</time>
</trkpt>
<trkpt lat="-27.3048720" lon="152.7042892">
<ele>191.977</ele>
<time>2015-12-17T23:17:59.413Z</time>
</trkpt>
<trkpt lat="-27.3049031" lon="152.7036790">
<ele>189.991</ele>
<time>2015-12-17T23:18:02.839Z</time>
</trkpt>
<trkpt lat="-27.3050186" lon="152.7032682">
<ele>188.765</ele>
<time>2015-12-17T23:18:05.300Z</time>
</trkpt>
<trkpt lat="-27.3051479" lon="152.7028787">
<ele>188.135</ele>
<time>2015-12-17T23:18:07.664Z</time>
</trkpt>
<trkpt lat="-27.3052343" lon="152.7023538">
<ele>187.882</ele>
<time>2015-12-17T23:18:10.666Z</time>
</trkpt>
<trkpt lat="-27.3052038" lon="152.7018286">
<ele>187.446</ele>
<time>2015-12-17T23:18:13.571Z</time>
</trkpt>
<trkpt lat="-27.3052348" lon="152.7014918">
<ele>186.116</ele>
<time>2015-12-17T23:18:15.370Z</time>
</trkpt>
<trkpt lat="-27.3053200" lon="152.7011563">
<ele>183.996</ele>
<time>2015-12-17T23:18:17.197Z</time>
</trkpt>
<trkpt lat="-27.3054438" lon="152.7008216">
<ele>181.766</ele>
<time>2015-12-17T23:18:19.038Z</time>
</trkpt>
<trkpt lat="-27.3055233" lon="152.7004823">
<ele>179.885</ele>
<time>2015-12-17T23:18:20.803Z</time>
</trkpt>
<trkpt lat="-27.3055442" lon="152.6999360">
<ele>178.590</ele>
<time>2015-12-17T23:18:23.518Z</time>
</trkpt>
<trkpt lat="-27.3054751" lon="152.6995879">
<ele>177.539</ele>
<time>2015-12-17T23:18:25.270Z</time>
</trkpt>
<trkpt lat="-27.3051482" lon="152.6990866">
<ele>176.241</ele>
<time>2015-12-17T23:18:28.259Z</time>
</trkpt>
<trkpt lat="-27.3049949" lon="152.6987092">
<ele>174.691</ele>
<time>2015-12-17T23:18:30.227Z</time>
</trkpt>
<trkpt lat="-27.3049152" lon="152.6981238">
<ele>173.069</ele>
<time>2015-12-17T23:18:33.296Z</time>
</trkpt>
<trkpt lat="-27.3050700" lon="152.6975460">
<ele>171.483</ele>
<time>2015-12-17T23:18:37.104Z</time>
</trkpt>
<trkpt lat="-27.3053863" lon="152.6970113">
<ele>169.964</ele>
<time>2015-12-17T23:18:41.532Z</time>
</trkpt>
<trkpt lat="-27.3057673" lon="152.6965485">
<ele>167.895</ele>
<time>2015-12-17T23:18:45.272Z</time>
</trkpt>
<trkpt lat="-27.3060583" lon="152.6961524">
<ele>165.056</ele>
<time>2015-12-17T23:18:48.070Z</time>
</trkpt>
<trkpt lat="-27.3061580" lon="152.6958947">
<ele>162.484</ele>
<time>2015-12-17T23:18:49.607Z</time>
</trkpt>
<trkpt lat="-27.3062258" lon="152.6954974">
<ele>161.031</ele>
<time>2015-12-17T23:18:51.955Z</time>
</trkpt>
<trkpt lat="-27.3059048" lon="152.6950739">
<ele>160.313</ele>
<time>2015-12-17T23:18:55.522Z</time>
</trkpt>
<trkpt lat="-27.3056349" lon="152.6948759">
<ele>159.806</ele>
<time>2015-12-17T23:18:58.015Z</time>
</trkpt>
<trkpt lat="-27.3051924" lon="152.6945850">
<ele>159.544</ele>
<time>2015-12-17T23:19:02.378Z</time>
</trkpt>
<trkpt lat="-27.3049201" lon="152.6944046">
<ele>159.630</ele>
<time>2015-12-17T23:19:04.785Z</time>
</trkpt>
<trkpt lat="-27.3046589" lon="152.6942129">
<ele>159.847</ele>
<time>2015-12-17T23:19:06.930Z</time>
</trkpt>
<trkpt lat="-27.3044643" lon="152.6938124">
<ele>159.830</ele>
<time>2015-12-17T23:19:09.865Z</time>
</trkpt>
<trkpt lat="-27.3045415" lon="152.6933375">
<ele>159.399</ele>
<time>2015-12-17T23:19:13.565Z</time>
</trkpt>
<trkpt lat="-27.3045428" lon="152.6930641">
<ele>158.792</ele>
<time>2015-12-17T23:19:15.634Z</time>
</trkpt>
<trkpt lat="-27.3044379" lon="152.6927120">
<ele>158.394</ele>
<time>2015-12-17T23:19:18.025Z</time>
</trkpt>
<trkpt lat="-27.3041738" lon="152.6924900">
<ele>158.448</ele>
<time>2015-12-17T23:19:20.128Z</time>
</trkpt>
<trkpt lat="-27.3038615" lon="152.6921035">
<ele>158.902</ele>
<time>2015-12-17T23:19:22.927Z</time>
</trkpt>
<trkpt lat="-27.3036928" lon="152.6918978">
<ele>159.389</ele>
<time>2015-12-17T23:19:24.413Z</time>
</trkpt>
<trkpt lat="-27.3035681" lon="152.6915497">
<ele>159.762</ele>
<time>2015-12-17T23:19:26.476Z</time>
</trkpt>
<trkpt lat="-27.3036805" lon="152.6912932">
<ele>160.194</ele>
<time>2015-12-17T23:19:28.075Z</time>
</trkpt>
<trkpt lat="-27.3039551" lon="152.6910429">
<ele>160.581</ele>
<time>2015-12-17T23:19:30.249Z</time>
</trkpt>
<trkpt lat="-27.3043361" lon="152.6907323">
<ele>160.382</ele>
<time>2015-12-17T23:19:32.980Z</time>
</trkpt>
<trkpt lat="-27.3048234" lon="152.6905594">
<ele>159.453</ele>
<time>2015-12-17T23:19:35.852Z</time>
</trkpt>
<trkpt lat="-27.3051294" lon="152.6904609">
<ele>158.385</ele>
<time>2015-12-17T23:19:37.618Z</time>
</trkpt>
<trkpt lat="-27.3054137" lon="152.6903278">
<ele>157.551</ele>
<time>2015-12-17T23:19:39.323Z</time>
</trkpt>
<trkpt lat="-27.3057625" lon="152.6899712">
<ele>156.545</ele>
<time>2015-12-17T23:19:41.908Z</time>
</trkpt>
<trkpt lat="-27.3059430" lon="152.6896373">
<ele>155.047</ele>
<time>2015-12-17T23:19:43.764Z</time>
</trkpt>
<trkpt lat="-27.3061658" lon="152.6891171">
<ele>153.080</ele>
<time>2015-12-17T23:19:46.462Z</time>
</trkpt>
<trkpt lat="-27.3063036" lon="152.6887326">
<ele>150.653</ele>
<time>2015-12-17T23:19:48.332Z</time>
</trkpt>
<trkpt lat="-27.3064171" lon="152.6881280">
<ele>148.221</ele>
<time>2015-12-17T23:19:51.109Z</time>
</trkpt>
<trkpt lat="-27.3063979" lon="152.6875031">
<ele>146.892</ele>
<time>2015-12-17T23:19:53.992Z</time>
</trkpt>
<trkpt lat="-27.3062414" lon="152.6868951">
<ele>147.382</ele>
<time>2015-12-17T23:19:57.040Z</time>
</trkpt>
<trkpt lat="-27.3060627" lon="152.6865129">
<ele>149.070</ele>
<time>2015-12-17T23:19:59.356Z</time>
</trkpt>
<trkpt lat="-27.3058771" lon="152.6861176">
<ele>150.468</ele>
<time>2015-12-17T23:20:02.047Z</time>
</trkpt>
<trkpt lat="-27.3055952" lon="152.6855447">
<ele>150.608</ele>
<time>2015-12-17T23:20:06.574Z</time>
</trkpt>
<trkpt lat="-27.3053196" lon="152.6849845">
<ele>149.794</ele>
<time>2015-12-17T23:20:10.711Z</time>
</trkpt>
<trkpt lat="-27.3051576" lon="152.6846336">
<ele>148.804</ele>
<time>2015-12-17T23:20:13.289Z</time>
</trkpt>
<trkpt lat="-27.3050064" lon="152.6843137">
<ele>148.090</ele>
<time>2015-12-17T23:20:15.697Z</time>
</trkpt>
<trkpt lat="-27.3048241" lon="152.6838723">
<ele>147.912</ele>
<time>2015-12-17T23:20:18.966Z</time>
</trkpt>
<trkpt lat="-27.3047904" lon="152.6836064">
<ele>148.534</ele>
<time>2015-12-17T23:20:20.815Z</time>
</trkpt>
<trkpt lat="-27.3049394" lon="152.6831642">
<ele>149.643</ele>
<time>2015-12-17T23:20:23.962Z</time>
</trkpt>
<trkpt lat="-27.3053129" lon="152.6829265">
<ele>149.974</ele>
<time>2015-12-17T23:20:26.815Z</time>
</trkpt>
<trkpt lat="-27.3055875" lon="152.6829477">
<ele>148.225</ele>
<time>2015-12-17T23:20:28.542Z</time>
</trkpt>
<trkpt lat="-27.3059810" lon="152.6830191">
<ele>145.040</ele>
<time>2015-12-17T23:20:31.070Z</time>
</trkpt>
<trkpt lat="-27.3062395" lon="152.6830021">
<ele>142.481</ele>
<time>2015-12-17T23:20:32.857Z</time>
</trkpt>
<trkpt lat="-27.3064580" lon="152.6828354">
<ele>141.337</ele>
<time>2015-12-17T23:20:34.814Z</time>
</trkpt>
<trkpt lat="-27.3066347" lon="152.6826244">
<ele>140.528</ele>
<time>2015-12-17T23:20:36.812Z</time>
</trkpt>
<trkpt lat="-27.3067686" lon="152.6822118">
<ele>139.249</ele>
<time>2015-12-17T23:20:39.875Z</time>
</trkpt>
<trkpt lat="-27.3067719" lon="152.6818594">
<ele>137.978</ele>
<time>2015-12-17T23:20:42.251Z</time>
</trkpt>
<trkpt lat="-27.3067466" lon="152.6814846">
<ele>137.479</ele>
<time>2015-12-17T23:20:44.540Z</time>
</trkpt>
<trkpt lat="-27.3067645" lon="152.6809530">
<ele>137.878</ele>
<time>2015-12-17T23:20:47.406Z</time>
</trkpt>
<trkpt lat="-27.3068745" lon="152.6806757">
<ele>138.589</ele>
<time>2015-12-17T23:20:48.971Z</time>
</trkpt>
<trkpt lat="-27.3070627" lon="152.6804742">
<ele>138.808</ele>
<time>2015-12-17T23:20:50.419Z</time>
</trkpt>
<trkpt lat="-27.3072521" lon="152.6802814">
<ele>138.316</ele>
<time>2015-12-17T23:20:51.838Z</time>
</trkpt>
<trkpt lat="-27.3073619" lon="152.6800283">
<ele>137.402</ele>
<time>2015-12-17T23:20:53.226Z</time>
</trkpt>
<trkpt lat="-27.3073791" lon="152.6795848">
<ele>136.517</ele>
<time>2015-12-17T23:20:55.420Z</time>
</trkpt>
<trkpt lat="-27.3073259" lon="152.6792562">
<ele>136.690</ele>
<time>2015-12-17T23:20:57.071Z</time>
</trkpt>
<trkpt lat="-27.3072706" lon="152.6789022">
<ele>138.375</ele>
<time>2015-12-17T23:20:58.860Z</time>
</trkpt>
<trkpt lat="-27.3071736" lon="152.6783054">
<ele>140.388</ele>
<time>2015-12-17T23:21:01.979Z</time>
</trkpt>
<trkpt lat="-27.3071085" lon="152.6779087">
<ele>141.505</ele>
<time>2015-12-17T23:21:04.195Z</time>
</trkpt>
<trkpt lat="-27.3070501" lon="152.6775081">
<ele>141.785</ele>
<time>2015-12-17T23:21:06.706Z</time>
</trkpt>
<trkpt lat="-27.3069675" lon="152.6769193">
<ele>141.703</ele>
<time>2015-12-17T23:21:10.369Z</time>
</trkpt>
<trkpt lat="-27.3069074" lon="152.6765228">
<ele>141.517</ele>
<time>2015-12-17T23:21:12.521Z</time>
</trkpt>
<trkpt lat="-27.3068214" lon="152.6759327">
<ele>141.258</ele>
<time>2015-12-17T23:21:15.425Z</time>
</trkpt>
<trkpt lat="-27.3067139" lon="152.6754231">
<ele>140.903</ele>
<time>2015-12-17T23:21:17.904Z</time>
</trkpt>
<trkpt lat="-27.3064546" lon="152.6750766">
<ele>140.006</ele>
<time>2015-12-17T23:21:20.066Z</time>
</trkpt>
<trkpt lat="-27.3060372" lon="152.6749222">
<ele>138.037</ele>
<time>2015-12-17T23:21:22.399Z</time>
</trkpt>
<trkpt lat="-27.3054896" lon="152.6748797">
<ele>135.614</ele>
<time>2015-12-17T23:21:25.235Z</time>
</trkpt>
<trkpt lat="-27.3051193" lon="152.6748609">
<ele>134.154</ele>
<time>2015-12-17T23:21:27.151Z</time>
</trkpt>
<trkpt lat="-27.3047506" lon="152.6748555">
<ele>134.876</ele>
<time>2015-12-17T23:21:29.084Z</time>
</trkpt>
<trkpt lat="-27.3041973" lon="152.6748098">
<ele>137.582</ele>
<time>2015-12-17T23:21:32.035Z</time>
</trkpt>
<trkpt lat="-27.3038361" lon="152.6747251">
<ele>140.409</ele>
<time>2015-12-17T23:21:34.075Z</time>
</trkpt>
<trkpt lat="-27.3034645" lon="152.6745440">
<ele>141.791</ele>
<time>2015-12-17T23:21:36.494Z</time>
</trkpt>
<trkpt lat="-27.3030981" lon="152.6743770">
<ele>141.573</ele>
<time>2015-12-17T23:21:38.983Z</time>
</trkpt>
<trkpt lat="-27.3027377" lon="152.6742625">
<ele>140.050</ele>
<time>2015-12-17T23:21:41.285Z</time>
</trkpt>
<trkpt lat="-27.3021648" lon="152.6742372">
<ele>137.873</ele>
<time>2015-12-17T23:21:44.489Z</time>
</trkpt>
<trkpt lat="-27.3018045" lon="152.6742851">
<ele>135.950</ele>
<time>2015-12-17T23:21:46.388Z</time>
</trkpt>
<trkpt lat="-27.3014719" lon="152.6743508">
<ele>134.649</ele>
<time>2015-12-17T23:21:48.127Z</time>
</trkpt>
<trkpt lat="-27.3010089" lon="152.6742946">
<ele>133.694</ele>
<time>2015-12-17T23:21:50.611Z</time>
</trkpt>
<trkpt lat="-27.3007307" lon="152.6741303">
<ele>132.500</ele>
<time>2015-12-17T23:21:52.368Z</time>
</trkpt>
<trkpt lat="-27.3003332" lon="152.6737161">
<ele>130.915</ele>
<time>2015-12-17T23:21:55.573Z</time>
</trkpt>
<trkpt lat="-27.2998938" lon="152.6732682">
<ele>130.135</ele>
<time>2015-12-17T23:21:59.422Z</time>
</trkpt>
<trkpt lat="-27.2996214" lon="152.6729775">
<ele>131.050</ele>
<time>2015-12-17T23:22:01.888Z</time>
</trkpt>
<trkpt lat="-27.2992132" lon="152.6725537">
<ele>132.626</ele>
<time>2015-12-17T23:22:05.488Z</time>
</trkpt>
<trkpt lat="-27.2988497" lon="152.6721591">
<ele>133.442</ele>
<time>2015-12-17T23:22:08.550Z</time>
</trkpt>
<trkpt lat="-27.2986975" lon="152.6718675">
<ele>132.905</ele>
<time>2015-12-17T23:22:10.229Z</time>
</trkpt>
<trkpt lat="-27.2986400" lon="152.6713523">
<ele>131.024</ele>
<time>2015-12-17T23:22:12.731Z</time>
</trkpt>
<trkpt lat="-27.2987727" lon="152.6708835">
<ele>128.514</ele>
<time>2015-12-17T23:22:15.016Z</time>
</trkpt>
<trkpt lat="-27.2988970" lon="152.6704015">
<ele>126.194</ele>
<time>2015-12-17T23:22:17.318Z</time>
</trkpt>
<trkpt lat="-27.2988719" lon="152.6700273">
<ele>124.289</ele>
<time>2015-12-17T23:22:19.032Z</time>
</trkpt>
<trkpt lat="-27.2987757" lon="152.6696297">
<ele>122.879</ele>
<time>2015-12-17T23:22:20.961Z</time>
</trkpt>
<trkpt lat="-27.2986137" lon="152.6690370">
<ele>122.425</ele>
<time>2015-12-17T23:22:23.960Z</time>
</trkpt>
<trkpt lat="-27.2985043" lon="152.6686377">
<ele>123.216</ele>
<time>2015-12-17T23:22:26.063Z</time>
</trkpt>
<trkpt lat="-27.2983492" lon="152.6679999">
<ele>124.676</ele>
<time>2015-12-17T23:22:29.551Z</time>
</trkpt>
<trkpt lat="-27.2982650" lon="152.6675746">
<ele>125.385</ele>
<time>2015-12-17T23:22:31.960Z</time>
</trkpt>
<trkpt lat="-27.2981956" lon="152.6669557">
<ele>124.670</ele>
<time>2015-12-17T23:22:35.436Z</time>
</trkpt>
<trkpt lat="-27.2980818" lon="152.6663757">
<ele>123.363</ele>
<time>2015-12-17T23:22:38.502Z</time>
</trkpt>
<trkpt lat="-27.2979298" lon="152.6660388">
<ele>122.173</ele>
<time>2015-12-17T23:22:40.338Z</time>
</trkpt>
<trkpt lat="-27.2977853" lon="152.6656977">
<ele>121.075</ele>
<time>2015-12-17T23:22:42.102Z</time>
</trkpt>
<trkpt lat="-27.2977089" lon="152.6653485">
<ele>120.249</ele>
<time>2015-12-17T23:22:43.758Z</time>
</trkpt>
<trkpt lat="-27.2977713" lon="152.6649973">
<ele>119.886</ele>
<time>2015-12-17T23:22:45.427Z</time>
</trkpt>
<trkpt lat="-27.2980081" lon="152.6645114">
<ele>119.847</ele>
<time>2015-12-17T23:22:48.201Z</time>
</trkpt>
<trkpt lat="-27.2982055" lon="152.6639507">
<ele>120.021</ele>
<time>2015-12-17T23:22:51.416Z</time>
</trkpt>
<trkpt lat="-27.2982548" lon="152.6635274">
<ele>120.333</ele>
<time>2015-12-17T23:22:53.748Z</time>
</trkpt>
<trkpt lat="-27.2983023" lon="152.6628723">
<ele>120.504</ele>
<time>2015-12-17T23:22:57.435Z</time>
</trkpt>
<trkpt lat="-27.2983827" lon="152.6624638">
<ele>120.269</ele>
<time>2015-12-17T23:22:59.732Z</time>
</trkpt>
<trkpt lat="-27.2985174" lon="152.6619419">
<ele>119.593</ele>
<time>2015-12-17T23:23:02.587Z</time>
</trkpt>
<trkpt lat="-27.2984982" lon="152.6613937">
<ele>118.389</ele>
<time>2015-12-17T23:23:05.603Z</time>
</trkpt>
<trkpt lat="-27.2984482" lon="152.6608862">
<ele>116.668</ele>
<time>2015-12-17T23:23:08.447Z</time>
</trkpt>
<trkpt lat="-27.2985313" lon="152.6605414">
<ele>115.005</ele>
<time>2015-12-17T23:23:10.328Z</time>
</trkpt>
<trkpt lat="-27.2987267" lon="152.6602462">
<ele>114.252</ele>
<time>2015-12-17T23:23:12.220Z</time>
</trkpt>
<trkpt lat="-27.2990702" lon="152.6597773">
<ele>115.083</ele>
<time>2015-12-17T23:23:15.297Z</time>
</trkpt>
<trkpt lat="-27.2992666" lon="152.6594856">
<ele>117.235</ele>
<time>2015-12-17T23:23:17.262Z</time>
</trkpt>
<trkpt lat="-27.2994091" lon="152.6591841">
<ele>119.346</ele>
<time>2015-12-17T23:23:19.159Z</time>
</trkpt>
<trkpt lat="-27.2995087" lon="152.6586598">
<ele>120.359</ele>
<time>2015-12-17T23:23:22.480Z</time>
</trkpt>
<trkpt lat="-27.2994554" lon="152.6580577">
<ele>120.401</ele>
<time>2015-12-17T23:23:26.387Z</time>
</trkpt>
<trkpt lat="-27.2994961" lon="152.6576539">
<ele>119.944</ele>
<time>2015-12-17T23:23:28.958Z</time>
</trkpt>
<trkpt lat="-27.2995520" lon="152.6572736">
<ele>119.108</ele>
<time>2015-12-17T23:23:31.385Z</time>
</trkpt>
<trkpt lat="-27.2996321" lon="152.6567663">
<ele>117.682</ele>
<time>2015-12-17T23:23:34.535Z</time>
</trkpt>
<trkpt lat="-27.2995707" lon="152.6563182">
<ele>115.612</ele>
<time>2015-12-17T23:23:37.234Z</time>
</trkpt>
<trkpt lat="-27.2994054" lon="152.6560784">
<ele>112.768</ele>
<time>2015-12-17T23:23:39.010Z</time>
</trkpt>
<trkpt lat="-27.2990447" lon="152.6558124">
<ele>109.527</ele>
<time>2015-12-17T23:23:41.638Z</time>
</trkpt>
<trkpt lat="-27.2987636" lon="152.6554455">
<ele>107.108</ele>
<time>2015-12-17T23:23:44.085Z</time>
</trkpt>
<trkpt lat="-27.2986954" lon="152.6551322">
<ele>105.995</ele>
<time>2015-12-17T23:23:45.620Z</time>
</trkpt>
<trkpt lat="-27.2987037" lon="152.6547997">
<ele>105.538</ele>
<time>2015-12-17T23:23:47.184Z</time>
</trkpt>
<trkpt lat="-27.2986517" lon="152.6543054">
<ele>105.383</ele>
<time>2015-12-17T23:23:49.541Z</time>
</trkpt>
<trkpt lat="-27.2985323" lon="152.6539876">
<ele>105.495</ele>
<time>2015-12-17T23:23:51.254Z</time>
</trkpt>
<trkpt lat="-27.2983295" lon="152.6536749">
<ele>105.750</ele>
<time>2015-12-17T23:23:53.208Z</time>
</trkpt>
<trkpt lat="-27.2979535" lon="152.6532293">
<ele>106.268</ele>
<time>2015-12-17T23:23:56.318Z</time>
</trkpt>
<trkpt lat="-27.2976615" lon="152.6529617">
<ele>107.715</ele>
<time>2015-12-17T23:23:58.295Z</time>
</trkpt>
<trkpt lat="-27.2973611" lon="152.6527134">
<ele>110.456</ele>
<time>2015-12-17T23:24:00.163Z</time>
</trkpt>
<trkpt lat="-27.2970649" lon="152.6524844">
<ele>113.836</ele>
<time>2015-12-17T23:24:01.909Z</time>
</trkpt>
<trkpt lat="-27.2966744" lon="152.6521006">
<ele>116.667</ele>
<time>2015-12-17T23:24:04.450Z</time>
</trkpt>
<trkpt lat="-27.2964324" lon="152.6515951">
<ele>117.522</ele>
<time>2015-12-17T23:24:06.999Z</time>
</trkpt>
<trkpt lat="-27.2962894" lon="152.6509357">
<ele>115.604</ele>
<time>2015-12-17T23:24:10.054Z</time>
</trkpt>
<trkpt lat="-27.2961998" lon="152.6504816">
<ele>112.154</ele>
<time>2015-12-17T23:24:12.136Z</time>
</trkpt>
<trkpt lat="-27.2961075" lon="152.6500385">
<ele>109.257</ele>
<time>2015-12-17T23:24:14.181Z</time>
</trkpt>
<trkpt lat="-27.2959780" lon="152.6493770">
<ele>107.733</ele>
<time>2015-12-17T23:24:17.252Z</time>
</trkpt>
<trkpt lat="-27.2959023" lon="152.6487301">
<ele>107.066</ele>
<time>2015-12-17T23:24:20.124Z</time>
</trkpt>
<trkpt lat="-27.2959735" lon="152.6480607">
<ele>106.180</ele>
<time>2015-12-17T23:24:23.010Z</time>
</trkpt>
<trkpt lat="-27.2961292" lon="152.6474112">
<ele>104.707</ele>
<time>2015-12-17T23:24:25.949Z</time>
</trkpt>
<trkpt lat="-27.2964136" lon="152.6468517">
<ele>103.410</ele>
<time>2015-12-17T23:24:29.062Z</time>
</trkpt>
<trkpt lat="-27.2968540" lon="152.6463500">
<ele>102.707</ele>
<time>2015-12-17T23:24:32.637Z</time>
</trkpt>
<trkpt lat="-27.2972767" lon="152.6458409">
<ele>102.292</ele>
<time>2015-12-17T23:24:35.958Z</time>
</trkpt>
<trkpt lat="-27.2975409" lon="152.6455145">
<ele>101.962</ele>
<time>2015-12-17T23:24:37.910Z</time>
</trkpt>
<trkpt lat="-27.2978180" lon="152.6450185">
<ele>101.271</ele>
<time>2015-12-17T23:24:40.521Z</time>
</trkpt>
<trkpt lat="-27.2979191" lon="152.6446544">
<ele>99.837</ele>
<time>2015-12-17T23:24:42.240Z</time>
</trkpt>
<trkpt lat="-27.2979307" lon="152.6440669">
<ele>98.225</ele>
<time>2015-12-17T23:24:44.995Z</time>
</trkpt>
<trkpt lat="-27.2978743" lon="152.6436208">
<ele>97.556</ele>
<time>2015-12-17T23:24:47.089Z</time>
</trkpt>
<trkpt lat="-27.2977917" lon="152.6429400">
<ele>98.313</ele>
<time>2015-12-17T23:24:50.135Z</time>
</trkpt>
<trkpt lat="-27.2977324" lon="152.6423079">
<ele>99.800</ele>
<time>2015-12-17T23:24:52.891Z</time>
</trkpt>
<trkpt lat="-27.2977775" lon="152.6418971">
<ele>100.551</ele>
<time>2015-12-17T23:24:54.712Z</time>
</trkpt>
<trkpt lat="-27.2978917" lon="152.6414921">
<ele>99.977</ele>
<time>2015-12-17T23:24:56.591Z</time>
</trkpt>
<trkpt lat="-27.2980802" lon="152.6410906">
<ele>98.899</ele>
<time>2015-12-17T23:24:58.611Z</time>
</trkpt>
<trkpt lat="-27.2983996" lon="152.6404850">
<ele>98.191</ele>
<time>2015-12-17T23:25:01.692Z</time>
</trkpt>
<trkpt lat="-27.2985952" lon="152.6400921">
<ele>97.878</ele>
<time>2015-12-17T23:25:03.647Z</time>
</trkpt>
<trkpt lat="-27.2988364" lon="152.6394662">
<ele>97.659</ele>
<time>2015-12-17T23:25:06.680Z</time>
</trkpt>
<trkpt lat="-27.2989639" lon="152.6390428">
<ele>97.187</ele>
<time>2015-12-17T23:25:08.730Z</time>
</trkpt>
<trkpt lat="-27.2990801" lon="152.6383705">
<ele>96.450</ele>
<time>2015-12-17T23:25:11.872Z</time>
</trkpt>
<trkpt lat="-27.2991382" lon="152.6379112">
<ele>95.833</ele>
<time>2015-12-17T23:25:13.989Z</time>
</trkpt>
<trkpt lat="-27.2991745" lon="152.6372549">
<ele>95.492</ele>
<time>2015-12-17T23:25:16.955Z</time>
</trkpt>
<trkpt lat="-27.2991376" lon="152.6366146">
<ele>95.179</ele>
<time>2015-12-17T23:25:19.944Z</time>
</trkpt>
<trkpt lat="-27.2989750" lon="152.6359975">
<ele>94.523</ele>
<time>2015-12-17T23:25:23.107Z</time>
</trkpt>
<trkpt lat="-27.2988058" lon="152.6356083">
<ele>93.501</ele>
<time>2015-12-17T23:25:25.246Z</time>
</trkpt>
<trkpt lat="-27.2985903" lon="152.6352469">
<ele>92.756</ele>
<time>2015-12-17T23:25:27.387Z</time>
</trkpt>
<trkpt lat="-27.2983623" lon="152.6348967">
<ele>92.863</ele>
<time>2015-12-17T23:25:29.497Z</time>
</trkpt>
<trkpt lat="-27.2981486" lon="152.6345708">
<ele>93.536</ele>
<time>2015-12-17T23:25:31.383Z</time>
</trkpt>
<trkpt lat="-27.2978650" lon="152.6340664">
<ele>93.759</ele>
<time>2015-12-17T23:25:34.053Z</time>
</trkpt>
<trkpt lat="-27.2977204" lon="152.6334933">
<ele>92.743</ele>
<time>2015-12-17T23:25:36.592Z</time>
</trkpt>
<trkpt lat="-27.2977207" lon="152.6330850">
<ele>91.018</ele>
<time>2015-12-17T23:25:38.287Z</time>
</trkpt>
<trkpt lat="-27.2978091" lon="152.6326672">
<ele>89.771</ele>
<time>2015-12-17T23:25:40.079Z</time>
</trkpt>
<trkpt lat="-27.2979972" lon="152.6320304">
<ele>89.422</ele>
<time>2015-12-17T23:25:42.917Z</time>
</trkpt>
<trkpt lat="-27.2982110" lon="152.6313582">
<ele>89.910</ele>
<time>2015-12-17T23:25:46.050Z</time>
</trkpt>
<trkpt lat="-27.2984209" lon="152.6306719">
<ele>90.972</ele>
<time>2015-12-17T23:25:49.268Z</time>
</trkpt>
<trkpt lat="-27.2986378" lon="152.6300146">
<ele>91.912</ele>
<time>2015-12-17T23:25:52.270Z</time>
</trkpt>
<trkpt lat="-27.2987885" lon="152.6295938">
<ele>91.926</ele>
<time>2015-12-17T23:25:54.183Z</time>
</trkpt>
<trkpt lat="-27.2989695" lon="152.6291930">
<ele>90.863</ele>
<time>2015-12-17T23:25:56.076Z</time>
</trkpt>
<trkpt lat="-27.2993412" lon="152.6286746">
<ele>89.325</ele>
<time>2015-12-17T23:25:58.939Z</time>
</trkpt>
<trkpt lat="-27.2996544" lon="152.6283498">
<ele>88.088</ele>
<time>2015-12-17T23:26:01.053Z</time>
</trkpt>
<trkpt lat="-27.3001593" lon="152.6279361">
<ele>87.620</ele>
<time>2015-12-17T23:26:04.203Z</time>
</trkpt>
<trkpt lat="-27.3004924" lon="152.6276468">
<ele>87.946</ele>
<time>2015-12-17T23:26:06.395Z</time>
</trkpt>
<trkpt lat="-27.3009802" lon="152.6272512">
<ele>88.758</ele>
<time>2015-12-17T23:26:09.528Z</time>
</trkpt>
<trkpt lat="-27.3014747" lon="152.6268559">
<ele>90.209</ele>
<time>2015-12-17T23:26:12.619Z</time>
</trkpt>
<trkpt lat="-27.3017863" lon="152.6265952">
<ele>92.713</ele>
<time>2015-12-17T23:26:14.558Z</time>
</trkpt>
<trkpt lat="-27.3020880" lon="152.6263430">
<ele>95.610</ele>
<time>2015-12-17T23:26:16.408Z</time>
</trkpt>
<trkpt lat="-27.3025838" lon="152.6260263">
<ele>97.034</ele>
<time>2015-12-17T23:26:19.216Z</time>
</trkpt>
<trkpt lat="-27.3031318" lon="152.6258094">
<ele>96.267</ele>
<time>2015-12-17T23:26:22.133Z</time>
</trkpt>
<trkpt lat="-27.3035249" lon="152.6257433">
<ele>94.557</ele>
<time>2015-12-17T23:26:24.155Z</time>
</trkpt>
<trkpt lat="-27.3039390" lon="152.6256754">
<ele>93.164</ele>
<time>2015-12-17T23:26:26.252Z</time>
</trkpt>
<trkpt lat="-27.3043417" lon="152.6256151">
<ele>92.431</ele>
<time>2015-12-17T23:26:28.258Z</time>
</trkpt>
<trkpt lat="-27.3049217" lon="152.6255015">
<ele>92.805</ele>
<time>2015-12-17T23:26:31.094Z</time>
</trkpt>
<trkpt lat="-27.3052931" lon="152.6253792">
<ele>94.511</ele>
<time>2015-12-17T23:26:32.943Z</time>
</trkpt>
<trkpt lat="-27.3056608" lon="152.6252314">
<ele>96.995</ele>
<time>2015-12-17T23:26:34.824Z</time>
</trkpt>
<trkpt lat="-27.3062059" lon="152.6249236">
<ele>99.533</ele>
<time>2015-12-17T23:26:37.819Z</time>
</trkpt>
<trkpt lat="-27.3067484" lon="152.6245494">
<ele>101.805</ele>
<time>2015-12-17T23:26:40.999Z</time>
</trkpt>
<trkpt lat="-27.3072858" lon="152.6241807">
<ele>103.449</ele>
<time>2015-12-17T23:26:44.110Z</time>
</trkpt>
<trkpt lat="-27.3077470" lon="152.6238055">
<ele>104.106</ele>
<time>2015-12-17T23:26:46.907Z</time>
</trkpt>
<trkpt lat="-27.3080714" lon="152.6235390">
<ele>103.538</ele>
<time>2015-12-17T23:26:48.877Z</time>
</trkpt>
<trkpt lat="-27.3083733" lon="152.6232297">
<ele>101.456</ele>
<time>2015-12-17T23:26:50.911Z</time>
</trkpt>
<trkpt lat="-27.3087753" lon="152.6226976">
<ele>98.097</ele>
<time>2015-12-17T23:26:54.108Z</time>
</trkpt>
<trkpt lat="-27.3090810" lon="152.6221089">
<ele>94.166</ele>
<time>2015-12-17T23:26:57.578Z</time>
</trkpt>
<trkpt lat="-27.3092710" lon="152.6217072">
<ele>89.651</ele>
<time>2015-12-17T23:27:00.188Z</time>
</trkpt>
<trkpt lat="-27.3096292" lon="152.6211644">
<ele>84.408</ele>
<time>2015-12-17T23:27:05.578Z</time>
</trkpt>
<trkpt lat="-27.3098769" lon="152.6208821">
<ele>79.139</ele>
<time>2015-12-17T23:27:12.089Z</time>
</trkpt>
<trkpt lat="-27.3101364" lon="152.6206565">
<ele>74.237</ele>
<time>2015-12-17T23:27:15.248Z</time>
</trkpt>
<trkpt lat="-27.3103792" lon="152.6204249">
<ele>69.769</ele>
<time>2015-12-17T23:27:17.200Z</time>
</trkpt>
<trkpt lat="-27.3106567" lon="152.6200631">
<ele>65.990</ele>
<time>2015-12-17T23:27:19.491Z</time>
</trkpt>
<trkpt lat="-27.3108261" lon="152.6197940">
<ele>62.855</ele>
<time>2015-12-17T23:27:21.011Z</time>
</trkpt>
<trkpt lat="-27.3108767" lon="152.6197056">
<ele>59.766</ele>
<time>2015-12-17T23:27:21.496Z</time>
</trkpt>
<trkpt lat="-27.3108647" lon="152.6195434">
<ele>56.412</ele>
<time>2015-12-17T23:27:22.226Z</time>
</trkpt>
<trkpt lat="-27.3107335" lon="152.6194215">
<ele>53.485</ele>
<time>2015-12-17T23:27:23.041Z</time>
</trkpt>
<trkpt lat="-27.3104841" lon="152.6192662">
<ele>52.070</ele>
<time>2015-12-17T23:27:24.384Z</time>
</trkpt>
<trkpt lat="-27.3101301" lon="152.6190799">
<ele>52.769</ele>
<time>2015-12-17T23:27:26.150Z</time>
</trkpt>
<trkpt lat="-27.3097098" lon="152.6189010">
<ele>55.762</ele>
<time>2015-12-17T23:27:28.195Z</time>
</trkpt>
<trkpt lat="-27.3089882" lon="152.6186969">
<ele>60.402</ele>
<time>2015-12-17T23:27:31.574Z</time>
</trkpt>
<trkpt lat="-27.3085224" lon="152.6186477">
<ele>65.372</ele>
<time>2015-12-17T23:27:33.597Z</time>
</trkpt>
<trkpt lat="-27.3078779" lon="152.6185530">
<ele>69.326</ele>
<time>2015-12-17T23:27:36.270Z</time>
</trkpt>
<trkpt lat="-27.3074704" lon="152.6184513">
<ele>71.320</ele>
<time>2015-12-17T23:27:37.948Z</time>
</trkpt>
<trkpt lat="-27.3070701" lon="152.6182410">
<ele>71.521</ele>
<time>2015-12-17T23:27:39.735Z</time>
</trkpt>
<trkpt lat="-27.3064247" lon="152.6178393">
<ele>71.702</ele>
<time>2015-12-17T23:27:42.760Z</time>
</trkpt>
<trkpt lat="-27.3059774" lon="152.6175937">
<ele>73.690</ele>
<time>2015-12-17T23:27:44.862Z</time>
</trkpt>
<trkpt lat="-27.3053453" lon="152.6171625">
<ele>77.358</ele>
<time>2015-12-17T23:27:48.077Z</time>
</trkpt>
<trkpt lat="-27.3047349" lon="152.6167194">
<ele>81.150</ele>
<time>2015-12-17T23:27:51.393Z</time>
</trkpt>
<trkpt lat="-27.3043248" lon="152.6164430">
<ele>84.092</ele>
<time>2015-12-17T23:27:53.663Z</time>
</trkpt>
<trkpt lat="-27.3037140" lon="152.6161109">
<ele>86.469</ele>
<time>2015-12-17T23:27:56.860Z</time>
</trkpt>
<trkpt lat="-27.3033049" lon="152.6159198">
<ele>88.718</ele>
<time>2015-12-17T23:27:58.819Z</time>
</trkpt>
<trkpt lat="-27.3029042" lon="152.6157665">
<ele>90.457</ele>
<time>2015-12-17T23:28:00.553Z</time>
</trkpt>
<trkpt lat="-27.3022831" lon="152.6156483">
<ele>91.264</ele>
<time>2015-12-17T23:28:03.070Z</time>
</trkpt>
<trkpt lat="-27.3016488" lon="152.6156386">
<ele>91.025</ele>
<time>2015-12-17T23:28:05.560Z</time>
</trkpt>
<trkpt lat="-27.3011791" lon="152.6157049">
<ele>89.281</ele>
<time>2015-12-17T23:28:07.428Z</time>
</trkpt>
<trkpt lat="-27.3004365" lon="152.6158552">
<ele>86.399</ele>
<time>2015-12-17T23:28:10.448Z</time>
</trkpt>
<trkpt lat="-27.2999297" lon="152.6159702">
<ele>83.896</ele>
<time>2015-12-17T23:28:12.560Z</time>
</trkpt>
<trkpt lat="-27.2991909" lon="152.6161090">
<ele>82.669</ele>
<time>2015-12-17T23:28:15.713Z</time>
</trkpt>
<trkpt lat="-27.2987061" lon="152.6161964">
<ele>82.188</ele>
<time>2015-12-17T23:28:17.865Z</time>
</trkpt>
<trkpt lat="-27.2982239" lon="152.6163006">
<ele>81.680</ele>
<time>2015-12-17T23:28:20.044Z</time>
</trkpt>
<trkpt lat="-27.2975257" lon="152.6164478">
<ele>81.007</ele>
<time>2015-12-17T23:28:23.189Z</time>
</trkpt>
<trkpt lat="-27.2970527" lon="152.6165322">
<ele>80.231</ele>
<time>2015-12-17T23:28:25.261Z</time>
</trkpt>
<trkpt lat="-27.2963915" lon="152.6165400">
<ele>79.311</ele>
<time>2015-12-17T23:28:28.042Z</time>
</trkpt>
<trkpt lat="-27.2957379" lon="152.6163499">
<ele>78.562</ele>
<time>2015-12-17T23:28:30.893Z</time>
</trkpt>
<trkpt lat="-27.2953407" lon="152.6161137">
<ele>78.278</ele>
<time>2015-12-17T23:28:32.800Z</time>
</trkpt>
<trkpt lat="-27.2949484" lon="152.6158216">
<ele>78.573</ele>
<time>2015-12-17T23:28:34.799Z</time>
</trkpt>
<trkpt lat="-27.2943598" lon="152.6153615">
<ele>79.699</ele>
<time>2015-12-17T23:28:37.748Z</time>
</trkpt>
<trkpt lat="-27.2938029" lon="152.6149115">
<ele>81.741</ele>
<time>2015-12-17T23:28:40.491Z</time>
</trkpt>
<trkpt lat="-27.2932247" lon="152.6144580">
<ele>85.135</ele>
<time>2015-12-17T23:28:43.275Z</time>
</trkpt>
<trkpt lat="-27.2926038" lon="152.6140043">
<ele>90.146</ele>
<time>2015-12-17T23:28:46.223Z</time>
</trkpt>
<trkpt lat="-27.2921840" lon="152.6136767">
<ele>95.646</ele>
<time>2015-12-17T23:28:48.279Z</time>
</trkpt>
<trkpt lat="-27.2917590" lon="152.6133549">
<ele>100.010</ele>
<time>2015-12-17T23:28:50.367Z</time>
</trkpt>
<trkpt lat="-27.2911585" lon="152.6128900">
<ele>102.482</ele>
<time>2015-12-17T23:28:53.338Z</time>
</trkpt>
<trkpt lat="-27.2905581" lon="152.6124196">
<ele>103.236</ele>
<time>2015-12-17T23:28:56.283Z</time>
</trkpt>
<trkpt lat="-27.2899520" lon="152.6119576">
<ele>103.104</ele>
<time>2015-12-17T23:28:59.225Z</time>
</trkpt>
<trkpt lat="-27.2893389" lon="152.6114753">
<ele>102.927</ele>
<time>2015-12-17T23:29:02.301Z</time>
</trkpt>
<trkpt lat="-27.2889305" lon="152.6111551">
<ele>103.080</ele>
<time>2015-12-17T23:29:04.377Z</time>
</trkpt>
<trkpt lat="-27.2883841" lon="152.6105858">
<ele>103.239</ele>
<time>2015-12-17T23:29:07.559Z</time>
</trkpt>
<trkpt lat="-27.2880878" lon="152.6101462">
<ele>102.710</ele>
<time>2015-12-17T23:29:09.659Z</time>
</trkpt>
<trkpt lat="-27.2877677" lon="152.6094064">
<ele>101.445</ele>
<time>2015-12-17T23:29:12.745Z</time>
</trkpt>
<trkpt lat="-27.2876452" lon="152.6089174">
<ele>100.216</ele>
<time>2015-12-17T23:29:14.646Z</time>
</trkpt>
<trkpt lat="-27.2875519" lon="152.6081603">
<ele>99.747</ele>
<time>2015-12-17T23:29:17.526Z</time>
</trkpt>
<trkpt lat="-27.2875424" lon="152.6076159">
<ele>100.855</ele>
<time>2015-12-17T23:29:19.657Z</time>
</trkpt>
<trkpt lat="-27.2875396" lon="152.6070948">
<ele>103.711</ele>
<time>2015-12-17T23:29:21.753Z</time>
</trkpt>
<trkpt lat="-27.2875536" lon="152.6065553">
<ele>106.843</ele>
<time>2015-12-17T23:29:24.002Z</time>
</trkpt>
<trkpt lat="-27.2876063" lon="152.6057677">
<ele>109.423</ele>
<time>2015-12-17T23:29:27.294Z</time>
</trkpt>
<trkpt lat="-27.2876229" lon="152.6050474">
<ele>112.035</ele>
<time>2015-12-17T23:29:30.253Z</time>
</trkpt>
<trkpt lat="-27.2876040" lon="152.6045785">
<ele>114.445</ele>
<time>2015-12-17T23:29:32.173Z</time>
</trkpt>
<trkpt lat="-27.2875187" lon="152.6041160">
<ele>115.900</ele>
<time>2015-12-17T23:29:34.104Z</time>
</trkpt>
<trkpt lat="-27.2873130" lon="152.6034314">
<ele>116.827</ele>
<time>2015-12-17T23:29:37.128Z</time>
</trkpt>
<trkpt lat="-27.2870023" lon="152.6027817">
<ele>118.398</ele>
<time>2015-12-17T23:29:40.264Z</time>
</trkpt>
<trkpt lat="-27.2866024" lon="152.6022189">
<ele>121.178</ele>
<time>2015-12-17T23:29:43.283Z</time>
</trkpt>
<trkpt lat="-27.2863102" lon="152.6018894">
<ele>124.877</ele>
<time>2015-12-17T23:29:45.177Z</time>
</trkpt>
<trkpt lat="-27.2859571" lon="152.6016358">
<ele>129.022</ele>
<time>2015-12-17T23:29:47.102Z</time>
</trkpt>
<trkpt lat="-27.2855869" lon="152.6014285">
<ele>133.050</ele>
<time>2015-12-17T23:29:49.040Z</time>
</trkpt>
<trkpt lat="-27.2849659" lon="152.6012101">
<ele>136.180</ele>
<time>2015-12-17T23:29:52.143Z</time>
</trkpt>
<trkpt lat="-27.2845238" lon="152.6010918">
<ele>137.942</ele>
<time>2015-12-17T23:29:54.244Z</time>
</trkpt>
<trkpt lat="-27.2839072" lon="152.6009004">
<ele>138.589</ele>
<time>2015-12-17T23:29:57.064Z</time>
</trkpt>
<trkpt lat="-27.2835416" lon="152.6006852">
<ele>137.501</ele>
<time>2015-12-17T23:29:58.880Z</time>
</trkpt>
<trkpt lat="-27.2830958" lon="152.6001897">
<ele>133.808</ele>
<time>2015-12-17T23:30:01.702Z</time>
</trkpt>
<trkpt lat="-27.2828355" lon="152.5997552">
<ele>128.830</ele>
<time>2015-12-17T23:30:03.858Z</time>
</trkpt>
<trkpt lat="-27.2825998" lon="152.5993108">
<ele>124.776</ele>
<time>2015-12-17T23:30:06.006Z</time>
</trkpt>
<trkpt lat="-27.2822548" lon="152.5986805">
<ele>122.152</ele>
<time>2015-12-17T23:30:08.901Z</time>
</trkpt>
<trkpt lat="-27.2818009" lon="152.5981682">
<ele>120.170</ele>
<time>2015-12-17T23:30:11.579Z</time>
</trkpt>
<trkpt lat="-27.2814507" lon="152.5979282">
<ele>117.739</ele>
<time>2015-12-17T23:30:13.311Z</time>
</trkpt>
<trkpt lat="-27.2810333" lon="152.5977532">
<ele>114.347</ele>
<time>2015-12-17T23:30:15.194Z</time>
</trkpt>
<trkpt lat="-27.2805661" lon="152.5975918">
<ele>110.833</ele>
<time>2015-12-17T23:30:17.210Z</time>
</trkpt>
<trkpt lat="-27.2800908" lon="152.5974095">
<ele>108.538</ele>
<time>2015-12-17T23:30:19.243Z</time>
</trkpt>
<trkpt lat="-27.2794882" lon="152.5970338">
<ele>107.590</ele>
<time>2015-12-17T23:30:21.993Z</time>
</trkpt>
<trkpt lat="-27.2791221" lon="152.5966953">
<ele>107.084</ele>
<time>2015-12-17T23:30:23.893Z</time>
</trkpt>
<trkpt lat="-27.2786084" lon="152.5960774">
<ele>106.477</ele>
<time>2015-12-17T23:30:26.909Z</time>
</trkpt>
<trkpt lat="-27.2781195" lon="152.5954589">
<ele>105.884</ele>
<time>2015-12-17T23:30:29.836Z</time>
</trkpt>
<trkpt lat="-27.2777693" lon="152.5950692">
<ele>105.554</ele>
<time>2015-12-17T23:30:31.820Z</time>
</trkpt>
<trkpt lat="-27.2774224" lon="152.5946524">
<ele>105.465</ele>
<time>2015-12-17T23:30:33.971Z</time>
</trkpt>
<trkpt lat="-27.2768971" lon="152.5940160">
<ele>105.237</ele>
<time>2015-12-17T23:30:37.242Z</time>
</trkpt>
<trkpt lat="-27.2764174" lon="152.5934050">
<ele>103.919</ele>
<time>2015-12-17T23:30:40.197Z</time>
</trkpt>
<trkpt lat="-27.2760560" lon="152.5927560">
<ele>100.533</ele>
<time>2015-12-17T23:30:42.903Z</time>
</trkpt>
<trkpt lat="-27.2758633" lon="152.5922529">
<ele>95.999</ele>
<time>2015-12-17T23:30:44.872Z</time>
</trkpt>
<trkpt lat="-27.2756405" lon="152.5914534">
<ele>92.629</ele>
<time>2015-12-17T23:30:47.974Z</time>
</trkpt>
<trkpt lat="-27.2754807" lon="152.5909159">
<ele>91.122</ele>
<time>2015-12-17T23:30:50.111Z</time>
</trkpt>
<trkpt lat="-27.2753249" lon="152.5904122">
<ele>90.479</ele>
<time>2015-12-17T23:30:52.113Z</time>
</trkpt>
<trkpt lat="-27.2751007" lon="152.5896519">
<ele>89.697</ele>
<time>2015-12-17T23:30:54.979Z</time>
</trkpt>
<trkpt lat="-27.2748893" lon="152.5891837">
<ele>88.237</ele>
<time>2015-12-17T23:30:56.779Z</time>
</trkpt>
<trkpt lat="-27.2744412" lon="152.5885642">
<ele>86.166</ele>
<time>2015-12-17T23:30:59.294Z</time>
</trkpt>
<trkpt lat="-27.2740467" lon="152.5882616">
<ele>83.879</ele>
<time>2015-12-17T23:31:00.872Z</time>
</trkpt>
<trkpt lat="-27.2733325" lon="152.5878479">
<ele>81.910</ele>
<time>2015-12-17T23:31:03.446Z</time>
</trkpt>
<trkpt lat="-27.2728123" lon="152.5875784">
<ele>81.322</ele>
<time>2015-12-17T23:31:05.239Z</time>
</trkpt>
<trkpt lat="-27.2719888" lon="152.5870848">
<ele>82.444</ele>
<time>2015-12-17T23:31:08.237Z</time>
</trkpt>
<trkpt lat="-27.2711456" lon="152.5865337">
<ele>84.751</ele>
<time>2015-12-17T23:31:11.512Z</time>
</trkpt>
<trkpt lat="-27.2706248" lon="152.5861772">
<ele>87.476</ele>
<time>2015-12-17T23:31:13.492Z</time>
</trkpt>
<trkpt lat="-27.2701122" lon="152.5858540">
<ele>89.100</ele>
<time>2015-12-17T23:31:15.353Z</time>
</trkpt>
<trkpt lat="-27.2695827" lon="152.5855570">
<ele>88.249</ele>
<time>2015-12-17T23:31:17.252Z</time>
</trkpt>
<trkpt lat="-27.2687438" lon="152.5850900">
<ele>85.821</ele>
<time>2015-12-17T23:31:20.522Z</time>
</trkpt>
<trkpt lat="-27.2681652" lon="152.5847757">
<ele>83.586</ele>
<time>2015-12-17T23:31:23.029Z</time>
</trkpt>
<trkpt lat="-27.2676369" lon="152.5844684">
<ele>81.670</ele>
<time>2015-12-17T23:31:25.437Z</time>
</trkpt>
<trkpt lat="-27.2671625" lon="152.5841890">
<ele>78.978</ele>
<time>2015-12-17T23:31:27.646Z</time>
</trkpt>
<trkpt lat="-27.2667117" lon="152.5839337">
<ele>75.722</ele>
<time>2015-12-17T23:31:29.727Z</time>
</trkpt>
<trkpt lat="-27.2661460" lon="152.5834220">
<ele>72.529</ele>
<time>2015-12-17T23:31:32.714Z</time>
</trkpt>
<trkpt lat="-27.2658193" lon="152.5830306">
<ele>69.417</ele>
<time>2015-12-17T23:31:34.652Z</time>
</trkpt>
<trkpt lat="-27.2653159" lon="152.5824136">
<ele>66.975</ele>
<time>2015-12-17T23:31:37.633Z</time>
</trkpt>
<trkpt lat="-27.2648340" lon="152.5818274">
<ele>65.875</ele>
<time>2015-12-17T23:31:40.451Z</time>
</trkpt>
<trkpt lat="-27.2643540" lon="152.5811980">
<ele>65.781</ele>
<time>2015-12-17T23:31:43.429Z</time>
</trkpt>
<trkpt lat="-27.2638387" lon="152.5805693">
<ele>66.454</ele>
<time>2015-12-17T23:31:46.473Z</time>
</trkpt>
<trkpt lat="-27.2634966" lon="152.5801602">
<ele>67.643</ele>
<time>2015-12-17T23:31:48.420Z</time>
</trkpt>
<trkpt lat="-27.2629573" lon="152.5796186">
<ele>68.104</ele>
<time>2015-12-17T23:31:51.203Z</time>
</trkpt>
<trkpt lat="-27.2623348" lon="152.5791411">
<ele>67.068</ele>
<time>2015-12-17T23:31:54.075Z</time>
</trkpt>
<trkpt lat="-27.2616454" lon="152.5787439">
<ele>66.134</ele>
<time>2015-12-17T23:31:56.993Z</time>
</trkpt>
<trkpt lat="-27.2611600" lon="152.5785325">
<ele>66.831</ele>
<time>2015-12-17T23:31:58.954Z</time>
</trkpt>
<trkpt lat="-27.2606430" lon="152.5783750">
<ele>68.249</ele>
<time>2015-12-17T23:32:00.975Z</time>
</trkpt>
<trkpt lat="-27.2601237" lon="152.5782444">
<ele>69.141</ele>
<time>2015-12-17T23:32:03.008Z</time>
</trkpt>
<trkpt lat="-27.2593645" lon="152.5780445">
<ele>69.350</ele>
<time>2015-12-17T23:32:06.130Z</time>
</trkpt>
<trkpt lat="-27.2588501" lon="152.5779137">
<ele>69.068</ele>
<time>2015-12-17T23:32:08.309Z</time>
</trkpt>
<trkpt lat="-27.2583474" lon="152.5777790">
<ele>68.474</ele>
<time>2015-12-17T23:32:10.433Z</time>
</trkpt>
<trkpt lat="-27.2576367" lon="152.5775969">
<ele>67.109</ele>
<time>2015-12-17T23:32:13.407Z</time>
</trkpt>
<trkpt lat="-27.2571778" lon="152.5774564">
<ele>64.658</ele>
<time>2015-12-17T23:32:15.347Z</time>
</trkpt>
<trkpt lat="-27.2567215" lon="152.5772764">
<ele>62.253</ele>
<time>2015-12-17T23:32:17.322Z</time>
</trkpt>
<trkpt lat="-27.2562744" lon="152.5770663">
<ele>61.305</ele>
<time>2015-12-17T23:32:19.310Z</time>
</trkpt>
<trkpt lat="-27.2556027" lon="152.5767362">
<ele>61.964</ele>
<time>2015-12-17T23:32:22.321Z</time>
</trkpt>
<trkpt lat="-27.2549394" lon="152.5763910">
<ele>63.271</ele>
<time>2015-12-17T23:32:25.295Z</time>
</trkpt>
<trkpt lat="-27.2542763" lon="152.5760827">
<ele>64.031</ele>
<time>2015-12-17T23:32:28.181Z</time>
</trkpt>
<trkpt lat="-27.2538155" lon="152.5759022">
<ele>63.898</ele>
<time>2015-12-17T23:32:30.142Z</time>
</trkpt>
<trkpt lat="-27.2530964" lon="152.5757296">
<ele>63.377</ele>
<time>2015-12-17T23:32:33.112Z</time>
</trkpt>
<trkpt lat="-27.2523526" lon="152.5756255">
<ele>63.024</ele>
<time>2015-12-17T23:32:36.148Z</time>
</trkpt>
<trkpt lat="-27.2518577" lon="152.5755700">
<ele>63.195</ele>
<time>2015-12-17T23:32:38.162Z</time>
</trkpt>
<trkpt lat="-27.2511179" lon="152.5754837">
<ele>64.297</ele>
<time>2015-12-17T23:32:41.158Z</time>
</trkpt>
<trkpt lat="-27.2504023" lon="152.5753817">
<ele>66.636</ele>
<time>2015-12-17T23:32:44.027Z</time>
</trkpt>
<trkpt lat="-27.2496863" lon="152.5751801">
<ele>70.502</ele>
<time>2015-12-17T23:32:46.955Z</time>
</trkpt>
<trkpt lat="-27.2492174" lon="152.5749969">
<ele>75.819</ele>
<time>2015-12-17T23:32:48.914Z</time>
</trkpt>
<trkpt lat="-27.2487611" lon="152.5747666">
<ele>81.641</ele>
<time>2015-12-17T23:32:50.881Z</time>
</trkpt>
<trkpt lat="-27.2483209" lon="152.5745069">
<ele>86.943</ele>
<time>2015-12-17T23:32:52.854Z</time>
</trkpt>
<trkpt lat="-27.2476619" lon="152.5741093">
<ele>91.400</ele>
<time>2015-12-17T23:32:55.823Z</time>
</trkpt>
<trkpt lat="-27.2472279" lon="152.5738377">
<ele>94.673</ele>
<time>2015-12-17T23:32:57.766Z</time>
</trkpt>
<trkpt lat="-27.2467872" lon="152.5735773">
<ele>96.128</ele>
<time>2015-12-17T23:32:59.689Z</time>
</trkpt>
<trkpt lat="-27.2463425" lon="152.5733123">
<ele>95.583</ele>
<time>2015-12-17T23:33:01.637Z</time>
</trkpt>
<trkpt lat="-27.2458859" lon="152.5730503">
<ele>93.949</ele>
<time>2015-12-17T23:33:03.669Z</time>
</trkpt>
<trkpt lat="-27.2451924" lon="152.5726288">
<ele>92.507</ele>
<time>2015-12-17T23:33:06.824Z</time>
</trkpt>
<trkpt lat="-27.2447324" lon="152.5723822">
<ele>91.648</ele>
<time>2015-12-17T23:33:08.828Z</time>
</trkpt>
<trkpt lat="-27.2442838" lon="152.5721483">
<ele>90.763</ele>
<time>2015-12-17T23:33:10.768Z</time>
</trkpt>
<trkpt lat="-27.2436069" lon="152.5717815">
<ele>88.813</ele>
<time>2015-12-17T23:33:13.761Z</time>
</trkpt>
<trkpt lat="-27.2431361" lon="152.5715327">
<ele>85.589</ele>
<time>2015-12-17T23:33:15.841Z</time>
</trkpt>
<trkpt lat="-27.2426819" lon="152.5712922">
<ele>82.440</ele>
<time>2015-12-17T23:33:17.837Z</time>
</trkpt>
<trkpt lat="-27.2420089" lon="152.5709378">
<ele>79.996</ele>
<time>2015-12-17T23:33:20.734Z</time>
</trkpt>
<trkpt lat="-27.2415518" lon="152.5707218">
<ele>77.258</ele>
<time>2015-12-17T23:33:22.648Z</time>
</trkpt>
<trkpt lat="-27.2410852" lon="152.5705347">
<ele>74.194</ele>
<time>2015-12-17T23:33:24.640Z</time>
</trkpt>
<trkpt lat="-27.2405985" lon="152.5703510">
<ele>71.901</ele>
<time>2015-12-17T23:33:26.789Z</time>
</trkpt>
<trkpt lat="-27.2398376" lon="152.5701857">
<ele>70.881</ele>
<time>2015-12-17T23:33:30.338Z</time>
</trkpt>
<trkpt lat="-27.2391496" lon="152.5700431">
<ele>70.612</ele>
<time>2015-12-17T23:33:33.543Z</time>
</trkpt>
<trkpt lat="-27.2387155" lon="152.5699588">
<ele>69.779</ele>
<time>2015-12-17T23:33:35.417Z</time>
</trkpt>
<trkpt lat="-27.2381234" lon="152.5697395">
<ele>67.706</ele>
<time>2015-12-17T23:33:37.904Z</time>
</trkpt>
<trkpt lat="-27.2377427" lon="152.5694961">
<ele>65.404</ele>
<time>2015-12-17T23:33:39.601Z</time>
</trkpt>
<trkpt lat="-27.2371700" lon="152.5689651">
<ele>64.506</ele>
<time>2015-12-17T23:33:42.505Z</time>
</trkpt>
<trkpt lat="-27.2367740" lon="152.5685728">
<ele>65.889</ele>
<time>2015-12-17T23:33:44.579Z</time>
</trkpt>
<trkpt lat="-27.2364013" lon="152.5681924">
<ele>68.652</ele>
<time>2015-12-17T23:33:46.559Z</time>
</trkpt>
<trkpt lat="-27.2360194" lon="152.5678187">
<ele>70.878</ele>
<time>2015-12-17T23:33:48.548Z</time>
</trkpt>
<trkpt lat="-27.2354629" lon="152.5672654">
<ele>71.766</ele>
<time>2015-12-17T23:33:51.477Z</time>
</trkpt>
<trkpt lat="-27.2350724" lon="152.5669066">
<ele>72.196</ele>
<time>2015-12-17T23:33:53.474Z</time>
</trkpt>
<trkpt lat="-27.2346879" lon="152.5665416">
<ele>73.412</ele>
<time>2015-12-17T23:33:55.459Z</time>
</trkpt>
<trkpt lat="-27.2340996" lon="152.5660349">
<ele>75.963</ele>
<time>2015-12-17T23:33:58.387Z</time>
</trkpt>
<trkpt lat="-27.2336783" lon="152.5657387">
<ele>79.280</ele>
<time>2015-12-17T23:34:00.396Z</time>
</trkpt>
<trkpt lat="-27.2332374" lon="152.5654578">
<ele>82.192</ele>
<time>2015-12-17T23:34:02.510Z</time>
</trkpt>
<trkpt lat="-27.2327871" lon="152.5651927">
<ele>84.008</ele>
<time>2015-12-17T23:34:04.680Z</time>
</trkpt>
<trkpt lat="-27.2321361" lon="152.5648179">
<ele>85.026</ele>
<time>2015-12-17T23:34:07.686Z</time>
</trkpt>
<trkpt lat="-27.2317479" lon="152.5645405">
<ele>85.673</ele>
<time>2015-12-17T23:34:09.512Z</time>
</trkpt>
<trkpt lat="-27.2313962" lon="152.5642106">
<ele>86.056</ele>
<time>2015-12-17T23:34:11.306Z</time>
</trkpt>
<trkpt lat="-27.2310385" lon="152.5638365">
<ele>86.444</ele>
<time>2015-12-17T23:34:13.233Z</time>
</trkpt>
<trkpt lat="-27.2306871" lon="152.5634127">
<ele>87.134</ele>
<time>2015-12-17T23:34:15.296Z</time>
</trkpt>
<trkpt lat="-27.2301725" lon="152.5627745">
<ele>87.815</ele>
<time>2015-12-17T23:34:18.389Z</time>
</trkpt>
<trkpt lat="-27.2298517" lon="152.5623654">
<ele>87.504</ele>
<time>2015-12-17T23:34:20.336Z</time>
</trkpt>
<trkpt lat="-27.2295161" lon="152.5619621">
<ele>85.808</ele>
<time>2015-12-17T23:34:22.289Z</time>
</trkpt>
<trkpt lat="-27.2291869" lon="152.5615520">
<ele>83.744</ele>
<time>2015-12-17T23:34:24.266Z</time>
</trkpt>
<trkpt lat="-27.2288772" lon="152.5611154">
<ele>82.509</ele>
<time>2015-12-17T23:34:26.336Z</time>
</trkpt>
<trkpt lat="-27.2284166" lon="152.5604388">
<ele>82.466</ele>
<time>2015-12-17T23:34:29.573Z</time>
</trkpt>
<trkpt lat="-27.2281475" lon="152.5600036">
<ele>83.313</ele>
<time>2015-12-17T23:34:31.645Z</time>
</trkpt>
<trkpt lat="-27.2278393" lon="152.5593128">
<ele>84.038</ele>
<time>2015-12-17T23:34:34.775Z</time>
</trkpt>
<trkpt lat="-27.2276569" lon="152.5588320">
<ele>83.952</ele>
<time>2015-12-17T23:34:36.964Z</time>
</trkpt>
<trkpt lat="-27.2274859" lon="152.5583759">
<ele>83.290</ele>
<time>2015-12-17T23:34:39.115Z</time>
</trkpt>
<trkpt lat="-27.2272426" lon="152.5577211">
<ele>81.928</ele>
<time>2015-12-17T23:34:42.305Z</time>
</trkpt>
<trkpt lat="-27.2270836" lon="152.5572900">
<ele>79.029</ele>
<time>2015-12-17T23:34:44.411Z</time>
</trkpt>
<trkpt lat="-27.2268904" lon="152.5569055">
<ele>74.909</ele>
<time>2015-12-17T23:34:46.390Z</time>
</trkpt>
<trkpt lat="-27.2264645" lon="152.5564458">
<ele>70.973</ele>
<time>2015-12-17T23:34:49.214Z</time>
</trkpt>
<trkpt lat="-27.2261052" lon="152.5562485">
<ele>68.153</ele>
<time>2015-12-17T23:34:51.011Z</time>
</trkpt>
<trkpt lat="-27.2257111" lon="152.5561525">
<ele>66.805</ele>
<time>2015-12-17T23:34:52.627Z</time>
</trkpt>
<trkpt lat="-27.2255012" lon="152.5561426">
<ele>66.765</ele>
<time>2015-12-17T23:34:53.469Z</time>
</trkpt>
<trkpt lat="-27.2245508" lon="152.5562010">
<ele>67.303</ele>
<time>2015-12-17T23:34:57.242Z</time>
</trkpt>
<trkpt lat="-27.2237891" lon="152.5562469">
<ele>68.316</ele>
<time>2015-12-17T23:35:00.268Z</time>
</trkpt>
<trkpt lat="-27.2230342" lon="152.5562561">
<ele>70.066</ele>
<time>2015-12-17T23:35:03.231Z</time>
</trkpt>
<trkpt lat="-27.2222841" lon="152.5562460">
<ele>71.998</ele>
<time>2015-12-17T23:35:06.177Z</time>
</trkpt>
<trkpt lat="-27.2217781" lon="152.5562157">
<ele>73.998</ele>
<time>2015-12-17T23:35:08.177Z</time>
</trkpt>
<trkpt lat="-27.2210276" lon="152.5561378">
<ele>77.146</ele>
<time>2015-12-17T23:35:11.184Z</time>
</trkpt>
<trkpt lat="-27.2202667" lon="152.5560353">
<ele>81.899</ele>
<time>2015-12-17T23:35:14.245Z</time>
</trkpt>
<trkpt lat="-27.2195452" lon="152.5559023">
<ele>87.723</ele>
<time>2015-12-17T23:35:17.163Z</time>
</trkpt>
<trkpt lat="-27.2190544" lon="152.5558161">
<ele>93.851</ele>
<time>2015-12-17T23:35:19.141Z</time>
</trkpt>
<trkpt lat="-27.2185663" lon="152.5557283">
<ele>99.179</ele>
<time>2015-12-17T23:35:21.115Z</time>
</trkpt>
<trkpt lat="-27.2180826" lon="152.5556326">
<ele>103.149</ele>
<time>2015-12-17T23:35:23.081Z</time>
</trkpt>
<trkpt lat="-27.2173377" lon="152.5555092">
<ele>105.966</ele>
<time>2015-12-17T23:35:26.127Z</time>
</trkpt>
<trkpt lat="-27.2166041" lon="152.5553567">
<ele>107.693</ele>
<time>2015-12-17T23:35:29.136Z</time>
</trkpt>
<trkpt lat="-27.2161221" lon="152.5552805">
<ele>108.079</ele>
<time>2015-12-17T23:35:31.089Z</time>
</trkpt>
<trkpt lat="-27.2153910" lon="152.5551461">
<ele>107.239</ele>
<time>2015-12-17T23:35:34.094Z</time>
</trkpt>
<trkpt lat="-27.2146584" lon="152.5550090">
<ele>105.905</ele>
<time>2015-12-17T23:35:37.203Z</time>
</trkpt>
<trkpt lat="-27.2141694" lon="152.5549269">
<ele>104.720</ele>
<time>2015-12-17T23:35:39.257Z</time>
</trkpt>
<trkpt lat="-27.2134670" lon="152.5548215">
<ele>103.776</ele>
<time>2015-12-17T23:35:42.120Z</time>
</trkpt>
<trkpt lat="-27.2129985" lon="152.5548267">
<ele>102.460</ele>
<time>2015-12-17T23:35:43.966Z</time>
</trkpt>
<trkpt lat="-27.2122663" lon="152.5549435">
<ele>100.204</ele>
<time>2015-12-17T23:35:46.870Z</time>
</trkpt>
<trkpt lat="-27.2117717" lon="152.5550629">
<ele>97.719</ele>
<time>2015-12-17T23:35:48.857Z</time>
</trkpt>
<trkpt lat="-27.2110296" lon="152.5552646">
<ele>95.783</ele>
<time>2015-12-17T23:35:51.843Z</time>
</trkpt>
<trkpt lat="-27.2102867" lon="152.5554442">
<ele>93.972</ele>
<time>2015-12-17T23:35:54.793Z</time>
</trkpt>
<trkpt lat="-27.2097854" lon="152.5555707">
<ele>92.060</ele>
<time>2015-12-17T23:35:56.785Z</time>
</trkpt>
<trkpt lat="-27.2092772" lon="152.5557019">
<ele>90.530</ele>
<time>2015-12-17T23:35:58.810Z</time>
</trkpt>
<trkpt lat="-27.2085302" lon="152.5559054">
<ele>90.074</ele>
<time>2015-12-17T23:36:01.821Z</time>
</trkpt>
<trkpt lat="-27.2080401" lon="152.5560583">
<ele>90.825</ele>
<time>2015-12-17T23:36:03.840Z</time>
</trkpt>
<trkpt lat="-27.2075602" lon="152.5562290">
<ele>92.017</ele>
<time>2015-12-17T23:36:05.865Z</time>
</trkpt>
<trkpt lat="-27.2070716" lon="152.5563914">
<ele>92.881</ele>
<time>2015-12-17T23:36:07.988Z</time>
</trkpt>
<trkpt lat="-27.2063388" lon="152.5566187">
<ele>93.295</ele>
<time>2015-12-17T23:36:11.209Z</time>
</trkpt>
<trkpt lat="-27.2058777" lon="152.5567359">
<ele>93.698</ele>
<time>2015-12-17T23:36:13.186Z</time>
</trkpt>
<trkpt lat="-27.2054191" lon="152.5568222">
<ele>94.531</ele>
<time>2015-12-17T23:36:15.109Z</time>
</trkpt>
<trkpt lat="-27.2047150" lon="152.5569283">
<ele>95.407</ele>
<time>2015-12-17T23:36:18.072Z</time>
</trkpt>
<trkpt lat="-27.2042459" lon="152.5569909">
<ele>95.675</ele>
<time>2015-12-17T23:36:20.090Z</time>
</trkpt>
<trkpt lat="-27.2037759" lon="152.5570583">
<ele>95.012</ele>
<time>2015-12-17T23:36:22.142Z</time>
</trkpt>
<trkpt lat="-27.2030709" lon="152.5571163">
<ele>93.641</ele>
<time>2015-12-17T23:36:25.136Z</time>
</trkpt>
<trkpt lat="-27.2024021" lon="152.5571402">
<ele>92.168</ele>
<time>2015-12-17T23:36:27.819Z</time>
</trkpt>
<trkpt lat="-27.2016896" lon="152.5571433">
<ele>91.022</ele>
<time>2015-12-17T23:36:30.632Z</time>
</trkpt>
<trkpt lat="-27.2011907" lon="152.5571342">
<ele>91.048</ele>
<time>2015-12-17T23:36:32.588Z</time>
</trkpt>
<trkpt lat="-27.2004322" lon="152.5571066">
<ele>92.801</ele>
<time>2015-12-17T23:36:35.536Z</time>
</trkpt>
<trkpt lat="-27.1996777" lon="152.5570816">
<ele>95.021</ele>
<time>2015-12-17T23:36:38.444Z</time>
</trkpt>
<trkpt lat="-27.1991678" lon="152.5570551">
<ele>96.166</ele>
<time>2015-12-17T23:36:40.411Z</time>
</trkpt>
<trkpt lat="-27.1983774" lon="152.5570295">
<ele>96.088</ele>
<time>2015-12-17T23:36:43.483Z</time>
</trkpt>
<trkpt lat="-27.1976119" lon="152.5570015">
<ele>95.491</ele>
<time>2015-12-17T23:36:46.508Z</time>
</trkpt>
<trkpt lat="-27.1971038" lon="152.5569774">
<ele>95.030</ele>
<time>2015-12-17T23:36:48.558Z</time>
</trkpt>
<trkpt lat="-27.1963550" lon="152.5569523">
<ele>94.856</ele>
<time>2015-12-17T23:36:51.663Z</time>
</trkpt>
<trkpt lat="-27.1956260" lon="152.5569262">
<ele>95.377</ele>
<time>2015-12-17T23:36:54.658Z</time>
</trkpt>
<trkpt lat="-27.1949133" lon="152.5568750">
<ele>97.319</ele>
<time>2015-12-17T23:36:57.488Z</time>
</trkpt>
<trkpt lat="-27.1944218" lon="152.5568060">
<ele>100.813</ele>
<time>2015-12-17T23:36:59.414Z</time>
</trkpt>
<trkpt lat="-27.1936734" lon="152.5566559">
<ele>104.908</ele>
<time>2015-12-17T23:37:02.374Z</time>
</trkpt>
<trkpt lat="-27.1931714" lon="152.5565177">
<ele>108.793</ele>
<time>2015-12-17T23:37:04.386Z</time>
</trkpt>
<trkpt lat="-27.1926810" lon="152.5563619">
<ele>112.308</ele>
<time>2015-12-17T23:37:06.385Z</time>
</trkpt>
<trkpt lat="-27.1919434" lon="152.5560760">
<ele>115.227</ele>
<time>2015-12-17T23:37:09.488Z</time>
</trkpt>
<trkpt lat="-27.1914888" lon="152.5558646">
<ele>117.562</ele>
<time>2015-12-17T23:37:11.461Z</time>
</trkpt>
<trkpt lat="-27.1910277" lon="152.5556364">
<ele>119.632</ele>
<time>2015-12-17T23:37:13.506Z</time>
</trkpt>
<trkpt lat="-27.1903566" lon="152.5552771">
<ele>121.215</ele>
<time>2015-12-17T23:37:16.588Z</time>
</trkpt>
<trkpt lat="-27.1899159" lon="152.5550629">
<ele>122.314</ele>
<time>2015-12-17T23:37:18.613Z</time>
</trkpt>
<trkpt lat="-27.1894486" lon="152.5548943">
<ele>123.213</ele>
<time>2015-12-17T23:37:20.711Z</time>
</trkpt>
<trkpt lat="-27.1887413" lon="152.5548147">
<ele>123.800</ele>
<time>2015-12-17T23:37:23.718Z</time>
</trkpt>
<trkpt lat="-27.1882826" lon="152.5548756">
<ele>124.010</ele>
<time>2015-12-17T23:37:25.642Z</time>
</trkpt>
<trkpt lat="-27.1878341" lon="152.5550316">
<ele>124.047</ele>
<time>2015-12-17T23:37:27.567Z</time>
</trkpt>
<trkpt lat="-27.1872042" lon="152.5554318">
<ele>124.239</ele>
<time>2015-12-17T23:37:30.492Z</time>
</trkpt>
<trkpt lat="-27.1866412" lon="152.5559737">
<ele>124.963</ele>
<time>2015-12-17T23:37:33.480Z</time>
</trkpt>
<trkpt lat="-27.1860769" lon="152.5565119">
<ele>126.547</ele>
<time>2015-12-17T23:37:36.485Z</time>
</trkpt>
<trkpt lat="-27.1855126" lon="152.5570369">
<ele>129.223</ele>
<time>2015-12-17T23:37:39.478Z</time>
</trkpt>
<trkpt lat="-27.1849363" lon="152.5575407">
<ele>132.337</ele>
<time>2015-12-17T23:37:42.440Z</time>
</trkpt>
<trkpt lat="-27.1845544" lon="152.5578825">
<ele>134.320</ele>
<time>2015-12-17T23:37:44.422Z</time>
</trkpt>
<trkpt lat="-27.1841725" lon="152.5582298">
<ele>134.402</ele>
<time>2015-12-17T23:37:46.432Z</time>
</trkpt>
<trkpt lat="-27.1837870" lon="152.5585741">
<ele>133.319</ele>
<time>2015-12-17T23:37:48.483Z</time>
</trkpt>
<trkpt lat="-27.1832287" lon="152.5590786">
<ele>132.099</ele>
<time>2015-12-17T23:37:51.382Z</time>
</trkpt>
<trkpt lat="-27.1827087" lon="152.5596168">
<ele>131.065</ele>
<time>2015-12-17T23:37:54.127Z</time>
</trkpt>
<trkpt lat="-27.1822239" lon="152.5602686">
<ele>130.186</ele>
<time>2015-12-17T23:37:57.021Z</time>
</trkpt>
<trkpt lat="-27.1819247" lon="152.5607541">
<ele>130.063</ele>
<time>2015-12-17T23:37:59.027Z</time>
</trkpt>
<trkpt lat="-27.1816390" lon="152.5612347">
<ele>131.016</ele>
<time>2015-12-17T23:38:00.988Z</time>
</trkpt>
<trkpt lat="-27.1812098" lon="152.5619723">
<ele>132.178</ele>
<time>2015-12-17T23:38:04.129Z</time>
</trkpt>
<trkpt lat="-27.1809229" lon="152.5624671">
<ele>132.745</ele>
<time>2015-12-17T23:38:06.349Z</time>
</trkpt>
<trkpt lat="-27.1806471" lon="152.5629111">
<ele>132.941</ele>
<time>2015-12-17T23:38:08.400Z</time>
</trkpt>
<trkpt lat="-27.1803577" lon="152.5633273">
<ele>133.146</ele>
<time>2015-12-17T23:38:10.385Z</time>
</trkpt>
<trkpt lat="-27.1800247" lon="152.5636837">
<ele>133.363</ele>
<time>2015-12-17T23:38:12.281Z</time>
</trkpt>
<trkpt lat="-27.1794448" lon="152.5641528">
<ele>133.777</ele>
<time>2015-12-17T23:38:15.162Z</time>
</trkpt>
<trkpt lat="-27.1787669" lon="152.5644768">
<ele>135.457</ele>
<time>2015-12-17T23:38:18.044Z</time>
</trkpt>
<trkpt lat="-27.1782935" lon="152.5646387">
<ele>138.768</ele>
<time>2015-12-17T23:38:19.982Z</time>
</trkpt>
<trkpt lat="-27.1778009" lon="152.5647952">
<ele>142.211</ele>
<time>2015-12-17T23:38:22.018Z</time>
</trkpt>
<trkpt lat="-27.1770606" lon="152.5650198">
<ele>144.293</ele>
<time>2015-12-17T23:38:25.053Z</time>
</trkpt>
<trkpt lat="-27.1765853" lon="152.5651605">
<ele>145.116</ele>
<time>2015-12-17T23:38:26.994Z</time>
</trkpt>
<trkpt lat="-27.1758464" lon="152.5653978">
<ele>145.476</ele>
<time>2015-12-17T23:38:30.064Z</time>
</trkpt>
<trkpt lat="-27.1751269" lon="152.5656191">
<ele>145.805</ele>
<time>2015-12-17T23:38:33.116Z</time>
</trkpt>
<trkpt lat="-27.1746450" lon="152.5657788">
<ele>145.730</ele>
<time>2015-12-17T23:38:35.185Z</time>
</trkpt>
<trkpt lat="-27.1739984" lon="152.5660963">
<ele>144.773</ele>
<time>2015-12-17T23:38:38.060Z</time>
</trkpt>
<trkpt lat="-27.1735938" lon="152.5663628">
<ele>142.673</ele>
<time>2015-12-17T23:38:39.954Z</time>
</trkpt>
<trkpt lat="-27.1729923" lon="152.5668648">
<ele>139.645</ele>
<time>2015-12-17T23:38:43.021Z</time>
</trkpt>
<trkpt lat="-27.1726416" lon="152.5672605">
<ele>136.827</ele>
<time>2015-12-17T23:38:45.095Z</time>
</trkpt>
<trkpt lat="-27.1721944" lon="152.5678902">
<ele>135.864</ele>
<time>2015-12-17T23:38:48.099Z</time>
</trkpt>
<trkpt lat="-27.1719515" lon="152.5683466">
<ele>137.017</ele>
<time>2015-12-17T23:38:50.071Z</time>
</trkpt>
<trkpt lat="-27.1716527" lon="152.5690795">
<ele>138.977</ele>
<time>2015-12-17T23:38:53.024Z</time>
</trkpt>
<trkpt lat="-27.1715081" lon="152.5695765">
<ele>140.662</ele>
<time>2015-12-17T23:38:54.948Z</time>
</trkpt>
<trkpt lat="-27.1713474" lon="152.5703567">
<ele>141.999</ele>
<time>2015-12-17T23:38:57.987Z</time>
</trkpt>
<trkpt lat="-27.1712165" lon="152.5708716">
<ele>143.074</ele>
<time>2015-12-17T23:39:00.027Z</time>
</trkpt>
<trkpt lat="-27.1710708" lon="152.5713578">
<ele>143.879</ele>
<time>2015-12-17T23:39:01.954Z</time>
</trkpt>
<trkpt lat="-27.1707470" lon="152.5720548">
<ele>143.856</ele>
<time>2015-12-17T23:39:04.879Z</time>
</trkpt>
<trkpt lat="-27.1704535" lon="152.5724855">
<ele>142.718</ele>
<time>2015-12-17T23:39:06.877Z</time>
</trkpt>
<trkpt lat="-27.1700830" lon="152.5728345">
<ele>141.079</ele>
<time>2015-12-17T23:39:08.845Z</time>
</trkpt>
<trkpt lat="-27.1694975" lon="152.5732912">
<ele>139.096</ele>
<time>2015-12-17T23:39:11.713Z</time>
</trkpt>
<trkpt lat="-27.1688056" lon="152.5735811">
<ele>136.740</ele>
<time>2015-12-17T23:39:14.640Z</time>
</trkpt>
<trkpt lat="-27.1680438" lon="152.5737174">
<ele>134.943</ele>
<time>2015-12-17T23:39:17.697Z</time>
</trkpt>
<trkpt lat="-27.1675367" lon="152.5737625">
<ele>134.555</ele>
<time>2015-12-17T23:39:19.741Z</time>
</trkpt>
<trkpt lat="-27.1670372" lon="152.5738048">
<ele>135.368</ele>
<time>2015-12-17T23:39:21.775Z</time>
</trkpt>
<trkpt lat="-27.1665436" lon="152.5738510">
<ele>136.524</ele>
<time>2015-12-17T23:39:23.822Z</time>
</trkpt>
<trkpt lat="-27.1658159" lon="152.5738992">
<ele>137.316</ele>
<time>2015-12-17T23:39:26.837Z</time>
</trkpt>
<trkpt lat="-27.1653395" lon="152.5738719">
<ele>137.489</ele>
<time>2015-12-17T23:39:28.787Z</time>
</trkpt>
<trkpt lat="-27.1646258" lon="152.5737153">
<ele>136.931</ele>
<time>2015-12-17T23:39:31.653Z</time>
</trkpt>
<trkpt lat="-27.1641596" lon="152.5735137">
<ele>135.361</ele>
<time>2015-12-17T23:39:33.555Z</time>
</trkpt>
<trkpt lat="-27.1636913" lon="152.5732592">
<ele>132.522</ele>
<time>2015-12-17T23:39:35.524Z</time>
</trkpt>
<trkpt lat="-27.1632181" lon="152.5729776">
<ele>128.839</ele>
<time>2015-12-17T23:39:37.583Z</time>
</trkpt>
<trkpt lat="-27.1625295" lon="152.5725579">
<ele>124.624</ele>
<time>2015-12-17T23:39:40.634Z</time>
</trkpt>
<trkpt lat="-27.1618764" lon="152.5721354">
<ele>119.328</ele>
<time>2015-12-17T23:39:43.586Z</time>
</trkpt>
<trkpt lat="-27.1614458" lon="152.5718605">
<ele>113.173</ele>
<time>2015-12-17T23:39:45.511Z</time>
</trkpt>
<trkpt lat="-27.1607604" lon="152.5714523">
<ele>107.856</ele>
<time>2015-12-17T23:39:48.514Z</time>
</trkpt>
<trkpt lat="-27.1600775" lon="152.5710471">
<ele>104.561</ele>
<time>2015-12-17T23:39:51.495Z</time>
</trkpt>
<trkpt lat="-27.1596228" lon="152.5707696">
<ele>102.991</ele>
<time>2015-12-17T23:39:53.501Z</time>
</trkpt>
<trkpt lat="-27.1589295" lon="152.5703648">
<ele>102.056</ele>
<time>2015-12-17T23:39:56.573Z</time>
</trkpt>
<trkpt lat="-27.1582525" lon="152.5699573">
<ele>100.704</ele>
<time>2015-12-17T23:39:59.711Z</time>
</trkpt>
<trkpt lat="-27.1578079" lon="152.5697112">
<ele>98.186</ele>
<time>2015-12-17T23:40:01.764Z</time>
</trkpt>
<trkpt lat="-27.1571393" lon="152.5694222">
<ele>94.796</ele>
<time>2015-12-17T23:40:04.722Z</time>
</trkpt>
<trkpt lat="-27.1564351" lon="152.5692611">
<ele>91.438</ele>
<time>2015-12-17T23:40:07.635Z</time>
</trkpt>
<trkpt lat="-27.1559453" lon="152.5692292">
<ele>88.769</ele>
<time>2015-12-17T23:40:09.597Z</time>
</trkpt>
<trkpt lat="-27.1551943" lon="152.5692890">
<ele>86.873</ele>
<time>2015-12-17T23:40:12.593Z</time>
</trkpt>
<trkpt lat="-27.1546981" lon="152.5693690">
<ele>85.118</ele>
<time>2015-12-17T23:40:14.589Z</time>
</trkpt>
<trkpt lat="-27.1539583" lon="152.5694987">
<ele>82.993</ele>
<time>2015-12-17T23:40:17.619Z</time>
</trkpt>
<trkpt lat="-27.1534693" lon="152.5695927">
<ele>80.899</ele>
<time>2015-12-17T23:40:19.668Z</time>
</trkpt>
<trkpt lat="-27.1529858" lon="152.5696856">
<ele>78.986</ele>
<time>2015-12-17T23:40:21.707Z</time>
</trkpt>
<trkpt lat="-27.1525198" lon="152.5697734">
<ele>77.010</ele>
<time>2015-12-17T23:40:23.662Z</time>
</trkpt>
<trkpt lat="-27.1518232" lon="152.5698946">
<ele>74.727</ele>
<time>2015-12-17T23:40:26.509Z</time>
</trkpt>
<trkpt lat="-27.1513443" lon="152.5699476">
<ele>72.320</ele>
<time>2015-12-17T23:40:28.404Z</time>
</trkpt>
<trkpt lat="-27.1506060" lon="152.5699416">
<ele>70.583</ele>
<time>2015-12-17T23:40:31.291Z</time>
</trkpt>
<trkpt lat="-27.1498302" lon="152.5698307">
<ele>70.138</ele>
<time>2015-12-17T23:40:34.377Z</time>
</trkpt>
<trkpt lat="-27.1490969" lon="152.5696030">
<ele>70.719</ele>
<time>2015-12-17T23:40:37.451Z</time>
</trkpt>
<trkpt lat="-27.1484111" lon="152.5692683">
<ele>71.511</ele>
<time>2015-12-17T23:40:40.545Z</time>
</trkpt>
<trkpt lat="-27.1477980" lon="152.5688744">
<ele>71.925</ele>
<time>2015-12-17T23:40:43.531Z</time>
</trkpt>
<trkpt lat="-27.1474072" lon="152.5685690">
<ele>71.837</ele>
<time>2015-12-17T23:40:45.591Z</time>
</trkpt>
<trkpt lat="-27.1468702" lon="152.5680655">
<ele>71.372</ele>
<time>2015-12-17T23:40:48.646Z</time>
</trkpt>
<trkpt lat="-27.1463222" lon="152.5676293">
<ele>70.679</ele>
<time>2015-12-17T23:40:51.596Z</time>
</trkpt>
<trkpt lat="-27.1457319" lon="152.5672262">
<ele>69.592</ele>
<time>2015-12-17T23:40:54.697Z</time>
</trkpt>
<trkpt lat="-27.1451362" lon="152.5668725">
<ele>68.091</ele>
<time>2015-12-17T23:40:57.920Z</time>
</trkpt>
<trkpt lat="-27.1447537" lon="152.5666727">
<ele>66.519</ele>
<time>2015-12-17T23:41:00.108Z</time>
</trkpt>
<trkpt lat="-27.1441970" lon="152.5663752">
<ele>64.926</ele>
<time>2015-12-17T23:41:03.635Z</time>
</trkpt>
<trkpt lat="-27.1438606" lon="152.5661973">
<ele>63.382</ele>
<time>2015-12-17T23:41:05.779Z</time>
</trkpt>
<trkpt lat="-27.1435561" lon="152.5660349">
<ele>62.035</ele>
<time>2015-12-17T23:41:07.533Z</time>
</trkpt>
<trkpt lat="-27.1432665" lon="152.5658743">
<ele>60.831</ele>
<time>2015-12-17T23:41:09.171Z</time>
</trkpt>
<trkpt lat="-27.1429485" lon="152.5656940">
<ele>59.904</ele>
<time>2015-12-17T23:41:10.816Z</time>
</trkpt>
<trkpt lat="-27.1423892" lon="152.5653897">
<ele>59.925</ele>
<time>2015-12-17T23:41:13.627Z</time>
</trkpt>
<trkpt lat="-27.1419696" lon="152.5651817">
<ele>61.512</ele>
<time>2015-12-17T23:41:15.714Z</time>
</trkpt>
<trkpt lat="-27.1413744" lon="152.5648733">
<ele>64.304</ele>
<time>2015-12-17T23:41:18.642Z</time>
</trkpt>
<trkpt lat="-27.1409810" lon="152.5646783">
<ele>66.942</ele>
<time>2015-12-17T23:41:20.513Z</time>
</trkpt>
<trkpt lat="-27.1403685" lon="152.5643355">
<ele>68.539</ele>
<time>2015-12-17T23:41:23.480Z</time>
</trkpt>
<trkpt lat="-27.1397474" lon="152.5639872">
<ele>69.217</ele>
<time>2015-12-17T23:41:26.575Z</time>
</trkpt>
<trkpt lat="-27.1393614" lon="152.5637143">
<ele>69.399</ele>
<time>2015-12-17T23:41:28.679Z</time>
</trkpt>
<trkpt lat="-27.1390176" lon="152.5634138">
<ele>69.157</ele>
<time>2015-12-17T23:41:30.742Z</time>
</trkpt>
<trkpt lat="-27.1385748" lon="152.5629001">
<ele>68.459</ele>
<time>2015-12-17T23:41:33.788Z</time>
</trkpt>
<trkpt lat="-27.1383529" lon="152.5625180">
<ele>67.624</ele>
<time>2015-12-17T23:41:35.747Z</time>
</trkpt>
<trkpt lat="-27.1380801" lon="152.5618872">
<ele>67.075</ele>
<time>2015-12-17T23:41:38.823Z</time>
</trkpt>
<trkpt lat="-27.1379099" lon="152.5612221">
<ele>66.874</ele>
<time>2015-12-17T23:41:42.045Z</time>
</trkpt>
<trkpt lat="-27.1378466" lon="152.5607916">
<ele>66.599</ele>
<time>2015-12-17T23:41:44.085Z</time>
</trkpt>
<trkpt lat="-27.1378303" lon="152.5601805">
<ele>65.741</ele>
<time>2015-12-17T23:41:46.812Z</time>
</trkpt>
<trkpt lat="-27.1378641" lon="152.5597522">
<ele>64.528</ele>
<time>2015-12-17T23:41:48.680Z</time>
</trkpt>
<trkpt lat="-27.1379036" lon="152.5593019">
<ele>63.677</ele>
<time>2015-12-17T23:41:50.611Z</time>
</trkpt>
<trkpt lat="-27.1379643" lon="152.5586077">
<ele>63.594</ele>
<time>2015-12-17T23:41:53.620Z</time>
</trkpt>
<trkpt lat="-27.1380068" lon="152.5581423">
<ele>64.239</ele>
<time>2015-12-17T23:41:55.734Z</time>
</trkpt>
<trkpt lat="-27.1380388" lon="152.5576946">
<ele>65.346</ele>
<time>2015-12-17T23:41:57.907Z</time>
</trkpt>
<trkpt lat="-27.1380910" lon="152.5570636">
<ele>66.490</ele>
<time>2015-12-17T23:42:01.129Z</time>
</trkpt>
<trkpt lat="-27.1381343" lon="152.5566749">
<ele>66.803</ele>
<time>2015-12-17T23:42:03.155Z</time>
</trkpt>
<trkpt lat="-27.1381679" lon="152.5562725">
<ele>65.740</ele>
<time>2015-12-17T23:42:05.345Z</time>
</trkpt>
<trkpt lat="-27.1382152" lon="152.5557134">
<ele>64.088</ele>
<time>2015-12-17T23:42:08.641Z</time>
</trkpt>
<trkpt lat="-27.1382417" lon="152.5553570">
<ele>62.949</ele>
<time>2015-12-17T23:42:11.092Z</time>
</trkpt>
<trkpt lat="-27.1382786" lon="152.5550160">
<ele>62.457</ele>
<time>2015-12-17T23:42:14.467Z</time>
</trkpt>
<trkpt lat="-27.1383104" lon="152.5547147">
<ele>62.151</ele>
<time>2015-12-17T23:42:20.030Z</time>
</trkpt>
<trkpt lat="-27.1383368" lon="152.5543275">
<ele>61.720</ele>
<time>2015-12-17T23:42:24.945Z</time>
</trkpt>
<trkpt lat="-27.1383485" lon="152.5541958">
<ele>60.733</ele>
<time>2015-12-17T23:42:25.935Z</time>
</trkpt>
<trkpt lat="-27.1383224" lon="152.5540908">
<ele>58.879</ele>
<time>2015-12-17T23:42:26.750Z</time>
</trkpt>
<trkpt lat="-27.1382061" lon="152.5540838">
<ele>56.866</ele>
<time>2015-12-17T23:42:27.538Z</time>
</trkpt>
<trkpt lat="-27.1380260" lon="152.5541367">
<ele>55.877</ele>
<time>2015-12-17T23:42:28.692Z</time>
</trkpt>
<trkpt lat="-27.1375880" lon="152.5542576">
<ele>56.454</ele>
<time>2015-12-17T23:42:31.293Z</time>
</trkpt>
<trkpt lat="-27.1372327" lon="152.5543455">
<ele>58.920</ele>
<time>2015-12-17T23:42:33.285Z</time>
</trkpt>
<trkpt lat="-27.1366041" lon="152.5544627">
<ele>62.862</ele>
<time>2015-12-17T23:42:36.374Z</time>
</trkpt>
<trkpt lat="-27.1361226" lon="152.5545362">
<ele>67.100</ele>
<time>2015-12-17T23:42:38.428Z</time>
</trkpt>
<trkpt lat="-27.1356079" lon="152.5545868">
<ele>70.879</ele>
<time>2015-12-17T23:42:40.510Z</time>
</trkpt>
<trkpt lat="-27.1348374" lon="152.5546095">
<ele>73.825</ele>
<time>2015-12-17T23:42:43.575Z</time>
</trkpt>
<trkpt lat="-27.1343389" lon="152.5545960">
<ele>75.602</ele>
<time>2015-12-17T23:42:45.555Z</time>
</trkpt>
<trkpt lat="-27.1338464" lon="152.5545538">
<ele>76.444</ele>
<time>2015-12-17T23:42:47.507Z</time>
</trkpt>
<trkpt lat="-27.1333448" lon="152.5544887">
<ele>76.886</ele>
<time>2015-12-17T23:42:49.487Z</time>
</trkpt>
<trkpt lat="-27.1326024" lon="152.5543493">
<ele>77.293</ele>
<time>2015-12-17T23:42:52.407Z</time>
</trkpt>
<trkpt lat="-27.1321048" lon="152.5542260">
<ele>77.577</ele>
<time>2015-12-17T23:42:54.367Z</time>
</trkpt>
<trkpt lat="-27.1316150" lon="152.5540659">
<ele>77.256</ele>
<time>2015-12-17T23:42:56.327Z</time>
</trkpt>
<trkpt lat="-27.1308579" lon="152.5538111">
<ele>76.229</ele>
<time>2015-12-17T23:42:59.451Z</time>
</trkpt>
<trkpt lat="-27.1301237" lon="152.5535495">
<ele>74.969</ele>
<time>2015-12-17T23:43:02.827Z</time>
</trkpt>
<trkpt lat="-27.1294483" lon="152.5533264">
<ele>73.850</ele>
<time>2015-12-17T23:43:06.466Z</time>
</trkpt>
<trkpt lat="-27.1290739" lon="152.5531963">
<ele>72.653</ele>
<time>2015-12-17T23:43:08.487Z</time>
</trkpt>
<trkpt lat="-27.1287269" lon="152.5530444">
<ele>70.668</ele>
<time>2015-12-17T23:43:10.400Z</time>
</trkpt>
<trkpt lat="-27.1283761" lon="152.5528296">
<ele>67.803</ele>
<time>2015-12-17T23:43:12.457Z</time>
</trkpt>
<trkpt lat="-27.1278770" lon="152.5524797">
<ele>65.263</ele>
<time>2015-12-17T23:43:15.512Z</time>
</trkpt>
<trkpt lat="-27.1274310" lon="152.5520771">
<ele>64.362</ele>
<time>2015-12-17T23:43:18.474Z</time>
</trkpt>
<trkpt lat="-27.1269962" lon="152.5516521">
<ele>65.032</ele>
<time>2015-12-17T23:43:21.436Z</time>
</trkpt>
<trkpt lat="-27.1266993" lon="152.5513849">
<ele>66.008</ele>
<time>2015-12-17T23:43:23.387Z</time>
</trkpt>
<trkpt lat="-27.1263840" lon="152.5511323">
<ele>66.268</ele>
<time>2015-12-17T23:43:25.384Z</time>
</trkpt>
<trkpt lat="-27.1258746" lon="152.5508412">
<ele>65.943</ele>
<time>2015-12-17T23:43:28.415Z</time>
</trkpt>
<trkpt lat="-27.1255062" lon="152.5507071">
<ele>65.451</ele>
<time>2015-12-17T23:43:30.616Z</time>
</trkpt>
<trkpt lat="-27.1251424" lon="152.5506184">
<ele>64.936</ele>
<time>2015-12-17T23:43:32.906Z</time>
</trkpt>
<trkpt lat="-27.1247884" lon="152.5505615">
<ele>64.457</ele>
<time>2015-12-17T23:43:35.243Z</time>
</trkpt>
<trkpt lat="-27.1244528" lon="152.5505474">
<ele>63.976</ele>
<time>2015-12-17T23:43:37.463Z</time>
</trkpt>
<trkpt lat="-27.1241467" lon="152.5505501">
<ele>63.335</ele>
<time>2015-12-17T23:43:39.499Z</time>
</trkpt>
<trkpt lat="-27.1236988" lon="152.5505620">
<ele>62.573</ele>
<time>2015-12-17T23:43:42.473Z</time>
</trkpt>
<trkpt lat="-27.1234008" lon="152.5505693">
<ele>61.935</ele>
<time>2015-12-17T23:43:44.440Z</time>
</trkpt>
<trkpt lat="-27.1229506" lon="152.5505596">
<ele>61.586</ele>
<time>2015-12-17T23:43:47.440Z</time>
</trkpt>
<trkpt lat="-27.1226491" lon="152.5505324">
<ele>61.498</ele>
<time>2015-12-17T23:43:49.489Z</time>
</trkpt>
<trkpt lat="-27.1223530" lon="152.5504846">
<ele>61.623</ele>
<time>2015-12-17T23:43:51.554Z</time>
</trkpt>
<trkpt lat="-27.1220587" lon="152.5504278">
<ele>62.037</ele>
<time>2015-12-17T23:43:53.676Z</time>
</trkpt>
<trkpt lat="-27.1217679" lon="152.5503718">
<ele>62.654</ele>
<time>2015-12-17T23:43:55.792Z</time>
</trkpt>
<trkpt lat="-27.1213518" lon="152.5503039">
<ele>63.446</ele>
<time>2015-12-17T23:43:58.831Z</time>
</trkpt>
<trkpt lat="-27.1210848" lon="152.5502543">
<ele>64.425</ele>
<time>2015-12-17T23:44:00.837Z</time>
</trkpt>
<trkpt lat="-27.1208009" lon="152.5501999">
<ele>65.239</ele>
<time>2015-12-17T23:44:03.009Z</time>
</trkpt>
<trkpt lat="-27.1205235" lon="152.5501561">
<ele>65.626</ele>
<time>2015-12-17T23:44:05.114Z</time>
</trkpt>
<trkpt lat="-27.1201240" lon="152.5501589">
<ele>65.770</ele>
<time>2015-12-17T23:44:08.008Z</time>
</trkpt>
<trkpt lat="-27.1197617" lon="152.5503356">
<ele>65.704</ele>
<time>2015-12-17T23:44:10.780Z</time>
</trkpt>
<trkpt lat="-27.1195603" lon="152.5505231">
<ele>65.412</ele>
<time>2015-12-17T23:44:12.642Z</time>
</trkpt>
<trkpt lat="-27.1193726" lon="152.5507673">
<ele>65.103</ele>
<time>2015-12-17T23:44:14.700Z</time>
</trkpt>
<trkpt lat="-27.1191782" lon="152.5510030">
<ele>65.040</ele>
<time>2015-12-17T23:44:16.743Z</time>
</trkpt>
<trkpt lat="-27.1188529" lon="152.5512618">
<ele>65.435</ele>
<time>2015-12-17T23:44:19.592Z</time>
</trkpt>
<trkpt lat="-27.1186096" lon="152.5514182">
<ele>66.419</ele>
<time>2015-12-17T23:44:21.600Z</time>
</trkpt>
<trkpt lat="-27.1182368" lon="152.5516274">
<ele>67.883</ele>
<time>2015-12-17T23:44:24.643Z</time>
</trkpt>
<trkpt lat="-27.1179802" lon="152.5517758">
<ele>69.624</ele>
<time>2015-12-17T23:44:26.777Z</time>
</trkpt>
<trkpt lat="-27.1177269" lon="152.5519437">
<ele>71.434</ele>
<time>2015-12-17T23:44:28.962Z</time>
</trkpt>
<trkpt lat="-27.1173676" lon="152.5521302">
<ele>72.912</ele>
<time>2015-12-17T23:44:32.036Z</time>
</trkpt>
<trkpt lat="-27.1171222" lon="152.5522747">
<ele>73.896</ele>
<time>2015-12-17T23:44:34.183Z</time>
</trkpt>
<trkpt lat="-27.1169041" lon="152.5524408">
<ele>74.848</ele>
<time>2015-12-17T23:44:36.233Z</time>
</trkpt>
<trkpt lat="-27.1166702" lon="152.5527766">
<ele>76.098</ele>
<time>2015-12-17T23:44:39.278Z</time>
</trkpt>
<trkpt lat="-27.1165871" lon="152.5530669">
<ele>77.371</ele>
<time>2015-12-17T23:44:41.528Z</time>
</trkpt>
<trkpt lat="-27.1164426" lon="152.5534501">
<ele>78.593</ele>
<time>2015-12-17T23:44:44.702Z</time>
</trkpt>
<trkpt lat="-27.1162628" lon="152.5536441">
<ele>80.145</ele>
<time>2015-12-17T23:44:46.796Z</time>
</trkpt>
<trkpt lat="-27.1159627" lon="152.5538490">
<ele>82.002</ele>
<time>2015-12-17T23:44:49.606Z</time>
</trkpt>
<trkpt lat="-27.1157328" lon="152.5538327">
<ele>83.617</ele>
<time>2015-12-17T23:44:51.470Z</time>
</trkpt>
<trkpt lat="-27.1153910" lon="152.5536271">
<ele>84.655</ele>
<time>2015-12-17T23:44:54.739Z</time>
</trkpt>
<trkpt lat="-27.1152139" lon="152.5534172">
<ele>85.492</ele>
<time>2015-12-17T23:44:57.140Z</time>
</trkpt>
<trkpt lat="-27.1150255" lon="152.5532537">
<ele>86.726</ele>
<time>2015-12-17T23:44:59.673Z</time>
</trkpt>
<trkpt lat="-27.1146892" lon="152.5530705">
<ele>88.339</ele>
<time>2015-12-17T23:45:03.810Z</time>
</trkpt>
<trkpt lat="-27.1144176" lon="152.5529350">
<ele>90.126</ele>
<time>2015-12-17T23:45:07.104Z</time>
</trkpt>
<trkpt lat="-27.1141518" lon="152.5529573">
<ele>91.926</ele>
<time>2015-12-17T23:45:09.735Z</time>
</trkpt>
<trkpt lat="-27.1139579" lon="152.5531709">
<ele>93.355</ele>
<time>2015-12-17T23:45:12.147Z</time>
</trkpt>
<trkpt lat="-27.1139281" lon="152.5533741">
<ele>94.355</ele>
<time>2015-12-17T23:45:13.686Z</time>
</trkpt>
<trkpt lat="-27.1140328" lon="152.5535638">
<ele>95.152</ele>
<time>2015-12-17T23:45:15.328Z</time>
</trkpt>
<trkpt lat="-27.1142034" lon="152.5538477">
<ele>95.952</ele>
<time>2015-12-17T23:45:17.871Z</time>
</trkpt>
<trkpt lat="-27.1142963" lon="152.5540932">
<ele>97.181</ele>
<time>2015-12-17T23:45:19.896Z</time>
</trkpt>
<trkpt lat="-27.1143617" lon="152.5543533">
<ele>98.996</ele>
<time>2015-12-17T23:45:21.947Z</time>
</trkpt>
<trkpt lat="-27.1144241" lon="152.5547832">
<ele>101.073</ele>
<time>2015-12-17T23:45:25.042Z</time>
</trkpt>
<trkpt lat="-27.1143860" lon="152.5551577">
<ele>103.198</ele>
<time>2015-12-17T23:45:27.440Z</time>
</trkpt>
<trkpt lat="-27.1141974" lon="152.5555000">
<ele>105.116</ele>
<time>2015-12-17T23:45:29.901Z</time>
</trkpt>
<trkpt lat="-27.1140009" lon="152.5557031">
<ele>106.391</ele>
<time>2015-12-17T23:45:31.713Z</time>
</trkpt>
<trkpt lat="-27.1137696" lon="152.5558923">
<ele>106.964</ele>
<time>2015-12-17T23:45:33.660Z</time>
</trkpt>
<trkpt lat="-27.1135324" lon="152.5560890">
<ele>107.196</ele>
<time>2015-12-17T23:45:35.667Z</time>
</trkpt>
<trkpt lat="-27.1131709" lon="152.5563752">
<ele>107.403</ele>
<time>2015-12-17T23:45:38.691Z</time>
</trkpt>
<trkpt lat="-27.1129194" lon="152.5565558">
<ele>107.774</ele>
<time>2015-12-17T23:45:40.822Z</time>
</trkpt>
<trkpt lat="-27.1126365" lon="152.5566684">
<ele>108.234</ele>
<time>2015-12-17T23:45:43.074Z</time>
</trkpt>
<trkpt lat="-27.1122395" lon="152.5568238">
<ele>108.551</ele>
<time>2015-12-17T23:45:46.549Z</time>
</trkpt>
<trkpt lat="-27.1118302" lon="152.5569335">
<ele>108.494</ele>
<time>2015-12-17T23:45:50.082Z</time>
</trkpt>
<trkpt lat="-27.1115896" lon="152.5569186">
<ele>108.028</ele>
<time>2015-12-17T23:45:52.174Z</time>
</trkpt>
<trkpt lat="-27.1113117" lon="152.5567120">
<ele>107.393</ele>
<time>2015-12-17T23:45:55.815Z</time>
</trkpt>
<trkpt lat="-27.1111630" lon="152.5564935">
<ele>106.825</ele>
<time>2015-12-17T23:45:58.985Z</time>
</trkpt>
<trkpt lat="-27.1109637" lon="152.5561913">
<ele>106.362</ele>
<time>2015-12-17T23:46:02.398Z</time>
</trkpt>
<trkpt lat="-27.1108307" lon="152.5560583">
<ele>105.817</ele>
<time>2015-12-17T23:46:03.939Z</time>
</trkpt>
<trkpt lat="-27.1106978" lon="152.5559967">
<ele>105.021</ele>
<time>2015-12-17T23:46:05.038Z</time>
</trkpt>
<trkpt lat="-27.1105531" lon="152.5561126">
<ele>104.215</ele>
<time>2015-12-17T23:46:06.408Z</time>
</trkpt>
<trkpt lat="-27.1104425" lon="152.5564082">
<ele>103.760</ele>
<time>2015-12-17T23:46:08.682Z</time>
</trkpt>
<trkpt lat="-27.1103871" lon="152.5568361">
<ele>103.879</ele>
<time>2015-12-17T23:46:11.897Z</time>
</trkpt>
<trkpt lat="-27.1103455" lon="152.5571308">
<ele>104.719</ele>
<time>2015-12-17T23:46:13.979Z</time>
</trkpt>
<trkpt lat="-27.1102695" lon="152.5575242">
<ele>105.914</ele>
<time>2015-12-17T23:46:16.595Z</time>
</trkpt>
<trkpt lat="-27.1100641" lon="152.5578327">
<ele>106.696</ele>
<time>2015-12-17T23:46:18.945Z</time>
</trkpt>
<trkpt lat="-27.1097444" lon="152.5580943">
<ele>106.793</ele>
<time>2015-12-17T23:46:21.546Z</time>
</trkpt>
<trkpt lat="-27.1093013" lon="152.5582007">
<ele>106.456</ele>
<time>2015-12-17T23:46:24.529Z</time>
</trkpt>
<trkpt lat="-27.1090021" lon="152.5582205">
<ele>105.990</ele>
<time>2015-12-17T23:46:26.542Z</time>
</trkpt>
<trkpt lat="-27.1085436" lon="152.5582204">
<ele>105.592</ele>
<time>2015-12-17T23:46:29.768Z</time>
</trkpt>
<trkpt lat="-27.1081074" lon="152.5583058">
<ele>105.252</ele>
<time>2015-12-17T23:46:32.928Z</time>
</trkpt>
<trkpt lat="-27.1077688" lon="152.5585257">
<ele>104.743</ele>
<time>2015-12-17T23:46:35.642Z</time>
</trkpt>
<trkpt lat="-27.1075669" lon="152.5587405">
<ele>103.993</ele>
<time>2015-12-17T23:46:37.502Z</time>
</trkpt>
<trkpt lat="-27.1072565" lon="152.5590422">
<ele>103.259</ele>
<time>2015-12-17T23:46:40.267Z</time>
</trkpt>
<trkpt lat="-27.1070047" lon="152.5592340">
<ele>102.882</ele>
<time>2015-12-17T23:46:42.413Z</time>
</trkpt>
<trkpt lat="-27.1067397" lon="152.5593996">
<ele>102.945</ele>
<time>2015-12-17T23:46:44.714Z</time>
</trkpt>
<trkpt lat="-27.1064862" lon="152.5595629">
<ele>103.242</ele>
<time>2015-12-17T23:46:47.197Z</time>
</trkpt>
<trkpt lat="-27.1062562" lon="152.5597235">
<ele>103.425</ele>
<time>2015-12-17T23:46:49.630Z</time>
</trkpt>
<trkpt lat="-27.1059762" lon="152.5599878">
<ele>103.284</ele>
<time>2015-12-17T23:46:52.703Z</time>
</trkpt>
<trkpt lat="-27.1057939" lon="152.5601494">
<ele>102.860</ele>
<time>2015-12-17T23:46:54.456Z</time>
</trkpt>
<trkpt lat="-27.1056070" lon="152.5602751">
<ele>102.373</ele>
<time>2015-12-17T23:46:56.012Z</time>
</trkpt>
<trkpt lat="-27.1052174" lon="152.5602306">
<ele>102.164</ele>
<time>2015-12-17T23:46:58.758Z</time>
</trkpt>
<trkpt lat="-27.1049458" lon="152.5601521">
<ele>102.363</ele>
<time>2015-12-17T23:47:00.706Z</time>
</trkpt>
<trkpt lat="-27.1045151" lon="152.5601807">
<ele>102.515</ele>
<time>2015-12-17T23:47:03.755Z</time>
</trkpt>
<trkpt lat="-27.1041009" lon="152.5603192">
<ele>102.079</ele>
<time>2015-12-17T23:47:06.808Z</time>
</trkpt>
<trkpt lat="-27.1038218" lon="152.5603606">
<ele>101.215</ele>
<time>2015-12-17T23:47:08.765Z</time>
</trkpt>
<trkpt lat="-27.1035411" lon="152.5603366">
<ele>100.518</ele>
<time>2015-12-17T23:47:10.676Z</time>
</trkpt>
<trkpt lat="-27.1031411" lon="152.5601352">
<ele>100.433</ele>
<time>2015-12-17T23:47:13.586Z</time>
</trkpt>
<trkpt lat="-27.1029377" lon="152.5599325">
<ele>101.020</ele>
<time>2015-12-17T23:47:15.440Z</time>
</trkpt>
<trkpt lat="-27.1026737" lon="152.5595040">
<ele>101.931</ele>
<time>2015-12-17T23:47:18.807Z</time>
</trkpt>
<trkpt lat="-27.1024867" lon="152.5592366">
<ele>102.694</ele>
<time>2015-12-17T23:47:21.378Z</time>
</trkpt>
<trkpt lat="-27.1022309" lon="152.5588671">
<ele>103.067</ele>
<time>2015-12-17T23:47:25.417Z</time>
</trkpt>
<trkpt lat="-27.1020844" lon="152.5586481">
<ele>103.052</ele>
<time>2015-12-17T23:47:27.818Z</time>
</trkpt>
<trkpt lat="-27.1018495" lon="152.5583869">
<ele>102.706</ele>
<time>2015-12-17T23:47:30.814Z</time>
</trkpt>
<trkpt lat="-27.1015707" lon="152.5583235">
<ele>101.902</ele>
<time>2015-12-17T23:47:33.073Z</time>
</trkpt>
<trkpt lat="-27.1013660" lon="152.5583689">
<ele>100.666</ele>
<time>2015-12-17T23:47:34.625Z</time>
</trkpt>
<trkpt lat="-27.1011195" lon="152.5586527">
<ele>99.466</ele>
<time>2015-12-17T23:47:37.015Z</time>
</trkpt>
<trkpt lat="-27.1010019" lon="152.5588923">
<ele>98.749</ele>
<time>2015-12-17T23:47:38.589Z</time>
</trkpt>
<trkpt lat="-27.1008702" lon="152.5593750">
<ele>98.524</ele>
<time>2015-12-17T23:47:41.492Z</time>
</trkpt>
<trkpt lat="-27.1007878" lon="152.5597056">
<ele>98.951</ele>
<time>2015-12-17T23:47:43.476Z</time>
</trkpt>
<trkpt lat="-27.1006431" lon="152.5601829">
<ele>100.639</ele>
<time>2015-12-17T23:47:46.463Z</time>
</trkpt>
<trkpt lat="-27.1005000" lon="152.5606665">
<ele>103.877</ele>
<time>2015-12-17T23:47:49.625Z</time>
</trkpt>
<trkpt lat="-27.1003897" lon="152.5611372">
<ele>107.571</ele>
<time>2015-12-17T23:47:52.896Z</time>
</trkpt>
<trkpt lat="-27.1003878" lon="152.5616120">
<ele>110.161</ele>
<time>2015-12-17T23:47:56.368Z</time>
</trkpt>
<trkpt lat="-27.1003932" lon="152.5619257">
<ele>111.297</ele>
<time>2015-12-17T23:47:58.729Z</time>
</trkpt>
<trkpt lat="-27.1003028" lon="152.5623314">
<ele>111.629</ele>
<time>2015-12-17T23:48:01.633Z</time>
</trkpt>
<trkpt lat="-27.1001751" lon="152.5625386">
<ele>111.747</ele>
<time>2015-12-17T23:48:03.186Z</time>
</trkpt>
<trkpt lat="-27.0998982" lon="152.5627775">
<ele>111.928</ele>
<time>2015-12-17T23:48:05.492Z</time>
</trkpt>
<trkpt lat="-27.0994967" lon="152.5628198">
<ele>112.090</ele>
<time>2015-12-17T23:48:08.028Z</time>
</trkpt>
<trkpt lat="-27.0990172" lon="152.5627058">
<ele>112.117</ele>
<time>2015-12-17T23:48:11.365Z</time>
</trkpt>
<trkpt lat="-27.0985464" lon="152.5625907">
<ele>111.973</ele>
<time>2015-12-17T23:48:14.943Z</time>
</trkpt>
<trkpt lat="-27.0982556" lon="152.5626344">
<ele>111.093</ele>
<time>2015-12-17T23:48:17.161Z</time>
</trkpt>
<trkpt lat="-27.0978994" lon="152.5627805">
<ele>108.976</ele>
<time>2015-12-17T23:48:20.050Z</time>
</trkpt>
<trkpt lat="-27.0974850" lon="152.5628299">
<ele>106.405</ele>
<time>2015-12-17T23:48:23.274Z</time>
</trkpt>
<trkpt lat="-27.0972350" lon="152.5627554">
<ele>104.665</ele>
<time>2015-12-17T23:48:25.284Z</time>
</trkpt>
<trkpt lat="-27.0968906" lon="152.5625399">
<ele>104.127</ele>
<time>2015-12-17T23:48:28.288Z</time>
</trkpt>
<trkpt lat="-27.0966623" lon="152.5624217">
<ele>104.427</ele>
<time>2015-12-17T23:48:30.243Z</time>
</trkpt>
<trkpt lat="-27.0964053" lon="152.5623530">
<ele>105.016</ele>
<time>2015-12-17T23:48:32.342Z</time>
</trkpt>
<trkpt lat="-27.0961419" lon="152.5623543">
<ele>105.593</ele>
<time>2015-12-17T23:48:34.506Z</time>
</trkpt>
<trkpt lat="-27.0958709" lon="152.5623253">
<ele>106.194</ele>
<time>2015-12-17T23:48:36.724Z</time>
</trkpt>
<trkpt lat="-27.0955461" lon="152.5621687">
<ele>106.794</ele>
<time>2015-12-17T23:48:39.505Z</time>
</trkpt>
<trkpt lat="-27.0953235" lon="152.5620410">
<ele>107.146</ele>
<time>2015-12-17T23:48:41.430Z</time>
</trkpt>
<trkpt lat="-27.0949455" lon="152.5620237">
<ele>107.127</ele>
<time>2015-12-17T23:48:44.337Z</time>
</trkpt>
<trkpt lat="-27.0946912" lon="152.5620355">
<ele>106.924</ele>
<time>2015-12-17T23:48:46.290Z</time>
</trkpt>
<trkpt lat="-27.0944309" lon="152.5619897">
<ele>106.836</ele>
<time>2015-12-17T23:48:48.328Z</time>
</trkpt>
<trkpt lat="-27.0940403" lon="152.5619819">
<ele>107.036</ele>
<time>2015-12-17T23:48:51.296Z</time>
</trkpt>
<trkpt lat="-27.0937825" lon="152.5620420">
<ele>107.413</ele>
<time>2015-12-17T23:48:53.222Z</time>
</trkpt>
<trkpt lat="-27.0933998" lon="152.5619986">
<ele>107.777</ele>
<time>2015-12-17T23:48:55.925Z</time>
</trkpt>
<trkpt lat="-27.0930166" lon="152.5618436">
<ele>108.113</ele>
<time>2015-12-17T23:48:58.763Z</time>
</trkpt>
<trkpt lat="-27.0927440" lon="152.5617842">
<ele>108.557</ele>
<time>2015-12-17T23:49:00.687Z</time>
</trkpt>
<trkpt lat="-27.0924485" lon="152.5618092">
<ele>109.138</ele>
<time>2015-12-17T23:49:02.696Z</time>
</trkpt>
<trkpt lat="-27.0920402" lon="152.5619601">
<ele>109.743</ele>
<time>2015-12-17T23:49:05.619Z</time>
</trkpt>
<trkpt lat="-27.0917948" lon="152.5621485">
<ele>110.250</ele>
<time>2015-12-17T23:49:07.679Z</time>
</trkpt>
<trkpt lat="-27.0914639" lon="152.5624760">
<ele>110.579</ele>
<time>2015-12-17T23:49:10.555Z</time>
</trkpt>
<trkpt lat="-27.0912530" lon="152.5626781">
<ele>110.738</ele>
<time>2015-12-17T23:49:12.191Z</time>
</trkpt>
<trkpt lat="-27.0909920" lon="152.5628067">
<ele>110.825</ele>
<time>2015-12-17T23:49:13.757Z</time>
</trkpt>
<trkpt lat="-27.0906814" lon="152.5628764">
<ele>110.852</ele>
<time>2015-12-17T23:49:15.501Z</time>
</trkpt>
<trkpt lat="-27.0903191" lon="152.5628849">
<ele>110.811</ele>
<time>2015-12-17T23:49:17.523Z</time>
</trkpt>
<trkpt lat="-27.0897552" lon="152.5628843">
<ele>110.753</ele>
<time>2015-12-17T23:49:20.777Z</time>
</trkpt>
<trkpt lat="-27.0894079" lon="152.5628600">
<ele>110.558</ele>
<time>2015-12-17T23:49:22.791Z</time>
</trkpt>
<trkpt lat="-27.0890961" lon="152.5627093">
<ele>110.061</ele>
<time>2015-12-17T23:49:24.744Z</time>
</trkpt>
<trkpt lat="-27.0887003" lon="152.5623595">
<ele>109.461</ele>
<time>2015-12-17T23:49:27.648Z</time>
</trkpt>
<trkpt lat="-27.0884889" lon="152.5620563">
<ele>109.404</ele>
<time>2015-12-17T23:49:29.666Z</time>
</trkpt>
<trkpt lat="-27.0881819" lon="152.5615769">
<ele>110.526</ele>
<time>2015-12-17T23:49:33.002Z</time>
</trkpt>
<trkpt lat="-27.0879006" lon="152.5611101">
<ele>112.461</ele>
<time>2015-12-17T23:49:36.552Z</time>
</trkpt>
<trkpt lat="-27.0877470" lon="152.5608133">
<ele>113.888</ele>
<time>2015-12-17T23:49:39.081Z</time>
</trkpt>
<trkpt lat="-27.0875434" lon="152.5603810">
<ele>114.015</ele>
<time>2015-12-17T23:49:42.901Z</time>
</trkpt>
<trkpt lat="-27.0874005" lon="152.5601560">
<ele>112.880</ele>
<time>2015-12-17T23:49:45.078Z</time>
</trkpt>
<trkpt lat="-27.0870814" lon="152.5599982">
<ele>110.470</ele>
<time>2015-12-17T23:49:47.844Z</time>
</trkpt>
<trkpt lat="-27.0867499" lon="152.5600434">
<ele>107.244</ele>
<time>2015-12-17T23:49:50.254Z</time>
</trkpt>
<trkpt lat="-27.0865661" lon="152.5601971">
<ele>104.549</ele>
<time>2015-12-17T23:49:51.877Z</time>
</trkpt>
<trkpt lat="-27.0864120" lon="152.5604373">
<ele>103.459</ele>
<time>2015-12-17T23:49:53.772Z</time>
</trkpt>
<trkpt lat="-27.0862706" lon="152.5607322">
<ele>104.319</ele>
<time>2015-12-17T23:49:55.913Z</time>
</trkpt>
<trkpt lat="-27.0860562" lon="152.5611385">
<ele>106.909</ele>
<time>2015-12-17T23:49:58.882Z</time>
</trkpt>
<trkpt lat="-27.0857814" lon="152.5614921">
<ele>110.291</ele>
<time>2015-12-17T23:50:01.742Z</time>
</trkpt>
<trkpt lat="-27.0855443" lon="152.5616784">
<ele>113.300</ele>
<time>2015-12-17T23:50:03.655Z</time>
</trkpt>
<trkpt lat="-27.0851256" lon="152.5618323">
<ele>115.306</ele>
<time>2015-12-17T23:50:06.399Z</time>
</trkpt>
<trkpt lat="-27.0846590" lon="152.5618352">
<ele>116.474</ele>
<time>2015-12-17T23:50:09.222Z</time>
</trkpt>
<trkpt lat="-27.0843475" lon="152.5617370">
<ele>117.390</ele>
<time>2015-12-17T23:50:11.193Z</time>
</trkpt>
<trkpt lat="-27.0838989" lon="152.5615512">
<ele>118.290</ele>
<time>2015-12-17T23:50:14.200Z</time>
</trkpt>
<trkpt lat="-27.0835935" lon="152.5614066">
<ele>119.059</ele>
<time>2015-12-17T23:50:16.344Z</time>
</trkpt>
<trkpt lat="-27.0832946" lon="152.5612782">
<ele>119.559</ele>
<time>2015-12-17T23:50:18.433Z</time>
</trkpt>
<trkpt lat="-27.0829948" lon="152.5612063">
<ele>119.776</ele>
<time>2015-12-17T23:50:20.443Z</time>
</trkpt>
<trkpt lat="-27.0825355" lon="152.5613230">
<ele>119.795</ele>
<time>2015-12-17T23:50:23.592Z</time>
</trkpt>
<trkpt lat="-27.0823018" lon="152.5615526">
<ele>119.766</ele>
<time>2015-12-17T23:50:25.675Z</time>
</trkpt>
<trkpt lat="-27.0820910" lon="152.5617940">
<ele>119.941</ele>
<time>2015-12-17T23:50:27.599Z</time>
</trkpt>
<trkpt lat="-27.0818601" lon="152.5619903">
<ele>120.641</ele>
<time>2015-12-17T23:50:29.413Z</time>
</trkpt>
<trkpt lat="-27.0814187" lon="152.5621241">
<ele>121.708</ele>
<time>2015-12-17T23:50:32.177Z</time>
</trkpt>
<trkpt lat="-27.0809281" lon="152.5620560">
<ele>122.354</ele>
<time>2015-12-17T23:50:35.103Z</time>
</trkpt>
<trkpt lat="-27.0805365" lon="152.5617149">
<ele>121.822</ele>
<time>2015-12-17T23:50:38.063Z</time>
</trkpt>
<trkpt lat="-27.0802130" lon="152.5612842">
<ele>120.219</ele>
<time>2015-12-17T23:50:41.185Z</time>
</trkpt>
<trkpt lat="-27.0799590" lon="152.5610225">
<ele>117.913</ele>
<time>2015-12-17T23:50:43.345Z</time>
</trkpt>
<trkpt lat="-27.0796762" lon="152.5608669">
<ele>114.922</ele>
<time>2015-12-17T23:50:45.308Z</time>
</trkpt>
<trkpt lat="-27.0793603" lon="152.5608088">
<ele>111.771</ele>
<time>2015-12-17T23:50:47.298Z</time>
</trkpt>
<trkpt lat="-27.0788896" lon="152.5608932">
<ele>109.527</ele>
<time>2015-12-17T23:50:50.277Z</time>
</trkpt>
<trkpt lat="-27.0784959" lon="152.5612074">
<ele>108.053</ele>
<time>2015-12-17T23:50:53.275Z</time>
</trkpt>
<trkpt lat="-27.0783251" lon="152.5614974">
<ele>106.645</ele>
<time>2015-12-17T23:50:55.113Z</time>
</trkpt>
<trkpt lat="-27.0782236" lon="152.5620177">
<ele>105.512</ele>
<time>2015-12-17T23:50:57.828Z</time>
</trkpt>
<trkpt lat="-27.0782549" lon="152.5623876">
<ele>105.482</ele>
<time>2015-12-17T23:50:59.648Z</time>
</trkpt>
<trkpt lat="-27.0784188" lon="152.5629558">
<ele>106.607</ele>
<time>2015-12-17T23:51:02.565Z</time>
</trkpt>
<trkpt lat="-27.0785254" lon="152.5633347">
<ele>108.066</ele>
<time>2015-12-17T23:51:04.550Z</time>
</trkpt>
<trkpt lat="-27.0786448" lon="152.5637328">
<ele>109.599</ele>
<time>2015-12-17T23:51:06.704Z</time>
</trkpt>
<trkpt lat="-27.0787589" lon="152.5641136">
<ele>111.436</ele>
<time>2015-12-17T23:51:08.822Z</time>
</trkpt>
<trkpt lat="-27.0789306" lon="152.5646718">
<ele>113.057</ele>
<time>2015-12-17T23:51:12.022Z</time>
</trkpt>
<trkpt lat="-27.0790307" lon="152.5650194">
<ele>114.213</ele>
<time>2015-12-17T23:51:14.031Z</time>
</trkpt>
<trkpt lat="-27.0790930" lon="152.5653793">
<ele>115.182</ele>
<time>2015-12-17T23:51:16.070Z</time>
</trkpt>
<trkpt lat="-27.0790546" lon="152.5659152">
<ele>115.906</ele>
<time>2015-12-17T23:51:19.065Z</time>
</trkpt>
<trkpt lat="-27.0789574" lon="152.5662562">
<ele>116.564</ele>
<time>2015-12-17T23:51:21.030Z</time>
</trkpt>
<trkpt lat="-27.0786747" lon="152.5666551">
<ele>117.497</ele>
<time>2015-12-17T23:51:23.758Z</time>
</trkpt>
<trkpt lat="-27.0784208" lon="152.5668779">
<ele>118.477</ele>
<time>2015-12-17T23:51:25.679Z</time>
</trkpt>
<trkpt lat="-27.0781243" lon="152.5670419">
<ele>119.108</ele>
<time>2015-12-17T23:51:27.651Z</time>
</trkpt>
<trkpt lat="-27.0776013" lon="152.5670951">
<ele>119.220</ele>
<time>2015-12-17T23:51:30.845Z</time>
</trkpt>
<trkpt lat="-27.0771239" lon="152.5669542">
<ele>118.618</ele>
<time>2015-12-17T23:51:33.808Z</time>
</trkpt>
<trkpt lat="-27.0767109" lon="152.5666534">
<ele>117.130</ele>
<time>2015-12-17T23:51:36.763Z</time>
</trkpt>
<trkpt lat="-27.0764589" lon="152.5663928">
<ele>114.844</ele>
<time>2015-12-17T23:51:38.866Z</time>
</trkpt>
<trkpt lat="-27.0760506" lon="152.5660760">
<ele>112.139</ele>
<time>2015-12-17T23:51:41.952Z</time>
</trkpt>
<trkpt lat="-27.0756176" lon="152.5659163">
<ele>109.722</ele>
<time>2015-12-17T23:51:44.597Z</time>
</trkpt>
<trkpt lat="-27.0753286" lon="152.5657675">
<ele>108.226</ele>
<time>2015-12-17T23:51:46.375Z</time>
</trkpt>
<trkpt lat="-27.0750332" lon="152.5655566">
<ele>107.648</ele>
<time>2015-12-17T23:51:48.264Z</time>
</trkpt>
<trkpt lat="-27.0745769" lon="152.5651999">
<ele>107.462</ele>
<time>2015-12-17T23:51:51.238Z</time>
</trkpt>
<trkpt lat="-27.0740769" lon="152.5649119">
<ele>107.181</ele>
<time>2015-12-17T23:51:54.346Z</time>
</trkpt>
<trkpt lat="-27.0737415" lon="152.5647262">
<ele>106.733</ele>
<time>2015-12-17T23:51:56.506Z</time>
</trkpt>
<trkpt lat="-27.0732711" lon="152.5644721">
<ele>106.758</ele>
<time>2015-12-17T23:51:59.522Z</time>
</trkpt>
<trkpt lat="-27.0730203" lon="152.5642518">
<ele>107.716</ele>
<time>2015-12-17T23:52:01.427Z</time>
</trkpt>
<trkpt lat="-27.0726446" lon="152.5638385">
<ele>109.014</ele>
<time>2015-12-17T23:52:04.988Z</time>
</trkpt>
<trkpt lat="-27.0724210" lon="152.5635626">
<ele>109.795</ele>
<time>2015-12-17T23:52:07.554Z</time>
</trkpt>
<trkpt lat="-27.0721689" lon="152.5631473">
<ele>109.744</ele>
<time>2015-12-17T23:52:11.171Z</time>
</trkpt>
<trkpt lat="-27.0720906" lon="152.5628769">
<ele>109.077</ele>
<time>2015-12-17T23:52:13.328Z</time>
</trkpt>
<trkpt lat="-27.0720700" lon="152.5624433">
<ele>108.406</ele>
<time>2015-12-17T23:52:16.905Z</time>
</trkpt>
<trkpt lat="-27.0720739" lon="152.5621798">
<ele>108.122</ele>
<time>2015-12-17T23:52:19.210Z</time>
</trkpt>
<trkpt lat="-27.0720390" lon="152.5619238">
<ele>107.944</ele>
<time>2015-12-17T23:52:21.447Z</time>
</trkpt>
<trkpt lat="-27.0718113" lon="152.5616765">
<ele>107.201</ele>
<time>2015-12-17T23:52:24.181Z</time>
</trkpt>
<trkpt lat="-27.0716062" lon="152.5616553">
<ele>105.489</ele>
<time>2015-12-17T23:52:25.838Z</time>
</trkpt>
<trkpt lat="-27.0713276" lon="152.5618203">
<ele>103.401</ele>
<time>2015-12-17T23:52:28.133Z</time>
</trkpt>
<trkpt lat="-27.0711920" lon="152.5620392">
<ele>101.987</ele>
<time>2015-12-17T23:52:29.818Z</time>
</trkpt>
<trkpt lat="-27.0710349" lon="152.5624472">
<ele>101.760</ele>
<time>2015-12-17T23:52:32.559Z</time>
</trkpt>
<trkpt lat="-27.0708342" lon="152.5628766">
<ele>103.131</ele>
<time>2015-12-17T23:52:35.489Z</time>
</trkpt>
<trkpt lat="-27.0706336" lon="152.5631089">
<ele>105.996</ele>
<time>2015-12-17T23:52:37.328Z</time>
</trkpt>
<trkpt lat="-27.0702883" lon="152.5634090">
<ele>108.959</ele>
<time>2015-12-17T23:52:40.026Z</time>
</trkpt>
<trkpt lat="-27.0699328" lon="152.5635435">
<ele>111.291</ele>
<time>2015-12-17T23:52:42.326Z</time>
</trkpt>
<trkpt lat="-27.0696045" lon="152.5636119">
<ele>113.313</ele>
<time>2015-12-17T23:52:44.416Z</time>
</trkpt>
<trkpt lat="-27.0691234" lon="152.5635674">
<ele>114.709</ele>
<time>2015-12-17T23:52:47.444Z</time>
</trkpt>
<trkpt lat="-27.0688230" lon="152.5634464">
<ele>114.881</ele>
<time>2015-12-17T23:52:49.373Z</time>
</trkpt>
<trkpt lat="-27.0685591" lon="152.5632828">
<ele>114.071</ele>
<time>2015-12-17T23:52:51.150Z</time>
</trkpt>
<trkpt lat="-27.0682227" lon="152.5629080">
<ele>113.001</ele>
<time>2015-12-17T23:52:53.979Z</time>
</trkpt>
<trkpt lat="-27.0680656" lon="152.5625614">
<ele>112.138</ele>
<time>2015-12-17T23:52:56.127Z</time>
</trkpt>
<trkpt lat="-27.0678626" lon="152.5620362">
<ele>111.400</ele>
<time>2015-12-17T23:52:59.552Z</time>
</trkpt>
<trkpt lat="-27.0676000" lon="152.5615970">
<ele>110.491</ele>
<time>2015-12-17T23:53:02.512Z</time>
</trkpt>
<trkpt lat="-27.0673621" lon="152.5614007">
<ele>108.803</ele>
<time>2015-12-17T23:53:04.184Z</time>
</trkpt>
<trkpt lat="-27.0671034" lon="152.5612511">
<ele>106.425</ele>
<time>2015-12-17T23:53:05.776Z</time>
</trkpt>
<trkpt lat="-27.0666439" lon="152.5610361">
<ele>104.769</ele>
<time>2015-12-17T23:53:08.335Z</time>
</trkpt>
<trkpt lat="-27.0661190" lon="152.5607984">
<ele>104.959</ele>
<time>2015-12-17T23:53:11.217Z</time>
</trkpt>
<trkpt lat="-27.0657576" lon="152.5605927">
<ele>106.724</ele>
<time>2015-12-17T23:53:13.314Z</time>
</trkpt>
<trkpt lat="-27.0653962" lon="152.5604181">
<ele>108.949</ele>
<time>2015-12-17T23:53:15.361Z</time>
</trkpt>
<trkpt lat="-27.0650450" lon="152.5602470">
<ele>110.361</ele>
<time>2015-12-17T23:53:17.382Z</time>
</trkpt>
<trkpt lat="-27.0645197" lon="152.5599939">
<ele>110.581</ele>
<time>2015-12-17T23:53:20.569Z</time>
</trkpt>
<trkpt lat="-27.0641775" lon="152.5598141">
<ele>110.961</ele>
<time>2015-12-17T23:53:22.790Z</time>
</trkpt>
<trkpt lat="-27.0638652" lon="152.5596071">
<ele>112.536</ele>
<time>2015-12-17T23:53:24.918Z</time>
</trkpt>
<trkpt lat="-27.0636413" lon="152.5593293">
<ele>114.010</ele>
<time>2015-12-17T23:53:26.835Z</time>
</trkpt>
<trkpt lat="-27.0635062" lon="152.5590066">
<ele>114.051</ele>
<time>2015-12-17T23:53:28.611Z</time>
</trkpt>
<trkpt lat="-27.0634473" lon="152.5584256">
<ele>113.359</ele>
<time>2015-12-17T23:53:31.515Z</time>
</trkpt>
<trkpt lat="-27.0635012" lon="152.5578160">
<ele>112.882</ele>
<time>2015-12-17T23:53:34.688Z</time>
</trkpt>
<trkpt lat="-27.0635053" lon="152.5574079">
<ele>111.718</ele>
<time>2015-12-17T23:53:36.876Z</time>
</trkpt>
<trkpt lat="-27.0635006" lon="152.5570309">
<ele>108.818</ele>
<time>2015-12-17T23:53:38.933Z</time>
</trkpt>
<trkpt lat="-27.0634261" lon="152.5566662">
<ele>105.197</ele>
<time>2015-12-17T23:53:41.035Z</time>
</trkpt>
<trkpt lat="-27.0632717" lon="152.5563437">
<ele>102.388</ele>
<time>2015-12-17T23:53:43.166Z</time>
</trkpt>
<trkpt lat="-27.0629495" lon="152.5559454">
<ele>100.489</ele>
<time>2015-12-17T23:53:46.558Z</time>
</trkpt>
<trkpt lat="-27.0625406" lon="152.5557402">
<ele>99.168</ele>
<time>2015-12-17T23:53:49.793Z</time>
</trkpt>
<trkpt lat="-27.0622786" lon="152.5556514">
<ele>98.100</ele>
<time>2015-12-17T23:53:51.753Z</time>
</trkpt>
<trkpt lat="-27.0619117" lon="152.5554252">
<ele>97.153</ele>
<time>2015-12-17T23:53:54.728Z</time>
</trkpt>
<trkpt lat="-27.0617265" lon="152.5552007">
<ele>96.494</ele>
<time>2015-12-17T23:53:56.660Z</time>
</trkpt>
<trkpt lat="-27.0614756" lon="152.5548112">
<ele>96.868</ele>
<time>2015-12-17T23:53:59.708Z</time>
</trkpt>
<trkpt lat="-27.0612246" lon="152.5544285">
<ele>98.976</ele>
<time>2015-12-17T23:54:02.725Z</time>
</trkpt>
<trkpt lat="-27.0610404" lon="152.5541885">
<ele>102.525</ele>
<time>2015-12-17T23:54:04.760Z</time>
</trkpt>
<trkpt lat="-27.0608245" lon="152.5539762">
<ele>106.349</ele>
<time>2015-12-17T23:54:06.840Z</time>
</trkpt>
<trkpt lat="-27.0605977" lon="152.5537881">
<ele>109.664</ele>
<time>2015-12-17T23:54:08.854Z</time>
</trkpt>
<trkpt lat="-27.0603641" lon="152.5536343">
<ele>112.609</ele>
<time>2015-12-17T23:54:10.769Z</time>
</trkpt>
<trkpt lat="-27.0599744" lon="152.5535133">
<ele>115.739</ele>
<time>2015-12-17T23:54:13.710Z</time>
</trkpt>
<trkpt lat="-27.0596894" lon="152.5534913">
<ele>119.166</ele>
<time>2015-12-17T23:54:15.881Z</time>
</trkpt>
<trkpt lat="-27.0594113" lon="152.5534634">
<ele>122.843</ele>
<time>2015-12-17T23:54:18.043Z</time>
</trkpt>
<trkpt lat="-27.0591408" lon="152.5534602">
<ele>126.721</ele>
<time>2015-12-17T23:54:20.141Z</time>
</trkpt>
<trkpt lat="-27.0588951" lon="152.5535412">
<ele>130.406</ele>
<time>2015-12-17T23:54:22.029Z</time>
</trkpt>
<trkpt lat="-27.0586087" lon="152.5538182">
<ele>133.540</ele>
<time>2015-12-17T23:54:24.727Z</time>
</trkpt>
<trkpt lat="-27.0585161" lon="152.5540827">
<ele>136.424</ele>
<time>2015-12-17T23:54:26.498Z</time>
</trkpt>
<trkpt lat="-27.0584635" lon="152.5545619">
<ele>139.521</ele>
<time>2015-12-17T23:54:29.478Z</time>
</trkpt>
<trkpt lat="-27.0583567" lon="152.5550285">
<ele>143.086</ele>
<time>2015-12-17T23:54:32.398Z</time>
</trkpt>
<trkpt lat="-27.0581951" lon="152.5553088">
<ele>147.239</ele>
<time>2015-12-17T23:54:34.357Z</time>
</trkpt>
<trkpt lat="-27.0579829" lon="152.5555240">
<ele>151.774</ele>
<time>2015-12-17T23:54:36.204Z</time>
</trkpt>
<trkpt lat="-27.0575526" lon="152.5556597">
<ele>156.227</ele>
<time>2015-12-17T23:54:38.902Z</time>
</trkpt>
<trkpt lat="-27.0570942" lon="152.5555793">
<ele>160.390</ele>
<time>2015-12-17T23:54:41.640Z</time>
</trkpt>
<trkpt lat="-27.0567697" lon="152.5554859">
<ele>164.801</ele>
<time>2015-12-17T23:54:43.651Z</time>
</trkpt>
<trkpt lat="-27.0562619" lon="152.5553727">
<ele>169.858</ele>
<time>2015-12-17T23:54:46.856Z</time>
</trkpt>
<trkpt lat="-27.0559447" lon="152.5552906">
<ele>175.143</ele>
<time>2015-12-17T23:54:48.944Z</time>
</trkpt>
<trkpt lat="-27.0556191" lon="152.5551996">
<ele>179.932</ele>
<time>2015-12-17T23:54:51.227Z</time>
</trkpt>
<trkpt lat="-27.0551488" lon="152.5550598">
<ele>183.924</ele>
<time>2015-12-17T23:54:54.703Z</time>
</trkpt>
<trkpt lat="-27.0548652" lon="152.5549840">
<ele>186.865</ele>
<time>2015-12-17T23:54:56.774Z</time>
</trkpt>
<trkpt lat="-27.0546010" lon="152.5549358">
<ele>188.479</ele>
<time>2015-12-17T23:54:58.680Z</time>
</trkpt>
<trkpt lat="-27.0541814" lon="152.5549099">
<ele>188.808</ele>
<time>2015-12-17T23:55:01.838Z</time>
</trkpt>
<trkpt lat="-27.0537441" lon="152.5549052">
<ele>188.062</ele>
<time>2015-12-17T23:55:05.436Z</time>
</trkpt>
<trkpt lat="-27.0534729" lon="152.5548969">
<ele>186.131</ele>
<time>2015-12-17T23:55:07.809Z</time>
</trkpt>
<trkpt lat="-27.0531036" lon="152.5548127">
<ele>183.256</ele>
<time>2015-12-17T23:55:11.054Z</time>
</trkpt>
<trkpt lat="-27.0528952" lon="152.5546988">
<ele>180.027</ele>
<time>2015-12-17T23:55:12.996Z</time>
</trkpt>
<trkpt lat="-27.0527268" lon="152.5545491">
<ele>176.984</ele>
<time>2015-12-17T23:55:14.713Z</time>
</trkpt>
<trkpt lat="-27.0524981" lon="152.5542823">
<ele>174.658</ele>
<time>2015-12-17T23:55:17.197Z</time>
</trkpt>
<trkpt lat="-27.0522311" lon="152.5540072">
<ele>173.365</ele>
<time>2015-12-17T23:55:19.829Z</time>
</trkpt>
<trkpt lat="-27.0520553" lon="152.5537862">
<ele>173.051</ele>
<time>2015-12-17T23:55:21.758Z</time>
</trkpt>
<trkpt lat="-27.0518676" lon="152.5533944">
<ele>173.338</ele>
<time>2015-12-17T23:55:24.808Z</time>
</trkpt>
<trkpt lat="-27.0516956" lon="152.5529660">
<ele>173.303</ele>
<time>2015-12-17T23:55:28.298Z</time>
</trkpt>
<trkpt lat="-27.0516000" lon="152.5525422">
<ele>171.852</ele>
<time>2015-12-17T23:55:31.727Z</time>
</trkpt>
<trkpt lat="-27.0516441" lon="152.5521598">
<ele>168.735</ele>
<time>2015-12-17T23:55:35.022Z</time>
</trkpt>
<trkpt lat="-27.0517089" lon="152.5519100">
<ele>164.606</ele>
<time>2015-12-17T23:55:37.355Z</time>
</trkpt>
<trkpt lat="-27.0517741" lon="152.5516638">
<ele>160.483</ele>
<time>2015-12-17T23:55:39.604Z</time>
</trkpt>
<trkpt lat="-27.0517509" lon="152.5513251">
<ele>157.381</ele>
<time>2015-12-17T23:55:42.269Z</time>
</trkpt>
<trkpt lat="-27.0516381" lon="152.5511402">
<ele>155.032</ele>
<time>2015-12-17T23:55:43.936Z</time>
</trkpt>
<trkpt lat="-27.0513560" lon="152.5510037">
<ele>152.443</ele>
<time>2015-12-17T23:55:46.246Z</time>
</trkpt>
<trkpt lat="-27.0511226" lon="152.5510336">
<ele>149.961</ele>
<time>2015-12-17T23:55:47.916Z</time>
</trkpt>
<trkpt lat="-27.0508281" lon="152.5512916">
<ele>148.595</ele>
<time>2015-12-17T23:55:50.433Z</time>
</trkpt>
<trkpt lat="-27.0505712" lon="152.5516534">
<ele>148.496</ele>
<time>2015-12-17T23:55:53.067Z</time>
</trkpt>
<trkpt lat="-27.0502197" lon="152.5519811">
<ele>149.503</ele>
<time>2015-12-17T23:55:55.910Z</time>
</trkpt>
<trkpt lat="-27.0498055" lon="152.5522343">
<ele>151.096</ele>
<time>2015-12-17T23:55:58.859Z</time>
</trkpt>
<trkpt lat="-27.0494995" lon="152.5523439">
<ele>152.350</ele>
<time>2015-12-17T23:56:00.881Z</time>
</trkpt>
<trkpt lat="-27.0490177" lon="152.5524387">
<ele>152.515</ele>
<time>2015-12-17T23:56:03.900Z</time>
</trkpt>
<trkpt lat="-27.0487141" lon="152.5524433">
<ele>151.232</ele>
<time>2015-12-17T23:56:05.669Z</time>
</trkpt>
<trkpt lat="-27.0482435" lon="152.5523580">
<ele>148.709</ele>
<time>2015-12-17T23:56:08.233Z</time>
</trkpt>
<trkpt lat="-27.0479196" lon="152.5522244">
<ele>145.823</ele>
<time>2015-12-17T23:56:10.005Z</time>
</trkpt>
<trkpt lat="-27.0476029" lon="152.5520279">
<ele>143.226</ele>
<time>2015-12-17T23:56:11.702Z</time>
</trkpt>
<trkpt lat="-27.0471098" lon="152.5516414">
<ele>141.083</ele>
<time>2015-12-17T23:56:14.349Z</time>
</trkpt>
<trkpt lat="-27.0467529" lon="152.5513460">
<ele>139.071</ele>
<time>2015-12-17T23:56:16.201Z</time>
</trkpt>
<trkpt lat="-27.0463873" lon="152.5510363">
<ele>137.018</ele>
<time>2015-12-17T23:56:18.084Z</time>
</trkpt>
<trkpt lat="-27.0459927" lon="152.5506980">
<ele>135.499</ele>
<time>2015-12-17T23:56:20.133Z</time>
</trkpt>
<trkpt lat="-27.0454105" lon="152.5502019">
<ele>134.939</ele>
<time>2015-12-17T23:56:23.224Z</time>
</trkpt>
<trkpt lat="-27.0450402" lon="152.5498815">
<ele>134.692</ele>
<time>2015-12-17T23:56:25.221Z</time>
</trkpt>
<trkpt lat="-27.0444924" lon="152.5494056">
<ele>133.886</ele>
<time>2015-12-17T23:56:28.185Z</time>
</trkpt>
<trkpt lat="-27.0439277" lon="152.5489426">
<ele>132.483</ele>
<time>2015-12-17T23:56:31.202Z</time>
</trkpt>
<trkpt lat="-27.0435675" lon="152.5486217">
<ele>130.876</ele>
<time>2015-12-17T23:56:33.249Z</time>
</trkpt>
<trkpt lat="-27.0432043" lon="152.5483204">
<ele>129.231</ele>
<time>2015-12-17T23:56:35.328Z</time>
</trkpt>
<trkpt lat="-27.0428454" lon="152.5480363">
<ele>127.797</ele>
<time>2015-12-17T23:56:37.378Z</time>
</trkpt>
<trkpt lat="-27.0422841" lon="152.5476808">
<ele>126.774</ele>
<time>2015-12-17T23:56:40.375Z</time>
</trkpt>
<trkpt lat="-27.0418856" lon="152.5475306">
<ele>125.911</ele>
<time>2015-12-17T23:56:42.284Z</time>
</trkpt>
<trkpt lat="-27.0414573" lon="152.5474332">
<ele>125.002</ele>
<time>2015-12-17T23:56:44.237Z</time>
</trkpt>
<trkpt lat="-27.0410196" lon="152.5473907">
<ele>123.916</ele>
<time>2015-12-17T23:56:46.204Z</time>
</trkpt>
<trkpt lat="-27.0403493" lon="152.5474030">
<ele>122.514</ele>
<time>2015-12-17T23:56:49.205Z</time>
</trkpt>
<trkpt lat="-27.0396799" lon="152.5473373">
<ele>121.057</ele>
<time>2015-12-17T23:56:52.119Z</time>
</trkpt>
<trkpt lat="-27.0392512" lon="152.5471989">
<ele>120.110</ele>
<time>2015-12-17T23:56:53.964Z</time>
</trkpt>
<trkpt lat="-27.0388197" lon="152.5469751">
<ele>119.912</ele>
<time>2015-12-17T23:56:55.941Z</time>
</trkpt>
<trkpt lat="-27.0383839" lon="152.5467242">
<ele>120.520</ele>
<time>2015-12-17T23:56:58.025Z</time>
</trkpt>
<trkpt lat="-27.0377475" lon="152.5463404">
<ele>121.666</ele>
<time>2015-12-17T23:57:01.283Z</time>
</trkpt>
<trkpt lat="-27.0373648" lon="152.5461081">
<ele>122.436</ele>
<time>2015-12-17T23:57:03.337Z</time>
</trkpt>
<trkpt lat="-27.0369887" lon="152.5458849">
<ele>121.956</ele>
<time>2015-12-17T23:57:05.351Z</time>
</trkpt>
<trkpt lat="-27.0364418" lon="152.5455409">
<ele>120.505</ele>
<time>2015-12-17T23:57:08.263Z</time>
</trkpt>
<trkpt lat="-27.0358695" lon="152.5452463">
<ele>119.563</ele>
<time>2015-12-17T23:57:11.033Z</time>
</trkpt>
<trkpt lat="-27.0354415" lon="152.5450689">
<ele>119.961</ele>
<time>2015-12-17T23:57:12.983Z</time>
</trkpt>
<trkpt lat="-27.0350021" lon="152.5449483">
<ele>120.757</ele>
<time>2015-12-17T23:57:14.920Z</time>
</trkpt>
<trkpt lat="-27.0342996" lon="152.5448277">
<ele>120.681</ele>
<time>2015-12-17T23:57:17.996Z</time>
</trkpt>
<trkpt lat="-27.0336176" lon="152.5447986">
<ele>119.714</ele>
<time>2015-12-17T23:57:20.982Z</time>
</trkpt>
<trkpt lat="-27.0331653" lon="152.5448303">
<ele>118.724</ele>
<time>2015-12-17T23:57:22.913Z</time>
</trkpt>
<trkpt lat="-27.0324789" lon="152.5449350">
<ele>118.364</ele>
<time>2015-12-17T23:57:25.779Z</time>
</trkpt>
<trkpt lat="-27.0317532" lon="152.5450642">
<ele>118.564</ele>
<time>2015-12-17T23:57:28.764Z</time>
</trkpt>
<trkpt lat="-27.0310265" lon="152.5451705">
<ele>118.916</ele>
<time>2015-12-17T23:57:31.703Z</time>
</trkpt>
<trkpt lat="-27.0305300" lon="152.5452360">
<ele>118.732</ele>
<time>2015-12-17T23:57:33.690Z</time>
</trkpt>
<trkpt lat="-27.0297731" lon="152.5452537">
<ele>117.506</ele>
<time>2015-12-17T23:57:36.691Z</time>
</trkpt>
<trkpt lat="-27.0292744" lon="152.5451968">
<ele>115.574</ele>
<time>2015-12-17T23:57:38.753Z</time>
</trkpt>
<trkpt lat="-27.0287678" lon="152.5450994">
<ele>113.858</ele>
<time>2015-12-17T23:57:40.914Z</time>
</trkpt>
<trkpt lat="-27.0280924" lon="152.5449369">
<ele>113.090</ele>
<time>2015-12-17T23:57:43.842Z</time>
</trkpt>
<trkpt lat="-27.0276267" lon="152.5448966">
<ele>113.544</ele>
<time>2015-12-17T23:57:45.748Z</time>
</trkpt>
<trkpt lat="-27.0271516" lon="152.5449065">
<ele>115.125</ele>
<time>2015-12-17T23:57:47.665Z</time>
</trkpt>
<trkpt lat="-27.0264137" lon="152.5449933">
<ele>117.653</ele>
<time>2015-12-17T23:57:50.573Z</time>
</trkpt>
<trkpt lat="-27.0259088" lon="152.5451308">
<ele>120.369</ele>
<time>2015-12-17T23:57:52.589Z</time>
</trkpt>
<trkpt lat="-27.0251823" lon="152.5454254">
<ele>121.503</ele>
<time>2015-12-17T23:57:55.611Z</time>
</trkpt>
<trkpt lat="-27.0246965" lon="152.5456391">
<ele>119.838</ele>
<time>2015-12-17T23:57:57.690Z</time>
</trkpt>
<trkpt lat="-27.0239905" lon="152.5459491">
<ele>115.852</ele>
<time>2015-12-17T23:58:00.774Z</time>
</trkpt>
<trkpt lat="-27.0233176" lon="152.5462656">
<ele>110.993</ele>
<time>2015-12-17T23:58:03.818Z</time>
</trkpt>
<trkpt lat="-27.0228739" lon="152.5464591">
<ele>106.935</ele>
<time>2015-12-17T23:58:05.869Z</time>
</trkpt>
<trkpt lat="-27.0224477" lon="152.5466547">
<ele>104.661</ele>
<time>2015-12-17T23:58:07.890Z</time>
</trkpt>
<trkpt lat="-27.0220246" lon="152.5468405">
<ele>103.566</ele>
<time>2015-12-17T23:58:09.892Z</time>
</trkpt>
<trkpt lat="-27.0213956" lon="152.5471309">
<ele>102.761</ele>
<time>2015-12-17T23:58:12.937Z</time>
</trkpt>
<trkpt lat="-27.0209754" lon="152.5472963">
<ele>102.819</ele>
<time>2015-12-17T23:58:14.966Z</time>
</trkpt>
<trkpt lat="-27.0205626" lon="152.5473953">
<ele>104.532</ele>
<time>2015-12-17T23:58:16.856Z</time>
</trkpt>
<trkpt lat="-27.0201378" lon="152.5474493">
<ele>107.317</ele>
<time>2015-12-17T23:58:18.773Z</time>
</trkpt>
<trkpt lat="-27.0194642" lon="152.5474642">
<ele>109.918</ele>
<time>2015-12-17T23:58:21.917Z</time>
</trkpt>
<trkpt lat="-27.0190259" lon="152.5474770">
<ele>111.487</ele>
<time>2015-12-17T23:58:24.224Z</time>
</trkpt>
<trkpt lat="-27.0188215" lon="152.5474795">
<ele>111.402</ele>
<time>2015-12-17T23:58:25.336Z</time>
</trkpt>
<trkpt lat="-27.0180878" lon="152.5475081">
<ele>109.327</ele>
<time>2015-12-17T23:58:29.925Z</time>
</trkpt>
<trkpt lat="-27.0177652" lon="152.5475223">
<ele>105.144</ele>
<time>2015-12-17T23:58:32.155Z</time>
</trkpt>
<trkpt lat="-27.0174654" lon="152.5475212">
<ele>99.979</ele>
<time>2015-12-17T23:58:34.285Z</time>
</trkpt>
<trkpt lat="-27.0171805" lon="152.5475345">
<ele>96.051</ele>
<time>2015-12-17T23:58:36.223Z</time>
</trkpt>
<trkpt lat="-27.0168945" lon="152.5475511">
<ele>94.453</ele>
<time>2015-12-17T23:58:37.939Z</time>
</trkpt>
<trkpt lat="-27.0166238" lon="152.5475784">
<ele>94.352</ele>
<time>2015-12-17T23:58:39.453Z</time>
</trkpt>
<trkpt lat="-27.0163043" lon="152.5476418">
<ele>94.777</ele>
<time>2015-12-17T23:58:40.999Z</time>
</trkpt>
<trkpt lat="-27.0159249" lon="152.5477344">
<ele>95.358</ele>
<time>2015-12-17T23:58:42.742Z</time>
</trkpt>
<trkpt lat="-27.0152875" lon="152.5479606">
<ele>96.448</ele>
<time>2015-12-17T23:58:45.563Z</time>
</trkpt>
<trkpt lat="-27.0146073" lon="152.5482881">
<ele>98.760</ele>
<time>2015-12-17T23:58:48.692Z</time>
</trkpt>
<trkpt lat="-27.0141838" lon="152.5485494">
<ele>102.714</ele>
<time>2015-12-17T23:58:50.776Z</time>
</trkpt>
<trkpt lat="-27.0136278" lon="152.5489814">
<ele>107.319</ele>
<time>2015-12-17T23:58:53.689Z</time>
</trkpt>
<trkpt lat="-27.0132875" lon="152.5493309">
<ele>110.813</ele>
<time>2015-12-17T23:58:55.624Z</time>
</trkpt>
<trkpt lat="-27.0129624" lon="152.5497010">
<ele>112.905</ele>
<time>2015-12-17T23:58:57.545Z</time>
</trkpt>
<trkpt lat="-27.0125045" lon="152.5503177">
<ele>114.617</ele>
<time>2015-12-17T23:59:00.476Z</time>
</trkpt>
<trkpt lat="-27.0120593" lon="152.5509836">
<ele>116.496</ele>
<time>2015-12-17T23:59:03.635Z</time>
</trkpt>
<trkpt lat="-27.0117799" lon="152.5513955">
<ele>118.752</ele>
<time>2015-12-17T23:59:05.630Z</time>
</trkpt>
<trkpt lat="-27.0113221" lon="152.5519443">
<ele>121.101</ele>
<time>2015-12-17T23:59:08.496Z</time>
</trkpt>
<trkpt lat="-27.0107631" lon="152.5524434">
<ele>122.047</ele>
<time>2015-12-17T23:59:11.450Z</time>
</trkpt>
<trkpt lat="-27.0103394" lon="152.5527109">
<ele>120.499</ele>
<time>2015-12-17T23:59:13.446Z</time>
</trkpt>
<trkpt lat="-27.0096639" lon="152.5530292">
<ele>117.419</ele>
<time>2015-12-17T23:59:16.478Z</time>
</trkpt>
<trkpt lat="-27.0089676" lon="152.5532148">
<ele>114.189</ele>
<time>2015-12-17T23:59:19.421Z</time>
</trkpt>
<trkpt lat="-27.0085059" lon="152.5532371">
<ele>110.899</ele>
<time>2015-12-17T23:59:21.276Z</time>
</trkpt>
<trkpt lat="-27.0077579" lon="152.5531746">
<ele>107.657</ele>
<time>2015-12-17T23:59:24.203Z</time>
</trkpt>
<trkpt lat="-27.0072419" lon="152.5530845">
<ele>105.373</ele>
<time>2015-12-17T23:59:26.261Z</time>
</trkpt>
<trkpt lat="-27.0067453" lon="152.5530038">
<ele>104.279</ele>
<time>2015-12-17T23:59:28.244Z</time>
</trkpt>
<trkpt lat="-27.0062508" lon="152.5529142">
<ele>103.729</ele>
<time>2015-12-17T23:59:30.223Z</time>
</trkpt>
<trkpt lat="-27.0054929" lon="152.5527725">
<ele>103.851</ele>
<time>2015-12-17T23:59:33.299Z</time>
</trkpt>
<trkpt lat="-27.0049973" lon="152.5526894">
<ele>105.593</ele>
<time>2015-12-17T23:59:35.350Z</time>
</trkpt>
<trkpt lat="-27.0042763" lon="152.5525676">
<ele>109.374</ele>
<time>2015-12-17T23:59:38.488Z</time>
</trkpt>
<trkpt lat="-27.0038297" lon="152.5524910">
<ele>113.861</ele>
<time>2015-12-17T23:59:40.414Z</time>
</trkpt>
<trkpt lat="-27.0033803" lon="152.5524224">
<ele>117.053</ele>
<time>2015-12-17T23:59:42.319Z</time>
</trkpt>
<trkpt lat="-27.0026760" lon="152.5523137">
<ele>118.389</ele>
<time>2015-12-17T23:59:45.201Z</time>
</trkpt>
<trkpt lat="-27.0021858" lon="152.5522323">
<ele>118.587</ele>
<time>2015-12-17T23:59:47.185Z</time>
</trkpt>
<trkpt lat="-27.0017163" lon="152.5521411">
<ele>117.799</ele>
<time>2015-12-17T23:59:49.084Z</time>
</trkpt>
<trkpt lat="-27.0009865" lon="152.5519466">
<ele>115.748</ele>
<time>2015-12-17T23:59:52.042Z</time>
</trkpt>
<trkpt lat="-27.0005099" lon="152.5517658">
<ele>113.125</ele>
<time>2015-12-17T23:59:54.027Z</time>
</trkpt>
<trkpt lat="-27.0000524" lon="152.5515379">
<ele>111.095</ele>
<time>2015-12-17T23:59:55.993Z</time>
</trkpt>
<trkpt lat="-26.9996108" lon="152.5512735">
<ele>109.927</ele>
<time>2015-12-17T23:59:57.933Z</time>
</trkpt>
<trkpt lat="-26.9991722" lon="152.5509702">
<ele>109.272</ele>
<time>2015-12-17T23:59:59.907Z</time>
</trkpt>
<trkpt lat="-26.9985325" lon="152.5504317">
<ele>108.679</ele>
<time>2015-12-18T00:00:02.920Z</time>
</trkpt>
<trkpt lat="-26.9978976" lon="152.5498769">
<ele>107.717</ele>
<time>2015-12-18T00:00:06.001Z</time>
</trkpt>
<trkpt lat="-26.9972931" lon="152.5493481">
<ele>106.400</ele>
<time>2015-12-18T00:00:09.131Z</time>
</trkpt>
<trkpt lat="-26.9967263" lon="152.5488730">
<ele>104.858</ele>
<time>2015-12-18T00:00:12.148Z</time>
</trkpt>
<trkpt lat="-26.9961304" lon="152.5484888">
<ele>102.692</ele>
<time>2015-12-18T00:00:15.030Z</time>
</trkpt>
<trkpt lat="-26.9954694" lon="152.5481667">
<ele>100.003</ele>
<time>2015-12-18T00:00:17.981Z</time>
</trkpt>
<trkpt lat="-26.9949982" lon="152.5479884">
<ele>98.479</ele>
<time>2015-12-18T00:00:20.023Z</time>
</trkpt>
<trkpt lat="-26.9943282" lon="152.5476902">
<ele>99.009</ele>
<time>2015-12-18T00:00:22.930Z</time>
</trkpt>
<trkpt lat="-26.9939047" lon="152.5474183">
<ele>100.513</ele>
<time>2015-12-18T00:00:24.804Z</time>
</trkpt>
<trkpt lat="-26.9934680" lon="152.5470877">
<ele>101.826</ele>
<time>2015-12-18T00:00:26.783Z</time>
</trkpt>
<trkpt lat="-26.9928003" lon="152.5465901">
<ele>102.861</ele>
<time>2015-12-18T00:00:29.800Z</time>
</trkpt>
<trkpt lat="-26.9923591" lon="152.5462515">
<ele>104.045</ele>
<time>2015-12-18T00:00:31.832Z</time>
</trkpt>
<trkpt lat="-26.9917153" lon="152.5457641">
<ele>105.369</ele>
<time>2015-12-18T00:00:34.835Z</time>
</trkpt>
<trkpt lat="-26.9910862" lon="152.5452803">
<ele>106.214</ele>
<time>2015-12-18T00:00:37.814Z</time>
</trkpt>
<trkpt lat="-26.9906679" lon="152.5449583">
<ele>106.174</ele>
<time>2015-12-18T00:00:39.790Z</time>
</trkpt>
<trkpt lat="-26.9900352" lon="152.5444648">
<ele>105.466</ele>
<time>2015-12-18T00:00:42.806Z</time>
</trkpt>
<trkpt lat="-26.9896177" lon="152.5441464">
<ele>104.736</ele>
<time>2015-12-18T00:00:44.798Z</time>
</trkpt>
<trkpt lat="-26.9890016" lon="152.5436683">
<ele>104.454</ele>
<time>2015-12-18T00:00:47.791Z</time>
</trkpt>
<trkpt lat="-26.9884048" lon="152.5431923">
<ele>105.355</ele>
<time>2015-12-18T00:00:50.707Z</time>
</trkpt>
<trkpt lat="-26.9877994" lon="152.5427037">
<ele>108.367</ele>
<time>2015-12-18T00:00:53.607Z</time>
</trkpt>
<trkpt lat="-26.9873933" lon="152.5423554">
<ele>112.594</ele>
<time>2015-12-18T00:00:55.571Z</time>
</trkpt>
<trkpt lat="-26.9868094" lon="152.5417770">
<ele>115.775</ele>
<time>2015-12-18T00:00:58.562Z</time>
</trkpt>
<trkpt lat="-26.9864314" lon="152.5413765">
<ele>116.121</ele>
<time>2015-12-18T00:01:00.554Z</time>
</trkpt>
<trkpt lat="-26.9860617" lon="152.5409693">
<ele>113.585</ele>
<time>2015-12-18T00:01:02.532Z</time>
</trkpt>
<trkpt lat="-26.9854961" lon="152.5403600">
<ele>110.279</ele>
<time>2015-12-18T00:01:05.537Z</time>
</trkpt>
<trkpt lat="-26.9849337" lon="152.5397599">
<ele>108.996</ele>
<time>2015-12-18T00:01:08.557Z</time>
</trkpt>
<trkpt lat="-26.9843739" lon="152.5391859">
<ele>110.728</ele>
<time>2015-12-18T00:01:11.549Z</time>
</trkpt>
<trkpt lat="-26.9839900" lon="152.5388355">
<ele>114.399</ele>
<time>2015-12-18T00:01:13.488Z</time>
</trkpt>
<trkpt lat="-26.9833531" lon="152.5383519">
<ele>117.981</ele>
<time>2015-12-18T00:01:16.447Z</time>
</trkpt>
<trkpt lat="-26.9828985" lon="152.5380726">
<ele>120.120</ele>
<time>2015-12-18T00:01:18.424Z</time>
</trkpt>
<trkpt lat="-26.9821878" lon="152.5376778">
<ele>120.136</ele>
<time>2015-12-18T00:01:21.474Z</time>
</trkpt>
<trkpt lat="-26.9817149" lon="152.5374702">
<ele>118.428</ele>
<time>2015-12-18T00:01:23.442Z</time>
</trkpt>
<trkpt lat="-26.9809859" lon="152.5372241">
<ele>116.605</ele>
<time>2015-12-18T00:01:26.365Z</time>
</trkpt>
<trkpt lat="-26.9804682" lon="152.5370944">
<ele>115.840</ele>
<time>2015-12-18T00:01:28.380Z</time>
</trkpt>
<trkpt lat="-26.9799477" lon="152.5369886">
<ele>115.685</ele>
<time>2015-12-18T00:01:30.395Z</time>
</trkpt>
<trkpt lat="-26.9794277" lon="152.5369005">
<ele>115.267</ele>
<time>2015-12-18T00:01:32.416Z</time>
</trkpt>
<trkpt lat="-26.9786653" lon="152.5367623">
<ele>114.193</ele>
<time>2015-12-18T00:01:35.405Z</time>
</trkpt>
<trkpt lat="-26.9781593" lon="152.5366802">
<ele>112.831</ele>
<time>2015-12-18T00:01:37.403Z</time>
</trkpt>
<trkpt lat="-26.9776586" lon="152.5365864">
<ele>111.851</ele>
<time>2015-12-18T00:01:39.414Z</time>
</trkpt>
<trkpt lat="-26.9769244" lon="152.5364701">
<ele>111.803</ele>
<time>2015-12-18T00:01:42.371Z</time>
</trkpt>
<trkpt lat="-26.9764313" lon="152.5363889">
<ele>113.264</ele>
<time>2015-12-18T00:01:44.329Z</time>
</trkpt>
<trkpt lat="-26.9756765" lon="152.5362587">
<ele>115.968</ele>
<time>2015-12-18T00:01:47.280Z</time>
</trkpt>
<trkpt lat="-26.9749116" lon="152.5361273">
<ele>118.392</ele>
<time>2015-12-18T00:01:50.277Z</time>
</trkpt>
<trkpt lat="-26.9744042" lon="152.5360349">
<ele>119.126</ele>
<time>2015-12-18T00:01:52.329Z</time>
</trkpt>
<trkpt lat="-26.9736889" lon="152.5359213">
<ele>117.462</ele>
<time>2015-12-18T00:01:55.248Z</time>
</trkpt>
<trkpt lat="-26.9732027" lon="152.5358305">
<ele>113.444</ele>
<time>2015-12-18T00:01:57.223Z</time>
</trkpt>
<trkpt lat="-26.9724607" lon="152.5356993">
<ele>108.784</ele>
<time>2015-12-18T00:02:00.201Z</time>
</trkpt>
<trkpt lat="-26.9719592" lon="152.5355985">
<ele>105.866</ele>
<time>2015-12-18T00:02:02.208Z</time>
</trkpt>
<trkpt lat="-26.9712075" lon="152.5354687">
<ele>105.434</ele>
<time>2015-12-18T00:02:05.192Z</time>
</trkpt>
<trkpt lat="-26.9704489" lon="152.5353554">
<ele>106.414</ele>
<time>2015-12-18T00:02:08.197Z</time>
</trkpt>
<trkpt lat="-26.9697023" lon="152.5352503">
<ele>108.329</ele>
<time>2015-12-18T00:02:11.152Z</time>
</trkpt>
<trkpt lat="-26.9691907" lon="152.5351870">
<ele>111.036</ele>
<time>2015-12-18T00:02:13.153Z</time>
</trkpt>
<trkpt lat="-26.9684316" lon="152.5351009">
<ele>113.146</ele>
<time>2015-12-18T00:02:16.123Z</time>
</trkpt>
<trkpt lat="-26.9679221" lon="152.5350437">
<ele>112.792</ele>
<time>2015-12-18T00:02:18.108Z</time>
</trkpt>
<trkpt lat="-26.9674124" lon="152.5349885">
<ele>110.181</ele>
<time>2015-12-18T00:02:20.081Z</time>
</trkpt>
<trkpt lat="-26.9666359" lon="152.5348904">
<ele>107.700</ele>
<time>2015-12-18T00:02:23.089Z</time>
</trkpt>
<trkpt lat="-26.9658628" lon="152.5347849">
<ele>107.303</ele>
<time>2015-12-18T00:02:26.113Z</time>
</trkpt>
<trkpt lat="-26.9651122" lon="152.5346840">
<ele>108.500</ele>
<time>2015-12-18T00:02:29.085Z</time>
</trkpt>
<trkpt lat="-26.9646039" lon="152.5346246">
<ele>109.803</ele>
<time>2015-12-18T00:02:31.085Z</time>
</trkpt>
<trkpt lat="-26.9638436" lon="152.5345431">
<ele>110.362</ele>
<time>2015-12-18T00:02:34.063Z</time>
</trkpt>
<trkpt lat="-26.9633373" lon="152.5344814">
<ele>110.228</ele>
<time>2015-12-18T00:02:36.038Z</time>
</trkpt>
<trkpt lat="-26.9625738" lon="152.5343888">
<ele>109.748</ele>
<time>2015-12-18T00:02:39.007Z</time>
</trkpt>
<trkpt lat="-26.9618127" lon="152.5342994">
<ele>109.287</ele>
<time>2015-12-18T00:02:41.967Z</time>
</trkpt>
<trkpt lat="-26.9610462" lon="152.5342069">
<ele>109.040</ele>
<time>2015-12-18T00:02:44.955Z</time>
</trkpt>
<trkpt lat="-26.9605317" lon="152.5341800">
<ele>109.036</ele>
<time>2015-12-18T00:02:46.964Z</time>
</trkpt>
<trkpt lat="-26.9597720" lon="152.5342097">
<ele>109.425</ele>
<time>2015-12-18T00:02:49.948Z</time>
</trkpt>
<trkpt lat="-26.9592636" lon="152.5343052">
<ele>110.243</ele>
<time>2015-12-18T00:02:51.991Z</time>
</trkpt>
<trkpt lat="-26.9585451" lon="152.5345439">
<ele>111.210</ele>
<time>2015-12-18T00:02:54.969Z</time>
</trkpt>
<trkpt lat="-26.9580906" lon="152.5347710">
<ele>111.968</ele>
<time>2015-12-18T00:02:56.936Z</time>
</trkpt>
<trkpt lat="-26.9574241" lon="152.5351812">
<ele>112.361</ele>
<time>2015-12-18T00:02:59.916Z</time>
</trkpt>
<trkpt lat="-26.9569994" lon="152.5355187">
<ele>112.561</ele>
<time>2015-12-18T00:03:01.953Z</time>
</trkpt>
<trkpt lat="-26.9566040" lon="152.5358631">
<ele>112.839</ele>
<time>2015-12-18T00:03:03.939Z</time>
</trkpt>
<trkpt lat="-26.9560223" lon="152.5363853">
<ele>113.110</ele>
<time>2015-12-18T00:03:06.890Z</time>
</trkpt>
<trkpt lat="-26.9556285" lon="152.5367384">
<ele>112.852</ele>
<time>2015-12-18T00:03:08.866Z</time>
</trkpt>
<trkpt lat="-26.9552342" lon="152.5370915">
<ele>111.478</ele>
<time>2015-12-18T00:03:10.825Z</time>
</trkpt>
<trkpt lat="-26.9546248" lon="152.5376374">
<ele>109.270</ele>
<time>2015-12-18T00:03:13.852Z</time>
</trkpt>
<trkpt lat="-26.9540367" lon="152.5381796">
<ele>107.317</ele>
<time>2015-12-18T00:03:16.817Z</time>
</trkpt>
<trkpt lat="-26.9536471" lon="152.5385400">
<ele>106.211</ele>
<time>2015-12-18T00:03:18.769Z</time>
</trkpt>
<trkpt lat="-26.9530549" lon="152.5391030">
<ele>105.606</ele>
<time>2015-12-18T00:03:21.753Z</time>
</trkpt>
<trkpt lat="-26.9526468" lon="152.5394602">
<ele>104.970</ele>
<time>2015-12-18T00:03:23.752Z</time>
</trkpt>
<trkpt lat="-26.9520379" lon="152.5399831">
<ele>104.132</ele>
<time>2015-12-18T00:03:26.730Z</time>
</trkpt>
<trkpt lat="-26.9516203" lon="152.5403061">
<ele>103.042</ele>
<time>2015-12-18T00:03:28.706Z</time>
</trkpt>
<trkpt lat="-26.9511720" lon="152.5406035">
<ele>101.825</ele>
<time>2015-12-18T00:03:30.742Z</time>
</trkpt>
<trkpt lat="-26.9504955" lon="152.5410058">
<ele>101.022</ele>
<time>2015-12-18T00:03:33.760Z</time>
</trkpt>
<trkpt lat="-26.9500612" lon="152.5412773">
<ele>101.051</ele>
<time>2015-12-18T00:03:35.771Z</time>
</trkpt>
<trkpt lat="-26.9494171" lon="152.5416657">
<ele>101.503</ele>
<time>2015-12-18T00:03:38.891Z</time>
</trkpt>
<trkpt lat="-26.9488438" lon="152.5420163">
<ele>101.315</ele>
<time>2015-12-18T00:03:41.892Z</time>
</trkpt>
<trkpt lat="-26.9485040" lon="152.5422617">
<ele>99.505</ele>
<time>2015-12-18T00:03:43.840Z</time>
</trkpt>
<trkpt lat="-26.9481817" lon="152.5425376">
<ele>96.374</ele>
<time>2015-12-18T00:03:45.798Z</time>
</trkpt>
<trkpt lat="-26.9476862" lon="152.5429690">
<ele>93.502</ele>
<time>2015-12-18T00:03:48.843Z</time>
</trkpt>
<trkpt lat="-26.9473649" lon="152.5432428">
<ele>92.362</ele>
<time>2015-12-18T00:03:50.830Z</time>
</trkpt>
<trkpt lat="-26.9468855" lon="152.5436636">
<ele>93.048</ele>
<time>2015-12-18T00:03:53.878Z</time>
</trkpt>
<trkpt lat="-26.9464106" lon="152.5440531">
<ele>94.455</ele>
<time>2015-12-18T00:03:56.988Z</time>
</trkpt>
<trkpt lat="-26.9461256" lon="152.5442690">
<ele>95.452</ele>
<time>2015-12-18T00:03:59.063Z</time>
</trkpt>
<trkpt lat="-26.9457042" lon="152.5445170">
<ele>95.592</ele>
<time>2015-12-18T00:04:02.260Z</time>
</trkpt>
<trkpt lat="-26.9454644" lon="152.5446559">
<ele>94.698</ele>
<time>2015-12-18T00:04:04.739Z</time>
</trkpt>
<trkpt lat="-26.9452185" lon="152.5447830">
<ele>92.815</ele>
<time>2015-12-18T00:04:10.008Z</time>
</trkpt>
<trkpt lat="-26.9451384" lon="152.5448354">
<ele>90.325</ele>
<time>2015-12-18T00:04:11.336Z</time>
</trkpt>
<trkpt lat="-26.9451086" lon="152.5449372">
<ele>88.005</ele>
<time>2015-12-18T00:04:12.426Z</time>
</trkpt>
<trkpt lat="-26.9451446" lon="152.5451291">
<ele>86.843</ele>
<time>2015-12-18T00:04:13.950Z</time>
</trkpt>
<trkpt lat="-26.9452857" lon="152.5455472">
<ele>87.325</ele>
<time>2015-12-18T00:04:16.804Z</time>
</trkpt>
<trkpt lat="-26.9453889" lon="152.5458983">
<ele>89.298</ele>
<time>2015-12-18T00:04:18.740Z</time>
</trkpt>
<trkpt lat="-26.9454904" lon="152.5463141">
<ele>92.291</ele>
<time>2015-12-18T00:04:20.857Z</time>
</trkpt>
<trkpt lat="-26.9455869" lon="152.5469594">
<ele>95.583</ele>
<time>2015-12-18T00:04:23.911Z</time>
</trkpt>
<trkpt lat="-26.9456460" lon="152.5474268">
<ele>98.696</ele>
<time>2015-12-18T00:04:25.893Z</time>
</trkpt>
<trkpt lat="-26.9456880" lon="152.5479279">
<ele>101.682</ele>
<time>2015-12-18T00:04:27.937Z</time>
</trkpt>
<trkpt lat="-26.9457422" lon="152.5484288">
<ele>104.953</ele>
<time>2015-12-18T00:04:30.028Z</time>
</trkpt>
<trkpt lat="-26.9458365" lon="152.5491079">
<ele>108.269</ele>
<time>2015-12-18T00:04:32.896Z</time>
</trkpt>
<trkpt lat="-26.9459146" lon="152.5495643">
<ele>110.418</ele>
<time>2015-12-18T00:04:34.774Z</time>
</trkpt>
<trkpt lat="-26.9461106" lon="152.5502831">
<ele>110.694</ele>
<time>2015-12-18T00:04:37.744Z</time>
</trkpt>
<trkpt lat="-26.9462958" lon="152.5507569">
<ele>109.679</ele>
<time>2015-12-18T00:04:39.740Z</time>
</trkpt>
<trkpt lat="-26.9465010" lon="152.5512280">
<ele>108.062</ele>
<time>2015-12-18T00:04:41.723Z</time>
</trkpt>
<trkpt lat="-26.9467255" lon="152.5516877">
<ele>106.391</ele>
<time>2015-12-18T00:04:43.637Z</time>
</trkpt>
<trkpt lat="-26.9471031" lon="152.5524189">
<ele>105.261</ele>
<time>2015-12-18T00:04:46.662Z</time>
</trkpt>
<trkpt lat="-26.9473458" lon="152.5529116">
<ele>105.088</ele>
<time>2015-12-18T00:04:48.653Z</time>
</trkpt>
<trkpt lat="-26.9475846" lon="152.5534138">
<ele>105.415</ele>
<time>2015-12-18T00:04:50.688Z</time>
</trkpt>
<trkpt lat="-26.9477868" lon="152.5539161">
<ele>105.343</ele>
<time>2015-12-18T00:04:52.761Z</time>
</trkpt>
<trkpt lat="-26.9479280" lon="152.5543917">
<ele>104.606</ele>
<time>2015-12-18T00:04:54.898Z</time>
</trkpt>
<trkpt lat="-26.9480107" lon="152.5547933">
<ele>103.540</ele>
<time>2015-12-18T00:04:56.916Z</time>
</trkpt>
<trkpt lat="-26.9480680" lon="152.5553583">
<ele>101.404</ele>
<time>2015-12-18T00:04:59.767Z</time>
</trkpt>
<trkpt lat="-26.9480735" lon="152.5559516">
<ele>97.922</ele>
<time>2015-12-18T00:05:02.780Z</time>
</trkpt>
<trkpt lat="-26.9480339" lon="152.5565258">
<ele>94.881</ele>
<time>2015-12-18T00:05:05.800Z</time>
</trkpt>
<trkpt lat="-26.9480046" lon="152.5568874">
<ele>93.655</ele>
<time>2015-12-18T00:05:07.842Z</time>
</trkpt>
<trkpt lat="-26.9479804" lon="152.5572188">
<ele>93.598</ele>
<time>2015-12-18T00:05:09.791Z</time>
</trkpt>
<trkpt lat="-26.9479259" lon="152.5577219">
<ele>93.642</ele>
<time>2015-12-18T00:05:12.811Z</time>
</trkpt>
<trkpt lat="-26.9478894" lon="152.5582145">
<ele>93.299</ele>
<time>2015-12-18T00:05:15.793Z</time>
</trkpt>
<trkpt lat="-26.9478687" lon="152.5585359">
<ele>92.869</ele>
<time>2015-12-18T00:05:17.755Z</time>
</trkpt>
<trkpt lat="-26.9478082" lon="152.5590291">
<ele>92.702</ele>
<time>2015-12-18T00:05:20.815Z</time>
</trkpt>
<trkpt lat="-26.9477768" lon="152.5593439">
<ele>92.731</ele>
<time>2015-12-18T00:05:22.763Z</time>
</trkpt>
<trkpt lat="-26.9477191" lon="152.5598255">
<ele>92.844</ele>
<time>2015-12-18T00:05:25.705Z</time>
</trkpt>
<trkpt lat="-26.9476742" lon="152.5601541">
<ele>93.001</ele>
<time>2015-12-18T00:05:27.665Z</time>
</trkpt>
<trkpt lat="-26.9475990" lon="152.5606538">
<ele>93.083</ele>
<time>2015-12-18T00:05:30.670Z</time>
</trkpt>
<trkpt lat="-26.9475408" lon="152.5611359">
<ele>93.012</ele>
<time>2015-12-18T00:05:33.625Z</time>
</trkpt>
<trkpt lat="-26.9475002" lon="152.5614534">
<ele>93.258</ele>
<time>2015-12-18T00:05:35.599Z</time>
</trkpt>
<trkpt lat="-26.9474389" lon="152.5617712">
<ele>94.328</ele>
<time>2015-12-18T00:05:37.604Z</time>
</trkpt>
<trkpt lat="-26.9473403" lon="152.5622397">
<ele>95.583</ele>
<time>2015-12-18T00:05:40.581Z</time>
</trkpt>
<trkpt lat="-26.9472686" lon="152.5625586">
<ele>95.846</ele>
<time>2015-12-18T00:05:42.659Z</time>
</trkpt>
<trkpt lat="-26.9472038" lon="152.5630201">
<ele>95.035</ele>
<time>2015-12-18T00:05:45.739Z</time>
</trkpt>
<trkpt lat="-26.9471822" lon="152.5632941">
<ele>93.955</ele>
<time>2015-12-18T00:05:47.920Z</time>
</trkpt>
<trkpt lat="-26.9471597" lon="152.5636302">
<ele>92.998</ele>
<time>2015-12-18T00:05:51.153Z</time>
</trkpt>
<trkpt lat="-26.9471423" lon="152.5638012">
<ele>91.936</ele>
<time>2015-12-18T00:05:53.091Z</time>
</trkpt>
<trkpt lat="-26.9471260" lon="152.5639677">
<ele>90.813</ele>
<time>2015-12-18T00:05:54.686Z</time>
</trkpt>
<trkpt lat="-26.9470854" lon="152.5643056">
<ele>90.232</ele>
<time>2015-12-18T00:05:57.565Z</time>
</trkpt>
<trkpt lat="-26.9470598" lon="152.5647202">
<ele>90.642</ele>
<time>2015-12-18T00:06:00.717Z</time>
</trkpt>
<trkpt lat="-26.9470305" lon="152.5651040">
<ele>91.869</ele>
<time>2015-12-18T00:06:03.911Z</time>
</trkpt>
<trkpt lat="-26.9469997" lon="152.5654231">
<ele>93.247</ele>
<time>2015-12-18T00:06:07.519Z</time>
</trkpt>
<trkpt lat="-26.9469407" lon="152.5655388">
<ele>93.934</ele>
<time>2015-12-18T00:06:09.341Z</time>
</trkpt>
<trkpt lat="-26.9468277" lon="152.5655754">
<ele>93.505</ele>
<time>2015-12-18T00:06:10.817Z</time>
</trkpt>
<trkpt lat="-26.9465505" lon="152.5655920">
<ele>92.439</ele>
<time>2015-12-18T00:06:13.730Z</time>
</trkpt>
<trkpt lat="-26.9463252" lon="152.5655632">
<ele>91.954</ele>
<time>2015-12-18T00:06:15.673Z</time>
</trkpt>
<trkpt lat="-26.9459548" lon="152.5655233">
<ele>92.896</ele>
<time>2015-12-18T00:06:18.853Z</time>
</trkpt>
<trkpt lat="-26.9457358" lon="152.5655012">
<ele>95.181</ele>
<time>2015-12-18T00:06:20.996Z</time>
</trkpt>
<trkpt lat="-26.9454527" lon="152.5654677">
<ele>97.876</ele>
<time>2015-12-18T00:06:23.913Z</time>
</trkpt>
<trkpt lat="-26.9451690" lon="152.5654304">
<ele>99.814</ele>
<time>2015-12-18T00:06:26.759Z</time>
</trkpt>
<trkpt lat="-26.9449519" lon="152.5654079">
<ele>100.777</ele>
<time>2015-12-18T00:06:28.764Z</time>
</trkpt>
<trkpt lat="-26.9446238" lon="152.5653708">
<ele>101.530</ele>
<time>2015-12-18T00:06:31.780Z</time>
</trkpt>
<trkpt lat="-26.9443076" lon="152.5653280">
<ele>102.359</ele>
<time>2015-12-18T00:06:34.730Z</time>
</trkpt>
<trkpt lat="-26.9440999" lon="152.5653082">
<ele>103.018</ele>
<time>2015-12-18T00:06:36.748Z</time>
</trkpt>
<trkpt lat="-26.9437984" lon="152.5652786">
<ele>103.391</ele>
<time>2015-12-18T00:06:39.741Z</time>
</trkpt>
<trkpt lat="-26.9436078" lon="152.5652464">
<ele>103.454</ele>
<time>2015-12-18T00:06:41.768Z</time>
</trkpt>
<trkpt lat="-26.9433346" lon="152.5652325">
<ele>103.150</ele>
<time>2015-12-18T00:06:45.383Z</time>
</trkpt>
<trkpt lat="-26.9431670" lon="152.5651977">
<ele>102.563</ele>
<time>2015-12-18T00:06:49.636Z</time>
</trkpt>
<trkpt lat="-26.9430791" lon="152.5651722">
<ele>101.928</ele>
<time>2015-12-18T00:06:52.177Z</time>
</trkpt>
<trkpt lat="-26.9429447" lon="152.5651684">
<ele>101.612</ele>
<time>2015-12-18T00:06:56.074Z</time>
</trkpt>
<trkpt lat="-26.9428419" lon="152.5651994">
<ele>101.778</ele>
<time>2015-12-18T00:06:58.941Z</time>
</trkpt>
<trkpt lat="-26.9427915" lon="152.5653386">
<ele>102.155</ele>
<time>2015-12-18T00:07:02.214Z</time>
</trkpt>
<trkpt lat="-26.9427810" lon="152.5655131">
<ele>102.408</ele>
<time>2015-12-18T00:07:05.293Z</time>
</trkpt>
<trkpt lat="-26.9427707" lon="152.5656744">
<ele>102.409</ele>
<time>2015-12-18T00:07:07.958Z</time>
</trkpt>
<trkpt lat="-26.9427482" lon="152.5658508">
<ele>102.158</ele>
<time>2015-12-18T00:07:11.082Z</time>
</trkpt>
<trkpt lat="-26.9427344" lon="152.5659583">
<ele>101.678</ele>
<time>2015-12-18T00:07:13.132Z</time>
</trkpt>
<trkpt lat="-26.9427340" lon="152.5661095">
<ele>101.058</ele>
<time>2015-12-18T00:07:16.080Z</time>
</trkpt>
<trkpt lat="-26.9427212" lon="152.5662551">
<ele>100.393</ele>
<time>2015-12-18T00:07:19.137Z</time>
</trkpt>
<trkpt lat="-26.9427083" lon="152.5664308">
<ele>99.749</ele>
<time>2015-12-18T00:07:22.365Z</time>
</trkpt>
<trkpt lat="-26.9426849" lon="152.5666289">
<ele>99.249</ele>
<time>2015-12-18T00:07:25.503Z</time>
</trkpt>
<trkpt lat="-26.9426718" lon="152.5667490">
<ele>98.976</ele>
<time>2015-12-18T00:07:27.380Z</time>
</trkpt>
<trkpt lat="-26.9426536" lon="152.5668739">
<ele>98.791</ele>
<time>2015-12-18T00:07:29.334Z</time>
</trkpt>
<trkpt lat="-26.9426472" lon="152.5670833">
<ele>98.548</ele>
<time>2015-12-18T00:07:32.631Z</time>
</trkpt>
<trkpt lat="-26.9426359" lon="152.5672109">
<ele>98.265</ele>
<time>2015-12-18T00:07:35.053Z</time>
</trkpt>
<trkpt lat="-26.9426359" lon="152.5672109">
<ele>98.051</ele>
<time>2015-12-18T00:07:39.071Z</time>
</trkpt>
<trkpt lat="-26.9426359" lon="152.5672109">
<ele>97.944</ele>
<time>2015-12-18T00:07:55.055Z</time>
</trkpt>
<trkpt lat="-26.9426345" lon="152.5674252">
<ele>97.916</ele>
<time>2015-12-18T00:08:04.137Z</time>
</trkpt>
<trkpt lat="-26.9426868" lon="152.5675206">
<ele>97.752</ele>
<time>2015-12-18T00:08:06.730Z</time>
</trkpt>
<trkpt lat="-26.9427248" lon="152.5676273">
<ele>97.325</ele>
<time>2015-12-18T00:08:08.193Z</time>
</trkpt>
<trkpt lat="-26.9427142" lon="152.5679529">
<ele>97.019</ele>
<time>2015-12-18T00:08:11.364Z</time>
</trkpt>
<trkpt lat="-26.9426892" lon="152.5682353">
<ele>97.635</ele>
<time>2015-12-18T00:08:13.495Z</time>
</trkpt>
<trkpt lat="-26.9426559" lon="152.5685607">
<ele>99.379</ele>
<time>2015-12-18T00:08:15.654Z</time>
</trkpt>
<trkpt lat="-26.9426189" lon="152.5688966">
<ele>101.513</ele>
<time>2015-12-18T00:08:17.641Z</time>
</trkpt>
<trkpt lat="-26.9425791" lon="152.5694379">
<ele>103.240</ele>
<time>2015-12-18T00:08:20.690Z</time>
</trkpt>
<trkpt lat="-26.9425053" lon="152.5699812">
<ele>104.346</ele>
<time>2015-12-18T00:08:23.697Z</time>
</trkpt>
<trkpt lat="-26.9424386" lon="152.5703379">
<ele>104.913</ele>
<time>2015-12-18T00:08:25.697Z</time>
</trkpt>
<trkpt lat="-26.9422925" lon="152.5708459">
<ele>105.103</ele>
<time>2015-12-18T00:08:28.669Z</time>
</trkpt>
<trkpt lat="-26.9421817" lon="152.5711764">
<ele>104.759</ele>
<time>2015-12-18T00:08:30.671Z</time>
</trkpt>
<trkpt lat="-26.9420051" lon="152.5716501">
<ele>103.853</ele>
<time>2015-12-18T00:08:33.615Z</time>
</trkpt>
<trkpt lat="-26.9418327" lon="152.5721242">
<ele>103.161</ele>
<time>2015-12-18T00:08:36.599Z</time>
</trkpt>
<trkpt lat="-26.9416457" lon="152.5726013">
<ele>103.666</ele>
<time>2015-12-18T00:08:39.623Z</time>
</trkpt>
<trkpt lat="-26.9414661" lon="152.5730867">
<ele>105.489</ele>
<time>2015-12-18T00:08:42.595Z</time>
</trkpt>
<trkpt lat="-26.9412941" lon="152.5735801">
<ele>107.710</ele>
<time>2015-12-18T00:08:45.465Z</time>
</trkpt>
<trkpt lat="-26.9411553" lon="152.5739387">
<ele>109.217</ele>
<time>2015-12-18T00:08:47.413Z</time>
</trkpt>
<trkpt lat="-26.9410201" lon="152.5743296">
<ele>110.272</ele>
<time>2015-12-18T00:08:49.401Z</time>
</trkpt>
<trkpt lat="-26.9407865" lon="152.5749122">
<ele>111.683</ele>
<time>2015-12-18T00:08:52.396Z</time>
</trkpt>
<trkpt lat="-26.9406395" lon="152.5752929">
<ele>113.096</ele>
<time>2015-12-18T00:08:54.345Z</time>
</trkpt>
<trkpt lat="-26.9404913" lon="152.5756906">
<ele>113.823</ele>
<time>2015-12-18T00:08:56.340Z</time>
</trkpt>
<trkpt lat="-26.9402574" lon="152.5762998">
<ele>114.149</ele>
<time>2015-12-18T00:08:59.375Z</time>
</trkpt>
<trkpt lat="-26.9401066" lon="152.5766991">
<ele>114.668</ele>
<time>2015-12-18T00:09:01.343Z</time>
</trkpt>
<trkpt lat="-26.9399504" lon="152.5771138">
<ele>115.408</ele>
<time>2015-12-18T00:09:03.368Z</time>
</trkpt>
<trkpt lat="-26.9397157" lon="152.5777299">
<ele>116.001</ele>
<time>2015-12-18T00:09:06.356Z</time>
</trkpt>
<trkpt lat="-26.9395551" lon="152.5781394">
<ele>116.367</ele>
<time>2015-12-18T00:09:08.326Z</time>
</trkpt>
<trkpt lat="-26.9393208" lon="152.5787816">
<ele>116.609</ele>
<time>2015-12-18T00:09:11.364Z</time>
</trkpt>
<trkpt lat="-26.9390743" lon="152.5794029">
<ele>116.724</ele>
<time>2015-12-18T00:09:14.338Z</time>
</trkpt>
<trkpt lat="-26.9389182" lon="152.5798174">
<ele>116.637</ele>
<time>2015-12-18T00:09:16.309Z</time>
</trkpt>
<trkpt lat="-26.9387616" lon="152.5802486">
<ele>116.379</ele>
<time>2015-12-18T00:09:18.358Z</time>
</trkpt>
<trkpt lat="-26.9385159" lon="152.5808789">
<ele>116.590</ele>
<time>2015-12-18T00:09:21.429Z</time>
</trkpt>
<trkpt lat="-26.9383525" lon="152.5812802">
<ele>118.015</ele>
<time>2015-12-18T00:09:23.457Z</time>
</trkpt>
<trkpt lat="-26.9382058" lon="152.5816820">
<ele>120.236</ele>
<time>2015-12-18T00:09:25.470Z</time>
</trkpt>
<trkpt lat="-26.9381049" lon="152.5821068">
<ele>122.062</ele>
<time>2015-12-18T00:09:27.534Z</time>
</trkpt>
<trkpt lat="-26.9380150" lon="152.5827287">
<ele>121.808</ele>
<time>2015-12-18T00:09:30.537Z</time>
</trkpt>
<trkpt lat="-26.9379842" lon="152.5831271">
<ele>119.033</ele>
<time>2015-12-18T00:09:32.459Z</time>
</trkpt>
<trkpt lat="-26.9379823" lon="152.5835459">
<ele>116.102</ele>
<time>2015-12-18T00:09:34.443Z</time>
</trkpt>
<trkpt lat="-26.9380536" lon="152.5841817">
<ele>115.391</ele>
<time>2015-12-18T00:09:37.436Z</time>
</trkpt>
<trkpt lat="-26.9381651" lon="152.5846050">
<ele>116.875</ele>
<time>2015-12-18T00:09:39.471Z</time>
</trkpt>
<trkpt lat="-26.9383734" lon="152.5852004">
<ele>120.533</ele>
<time>2015-12-18T00:09:42.409Z</time>
</trkpt>
<trkpt lat="-26.9385766" lon="152.5858148">
<ele>125.846</ele>
<time>2015-12-18T00:09:45.428Z</time>
</trkpt>
<trkpt lat="-26.9387396" lon="152.5864409">
<ele>130.937</ele>
<time>2015-12-18T00:09:48.476Z</time>
</trkpt>
<trkpt lat="-26.9388184" lon="152.5868498">
<ele>134.409</ele>
<time>2015-12-18T00:09:50.489Z</time>
</trkpt>
<trkpt lat="-26.9388836" lon="152.5874646">
<ele>136.125</ele>
<time>2015-12-18T00:09:53.519Z</time>
</trkpt>
<trkpt lat="-26.9388789" lon="152.5880684">
<ele>136.432</ele>
<time>2015-12-18T00:09:56.516Z</time>
</trkpt>
<trkpt lat="-26.9388214" lon="152.5884609">
<ele>136.215</ele>
<time>2015-12-18T00:09:58.537Z</time>
</trkpt>
<trkpt lat="-26.9386615" lon="152.5890158">
<ele>136.067</ele>
<time>2015-12-18T00:10:01.564Z</time>
</trkpt>
<trkpt lat="-26.9384341" lon="152.5895125">
<ele>136.376</ele>
<time>2015-12-18T00:10:04.514Z</time>
</trkpt>
<trkpt lat="-26.9382384" lon="152.5898162">
<ele>137.206</ele>
<time>2015-12-18T00:10:06.492Z</time>
</trkpt>
<trkpt lat="-26.9380196" lon="152.5901149">
<ele>138.039</ele>
<time>2015-12-18T00:10:08.523Z</time>
</trkpt>
<trkpt lat="-26.9376499" lon="152.5905124">
<ele>138.123</ele>
<time>2015-12-18T00:10:11.511Z</time>
</trkpt>
<trkpt lat="-26.9373620" lon="152.5907458">
<ele>137.157</ele>
<time>2015-12-18T00:10:13.513Z</time>
</trkpt>
<trkpt lat="-26.9370431" lon="152.5909742">
<ele>135.445</ele>
<time>2015-12-18T00:10:15.554Z</time>
</trkpt>
<trkpt lat="-26.9365527" lon="152.5913089">
<ele>133.232</ele>
<time>2015-12-18T00:10:18.556Z</time>
</trkpt>
<trkpt lat="-26.9362198" lon="152.5915375">
<ele>130.509</ele>
<time>2015-12-18T00:10:20.537Z</time>
</trkpt>
<trkpt lat="-26.9358814" lon="152.5917796">
<ele>127.896</ele>
<time>2015-12-18T00:10:22.549Z</time>
</trkpt>
<trkpt lat="-26.9353589" lon="152.5921173">
<ele>125.760</ele>
<time>2015-12-18T00:10:25.539Z</time>
</trkpt>
<trkpt lat="-26.9348241" lon="152.5924738">
<ele>123.513</ele>
<time>2015-12-18T00:10:28.574Z</time>
</trkpt>
<trkpt lat="-26.9344737" lon="152.5927189">
<ele>121.187</ele>
<time>2015-12-18T00:10:30.578Z</time>
</trkpt>
<trkpt lat="-26.9339365" lon="152.5930688">
<ele>120.052</ele>
<time>2015-12-18T00:10:33.615Z</time>
</trkpt>
<trkpt lat="-26.9336046" lon="152.5932975">
<ele>121.357</ele>
<time>2015-12-18T00:10:35.562Z</time>
</trkpt>
<trkpt lat="-26.9332699" lon="152.5935382">
<ele>125.130</ele>
<time>2015-12-18T00:10:37.571Z</time>
</trkpt>
<trkpt lat="-26.9329715" lon="152.5938030">
<ele>129.725</ele>
<time>2015-12-18T00:10:39.480Z</time>
</trkpt>
<trkpt lat="-26.9325319" lon="152.5942687">
<ele>133.727</ele>
<time>2015-12-18T00:10:42.487Z</time>
</trkpt>
<trkpt lat="-26.9322567" lon="152.5946059">
<ele>136.886</ele>
<time>2015-12-18T00:10:44.487Z</time>
</trkpt>
<trkpt lat="-26.9319963" lon="152.5949590">
<ele>138.882</ele>
<time>2015-12-18T00:10:46.480Z</time>
</trkpt>
<trkpt lat="-26.9316623" lon="152.5955443">
<ele>139.529</ele>
<time>2015-12-18T00:10:49.525Z</time>
</trkpt>
<trkpt lat="-26.9314707" lon="152.5959321">
<ele>139.262</ele>
<time>2015-12-18T00:10:51.488Z</time>
</trkpt>
<trkpt lat="-26.9312362" lon="152.5965516">
<ele>138.439</ele>
<time>2015-12-18T00:10:54.459Z</time>
</trkpt>
<trkpt lat="-26.9311199" lon="152.5969939">
<ele>137.479</ele>
<time>2015-12-18T00:10:56.501Z</time>
</trkpt>
<trkpt lat="-26.9310071" lon="152.5976558">
<ele>136.564</ele>
<time>2015-12-18T00:10:59.487Z</time>
</trkpt>
<trkpt lat="-26.9309477" lon="152.5981026">
<ele>135.444</ele>
<time>2015-12-18T00:11:01.473Z</time>
</trkpt>
<trkpt lat="-26.9308782" lon="152.5985504">
<ele>134.190</ele>
<time>2015-12-18T00:11:03.443Z</time>
</trkpt>
<trkpt lat="-26.9307888" lon="152.5992309">
<ele>132.897</ele>
<time>2015-12-18T00:11:06.323Z</time>
</trkpt>
<trkpt lat="-26.9307215" lon="152.5997369">
<ele>131.536</ele>
<time>2015-12-18T00:11:08.250Z</time>
</trkpt>
<trkpt lat="-26.9306566" lon="152.6003170">
<ele>130.568</ele>
<time>2015-12-18T00:11:10.212Z</time>
</trkpt>
<trkpt lat="-26.9305318" lon="152.6013203">
<ele>130.702</ele>
<time>2015-12-18T00:11:13.331Z</time>
</trkpt>
<trkpt lat="-26.9304120" lon="152.6020711">
<ele>132.104</ele>
<time>2015-12-18T00:11:15.479Z</time>
</trkpt>
<trkpt lat="-26.9302965" lon="152.6028171">
<ele>133.993</ele>
<time>2015-12-18T00:11:17.561Z</time>
</trkpt>
<trkpt lat="-26.9301965" lon="152.6035191">
<ele>134.448</ele>
<time>2015-12-18T00:11:19.598Z</time>
</trkpt>
<trkpt lat="-26.9300643" lon="152.6044982">
<ele>129.597</ele>
<time>2015-12-18T00:11:22.561Z</time>
</trkpt>
<trkpt lat="-26.9300144" lon="152.6051334">
<ele>119.198</ele>
<time>2015-12-18T00:11:24.562Z</time>
</trkpt>
<trkpt lat="-26.9299783" lon="152.6061021">
<ele>109.627</ele>
<time>2015-12-18T00:11:27.675Z</time>
</trkpt>
<trkpt lat="-26.9300588" lon="152.6070027">
<ele>105.990</ele>
<time>2015-12-18T00:11:30.667Z</time>
</trkpt>
<trkpt lat="-26.9301951" lon="152.6078797">
<ele>107.903</ele>
<time>2015-12-18T00:11:33.672Z</time>
</trkpt>
<trkpt lat="-26.9302978" lon="152.6084621">
<ele>112.491</ele>
<time>2015-12-18T00:11:35.704Z</time>
</trkpt>
<trkpt lat="-26.9303988" lon="152.6090191">
<ele>115.760</ele>
<time>2015-12-18T00:11:37.666Z</time>
</trkpt>
<trkpt lat="-26.9304954" lon="152.6095941">
<ele>115.856</ele>
<time>2015-12-18T00:11:39.692Z</time>
</trkpt>
<trkpt lat="-26.9306553" lon="152.6104264">
<ele>113.994</ele>
<time>2015-12-18T00:11:42.656Z</time>
</trkpt>
<trkpt lat="-26.9307887" lon="152.6112748">
<ele>111.996</ele>
<time>2015-12-18T00:11:45.682Z</time>
</trkpt>
<trkpt lat="-26.9308813" lon="152.6118228">
<ele>110.764</ele>
<time>2015-12-18T00:11:47.650Z</time>
</trkpt>
<trkpt lat="-26.9310136" lon="152.6126583">
<ele>110.375</ele>
<time>2015-12-18T00:11:50.635Z</time>
</trkpt>
<trkpt lat="-26.9311564" lon="152.6135037">
<ele>110.682</ele>
<time>2015-12-18T00:11:53.654Z</time>
</trkpt>
<trkpt lat="-26.9312597" lon="152.6140704">
<ele>111.547</ele>
<time>2015-12-18T00:11:55.691Z</time>
</trkpt>
<trkpt lat="-26.9313428" lon="152.6146253">
<ele>112.529</ele>
<time>2015-12-18T00:11:57.689Z</time>
</trkpt>
<trkpt lat="-26.9314512" lon="152.6154748">
<ele>113.261</ele>
<time>2015-12-18T00:12:00.771Z</time>
</trkpt>
<trkpt lat="-26.9314366" lon="152.6160192">
<ele>113.900</ele>
<time>2015-12-18T00:12:02.747Z</time>
</trkpt>
<trkpt lat="-26.9312770" lon="152.6168188">
<ele>114.713</ele>
<time>2015-12-18T00:12:05.703Z</time>
</trkpt>
<trkpt lat="-26.9311100" lon="152.6173495">
<ele>116.132</ele>
<time>2015-12-18T00:12:07.707Z</time>
</trkpt>
<trkpt lat="-26.9308695" lon="152.6178405">
<ele>118.889</ele>
<time>2015-12-18T00:12:09.709Z</time>
</trkpt>
<trkpt lat="-26.9305206" lon="152.6185820">
<ele>123.165</ele>
<time>2015-12-18T00:12:12.740Z</time>
</trkpt>
<trkpt lat="-26.9302988" lon="152.6190589">
<ele>127.755</ele>
<time>2015-12-18T00:12:14.711Z</time>
</trkpt>
<trkpt lat="-26.9301064" lon="152.6195531">
<ele>131.072</ele>
<time>2015-12-18T00:12:16.668Z</time>
</trkpt>
<trkpt lat="-26.9299045" lon="152.6203552">
<ele>132.681</ele>
<time>2015-12-18T00:12:19.660Z</time>
</trkpt>
<trkpt lat="-26.9298327" lon="152.6209117">
<ele>133.232</ele>
<time>2015-12-18T00:12:21.664Z</time>
</trkpt>
<trkpt lat="-26.9298041" lon="152.6214789">
<ele>133.403</ele>
<time>2015-12-18T00:12:23.705Z</time>
</trkpt>
<trkpt lat="-26.9298363" lon="152.6220302">
<ele>133.691</ele>
<time>2015-12-18T00:12:25.713Z</time>
</trkpt>
<trkpt lat="-26.9299876" lon="152.6228386">
<ele>134.843</ele>
<time>2015-12-18T00:12:28.742Z</time>
</trkpt>
<trkpt lat="-26.9301369" lon="152.6233513">
<ele>137.542</ele>
<time>2015-12-18T00:12:30.704Z</time>
</trkpt>
<trkpt lat="-26.9304604" lon="152.6241167">
<ele>141.077</ele>
<time>2015-12-18T00:12:33.737Z</time>
</trkpt>
<trkpt lat="-26.9308403" lon="152.6248490">
<ele>144.334</ele>
<time>2015-12-18T00:12:36.733Z</time>
</trkpt>
<trkpt lat="-26.9310911" lon="152.6253678">
<ele>147.430</ele>
<time>2015-12-18T00:12:38.820Z</time>
</trkpt>
<trkpt lat="-26.9314044" lon="152.6261406">
<ele>150.291</ele>
<time>2015-12-18T00:12:41.861Z</time>
</trkpt>
<trkpt lat="-26.9315842" lon="152.6266358">
<ele>151.989</ele>
<time>2015-12-18T00:12:43.854Z</time>
</trkpt>
<trkpt lat="-26.9318362" lon="152.6273507">
<ele>151.543</ele>
<time>2015-12-18T00:12:46.700Z</time>
</trkpt>
<trkpt lat="-26.9322150" lon="152.6280551">
<ele>148.635</ele>
<time>2015-12-18T00:12:49.659Z</time>
</trkpt>
<trkpt lat="-26.9325219" lon="152.6285146">
<ele>144.797</ele>
<time>2015-12-18T00:12:51.683Z</time>
</trkpt>
<trkpt lat="-26.9328579" lon="152.6289288">
<ele>141.889</ele>
<time>2015-12-18T00:12:53.661Z</time>
</trkpt>
<trkpt lat="-26.9333557" lon="152.6295688">
<ele>139.779</ele>
<time>2015-12-18T00:12:56.683Z</time>
</trkpt>
<trkpt lat="-26.9337003" lon="152.6299716">
<ele>137.939</ele>
<time>2015-12-18T00:12:58.741Z</time>
</trkpt>
<trkpt lat="-26.9342714" lon="152.6304479">
<ele>136.273</ele>
<time>2015-12-18T00:13:01.712Z</time>
</trkpt>
<trkpt lat="-26.9349386" lon="152.6307463">
<ele>134.338</ele>
<time>2015-12-18T00:13:04.650Z</time>
</trkpt>
<trkpt lat="-26.9357036" lon="152.6308642">
<ele>132.268</ele>
<time>2015-12-18T00:13:07.729Z</time>
</trkpt>
<trkpt lat="-26.9362126" lon="152.6309241">
<ele>131.204</ele>
<time>2015-12-18T00:13:09.797Z</time>
</trkpt>
<trkpt lat="-26.9366856" lon="152.6310185">
<ele>131.560</ele>
<time>2015-12-18T00:13:11.782Z</time>
</trkpt>
<trkpt lat="-26.9371451" lon="152.6311855">
<ele>132.721</ele>
<time>2015-12-18T00:13:13.786Z</time>
</trkpt>
<trkpt lat="-26.9377822" lon="152.6315373">
<ele>133.954</ele>
<time>2015-12-18T00:13:16.687Z</time>
</trkpt>
<trkpt lat="-26.9381945" lon="152.6318801">
<ele>134.712</ele>
<time>2015-12-18T00:13:18.727Z</time>
</trkpt>
<trkpt lat="-26.9387079" lon="152.6325049">
<ele>134.616</ele>
<time>2015-12-18T00:13:21.710Z</time>
</trkpt>
<trkpt lat="-26.9390776" lon="152.6332542">
<ele>133.068</ele>
<time>2015-12-18T00:13:24.667Z</time>
</trkpt>
<trkpt lat="-26.9392447" lon="152.6338080">
<ele>129.639</ele>
<time>2015-12-18T00:13:26.660Z</time>
</trkpt>
<trkpt lat="-26.9393300" lon="152.6343654">
<ele>125.417</ele>
<time>2015-12-18T00:13:28.580Z</time>
</trkpt>
<trkpt lat="-26.9393652" lon="152.6349564">
<ele>121.494</ele>
<time>2015-12-18T00:13:30.585Z</time>
</trkpt>
<trkpt lat="-26.9393655" lon="152.6358269">
<ele>117.576</ele>
<time>2015-12-18T00:13:33.540Z</time>
</trkpt>
<trkpt lat="-26.9393896" lon="152.6367555">
<ele>113.956</ele>
<time>2015-12-18T00:13:36.725Z</time>
</trkpt>
<trkpt lat="-26.9393983" lon="152.6373373">
<ele>111.766</ele>
<time>2015-12-18T00:13:38.762Z</time>
</trkpt>
<trkpt lat="-26.9394116" lon="152.6378979">
<ele>111.336</ele>
<time>2015-12-18T00:13:40.760Z</time>
</trkpt>
<trkpt lat="-26.9394236" lon="152.6384354">
<ele>112.889</ele>
<time>2015-12-18T00:13:42.687Z</time>
</trkpt>
<trkpt lat="-26.9394380" lon="152.6392637">
<ele>116.164</ele>
<time>2015-12-18T00:13:45.628Z</time>
</trkpt>
<trkpt lat="-26.9394475" lon="152.6401149">
<ele>119.568</ele>
<time>2015-12-18T00:13:48.618Z</time>
</trkpt>
<trkpt lat="-26.9394627" lon="152.6409561">
<ele>121.534</ele>
<time>2015-12-18T00:13:51.576Z</time>
</trkpt>
<trkpt lat="-26.9394686" lon="152.6415198">
<ele>121.470</ele>
<time>2015-12-18T00:13:53.550Z</time>
</trkpt>
<trkpt lat="-26.9394792" lon="152.6420917">
<ele>119.496</ele>
<time>2015-12-18T00:13:55.539Z</time>
</trkpt>
<trkpt lat="-26.9394983" lon="152.6429705">
<ele>116.383</ele>
<time>2015-12-18T00:13:58.586Z</time>
</trkpt>
<trkpt lat="-26.9395139" lon="152.6438461">
<ele>112.362</ele>
<time>2015-12-18T00:14:01.631Z</time>
</trkpt>
<trkpt lat="-26.9395422" lon="152.6444089">
<ele>107.665</ele>
<time>2015-12-18T00:14:03.631Z</time>
</trkpt>
<trkpt lat="-26.9395672" lon="152.6449651">
<ele>103.383</ele>
<time>2015-12-18T00:14:05.626Z</time>
</trkpt>
<trkpt lat="-26.9395673" lon="152.6458012">
<ele>100.380</ele>
<time>2015-12-18T00:14:08.616Z</time>
</trkpt>
<trkpt lat="-26.9395738" lon="152.6463564">
<ele>98.689</ele>
<time>2015-12-18T00:14:10.588Z</time>
</trkpt>
<trkpt lat="-26.9395845" lon="152.6469166">
<ele>98.595</ele>
<time>2015-12-18T00:14:12.582Z</time>
</trkpt>
<trkpt lat="-26.9395911" lon="152.6474716">
<ele>100.806</ele>
<time>2015-12-18T00:14:14.563Z</time>
</trkpt>
<trkpt lat="-26.9395942" lon="152.6480352">
<ele>104.807</ele>
<time>2015-12-18T00:14:16.579Z</time>
</trkpt>
<trkpt lat="-26.9395652" lon="152.6485803">
<ele>109.037</ele>
<time>2015-12-18T00:14:18.528Z</time>
</trkpt>
<trkpt lat="-26.9393912" lon="152.6494045">
<ele>112.952</ele>
<time>2015-12-18T00:14:21.525Z</time>
</trkpt>
<trkpt lat="-26.9391347" lon="152.6502228">
<ele>116.751</ele>
<time>2015-12-18T00:14:24.573Z</time>
</trkpt>
<trkpt lat="-26.9388607" lon="152.6510044">
<ele>120.518</ele>
<time>2015-12-18T00:14:27.534Z</time>
</trkpt>
<trkpt lat="-26.9386826" lon="152.6515366">
<ele>124.412</ele>
<time>2015-12-18T00:14:29.536Z</time>
</trkpt>
<trkpt lat="-26.9384039" lon="152.6523309">
<ele>128.150</ele>
<time>2015-12-18T00:14:32.536Z</time>
</trkpt>
<trkpt lat="-26.9381350" lon="152.6531222">
<ele>130.629</ele>
<time>2015-12-18T00:14:35.524Z</time>
</trkpt>
<trkpt lat="-26.9378651" lon="152.6539155">
<ele>131.050</ele>
<time>2015-12-18T00:14:38.547Z</time>
</trkpt>
<trkpt lat="-26.9376826" lon="152.6544290">
<ele>129.956</ele>
<time>2015-12-18T00:14:40.525Z</time>
</trkpt>
<trkpt lat="-26.9374219" lon="152.6552081">
<ele>128.140</ele>
<time>2015-12-18T00:14:43.509Z</time>
</trkpt>
<trkpt lat="-26.9372449" lon="152.6557174">
<ele>125.478</ele>
<time>2015-12-18T00:14:45.484Z</time>
</trkpt>
<trkpt lat="-26.9370739" lon="152.6562270">
<ele>121.967</ele>
<time>2015-12-18T00:14:47.461Z</time>
</trkpt>
<trkpt lat="-26.9368225" lon="152.6569881">
<ele>118.257</ele>
<time>2015-12-18T00:14:50.394Z</time>
</trkpt>
<trkpt lat="-26.9366420" lon="152.6575179">
<ele>115.321</ele>
<time>2015-12-18T00:14:52.419Z</time>
</trkpt>
<trkpt lat="-26.9364789" lon="152.6580522">
<ele>114.227</ele>
<time>2015-12-18T00:14:54.409Z</time>
</trkpt>
<trkpt lat="-26.9362534" lon="152.6588903">
<ele>115.173</ele>
<time>2015-12-18T00:14:57.475Z</time>
</trkpt>
<trkpt lat="-26.9361155" lon="152.6594371">
<ele>116.980</ele>
<time>2015-12-18T00:14:59.465Z</time>
</trkpt>
<trkpt lat="-26.9359052" lon="152.6602575">
<ele>118.423</ele>
<time>2015-12-18T00:15:02.444Z</time>
</trkpt>
<trkpt lat="-26.9357563" lon="152.6608105">
<ele>118.533</ele>
<time>2015-12-18T00:15:04.447Z</time>
</trkpt>
<trkpt lat="-26.9355327" lon="152.6616307">
<ele>116.611</ele>
<time>2015-12-18T00:15:07.425Z</time>
</trkpt>
<trkpt lat="-26.9353816" lon="152.6621751">
<ele>113.346</ele>
<time>2015-12-18T00:15:09.421Z</time>
</trkpt>
<trkpt lat="-26.9351777" lon="152.6630068">
<ele>110.316</ele>
<time>2015-12-18T00:15:12.441Z</time>
</trkpt>
<trkpt lat="-26.9349758" lon="152.6638237">
<ele>108.151</ele>
<time>2015-12-18T00:15:15.391Z</time>
</trkpt>
<trkpt lat="-26.9348225" lon="152.6643772">
<ele>106.164</ele>
<time>2015-12-18T00:15:17.394Z</time>
</trkpt>
<trkpt lat="-26.9346034" lon="152.6652006">
<ele>103.318</ele>
<time>2015-12-18T00:15:20.360Z</time>
</trkpt>
<trkpt lat="-26.9344622" lon="152.6657502">
<ele>99.518</ele>
<time>2015-12-18T00:15:22.352Z</time>
</trkpt>
<trkpt lat="-26.9342679" lon="152.6665760">
<ele>95.841</ele>
<time>2015-12-18T00:15:25.351Z</time>
</trkpt>
<trkpt lat="-26.9341541" lon="152.6674275">
<ele>93.131</ele>
<time>2015-12-18T00:15:28.388Z</time>
</trkpt>
<trkpt lat="-26.9341011" lon="152.6679803">
<ele>91.226</ele>
<time>2015-12-18T00:15:30.343Z</time>
</trkpt>
<trkpt lat="-26.9340747" lon="152.6685560">
<ele>89.929</ele>
<time>2015-12-18T00:15:32.358Z</time>
</trkpt>
<trkpt lat="-26.9340559" lon="152.6694268">
<ele>89.588</ele>
<time>2015-12-18T00:15:35.408Z</time>
</trkpt>
<trkpt lat="-26.9340420" lon="152.6702765">
<ele>90.211</ele>
<time>2015-12-18T00:15:38.399Z</time>
</trkpt>
<trkpt lat="-26.9340168" lon="152.6711194">
<ele>91.070</ele>
<time>2015-12-18T00:15:41.368Z</time>
</trkpt>
<trkpt lat="-26.9339989" lon="152.6716878">
<ele>91.546</ele>
<time>2015-12-18T00:15:43.356Z</time>
</trkpt>
<trkpt lat="-26.9339843" lon="152.6725650">
<ele>91.652</ele>
<time>2015-12-18T00:15:46.407Z</time>
</trkpt>
<trkpt lat="-26.9339628" lon="152.6731416">
<ele>91.406</ele>
<time>2015-12-18T00:15:48.422Z</time>
</trkpt>
<trkpt lat="-26.9339482" lon="152.6736986">
<ele>90.776</ele>
<time>2015-12-18T00:15:50.394Z</time>
</trkpt>
<trkpt lat="-26.9339235" lon="152.6745281">
<ele>90.054</ele>
<time>2015-12-18T00:15:53.352Z</time>
</trkpt>
<trkpt lat="-26.9339152" lon="152.6750864">
<ele>89.459</ele>
<time>2015-12-18T00:15:55.344Z</time>
</trkpt>
<trkpt lat="-26.9339134" lon="152.6756348">
<ele>89.124</ele>
<time>2015-12-18T00:15:57.308Z</time>
</trkpt>
<trkpt lat="-26.9338785" lon="152.6761934">
<ele>89.361</ele>
<time>2015-12-18T00:15:59.329Z</time>
</trkpt>
<trkpt lat="-26.9338601" lon="152.6770324">
<ele>90.139</ele>
<time>2015-12-18T00:16:02.377Z</time>
</trkpt>
<trkpt lat="-26.9337729" lon="152.6778583">
<ele>91.831</ele>
<time>2015-12-18T00:16:05.408Z</time>
</trkpt>
<trkpt lat="-26.9336652" lon="152.6786542">
<ele>94.671</ele>
<time>2015-12-18T00:16:08.305Z</time>
</trkpt>
<trkpt lat="-26.9334792" lon="152.6794903">
<ele>97.845</ele>
<time>2015-12-18T00:16:11.333Z</time>
</trkpt>
<trkpt lat="-26.9333626" lon="152.6800529">
<ele>101.433</ele>
<time>2015-12-18T00:16:13.342Z</time>
</trkpt>
<trkpt lat="-26.9331718" lon="152.6808734">
<ele>105.686</ele>
<time>2015-12-18T00:16:16.301Z</time>
</trkpt>
<trkpt lat="-26.9329795" lon="152.6816949">
<ele>109.112</ele>
<time>2015-12-18T00:16:19.299Z</time>
</trkpt>
<trkpt lat="-26.9328734" lon="152.6822297">
<ele>110.665</ele>
<time>2015-12-18T00:16:21.270Z</time>
</trkpt>
<trkpt lat="-26.9328079" lon="152.6830547">
<ele>110.522</ele>
<time>2015-12-18T00:16:24.270Z</time>
</trkpt>
<trkpt lat="-26.9328107" lon="152.6836099">
<ele>109.170</ele>
<time>2015-12-18T00:16:26.294Z</time>
</trkpt>
<trkpt lat="-26.9328598" lon="152.6841460">
<ele>107.467</ele>
<time>2015-12-18T00:16:28.265Z</time>
</trkpt>
<trkpt lat="-26.9330119" lon="152.6849483">
<ele>105.783</ele>
<time>2015-12-18T00:16:31.264Z</time>
</trkpt>
<trkpt lat="-26.9331807" lon="152.6857395">
<ele>103.362</ele>
<time>2015-12-18T00:16:34.222Z</time>
</trkpt>
<trkpt lat="-26.9333450" lon="152.6865490">
<ele>99.720</ele>
<time>2015-12-18T00:16:37.217Z</time>
</trkpt>
<trkpt lat="-26.9334586" lon="152.6871005">
<ele>95.770</ele>
<time>2015-12-18T00:16:39.239Z</time>
</trkpt>
<trkpt lat="-26.9336317" lon="152.6879378">
<ele>92.784</ele>
<time>2015-12-18T00:16:42.294Z</time>
</trkpt>
<trkpt lat="-26.9337318" lon="152.6884888">
<ele>91.159</ele>
<time>2015-12-18T00:16:44.290Z</time>
</trkpt>
<trkpt lat="-26.9338493" lon="152.6890562">
<ele>90.658</ele>
<time>2015-12-18T00:16:46.374Z</time>
</trkpt>
<trkpt lat="-26.9339614" lon="152.6896008">
<ele>90.943</ele>
<time>2015-12-18T00:16:48.388Z</time>
</trkpt>
<trkpt lat="-26.9341122" lon="152.6904129">
<ele>91.983</ele>
<time>2015-12-18T00:16:51.394Z</time>
</trkpt>
<trkpt lat="-26.9341530" lon="152.6909509">
<ele>93.662</ele>
<time>2015-12-18T00:16:53.341Z</time>
</trkpt>
<trkpt lat="-26.9341487" lon="152.6917778">
<ele>95.193</ele>
<time>2015-12-18T00:16:56.288Z</time>
</trkpt>
<trkpt lat="-26.9340129" lon="152.6926358">
<ele>96.191</ele>
<time>2015-12-18T00:16:59.345Z</time>
</trkpt>
<trkpt lat="-26.9338923" lon="152.6932051">
<ele>97.000</ele>
<time>2015-12-18T00:17:01.403Z</time>
</trkpt>
<trkpt lat="-26.9337508" lon="152.6937351">
<ele>97.669</ele>
<time>2015-12-18T00:17:03.392Z</time>
</trkpt>
<trkpt lat="-26.9336093" lon="152.6942657">
<ele>98.041</ele>
<time>2015-12-18T00:17:05.405Z</time>
</trkpt>
<trkpt lat="-26.9334176" lon="152.6950550">
<ele>98.442</ele>
<time>2015-12-18T00:17:08.369Z</time>
</trkpt>
<trkpt lat="-26.9332807" lon="152.6955861">
<ele>99.195</ele>
<time>2015-12-18T00:17:10.356Z</time>
</trkpt>
<trkpt lat="-26.9330703" lon="152.6963751">
<ele>100.023</ele>
<time>2015-12-18T00:17:13.317Z</time>
</trkpt>
<trkpt lat="-26.9329347" lon="152.6969106">
<ele>100.551</ele>
<time>2015-12-18T00:17:15.318Z</time>
</trkpt>
<trkpt lat="-26.9328097" lon="152.6974461">
<ele>100.904</ele>
<time>2015-12-18T00:17:17.300Z</time>
</trkpt>
<trkpt lat="-26.9325798" lon="152.6982405">
<ele>101.362</ele>
<time>2015-12-18T00:17:20.271Z</time>
</trkpt>
<trkpt lat="-26.9322327" lon="152.6990003">
<ele>102.101</ele>
<time>2015-12-18T00:17:23.286Z</time>
</trkpt>
<trkpt lat="-26.9319554" lon="152.6994757">
<ele>103.195</ele>
<time>2015-12-18T00:17:25.308Z</time>
</trkpt>
<trkpt lat="-26.9314986" lon="152.7001161">
<ele>104.645</ele>
<time>2015-12-18T00:17:28.247Z</time>
</trkpt>
<trkpt lat="-26.9311348" lon="152.7005097">
<ele>106.232</ele>
<time>2015-12-18T00:17:30.279Z</time>
</trkpt>
<trkpt lat="-26.9305726" lon="152.7010749">
<ele>107.711</ele>
<time>2015-12-18T00:17:33.326Z</time>
</trkpt>
<trkpt lat="-26.9300610" lon="152.7016679">
<ele>109.896</ele>
<time>2015-12-18T00:17:36.345Z</time>
</trkpt>
<trkpt lat="-26.9297662" lon="152.7020864">
<ele>113.186</ele>
<time>2015-12-18T00:17:38.327Z</time>
</trkpt>
<trkpt lat="-26.9295089" lon="152.7025365">
<ele>116.392</ele>
<time>2015-12-18T00:17:40.297Z</time>
</trkpt>
<trkpt lat="-26.9291905" lon="152.7032698">
<ele>118.818</ele>
<time>2015-12-18T00:17:43.256Z</time>
</trkpt>
<trkpt lat="-26.9290242" lon="152.7038025">
<ele>121.017</ele>
<time>2015-12-18T00:17:45.273Z</time>
</trkpt>
<trkpt lat="-26.9288771" lon="152.7043294">
<ele>123.482</ele>
<time>2015-12-18T00:17:47.239Z</time>
</trkpt>
<trkpt lat="-26.9286693" lon="152.7051490">
<ele>126.077</ele>
<time>2015-12-18T00:17:50.240Z</time>
</trkpt>
<trkpt lat="-26.9284448" lon="152.7059760">
<ele>127.957</ele>
<time>2015-12-18T00:17:53.234Z</time>
</trkpt>
<trkpt lat="-26.9282277" lon="152.7068220">
<ele>128.600</ele>
<time>2015-12-18T00:17:56.251Z</time>
</trkpt>
<trkpt lat="-26.9280861" lon="152.7073853">
<ele>127.462</ele>
<time>2015-12-18T00:17:58.258Z</time>
</trkpt>
<trkpt lat="-26.9278669" lon="152.7082239">
<ele>124.204</ele>
<time>2015-12-18T00:18:01.259Z</time>
</trkpt>
<trkpt lat="-26.9277268" lon="152.7087808">
<ele>120.191</ele>
<time>2015-12-18T00:18:03.253Z</time>
</trkpt>
<trkpt lat="-26.9276013" lon="152.7093502">
<ele>117.230</ele>
<time>2015-12-18T00:18:05.279Z</time>
</trkpt>
<trkpt lat="-26.9273817" lon="152.7101711">
<ele>115.088</ele>
<time>2015-12-18T00:18:08.249Z</time>
</trkpt>
<trkpt lat="-26.9272367" lon="152.7107180">
<ele>112.934</ele>
<time>2015-12-18T00:18:10.236Z</time>
</trkpt>
<trkpt lat="-26.9271120" lon="152.7112753">
<ele>110.788</ele>
<time>2015-12-18T00:18:12.234Z</time>
</trkpt>
<trkpt lat="-26.9270018" lon="152.7118302">
<ele>108.935</ele>
<time>2015-12-18T00:18:14.203Z</time>
</trkpt>
<trkpt lat="-26.9267947" lon="152.7126727">
<ele>107.580</ele>
<time>2015-12-18T00:18:17.222Z</time>
</trkpt>
<trkpt lat="-26.9266707" lon="152.7132394">
<ele>106.368</ele>
<time>2015-12-18T00:18:19.245Z</time>
</trkpt>
<trkpt lat="-26.9265546" lon="152.7137676">
<ele>104.784</ele>
<time>2015-12-18T00:18:21.150Z</time>
</trkpt>
<trkpt lat="-26.9264324" lon="152.7143194">
<ele>103.434</ele>
<time>2015-12-18T00:18:23.154Z</time>
</trkpt>
<trkpt lat="-26.9262689" lon="152.7151590">
<ele>102.921</ele>
<time>2015-12-18T00:18:26.191Z</time>
</trkpt>
<trkpt lat="-26.9261496" lon="152.7157027">
<ele>102.906</ele>
<time>2015-12-18T00:18:28.163Z</time>
</trkpt>
<trkpt lat="-26.9259218" lon="152.7165120">
<ele>102.844</ele>
<time>2015-12-18T00:18:31.147Z</time>
</trkpt>
<trkpt lat="-26.9256503" lon="152.7173111">
<ele>102.658</ele>
<time>2015-12-18T00:18:34.165Z</time>
</trkpt>
<trkpt lat="-26.9254485" lon="152.7178222">
<ele>102.913</ele>
<time>2015-12-18T00:18:36.178Z</time>
</trkpt>
<trkpt lat="-26.9251587" lon="152.7185692">
<ele>103.871</ele>
<time>2015-12-18T00:18:39.164Z</time>
</trkpt>
<trkpt lat="-26.9249723" lon="152.7190681">
<ele>105.426</ele>
<time>2015-12-18T00:18:41.178Z</time>
</trkpt>
<trkpt lat="-26.9246978" lon="152.7198065">
<ele>107.655</ele>
<time>2015-12-18T00:18:44.195Z</time>
</trkpt>
<trkpt lat="-26.9245289" lon="152.7202843">
<ele>110.509</ele>
<time>2015-12-18T00:18:46.186Z</time>
</trkpt>
<trkpt lat="-26.9243492" lon="152.7207454">
<ele>113.399</ele>
<time>2015-12-18T00:18:48.170Z</time>
</trkpt>
<trkpt lat="-26.9240906" lon="152.7214320">
<ele>115.747</ele>
<time>2015-12-18T00:18:51.132Z</time>
</trkpt>
<trkpt lat="-26.9239255" lon="152.7219093">
<ele>117.508</ele>
<time>2015-12-18T00:18:53.164Z</time>
</trkpt>
<trkpt lat="-26.9237791" lon="152.7223961">
<ele>118.961</ele>
<time>2015-12-18T00:18:55.182Z</time>
</trkpt>
<trkpt lat="-26.9235718" lon="152.7231259">
<ele>120.059</ele>
<time>2015-12-18T00:18:58.165Z</time>
</trkpt>
<trkpt lat="-26.9234178" lon="152.7239016">
<ele>120.732</ele>
<time>2015-12-18T00:19:01.244Z</time>
</trkpt>
<trkpt lat="-26.9233478" lon="152.7244113">
<ele>121.111</ele>
<time>2015-12-18T00:19:03.266Z</time>
</trkpt>
<trkpt lat="-26.9232709" lon="152.7251393">
<ele>121.302</ele>
<time>2015-12-18T00:19:06.219Z</time>
</trkpt>
<trkpt lat="-26.9232246" lon="152.7256089">
<ele>121.239</ele>
<time>2015-12-18T00:19:08.193Z</time>
</trkpt>
<trkpt lat="-26.9231820" lon="152.7262975">
<ele>120.795</ele>
<time>2015-12-18T00:19:11.121Z</time>
</trkpt>
<trkpt lat="-26.9231290" lon="152.7270038">
<ele>120.085</ele>
<time>2015-12-18T00:19:14.130Z</time>
</trkpt>
<trkpt lat="-26.9231204" lon="152.7274718">
<ele>119.808</ele>
<time>2015-12-18T00:19:16.130Z</time>
</trkpt>
<trkpt lat="-26.9230936" lon="152.7279156">
<ele>120.440</ele>
<time>2015-12-18T00:19:18.054Z</time>
</trkpt>
<trkpt lat="-26.9230380" lon="152.7286079">
<ele>121.468</ele>
<time>2015-12-18T00:19:21.046Z</time>
</trkpt>
<trkpt lat="-26.9230124" lon="152.7290834">
<ele>122.350</ele>
<time>2015-12-18T00:19:23.071Z</time>
</trkpt>
<trkpt lat="-26.9229868" lon="152.7297961">
<ele>123.073</ele>
<time>2015-12-18T00:19:26.134Z</time>
</trkpt>
<trkpt lat="-26.9229825" lon="152.7302543">
<ele>123.502</ele>
<time>2015-12-18T00:19:28.129Z</time>
</trkpt>
<trkpt lat="-26.9229878" lon="152.7307085">
<ele>123.449</ele>
<time>2015-12-18T00:19:30.107Z</time>
</trkpt>
<trkpt lat="-26.9230355" lon="152.7314085">
<ele>123.106</ele>
<time>2015-12-18T00:19:33.153Z</time>
</trkpt>
<trkpt lat="-26.9230845" lon="152.7318686">
<ele>122.424</ele>
<time>2015-12-18T00:19:35.140Z</time>
</trkpt>
<trkpt lat="-26.9231343" lon="152.7323610">
<ele>121.251</ele>
<time>2015-12-18T00:19:37.257Z</time>
</trkpt>
<trkpt lat="-26.9232135" lon="152.7330505">
<ele>120.035</ele>
<time>2015-12-18T00:19:40.243Z</time>
</trkpt>
<trkpt lat="-26.9233002" lon="152.7337344">
<ele>119.340</ele>
<time>2015-12-18T00:19:43.219Z</time>
</trkpt>
<trkpt lat="-26.9233426" lon="152.7341975">
<ele>119.054</ele>
<time>2015-12-18T00:19:45.218Z</time>
</trkpt>
<trkpt lat="-26.9233654" lon="152.7346574">
<ele>118.882</ele>
<time>2015-12-18T00:19:47.201Z</time>
</trkpt>
<trkpt lat="-26.9233666" lon="152.7353445">
<ele>118.753</ele>
<time>2015-12-18T00:19:50.170Z</time>
</trkpt>
<trkpt lat="-26.9233541" lon="152.7360374">
<ele>118.685</ele>
<time>2015-12-18T00:19:53.173Z</time>
</trkpt>
<trkpt lat="-26.9233664" lon="152.7365047">
<ele>118.374</ele>
<time>2015-12-18T00:19:55.205Z</time>
</trkpt>
<trkpt lat="-26.9234038" lon="152.7371744">
<ele>117.644</ele>
<time>2015-12-18T00:19:58.118Z</time>
</trkpt>
<trkpt lat="-26.9234574" lon="152.7376322">
<ele>116.896</ele>
<time>2015-12-18T00:20:00.111Z</time>
</trkpt>
<trkpt lat="-26.9235114" lon="152.7380880">
<ele>116.488</ele>
<time>2015-12-18T00:20:02.089Z</time>
</trkpt>
<trkpt lat="-26.9236465" lon="152.7387936">
<ele>116.326</ele>
<time>2015-12-18T00:20:05.243Z</time>
</trkpt>
<trkpt lat="-26.9237817" lon="152.7394175">
<ele>116.296</ele>
<time>2015-12-18T00:20:08.194Z</time>
</trkpt>
<trkpt lat="-26.9238908" lon="152.7398221">
<ele>116.340</ele>
<time>2015-12-18T00:20:10.237Z</time>
</trkpt>
<trkpt lat="-26.9240526" lon="152.7404054">
<ele>115.990</ele>
<time>2015-12-18T00:20:13.184Z</time>
</trkpt>
<trkpt lat="-26.9242420" lon="152.7410019">
<ele>114.953</ele>
<time>2015-12-18T00:20:16.146Z</time>
</trkpt>
<trkpt lat="-26.9243966" lon="152.7414187">
<ele>113.856</ele>
<time>2015-12-18T00:20:18.161Z</time>
</trkpt>
<trkpt lat="-26.9246382" lon="152.7420626">
<ele>113.359</ele>
<time>2015-12-18T00:20:21.184Z</time>
</trkpt>
<trkpt lat="-26.9247950" lon="152.7424986">
<ele>113.350</ele>
<time>2015-12-18T00:20:23.147Z</time>
</trkpt>
<trkpt lat="-26.9250591" lon="152.7431917">
<ele>113.389</ele>
<time>2015-12-18T00:20:26.237Z</time>
</trkpt>
<trkpt lat="-26.9252197" lon="152.7436424">
<ele>112.816</ele>
<time>2015-12-18T00:20:28.180Z</time>
</trkpt>
<trkpt lat="-26.9254871" lon="152.7443183">
<ele>111.381</ele>
<time>2015-12-18T00:20:31.094Z</time>
</trkpt>
<trkpt lat="-26.9256637" lon="152.7447972">
<ele>109.560</ele>
<time>2015-12-18T00:20:33.096Z</time>
</trkpt>
<trkpt lat="-26.9258540" lon="152.7452739">
<ele>108.020</ele>
<time>2015-12-18T00:20:35.110Z</time>
</trkpt>
<trkpt lat="-26.9260268" lon="152.7457482">
<ele>107.578</ele>
<time>2015-12-18T00:20:37.111Z</time>
</trkpt>
<trkpt lat="-26.9262201" lon="152.7461917">
<ele>108.480</ele>
<time>2015-12-18T00:20:39.106Z</time>
</trkpt>
<trkpt lat="-26.9264508" lon="152.7468282">
<ele>109.651</ele>
<time>2015-12-18T00:20:42.003Z</time>
</trkpt>
<trkpt lat="-26.9266801" lon="152.7474531">
<ele>110.157</ele>
<time>2015-12-18T00:20:45.066Z</time>
</trkpt>
<trkpt lat="-26.9268859" lon="152.7479831">
<ele>110.142</ele>
<time>2015-12-18T00:20:48.014Z</time>
</trkpt>
<trkpt lat="-26.9269894" lon="152.7482754">
<ele>109.349</ele>
<time>2015-12-18T00:20:49.799Z</time>
</trkpt>
<trkpt lat="-26.9271653" lon="152.7487562">
<ele>107.577</ele>
<time>2015-12-18T00:20:52.708Z</time>
</trkpt>
<trkpt lat="-26.9273006" lon="152.7491479">
<ele>106.107</ele>
<time>2015-12-18T00:20:54.784Z</time>
</trkpt>
<trkpt lat="-26.9275584" lon="152.7497944">
<ele>106.463</ele>
<time>2015-12-18T00:20:57.895Z</time>
</trkpt>
<trkpt lat="-26.9278135" lon="152.7504840">
<ele>108.701</ele>
<time>2015-12-18T00:21:00.878Z</time>
</trkpt>
<trkpt lat="-26.9280077" lon="152.7509992">
<ele>111.685</ele>
<time>2015-12-18T00:21:02.991Z</time>
</trkpt>
<trkpt lat="-26.9282875" lon="152.7517440">
<ele>114.165</ele>
<time>2015-12-18T00:21:06.007Z</time>
</trkpt>
<trkpt lat="-26.9284689" lon="152.7522321">
<ele>115.721</ele>
<time>2015-12-18T00:21:08.018Z</time>
</trkpt>
<trkpt lat="-26.9287521" lon="152.7529189">
<ele>116.428</ele>
<time>2015-12-18T00:21:11.001Z</time>
</trkpt>
<trkpt lat="-26.9290406" lon="152.7535453">
<ele>116.242</ele>
<time>2015-12-18T00:21:13.925Z</time>
</trkpt>
<trkpt lat="-26.9292378" lon="152.7539369">
<ele>115.225</ele>
<time>2015-12-18T00:21:15.902Z</time>
</trkpt>
<trkpt lat="-26.9295271" lon="152.7545106">
<ele>113.681</ele>
<time>2015-12-18T00:21:18.926Z</time>
</trkpt>
<trkpt lat="-26.9298064" lon="152.7550388">
<ele>111.853</ele>
<time>2015-12-18T00:21:21.891Z</time>
</trkpt>
<trkpt lat="-26.9299854" lon="152.7553727">
<ele>109.863</ele>
<time>2015-12-18T00:21:23.861Z</time>
</trkpt>
<trkpt lat="-26.9301704" lon="152.7556859">
<ele>107.775</ele>
<time>2015-12-18T00:21:25.787Z</time>
</trkpt>
<trkpt lat="-26.9304818" lon="152.7561796">
<ele>105.863</ele>
<time>2015-12-18T00:21:28.806Z</time>
</trkpt>
<trkpt lat="-26.9308411" lon="152.7567069">
<ele>104.985</ele>
<time>2015-12-18T00:21:31.862Z</time>
</trkpt>
<trkpt lat="-26.9311258" lon="152.7570846">
<ele>105.537</ele>
<time>2015-12-18T00:21:33.930Z</time>
</trkpt>
<trkpt lat="-26.9315590" lon="152.7576562">
<ele>106.883</ele>
<time>2015-12-18T00:21:36.987Z</time>
</trkpt>
<trkpt lat="-26.9318438" lon="152.7579985">
<ele>108.297</ele>
<time>2015-12-18T00:21:38.966Z</time>
</trkpt>
<trkpt lat="-26.9322618" lon="152.7584984">
<ele>109.299</ele>
<time>2015-12-18T00:21:41.962Z</time>
</trkpt>
<trkpt lat="-26.9326885" lon="152.7589781">
<ele>109.432</ele>
<time>2015-12-18T00:21:44.984Z</time>
</trkpt>
<trkpt lat="-26.9329897" lon="152.7592948">
<ele>108.642</ele>
<time>2015-12-18T00:21:47.065Z</time>
</trkpt>
<trkpt lat="-26.9332781" lon="152.7595848">
<ele>107.464</ele>
<time>2015-12-18T00:21:49.024Z</time>
</trkpt>
<trkpt lat="-26.9335800" lon="152.7598957">
<ele>106.568</ele>
<time>2015-12-18T00:21:51.075Z</time>
</trkpt>
<trkpt lat="-26.9340603" lon="152.7603236">
<ele>106.143</ele>
<time>2015-12-18T00:21:54.094Z</time>
</trkpt>
<trkpt lat="-26.9345443" lon="152.7607568">
<ele>106.240</ele>
<time>2015-12-18T00:21:57.128Z</time>
</trkpt>
<trkpt lat="-26.9350365" lon="152.7611557">
<ele>106.775</ele>
<time>2015-12-18T00:22:00.126Z</time>
</trkpt>
<trkpt lat="-26.9353763" lon="152.7614023">
<ele>107.237</ele>
<time>2015-12-18T00:22:02.132Z</time>
</trkpt>
<trkpt lat="-26.9357047" lon="152.7616532">
<ele>106.993</ele>
<time>2015-12-18T00:22:04.097Z</time>
</trkpt>
<trkpt lat="-26.9362168" lon="152.7620102">
<ele>106.102</ele>
<time>2015-12-18T00:22:07.053Z</time>
</trkpt>
<trkpt lat="-26.9367691" lon="152.7623457">
<ele>105.289</ele>
<time>2015-12-18T00:22:10.069Z</time>
</trkpt>
<trkpt lat="-26.9371480" lon="152.7625805">
<ele>105.594</ele>
<time>2015-12-18T00:22:12.103Z</time>
</trkpt>
<trkpt lat="-26.9377158" lon="152.7629339">
<ele>107.170</ele>
<time>2015-12-18T00:22:15.124Z</time>
</trkpt>
<trkpt lat="-26.9380937" lon="152.7631617">
<ele>108.750</ele>
<time>2015-12-18T00:22:17.101Z</time>
</trkpt>
<trkpt lat="-26.9386607" lon="152.7635310">
<ele>109.316</ele>
<time>2015-12-18T00:22:20.105Z</time>
</trkpt>
<trkpt lat="-26.9391607" lon="152.7639979">
<ele>109.538</ele>
<time>2015-12-18T00:22:23.063Z</time>
</trkpt>
<trkpt lat="-26.9395958" lon="152.7645833">
<ele>110.805</ele>
<time>2015-12-18T00:22:26.095Z</time>
</trkpt>
<trkpt lat="-26.9398457" lon="152.7650084">
<ele>113.529</ele>
<time>2015-12-18T00:22:28.069Z</time>
</trkpt>
<trkpt lat="-26.9401052" lon="152.7654488">
<ele>116.575</ele>
<time>2015-12-18T00:22:30.073Z</time>
</trkpt>
<trkpt lat="-26.9405053" lon="152.7661247">
<ele>118.827</ele>
<time>2015-12-18T00:22:33.110Z</time>
</trkpt>
<trkpt lat="-26.9408938" lon="152.7667968">
<ele>120.116</ele>
<time>2015-12-18T00:22:36.097Z</time>
</trkpt>
<trkpt lat="-26.9411584" lon="152.7672471">
<ele>120.551</ele>
<time>2015-12-18T00:22:38.119Z</time>
</trkpt>
<trkpt lat="-26.9415939" lon="152.7678827">
<ele>120.349</ele>
<time>2015-12-18T00:22:41.115Z</time>
</trkpt>
<trkpt lat="-26.9420582" lon="152.7685236">
<ele>119.896</ele>
<time>2015-12-18T00:22:44.152Z</time>
</trkpt>
<trkpt lat="-26.9423892" lon="152.7689468">
<ele>119.136</ele>
<time>2015-12-18T00:22:46.175Z</time>
</trkpt>
<trkpt lat="-26.9427423" lon="152.7693502">
<ele>117.990</ele>
<time>2015-12-18T00:22:48.205Z</time>
</trkpt>
<trkpt lat="-26.9431036" lon="152.7697253">
<ele>116.712</ele>
<time>2015-12-18T00:22:50.239Z</time>
</trkpt>
<trkpt lat="-26.9436361" lon="152.7702326">
<ele>115.004</ele>
<time>2015-12-18T00:22:53.221Z</time>
</trkpt>
<trkpt lat="-26.9441753" lon="152.7707105">
<ele>112.440</ele>
<time>2015-12-18T00:22:56.270Z</time>
</trkpt>
<trkpt lat="-26.9445363" lon="152.7709990">
<ele>109.819</ele>
<time>2015-12-18T00:22:58.310Z</time>
</trkpt>
<trkpt lat="-26.9450613" lon="152.7713953">
<ele>108.284</ele>
<time>2015-12-18T00:23:01.278Z</time>
</trkpt>
<trkpt lat="-26.9455878" lon="152.7717849">
<ele>107.948</ele>
<time>2015-12-18T00:23:04.283Z</time>
</trkpt>
<trkpt lat="-26.9459238" lon="152.7720277">
<ele>108.085</ele>
<time>2015-12-18T00:23:06.302Z</time>
</trkpt>
<trkpt lat="-26.9463866" lon="152.7723650">
<ele>107.925</ele>
<time>2015-12-18T00:23:09.274Z</time>
</trkpt>
<trkpt lat="-26.9466699" lon="152.7725950">
<ele>107.053</ele>
<time>2015-12-18T00:23:11.287Z</time>
</trkpt>
<trkpt lat="-26.9469447" lon="152.7728190">
<ele>105.761</ele>
<time>2015-12-18T00:23:13.281Z</time>
</trkpt>
<trkpt lat="-26.9473399" lon="152.7731705">
<ele>104.909</ele>
<time>2015-12-18T00:23:16.319Z</time>
</trkpt>
<trkpt lat="-26.9477021" lon="152.7735015">
<ele>104.881</ele>
<time>2015-12-18T00:23:19.321Z</time>
</trkpt>
<trkpt lat="-26.9480025" lon="152.7738296">
<ele>105.115</ele>
<time>2015-12-18T00:23:22.186Z</time>
</trkpt>
<trkpt lat="-26.9482023" lon="152.7740654">
<ele>105.037</ele>
<time>2015-12-18T00:23:24.180Z</time>
</trkpt>
<trkpt lat="-26.9484115" lon="152.7743031">
<ele>104.724</ele>
<time>2015-12-18T00:23:26.200Z</time>
</trkpt>
<trkpt lat="-26.9487211" lon="152.7746660">
<ele>104.518</ele>
<time>2015-12-18T00:23:29.248Z</time>
</trkpt>
<trkpt lat="-26.9490069" lon="152.7750296">
<ele>104.761</ele>
<time>2015-12-18T00:23:32.235Z</time>
</trkpt>
<trkpt lat="-26.9491862" lon="152.7752639">
<ele>105.511</ele>
<time>2015-12-18T00:23:34.205Z</time>
</trkpt>
<trkpt lat="-26.9494509" lon="152.7756035">
<ele>106.354</ele>
<time>2015-12-18T00:23:37.179Z</time>
</trkpt>
<trkpt lat="-26.9497145" lon="152.7759275">
<ele>107.180</ele>
<time>2015-12-18T00:23:40.156Z</time>
</trkpt>
<trkpt lat="-26.9499120" lon="152.7761269">
<ele>108.191</ele>
<time>2015-12-18T00:23:42.197Z</time>
</trkpt>
<trkpt lat="-26.9501276" lon="152.7763066">
<ele>109.220</ele>
<time>2015-12-18T00:23:44.307Z</time>
</trkpt>
<trkpt lat="-26.9503484" lon="152.7764369">
<ele>109.979</ele>
<time>2015-12-18T00:23:46.317Z</time>
</trkpt>
<trkpt lat="-26.9506967" lon="152.7765738">
<ele>110.377</ele>
<time>2015-12-18T00:23:49.389Z</time>
</trkpt>
<trkpt lat="-26.9509151" lon="152.7766474">
<ele>110.576</ele>
<time>2015-12-18T00:23:51.583Z</time>
</trkpt>
<trkpt lat="-26.9510714" lon="152.7767142">
<ele>110.826</ele>
<time>2015-12-18T00:23:54.175Z</time>
</trkpt>
<trkpt lat="-26.9511395" lon="152.7767974">
<ele>111.058</ele>
<time>2015-12-18T00:23:56.559Z</time>
</trkpt>
<trkpt lat="-26.9511859" lon="152.7769093">
<ele>111.135</ele>
<time>2015-12-18T00:23:59.730Z</time>
</trkpt>
<trkpt lat="-26.9513253" lon="152.7769666">
<ele>111.233</ele>
<time>2015-12-18T00:24:03.529Z</time>
</trkpt>
<trkpt lat="-26.9514099" lon="152.7770043">
<ele>111.561</ele>
<time>2015-12-18T00:24:06.514Z</time>
</trkpt>
<trkpt lat="-26.9514972" lon="152.7770319">
<ele>112.007</ele>
<time>2015-12-18T00:24:10.602Z</time>
</trkpt>
<trkpt lat="-26.9515750" lon="152.7770902">
<ele>112.489</ele>
<time>2015-12-18T00:24:18.076Z</time>
</trkpt>
<trkpt lat="-26.9515750" lon="152.7770902">
<ele>113.044</ele>
<time>2015-12-18T00:24:19.096Z</time>
</trkpt>
<trkpt lat="-26.9515750" lon="152.7770902">
<ele>113.399</ele>
<time>2015-12-18T01:00:11.788Z</time>
</trkpt>
<trkpt lat="-26.9517191" lon="152.7771281">
<ele>113.335</ele>
<time>2015-12-18T01:00:18.393Z</time>
</trkpt>
<trkpt lat="-26.9518083" lon="152.7770654">
<ele>114.390</ele>
<time>2015-12-18T01:00:21.564Z</time>
</trkpt>
<trkpt lat="-26.9518193" lon="152.7769268">
<ele>117.697</ele>
<time>2015-12-18T01:00:25.255Z</time>
</trkpt>
<trkpt lat="-26.9516649" lon="152.7768439">
<ele>121.526</ele>
<time>2015-12-18T01:00:28.449Z</time>
</trkpt>
<trkpt lat="-26.9514362" lon="152.7767798">
<ele>124.078</ele>
<time>2015-12-18T01:00:31.057Z</time>
</trkpt>
<trkpt lat="-26.9510159" lon="152.7766588">
<ele>125.743</ele>
<time>2015-12-18T01:00:34.601Z</time>
</trkpt>
<trkpt lat="-26.9506084" lon="152.7765145">
<ele>127.015</ele>
<time>2015-12-18T01:00:37.724Z</time>
</trkpt>
<trkpt lat="-26.9502163" lon="152.7763515">
<ele>127.534</ele>
<time>2015-12-18T01:00:40.699Z</time>
</trkpt>
<trkpt lat="-26.9498695" lon="152.7760843">
<ele>126.842</ele>
<time>2015-12-18T01:00:43.593Z</time>
</trkpt>
<trkpt lat="-26.9496456" lon="152.7758470">
<ele>125.347</ele>
<time>2015-12-18T01:00:45.552Z</time>
</trkpt>
<trkpt lat="-26.9493105" lon="152.7754333">
<ele>123.759</ele>
<time>2015-12-18T01:00:48.683Z</time>
</trkpt>
<trkpt lat="-26.9490036" lon="152.7750375">
<ele>122.451</ele>
<time>2015-12-18T01:00:51.696Z</time>
</trkpt>
<trkpt lat="-26.9487981" lon="152.7747895">
<ele>121.372</ele>
<time>2015-12-18T01:00:53.668Z</time>
</trkpt>
<trkpt lat="-26.9484911" lon="152.7744052">
<ele>120.415</ele>
<time>2015-12-18T01:00:56.632Z</time>
</trkpt>
<trkpt lat="-26.9482691" lon="152.7741422">
<ele>119.769</ele>
<time>2015-12-18T01:00:58.700Z</time>
</trkpt>
<trkpt lat="-26.9480570" lon="152.7738957">
<ele>119.588</ele>
<time>2015-12-18T01:01:00.701Z</time>
</trkpt>
<trkpt lat="-26.9477312" lon="152.7735449">
<ele>119.657</ele>
<time>2015-12-18T01:01:03.660Z</time>
</trkpt>
<trkpt lat="-26.9473877" lon="152.7732026">
<ele>119.424</ele>
<time>2015-12-18T01:01:06.566Z</time>
</trkpt>
<trkpt lat="-26.9469944" lon="152.7728566">
<ele>118.610</ele>
<time>2015-12-18T01:01:09.472Z</time>
</trkpt>
<trkpt lat="-26.9465341" lon="152.7724940">
<ele>117.735</ele>
<time>2015-12-18T01:01:12.340Z</time>
</trkpt>
<trkpt lat="-26.9459698" lon="152.7720581">
<ele>115.598</ele>
<time>2015-12-18T01:01:15.428Z</time>
</trkpt>
<trkpt lat="-26.9455837" lon="152.7717636">
<ele>110.987</ele>
<time>2015-12-18T01:01:17.425Z</time>
</trkpt>
<trkpt lat="-26.9452004" lon="152.7714755">
<ele>106.265</ele>
<time>2015-12-18T01:01:19.348Z</time>
</trkpt>
<trkpt lat="-26.9445911" lon="152.7710103">
<ele>103.889</ele>
<time>2015-12-18T01:01:22.355Z</time>
</trkpt>
<trkpt lat="-26.9441833" lon="152.7706949">
<ele>103.344</ele>
<time>2015-12-18T01:01:24.356Z</time>
</trkpt>
<trkpt lat="-26.9438072" lon="152.7703521">
<ele>103.491</ele>
<time>2015-12-18T01:01:26.325Z</time>
</trkpt>
<trkpt lat="-26.9432362" lon="152.7698243">
<ele>103.638</ele>
<time>2015-12-18T01:01:29.345Z</time>
</trkpt>
<trkpt lat="-26.9427030" lon="152.7692718">
<ele>104.180</ele>
<time>2015-12-18T01:01:32.339Z</time>
</trkpt>
<trkpt lat="-26.9422070" lon="152.7686961">
<ele>105.704</ele>
<time>2015-12-18T01:01:35.292Z</time>
</trkpt>
<trkpt lat="-26.9417192" lon="152.7680821">
<ele>107.649</ele>
<time>2015-12-18T01:01:38.267Z</time>
</trkpt>
<trkpt lat="-26.9412524" lon="152.7674027">
<ele>109.051</ele>
<time>2015-12-18T01:01:41.314Z</time>
</trkpt>
<trkpt lat="-26.9409676" lon="152.7669440">
<ele>109.933</ele>
<time>2015-12-18T01:01:43.292Z</time>
</trkpt>
<trkpt lat="-26.9405507" lon="152.7662470">
<ele>110.748</ele>
<time>2015-12-18T01:01:46.223Z</time>
</trkpt>
<trkpt lat="-26.9401203" lon="152.7655198">
<ele>111.486</ele>
<time>2015-12-18T01:01:49.251Z</time>
</trkpt>
<trkpt lat="-26.9397650" lon="152.7648207">
<ele>111.870</ele>
<time>2015-12-18T01:01:52.112Z</time>
</trkpt>
<trkpt lat="-26.9393174" lon="152.7641716">
<ele>112.204</ele>
<time>2015-12-18T01:01:55.098Z</time>
</trkpt>
<trkpt lat="-26.9389622" lon="152.7637822">
<ele>112.820</ele>
<time>2015-12-18T01:01:57.126Z</time>
</trkpt>
<trkpt lat="-26.9383461" lon="152.7633024">
<ele>113.445</ele>
<time>2015-12-18T01:02:00.173Z</time>
</trkpt>
<trkpt lat="-26.9379187" lon="152.7630482">
<ele>114.492</ele>
<time>2015-12-18T01:02:02.123Z</time>
</trkpt>
<trkpt lat="-26.9374854" lon="152.7627943">
<ele>116.582</ele>
<time>2015-12-18T01:02:04.078Z</time>
</trkpt>
<trkpt lat="-26.9370430" lon="152.7625215">
<ele>118.681</ele>
<time>2015-12-18T01:02:06.067Z</time>
</trkpt>
<trkpt lat="-26.9363554" lon="152.7621119">
<ele>119.557</ele>
<time>2015-12-18T01:02:09.089Z</time>
</trkpt>
<trkpt lat="-26.9359092" lon="152.7618184">
<ele>119.450</ele>
<time>2015-12-18T01:02:11.081Z</time>
</trkpt>
<trkpt lat="-26.9352502" lon="152.7613556">
<ele>119.072</ele>
<time>2015-12-18T01:02:14.075Z</time>
</trkpt>
<trkpt lat="-26.9348358" lon="152.7610237">
<ele>118.815</ele>
<time>2015-12-18T01:02:16.054Z</time>
</trkpt>
<trkpt lat="-26.9344289" lon="152.7606818">
<ele>118.622</ele>
<time>2015-12-18T01:02:18.052Z</time>
</trkpt>
<trkpt lat="-26.9338463" lon="152.7601380">
<ele>118.359</ele>
<time>2015-12-18T01:02:21.044Z</time>
</trkpt>
<trkpt lat="-26.9332805" lon="152.7596002">
<ele>118.121</ele>
<time>2015-12-18T01:02:23.980Z</time>
</trkpt>
<trkpt lat="-26.9329037" lon="152.7592159">
<ele>117.884</ele>
<time>2015-12-18T01:02:26.010Z</time>
</trkpt>
<trkpt lat="-26.9325593" lon="152.7588259">
<ele>117.524</ele>
<time>2015-12-18T01:02:27.985Z</time>
</trkpt>
<trkpt lat="-26.9320593" lon="152.7582673">
<ele>117.171</ele>
<time>2015-12-18T01:02:30.905Z</time>
</trkpt>
<trkpt lat="-26.9317676" lon="152.7578848">
<ele>116.921</ele>
<time>2015-12-18T01:02:32.860Z</time>
</trkpt>
<trkpt lat="-26.9313451" lon="152.7573351">
<ele>116.602</ele>
<time>2015-12-18T01:02:35.964Z</time>
</trkpt>
<trkpt lat="-26.9310104" lon="152.7569030">
<ele>115.897</ele>
<time>2015-12-18T01:02:39.070Z</time>
</trkpt>
<trkpt lat="-26.9308355" lon="152.7566314">
<ele>114.242</ele>
<time>2015-12-18T01:02:41.690Z</time>
</trkpt>
<trkpt lat="-26.9306507" lon="152.7566072">
<ele>111.137</ele>
<time>2015-12-18T01:02:44.128Z</time>
</trkpt>
<trkpt lat="-26.9305120" lon="152.7567195">
<ele>107.409</ele>
<time>2015-12-18T01:02:46.348Z</time>
</trkpt>
<trkpt lat="-26.9303439" lon="152.7569026">
<ele>105.073</ele>
<time>2015-12-18T01:02:48.512Z</time>
</trkpt>
<trkpt lat="-26.9300069" lon="152.7572608">
<ele>105.356</ele>
<time>2015-12-18T01:02:51.662Z</time>
</trkpt>
<trkpt lat="-26.9297300" lon="152.7575699">
<ele>107.821</ele>
<time>2015-12-18T01:02:53.752Z</time>
</trkpt>
<trkpt lat="-26.9292589" lon="152.7581168">
<ele>111.444</ele>
<time>2015-12-18T01:02:57.079Z</time>
</trkpt>
<trkpt lat="-26.9287090" lon="152.7587222">
<ele>115.278</ele>
<time>2015-12-18T01:03:00.607Z</time>
</trkpt>
<trkpt lat="-26.9281563" lon="152.7593158">
<ele>118.650</ele>
<time>2015-12-18T01:03:03.776Z</time>
</trkpt>
<trkpt lat="-26.9277841" lon="152.7597319">
<ele>121.063</ele>
<time>2015-12-18T01:03:05.760Z</time>
</trkpt>
<trkpt lat="-26.9273989" lon="152.7601507">
<ele>122.112</ele>
<time>2015-12-18T01:03:07.754Z</time>
</trkpt>
<trkpt lat="-26.9270133" lon="152.7605850">
<ele>121.935</ele>
<time>2015-12-18T01:03:09.799Z</time>
</trkpt>
<trkpt lat="-26.9264488" lon="152.7612051">
<ele>121.045</ele>
<time>2015-12-18T01:03:12.811Z</time>
</trkpt>
<trkpt lat="-26.9260885" lon="152.7616092">
<ele>119.855</ele>
<time>2015-12-18T01:03:14.801Z</time>
</trkpt>
<trkpt lat="-26.9257302" lon="152.7620077">
<ele>118.906</ele>
<time>2015-12-18T01:03:16.853Z</time>
</trkpt>
<trkpt lat="-26.9252252" lon="152.7625596">
<ele>118.309</ele>
<time>2015-12-18T01:03:19.894Z</time>
</trkpt>
<trkpt lat="-26.9249158" lon="152.7628849">
<ele>117.615</ele>
<time>2015-12-18T01:03:21.814Z</time>
</trkpt>
<trkpt lat="-26.9244498" lon="152.7634020">
<ele>116.850</ele>
<time>2015-12-18T01:03:24.683Z</time>
</trkpt>
<trkpt lat="-26.9241130" lon="152.7637952">
<ele>116.660</ele>
<time>2015-12-18T01:03:26.659Z</time>
</trkpt>
<trkpt lat="-26.9235695" lon="152.7644003">
<ele>117.638</ele>
<time>2015-12-18T01:03:29.696Z</time>
</trkpt>
<trkpt lat="-26.9230325" lon="152.7650067">
<ele>119.793</ele>
<time>2015-12-18T01:03:32.674Z</time>
</trkpt>
<trkpt lat="-26.9224836" lon="152.7656071">
<ele>122.382</ele>
<time>2015-12-18T01:03:35.680Z</time>
</trkpt>
<trkpt lat="-26.9221269" lon="152.7660069">
<ele>124.383</ele>
<time>2015-12-18T01:03:37.689Z</time>
</trkpt>
<trkpt lat="-26.9217797" lon="152.7664056">
<ele>125.049</ele>
<time>2015-12-18T01:03:39.668Z</time>
</trkpt>
<trkpt lat="-26.9212390" lon="152.7669783">
<ele>124.329</ele>
<time>2015-12-18T01:03:42.608Z</time>
</trkpt>
<trkpt lat="-26.9206920" lon="152.7675796">
<ele>122.855</ele>
<time>2015-12-18T01:03:45.608Z</time>
</trkpt>
<trkpt lat="-26.9203137" lon="152.7679685">
<ele>121.503</ele>
<time>2015-12-18T01:03:47.618Z</time>
</trkpt>
<trkpt lat="-26.9197259" lon="152.7685134">
<ele>121.032</ele>
<time>2015-12-18T01:03:50.591Z</time>
</trkpt>
<trkpt lat="-26.9190872" lon="152.7690152">
<ele>121.727</ele>
<time>2015-12-18T01:03:53.591Z</time>
</trkpt>
<trkpt lat="-26.9186433" lon="152.7693316">
<ele>123.045</ele>
<time>2015-12-18T01:03:55.595Z</time>
</trkpt>
<trkpt lat="-26.9179448" lon="152.7697574">
<ele>124.141</ele>
<time>2015-12-18T01:03:58.639Z</time>
</trkpt>
<trkpt lat="-26.9174934" lon="152.7700387">
<ele>124.432</ele>
<time>2015-12-18T01:04:00.642Z</time>
</trkpt>
<trkpt lat="-26.9168118" lon="152.7704326">
<ele>123.566</ele>
<time>2015-12-18T01:04:03.618Z</time>
</trkpt>
<trkpt lat="-26.9163510" lon="152.7707085">
<ele>121.737</ele>
<time>2015-12-18T01:04:05.634Z</time>
</trkpt>
<trkpt lat="-26.9156596" lon="152.7711024">
<ele>120.011</ele>
<time>2015-12-18T01:04:08.629Z</time>
</trkpt>
<trkpt lat="-26.9149742" lon="152.7715103">
<ele>119.304</ele>
<time>2015-12-18T01:04:11.643Z</time>
</trkpt>
<trkpt lat="-26.9145232" lon="152.7717855">
<ele>119.414</ele>
<time>2015-12-18T01:04:13.646Z</time>
</trkpt>
<trkpt lat="-26.9140657" lon="152.7720609">
<ele>119.344</ele>
<time>2015-12-18T01:04:15.667Z</time>
</trkpt>
<trkpt lat="-26.9133901" lon="152.7724824">
<ele>118.605</ele>
<time>2015-12-18T01:04:18.665Z</time>
</trkpt>
<trkpt lat="-26.9127209" lon="152.7729157">
<ele>117.728</ele>
<time>2015-12-18T01:04:21.655Z</time>
</trkpt>
<trkpt lat="-26.9122862" lon="152.7732109">
<ele>117.406</ele>
<time>2015-12-18T01:04:23.631Z</time>
</trkpt>
<trkpt lat="-26.9118601" lon="152.7735293">
<ele>117.640</ele>
<time>2015-12-18T01:04:25.634Z</time>
</trkpt>
<trkpt lat="-26.9112657" lon="152.7740427">
<ele>118.102</ele>
<time>2015-12-18T01:04:28.573Z</time>
</trkpt>
<trkpt lat="-26.9106795" lon="152.7745657">
<ele>118.492</ele>
<time>2015-12-18T01:04:31.507Z</time>
</trkpt>
<trkpt lat="-26.9102845" lon="152.7749277">
<ele>118.831</ele>
<time>2015-12-18T01:04:33.509Z</time>
</trkpt>
<trkpt lat="-26.9096963" lon="152.7754557">
<ele>119.424</ele>
<time>2015-12-18T01:04:36.455Z</time>
</trkpt>
<trkpt lat="-26.9090431" lon="152.7759323">
<ele>120.491</ele>
<time>2015-12-18T01:04:39.482Z</time>
</trkpt>
<trkpt lat="-26.9083755" lon="152.7763490">
<ele>121.737</ele>
<time>2015-12-18T01:04:42.443Z</time>
</trkpt>
<trkpt lat="-26.9079061" lon="152.7765876">
<ele>122.755</ele>
<time>2015-12-18T01:04:44.443Z</time>
</trkpt>
<trkpt lat="-26.9071803" lon="152.7768961">
<ele>123.427</ele>
<time>2015-12-18T01:04:47.463Z</time>
</trkpt>
<trkpt lat="-26.9064409" lon="152.7771352">
<ele>124.157</ele>
<time>2015-12-18T01:04:50.467Z</time>
</trkpt>
<trkpt lat="-26.9059334" lon="152.7772441">
<ele>125.390</ele>
<time>2015-12-18T01:04:52.473Z</time>
</trkpt>
<trkpt lat="-26.9051644" lon="152.7773665">
<ele>127.105</ele>
<time>2015-12-18T01:04:55.469Z</time>
</trkpt>
<trkpt lat="-26.9043764" lon="152.7774089">
<ele>128.787</ele>
<time>2015-12-18T01:04:58.510Z</time>
</trkpt>
<trkpt lat="-26.9038715" lon="152.7774326">
<ele>129.599</ele>
<time>2015-12-18T01:05:00.494Z</time>
</trkpt>
<trkpt lat="-26.9031233" lon="152.7774797">
<ele>128.567</ele>
<time>2015-12-18T01:05:03.455Z</time>
</trkpt>
<trkpt lat="-26.9023695" lon="152.7776197">
<ele>125.879</ele>
<time>2015-12-18T01:05:06.471Z</time>
</trkpt>
<trkpt lat="-26.9018772" lon="152.7777561">
<ele>123.115</ele>
<time>2015-12-18T01:05:08.450Z</time>
</trkpt>
<trkpt lat="-26.9011421" lon="152.7780383">
<ele>121.722</ele>
<time>2015-12-18T01:05:11.459Z</time>
</trkpt>
<trkpt lat="-26.9006546" lon="152.7782526">
<ele>121.712</ele>
<time>2015-12-18T01:05:13.486Z</time>
</trkpt>
<trkpt lat="-26.9001886" lon="152.7784853">
<ele>122.242</ele>
<time>2015-12-18T01:05:15.470Z</time>
</trkpt>
<trkpt lat="-26.8994970" lon="152.7788818">
<ele>121.973</ele>
<time>2015-12-18T01:05:18.488Z</time>
</trkpt>
<trkpt lat="-26.8990467" lon="152.7791605">
<ele>120.385</ele>
<time>2015-12-18T01:05:20.482Z</time>
</trkpt>
<trkpt lat="-26.8985931" lon="152.7794275">
<ele>118.764</ele>
<time>2015-12-18T01:05:22.475Z</time>
</trkpt>
<trkpt lat="-26.8979131" lon="152.7798337">
<ele>118.380</ele>
<time>2015-12-18T01:05:25.484Z</time>
</trkpt>
<trkpt lat="-26.8972375" lon="152.7802136">
<ele>118.882</ele>
<time>2015-12-18T01:05:28.436Z</time>
</trkpt>
<trkpt lat="-26.8967857" lon="152.7804915">
<ele>118.902</ele>
<time>2015-12-18T01:05:30.446Z</time>
</trkpt>
<trkpt lat="-26.8961193" lon="152.7809023">
<ele>117.738</ele>
<time>2015-12-18T01:05:33.411Z</time>
</trkpt>
<trkpt lat="-26.8956848" lon="152.7811981">
<ele>116.875</ele>
<time>2015-12-18T01:05:35.395Z</time>
</trkpt>
<trkpt lat="-26.8952599" lon="152.7815055">
<ele>118.032</ele>
<time>2015-12-18T01:05:37.378Z</time>
</trkpt>
<trkpt lat="-26.8946259" lon="152.7819735">
<ele>120.920</ele>
<time>2015-12-18T01:05:40.364Z</time>
</trkpt>
<trkpt lat="-26.8939933" lon="152.7824431">
<ele>123.992</ele>
<time>2015-12-18T01:05:43.369Z</time>
</trkpt>
<trkpt lat="-26.8933699" lon="152.7828966">
<ele>125.826</ele>
<time>2015-12-18T01:05:46.333Z</time>
</trkpt>
<trkpt lat="-26.8927435" lon="152.7833603">
<ele>125.438</ele>
<time>2015-12-18T01:05:49.302Z</time>
</trkpt>
<trkpt lat="-26.8920921" lon="152.7838343">
<ele>122.836</ele>
<time>2015-12-18T01:05:52.316Z</time>
</trkpt>
<trkpt lat="-26.8914473" lon="152.7843210">
<ele>119.523</ele>
<time>2015-12-18T01:05:55.301Z</time>
</trkpt>
<trkpt lat="-26.8910153" lon="152.7846429">
<ele>117.278</ele>
<time>2015-12-18T01:05:57.281Z</time>
</trkpt>
<trkpt lat="-26.8903552" lon="152.7851359">
<ele>116.468</ele>
<time>2015-12-18T01:06:00.283Z</time>
</trkpt>
<trkpt lat="-26.8896821" lon="152.7856406">
<ele>116.420</ele>
<time>2015-12-18T01:06:03.304Z</time>
</trkpt>
<trkpt lat="-26.8892292" lon="152.7859656">
<ele>116.466</ele>
<time>2015-12-18T01:06:05.306Z</time>
</trkpt>
<trkpt lat="-26.8887529" lon="152.7862457">
<ele>116.433</ele>
<time>2015-12-18T01:06:07.349Z</time>
</trkpt>
<trkpt lat="-26.8880494" lon="152.7865776">
<ele>116.455</ele>
<time>2015-12-18T01:06:10.313Z</time>
</trkpt>
<trkpt lat="-26.8875632" lon="152.7867456">
<ele>116.595</ele>
<time>2015-12-18T01:06:12.318Z</time>
</trkpt>
<trkpt lat="-26.8870692" lon="152.7868804">
<ele>116.756</ele>
<time>2015-12-18T01:06:14.308Z</time>
</trkpt>
<trkpt lat="-26.8865644" lon="152.7869900">
<ele>117.166</ele>
<time>2015-12-18T01:06:16.304Z</time>
</trkpt>
<trkpt lat="-26.8857870" lon="152.7870814">
<ele>118.479</ele>
<time>2015-12-18T01:06:19.339Z</time>
</trkpt>
<trkpt lat="-26.8852814" lon="152.7870714">
<ele>120.499</ele>
<time>2015-12-18T01:06:21.329Z</time>
</trkpt>
<trkpt lat="-26.8845347" lon="152.7870420">
<ele>121.958</ele>
<time>2015-12-18T01:06:24.308Z</time>
</trkpt>
<trkpt lat="-26.8840422" lon="152.7870154">
<ele>121.777</ele>
<time>2015-12-18T01:06:26.309Z</time>
</trkpt>
<trkpt lat="-26.8835580" lon="152.7869843">
<ele>120.234</ele>
<time>2015-12-18T01:06:28.293Z</time>
</trkpt>
<trkpt lat="-26.8828244" lon="152.7869479">
<ele>118.842</ele>
<time>2015-12-18T01:06:31.285Z</time>
</trkpt>
<trkpt lat="-26.8820658" lon="152.7869978">
<ele>118.581</ele>
<time>2015-12-18T01:06:34.334Z</time>
</trkpt>
<trkpt lat="-26.8815788" lon="152.7870727">
<ele>119.005</ele>
<time>2015-12-18T01:06:36.274Z</time>
</trkpt>
<trkpt lat="-26.8810838" lon="152.7871864">
<ele>119.470</ele>
<time>2015-12-18T01:06:38.253Z</time>
</trkpt>
<trkpt lat="-26.8803530" lon="152.7874518">
<ele>119.843</ele>
<time>2015-12-18T01:06:41.277Z</time>
</trkpt>
<trkpt lat="-26.8796699" lon="152.7877960">
<ele>120.221</ele>
<time>2015-12-18T01:06:44.280Z</time>
</trkpt>
<trkpt lat="-26.8792340" lon="152.7880689">
<ele>120.577</ele>
<time>2015-12-18T01:06:46.290Z</time>
</trkpt>
<trkpt lat="-26.8788185" lon="152.7883903">
<ele>120.755</ele>
<time>2015-12-18T01:06:48.298Z</time>
</trkpt>
<trkpt lat="-26.8782233" lon="152.7888994">
<ele>120.733</ele>
<time>2015-12-18T01:06:51.257Z</time>
</trkpt>
<trkpt lat="-26.8778690" lon="152.7893034">
<ele>120.638</ele>
<time>2015-12-18T01:06:53.261Z</time>
</trkpt>
<trkpt lat="-26.8773929" lon="152.7899413">
<ele>120.417</ele>
<time>2015-12-18T01:06:56.216Z</time>
</trkpt>
<trkpt lat="-26.8771044" lon="152.7903992">
<ele>119.889</ele>
<time>2015-12-18T01:06:58.203Z</time>
</trkpt>
<trkpt lat="-26.8768415" lon="152.7908870">
<ele>119.210</ele>
<time>2015-12-18T01:07:00.202Z</time>
</trkpt>
<trkpt lat="-26.8766006" lon="152.7913906">
<ele>118.749</ele>
<time>2015-12-18T01:07:02.202Z</time>
</trkpt>
<trkpt lat="-26.8762506" lon="152.7921483">
<ele>118.599</ele>
<time>2015-12-18T01:07:05.209Z</time>
</trkpt>
<trkpt lat="-26.8760224" lon="152.7926350">
<ele>118.610</ele>
<time>2015-12-18T01:07:07.158Z</time>
</trkpt>
<trkpt lat="-26.8756886" lon="152.7933921">
<ele>118.648</ele>
<time>2015-12-18T01:07:10.144Z</time>
</trkpt>
<trkpt lat="-26.8754570" lon="152.7939081">
<ele>118.753</ele>
<time>2015-12-18T01:07:12.176Z</time>
</trkpt>
<trkpt lat="-26.8752283" lon="152.7943974">
<ele>119.400</ele>
<time>2015-12-18T01:07:14.117Z</time>
</trkpt>
<trkpt lat="-26.8748782" lon="152.7951593">
<ele>120.716</ele>
<time>2015-12-18T01:07:17.125Z</time>
</trkpt>
<trkpt lat="-26.8746454" lon="152.7956718">
<ele>121.938</ele>
<time>2015-12-18T01:07:19.133Z</time>
</trkpt>
<trkpt lat="-26.8744205" lon="152.7961873">
<ele>122.496</ele>
<time>2015-12-18T01:07:21.131Z</time>
</trkpt>
<trkpt lat="-26.8741928" lon="152.7966938">
<ele>122.889</ele>
<time>2015-12-18T01:07:23.098Z</time>
</trkpt>
<trkpt lat="-26.8738358" lon="152.7974603">
<ele>123.623</ele>
<time>2015-12-18T01:07:26.090Z</time>
</trkpt>
<trkpt lat="-26.8736207" lon="152.7979754">
<ele>124.578</ele>
<time>2015-12-18T01:07:28.077Z</time>
</trkpt>
<trkpt lat="-26.8732721" lon="152.7987170">
<ele>126.025</ele>
<time>2015-12-18T01:07:31.038Z</time>
</trkpt>
<trkpt lat="-26.8730369" lon="152.7992144">
<ele>128.149</ele>
<time>2015-12-18T01:07:33.021Z</time>
</trkpt>
<trkpt lat="-26.8726947" lon="152.7999867">
<ele>129.962</ele>
<time>2015-12-18T01:07:36.016Z</time>
</trkpt>
<trkpt lat="-26.8723436" lon="152.8007764">
<ele>130.975</ele>
<time>2015-12-18T01:07:39.045Z</time>
</trkpt>
<trkpt lat="-26.8720052" lon="152.8015420">
<ele>131.968</ele>
<time>2015-12-18T01:07:41.999Z</time>
</trkpt>
<trkpt lat="-26.8718030" lon="152.8020645">
<ele>133.237</ele>
<time>2015-12-18T01:07:43.989Z</time>
</trkpt>
<trkpt lat="-26.8715303" lon="152.8028661">
<ele>134.224</ele>
<time>2015-12-18T01:07:46.991Z</time>
</trkpt>
<trkpt lat="-26.8713677" lon="152.8033926">
<ele>134.348</ele>
<time>2015-12-18T01:07:48.940Z</time>
</trkpt>
<trkpt lat="-26.8712404" lon="152.8039503">
<ele>133.713</ele>
<time>2015-12-18T01:07:50.949Z</time>
</trkpt>
<trkpt lat="-26.8710398" lon="152.8047997">
<ele>132.962</ele>
<time>2015-12-18T01:07:53.998Z</time>
</trkpt>
<trkpt lat="-26.8709137" lon="152.8053595">
<ele>132.466</ele>
<time>2015-12-18T01:07:55.999Z</time>
</trkpt>
<trkpt lat="-26.8707230" lon="152.8061926">
<ele>132.124</ele>
<time>2015-12-18T01:07:59.007Z</time>
</trkpt>
<trkpt lat="-26.8705068" lon="152.8069885">
<ele>131.729</ele>
<time>2015-12-18T01:08:01.964Z</time>
</trkpt>
<trkpt lat="-26.8703151" lon="152.8074969">
<ele>131.160</ele>
<time>2015-12-18T01:08:03.942Z</time>
</trkpt>
<trkpt lat="-26.8700934" lon="152.8079933">
<ele>130.402</ele>
<time>2015-12-18T01:08:05.919Z</time>
</trkpt>
<trkpt lat="-26.8696911" lon="152.8087115">
<ele>129.512</ele>
<time>2015-12-18T01:08:08.917Z</time>
</trkpt>
<trkpt lat="-26.8692200" lon="152.8093708">
<ele>128.712</ele>
<time>2015-12-18T01:08:11.900Z</time>
</trkpt>
<trkpt lat="-26.8688798" lon="152.8097726">
<ele>127.564</ele>
<time>2015-12-18T01:08:13.865Z</time>
</trkpt>
<trkpt lat="-26.8685054" lon="152.8101254">
<ele>125.458</ele>
<time>2015-12-18T01:08:15.819Z</time>
</trkpt>
<trkpt lat="-26.8679481" lon="152.8106733">
<ele>122.856</ele>
<time>2015-12-18T01:08:18.805Z</time>
</trkpt>
<trkpt lat="-26.8675805" lon="152.8110286">
<ele>120.522</ele>
<time>2015-12-18T01:08:20.790Z</time>
</trkpt>
<trkpt lat="-26.8670180" lon="152.8115226">
<ele>118.386</ele>
<time>2015-12-18T01:08:23.745Z</time>
</trkpt>
<trkpt lat="-26.8664507" lon="152.8120335">
<ele>116.446</ele>
<time>2015-12-18T01:08:26.721Z</time>
</trkpt>
<trkpt lat="-26.8658774" lon="152.8125706">
<ele>115.448</ele>
<time>2015-12-18T01:08:29.688Z</time>
</trkpt>
<trkpt lat="-26.8654833" lon="152.8129326">
<ele>115.906</ele>
<time>2015-12-18T01:08:31.687Z</time>
</trkpt>
<trkpt lat="-26.8648970" lon="152.8134634">
<ele>117.400</ele>
<time>2015-12-18T01:08:34.664Z</time>
</trkpt>
<trkpt lat="-26.8643146" lon="152.8139752">
<ele>119.252</ele>
<time>2015-12-18T01:08:37.618Z</time>
</trkpt>
<trkpt lat="-26.8638968" lon="152.8143038">
<ele>120.936</ele>
<time>2015-12-18T01:08:39.663Z</time>
</trkpt>
<trkpt lat="-26.8634717" lon="152.8145955">
<ele>122.439</ele>
<time>2015-12-18T01:08:41.659Z</time>
</trkpt>
<trkpt lat="-26.8627778" lon="152.8149719">
<ele>123.988</ele>
<time>2015-12-18T01:08:44.727Z</time>
</trkpt>
<trkpt lat="-26.8622864" lon="152.8151475">
<ele>125.413</ele>
<time>2015-12-18T01:08:46.769Z</time>
</trkpt>
<trkpt lat="-26.8615642" lon="152.8153709">
<ele>126.495</ele>
<time>2015-12-18T01:08:49.755Z</time>
</trkpt>
<trkpt lat="-26.8608405" lon="152.8155153">
<ele>127.268</ele>
<time>2015-12-18T01:08:52.729Z</time>
</trkpt>
<trkpt lat="-26.8603605" lon="152.8155453">
<ele>127.838</ele>
<time>2015-12-18T01:08:54.703Z</time>
</trkpt>
<trkpt lat="-26.8598753" lon="152.8155523">
<ele>128.212</ele>
<time>2015-12-18T01:08:56.713Z</time>
</trkpt>
<trkpt lat="-26.8591497" lon="152.8155682">
<ele>128.467</ele>
<time>2015-12-18T01:08:59.696Z</time>
</trkpt>
<trkpt lat="-26.8586390" lon="152.8155727">
<ele>128.945</ele>
<time>2015-12-18T01:09:01.736Z</time>
</trkpt>
<trkpt lat="-26.8578797" lon="152.8155817">
<ele>130.044</ele>
<time>2015-12-18T01:09:04.740Z</time>
</trkpt>
<trkpt lat="-26.8571335" lon="152.8156091">
<ele>131.748</ele>
<time>2015-12-18T01:09:07.716Z</time>
</trkpt>
<trkpt lat="-26.8566356" lon="152.8156246">
<ele>133.480</ele>
<time>2015-12-18T01:09:09.725Z</time>
</trkpt>
<trkpt lat="-26.8559059" lon="152.8156428">
<ele>135.028</ele>
<time>2015-12-18T01:09:12.719Z</time>
</trkpt>
<trkpt lat="-26.8551951" lon="152.8156616">
<ele>137.515</ele>
<time>2015-12-18T01:09:15.688Z</time>
</trkpt>
<trkpt lat="-26.8547146" lon="152.8156822">
<ele>141.734</ele>
<time>2015-12-18T01:09:17.695Z</time>
</trkpt>
<trkpt lat="-26.8539868" lon="152.8156991">
<ele>146.887</ele>
<time>2015-12-18T01:09:20.757Z</time>
</trkpt>
<trkpt lat="-26.8535534" lon="152.8157008">
<ele>151.657</ele>
<time>2015-12-18T01:09:22.702Z</time>
</trkpt>
<trkpt lat="-26.8531513" lon="152.8156976">
<ele>154.977</ele>
<time>2015-12-18T01:09:24.630Z</time>
</trkpt>
<trkpt lat="-26.8525520" lon="152.8156945">
<ele>156.393</ele>
<time>2015-12-18T01:09:27.591Z</time>
</trkpt>
<trkpt lat="-26.8519383" lon="152.8157099">
<ele>156.744</ele>
<time>2015-12-18T01:09:30.613Z</time>
</trkpt>
<trkpt lat="-26.8513173" lon="152.8157194">
<ele>157.037</ele>
<time>2015-12-18T01:09:33.651Z</time>
</trkpt>
<trkpt lat="-26.8507314" lon="152.8157235">
<ele>157.341</ele>
<time>2015-12-18T01:09:36.599Z</time>
</trkpt>
<trkpt lat="-26.8503533" lon="152.8157235">
<ele>156.814</ele>
<time>2015-12-18T01:09:38.588Z</time>
</trkpt>
<trkpt lat="-26.8498089" lon="152.8157725">
<ele>155.093</ele>
<time>2015-12-18T01:09:41.568Z</time>
</trkpt>
<trkpt lat="-26.8494726" lon="152.8158859">
<ele>152.814</ele>
<time>2015-12-18T01:09:43.555Z</time>
</trkpt>
<trkpt lat="-26.8490179" lon="152.8161622">
<ele>150.837</ele>
<time>2015-12-18T01:09:46.509Z</time>
</trkpt>
<trkpt lat="-26.8487599" lon="152.8164282">
<ele>150.034</ele>
<time>2015-12-18T01:09:48.471Z</time>
</trkpt>
<trkpt lat="-26.8484643" lon="152.8169610">
<ele>151.306</ele>
<time>2015-12-18T01:09:51.494Z</time>
</trkpt>
<trkpt lat="-26.8483439" lon="152.8173875">
<ele>154.768</ele>
<time>2015-12-18T01:09:53.606Z</time>
</trkpt>
<trkpt lat="-26.8482712" lon="152.8180074">
<ele>159.375</ele>
<time>2015-12-18T01:09:56.629Z</time>
</trkpt>
<trkpt lat="-26.8482387" lon="152.8183622">
<ele>163.295</ele>
<time>2015-12-18T01:09:58.500Z</time>
</trkpt>
<trkpt lat="-26.8481844" lon="152.8186943">
<ele>165.430</ele>
<time>2015-12-18T01:10:00.393Z</time>
</trkpt>
<trkpt lat="-26.8480062" lon="152.8191916">
<ele>166.087</ele>
<time>2015-12-18T01:10:03.408Z</time>
</trkpt>
<trkpt lat="-26.8476907" lon="152.8196234">
<ele>166.373</ele>
<time>2015-12-18T01:10:06.458Z</time>
</trkpt>
<trkpt lat="-26.8474183" lon="152.8198249">
<ele>167.361</ele>
<time>2015-12-18T01:10:08.432Z</time>
</trkpt>
<trkpt lat="-26.8470935" lon="152.8199251">
<ele>169.344</ele>
<time>2015-12-18T01:10:10.472Z</time>
</trkpt>
<trkpt lat="-26.8466054" lon="152.8199227">
<ele>171.979</ele>
<time>2015-12-18T01:10:13.443Z</time>
</trkpt>
<trkpt lat="-26.8462815" lon="152.8198067">
<ele>174.981</ele>
<time>2015-12-18T01:10:15.484Z</time>
</trkpt>
<trkpt lat="-26.8459909" lon="152.8196099">
<ele>178.183</ele>
<time>2015-12-18T01:10:17.526Z</time>
</trkpt>
<trkpt lat="-26.8456501" lon="152.8192755">
<ele>181.319</ele>
<time>2015-12-18T01:10:20.414Z</time>
</trkpt>
<trkpt lat="-26.8453290" lon="152.8189636">
<ele>184.167</ele>
<time>2015-12-18T01:10:23.343Z</time>
</trkpt>
<trkpt lat="-26.8450952" lon="152.8187768">
<ele>186.828</ele>
<time>2015-12-18T01:10:25.354Z</time>
</trkpt>
<trkpt lat="-26.8448312" lon="152.8186555">
<ele>189.532</ele>
<time>2015-12-18T01:10:27.346Z</time>
</trkpt>
<trkpt lat="-26.8443962" lon="152.8185915">
<ele>192.379</ele>
<time>2015-12-18T01:10:30.355Z</time>
</trkpt>
<trkpt lat="-26.8440951" lon="152.8185997">
<ele>195.536</ele>
<time>2015-12-18T01:10:32.357Z</time>
</trkpt>
<trkpt lat="-26.8437914" lon="152.8185751">
<ele>199.032</ele>
<time>2015-12-18T01:10:34.353Z</time>
</trkpt>
<trkpt lat="-26.8433714" lon="152.8183973">
<ele>202.525</ele>
<time>2015-12-18T01:10:37.314Z</time>
</trkpt>
<trkpt lat="-26.8431372" lon="152.8181789">
<ele>205.826</ele>
<time>2015-12-18T01:10:39.338Z</time>
</trkpt>
<trkpt lat="-26.8428240" lon="152.8178271">
<ele>208.992</ele>
<time>2015-12-18T01:10:42.345Z</time>
</trkpt>
<trkpt lat="-26.8424357" lon="152.8176588">
<ele>211.816</ele>
<time>2015-12-18T01:10:45.278Z</time>
</trkpt>
<trkpt lat="-26.8420137" lon="152.8176230">
<ele>214.215</ele>
<time>2015-12-18T01:10:48.330Z</time>
</trkpt>
<trkpt lat="-26.8417642" lon="152.8175158">
<ele>216.731</ele>
<time>2015-12-18T01:10:50.271Z</time>
</trkpt>
<trkpt lat="-26.8415456" lon="152.8172967">
<ele>219.521</ele>
<time>2015-12-18T01:10:52.327Z</time>
</trkpt>
<trkpt lat="-26.8412635" lon="152.8169011">
<ele>222.130</ele>
<time>2015-12-18T01:10:55.288Z</time>
</trkpt>
<trkpt lat="-26.8410677" lon="152.8166440">
<ele>224.376</ele>
<time>2015-12-18T01:10:57.248Z</time>
</trkpt>
<trkpt lat="-26.8406612" lon="152.8164093">
<ele>226.208</ele>
<time>2015-12-18T01:11:00.276Z</time>
</trkpt>
<trkpt lat="-26.8401892" lon="152.8163819">
<ele>227.967</ele>
<time>2015-12-18T01:11:03.311Z</time>
</trkpt>
<trkpt lat="-26.8398826" lon="152.8164907">
<ele>230.740</ele>
<time>2015-12-18T01:11:05.306Z</time>
</trkpt>
<trkpt lat="-26.8395109" lon="152.8168517">
<ele>234.529</ele>
<time>2015-12-18T01:11:08.268Z</time>
</trkpt>
<trkpt lat="-26.8393011" lon="152.8171952">
<ele>238.269</ele>
<time>2015-12-18T01:11:10.396Z</time>
</trkpt>
<trkpt lat="-26.8389020" lon="152.8175562">
<ele>241.456</ele>
<time>2015-12-18T01:11:13.339Z</time>
</trkpt>
<trkpt lat="-26.8383935" lon="152.8176241">
<ele>243.857</ele>
<time>2015-12-18T01:11:16.350Z</time>
</trkpt>
<trkpt lat="-26.8380423" lon="152.8175451">
<ele>245.624</ele>
<time>2015-12-18T01:11:18.430Z</time>
</trkpt>
<trkpt lat="-26.8377239" lon="152.8174716">
<ele>247.735</ele>
<time>2015-12-18T01:11:20.379Z</time>
</trkpt>
<trkpt lat="-26.8372713" lon="152.8175122">
<ele>250.259</ele>
<time>2015-12-18T01:11:23.307Z</time>
</trkpt>
<trkpt lat="-26.8368298" lon="152.8176841">
<ele>252.268</ele>
<time>2015-12-18T01:11:26.387Z</time>
</trkpt>
<trkpt lat="-26.8365391" lon="152.8176593">
<ele>253.609</ele>
<time>2015-12-18T01:11:28.357Z</time>
</trkpt>
<trkpt lat="-26.8362497" lon="152.8175800">
<ele>254.640</ele>
<time>2015-12-18T01:11:30.374Z</time>
</trkpt>
<trkpt lat="-26.8357734" lon="152.8175848">
<ele>255.422</ele>
<time>2015-12-18T01:11:33.455Z</time>
</trkpt>
<trkpt lat="-26.8353318" lon="152.8177440">
<ele>256.279</ele>
<time>2015-12-18T01:11:36.415Z</time>
</trkpt>
<trkpt lat="-26.8349762" lon="152.8180597">
<ele>257.394</ele>
<time>2015-12-18T01:11:39.369Z</time>
</trkpt>
<trkpt lat="-26.8347229" lon="152.8184871">
<ele>258.299</ele>
<time>2015-12-18T01:11:42.470Z</time>
</trkpt>
<trkpt lat="-26.8346247" lon="152.8186737">
<ele>258.493</ele>
<time>2015-12-18T01:11:44.047Z</time>
</trkpt>
<trkpt lat="-26.8346247" lon="152.8186737">
<ele>258.089</ele>
<time>2015-12-18T01:11:49.047Z</time>
</trkpt>
<trkpt lat="-26.8346247" lon="152.8186737">
<ele>257.638</ele>
<time>2015-12-18T01:12:26.847Z</time>
</trkpt>
<trkpt lat="-26.8347088" lon="152.8186299">
<ele>257.529</ele>
<time>2015-12-18T01:12:29.725Z</time>
</trkpt>
<trkpt lat="-26.8348467" lon="152.8183659">
<ele>257.286</ele>
<time>2015-12-18T01:12:33.115Z</time>
</trkpt>
<trkpt lat="-26.8349834" lon="152.8181513">
<ele>256.482</ele>
<time>2015-12-18T01:12:35.204Z</time>
</trkpt>
<trkpt lat="-26.8352173" lon="152.8178691">
<ele>255.929</ele>
<time>2015-12-18T01:12:38.190Z</time>
</trkpt>
<trkpt lat="-26.8353984" lon="152.8177354">
<ele>256.449</ele>
<time>2015-12-18T01:12:40.328Z</time>
</trkpt>
<trkpt lat="-26.8355458" lon="152.8176478">
<ele>257.491</ele>
<time>2015-12-18T01:12:42.465Z</time>
</trkpt>
<trkpt lat="-26.8356030" lon="152.8175359">
<ele>258.024</ele>
<time>2015-12-18T01:12:44.279Z</time>
</trkpt>
<trkpt lat="-26.8355786" lon="152.8173998">
<ele>257.779</ele>
<time>2015-12-18T01:12:46.010Z</time>
</trkpt>
<trkpt lat="-26.8354835" lon="152.8172084">
<ele>257.370</ele>
<time>2015-12-18T01:12:47.996Z</time>
</trkpt>
<trkpt lat="-26.8352264" lon="152.8168322">
<ele>257.898</ele>
<time>2015-12-18T01:12:51.248Z</time>
</trkpt>
<trkpt lat="-26.8350186" lon="152.8165632">
<ele>260.329</ele>
<time>2015-12-18T01:12:53.272Z</time>
</trkpt>
<trkpt lat="-26.8346987" lon="152.8161405">
<ele>264.381</ele>
<time>2015-12-18T01:12:56.255Z</time>
</trkpt>
<trkpt lat="-26.8344659" lon="152.8158342">
<ele>268.265</ele>
<time>2015-12-18T01:12:58.336Z</time>
</trkpt>
<trkpt lat="-26.8340997" lon="152.8154054">
<ele>270.508</ele>
<time>2015-12-18T01:13:01.378Z</time>
</trkpt>
<trkpt lat="-26.8336565" lon="152.8150636">
<ele>271.135</ele>
<time>2015-12-18T01:13:04.462Z</time>
</trkpt>
<trkpt lat="-26.8331820" lon="152.8148577">
<ele>270.952</ele>
<time>2015-12-18T01:13:07.393Z</time>
</trkpt>
<trkpt lat="-26.8328467" lon="152.8147440">
<ele>270.738</ele>
<time>2015-12-18T01:13:09.432Z</time>
</trkpt>
<trkpt lat="-26.8323850" lon="152.8145207">
<ele>271.353</ele>
<time>2015-12-18T01:13:12.350Z</time>
</trkpt>
<trkpt lat="-26.8321127" lon="152.8142518">
<ele>273.279</ele>
<time>2015-12-18T01:13:14.364Z</time>
</trkpt>
<trkpt lat="-26.8318554" lon="152.8139339">
<ele>276.032</ele>
<time>2015-12-18T01:13:16.403Z</time>
</trkpt>
<trkpt lat="-26.8314724" lon="152.8134583">
<ele>278.961</ele>
<time>2015-12-18T01:13:19.432Z</time>
</trkpt>
<trkpt lat="-26.8310800" lon="152.8130412">
<ele>282.028</ele>
<time>2015-12-18T01:13:22.341Z</time>
</trkpt>
<trkpt lat="-26.8307725" lon="152.8128014">
<ele>285.331</ele>
<time>2015-12-18T01:13:24.387Z</time>
</trkpt>
<trkpt lat="-26.8302673" lon="152.8125634">
<ele>288.625</ele>
<time>2015-12-18T01:13:27.395Z</time>
</trkpt>
<trkpt lat="-26.8299185" lon="152.8124759">
<ele>291.474</ele>
<time>2015-12-18T01:13:29.391Z</time>
</trkpt>
<trkpt lat="-26.8295728" lon="152.8124701">
<ele>293.777</ele>
<time>2015-12-18T01:13:31.394Z</time>
</trkpt>
<trkpt lat="-26.8290841" lon="152.8126211">
<ele>295.906</ele>
<time>2015-12-18T01:13:34.462Z</time>
</trkpt>
<trkpt lat="-26.8287983" lon="152.8127457">
<ele>298.282</ele>
<time>2015-12-18T01:13:36.531Z</time>
</trkpt>
<trkpt lat="-26.8283954" lon="152.8128075">
<ele>300.612</ele>
<time>2015-12-18T01:13:39.477Z</time>
</trkpt>
<trkpt lat="-26.8280595" lon="152.8125952">
<ele>301.697</ele>
<time>2015-12-18T01:13:42.407Z</time>
</trkpt>
<trkpt lat="-26.8279191" lon="152.8121791">
<ele>301.077</ele>
<time>2015-12-18T01:13:45.371Z</time>
</trkpt>
<trkpt lat="-26.8279807" lon="152.8118721">
<ele>299.836</ele>
<time>2015-12-18T01:13:47.286Z</time>
</trkpt>
<trkpt lat="-26.8281156" lon="152.8113519">
<ele>299.318</ele>
<time>2015-12-18T01:13:50.353Z</time>
</trkpt>
<trkpt lat="-26.8280816" lon="152.8107752">
<ele>300.154</ele>
<time>2015-12-18T01:13:53.385Z</time>
</trkpt>
<trkpt lat="-26.8279868" lon="152.8103947">
<ele>302.038</ele>
<time>2015-12-18T01:13:55.337Z</time>
</trkpt>
<trkpt lat="-26.8278256" lon="152.8100063">
<ele>304.055</ele>
<time>2015-12-18T01:13:57.381Z</time>
</trkpt>
<trkpt lat="-26.8276743" lon="152.8096089">
<ele>305.871</ele>
<time>2015-12-18T01:13:59.433Z</time>
</trkpt>
<trkpt lat="-26.8274882" lon="152.8090169">
<ele>307.651</ele>
<time>2015-12-18T01:14:02.467Z</time>
</trkpt>
<trkpt lat="-26.8274262" lon="152.8086462">
<ele>309.328</ele>
<time>2015-12-18T01:14:04.330Z</time>
</trkpt>
<trkpt lat="-26.8272192" lon="152.8080756">
<ele>310.745</ele>
<time>2015-12-18T01:14:07.343Z</time>
</trkpt>
<trkpt lat="-26.8268989" lon="152.8075366">
<ele>312.267</ele>
<time>2015-12-18T01:14:10.448Z</time>
</trkpt>
<trkpt lat="-26.8266657" lon="152.8072105">
<ele>314.789</ele>
<time>2015-12-18T01:14:12.446Z</time>
</trkpt>
<trkpt lat="-26.8264229" lon="152.8068828">
<ele>318.539</ele>
<time>2015-12-18T01:14:14.449Z</time>
</trkpt>
<trkpt lat="-26.8259840" lon="152.8064702">
<ele>322.586</ele>
<time>2015-12-18T01:14:17.412Z</time>
</trkpt>
<trkpt lat="-26.8256927" lon="152.8061641">
<ele>326.761</ele>
<time>2015-12-18T01:14:19.463Z</time>
</trkpt>
<trkpt lat="-26.8254037" lon="152.8058765">
<ele>331.605</ele>
<time>2015-12-18T01:14:21.547Z</time>
</trkpt>
<trkpt lat="-26.8250093" lon="152.8054853">
<ele>336.426</ele>
<time>2015-12-18T01:14:24.643Z</time>
</trkpt>
<trkpt lat="-26.8247478" lon="152.8050844">
<ele>339.972</ele>
<time>2015-12-18T01:14:27.571Z</time>
</trkpt>
<trkpt lat="-26.8246880" lon="152.8047795">
<ele>341.936</ele>
<time>2015-12-18T01:14:29.491Z</time>
</trkpt>
<trkpt lat="-26.8247080" lon="152.8044539">
<ele>342.954</ele>
<time>2015-12-18T01:14:31.408Z</time>
</trkpt>
<trkpt lat="-26.8249084" lon="152.8039663">
<ele>344.021</ele>
<time>2015-12-18T01:14:34.390Z</time>
</trkpt>
<trkpt lat="-26.8251726" lon="152.8034684">
<ele>345.962</ele>
<time>2015-12-18T01:14:37.383Z</time>
</trkpt>
<trkpt lat="-26.8254093" lon="152.8031621">
<ele>348.961</ele>
<time>2015-12-18T01:14:39.361Z</time>
</trkpt>
<trkpt lat="-26.8256927" lon="152.8028722">
<ele>352.319</ele>
<time>2015-12-18T01:14:41.428Z</time>
</trkpt>
<trkpt lat="-26.8260799" lon="152.8024274">
<ele>355.174</ele>
<time>2015-12-18T01:14:44.429Z</time>
</trkpt>
<trkpt lat="-26.8264520" lon="152.8019677">
<ele>357.506</ele>
<time>2015-12-18T01:14:47.466Z</time>
</trkpt>
<trkpt lat="-26.8267772" lon="152.8014569">
<ele>360.077</ele>
<time>2015-12-18T01:14:50.536Z</time>
</trkpt>
<trkpt lat="-26.8269864" lon="152.8008874">
<ele>363.329</ele>
<time>2015-12-18T01:14:53.507Z</time>
</trkpt>
<trkpt lat="-26.8270577" lon="152.8004720">
<ele>366.697</ele>
<time>2015-12-18T01:14:55.498Z</time>
</trkpt>
<trkpt lat="-26.8270805" lon="152.8000345">
<ele>369.518</ele>
<time>2015-12-18T01:14:57.542Z</time>
</trkpt>
<trkpt lat="-26.8270752" lon="152.7996200">
<ele>371.624</ele>
<time>2015-12-18T01:14:59.475Z</time>
</trkpt>
<trkpt lat="-26.8270282" lon="152.7989683">
<ele>372.913</ele>
<time>2015-12-18T01:15:02.533Z</time>
</trkpt>
<trkpt lat="-26.8270011" lon="152.7985495">
<ele>373.470</ele>
<time>2015-12-18T01:15:04.570Z</time>
</trkpt>
<trkpt lat="-26.8269528" lon="152.7979734">
<ele>373.614</ele>
<time>2015-12-18T01:15:07.452Z</time>
</trkpt>
<trkpt lat="-26.8269762" lon="152.7973821">
<ele>373.641</ele>
<time>2015-12-18T01:15:10.389Z</time>
</trkpt>
<trkpt lat="-26.8271508" lon="152.7967615">
<ele>373.675</ele>
<time>2015-12-18T01:15:13.497Z</time>
</trkpt>
<trkpt lat="-26.8271793" lon="152.7963261">
<ele>373.414</ele>
<time>2015-12-18T01:15:15.549Z</time>
</trkpt>
<trkpt lat="-26.8271809" lon="152.7959111">
<ele>372.636</ele>
<time>2015-12-18T01:15:17.532Z</time>
</trkpt>
<trkpt lat="-26.8271809" lon="152.7952903">
<ele>371.877</ele>
<time>2015-12-18T01:15:20.512Z</time>
</trkpt>
<trkpt lat="-26.8272575" lon="152.7946690">
<ele>372.034</ele>
<time>2015-12-18T01:15:23.524Z</time>
</trkpt>
<trkpt lat="-26.8273495" lon="152.7942545">
<ele>373.155</ele>
<time>2015-12-18T01:15:25.590Z</time>
</trkpt>
<trkpt lat="-26.8274812" lon="152.7936667">
<ele>374.346</ele>
<time>2015-12-18T01:15:28.578Z</time>
</trkpt>
<trkpt lat="-26.8274986" lon="152.7932833">
<ele>374.960</ele>
<time>2015-12-18T01:15:30.527Z</time>
</trkpt>
<trkpt lat="-26.8274749" lon="152.7929005">
<ele>375.327</ele>
<time>2015-12-18T01:15:32.565Z</time>
</trkpt>
<trkpt lat="-26.8274249" lon="152.7923713">
<ele>376.184</ele>
<time>2015-12-18T01:15:35.588Z</time>
</trkpt>
<trkpt lat="-26.8273098" lon="152.7920772">
<ele>377.744</ele>
<time>2015-12-18T01:15:37.600Z</time>
</trkpt>
<trkpt lat="-26.8269970" lon="152.7917800">
<ele>379.290</ele>
<time>2015-12-18T01:15:40.472Z</time>
</trkpt>
<trkpt lat="-26.8266960" lon="152.7916918">
<ele>380.470</ele>
<time>2015-12-18T01:15:42.573Z</time>
</trkpt>
<trkpt lat="-26.8262792" lon="152.7915050">
<ele>381.898</ele>
<time>2015-12-18T01:15:45.668Z</time>
</trkpt>
<trkpt lat="-26.8259682" lon="152.7912344">
<ele>384.170</ele>
<time>2015-12-18T01:15:48.456Z</time>
</trkpt>
<trkpt lat="-26.8256524" lon="152.7911997">
<ele>386.997</ele>
<time>2015-12-18T01:15:50.672Z</time>
</trkpt>
<trkpt lat="-26.8252273" lon="152.7910910">
<ele>389.446</ele>
<time>2015-12-18T01:15:53.735Z</time>
</trkpt>
<trkpt lat="-26.8249702" lon="152.7909337">
<ele>391.116</ele>
<time>2015-12-18T01:15:55.636Z</time>
</trkpt>
<trkpt lat="-26.8246913" lon="152.7903835">
<ele>392.228</ele>
<time>2015-12-18T01:15:58.983Z</time>
</trkpt>
<trkpt lat="-26.8243528" lon="152.7899097">
<ele>392.922</ele>
<time>2015-12-18T01:16:01.978Z</time>
</trkpt>
<trkpt lat="-26.8239857" lon="152.7894436">
<ele>393.319</ele>
<time>2015-12-18T01:16:05.064Z</time>
</trkpt>
<trkpt lat="-26.8237792" lon="152.7891497">
<ele>393.314</ele>
<time>2015-12-18T01:16:07.080Z</time>
</trkpt>
<trkpt lat="-26.8236638" lon="152.7886315">
<ele>392.811</ele>
<time>2015-12-18T01:16:10.011Z</time>
</trkpt>
<trkpt lat="-26.8238126" lon="152.7880866">
<ele>392.362</ele>
<time>2015-12-18T01:16:12.964Z</time>
</trkpt>
<trkpt lat="-26.8241946" lon="152.7876133">
<ele>392.556</ele>
<time>2015-12-18T01:16:16.023Z</time>
</trkpt>
<trkpt lat="-26.8244499" lon="152.7872945">
<ele>393.216</ele>
<time>2015-12-18T01:16:18.041Z</time>
</trkpt>
<trkpt lat="-26.8246660" lon="152.7869288">
<ele>393.593</ele>
<time>2015-12-18T01:16:20.113Z</time>
</trkpt>
<trkpt lat="-26.8248338" lon="152.7863359">
<ele>393.184</ele>
<time>2015-12-18T01:16:23.004Z</time>
</trkpt>
<trkpt lat="-26.8248780" lon="152.7859027">
<ele>392.201</ele>
<time>2015-12-18T01:16:24.956Z</time>
</trkpt>
<trkpt lat="-26.8249083" lon="152.7852206">
<ele>391.032</ele>
<time>2015-12-18T01:16:27.998Z</time>
</trkpt>
<trkpt lat="-26.8249245" lon="152.7847712">
<ele>389.950</ele>
<time>2015-12-18T01:16:30.016Z</time>
</trkpt>
<trkpt lat="-26.8249593" lon="152.7841029">
<ele>389.264</ele>
<time>2015-12-18T01:16:33.047Z</time>
</trkpt>
<trkpt lat="-26.8249764" lon="152.7836603">
<ele>389.295</ele>
<time>2015-12-18T01:16:35.116Z</time>
</trkpt>
<trkpt lat="-26.8250165" lon="152.7830510">
<ele>390.107</ele>
<time>2015-12-18T01:16:37.999Z</time>
</trkpt>
<trkpt lat="-26.8250228" lon="152.7826234">
<ele>391.586</ele>
<time>2015-12-18T01:16:40.067Z</time>
</trkpt>
<trkpt lat="-26.8250394" lon="152.7820103">
<ele>393.300</ele>
<time>2015-12-18T01:16:43.163Z</time>
</trkpt>
<trkpt lat="-26.8248963" lon="152.7814475">
<ele>394.389</ele>
<time>2015-12-18T01:16:46.212Z</time>
</trkpt>
<trkpt lat="-26.8246837" lon="152.7811236">
<ele>394.441</ele>
<time>2015-12-18T01:16:48.233Z</time>
</trkpt>
<trkpt lat="-26.8243605" lon="152.7806180">
<ele>394.307</ele>
<time>2015-12-18T01:16:51.192Z</time>
</trkpt>
<trkpt lat="-26.8242236" lon="152.7799998">
<ele>395.484</ele>
<time>2015-12-18T01:16:54.040Z</time>
</trkpt>
<trkpt lat="-26.8241720" lon="152.7795120">
<ele>398.756</ele>
<time>2015-12-18T01:16:56.114Z</time>
</trkpt>
<trkpt lat="-26.8240404" lon="152.7788133">
<ele>402.862</ele>
<time>2015-12-18T01:16:59.117Z</time>
</trkpt>
<trkpt lat="-26.8239201" lon="152.7783801">
<ele>405.574</ele>
<time>2015-12-18T01:17:01.028Z</time>
</trkpt>
<trkpt lat="-26.8237691" lon="152.7779488">
<ele>406.251</ele>
<time>2015-12-18T01:17:02.987Z</time>
</trkpt>
<trkpt lat="-26.8234779" lon="152.7773263">
<ele>406.053</ele>
<time>2015-12-18T01:17:05.956Z</time>
</trkpt>
<trkpt lat="-26.8232698" lon="152.7769370">
<ele>406.557</ele>
<time>2015-12-18T01:17:07.917Z</time>
</trkpt>
<trkpt lat="-26.8229542" lon="152.7763463">
<ele>408.557</ele>
<time>2015-12-18T01:17:11.020Z</time>
</trkpt>
<trkpt lat="-26.8226520" lon="152.7758042">
<ele>411.375</ele>
<time>2015-12-18T01:17:14.171Z</time>
</trkpt>
<trkpt lat="-26.8223369" lon="152.7753756">
<ele>414.444</ele>
<time>2015-12-18T01:17:17.342Z</time>
</trkpt>
<trkpt lat="-26.8220192" lon="152.7751042">
<ele>417.867</ele>
<time>2015-12-18T01:17:20.447Z</time>
</trkpt>
<trkpt lat="-26.8219536" lon="152.7747768">
<ele>421.419</ele>
<time>2015-12-18T01:17:23.045Z</time>
</trkpt>
<trkpt lat="-26.8220897" lon="152.7745812">
<ele>425.034</ele>
<time>2015-12-18T01:17:24.879Z</time>
</trkpt>
<trkpt lat="-26.8221523" lon="152.7743148">
<ele>429.069</ele>
<time>2015-12-18T01:17:26.700Z</time>
</trkpt>
<trkpt lat="-26.8220998" lon="152.7738035">
<ele>433.386</ele>
<time>2015-12-18T01:17:29.876Z</time>
</trkpt>
<trkpt lat="-26.8219635" lon="152.7734778">
<ele>438.201</ele>
<time>2015-12-18T01:17:32.085Z</time>
</trkpt>
<trkpt lat="-26.8217542" lon="152.7730902">
<ele>443.694</ele>
<time>2015-12-18T01:17:35.160Z</time>
</trkpt>
<trkpt lat="-26.8217148" lon="152.7727046">
<ele>449.107</ele>
<time>2015-12-18T01:17:38.025Z</time>
</trkpt>
<trkpt lat="-26.8219642" lon="152.7723946">
<ele>453.956</ele>
<time>2015-12-18T01:17:40.932Z</time>
</trkpt>
<trkpt lat="-26.8222280" lon="152.7722241">
<ele>459.080</ele>
<time>2015-12-18T01:17:43.096Z</time>
</trkpt>
<trkpt lat="-26.8225750" lon="152.7719226">
<ele>464.619</ele>
<time>2015-12-18T01:17:46.225Z</time>
</trkpt>
<trkpt lat="-26.8226661" lon="152.7716325">
<ele>469.750</ele>
<time>2015-12-18T01:17:48.024Z</time>
</trkpt>
<trkpt lat="-26.8227960" lon="152.7710712">
<ele>474.205</ele>
<time>2015-12-18T01:17:51.216Z</time>
</trkpt>
<trkpt lat="-26.8228507" lon="152.7705089">
<ele>478.945</ele>
<time>2015-12-18T01:17:54.291Z</time>
</trkpt>
<trkpt lat="-26.8228431" lon="152.7701565">
<ele>485.000</ele>
<time>2015-12-18T01:17:56.233Z</time>
</trkpt>
<trkpt lat="-26.8227231" lon="152.7696160">
<ele>491.568</ele>
<time>2015-12-18T01:17:59.267Z</time>
</trkpt>
<trkpt lat="-26.8225248" lon="152.7691052">
<ele>497.519</ele>
<time>2015-12-18T01:18:02.229Z</time>
</trkpt>
<trkpt lat="-26.8223339" lon="152.7687832">
<ele>503.345</ele>
<time>2015-12-18T01:18:04.179Z</time>
</trkpt>
<trkpt lat="-26.8219580" lon="152.7683544">
<ele>508.793</ele>
<time>2015-12-18T01:18:07.111Z</time>
</trkpt>
<trkpt lat="-26.8214778" lon="152.7680278">
<ele>512.463</ele>
<time>2015-12-18T01:18:09.986Z</time>
</trkpt>
<trkpt lat="-26.8209009" lon="152.7678200">
<ele>514.406</ele>
<time>2015-12-18T01:18:12.830Z</time>
</trkpt>
<trkpt lat="-26.8204570" lon="152.7676908">
<ele>515.822</ele>
<time>2015-12-18T01:18:14.763Z</time>
</trkpt>
<trkpt lat="-26.8197295" lon="152.7674791">
<ele>517.491</ele>
<time>2015-12-18T01:18:17.837Z</time>
</trkpt>
<trkpt lat="-26.8192469" lon="152.7673441">
<ele>519.167</ele>
<time>2015-12-18T01:18:19.873Z</time>
</trkpt>
<trkpt lat="-26.8187850" lon="152.7672110">
<ele>520.244</ele>
<time>2015-12-18T01:18:21.898Z</time>
</trkpt>
<trkpt lat="-26.8181169" lon="152.7669729">
<ele>520.447</ele>
<time>2015-12-18T01:18:24.887Z</time>
</trkpt>
<trkpt lat="-26.8175034" lon="152.7666051">
<ele>519.498</ele>
<time>2015-12-18T01:18:27.807Z</time>
</trkpt>
<trkpt lat="-26.8170988" lon="152.7663108">
<ele>517.341</ele>
<time>2015-12-18T01:18:29.811Z</time>
</trkpt>
<trkpt lat="-26.8164887" lon="152.7658828">
<ele>514.958</ele>
<time>2015-12-18T01:18:32.858Z</time>
</trkpt>
<trkpt lat="-26.8159010" lon="152.7654587">
<ele>512.892</ele>
<time>2015-12-18T01:18:35.965Z</time>
</trkpt>
<trkpt lat="-26.8156008" lon="152.7651253">
<ele>510.799</ele>
<time>2015-12-18T01:18:38.064Z</time>
</trkpt>
<trkpt lat="-26.8152110" lon="152.7646492">
<ele>509.020</ele>
<time>2015-12-18T01:18:41.086Z</time>
</trkpt>
<trkpt lat="-26.8149129" lon="152.7644125">
<ele>508.305</ele>
<time>2015-12-18T01:18:43.057Z</time>
</trkpt>
<trkpt lat="-26.8143682" lon="152.7642476">
<ele>508.658</ele>
<time>2015-12-18T01:18:46.112Z</time>
</trkpt>
<trkpt lat="-26.8139991" lon="152.7642763">
<ele>509.529</ele>
<time>2015-12-18T01:18:48.167Z</time>
</trkpt>
<trkpt lat="-26.8135044" lon="152.7645120">
<ele>510.306</ele>
<time>2015-12-18T01:18:51.139Z</time>
</trkpt>
<trkpt lat="-26.8132507" lon="152.7647914">
<ele>510.494</ele>
<time>2015-12-18T01:18:52.972Z</time>
</trkpt>
<trkpt lat="-26.8129456" lon="152.7653663">
<ele>509.967</ele>
<time>2015-12-18T01:18:55.851Z</time>
</trkpt>
<trkpt lat="-26.8127606" lon="152.7658348">
<ele>509.264</ele>
<time>2015-12-18T01:18:57.878Z</time>
</trkpt>
<trkpt lat="-26.8125616" lon="152.7663064">
<ele>509.017</ele>
<time>2015-12-18T01:18:59.944Z</time>
</trkpt>
<trkpt lat="-26.8122773" lon="152.7669853">
<ele>509.358</ele>
<time>2015-12-18T01:19:03.027Z</time>
</trkpt>
<trkpt lat="-26.8119278" lon="152.7675400">
<ele>510.501</ele>
<time>2015-12-18T01:19:05.931Z</time>
</trkpt>
<trkpt lat="-26.8114923" lon="152.7680241">
<ele>513.105</ele>
<time>2015-12-18T01:19:08.821Z</time>
</trkpt>
<trkpt lat="-26.8110267" lon="152.7685330">
<ele>517.311</ele>
<time>2015-12-18T01:19:11.808Z</time>
</trkpt>
<trkpt lat="-26.8107115" lon="152.7688596">
<ele>521.966</ele>
<time>2015-12-18T01:19:13.826Z</time>
</trkpt>
<trkpt lat="-26.8103682" lon="152.7691162">
<ele>525.485</ele>
<time>2015-12-18T01:19:15.820Z</time>
</trkpt>
<trkpt lat="-26.8099831" lon="152.7692908">
<ele>527.283</ele>
<time>2015-12-18T01:19:17.884Z</time>
</trkpt>
<trkpt lat="-26.8094410" lon="152.7695672">
<ele>528.549</ele>
<time>2015-12-18T01:19:20.926Z</time>
</trkpt>
<trkpt lat="-26.8090490" lon="152.7700340">
<ele>530.736</ele>
<time>2015-12-18T01:19:23.923Z</time>
</trkpt>
<trkpt lat="-26.8089010" lon="152.7704278">
<ele>534.126</ele>
<time>2015-12-18T01:19:25.925Z</time>
</trkpt>
<trkpt lat="-26.8088613" lon="152.7708512">
<ele>538.106</ele>
<time>2015-12-18T01:19:27.944Z</time>
</trkpt>
<trkpt lat="-26.8089392" lon="152.7714731">
<ele>541.599</ele>
<time>2015-12-18T01:19:30.989Z</time>
</trkpt>
<trkpt lat="-26.8090243" lon="152.7718535">
<ele>543.666</ele>
<time>2015-12-18T01:19:32.904Z</time>
</trkpt>
<trkpt lat="-26.8093248" lon="152.7723832">
<ele>544.302</ele>
<time>2015-12-18T01:19:35.901Z</time>
</trkpt>
<trkpt lat="-26.8095718" lon="152.7727167">
<ele>543.742</ele>
<time>2015-12-18T01:19:37.912Z</time>
</trkpt>
<trkpt lat="-26.8097484" lon="152.7731128">
<ele>542.199</ele>
<time>2015-12-18T01:19:39.933Z</time>
</trkpt>
<trkpt lat="-26.8098372" lon="152.7735511">
<ele>539.949</ele>
<time>2015-12-18T01:19:42.016Z</time>
</trkpt>
<trkpt lat="-26.8098655" lon="152.7741871">
<ele>537.560</ele>
<time>2015-12-18T01:19:45.030Z</time>
</trkpt>
<trkpt lat="-26.8097980" lon="152.7745992">
<ele>535.755</ele>
<time>2015-12-18T01:19:46.972Z</time>
</trkpt>
<trkpt lat="-26.8096073" lon="152.7752307">
<ele>534.844</ele>
<time>2015-12-18T01:19:50.022Z</time>
</trkpt>
<trkpt lat="-26.8094737" lon="152.7756265">
<ele>534.719</ele>
<time>2015-12-18T01:19:51.986Z</time>
</trkpt>
<trkpt lat="-26.8093526" lon="152.7760283">
<ele>535.161</ele>
<time>2015-12-18T01:19:53.988Z</time>
</trkpt>
<trkpt lat="-26.8093095" lon="152.7764502">
<ele>535.330</ele>
<time>2015-12-18T01:19:55.999Z</time>
</trkpt>
<trkpt lat="-26.8094448" lon="152.7770485">
<ele>534.128</ele>
<time>2015-12-18T01:19:58.831Z</time>
</trkpt>
<trkpt lat="-26.8096400" lon="152.7774581">
<ele>531.652</ele>
<time>2015-12-18T01:20:00.876Z</time>
</trkpt>
<trkpt lat="-26.8099298" lon="152.7780630">
<ele>529.318</ele>
<time>2015-12-18T01:20:03.981Z</time>
</trkpt>
<trkpt lat="-26.8100472" lon="152.7784612">
<ele>528.240</ele>
<time>2015-12-18T01:20:06.022Z</time>
</trkpt>
<trkpt lat="-26.8100612" lon="152.7788666">
<ele>528.333</ele>
<time>2015-12-18T01:20:08.054Z</time>
</trkpt>
<trkpt lat="-26.8099752" lon="152.7792648">
<ele>529.050</ele>
<time>2015-12-18T01:20:10.099Z</time>
</trkpt>
<trkpt lat="-26.8098349" lon="152.7798409">
<ele>530.367</ele>
<time>2015-12-18T01:20:13.051Z</time>
</trkpt>
<trkpt lat="-26.8098912" lon="152.7804529">
<ele>532.909</ele>
<time>2015-12-18T01:20:15.959Z</time>
</trkpt>
<trkpt lat="-26.8100284" lon="152.7808725">
<ele>536.890</ele>
<time>2015-12-18T01:20:17.913Z</time>
</trkpt>
<trkpt lat="-26.8102421" lon="152.7815241">
<ele>541.587</ele>
<time>2015-12-18T01:20:20.881Z</time>
</trkpt>
<trkpt lat="-26.8104773" lon="152.7822076">
<ele>545.996</ele>
<time>2015-12-18T01:20:24.017Z</time>
</trkpt>
<trkpt lat="-26.8106468" lon="152.7826081">
<ele>549.238</ele>
<time>2015-12-18T01:20:26.069Z</time>
</trkpt>
<trkpt lat="-26.8110068" lon="152.7830940">
<ele>550.296</ele>
<time>2015-12-18T01:20:29.038Z</time>
</trkpt>
<trkpt lat="-26.8112899" lon="152.7833653">
<ele>548.656</ele>
<time>2015-12-18T01:20:31.021Z</time>
</trkpt>
<trkpt lat="-26.8115289" lon="152.7836860">
<ele>545.329</ele>
<time>2015-12-18T01:20:33.081Z</time>
</trkpt>
<trkpt lat="-26.8117091" lon="152.7842311">
<ele>541.913</ele>
<time>2015-12-18T01:20:35.976Z</time>
</trkpt>
<trkpt lat="-26.8117231" lon="152.7846347">
<ele>538.808</ele>
<time>2015-12-18T01:20:37.876Z</time>
</trkpt>
<trkpt lat="-26.8115482" lon="152.7852718">
<ele>536.048</ele>
<time>2015-12-18T01:20:40.819Z</time>
</trkpt>
<trkpt lat="-26.8112833" lon="152.7859226">
<ele>534.207</ele>
<time>2015-12-18T01:20:43.764Z</time>
</trkpt>
<trkpt lat="-26.8111022" lon="152.7863875">
<ele>533.441</ele>
<time>2015-12-18T01:20:45.783Z</time>
</trkpt>
<trkpt lat="-26.8109021" lon="152.7868499">
<ele>532.878</ele>
<time>2015-12-18T01:20:47.808Z</time>
</trkpt>
<trkpt lat="-26.8105088" lon="152.7874708">
<ele>531.612</ele>
<time>2015-12-18T01:20:50.825Z</time>
</trkpt>
<trkpt lat="-26.8100656" lon="152.7880144">
<ele>529.332</ele>
<time>2015-12-18T01:20:53.787Z</time>
</trkpt>
<trkpt lat="-26.8097902" lon="152.7883907">
<ele>526.560</ele>
<time>2015-12-18T01:20:55.785Z</time>
</trkpt>
<trkpt lat="-26.8095774" lon="152.7888127">
<ele>524.474</ele>
<time>2015-12-18T01:20:57.791Z</time>
</trkpt>
<trkpt lat="-26.8092800" lon="152.7894568">
<ele>523.848</ele>
<time>2015-12-18T01:21:00.721Z</time>
</trkpt>
<trkpt lat="-26.8089067" lon="152.7900905">
<ele>524.517</ele>
<time>2015-12-18T01:21:03.676Z</time>
</trkpt>
<trkpt lat="-26.8084915" lon="152.7906977">
<ele>525.860</ele>
<time>2015-12-18T01:21:06.657Z</time>
</trkpt>
<trkpt lat="-26.8080803" lon="152.7912842">
<ele>526.450</ele>
<time>2015-12-18T01:21:09.629Z</time>
</trkpt>
<trkpt lat="-26.8075981" lon="152.7918199">
<ele>524.618</ele>
<time>2015-12-18T01:21:12.623Z</time>
</trkpt>
<trkpt lat="-26.8069874" lon="152.7922244">
<ele>520.131</ele>
<time>2015-12-18T01:21:15.679Z</time>
</trkpt>
<trkpt lat="-26.8063128" lon="152.7924726">
<ele>514.003</ele>
<time>2015-12-18T01:21:18.809Z</time>
</trkpt>
<trkpt lat="-26.8056675" lon="152.7925596">
<ele>507.887</ele>
<time>2015-12-18T01:21:21.839Z</time>
</trkpt>
<trkpt lat="-26.8052569" lon="152.7926202">
<ele>503.639</ele>
<time>2015-12-18T01:21:23.885Z</time>
</trkpt>
<trkpt lat="-26.8046853" lon="152.7928329">
<ele>502.282</ele>
<time>2015-12-18T01:21:26.907Z</time>
</trkpt>
<trkpt lat="-26.8043565" lon="152.7930721">
<ele>503.149</ele>
<time>2015-12-18T01:21:28.886Z</time>
</trkpt>
<trkpt lat="-26.8040846" lon="152.7933986">
<ele>504.719</ele>
<time>2015-12-18T01:21:30.897Z</time>
</trkpt>
<trkpt lat="-26.8038684" lon="152.7937830">
<ele>506.655</ele>
<time>2015-12-18T01:21:32.989Z</time>
</trkpt>
<trkpt lat="-26.8035771" lon="152.7943321">
<ele>509.224</ele>
<time>2015-12-18T01:21:35.931Z</time>
</trkpt>
<trkpt lat="-26.8031927" lon="152.7948331">
<ele>511.440</ele>
<time>2015-12-18T01:21:38.929Z</time>
</trkpt>
<trkpt lat="-26.8026655" lon="152.7951717">
<ele>511.435</ele>
<time>2015-12-18T01:21:41.982Z</time>
</trkpt>
<trkpt lat="-26.8020813" lon="152.7953060">
<ele>508.256</ele>
<time>2015-12-18T01:21:44.955Z</time>
</trkpt>
<trkpt lat="-26.8016890" lon="152.7954069">
<ele>503.528</ele>
<time>2015-12-18T01:21:46.934Z</time>
</trkpt>
<trkpt lat="-26.8011286" lon="152.7956682">
<ele>500.390</ele>
<time>2015-12-18T01:21:49.899Z</time>
</trkpt>
<trkpt lat="-26.8007501" lon="152.7958545">
<ele>499.895</ele>
<time>2015-12-18T01:21:51.907Z</time>
</trkpt>
<trkpt lat="-26.8003672" lon="152.7960211">
<ele>500.772</ele>
<time>2015-12-18T01:21:53.904Z</time>
</trkpt>
<trkpt lat="-26.7997591" lon="152.7961287">
<ele>501.680</ele>
<time>2015-12-18T01:21:56.896Z</time>
</trkpt>
<trkpt lat="-26.7991465" lon="152.7961039">
<ele>502.413</ele>
<time>2015-12-18T01:21:59.871Z</time>
</trkpt>
<trkpt lat="-26.7987585" lon="152.7960025">
<ele>504.086</ele>
<time>2015-12-18T01:22:01.755Z</time>
</trkpt>
<trkpt lat="-26.7983553" lon="152.7958229">
<ele>507.348</ele>
<time>2015-12-18T01:22:03.703Z</time>
</trkpt>
<trkpt lat="-26.7979681" lon="152.7955555">
<ele>510.730</ele>
<time>2015-12-18T01:22:05.642Z</time>
</trkpt>
<trkpt lat="-26.7974135" lon="152.7950483">
<ele>512.382</ele>
<time>2015-12-18T01:22:08.669Z</time>
</trkpt>
<trkpt lat="-26.7970780" lon="152.7947079">
<ele>511.979</ele>
<time>2015-12-18T01:22:10.659Z</time>
</trkpt>
<trkpt lat="-26.7967723" lon="152.7943772">
<ele>510.089</ele>
<time>2015-12-18T01:22:12.607Z</time>
</trkpt>
<trkpt lat="-26.7964616" lon="152.7940381">
<ele>507.811</ele>
<time>2015-12-18T01:22:14.732Z</time>
</trkpt>
<trkpt lat="-26.7960075" lon="152.7936127">
<ele>506.114</ele>
<time>2015-12-18T01:22:17.868Z</time>
</trkpt>
<trkpt lat="-26.7955166" lon="152.7934145">
<ele>505.166</ele>
<time>2015-12-18T01:22:20.863Z</time>
</trkpt>
<trkpt lat="-26.7950055" lon="152.7934583">
<ele>504.719</ele>
<time>2015-12-18T01:22:23.851Z</time>
</trkpt>
<trkpt lat="-26.7946812" lon="152.7936193">
<ele>504.802</ele>
<time>2015-12-18T01:22:25.778Z</time>
</trkpt>
<trkpt lat="-26.7942968" lon="152.7940728">
<ele>505.332</ele>
<time>2015-12-18T01:22:28.623Z</time>
</trkpt>
<trkpt lat="-26.7940358" lon="152.7944576">
<ele>505.698</ele>
<time>2015-12-18T01:22:30.604Z</time>
</trkpt>
<trkpt lat="-26.7936412" lon="152.7950486">
<ele>505.437</ele>
<time>2015-12-18T01:22:33.529Z</time>
</trkpt>
<trkpt lat="-26.7932052" lon="152.7956597">
<ele>504.669</ele>
<time>2015-12-18T01:22:36.547Z</time>
</trkpt>
<trkpt lat="-26.7928634" lon="152.7960272">
<ele>503.213</ele>
<time>2015-12-18T01:22:38.570Z</time>
</trkpt>
<trkpt lat="-26.7922714" lon="152.7964540">
<ele>500.695</ele>
<time>2015-12-18T01:22:41.585Z</time>
</trkpt>
<trkpt lat="-26.7916333" lon="152.7967859">
<ele>497.195</ele>
<time>2015-12-18T01:22:44.682Z</time>
</trkpt>
<trkpt lat="-26.7910792" lon="152.7971735">
<ele>493.085</ele>
<time>2015-12-18T01:22:47.662Z</time>
</trkpt>
<trkpt lat="-26.7906513" lon="152.7977288">
<ele>489.349</ele>
<time>2015-12-18T01:22:50.672Z</time>
</trkpt>
<trkpt lat="-26.7903843" lon="152.7981100">
<ele>487.220</ele>
<time>2015-12-18T01:22:52.698Z</time>
</trkpt>
<trkpt lat="-26.7901337" lon="152.7984768">
<ele>487.524</ele>
<time>2015-12-18T01:22:54.774Z</time>
</trkpt>
<trkpt lat="-26.7898798" lon="152.7987855">
<ele>490.326</ele>
<time>2015-12-18T01:22:56.827Z</time>
</trkpt>
<trkpt lat="-26.7894264" lon="152.7991006">
<ele>494.493</ele>
<time>2015-12-18T01:22:59.817Z</time>
</trkpt>
<trkpt lat="-26.7890991" lon="152.7992752">
<ele>498.833</ele>
<time>2015-12-18T01:23:01.945Z</time>
</trkpt>
<trkpt lat="-26.7888368" lon="152.7994740">
<ele>503.168</ele>
<time>2015-12-18T01:23:04.020Z</time>
</trkpt>
<trkpt lat="-26.7886116" lon="152.7996559">
<ele>507.315</ele>
<time>2015-12-18T01:23:06.082Z</time>
</trkpt>
<trkpt lat="-26.7883470" lon="152.7999180">
<ele>510.639</ele>
<time>2015-12-18T01:23:08.737Z</time>
</trkpt>
<trkpt lat="-26.7880957" lon="152.8000703">
<ele>512.778</ele>
<time>2015-12-18T01:23:10.870Z</time>
</trkpt>
<trkpt lat="-26.7877555" lon="152.8003163">
<ele>514.297</ele>
<time>2015-12-18T01:23:13.853Z</time>
</trkpt>
<trkpt lat="-26.7873928" lon="152.8005600">
<ele>515.775</ele>
<time>2015-12-18T01:23:16.604Z</time>
</trkpt>
<trkpt lat="-26.7869484" lon="152.8008780">
<ele>517.169</ele>
<time>2015-12-18T01:23:19.476Z</time>
</trkpt>
<trkpt lat="-26.7864107" lon="152.8012417">
<ele>518.349</ele>
<time>2015-12-18T01:23:22.522Z</time>
</trkpt>
<trkpt lat="-26.7858793" lon="152.8016112">
<ele>518.933</ele>
<time>2015-12-18T01:23:25.488Z</time>
</trkpt>
<trkpt lat="-26.7853580" lon="152.8020015">
<ele>517.535</ele>
<time>2015-12-18T01:23:28.490Z</time>
</trkpt>
<trkpt lat="-26.7850623" lon="152.8023342">
<ele>512.573</ele>
<time>2015-12-18T01:23:30.502Z</time>
</trkpt>
<trkpt lat="-26.7846604" lon="152.8028652">
<ele>505.349</ele>
<time>2015-12-18T01:23:33.485Z</time>
</trkpt>
<trkpt lat="-26.7841568" lon="152.8032866">
<ele>498.695</ele>
<time>2015-12-18T01:23:36.464Z</time>
</trkpt>
<trkpt lat="-26.7837597" lon="152.8034974">
<ele>492.456</ele>
<time>2015-12-18T01:23:38.443Z</time>
</trkpt>
<trkpt lat="-26.7833332" lon="152.8037020">
<ele>486.252</ele>
<time>2015-12-18T01:23:40.453Z</time>
</trkpt>
<trkpt lat="-26.7829003" lon="152.8039087">
<ele>482.179</ele>
<time>2015-12-18T01:23:42.477Z</time>
</trkpt>
<trkpt lat="-26.7822611" lon="152.8042103">
<ele>481.933</ele>
<time>2015-12-18T01:23:45.467Z</time>
</trkpt>
<trkpt lat="-26.7816175" lon="152.8045116">
<ele>485.514</ele>
<time>2015-12-18T01:23:48.486Z</time>
</trkpt>
<trkpt lat="-26.7811980" lon="152.8047102">
<ele>491.192</ele>
<time>2015-12-18T01:23:50.537Z</time>
</trkpt>
<trkpt lat="-26.7806049" lon="152.8049949">
<ele>496.090</ele>
<time>2015-12-18T01:23:53.576Z</time>
</trkpt>
<trkpt lat="-26.7800773" lon="152.8053065">
<ele>497.861</ele>
<time>2015-12-18T01:23:56.536Z</time>
</trkpt>
<trkpt lat="-26.7797938" lon="152.8055995">
<ele>495.452</ele>
<time>2015-12-18T01:23:58.442Z</time>
</trkpt>
<trkpt lat="-26.7794291" lon="152.8061785">
<ele>490.242</ele>
<time>2015-12-18T01:24:01.418Z</time>
</trkpt>
<trkpt lat="-26.7792299" lon="152.8066629">
<ele>485.444</ele>
<time>2015-12-18T01:24:03.461Z</time>
</trkpt>
<trkpt lat="-26.7790035" lon="152.8071774">
<ele>482.777</ele>
<time>2015-12-18T01:24:05.587Z</time>
</trkpt>
<trkpt lat="-26.7787991" lon="152.8076643">
<ele>481.195</ele>
<time>2015-12-18T01:24:07.589Z</time>
</trkpt>
<trkpt lat="-26.7785821" lon="152.8081301">
<ele>479.026</ele>
<time>2015-12-18T01:24:09.608Z</time>
</trkpt>
<trkpt lat="-26.7782866" lon="152.8088177">
<ele>476.274</ele>
<time>2015-12-18T01:24:12.720Z</time>
</trkpt>
<trkpt lat="-26.7780433" lon="152.8094208">
<ele>475.078</ele>
<time>2015-12-18T01:24:15.640Z</time>
</trkpt>
<trkpt lat="-26.7779640" lon="152.8098488">
<ele>476.727</ele>
<time>2015-12-18T01:24:17.523Z</time>
</trkpt>
<trkpt lat="-26.7779916" lon="152.8105827">
<ele>479.627</ele>
<time>2015-12-18T01:24:20.542Z</time>
</trkpt>
<trkpt lat="-26.7780594" lon="152.8113410">
<ele>481.721</ele>
<time>2015-12-18T01:24:23.581Z</time>
</trkpt>
<trkpt lat="-26.7781235" lon="152.8120813">
<ele>482.511</ele>
<time>2015-12-18T01:24:26.614Z</time>
</trkpt>
<trkpt lat="-26.7781979" lon="152.8125279">
<ele>481.767</ele>
<time>2015-12-18T01:24:28.532Z</time>
</trkpt>
<trkpt lat="-26.7783364" lon="152.8129749">
<ele>479.336</ele>
<time>2015-12-18T01:24:30.481Z</time>
</trkpt>
<trkpt lat="-26.7786134" lon="152.8136497">
<ele>476.004</ele>
<time>2015-12-18T01:24:33.448Z</time>
</trkpt>
<trkpt lat="-26.7787910" lon="152.8141234">
<ele>472.799</ele>
<time>2015-12-18T01:24:35.462Z</time>
</trkpt>
<trkpt lat="-26.7790598" lon="152.8148239">
<ele>469.545</ele>
<time>2015-12-18T01:24:38.540Z</time>
</trkpt>
<trkpt lat="-26.7792366" lon="152.8152334">
<ele>465.126</ele>
<time>2015-12-18T01:24:40.532Z</time>
</trkpt>
<trkpt lat="-26.7793855" lon="152.8156321">
<ele>459.925</ele>
<time>2015-12-18T01:24:42.542Z</time>
</trkpt>
<trkpt lat="-26.7795679" lon="152.8162101">
<ele>456.195</ele>
<time>2015-12-18T01:24:45.479Z</time>
</trkpt>
<trkpt lat="-26.7796157" lon="152.8166089">
<ele>455.144</ele>
<time>2015-12-18T01:24:47.416Z</time>
</trkpt>
<trkpt lat="-26.7795665" lon="152.8172423">
<ele>456.059</ele>
<time>2015-12-18T01:24:50.439Z</time>
</trkpt>
<trkpt lat="-26.7794606" lon="152.8178606">
<ele>458.261</ele>
<time>2015-12-18T01:24:53.441Z</time>
</trkpt>
<trkpt lat="-26.7793850" lon="152.8182492">
<ele>460.986</ele>
<time>2015-12-18T01:24:55.436Z</time>
</trkpt>
<trkpt lat="-26.7792903" lon="152.8188020">
<ele>462.892</ele>
<time>2015-12-18T01:24:58.345Z</time>
</trkpt>
<trkpt lat="-26.7792556" lon="152.8191863">
<ele>463.101</ele>
<time>2015-12-18T01:25:00.357Z</time>
</trkpt>
<trkpt lat="-26.7793384" lon="152.8197813">
<ele>462.004</ele>
<time>2015-12-18T01:25:03.440Z</time>
</trkpt>
<trkpt lat="-26.7795725" lon="152.8203251">
<ele>460.577</ele>
<time>2015-12-18T01:25:06.479Z</time>
</trkpt>
<trkpt lat="-26.7799638" lon="152.8208012">
<ele>459.642</ele>
<time>2015-12-18T01:25:09.681Z</time>
</trkpt>
<trkpt lat="-26.7802422" lon="152.8210525">
<ele>459.791</ele>
<time>2015-12-18T01:25:11.642Z</time>
</trkpt>
<trkpt lat="-26.7805357" lon="152.8212859">
<ele>461.016</ele>
<time>2015-12-18T01:25:13.602Z</time>
</trkpt>
<trkpt lat="-26.7808423" lon="152.8215204">
<ele>462.374</ele>
<time>2015-12-18T01:25:15.660Z</time>
</trkpt>
<trkpt lat="-26.7812392" lon="152.8218727">
<ele>463.066</ele>
<time>2015-12-18T01:25:18.516Z</time>
</trkpt>
<trkpt lat="-26.7815343" lon="152.8223672">
<ele>463.057</ele>
<time>2015-12-18T01:25:21.527Z</time>
</trkpt>
<trkpt lat="-26.7816804" lon="152.8229401">
<ele>462.443</ele>
<time>2015-12-18T01:25:24.510Z</time>
</trkpt>
<trkpt lat="-26.7816794" lon="152.8233421">
<ele>461.619</ele>
<time>2015-12-18T01:25:26.482Z</time>
</trkpt>
<trkpt lat="-26.7815175" lon="152.8239479">
<ele>461.106</ele>
<time>2015-12-18T01:25:29.448Z</time>
</trkpt>
<trkpt lat="-26.7813216" lon="152.8243377">
<ele>461.389</ele>
<time>2015-12-18T01:25:31.465Z</time>
</trkpt>
<trkpt lat="-26.7810128" lon="152.8249035">
<ele>462.484</ele>
<time>2015-12-18T01:25:34.472Z</time>
</trkpt>
<trkpt lat="-26.7807146" lon="152.8254490">
<ele>463.331</ele>
<time>2015-12-18T01:25:37.428Z</time>
</trkpt>
<trkpt lat="-26.7805117" lon="152.8258180">
<ele>462.731</ele>
<time>2015-12-18T01:25:39.449Z</time>
</trkpt>
<trkpt lat="-26.7803019" lon="152.8261739">
<ele>460.862</ele>
<time>2015-12-18T01:25:41.423Z</time>
</trkpt>
<trkpt lat="-26.7800909" lon="152.8265443">
<ele>458.926</ele>
<time>2015-12-18T01:25:43.431Z</time>
</trkpt>
<trkpt lat="-26.7797691" lon="152.8270995">
<ele>457.873</ele>
<time>2015-12-18T01:25:46.430Z</time>
</trkpt>
<trkpt lat="-26.7795530" lon="152.8274765">
<ele>457.705</ele>
<time>2015-12-18T01:25:48.446Z</time>
</trkpt>
<trkpt lat="-26.7792509" lon="152.8280584">
<ele>457.956</ele>
<time>2015-12-18T01:25:51.475Z</time>
</trkpt>
<trkpt lat="-26.7791076" lon="152.8284688">
<ele>458.206</ele>
<time>2015-12-18T01:25:53.492Z</time>
</trkpt>
<trkpt lat="-26.7789431" lon="152.8290819">
<ele>458.320</ele>
<time>2015-12-18T01:25:56.466Z</time>
</trkpt>
<trkpt lat="-26.7788427" lon="152.8294899">
<ele>458.576</ele>
<time>2015-12-18T01:25:58.462Z</time>
</trkpt>
<trkpt lat="-26.7787182" lon="152.8300944">
<ele>459.138</ele>
<time>2015-12-18T01:26:01.425Z</time>
</trkpt>
<trkpt lat="-26.7786815" lon="152.8305047">
<ele>460.022</ele>
<time>2015-12-18T01:26:03.469Z</time>
</trkpt>
<trkpt lat="-26.7787138" lon="152.8308970">
<ele>461.265</ele>
<time>2015-12-18T01:26:05.429Z</time>
</trkpt>
<trkpt lat="-26.7788015" lon="152.8312933">
<ele>462.615</ele>
<time>2015-12-18T01:26:07.389Z</time>
</trkpt>
<trkpt lat="-26.7789238" lon="152.8317182">
<ele>464.188</ele>
<time>2015-12-18T01:26:09.486Z</time>
</trkpt>
<trkpt lat="-26.7790843" lon="152.8323230">
<ele>466.467</ele>
<time>2015-12-18T01:26:12.446Z</time>
</trkpt>
<trkpt lat="-26.7792005" lon="152.8327396">
<ele>468.894</ele>
<time>2015-12-18T01:26:14.491Z</time>
</trkpt>
<trkpt lat="-26.7792826" lon="152.8331663">
<ele>470.407</ele>
<time>2015-12-18T01:26:16.556Z</time>
</trkpt>
<trkpt lat="-26.7793727" lon="152.8337841">
<ele>470.487</ele>
<time>2015-12-18T01:26:19.560Z</time>
</trkpt>
<trkpt lat="-26.7793803" lon="152.8341833">
<ele>468.799</ele>
<time>2015-12-18T01:26:21.611Z</time>
</trkpt>
<trkpt lat="-26.7792896" lon="152.8347114">
<ele>465.435</ele>
<time>2015-12-18T01:26:24.646Z</time>
</trkpt>
<trkpt lat="-26.7791755" lon="152.8350002">
<ele>460.978</ele>
<time>2015-12-18T01:26:27.171Z</time>
</trkpt>
<trkpt lat="-26.7790389" lon="152.8352387">
<ele>456.192</ele>
<time>2015-12-18T01:26:30.968Z</time>
</trkpt>
<trkpt lat="-26.7789765" lon="152.8353329">
<ele>451.773</ele>
<time>2015-12-18T01:26:33.469Z</time>
</trkpt>
<trkpt lat="-26.7790342" lon="152.8354661">
<ele>448.386</ele>
<time>2015-12-18T01:26:35.831Z</time>
</trkpt>
<trkpt lat="-26.7791230" lon="152.8355901">
<ele>446.799</ele>
<time>2015-12-18T01:26:37.621Z</time>
</trkpt>
<trkpt lat="-26.7792212" lon="152.8357607">
<ele>447.470</ele>
<time>2015-12-18T01:26:39.501Z</time>
</trkpt>
<trkpt lat="-26.7793186" lon="152.8359813">
<ele>449.824</ele>
<time>2015-12-18T01:26:41.446Z</time>
</trkpt>
<trkpt lat="-26.7793623" lon="152.8362604">
<ele>452.823</ele>
<time>2015-12-18T01:26:43.391Z</time>
</trkpt>
<trkpt lat="-26.7794974" lon="152.8367417">
<ele>455.420</ele>
<time>2015-12-18T01:26:46.599Z</time>
</trkpt>
<trkpt lat="-26.7796097" lon="152.8370477">
<ele>456.919</ele>
<time>2015-12-18T01:26:48.602Z</time>
</trkpt>
<trkpt lat="-26.7798208" lon="152.8374757">
<ele>457.123</ele>
<time>2015-12-18T01:26:51.509Z</time>
</trkpt>
<trkpt lat="-26.7799824" lon="152.8377634">
<ele>456.156</ele>
<time>2015-12-18T01:26:53.461Z</time>
</trkpt>
<trkpt lat="-26.7801457" lon="152.8380656">
<ele>454.593</ele>
<time>2015-12-18T01:26:55.473Z</time>
</trkpt>
<trkpt lat="-26.7803062" lon="152.8383663">
<ele>453.385</ele>
<time>2015-12-18T01:26:57.477Z</time>
</trkpt>
<trkpt lat="-26.7804523" lon="152.8386719">
<ele>453.185</ele>
<time>2015-12-18T01:26:59.474Z</time>
</trkpt>
<trkpt lat="-26.7805804" lon="152.8389761">
<ele>454.233</ele>
<time>2015-12-18T01:27:01.440Z</time>
</trkpt>
<trkpt lat="-26.7807289" lon="152.8394482">
<ele>456.024</ele>
<time>2015-12-18T01:27:04.364Z</time>
</trkpt>
<trkpt lat="-26.7808253" lon="152.8397832">
<ele>457.449</ele>
<time>2015-12-18T01:27:06.374Z</time>
</trkpt>
<trkpt lat="-26.7809527" lon="152.8403011">
<ele>458.145</ele>
<time>2015-12-18T01:27:09.433Z</time>
</trkpt>
<trkpt lat="-26.7810336" lon="152.8408004">
<ele>458.511</ele>
<time>2015-12-18T01:27:12.383Z</time>
</trkpt>
<trkpt lat="-26.7810698" lon="152.8412950">
<ele>458.739</ele>
<time>2015-12-18T01:27:15.474Z</time>
</trkpt>
<trkpt lat="-26.7810962" lon="152.8416956">
<ele>458.837</ele>
<time>2015-12-18T01:27:18.568Z</time>
</trkpt>
<trkpt lat="-26.7811207" lon="152.8419386">
<ele>458.862</ele>
<time>2015-12-18T01:27:21.497Z</time>
</trkpt>
<trkpt lat="-26.7811834" lon="152.8420180">
<ele>458.570</ele>
<time>2015-12-18T01:27:23.700Z</time>
</trkpt>
<trkpt lat="-26.7812770" lon="152.8420084">
<ele>457.797</ele>
<time>2015-12-18T01:27:28.000Z</time>
</trkpt>
<trkpt lat="-26.7812770" lon="152.8420084">
<ele>456.973</ele>
<time>2015-12-18T01:27:30.000Z</time>
</trkpt>
<trkpt lat="-26.7812770" lon="152.8420084">
<ele>456.526</ele>
<time>2015-12-18T01:32:06.442Z</time>
</trkpt>
<trkpt lat="-26.7811633" lon="152.8418530">
<ele>456.494</ele>
<time>2015-12-18T01:32:11.374Z</time>
</trkpt>
<trkpt lat="-26.7811394" lon="152.8416777">
<ele>457.741</ele>
<time>2015-12-18T01:32:13.218Z</time>
</trkpt>
<trkpt lat="-26.7811120" lon="152.8413105">
<ele>460.707</ele>
<time>2015-12-18T01:32:16.320Z</time>
</trkpt>
<trkpt lat="-26.7810983" lon="152.8410060">
<ele>463.823</ele>
<time>2015-12-18T01:32:18.481Z</time>
</trkpt>
<trkpt lat="-26.7810508" lon="152.8405030">
<ele>465.524</ele>
<time>2015-12-18T01:32:21.734Z</time>
</trkpt>
<trkpt lat="-26.7809397" lon="152.8399613">
<ele>465.953</ele>
<time>2015-12-18T01:32:24.909Z</time>
</trkpt>
<trkpt lat="-26.7807781" lon="152.8394353">
<ele>465.855</ele>
<time>2015-12-18T01:32:27.910Z</time>
</trkpt>
<trkpt lat="-26.7806690" lon="152.8390908">
<ele>465.816</ele>
<time>2015-12-18T01:32:29.884Z</time>
</trkpt>
<trkpt lat="-26.7805482" lon="152.8387561">
<ele>465.913</ele>
<time>2015-12-18T01:32:31.801Z</time>
</trkpt>
<trkpt lat="-26.7803168" lon="152.8382522">
<ele>465.872</ele>
<time>2015-12-18T01:32:34.740Z</time>
</trkpt>
<trkpt lat="-26.7801250" lon="152.8379201">
<ele>465.579</ele>
<time>2015-12-18T01:32:36.769Z</time>
</trkpt>
<trkpt lat="-26.7798612" lon="152.8374233">
<ele>464.789</ele>
<time>2015-12-18T01:32:39.883Z</time>
</trkpt>
<trkpt lat="-26.7796467" lon="152.8369744">
<ele>463.234</ele>
<time>2015-12-18T01:32:42.824Z</time>
</trkpt>
<trkpt lat="-26.7795358" lon="152.8366560">
<ele>461.431</ele>
<time>2015-12-18T01:32:44.833Z</time>
</trkpt>
<trkpt lat="-26.7794479" lon="152.8363512">
<ele>460.235</ele>
<time>2015-12-18T01:32:46.855Z</time>
</trkpt>
<trkpt lat="-26.7793276" lon="152.8359254">
<ele>459.914</ele>
<time>2015-12-18T01:32:49.968Z</time>
</trkpt>
<trkpt lat="-26.7792195" lon="152.8357013">
<ele>460.217</ele>
<time>2015-12-18T01:32:52.249Z</time>
</trkpt>
<trkpt lat="-26.7791100" lon="152.8355290">
<ele>460.478</ele>
<time>2015-12-18T01:32:54.962Z</time>
</trkpt>
<trkpt lat="-26.7790178" lon="152.8354246">
<ele>459.897</ele>
<time>2015-12-18T01:32:57.251Z</time>
</trkpt>
<trkpt lat="-26.7788627" lon="152.8354866">
<ele>458.065</ele>
<time>2015-12-18T01:32:59.721Z</time>
</trkpt>
<trkpt lat="-26.7786775" lon="152.8356361">
<ele>455.640</ele>
<time>2015-12-18T01:33:01.821Z</time>
</trkpt>
<trkpt lat="-26.7782551" lon="152.8358947">
<ele>454.241</ele>
<time>2015-12-18T01:33:05.041Z</time>
</trkpt>
<trkpt lat="-26.7776795" lon="152.8360668">
<ele>455.181</ele>
<time>2015-12-18T01:33:08.345Z</time>
</trkpt>
<trkpt lat="-26.7770754" lon="152.8362141">
<ele>457.838</ele>
<time>2015-12-18T01:33:11.534Z</time>
</trkpt>
<trkpt lat="-26.7766797" lon="152.8363017">
<ele>460.138</ele>
<time>2015-12-18T01:33:13.532Z</time>
</trkpt>
<trkpt lat="-26.7762938" lon="152.8364056">
<ele>460.730</ele>
<time>2015-12-18T01:33:15.496Z</time>
</trkpt>
<trkpt lat="-26.7757034" lon="152.8365423">
<ele>459.752</ele>
<time>2015-12-18T01:33:18.494Z</time>
</trkpt>
<trkpt lat="-26.7753203" lon="152.8366200">
<ele>457.852</ele>
<time>2015-12-18T01:33:20.443Z</time>
</trkpt>
<trkpt lat="-26.7749264" lon="152.8367057">
<ele>455.855</ele>
<time>2015-12-18T01:33:22.455Z</time>
</trkpt>
<trkpt lat="-26.7743367" lon="152.8368199">
<ele>454.156</ele>
<time>2015-12-18T01:33:25.450Z</time>
</trkpt>
<trkpt lat="-26.7737479" lon="152.8369133">
<ele>452.722</ele>
<time>2015-12-18T01:33:28.401Z</time>
</trkpt>
<trkpt lat="-26.7731262" lon="152.8370006">
<ele>451.542</ele>
<time>2015-12-18T01:33:31.466Z</time>
</trkpt>
<trkpt lat="-26.7725060" lon="152.8371090">
<ele>450.605</ele>
<time>2015-12-18T01:33:34.532Z</time>
</trkpt>
<trkpt lat="-26.7718968" lon="152.8372004">
<ele>449.876</ele>
<time>2015-12-18T01:33:37.586Z</time>
</trkpt>
<trkpt lat="-26.7715107" lon="152.8372752">
<ele>449.108</ele>
<time>2015-12-18T01:33:39.577Z</time>
</trkpt>
<trkpt lat="-26.7711402" lon="152.8373859">
<ele>447.979</ele>
<time>2015-12-18T01:33:41.543Z</time>
</trkpt>
<trkpt lat="-26.7706289" lon="152.8376747">
<ele>446.243</ele>
<time>2015-12-18T01:33:44.484Z</time>
</trkpt>
<trkpt lat="-26.7703350" lon="152.8379565">
<ele>442.859</ele>
<time>2015-12-18T01:33:46.457Z</time>
</trkpt>
<trkpt lat="-26.7699350" lon="152.8384427">
<ele>437.696</ele>
<time>2015-12-18T01:33:49.421Z</time>
</trkpt>
<trkpt lat="-26.7696069" lon="152.8390164">
<ele>432.520</ele>
<time>2015-12-18T01:33:52.420Z</time>
</trkpt>
<trkpt lat="-26.7693613" lon="152.8393681">
<ele>428.310</ele>
<time>2015-12-18T01:33:54.399Z</time>
</trkpt>
<trkpt lat="-26.7689784" lon="152.8398458">
<ele>424.944</ele>
<time>2015-12-18T01:33:57.263Z</time>
</trkpt>
<trkpt lat="-26.7686701" lon="152.8401382">
<ele>422.504</ele>
<time>2015-12-18T01:33:59.282Z</time>
</trkpt>
<trkpt lat="-26.7681582" lon="152.8405095">
<ele>420.929</ele>
<time>2015-12-18T01:34:02.318Z</time>
</trkpt>
<trkpt lat="-26.7678038" lon="152.8407286">
<ele>419.796</ele>
<time>2015-12-18T01:34:04.330Z</time>
</trkpt>
<trkpt lat="-26.7674550" lon="152.8409439">
<ele>418.747</ele>
<time>2015-12-18T01:34:06.356Z</time>
</trkpt>
<trkpt lat="-26.7669980" lon="152.8413308">
<ele>417.782</ele>
<time>2015-12-18T01:34:09.419Z</time>
</trkpt>
<trkpt lat="-26.7666679" lon="152.8417737">
<ele>417.040</ele>
<time>2015-12-18T01:34:12.406Z</time>
</trkpt>
<trkpt lat="-26.7664984" lon="152.8420819">
<ele>416.196</ele>
<time>2015-12-18T01:34:14.420Z</time>
</trkpt>
<trkpt lat="-26.7662776" lon="152.8425138">
<ele>415.077</ele>
<time>2015-12-18T01:34:17.257Z</time>
</trkpt>
<trkpt lat="-26.7661184" lon="152.8428096">
<ele>414.316</ele>
<time>2015-12-18T01:34:19.225Z</time>
</trkpt>
<trkpt lat="-26.7658693" lon="152.8432786">
<ele>414.694</ele>
<time>2015-12-18T01:34:22.311Z</time>
</trkpt>
<trkpt lat="-26.7656234" lon="152.8437230">
<ele>415.918</ele>
<time>2015-12-18T01:34:25.276Z</time>
</trkpt>
<trkpt lat="-26.7654546" lon="152.8439986">
<ele>416.875</ele>
<time>2015-12-18T01:34:27.188Z</time>
</trkpt>
<trkpt lat="-26.7652874" lon="152.8442890">
<ele>416.926</ele>
<time>2015-12-18T01:34:29.203Z</time>
</trkpt>
<trkpt lat="-26.7650132" lon="152.8446761">
<ele>416.049</ele>
<time>2015-12-18T01:34:32.147Z</time>
</trkpt>
<trkpt lat="-26.7646842" lon="152.8449898">
<ele>414.462</ele>
<time>2015-12-18T01:34:35.071Z</time>
</trkpt>
<trkpt lat="-26.7642835" lon="152.8452386">
<ele>412.669</ele>
<time>2015-12-18T01:34:38.183Z</time>
</trkpt>
<trkpt lat="-26.7640087" lon="152.8453278">
<ele>411.110</ele>
<time>2015-12-18T01:34:40.145Z</time>
</trkpt>
<trkpt lat="-26.7637254" lon="152.8453630">
<ele>409.960</ele>
<time>2015-12-18T01:34:42.089Z</time>
</trkpt>
<trkpt lat="-26.7632855" lon="152.8453552">
<ele>409.390</ele>
<time>2015-12-18T01:34:45.063Z</time>
</trkpt>
<trkpt lat="-26.7628520" lon="152.8453041">
<ele>409.358</ele>
<time>2015-12-18T01:34:48.023Z</time>
</trkpt>
<trkpt lat="-26.7624254" lon="152.8452739">
<ele>409.599</ele>
<time>2015-12-18T01:34:50.979Z</time>
</trkpt>
<trkpt lat="-26.7621421" lon="152.8453229">
<ele>409.365</ele>
<time>2015-12-18T01:34:52.961Z</time>
</trkpt>
<trkpt lat="-26.7618669" lon="152.8454545">
<ele>408.281</ele>
<time>2015-12-18T01:34:54.975Z</time>
</trkpt>
<trkpt lat="-26.7616102" lon="152.8456520">
<ele>407.078</ele>
<time>2015-12-18T01:34:57.026Z</time>
</trkpt>
<trkpt lat="-26.7613861" lon="152.8458567">
<ele>406.483</ele>
<time>2015-12-18T01:34:59.049Z</time>
</trkpt>
<trkpt lat="-26.7611111" lon="152.8461057">
<ele>406.569</ele>
<time>2015-12-18T01:35:01.814Z</time>
</trkpt>
<trkpt lat="-26.7610161" lon="152.8463189">
<ele>407.342</ele>
<time>2015-12-18T01:35:03.728Z</time>
</trkpt>
<trkpt lat="-26.7610637" lon="152.8465689">
<ele>408.672</ele>
<time>2015-12-18T01:35:05.746Z</time>
</trkpt>
<trkpt lat="-26.7612260" lon="152.8469701">
<ele>410.155</ele>
<time>2015-12-18T01:35:09.019Z</time>
</trkpt>
<trkpt lat="-26.7612500" lon="152.8472372">
<ele>412.050</ele>
<time>2015-12-18T01:35:11.001Z</time>
</trkpt>
<trkpt lat="-26.7611021" lon="152.8476214">
<ele>414.751</ele>
<time>2015-12-18T01:35:14.141Z</time>
</trkpt>
<trkpt lat="-26.7609811" lon="152.8478257">
<ele>417.176</ele>
<time>2015-12-18T01:35:16.269Z</time>
</trkpt>
<trkpt lat="-26.7608787" lon="152.8479427">
<ele>417.919</ele>
<time>2015-12-18T01:35:18.203Z</time>
</trkpt>
<trkpt lat="-26.7608059" lon="152.8480155">
<ele>416.839</ele>
<time>2015-12-18T01:35:19.900Z</time>
</trkpt>
<trkpt lat="-26.7607728" lon="152.8481138">
<ele>414.624</ele>
<time>2015-12-18T01:35:21.595Z</time>
</trkpt>
<trkpt lat="-26.7608511" lon="152.8483575">
<ele>412.459</ele>
<time>2015-12-18T01:35:24.924Z</time>
</trkpt>
<trkpt lat="-26.7609007" lon="152.8485556">
<ele>411.105</ele>
<time>2015-12-18T01:35:26.966Z</time>
</trkpt>
<trkpt lat="-26.7609497" lon="152.8488779">
<ele>410.383</ele>
<time>2015-12-18T01:35:29.997Z</time>
</trkpt>
<trkpt lat="-26.7609789" lon="152.8492101">
<ele>409.978</ele>
<time>2015-12-18T01:35:33.137Z</time>
</trkpt>
<trkpt lat="-26.7609983" lon="152.8495008">
<ele>409.799</ele>
<time>2015-12-18T01:35:36.136Z</time>
</trkpt>
<trkpt lat="-26.7610219" lon="152.8497691">
<ele>409.777</ele>
<time>2015-12-18T01:35:39.131Z</time>
</trkpt>
<trkpt lat="-26.7609836" lon="152.8499336">
<ele>409.707</ele>
<time>2015-12-18T01:35:40.932Z</time>
</trkpt>
<trkpt lat="-26.7608299" lon="152.8501986">
<ele>409.354</ele>
<time>2015-12-18T01:35:43.922Z</time>
</trkpt>
<trkpt lat="-26.7606391" lon="152.8504893">
<ele>408.787</ele>
<time>2015-12-18T01:35:46.940Z</time>
</trkpt>
<trkpt lat="-26.7604956" lon="152.8506816">
<ele>408.434</ele>
<time>2015-12-18T01:35:48.957Z</time>
</trkpt>
<trkpt lat="-26.7603068" lon="152.8509674">
<ele>408.538</ele>
<time>2015-12-18T01:35:51.813Z</time>
</trkpt>
<trkpt lat="-26.7601829" lon="152.8511763">
<ele>408.853</ele>
<time>2015-12-18T01:35:53.797Z</time>
</trkpt>
<trkpt lat="-26.7600326" lon="152.8513854">
<ele>408.848</ele>
<time>2015-12-18T01:35:55.871Z</time>
</trkpt>
<trkpt lat="-26.7598644" lon="152.8515636">
<ele>408.108</ele>
<time>2015-12-18T01:35:57.883Z</time>
</trkpt>
<trkpt lat="-26.7596435" lon="152.8518371">
<ele>406.519</ele>
<time>2015-12-18T01:36:00.867Z</time>
</trkpt>
<trkpt lat="-26.7595381" lon="152.8520241">
<ele>404.427</ele>
<time>2015-12-18T01:36:02.782Z</time>
</trkpt>
<trkpt lat="-26.7594513" lon="152.8522248">
<ele>402.619</ele>
<time>2015-12-18T01:36:04.777Z</time>
</trkpt>
<trkpt lat="-26.7593742" lon="152.8524188">
<ele>401.695</ele>
<time>2015-12-18T01:36:06.750Z</time>
</trkpt>
<trkpt lat="-26.7593023" lon="152.8526065">
<ele>401.459</ele>
<time>2015-12-18T01:36:08.819Z</time>
</trkpt>
<trkpt lat="-26.7591449" lon="152.8528000">
<ele>401.383</ele>
<time>2015-12-18T01:36:11.873Z</time>
</trkpt>
<trkpt lat="-26.7589864" lon="152.8528714">
<ele>401.040</ele>
<time>2015-12-18T01:36:14.756Z</time>
</trkpt>
<trkpt lat="-26.7588701" lon="152.8529005">
<ele>400.263</ele>
<time>2015-12-18T01:36:17.567Z</time>
</trkpt>
<trkpt lat="-26.7587854" lon="152.8529385">
<ele>399.267</ele>
<time>2015-12-18T01:36:20.535Z</time>
</trkpt>
<trkpt lat="-26.7586987" lon="152.8529862">
<ele>398.456</ele>
<time>2015-12-18T01:36:25.000Z</time>
</trkpt>
<trkpt lat="-26.7586987" lon="152.8529862">
<ele>398.042</ele>
<time>2015-12-18T01:36:31.000Z</time>
</trkpt>
<trkpt lat="-26.7586987" lon="152.8529862">
<ele>397.947</ele>
<time>2015-12-18T01:36:35.708Z</time>
</trkpt>
<trkpt lat="-26.7585244" lon="152.8530050">
<ele>397.962</ele>
<time>2015-12-18T01:36:44.380Z</time>
</trkpt>
<trkpt lat="-26.7584679" lon="152.8528824">
<ele>398.292</ele>
<time>2015-12-18T01:36:47.255Z</time>
</trkpt>
<trkpt lat="-26.7584306" lon="152.8527325">
<ele>399.292</ele>
<time>2015-12-18T01:36:50.440Z</time>
</trkpt>
<trkpt lat="-26.7583989" lon="152.8525927">
<ele>400.805</ele>
<time>2015-12-18T01:36:53.676Z</time>
</trkpt>
<trkpt lat="-26.7583791" lon="152.8524841">
<ele>402.346</ele>
<time>2015-12-18T01:36:56.356Z</time>
</trkpt>
<trkpt lat="-26.7583979" lon="152.8523736">
<ele>403.661</ele>
<time>2015-12-18T01:36:58.945Z</time>
</trkpt>
<trkpt lat="-26.7584368" lon="152.8522387">
<ele>404.778</ele>
<time>2015-12-18T01:37:02.068Z</time>
</trkpt>
<trkpt lat="-26.7584703" lon="152.8521147">
<ele>405.858</ele>
<time>2015-12-18T01:37:04.733Z</time>
</trkpt>
<trkpt lat="-26.7584999" lon="152.8519536">
<ele>406.909</ele>
<time>2015-12-18T01:37:07.568Z</time>
</trkpt>
<trkpt lat="-26.7585190" lon="152.8518335">
<ele>407.784</ele>
<time>2015-12-18T01:37:09.529Z</time>
</trkpt>
<trkpt lat="-26.7585557" lon="152.8516638">
<ele>408.442</ele>
<time>2015-12-18T01:37:12.680Z</time>
</trkpt>
<trkpt lat="-26.7585720" lon="152.8515641">
<ele>409.026</ele>
<time>2015-12-18T01:37:14.896Z</time>
</trkpt>
<trkpt lat="-26.7586024" lon="152.8514489">
<ele>409.579</ele>
<time>2015-12-18T01:37:17.990Z</time>
</trkpt>
<trkpt lat="-26.7586313" lon="152.8513443">
<ele>409.976</ele>
<time>2015-12-18T01:37:20.830Z</time>
</trkpt>
<trkpt lat="-26.7586218" lon="152.8512326">
<ele>410.198</ele>
<time>2015-12-18T01:37:23.845Z</time>
</trkpt>
<trkpt lat="-26.7585966" lon="152.8511062">
<ele>410.405</ele>
<time>2015-12-18T01:37:26.934Z</time>
</trkpt>
<trkpt lat="-26.7585565" lon="152.8509596">
<ele>410.686</ele>
<time>2015-12-18T01:37:29.740Z</time>
</trkpt>
<trkpt lat="-26.7585130" lon="152.8507658">
<ele>410.962</ele>
<time>2015-12-18T01:37:32.640Z</time>
</trkpt>
<trkpt lat="-26.7584811" lon="152.8506096">
<ele>411.201</ele>
<time>2015-12-18T01:37:34.665Z</time>
</trkpt>
<trkpt lat="-26.7584335" lon="152.8503654">
<ele>411.616</ele>
<time>2015-12-18T01:37:37.770Z</time>
</trkpt>
<trkpt lat="-26.7583779" lon="152.8501358">
<ele>412.285</ele>
<time>2015-12-18T01:37:40.513Z</time>
</trkpt>
<trkpt lat="-26.7583263" lon="152.8499376">
<ele>413.098</ele>
<time>2015-12-18T01:37:42.537Z</time>
</trkpt>
<trkpt lat="-26.7582672" lon="152.8497096">
<ele>413.935</ele>
<time>2015-12-18T01:37:44.636Z</time>
</trkpt>
<trkpt lat="-26.7582216" lon="152.8494942">
<ele>414.688</ele>
<time>2015-12-18T01:37:46.537Z</time>
</trkpt>
<trkpt lat="-26.7581988" lon="152.8491241">
<ele>415.403</ele>
<time>2015-12-18T01:37:50.194Z</time>
</trkpt>
<trkpt lat="-26.7581978" lon="152.8489011">
<ele>416.108</ele>
<time>2015-12-18T01:37:53.962Z</time>
</trkpt>
<trkpt lat="-26.7580927" lon="152.8489484">
<ele>416.441</ele>
<time>2015-12-18T01:37:56.483Z</time>
</trkpt>
<trkpt lat="-26.7581211" lon="152.8491328">
<ele>416.238</ele>
<time>2015-12-18T01:37:59.439Z</time>
</trkpt>
<trkpt lat="-26.7581511" lon="152.8493082">
<ele>415.932</ele>
<time>2015-12-18T01:38:01.496Z</time>
</trkpt>
<trkpt lat="-26.7582051" lon="152.8495757">
<ele>415.960</ele>
<time>2015-12-18T01:38:04.502Z</time>
</trkpt>
<trkpt lat="-26.7582469" lon="152.8497571">
<ele>416.252</ele>
<time>2015-12-18T01:38:06.731Z</time>
</trkpt>
<trkpt lat="-26.7582731" lon="152.8499144">
<ele>416.437</ele>
<time>2015-12-18T01:38:09.269Z</time>
</trkpt>
<trkpt lat="-26.7582834" lon="152.8500512">
<ele>416.330</ele>
<time>2015-12-18T01:38:13.305Z</time>
</trkpt>
<trkpt lat="-26.7582374" lon="152.8501412">
<ele>415.787</ele>
<time>2015-12-18T01:38:17.000Z</time>
</trkpt>
<trkpt lat="-26.7582374" lon="152.8501412">
<ele>414.823</ele>
<time>2015-12-18T01:38:19.000Z</time>
</trkpt>
<trkpt lat="-26.7582374" lon="152.8501412">
<ele>414.032</ele>
<time>2015-12-18T01:49:28.385Z</time>
</trkpt>
<trkpt lat="-26.7582172" lon="152.8503522">
<ele>414.015</ele>
<time>2015-12-18T01:49:41.097Z</time>
</trkpt>
<trkpt lat="-26.7583200" lon="152.8503689">
<ele>414.770</ele>
<time>2015-12-18T01:49:43.173Z</time>
</trkpt>
<trkpt lat="-26.7583950" lon="152.8505205">
<ele>415.912</ele>
<time>2015-12-18T01:49:45.465Z</time>
</trkpt>
<trkpt lat="-26.7584484" lon="152.8507556">
<ele>417.014</ele>
<time>2015-12-18T01:49:48.155Z</time>
</trkpt>
<trkpt lat="-26.7585176" lon="152.8509861">
<ele>417.842</ele>
<time>2015-12-18T01:49:50.935Z</time>
</trkpt>
<trkpt lat="-26.7585508" lon="152.8511036">
<ele>418.070</ele>
<time>2015-12-18T01:49:52.745Z</time>
</trkpt>
<trkpt lat="-26.7585773" lon="152.8512264">
<ele>417.422</ele>
<time>2015-12-18T01:49:55.079Z</time>
</trkpt>
<trkpt lat="-26.7585773" lon="152.8512264">
<ele>416.341</ele>
<time>2015-12-18T01:49:58.070Z</time>
</trkpt>
<trkpt lat="-26.7585773" lon="152.8512264">
<ele>415.607</ele>
<time>2015-12-18T01:50:10.759Z</time>
</trkpt>
<trkpt lat="-26.7585532" lon="152.8513986">
<ele>415.474</ele>
<time>2015-12-18T01:50:15.180Z</time>
</trkpt>
<trkpt lat="-26.7584993" lon="152.8516848">
<ele>415.622</ele>
<time>2015-12-18T01:50:18.498Z</time>
</trkpt>
<trkpt lat="-26.7584580" lon="152.8519086">
<ele>415.600</ele>
<time>2015-12-18T01:50:20.654Z</time>
</trkpt>
<trkpt lat="-26.7583733" lon="152.8522048">
<ele>415.276</ele>
<time>2015-12-18T01:50:23.617Z</time>
</trkpt>
<trkpt lat="-26.7583201" lon="152.8524039">
<ele>414.788</ele>
<time>2015-12-18T01:50:25.690Z</time>
</trkpt>
<trkpt lat="-26.7582910" lon="152.8525960">
<ele>414.283</ele>
<time>2015-12-18T01:50:27.706Z</time>
</trkpt>
<trkpt lat="-26.7583270" lon="152.8527967">
<ele>413.639</ele>
<time>2015-12-18T01:50:29.847Z</time>
</trkpt>
<trkpt lat="-26.7584017" lon="152.8530671">
<ele>412.591</ele>
<time>2015-12-18T01:50:32.902Z</time>
</trkpt>
<trkpt lat="-26.7585159" lon="152.8533025">
<ele>410.994</ele>
<time>2015-12-18T01:50:35.919Z</time>
</trkpt>
<trkpt lat="-26.7586437" lon="152.8535201">
<ele>408.904</ele>
<time>2015-12-18T01:50:38.691Z</time>
</trkpt>
<trkpt lat="-26.7588043" lon="152.8537933">
<ele>406.806</ele>
<time>2015-12-18T01:50:41.894Z</time>
</trkpt>
<trkpt lat="-26.7589818" lon="152.8540382">
<ele>405.718</ele>
<time>2015-12-18T01:50:44.968Z</time>
</trkpt>
<trkpt lat="-26.7591217" lon="152.8541502">
<ele>405.942</ele>
<time>2015-12-18T01:50:46.770Z</time>
</trkpt>
<trkpt lat="-26.7593892" lon="152.8543230">
<ele>406.912</ele>
<time>2015-12-18T01:50:49.854Z</time>
</trkpt>
<trkpt lat="-26.7595678" lon="152.8544375">
<ele>408.237</ele>
<time>2015-12-18T01:50:51.898Z</time>
</trkpt>
<trkpt lat="-26.7598437" lon="152.8546055">
<ele>409.821</ele>
<time>2015-12-18T01:50:55.083Z</time>
</trkpt>
<trkpt lat="-26.7600134" lon="152.8547078">
<ele>411.355</ele>
<time>2015-12-18T01:50:56.978Z</time>
</trkpt>
<trkpt lat="-26.7602851" lon="152.8548794">
<ele>412.525</ele>
<time>2015-12-18T01:50:59.942Z</time>
</trkpt>
<trkpt lat="-26.7605702" lon="152.8550632">
<ele>413.306</ele>
<time>2015-12-18T01:51:03.009Z</time>
</trkpt>
<trkpt lat="-26.7607503" lon="152.8551741">
<ele>413.821</ele>
<time>2015-12-18T01:51:04.991Z</time>
</trkpt>
<trkpt lat="-26.7610168" lon="152.8553414">
<ele>414.069</ele>
<time>2015-12-18T01:51:07.892Z</time>
</trkpt>
<trkpt lat="-26.7612812" lon="152.8555772">
<ele>414.231</ele>
<time>2015-12-18T01:51:10.927Z</time>
</trkpt>
<trkpt lat="-26.7614400" lon="152.8557967">
<ele>414.611</ele>
<time>2015-12-18T01:51:13.036Z</time>
</trkpt>
<trkpt lat="-26.7616695" lon="152.8561321">
<ele>415.166</ele>
<time>2015-12-18T01:51:16.112Z</time>
</trkpt>
<trkpt lat="-26.7618371" lon="152.8563274">
<ele>415.272</ele>
<time>2015-12-18T01:51:17.938Z</time>
</trkpt>
<trkpt lat="-26.7621515" lon="152.8566151">
<ele>414.618</ele>
<time>2015-12-18T01:51:20.973Z</time>
</trkpt>
<trkpt lat="-26.7624307" lon="152.8569192">
<ele>413.711</ele>
<time>2015-12-18T01:51:23.957Z</time>
</trkpt>
<trkpt lat="-26.7625415" lon="152.8571784">
<ele>412.741</ele>
<time>2015-12-18T01:51:25.930Z</time>
</trkpt>
<trkpt lat="-26.7626036" lon="152.8574573">
<ele>411.567</ele>
<time>2015-12-18T01:51:27.818Z</time>
</trkpt>
<trkpt lat="-26.7627135" lon="152.8579045">
<ele>410.930</ele>
<time>2015-12-18T01:51:30.874Z</time>
</trkpt>
<trkpt lat="-26.7628148" lon="152.8581765">
<ele>411.435</ele>
<time>2015-12-18T01:51:32.854Z</time>
</trkpt>
<trkpt lat="-26.7629282" lon="152.8584391">
<ele>412.447</ele>
<time>2015-12-18T01:51:34.804Z</time>
</trkpt>
<trkpt lat="-26.7630538" lon="152.8586921">
<ele>413.089</ele>
<time>2015-12-18T01:51:36.747Z</time>
</trkpt>
<trkpt lat="-26.7631997" lon="152.8589400">
<ele>413.157</ele>
<time>2015-12-18T01:51:38.693Z</time>
</trkpt>
<trkpt lat="-26.7634899" lon="152.8592744">
<ele>412.948</ele>
<time>2015-12-18T01:51:41.635Z</time>
</trkpt>
<trkpt lat="-26.7638059" lon="152.8596074">
<ele>412.718</ele>
<time>2015-12-18T01:51:44.537Z</time>
</trkpt>
<trkpt lat="-26.7640319" lon="152.8598551">
<ele>412.440</ele>
<time>2015-12-18T01:51:46.612Z</time>
</trkpt>
<trkpt lat="-26.7643591" lon="152.8602154">
<ele>411.898</ele>
<time>2015-12-18T01:51:49.688Z</time>
</trkpt>
<trkpt lat="-26.7645721" lon="152.8604169">
<ele>410.987</ele>
<time>2015-12-18T01:51:51.606Z</time>
</trkpt>
<trkpt lat="-26.7648257" lon="152.8605749">
<ele>410.024</ele>
<time>2015-12-18T01:51:53.532Z</time>
</trkpt>
<trkpt lat="-26.7652769" lon="152.8607414">
<ele>409.492</ele>
<time>2015-12-18T01:51:56.590Z</time>
</trkpt>
<trkpt lat="-26.7655831" lon="152.8608162">
<ele>409.441</ele>
<time>2015-12-18T01:51:58.600Z</time>
</trkpt>
<trkpt lat="-26.7658870" lon="152.8609034">
<ele>409.509</ele>
<time>2015-12-18T01:52:00.681Z</time>
</trkpt>
<trkpt lat="-26.7662724" lon="152.8611003">
<ele>409.321</ele>
<time>2015-12-18T01:52:03.534Z</time>
</trkpt>
<trkpt lat="-26.7666008" lon="152.8614425">
<ele>408.902</ele>
<time>2015-12-18T01:52:06.528Z</time>
</trkpt>
<trkpt lat="-26.7667990" lon="152.8617181">
<ele>408.596</ele>
<time>2015-12-18T01:52:08.544Z</time>
</trkpt>
<trkpt lat="-26.7669594" lon="152.8620253">
<ele>408.615</ele>
<time>2015-12-18T01:52:10.511Z</time>
</trkpt>
<trkpt lat="-26.7671065" lon="152.8623466">
<ele>408.797</ele>
<time>2015-12-18T01:52:12.480Z</time>
</trkpt>
<trkpt lat="-26.7673083" lon="152.8628262">
<ele>408.468</ele>
<time>2015-12-18T01:52:15.339Z</time>
</trkpt>
<trkpt lat="-26.7674967" lon="152.8631450">
<ele>406.825</ele>
<time>2015-12-18T01:52:17.352Z</time>
</trkpt>
<trkpt lat="-26.7678477" lon="152.8635684">
<ele>404.262</ele>
<time>2015-12-18T01:52:20.329Z</time>
</trkpt>
<trkpt lat="-26.7682703" lon="152.8639326">
<ele>402.204</ele>
<time>2015-12-18T01:52:23.309Z</time>
</trkpt>
<trkpt lat="-26.7685924" lon="152.8640908">
<ele>401.494</ele>
<time>2015-12-18T01:52:25.235Z</time>
</trkpt>
<trkpt lat="-26.7689486" lon="152.8642198">
<ele>402.243</ele>
<time>2015-12-18T01:52:27.301Z</time>
</trkpt>
<trkpt lat="-26.7694650" lon="152.8643841">
<ele>404.265</ele>
<time>2015-12-18T01:52:30.349Z</time>
</trkpt>
<trkpt lat="-26.7697832" lon="152.8644827">
<ele>407.093</ele>
<time>2015-12-18T01:52:32.308Z</time>
</trkpt>
<trkpt lat="-26.7702547" lon="152.8646687">
<ele>410.068</ele>
<time>2015-12-18T01:52:35.370Z</time>
</trkpt>
<trkpt lat="-26.7706449" lon="152.8649694">
<ele>412.756</ele>
<time>2015-12-18T01:52:38.363Z</time>
</trkpt>
<trkpt lat="-26.7708710" lon="152.8652248">
<ele>415.190</ele>
<time>2015-12-18T01:52:40.427Z</time>
</trkpt>
<trkpt lat="-26.7710234" lon="152.8656494">
<ele>417.605</ele>
<time>2015-12-18T01:52:43.081Z</time>
</trkpt>
<trkpt lat="-26.7710143" lon="152.8661603">
<ele>420.181</ele>
<time>2015-12-18T01:52:46.052Z</time>
</trkpt>
<trkpt lat="-26.7709511" lon="152.8665081">
<ele>422.634</ele>
<time>2015-12-18T01:52:48.053Z</time>
</trkpt>
<trkpt lat="-26.7707313" lon="152.8669861">
<ele>424.152</ele>
<time>2015-12-18T01:52:51.014Z</time>
</trkpt>
<trkpt lat="-26.7704234" lon="152.8674296">
<ele>424.456</ele>
<time>2015-12-18T01:52:54.027Z</time>
</trkpt>
<trkpt lat="-26.7702297" lon="152.8677401">
<ele>424.089</ele>
<time>2015-12-18T01:52:56.024Z</time>
</trkpt>
<trkpt lat="-26.7699596" lon="152.8682191">
<ele>423.659</ele>
<time>2015-12-18T01:52:58.994Z</time>
</trkpt>
<trkpt lat="-26.7697218" lon="152.8687469">
<ele>423.582</ele>
<time>2015-12-18T01:53:02.031Z</time>
</trkpt>
<trkpt lat="-26.7696070" lon="152.8691257">
<ele>424.500</ele>
<time>2015-12-18T01:53:04.039Z</time>
</trkpt>
<trkpt lat="-26.7695069" lon="152.8697105">
<ele>426.959</ele>
<time>2015-12-18T01:53:07.013Z</time>
</trkpt>
<trkpt lat="-26.7694897" lon="152.8701083">
<ele>430.599</ele>
<time>2015-12-18T01:53:09.017Z</time>
</trkpt>
<trkpt lat="-26.7695170" lon="152.8706857">
<ele>434.259</ele>
<time>2015-12-18T01:53:11.981Z</time>
</trkpt>
<trkpt lat="-26.7695476" lon="152.8712316">
<ele>436.779</ele>
<time>2015-12-18T01:53:14.839Z</time>
</trkpt>
<trkpt lat="-26.7695709" lon="152.8716200">
<ele>437.299</ele>
<time>2015-12-18T01:53:16.842Z</time>
</trkpt>
<trkpt lat="-26.7695924" lon="152.8720156">
<ele>435.685</ele>
<time>2015-12-18T01:53:18.829Z</time>
</trkpt>
<trkpt lat="-26.7696320" lon="152.8726405">
<ele>433.097</ele>
<time>2015-12-18T01:53:21.914Z</time>
</trkpt>
<trkpt lat="-26.7696377" lon="152.8730454">
<ele>430.816</ele>
<time>2015-12-18T01:53:23.891Z</time>
</trkpt>
<trkpt lat="-26.7695496" lon="152.8736380">
<ele>429.086</ele>
<time>2015-12-18T01:53:26.806Z</time>
</trkpt>
<trkpt lat="-26.7693370" lon="152.8742357">
<ele>427.969</ele>
<time>2015-12-18T01:53:29.862Z</time>
</trkpt>
<trkpt lat="-26.7691904" lon="152.8746267">
<ele>427.565</ele>
<time>2015-12-18T01:53:31.869Z</time>
</trkpt>
<trkpt lat="-26.7689661" lon="152.8752030">
<ele>427.569</ele>
<time>2015-12-18T01:53:34.873Z</time>
</trkpt>
<trkpt lat="-26.7688385" lon="152.8756020">
<ele>427.665</ele>
<time>2015-12-18T01:53:36.907Z</time>
</trkpt>
<trkpt lat="-26.7686899" lon="152.8759736">
<ele>427.796</ele>
<time>2015-12-18T01:53:38.866Z</time>
</trkpt>
<trkpt lat="-26.7685260" lon="152.8765598">
<ele>427.997</ele>
<time>2015-12-18T01:53:41.830Z</time>
</trkpt>
<trkpt lat="-26.7684706" lon="152.8771825">
<ele>427.864</ele>
<time>2015-12-18T01:53:44.840Z</time>
</trkpt>
<trkpt lat="-26.7684994" lon="152.8776103">
<ele>427.118</ele>
<time>2015-12-18T01:53:46.867Z</time>
</trkpt>
<trkpt lat="-26.7686444" lon="152.8782280">
<ele>426.203</ele>
<time>2015-12-18T01:53:49.840Z</time>
</trkpt>
<trkpt lat="-26.7687547" lon="152.8786508">
<ele>425.590</ele>
<time>2015-12-18T01:53:51.869Z</time>
</trkpt>
<trkpt lat="-26.7689341" lon="152.8792505">
<ele>425.179</ele>
<time>2015-12-18T01:53:54.780Z</time>
</trkpt>
<trkpt lat="-26.7691422" lon="152.8798625">
<ele>424.794</ele>
<time>2015-12-18T01:53:57.865Z</time>
</trkpt>
<trkpt lat="-26.7692576" lon="152.8804371">
<ele>424.700</ele>
<time>2015-12-18T01:54:00.763Z</time>
</trkpt>
<trkpt lat="-26.7692714" lon="152.8808276">
<ele>425.298</ele>
<time>2015-12-18T01:54:02.721Z</time>
</trkpt>
<trkpt lat="-26.7692029" lon="152.8814241">
<ele>426.566</ele>
<time>2015-12-18T01:54:05.723Z</time>
</trkpt>
<trkpt lat="-26.7691402" lon="152.8818162">
<ele>428.570</ele>
<time>2015-12-18T01:54:07.743Z</time>
</trkpt>
<trkpt lat="-26.7690750" lon="152.8821725">
<ele>431.010</ele>
<time>2015-12-18T01:54:09.653Z</time>
</trkpt>
<trkpt lat="-26.7689766" lon="152.8827107">
<ele>432.860</ele>
<time>2015-12-18T01:54:12.589Z</time>
</trkpt>
<trkpt lat="-26.7689141" lon="152.8830886">
<ele>433.673</ele>
<time>2015-12-18T01:54:14.611Z</time>
</trkpt>
<trkpt lat="-26.7687678" lon="152.8836244">
<ele>434.182</ele>
<time>2015-12-18T01:54:17.559Z</time>
</trkpt>
<trkpt lat="-26.7685742" lon="152.8841300">
<ele>434.954</ele>
<time>2015-12-18T01:54:20.523Z</time>
</trkpt>
<trkpt lat="-26.7684450" lon="152.8844588">
<ele>435.786</ele>
<time>2015-12-18T01:54:22.530Z</time>
</trkpt>
<trkpt lat="-26.7683171" lon="152.8847525">
<ele>436.366</ele>
<time>2015-12-18T01:54:24.520Z</time>
</trkpt>
<trkpt lat="-26.7681819" lon="152.8849357">
<ele>436.756</ele>
<time>2015-12-18T01:54:26.205Z</time>
</trkpt>
<trkpt lat="-26.7679811" lon="152.8850247">
<ele>437.036</ele>
<time>2015-12-18T01:54:28.155Z</time>
</trkpt>
<trkpt lat="-26.7675771" lon="152.8851671">
<ele>437.337</ele>
<time>2015-12-18T01:54:31.432Z</time>
</trkpt>
<trkpt lat="-26.7672679" lon="152.8852645">
<ele>437.758</ele>
<time>2015-12-18T01:54:33.523Z</time>
</trkpt>
<trkpt lat="-26.7667897" lon="152.8853796">
<ele>438.164</ele>
<time>2015-12-18T01:54:36.584Z</time>
</trkpt>
<trkpt lat="-26.7664765" lon="152.8854723">
<ele>437.916</ele>
<time>2015-12-18T01:54:38.630Z</time>
</trkpt>
<trkpt lat="-26.7661902" lon="152.8855729">
<ele>436.456</ele>
<time>2015-12-18T01:54:40.575Z</time>
</trkpt>
<trkpt lat="-26.7657583" lon="152.8856874">
<ele>434.162</ele>
<time>2015-12-18T01:54:43.519Z</time>
</trkpt>
<trkpt lat="-26.7654587" lon="152.8857874">
<ele>431.951</ele>
<time>2015-12-18T01:54:45.567Z</time>
</trkpt>
<trkpt lat="-26.7649953" lon="152.8859326">
<ele>430.350</ele>
<time>2015-12-18T01:54:48.604Z</time>
</trkpt>
<trkpt lat="-26.7645207" lon="152.8860787">
<ele>429.492</ele>
<time>2015-12-18T01:54:51.633Z</time>
</trkpt>
<trkpt lat="-26.7642042" lon="152.8861674">
<ele>429.196</ele>
<time>2015-12-18T01:54:53.616Z</time>
</trkpt>
<trkpt lat="-26.7637298" lon="152.8863206">
<ele>429.107</ele>
<time>2015-12-18T01:54:56.594Z</time>
</trkpt>
<trkpt lat="-26.7632541" lon="152.8864664">
<ele>428.998</ele>
<time>2015-12-18T01:54:59.568Z</time>
</trkpt>
<trkpt lat="-26.7629412" lon="152.8865593">
<ele>428.851</ele>
<time>2015-12-18T01:55:01.556Z</time>
</trkpt>
<trkpt lat="-26.7626447" lon="152.8866491">
<ele>428.704</ele>
<time>2015-12-18T01:55:03.497Z</time>
</trkpt>
<trkpt lat="-26.7623539" lon="152.8867534">
<ele>428.600</ele>
<time>2015-12-18T01:55:05.510Z</time>
</trkpt>
<trkpt lat="-26.7619540" lon="152.8868757">
<ele>428.502</ele>
<time>2015-12-18T01:55:08.385Z</time>
</trkpt>
<trkpt lat="-26.7616752" lon="152.8869493">
<ele>428.264</ele>
<time>2015-12-18T01:55:10.397Z</time>
</trkpt>
<trkpt lat="-26.7613928" lon="152.8870149">
<ele>427.884</ele>
<time>2015-12-18T01:55:12.447Z</time>
</trkpt>
<trkpt lat="-26.7609700" lon="152.8871242">
<ele>427.339</ele>
<time>2015-12-18T01:55:15.519Z</time>
</trkpt>
<trkpt lat="-26.7607008" lon="152.8872091">
<ele>426.626</ele>
<time>2015-12-18T01:55:17.494Z</time>
</trkpt>
<trkpt lat="-26.7604296" lon="152.8872985">
<ele>426.100</ele>
<time>2015-12-18T01:55:19.501Z</time>
</trkpt>
<trkpt lat="-26.7599785" lon="152.8874026">
<ele>426.106</ele>
<time>2015-12-18T01:55:22.630Z</time>
</trkpt>
<trkpt lat="-26.7594839" lon="152.8875358">
<ele>426.497</ele>
<time>2015-12-18T01:55:25.762Z</time>
</trkpt>
<trkpt lat="-26.7589875" lon="152.8876766">
<ele>426.910</ele>
<time>2015-12-18T01:55:28.706Z</time>
</trkpt>
<trkpt lat="-26.7586262" lon="152.8877883">
<ele>426.748</ele>
<time>2015-12-18T01:55:30.799Z</time>
</trkpt>
<trkpt lat="-26.7580763" lon="152.8879136">
<ele>425.315</ele>
<time>2015-12-18T01:55:33.911Z</time>
</trkpt>
<trkpt lat="-26.7575431" lon="152.8877857">
<ele>422.567</ele>
<time>2015-12-18T01:55:36.995Z</time>
</trkpt>
<trkpt lat="-26.7572428" lon="152.8876428">
<ele>419.065</ele>
<time>2015-12-18T01:55:38.893Z</time>
</trkpt>
<trkpt lat="-26.7569420" lon="152.8874450">
<ele>415.235</ele>
<time>2015-12-18T01:55:40.924Z</time>
</trkpt>
<trkpt lat="-26.7566515" lon="152.8872454">
<ele>411.395</ele>
<time>2015-12-18T01:55:42.891Z</time>
</trkpt>
<trkpt lat="-26.7562106" lon="152.8869554">
<ele>407.987</ele>
<time>2015-12-18T01:55:45.835Z</time>
</trkpt>
<trkpt lat="-26.7557374" lon="152.8867591">
<ele>404.989</ele>
<time>2015-12-18T01:55:48.745Z</time>
</trkpt>
<trkpt lat="-26.7552008" lon="152.8867298">
<ele>401.953</ele>
<time>2015-12-18T01:55:51.769Z</time>
</trkpt>
<trkpt lat="-26.7548354" lon="152.8868052">
<ele>399.193</ele>
<time>2015-12-18T01:55:53.737Z</time>
</trkpt>
<trkpt lat="-26.7542881" lon="152.8870894">
<ele>397.808</ele>
<time>2015-12-18T01:55:56.749Z</time>
</trkpt>
<trkpt lat="-26.7539690" lon="152.8873935">
<ele>398.349</ele>
<time>2015-12-18T01:55:58.770Z</time>
</trkpt>
<trkpt lat="-26.7535533" lon="152.8878877">
<ele>400.056</ele>
<time>2015-12-18T01:56:01.766Z</time>
</trkpt>
<trkpt lat="-26.7531682" lon="152.8883640">
<ele>401.262</ele>
<time>2015-12-18T01:56:04.725Z</time>
</trkpt>
<trkpt lat="-26.7529029" lon="152.8886576">
<ele>400.726</ele>
<time>2015-12-18T01:56:06.703Z</time>
</trkpt>
<trkpt lat="-26.7526099" lon="152.8889146">
<ele>398.543</ele>
<time>2015-12-18T01:56:08.697Z</time>
</trkpt>
<trkpt lat="-26.7522902" lon="152.8891241">
<ele>395.550</ele>
<time>2015-12-18T01:56:10.672Z</time>
</trkpt>
<trkpt lat="-26.7517350" lon="152.8893472">
<ele>392.597</ele>
<time>2015-12-18T01:56:13.766Z</time>
</trkpt>
<trkpt lat="-26.7513284" lon="152.8893775">
<ele>390.126</ele>
<time>2015-12-18T01:56:15.850Z</time>
</trkpt>
<trkpt lat="-26.7509461" lon="152.8893508">
<ele>388.193</ele>
<time>2015-12-18T01:56:17.800Z</time>
</trkpt>
<trkpt lat="-26.7503927" lon="152.8891693">
<ele>386.882</ele>
<time>2015-12-18T01:56:20.767Z</time>
</trkpt>
<trkpt lat="-26.7500616" lon="152.8889792">
<ele>386.297</ele>
<time>2015-12-18T01:56:22.727Z</time>
</trkpt>
<trkpt lat="-26.7497647" lon="152.8887588">
<ele>385.980</ele>
<time>2015-12-18T01:56:24.667Z</time>
</trkpt>
<trkpt lat="-26.7493308" lon="152.8884448">
<ele>385.480</ele>
<time>2015-12-18T01:56:27.621Z</time>
</trkpt>
<trkpt lat="-26.7489075" lon="152.8882018">
<ele>385.241</ele>
<time>2015-12-18T01:56:30.503Z</time>
</trkpt>
<trkpt lat="-26.7484387" lon="152.8880695">
<ele>386.014</ele>
<time>2015-12-18T01:56:33.505Z</time>
</trkpt>
<trkpt lat="-26.7481116" lon="152.8880247">
<ele>387.592</ele>
<time>2015-12-18T01:56:35.536Z</time>
</trkpt>
<trkpt lat="-26.7477848" lon="152.8880534">
<ele>389.018</ele>
<time>2015-12-18T01:56:37.509Z</time>
</trkpt>
<trkpt lat="-26.7474329" lon="152.8881573">
<ele>389.665</ele>
<time>2015-12-18T01:56:39.637Z</time>
</trkpt>
<trkpt lat="-26.7469041" lon="152.8883880">
<ele>389.473</ele>
<time>2015-12-18T01:56:42.740Z</time>
</trkpt>
<trkpt lat="-26.7465722" lon="152.8885648">
<ele>388.378</ele>
<time>2015-12-18T01:56:44.683Z</time>
</trkpt>
<trkpt lat="-26.7462223" lon="152.8887417">
<ele>386.236</ele>
<time>2015-12-18T01:56:46.690Z</time>
</trkpt>
<trkpt lat="-26.7457015" lon="152.8889878">
<ele>383.476</ele>
<time>2015-12-18T01:56:49.628Z</time>
</trkpt>
<trkpt lat="-26.7451633" lon="152.8892539">
<ele>381.087</ele>
<time>2015-12-18T01:56:52.663Z</time>
</trkpt>
<trkpt lat="-26.7448164" lon="152.8894529">
<ele>379.715</ele>
<time>2015-12-18T01:56:54.677Z</time>
</trkpt>
<trkpt lat="-26.7444952" lon="152.8896662">
<ele>379.124</ele>
<time>2015-12-18T01:56:56.627Z</time>
</trkpt>
<trkpt lat="-26.7442015" lon="152.8899404">
<ele>378.606</ele>
<time>2015-12-18T01:56:58.620Z</time>
</trkpt>
<trkpt lat="-26.7438562" lon="152.8904726">
<ele>377.758</ele>
<time>2015-12-18T01:57:01.634Z</time>
</trkpt>
<trkpt lat="-26.7436298" lon="152.8911026">
<ele>376.825</ele>
<time>2015-12-18T01:57:04.660Z</time>
</trkpt>
<trkpt lat="-26.7434415" lon="152.8917560">
<ele>375.550</ele>
<time>2015-12-18T01:57:07.624Z</time>
</trkpt>
<trkpt lat="-26.7431671" lon="152.8924405">
<ele>372.415</ele>
<time>2015-12-18T01:57:10.711Z</time>
</trkpt>
<trkpt lat="-26.7429226" lon="152.8928787">
<ele>366.934</ele>
<time>2015-12-18T01:57:12.730Z</time>
</trkpt>
<trkpt lat="-26.7426395" lon="152.8932862">
<ele>361.339</ele>
<time>2015-12-18T01:57:14.728Z</time>
</trkpt>
<trkpt lat="-26.7423472" lon="152.8936600">
<ele>357.975</ele>
<time>2015-12-18T01:57:16.677Z</time>
</trkpt>
<trkpt lat="-26.7418839" lon="152.8942238">
<ele>357.537</ele>
<time>2015-12-18T01:57:19.750Z</time>
</trkpt>
<trkpt lat="-26.7416076" lon="152.8945558">
<ele>360.462</ele>
<time>2015-12-18T01:57:21.680Z</time>
</trkpt>
<trkpt lat="-26.7413761" lon="152.8948994">
<ele>365.753</ele>
<time>2015-12-18T01:57:23.651Z</time>
</trkpt>
<trkpt lat="-26.7411197" lon="152.8954178">
<ele>370.514</ele>
<time>2015-12-18T01:57:26.569Z</time>
</trkpt>
<trkpt lat="-26.7409317" lon="152.8957126">
<ele>373.637</ele>
<time>2015-12-18T01:57:28.468Z</time>
</trkpt>
<trkpt lat="-26.7407286" lon="152.8959985">
<ele>376.199</ele>
<time>2015-12-18T01:57:30.436Z</time>
</trkpt>
<trkpt lat="-26.7403908" lon="152.8963947">
<ele>378.685</ele>
<time>2015-12-18T01:57:33.401Z</time>
</trkpt>
<trkpt lat="-26.7400666" lon="152.8968444">
<ele>381.331</ele>
<time>2015-12-18T01:57:36.421Z</time>
</trkpt>
<trkpt lat="-26.7398808" lon="152.8971684">
<ele>384.167</ele>
<time>2015-12-18T01:57:38.390Z</time>
</trkpt>
<trkpt lat="-26.7396876" lon="152.8974957">
<ele>386.352</ele>
<time>2015-12-18T01:57:40.427Z</time>
</trkpt>
<trkpt lat="-26.7393669" lon="152.8979266">
<ele>387.151</ele>
<time>2015-12-18T01:57:43.339Z</time>
</trkpt>
<trkpt lat="-26.7391302" lon="152.8982206">
<ele>386.766</ele>
<time>2015-12-18T01:57:45.330Z</time>
</trkpt>
<trkpt lat="-26.7388730" lon="152.8984929">
<ele>385.796</ele>
<time>2015-12-18T01:57:47.283Z</time>
</trkpt>
<trkpt lat="-26.7385865" lon="152.8987558">
<ele>384.528</ele>
<time>2015-12-18T01:57:49.300Z</time>
</trkpt>
<trkpt lat="-26.7382808" lon="152.8989827">
<ele>382.718</ele>
<time>2015-12-18T01:57:51.281Z</time>
</trkpt>
<trkpt lat="-26.7379793" lon="152.8992047">
<ele>380.399</ele>
<time>2015-12-18T01:57:53.240Z</time>
</trkpt>
<trkpt lat="-26.7376677" lon="152.8994267">
<ele>378.148</ele>
<time>2015-12-18T01:57:55.250Z</time>
</trkpt>
<trkpt lat="-26.7371937" lon="152.8997636">
<ele>376.507</ele>
<time>2015-12-18T01:57:58.299Z</time>
</trkpt>
<trkpt lat="-26.7368881" lon="152.8999719">
<ele>375.682</ele>
<time>2015-12-18T01:58:00.255Z</time>
</trkpt>
<trkpt lat="-26.7365796" lon="152.9001741">
<ele>375.909</ele>
<time>2015-12-18T01:58:02.227Z</time>
</trkpt>
<trkpt lat="-26.7361065" lon="152.9004878">
<ele>377.349</ele>
<time>2015-12-18T01:58:05.254Z</time>
</trkpt>
<trkpt lat="-26.7358163" lon="152.9006984">
<ele>380.057</ele>
<time>2015-12-18T01:58:07.170Z</time>
</trkpt>
<trkpt lat="-26.7353782" lon="152.9010147">
<ele>383.328</ele>
<time>2015-12-18T01:58:10.087Z</time>
</trkpt>
<trkpt lat="-26.7349022" lon="152.9013515">
<ele>385.955</ele>
<time>2015-12-18T01:58:13.203Z</time>
</trkpt>
<trkpt lat="-26.7345766" lon="152.9015247">
<ele>387.418</ele>
<time>2015-12-18T01:58:15.204Z</time>
</trkpt>
<trkpt lat="-26.7340758" lon="152.9017341">
<ele>387.830</ele>
<time>2015-12-18T01:58:18.215Z</time>
</trkpt>
<trkpt lat="-26.7337212" lon="152.9018455">
<ele>387.294</ele>
<time>2015-12-18T01:58:20.272Z</time>
</trkpt>
<trkpt lat="-26.7333628" lon="152.9019196">
<ele>385.902</ele>
<time>2015-12-18T01:58:22.284Z</time>
</trkpt>
<trkpt lat="-26.7328167" lon="152.9019275">
<ele>383.698</ele>
<time>2015-12-18T01:58:25.275Z</time>
</trkpt>
<trkpt lat="-26.7322564" lon="152.9018630">
<ele>380.966</ele>
<time>2015-12-18T01:58:28.333Z</time>
</trkpt>
<trkpt lat="-26.7318947" lon="152.9017798">
<ele>377.856</ele>
<time>2015-12-18T01:58:30.349Z</time>
</trkpt>
<trkpt lat="-26.7315597" lon="152.9016617">
<ele>374.413</ele>
<time>2015-12-18T01:58:32.280Z</time>
</trkpt>
<trkpt lat="-26.7312394" lon="152.9014810">
<ele>371.271</ele>
<time>2015-12-18T01:58:34.240Z</time>
</trkpt>
<trkpt lat="-26.7307335" lon="152.9011873">
<ele>369.228</ele>
<time>2015-12-18T01:58:37.262Z</time>
</trkpt>
<trkpt lat="-26.7302066" lon="152.9008582">
<ele>368.472</ele>
<time>2015-12-18T01:58:40.344Z</time>
</trkpt>
<trkpt lat="-26.7298744" lon="152.9006282">
<ele>369.049</ele>
<time>2015-12-18T01:58:42.343Z</time>
</trkpt>
<trkpt lat="-26.7295559" lon="152.9004187">
<ele>370.764</ele>
<time>2015-12-18T01:58:44.305Z</time>
</trkpt>
<trkpt lat="-26.7292342" lon="152.9002397">
<ele>372.848</ele>
<time>2015-12-18T01:58:46.280Z</time>
</trkpt>
<trkpt lat="-26.7287425" lon="152.9000033">
<ele>374.681</ele>
<time>2015-12-18T01:58:49.272Z</time>
</trkpt>
<trkpt lat="-26.7284164" lon="152.8998794">
<ele>376.538</ele>
<time>2015-12-18T01:58:51.213Z</time>
</trkpt>
<trkpt lat="-26.7279077" lon="152.8997354">
<ele>378.518</ele>
<time>2015-12-18T01:58:54.223Z</time>
</trkpt>
<trkpt lat="-26.7275621" lon="152.8996768">
<ele>380.053</ele>
<time>2015-12-18T01:58:56.254Z</time>
</trkpt>
<trkpt lat="-26.7270588" lon="152.8996135">
<ele>380.673</ele>
<time>2015-12-18T01:58:59.194Z</time>
</trkpt>
<trkpt lat="-26.7267102" lon="152.8995655">
<ele>380.548</ele>
<time>2015-12-18T01:59:01.228Z</time>
</trkpt>
<trkpt lat="-26.7262091" lon="152.8995051">
<ele>379.695</ele>
<time>2015-12-18T01:59:04.132Z</time>
</trkpt>
<trkpt lat="-26.7256751" lon="152.8994440">
<ele>377.737</ele>
<time>2015-12-18T01:59:07.198Z</time>
</trkpt>
<trkpt lat="-26.7253262" lon="152.8994328">
<ele>374.119</ele>
<time>2015-12-18T01:59:09.181Z</time>
</trkpt>
<trkpt lat="-26.7247978" lon="152.8994536">
<ele>369.241</ele>
<time>2015-12-18T01:59:12.200Z</time>
</trkpt>
<trkpt lat="-26.7242384" lon="152.8995091">
<ele>364.063</ele>
<time>2015-12-18T01:59:15.335Z</time>
</trkpt>
<trkpt lat="-26.7236996" lon="152.8995173">
<ele>358.757</ele>
<time>2015-12-18T01:59:18.270Z</time>
</trkpt>
<trkpt lat="-26.7231460" lon="152.8994282">
<ele>353.069</ele>
<time>2015-12-18T01:59:21.264Z</time>
</trkpt>
<trkpt lat="-26.7225689" lon="152.8992303">
<ele>347.437</ele>
<time>2015-12-18T01:59:24.365Z</time>
</trkpt>
<trkpt lat="-26.7219948" lon="152.8990120">
<ele>342.788</ele>
<time>2015-12-18T01:59:27.403Z</time>
</trkpt>
<trkpt lat="-26.7214403" lon="152.8988060">
<ele>340.005</ele>
<time>2015-12-18T01:59:30.352Z</time>
</trkpt>
<trkpt lat="-26.7210757" lon="152.8986631">
<ele>339.489</ele>
<time>2015-12-18T01:59:32.345Z</time>
</trkpt>
<trkpt lat="-26.7205471" lon="152.8984816">
<ele>340.849</ele>
<time>2015-12-18T01:59:35.300Z</time>
</trkpt>
<trkpt lat="-26.7200428" lon="152.8983227">
<ele>343.239</ele>
<time>2015-12-18T01:59:38.212Z</time>
</trkpt>
<trkpt lat="-26.7196933" lon="152.8982400">
<ele>345.699</ele>
<time>2015-12-18T01:59:40.206Z</time>
</trkpt>
<trkpt lat="-26.7191572" lon="152.8982140">
<ele>347.359</ele>
<time>2015-12-18T01:59:43.153Z</time>
</trkpt>
<trkpt lat="-26.7185956" lon="152.8982847">
<ele>347.904</ele>
<time>2015-12-18T01:59:46.250Z</time>
</trkpt>
<trkpt lat="-26.7182429" lon="152.8983809">
<ele>347.967</ele>
<time>2015-12-18T01:59:48.259Z</time>
</trkpt>
<trkpt lat="-26.7179153" lon="152.8985151">
<ele>348.232</ele>
<time>2015-12-18T01:59:50.252Z</time>
</trkpt>
<trkpt lat="-26.7174785" lon="152.8987436">
<ele>349.068</ele>
<time>2015-12-18T01:59:53.186Z</time>
</trkpt>
<trkpt lat="-26.7171956" lon="152.8989009">
<ele>350.761</ele>
<time>2015-12-18T01:59:55.181Z</time>
</trkpt>
<trkpt lat="-26.7167482" lon="152.8991028">
<ele>353.408</ele>
<time>2015-12-18T01:59:58.210Z</time>
</trkpt>
<trkpt lat="-26.7164368" lon="152.8992122">
<ele>356.681</ele>
<time>2015-12-18T02:00:00.263Z</time>
</trkpt>
<trkpt lat="-26.7161352" lon="152.8992894">
<ele>359.903</ele>
<time>2015-12-18T02:00:02.194Z</time>
</trkpt>
<trkpt lat="-26.7158107" lon="152.8993895">
<ele>362.394</ele>
<time>2015-12-18T02:00:04.269Z</time>
</trkpt>
<trkpt lat="-26.7153666" lon="152.8995869">
<ele>363.891</ele>
<time>2015-12-18T02:00:07.241Z</time>
</trkpt>
<trkpt lat="-26.7150815" lon="152.8997171">
<ele>364.483</ele>
<time>2015-12-18T02:00:09.197Z</time>
</trkpt>
<trkpt lat="-26.7146301" lon="152.8998238">
<ele>364.296</ele>
<time>2015-12-18T02:00:12.183Z</time>
</trkpt>
<trkpt lat="-26.7142021" lon="152.8996992">
<ele>363.340</ele>
<time>2015-12-18T02:00:15.148Z</time>
</trkpt>
<trkpt lat="-26.7138401" lon="152.8994135">
<ele>361.896</ele>
<time>2015-12-18T02:00:18.142Z</time>
</trkpt>
<trkpt lat="-26.7136469" lon="152.8991433">
<ele>360.733</ele>
<time>2015-12-18T02:00:20.143Z</time>
</trkpt>
<trkpt lat="-26.7133406" lon="152.8987260">
<ele>360.677</ele>
<time>2015-12-18T02:00:23.163Z</time>
</trkpt>
<trkpt lat="-26.7131532" lon="152.8984633">
<ele>362.607</ele>
<time>2015-12-18T02:00:25.059Z</time>
</trkpt>
<trkpt lat="-26.7129765" lon="152.8982254">
<ele>366.288</ele>
<time>2015-12-18T02:00:26.899Z</time>
</trkpt>
<trkpt lat="-26.7126609" lon="152.8979733">
<ele>369.938</ele>
<time>2015-12-18T02:00:29.746Z</time>
</trkpt>
<trkpt lat="-26.7124038" lon="152.8979445">
<ele>372.682</ele>
<time>2015-12-18T02:00:31.784Z</time>
</trkpt>
<trkpt lat="-26.7121507" lon="152.8980005">
<ele>375.202</ele>
<time>2015-12-18T02:00:33.819Z</time>
</trkpt>
<trkpt lat="-26.7117071" lon="152.8981760">
<ele>377.998</ele>
<time>2015-12-18T02:00:37.202Z</time>
</trkpt>
<trkpt lat="-26.7114365" lon="152.8982692">
<ele>380.812</ele>
<time>2015-12-18T02:00:39.146Z</time>
</trkpt>
<trkpt lat="-26.7110047" lon="152.8984018">
<ele>382.993</ele>
<time>2015-12-18T02:00:42.251Z</time>
</trkpt>
<trkpt lat="-26.7105536" lon="152.8985423">
<ele>384.136</ele>
<time>2015-12-18T02:00:45.352Z</time>
</trkpt>
<trkpt lat="-26.7102512" lon="152.8986616">
<ele>384.221</ele>
<time>2015-12-18T02:00:47.388Z</time>
</trkpt>
<trkpt lat="-26.7098331" lon="152.8988995">
<ele>383.289</ele>
<time>2015-12-18T02:00:50.326Z</time>
</trkpt>
<trkpt lat="-26.7095740" lon="152.8990894">
<ele>381.651</ele>
<time>2015-12-18T02:00:52.258Z</time>
</trkpt>
<trkpt lat="-26.7092873" lon="152.8992821">
<ele>380.067</ele>
<time>2015-12-18T02:00:54.301Z</time>
</trkpt>
<trkpt lat="-26.7088774" lon="152.8995751">
<ele>379.225</ele>
<time>2015-12-18T02:00:57.263Z</time>
</trkpt>
<trkpt lat="-26.7085892" lon="152.8997301">
<ele>379.166</ele>
<time>2015-12-18T02:00:59.231Z</time>
</trkpt>
<trkpt lat="-26.7081248" lon="152.8999542">
<ele>379.212</ele>
<time>2015-12-18T02:01:02.289Z</time>
</trkpt>
<trkpt lat="-26.7077434" lon="152.9000634">
<ele>378.545</ele>
<time>2015-12-18T02:01:04.560Z</time>
</trkpt>
<trkpt lat="-26.7072793" lon="152.9001207">
<ele>376.846</ele>
<time>2015-12-18T02:01:07.311Z</time>
</trkpt>
<trkpt lat="-26.7069840" lon="152.9001675">
<ele>374.201</ele>
<time>2015-12-18T02:01:09.212Z</time>
</trkpt>
<trkpt lat="-26.7065692" lon="152.9003025">
<ele>371.311</ele>
<time>2015-12-18T02:01:12.073Z</time>
</trkpt>
<trkpt lat="-26.7063012" lon="152.9004530">
<ele>369.518</ele>
<time>2015-12-18T02:01:14.061Z</time>
</trkpt>
<trkpt lat="-26.7060404" lon="152.9006437">
<ele>369.536</ele>
<time>2015-12-18T02:01:16.064Z</time>
</trkpt>
<trkpt lat="-26.7056734" lon="152.9009283">
<ele>370.886</ele>
<time>2015-12-18T02:01:18.923Z</time>
</trkpt>
<trkpt lat="-26.7054216" lon="152.9011054">
<ele>372.710</ele>
<time>2015-12-18T02:01:20.896Z</time>
</trkpt>
<trkpt lat="-26.7050732" lon="152.9013821">
<ele>374.208</ele>
<time>2015-12-18T02:01:23.851Z</time>
</trkpt>
<trkpt lat="-26.7047036" lon="152.9016513">
<ele>374.884</ele>
<time>2015-12-18T02:01:26.895Z</time>
</trkpt>
<trkpt lat="-26.7044587" lon="152.9018322">
<ele>374.807</ele>
<time>2015-12-18T02:01:28.878Z</time>
</trkpt>
<trkpt lat="-26.7041072" lon="152.9021366">
<ele>374.466</ele>
<time>2015-12-18T02:01:31.889Z</time>
</trkpt>
<trkpt lat="-26.7039078" lon="152.9023623">
<ele>374.473</ele>
<time>2015-12-18T02:01:33.818Z</time>
</trkpt>
<trkpt lat="-26.7036619" lon="152.9027715">
<ele>375.051</ele>
<time>2015-12-18T02:01:36.807Z</time>
</trkpt>
<trkpt lat="-26.7034340" lon="152.9032097">
<ele>376.058</ele>
<time>2015-12-18T02:01:39.852Z</time>
</trkpt>
<trkpt lat="-26.7032584" lon="152.9034357">
<ele>377.732</ele>
<time>2015-12-18T02:01:41.732Z</time>
</trkpt>
<trkpt lat="-26.7029298" lon="152.9036751">
<ele>380.074</ele>
<time>2015-12-18T02:01:44.655Z</time>
</trkpt>
<trkpt lat="-26.7025645" lon="152.9038202">
<ele>382.265</ele>
<time>2015-12-18T02:01:47.570Z</time>
</trkpt>
<trkpt lat="-26.7021503" lon="152.9038810">
<ele>383.668</ele>
<time>2015-12-18T02:01:50.657Z</time>
</trkpt>
<trkpt lat="-26.7017500" lon="152.9040596">
<ele>384.186</ele>
<time>2015-12-18T02:01:53.738Z</time>
</trkpt>
<trkpt lat="-26.7014771" lon="152.9042022">
<ele>383.551</ele>
<time>2015-12-18T02:01:55.799Z</time>
</trkpt>
<trkpt lat="-26.7010581" lon="152.9044304">
<ele>381.524</ele>
<time>2015-12-18T02:01:58.833Z</time>
</trkpt>
<trkpt lat="-26.7007616" lon="152.9045705">
<ele>378.358</ele>
<time>2015-12-18T02:02:00.858Z</time>
</trkpt>
<trkpt lat="-26.7004668" lon="152.9047228">
<ele>375.037</ele>
<time>2015-12-18T02:02:02.873Z</time>
</trkpt>
<trkpt lat="-26.6999997" lon="152.9048865">
<ele>372.736</ele>
<time>2015-12-18T02:02:05.878Z</time>
</trkpt>
<trkpt lat="-26.6997090" lon="152.9049347">
<ele>372.285</ele>
<time>2015-12-18T02:02:07.715Z</time>
</trkpt>
<trkpt lat="-26.6994149" lon="152.9048955">
<ele>373.731</ele>
<time>2015-12-18T02:02:09.666Z</time>
</trkpt>
<trkpt lat="-26.6991165" lon="152.9048603">
<ele>376.425</ele>
<time>2015-12-18T02:02:11.698Z</time>
</trkpt>
<trkpt lat="-26.6987056" lon="152.9048034">
<ele>379.625</ele>
<time>2015-12-18T02:02:14.544Z</time>
</trkpt>
<trkpt lat="-26.6984420" lon="152.9047585">
<ele>382.755</ele>
<time>2015-12-18T02:02:16.443Z</time>
</trkpt>
<trkpt lat="-26.6980623" lon="152.9046919">
<ele>385.056</ele>
<time>2015-12-18T02:02:19.332Z</time>
</trkpt>
<trkpt lat="-26.6976862" lon="152.9046252">
<ele>385.846</ele>
<time>2015-12-18T02:02:22.332Z</time>
</trkpt>
<trkpt lat="-26.6974111" lon="152.9045598">
<ele>384.976</ele>
<time>2015-12-18T02:02:24.557Z</time>
</trkpt>
<trkpt lat="-26.6971307" lon="152.9042507">
<ele>382.915</ele>
<time>2015-12-18T02:02:27.557Z</time>
</trkpt>
<trkpt lat="-26.6970019" lon="152.9040204">
<ele>380.291</ele>
<time>2015-12-18T02:02:29.384Z</time>
</trkpt>
<trkpt lat="-26.6969049" lon="152.9037460">
<ele>377.544</ele>
<time>2015-12-18T02:02:31.385Z</time>
</trkpt>
<trkpt lat="-26.6967602" lon="152.9033160">
<ele>375.271</ele>
<time>2015-12-18T02:02:34.470Z</time>
</trkpt>
<trkpt lat="-26.6966494" lon="152.9030126">
<ele>374.140</ele>
<time>2015-12-18T02:02:36.577Z</time>
</trkpt>
<trkpt lat="-26.6965091" lon="152.9027554">
<ele>374.187</ele>
<time>2015-12-18T02:02:38.470Z</time>
</trkpt>
<trkpt lat="-26.6962568" lon="152.9023640">
<ele>374.944</ele>
<time>2015-12-18T02:02:41.494Z</time>
</trkpt>
<trkpt lat="-26.6960413" lon="152.9021327">
<ele>376.060</ele>
<time>2015-12-18T02:02:43.548Z</time>
</trkpt>
<trkpt lat="-26.6958048" lon="152.9018936">
<ele>377.180</ele>
<time>2015-12-18T02:02:45.680Z</time>
</trkpt>
<trkpt lat="-26.6955318" lon="152.9014768">
<ele>377.916</ele>
<time>2015-12-18T02:02:48.668Z</time>
</trkpt>
<trkpt lat="-26.6953836" lon="152.9011589">
<ele>378.203</ele>
<time>2015-12-18T02:02:50.697Z</time>
</trkpt>
<trkpt lat="-26.6951725" lon="152.9006773">
<ele>378.217</ele>
<time>2015-12-18T02:02:53.704Z</time>
</trkpt>
<trkpt lat="-26.6950425" lon="152.9003765">
<ele>378.126</ele>
<time>2015-12-18T02:02:55.617Z</time>
</trkpt>
<trkpt lat="-26.6948817" lon="152.8999780">
<ele>378.133</ele>
<time>2015-12-18T02:02:58.355Z</time>
</trkpt>
<trkpt lat="-26.6946876" lon="152.8996065">
<ele>378.442</ele>
<time>2015-12-18T02:03:01.258Z</time>
</trkpt>
<trkpt lat="-26.6945484" lon="152.8993236">
<ele>379.420</ele>
<time>2015-12-18T02:03:03.425Z</time>
</trkpt>
<trkpt lat="-26.6943459" lon="152.8988859">
<ele>381.343</ele>
<time>2015-12-18T02:03:06.576Z</time>
</trkpt>
<trkpt lat="-26.6941702" lon="152.8984922">
<ele>383.890</ele>
<time>2015-12-18T02:03:09.466Z</time>
</trkpt>
<trkpt lat="-26.6940468" lon="152.8982606">
<ele>386.180</ele>
<time>2015-12-18T02:03:11.304Z</time>
</trkpt>
<trkpt lat="-26.6939330" lon="152.8979871">
<ele>387.467</ele>
<time>2015-12-18T02:03:13.367Z</time>
</trkpt>
<trkpt lat="-26.6938261" lon="152.8977209">
<ele>387.556</ele>
<time>2015-12-18T02:03:15.337Z</time>
</trkpt>
<trkpt lat="-26.6937144" lon="152.8974438">
<ele>386.610</ele>
<time>2015-12-18T02:03:17.356Z</time>
</trkpt>
<trkpt lat="-26.6936114" lon="152.8969888">
<ele>384.878</ele>
<time>2015-12-18T02:03:20.419Z</time>
</trkpt>
<trkpt lat="-26.6934869" lon="152.8965589">
<ele>382.523</ele>
<time>2015-12-18T02:03:23.409Z</time>
</trkpt>
<trkpt lat="-26.6933559" lon="152.8963178">
<ele>379.998</ele>
<time>2015-12-18T02:03:25.340Z</time>
</trkpt>
<trkpt lat="-26.6931191" lon="152.8959963">
<ele>378.350</ele>
<time>2015-12-18T02:03:28.258Z</time>
</trkpt>
<trkpt lat="-26.6928308" lon="152.8957066">
<ele>378.265</ele>
<time>2015-12-18T02:03:31.304Z</time>
</trkpt>
<trkpt lat="-26.6926521" lon="152.8955363">
<ele>379.522</ele>
<time>2015-12-18T02:03:33.191Z</time>
</trkpt>
<trkpt lat="-26.6925081" lon="152.8953962">
<ele>381.315</ele>
<time>2015-12-18T02:03:34.853Z</time>
</trkpt>
<trkpt lat="-26.6924934" lon="152.8952087">
<ele>382.423</ele>
<time>2015-12-18T02:03:36.603Z</time>
</trkpt>
<trkpt lat="-26.6925699" lon="152.8950686">
<ele>382.358</ele>
<time>2015-12-18T02:03:38.611Z</time>
</trkpt>
<trkpt lat="-26.6926550" lon="152.8948817">
<ele>382.081</ele>
<time>2015-12-18T02:03:41.480Z</time>
</trkpt>
<trkpt lat="-26.6927756" lon="152.8944574">
<ele>382.892</ele>
<time>2015-12-18T02:03:45.500Z</time>
</trkpt>
<trkpt lat="-26.6929127" lon="152.8939597">
<ele>385.183</ele>
<time>2015-12-18T02:03:48.870Z</time>
</trkpt>
<trkpt lat="-26.6929818" lon="152.8936247">
<ele>388.495</ele>
<time>2015-12-18T02:03:50.865Z</time>
</trkpt>
<trkpt lat="-26.6931088" lon="152.8931057">
<ele>391.972</ele>
<time>2015-12-18T02:03:53.922Z</time>
</trkpt>
<trkpt lat="-26.6932118" lon="152.8927779">
<ele>395.025</ele>
<time>2015-12-18T02:03:55.878Z</time>
</trkpt>
<trkpt lat="-26.6933278" lon="152.8922957">
<ele>397.365</ele>
<time>2015-12-18T02:03:58.778Z</time>
</trkpt>
<trkpt lat="-26.6934218" lon="152.8918596">
<ele>398.518</ele>
<time>2015-12-18T02:04:01.592Z</time>
</trkpt>
<trkpt lat="-26.6933776" lon="152.8913923">
<ele>398.194</ele>
<time>2015-12-18T02:04:04.609Z</time>
</trkpt>
<trkpt lat="-26.6932875" lon="152.8908940">
<ele>396.885</ele>
<time>2015-12-18T02:04:07.699Z</time>
</trkpt>
<trkpt lat="-26.6932364" lon="152.8903910">
<ele>395.105</ele>
<time>2015-12-18T02:04:10.680Z</time>
</trkpt>
<trkpt lat="-26.6933194" lon="152.8899061">
<ele>393.305</ele>
<time>2015-12-18T02:04:13.642Z</time>
</trkpt>
<trkpt lat="-26.6934305" lon="152.8895976">
<ele>392.450</ele>
<time>2015-12-18T02:04:15.674Z</time>
</trkpt>
<trkpt lat="-26.6934761" lon="152.8892580">
<ele>393.178</ele>
<time>2015-12-18T02:04:17.774Z</time>
</trkpt>
<trkpt lat="-26.6934676" lon="152.8887245">
<ele>394.715</ele>
<time>2015-12-18T02:04:20.970Z</time>
</trkpt>
<trkpt lat="-26.6934464" lon="152.8883984">
<ele>395.886</ele>
<time>2015-12-18T02:04:22.916Z</time>
</trkpt>
<trkpt lat="-26.6934163" lon="152.8879222">
<ele>396.373</ele>
<time>2015-12-18T02:04:25.818Z</time>
</trkpt>
<trkpt lat="-26.6932639" lon="152.8874642">
<ele>396.436</ele>
<time>2015-12-18T02:04:28.820Z</time>
</trkpt>
<trkpt lat="-26.6930968" lon="152.8871954">
<ele>396.478</ele>
<time>2015-12-18T02:04:30.794Z</time>
</trkpt>
<trkpt lat="-26.6928136" lon="152.8867986">
<ele>396.759</ele>
<time>2015-12-18T02:04:33.771Z</time>
</trkpt>
<trkpt lat="-26.6926010" lon="152.8865364">
<ele>397.422</ele>
<time>2015-12-18T02:04:35.822Z</time>
</trkpt>
<trkpt lat="-26.6923272" lon="152.8861303">
<ele>398.674</ele>
<time>2015-12-18T02:04:38.751Z</time>
</trkpt>
<trkpt lat="-26.6921619" lon="152.8858375">
<ele>400.513</ele>
<time>2015-12-18T02:04:40.740Z</time>
</trkpt>
<trkpt lat="-26.6920233" lon="152.8855559">
<ele>402.323</ele>
<time>2015-12-18T02:04:42.598Z</time>
</trkpt>
<trkpt lat="-26.6918813" lon="152.8852604">
<ele>403.335</ele>
<time>2015-12-18T02:04:44.565Z</time>
</trkpt>
<trkpt lat="-26.6916683" lon="152.8848250">
<ele>403.395</ele>
<time>2015-12-18T02:04:47.515Z</time>
</trkpt>
<trkpt lat="-26.6915135" lon="152.8845334">
<ele>403.049</ele>
<time>2015-12-18T02:04:49.533Z</time>
</trkpt>
<trkpt lat="-26.6913568" lon="152.8842283">
<ele>402.766</ele>
<time>2015-12-18T02:04:51.599Z</time>
</trkpt>
<trkpt lat="-26.6911914" lon="152.8839216">
<ele>402.649</ele>
<time>2015-12-18T02:04:53.665Z</time>
</trkpt>
<trkpt lat="-26.6909918" lon="152.8834460">
<ele>402.554</ele>
<time>2015-12-18T02:04:56.660Z</time>
</trkpt>
<trkpt lat="-26.6909688" lon="152.8831196">
<ele>402.191</ele>
<time>2015-12-18T02:04:58.568Z</time>
</trkpt>
<trkpt lat="-26.6909203" lon="152.8828004">
<ele>401.507</ele>
<time>2015-12-18T02:05:00.529Z</time>
</trkpt>
<trkpt lat="-26.6907426" lon="152.8823610">
<ele>400.752</ele>
<time>2015-12-18T02:05:03.504Z</time>
</trkpt>
<trkpt lat="-26.6905507" lon="152.8821341">
<ele>400.162</ele>
<time>2015-12-18T02:05:05.418Z</time>
</trkpt>
<trkpt lat="-26.6903140" lon="152.8818915">
<ele>400.170</ele>
<time>2015-12-18T02:05:07.560Z</time>
</trkpt>
<trkpt lat="-26.6900522" lon="152.8816391">
<ele>400.954</ele>
<time>2015-12-18T02:05:09.740Z</time>
</trkpt>
<trkpt lat="-26.6897919" lon="152.8813917">
<ele>401.868</ele>
<time>2015-12-18T02:05:11.812Z</time>
</trkpt>
<trkpt lat="-26.6894570" lon="152.8809977">
<ele>402.312</ele>
<time>2015-12-18T02:05:14.775Z</time>
</trkpt>
<trkpt lat="-26.6893295" lon="152.8806739">
<ele>402.043</ele>
<time>2015-12-18T02:05:16.731Z</time>
</trkpt>
<trkpt lat="-26.6892524" lon="152.8801560">
<ele>400.984</ele>
<time>2015-12-18T02:05:19.690Z</time>
</trkpt>
<trkpt lat="-26.6890623" lon="152.8796981">
<ele>399.643</ele>
<time>2015-12-18T02:05:22.648Z</time>
</trkpt>
<trkpt lat="-26.6888338" lon="152.8794567">
<ele>398.704</ele>
<time>2015-12-18T02:05:24.717Z</time>
</trkpt>
<trkpt lat="-26.6884607" lon="152.8791212">
<ele>398.409</ele>
<time>2015-12-18T02:05:27.772Z</time>
</trkpt>
<trkpt lat="-26.6882075" lon="152.8788896">
<ele>398.594</ele>
<time>2015-12-18T02:05:29.817Z</time>
</trkpt>
<trkpt lat="-26.6878343" lon="152.8785601">
<ele>398.816</ele>
<time>2015-12-18T02:05:32.782Z</time>
</trkpt>
<trkpt lat="-26.6875379" lon="152.8781968">
<ele>398.785</ele>
<time>2015-12-18T02:05:35.626Z</time>
</trkpt>
<trkpt lat="-26.6873891" lon="152.8779046">
<ele>398.617</ele>
<time>2015-12-18T02:05:37.608Z</time>
</trkpt>
<trkpt lat="-26.6872024" lon="152.8774790">
<ele>398.552</ele>
<time>2015-12-18T02:05:40.431Z</time>
</trkpt>
<trkpt lat="-26.6868890" lon="152.8770968">
<ele>398.774</ele>
<time>2015-12-18T02:05:43.529Z</time>
</trkpt>
<trkpt lat="-26.6865362" lon="152.8767462">
<ele>399.468</ele>
<time>2015-12-18T02:05:46.582Z</time>
</trkpt>
<trkpt lat="-26.6862963" lon="152.8764856">
<ele>400.791</ele>
<time>2015-12-18T02:05:48.672Z</time>
</trkpt>
<trkpt lat="-26.6859583" lon="152.8761368">
<ele>402.580</ele>
<time>2015-12-18T02:05:51.561Z</time>
</trkpt>
<trkpt lat="-26.6857289" lon="152.8759033">
<ele>404.177</ele>
<time>2015-12-18T02:05:53.552Z</time>
</trkpt>
<trkpt lat="-26.6853718" lon="152.8755462">
<ele>405.045</ele>
<time>2015-12-18T02:05:56.616Z</time>
</trkpt>
<trkpt lat="-26.6851353" lon="152.8752967">
<ele>405.647</ele>
<time>2015-12-18T02:05:58.671Z</time>
</trkpt>
<trkpt lat="-26.6849252" lon="152.8748437">
<ele>406.745</ele>
<time>2015-12-18T02:06:01.613Z</time>
</trkpt>
<trkpt lat="-26.6847499" lon="152.8745766">
<ele>408.387</ele>
<time>2015-12-18T02:06:03.587Z</time>
</trkpt>
<trkpt lat="-26.6845027" lon="152.8743823">
<ele>410.432</ele>
<time>2015-12-18T02:06:05.629Z</time>
</trkpt>
<trkpt lat="-26.6841875" lon="152.8742681">
<ele>412.704</ele>
<time>2015-12-18T02:06:07.826Z</time>
</trkpt>
<trkpt lat="-26.6837907" lon="152.8740944">
<ele>414.621</ele>
<time>2015-12-18T02:06:10.626Z</time>
</trkpt>
<trkpt lat="-26.6835617" lon="152.8738882">
<ele>415.770</ele>
<time>2015-12-18T02:06:12.567Z</time>
</trkpt>
<trkpt lat="-26.6833440" lon="152.8736432">
<ele>416.108</ele>
<time>2015-12-18T02:06:14.575Z</time>
</trkpt>
<trkpt lat="-26.6831130" lon="152.8733876">
<ele>415.541</ele>
<time>2015-12-18T02:06:16.637Z</time>
</trkpt>
<trkpt lat="-26.6827916" lon="152.8730068">
<ele>414.134</ele>
<time>2015-12-18T02:06:19.604Z</time>
</trkpt>
<trkpt lat="-26.6825859" lon="152.8725496">
<ele>412.280</ele>
<time>2015-12-18T02:06:22.554Z</time>
</trkpt>
<trkpt lat="-26.6824910" lon="152.8720585">
<ele>410.593</ele>
<time>2015-12-18T02:06:25.478Z</time>
</trkpt>
<trkpt lat="-26.6824190" lon="152.8715527">
<ele>409.542</ele>
<time>2015-12-18T02:06:28.489Z</time>
</trkpt>
<trkpt lat="-26.6823706" lon="152.8712115">
<ele>409.005</ele>
<time>2015-12-18T02:06:30.529Z</time>
</trkpt>
<trkpt lat="-26.6822858" lon="152.8707168">
<ele>408.589</ele>
<time>2015-12-18T02:06:33.508Z</time>
</trkpt>
<trkpt lat="-26.6822224" lon="152.8703832">
<ele>407.847</ele>
<time>2015-12-18T02:06:35.522Z</time>
</trkpt>
<trkpt lat="-26.6821634" lon="152.8700446">
<ele>406.500</ele>
<time>2015-12-18T02:06:37.540Z</time>
</trkpt>
<trkpt lat="-26.6821231" lon="152.8696976">
<ele>404.885</ele>
<time>2015-12-18T02:06:39.561Z</time>
</trkpt>
<trkpt lat="-26.6820575" lon="152.8692136">
<ele>403.369</ele>
<time>2015-12-18T02:06:42.423Z</time>
</trkpt>
<trkpt lat="-26.6819365" lon="152.8689091">
<ele>401.646</ele>
<time>2015-12-18T02:06:44.426Z</time>
</trkpt>
<trkpt lat="-26.6818178" lon="152.8686473">
<ele>399.780</ele>
<time>2015-12-18T02:06:46.254Z</time>
</trkpt>
<trkpt lat="-26.6816580" lon="152.8682728">
<ele>398.460</ele>
<time>2015-12-18T02:06:49.067Z</time>
</trkpt>
<trkpt lat="-26.6815744" lon="152.8680408">
<ele>397.996</ele>
<time>2015-12-18T02:06:50.896Z</time>
</trkpt>
<trkpt lat="-26.6815107" lon="152.8677480">
<ele>397.802</ele>
<time>2015-12-18T02:06:53.447Z</time>
</trkpt>
<trkpt lat="-26.6815905" lon="152.8675955">
<ele>396.943</ele>
<time>2015-12-18T02:06:55.075Z</time>
</trkpt>
<trkpt lat="-26.6817126" lon="152.8675722">
<ele>395.235</ele>
<time>2015-12-18T02:06:56.924Z</time>
</trkpt>
<trkpt lat="-26.6819984" lon="152.8675307">
<ele>393.432</ele>
<time>2015-12-18T02:07:01.255Z</time>
</trkpt>
<trkpt lat="-26.6822359" lon="152.8674780">
<ele>391.656</ele>
<time>2015-12-18T02:07:03.909Z</time>
</trkpt>
<trkpt lat="-26.6825164" lon="152.8674202">
<ele>389.323</ele>
<time>2015-12-18T02:07:06.263Z</time>
</trkpt>
<trkpt lat="-26.6829331" lon="152.8673234">
<ele>386.293</ele>
<time>2015-12-18T02:07:09.317Z</time>
</trkpt>
<trkpt lat="-26.6833772" lon="152.8672485">
<ele>382.042</ele>
<time>2015-12-18T02:07:12.434Z</time>
</trkpt>
<trkpt lat="-26.6837703" lon="152.8671426">
<ele>376.169</ele>
<time>2015-12-18T02:07:15.282Z</time>
</trkpt>
<trkpt lat="-26.6841379" lon="152.8669277">
<ele>369.250</ele>
<time>2015-12-18T02:07:18.265Z</time>
</trkpt>
<trkpt lat="-26.6843711" lon="152.8666561">
<ele>361.691</ele>
<time>2015-12-18T02:07:20.635Z</time>
</trkpt>
<trkpt lat="-26.6846438" lon="152.8665221">
<ele>353.738</ele>
<time>2015-12-18T02:07:22.639Z</time>
</trkpt>
<trkpt lat="-26.6849515" lon="152.8663829">
<ele>346.142</ele>
<time>2015-12-18T02:07:24.796Z</time>
</trkpt>
<trkpt lat="-26.6852116" lon="152.8662463">
<ele>339.419</ele>
<time>2015-12-18T02:07:26.648Z</time>
</trkpt>
<trkpt lat="-26.6856312" lon="152.8660294">
<ele>333.449</ele>
<time>2015-12-18T02:07:29.660Z</time>
</trkpt>
<trkpt lat="-26.6859271" lon="152.8659062">
<ele>327.223</ele>
<time>2015-12-18T02:07:31.682Z</time>
</trkpt>
<trkpt lat="-26.6863024" lon="152.8658392">
<ele>319.908</ele>
<time>2015-12-18T02:07:34.148Z</time>
</trkpt>
<trkpt lat="-26.6866039" lon="152.8658344">
<ele>311.769</ele>
<time>2015-12-18T02:07:36.148Z</time>
</trkpt>
<trkpt lat="-26.6869159" lon="152.8659013">
<ele>303.973</ele>
<time>2015-12-18T02:07:38.275Z</time>
</trkpt>
<trkpt lat="-26.6873897" lon="152.8659308">
<ele>297.910</ele>
<time>2015-12-18T02:07:41.344Z</time>
</trkpt>
<trkpt lat="-26.6877191" lon="152.8659205">
<ele>293.458</ele>
<time>2015-12-18T02:07:43.407Z</time>
</trkpt>
<trkpt lat="-26.6880276" lon="152.8659326">
<ele>289.164</ele>
<time>2015-12-18T02:07:45.337Z</time>
</trkpt>
<trkpt lat="-26.6885018" lon="152.8660052">
<ele>284.369</ele>
<time>2015-12-18T02:07:48.338Z</time>
</trkpt>
<trkpt lat="-26.6887924" lon="152.8661225">
<ele>279.004</ele>
<time>2015-12-18T02:07:50.267Z</time>
</trkpt>
<trkpt lat="-26.6890113" lon="152.8663054">
<ele>273.331</ele>
<time>2015-12-18T02:07:52.016Z</time>
</trkpt>
<trkpt lat="-26.6891717" lon="152.8668008">
<ele>268.072</ele>
<time>2015-12-18T02:07:55.127Z</time>
</trkpt>
<trkpt lat="-26.6892994" lon="152.8672090">
<ele>263.423</ele>
<time>2015-12-18T02:07:57.569Z</time>
</trkpt>
<trkpt lat="-26.6894778" lon="152.8677683">
<ele>259.499</ele>
<time>2015-12-18T02:08:00.615Z</time>
</trkpt>
<trkpt lat="-26.6896643" lon="152.8683070">
<ele>256.975</ele>
<time>2015-12-18T02:08:03.460Z</time>
</trkpt>
<trkpt lat="-26.6898528" lon="152.8687064">
<ele>256.268</ele>
<time>2015-12-18T02:08:05.651Z</time>
</trkpt>
<trkpt lat="-26.6900707" lon="152.8692062">
<ele>257.365</ele>
<time>2015-12-18T02:08:08.424Z</time>
</trkpt>
<trkpt lat="-26.6902491" lon="152.8694946">
<ele>260.061</ele>
<time>2015-12-18T02:08:10.258Z</time>
</trkpt>
<trkpt lat="-26.6906039" lon="152.8699173">
<ele>263.560</ele>
<time>2015-12-18T02:08:13.362Z</time>
</trkpt>
<trkpt lat="-26.6908755" lon="152.8701778">
<ele>266.805</ele>
<time>2015-12-18T02:08:15.446Z</time>
</trkpt>
<trkpt lat="-26.6911713" lon="152.8703669">
<ele>269.162</ele>
<time>2015-12-18T02:08:17.391Z</time>
</trkpt>
<trkpt lat="-26.6917195" lon="152.8705069">
<ele>270.451</ele>
<time>2015-12-18T02:08:20.553Z</time>
</trkpt>
<trkpt lat="-26.6920771" lon="152.8705805">
<ele>270.739</ele>
<time>2015-12-18T02:08:22.554Z</time>
</trkpt>
<trkpt lat="-26.6926016" lon="152.8706464">
<ele>269.954</ele>
<time>2015-12-18T02:08:25.496Z</time>
</trkpt>
<trkpt lat="-26.6929933" lon="152.8705849">
<ele>267.494</ele>
<time>2015-12-18T02:08:27.709Z</time>
</trkpt>
<trkpt lat="-26.6933585" lon="152.8704056">
<ele>263.341</ele>
<time>2015-12-18T02:08:29.860Z</time>
</trkpt>
<trkpt lat="-26.6939182" lon="152.8702382">
<ele>258.629</ele>
<time>2015-12-18T02:08:32.919Z</time>
</trkpt>
<trkpt lat="-26.6944532" lon="152.8700546">
<ele>254.468</ele>
<time>2015-12-18T02:08:35.860Z</time>
</trkpt>
<trkpt lat="-26.6950189" lon="152.8698793">
<ele>251.201</ele>
<time>2015-12-18T02:08:38.903Z</time>
</trkpt>
<trkpt lat="-26.6955607" lon="152.8697609">
<ele>248.381</ele>
<time>2015-12-18T02:08:41.767Z</time>
</trkpt>
<trkpt lat="-26.6959598" lon="152.8698400">
<ele>244.982</ele>
<time>2015-12-18T02:08:43.888Z</time>
</trkpt>
<trkpt lat="-26.6963692" lon="152.8701554">
<ele>240.790</ele>
<time>2015-12-18T02:08:46.626Z</time>
</trkpt>
<trkpt lat="-26.6967783" lon="152.8706045">
<ele>236.984</ele>
<time>2015-12-18T02:08:49.929Z</time>
</trkpt>
<trkpt lat="-26.6970536" lon="152.8707978">
<ele>233.771</ele>
<time>2015-12-18T02:08:51.802Z</time>
</trkpt>
<trkpt lat="-26.6975606" lon="152.8708513">
<ele>229.840</ele>
<time>2015-12-18T02:08:54.753Z</time>
</trkpt>
<trkpt lat="-26.6978988" lon="152.8707726">
<ele>224.553</ele>
<time>2015-12-18T02:08:56.773Z</time>
</trkpt>
<trkpt lat="-26.6983153" lon="152.8704602">
<ele>218.780</ele>
<time>2015-12-18T02:08:59.860Z</time>
</trkpt>
<trkpt lat="-26.6985031" lon="152.8701948">
<ele>214.191</ele>
<time>2015-12-18T02:09:01.893Z</time>
</trkpt>
<trkpt lat="-26.6986834" lon="152.8698700">
<ele>212.069</ele>
<time>2015-12-18T02:09:04.667Z</time>
</trkpt>
<trkpt lat="-26.6988211" lon="152.8697071">
<ele>212.454</ele>
<time>2015-12-18T02:09:06.982Z</time>
</trkpt>
<trkpt lat="-26.6989570" lon="152.8697543">
<ele>214.282</ele>
<time>2015-12-18T02:09:09.146Z</time>
</trkpt>
<trkpt lat="-26.6990439" lon="152.8698071">
<ele>215.979</ele>
<time>2015-12-18T02:09:11.032Z</time>
</trkpt>
<trkpt lat="-26.6991882" lon="152.8699068">
<ele>216.792</ele>
<time>2015-12-18T02:09:14.440Z</time>
</trkpt>
<trkpt lat="-26.6992671" lon="152.8700078">
<ele>217.074</ele>
<time>2015-12-18T02:09:16.709Z</time>
</trkpt>
<trkpt lat="-26.6993462" lon="152.8701003">
<ele>217.203</ele>
<time>2015-12-18T02:09:18.783Z</time>
</trkpt>
<trkpt lat="-26.6994614" lon="152.8702280">
<ele>217.243</ele>
<time>2015-12-18T02:09:21.707Z</time>
</trkpt>
<trkpt lat="-26.6995990" lon="152.8703466">
<ele>217.143</ele>
<time>2015-12-18T02:09:24.922Z</time>
</trkpt>
<trkpt lat="-26.6996384" lon="152.8704580">
<ele>216.940</ele>
<time>2015-12-18T02:09:26.957Z</time>
</trkpt>
<trkpt lat="-26.6997213" lon="152.8705473">
<ele>216.728</ele>
<time>2015-12-18T02:09:29.313Z</time>
</trkpt>
<trkpt lat="-26.6998147" lon="152.8706474">
<ele>216.561</ele>
<time>2015-12-18T02:09:32.289Z</time>
</trkpt>
<trkpt lat="-26.6998816" lon="152.8707278">
<ele>216.472</ele>
<time>2015-12-18T02:09:34.663Z</time>
</trkpt>
<trkpt lat="-26.6999286" lon="152.8708215">
<ele>216.493</ele>
<time>2015-12-18T02:09:36.914Z</time>
</trkpt>
<trkpt lat="-26.6999794" lon="152.8709555">
<ele>216.725</ele>
<time>2015-12-18T02:09:39.766Z</time>
</trkpt>
<trkpt lat="-26.7000449" lon="152.8711178">
<ele>217.511</ele>
<time>2015-12-18T02:09:43.209Z</time>
</trkpt>
<trkpt lat="-26.7000709" lon="152.8712726">
<ele>219.182</ele>
<time>2015-12-18T02:09:46.357Z</time>
</trkpt>
<trkpt lat="-26.7001256" lon="152.8713728">
<ele>221.556</ele>
<time>2015-12-18T02:09:48.653Z</time>
</trkpt>
<trkpt lat="-26.7001941" lon="152.8714878">
<ele>223.985</ele>
<time>2015-12-18T02:09:51.426Z</time>
</trkpt>
<trkpt lat="-26.7002532" lon="152.8715678">
<ele>226.007</ele>
<time>2015-12-18T02:09:54.000Z</time>
</trkpt>
<trkpt lat="-26.7002532" lon="152.8715678">
<ele>227.445</ele>
<time>2015-12-18T02:09:58.000Z</time>
</trkpt>
<trkpt lat="-26.7002532" lon="152.8715678">
<ele>228.058</ele>
<time>2015-12-18T02:10:32.206Z</time>
</trkpt>
<trkpt lat="-26.7005135" lon="152.8716171">
<ele>227.887</ele>
<time>2015-12-18T02:11:11.000Z</time>
</trkpt>
<trkpt lat="-26.7005135" lon="152.8716171">
<ele>227.524</ele>
<time>2015-12-18T02:11:29.000Z</time>
</trkpt>
<trkpt lat="-26.7005135" lon="152.8716171">
<ele>227.413</ele>
<time>2015-12-18T02:14:14.645Z</time>
</trkpt>
<trkpt lat="-26.7003215" lon="152.8716596">
<ele>227.494</ele>
<time>2015-12-18T02:14:25.397Z</time>
</trkpt>
<trkpt lat="-26.7002752" lon="152.8717936">
<ele>227.689</ele>
<time>2015-12-18T02:14:30.000Z</time>
</trkpt>
<trkpt lat="-26.7002752" lon="152.8717936">
<ele>228.000</ele>
<time>2015-12-18T02:14:46.090Z</time>
</trkpt>
<trkpt lat="-26.7002752" lon="152.8717936">
<ele>228.195</ele>
<time>2015-12-18T03:51:32.319Z</time>
</trkpt>
<trkpt lat="-26.7003893" lon="152.8716286">
<ele>228.093</ele>
<time>2015-12-18T03:52:03.999Z</time>
</trkpt>
<trkpt lat="-26.7003893" lon="152.8716286">
<ele>227.888</ele>
<time>2015-12-18T03:52:06.999Z</time>
</trkpt>
<trkpt lat="-26.7003893" lon="152.8716286">
<ele>227.786</ele>
<time>2015-12-18T03:56:23.636Z</time>
</trkpt>
<trkpt lat="-26.7001017" lon="152.8711278">
<ele>227.703</ele>
<time>2015-12-18T03:57:00.308Z</time>
</trkpt>
<trkpt lat="-26.7000451" lon="152.8709938">
<ele>231.194</ele>
<time>2015-12-18T03:57:09.439Z</time>
</trkpt>
<trkpt lat="-26.7000131" lon="152.8708810">
<ele>240.401</ele>
<time>2015-12-18T03:57:13.664Z</time>
</trkpt>
<trkpt lat="-26.6999791" lon="152.8707877">
<ele>249.774</ele>
<time>2015-12-18T03:57:16.533Z</time>
</trkpt>
<trkpt lat="-26.6999220" lon="152.8706777">
<ele>253.737</ele>
<time>2015-12-18T03:57:21.267Z</time>
</trkpt>
<trkpt lat="-26.6998649" lon="152.8705978">
<ele>253.437</ele>
<time>2015-12-18T03:57:25.684Z</time>
</trkpt>
<trkpt lat="-26.6997824" lon="152.8705221">
<ele>251.477</ele>
<time>2015-12-18T03:57:31.000Z</time>
</trkpt>
<trkpt lat="-26.6997824" lon="152.8705221">
<ele>249.473</ele>
<time>2015-12-18T03:57:36.000Z</time>
</trkpt>
<trkpt lat="-26.6997824" lon="152.8705221">
<ele>248.337</ele>
<time>2015-12-18T03:58:20.650Z</time>
</trkpt>
<trkpt lat="-26.6996587" lon="152.8702798">
<ele>248.598</ele>
<time>2015-12-18T03:58:36.910Z</time>
</trkpt>
<trkpt lat="-26.6995681" lon="152.8701512">
<ele>249.881</ele>
<time>2015-12-18T03:58:39.102Z</time>
</trkpt>
<trkpt lat="-26.6994813" lon="152.8700185">
<ele>251.243</ele>
<time>2015-12-18T03:58:41.088Z</time>
</trkpt>
<trkpt lat="-26.6992609" lon="152.8698260">
<ele>251.813</ele>
<time>2015-12-18T03:58:45.137Z</time>
</trkpt>
<trkpt lat="-26.6991418" lon="152.8697367">
<ele>251.234</ele>
<time>2015-12-18T03:58:47.606Z</time>
</trkpt>
<trkpt lat="-26.6989796" lon="152.8697096">
<ele>249.886</ele>
<time>2015-12-18T03:58:50.995Z</time>
</trkpt>
<trkpt lat="-26.6988328" lon="152.8696722">
<ele>248.103</ele>
<time>2015-12-18T03:58:54.593Z</time>
</trkpt>
<trkpt lat="-26.6988422" lon="152.8695386">
<ele>245.827</ele>
<time>2015-12-18T03:58:57.258Z</time>
</trkpt>
<trkpt lat="-26.6988592" lon="152.8694246">
<ele>243.363</ele>
<time>2015-12-18T03:58:59.799Z</time>
</trkpt>
<trkpt lat="-26.6989278" lon="152.8692842">
<ele>241.411</ele>
<time>2015-12-18T03:59:03.851Z</time>
</trkpt>
<trkpt lat="-26.6989778" lon="152.8691891">
<ele>239.904</ele>
<time>2015-12-18T03:59:06.198Z</time>
</trkpt>
<trkpt lat="-26.6990029" lon="152.8690587">
<ele>238.467</ele>
<time>2015-12-18T03:59:08.237Z</time>
</trkpt>
<trkpt lat="-26.6990720" lon="152.8689256">
<ele>237.396</ele>
<time>2015-12-18T03:59:10.426Z</time>
</trkpt>
<trkpt lat="-26.6991409" lon="152.8687207">
<ele>237.068</ele>
<time>2015-12-18T03:59:13.432Z</time>
</trkpt>
<trkpt lat="-26.6991928" lon="152.8685862">
<ele>236.913</ele>
<time>2015-12-18T03:59:15.337Z</time>
</trkpt>
<trkpt lat="-26.6992499" lon="152.8684234">
<ele>236.293</ele>
<time>2015-12-18T03:59:17.520Z</time>
</trkpt>
<trkpt lat="-26.6992922" lon="152.8681753">
<ele>235.061</ele>
<time>2015-12-18T03:59:20.475Z</time>
</trkpt>
<trkpt lat="-26.6992916" lon="152.8679252">
<ele>233.528</ele>
<time>2015-12-18T03:59:23.266Z</time>
</trkpt>
<trkpt lat="-26.6992531" lon="152.8676445">
<ele>232.173</ele>
<time>2015-12-18T03:59:26.358Z</time>
</trkpt>
<trkpt lat="-26.6991949" lon="152.8674906">
<ele>231.201</ele>
<time>2015-12-18T03:59:28.171Z</time>
</trkpt>
<trkpt lat="-26.6991246" lon="152.8673085">
<ele>230.528</ele>
<time>2015-12-18T03:59:30.329Z</time>
</trkpt>
<trkpt lat="-26.6990032" lon="152.8670657">
<ele>230.203</ele>
<time>2015-12-18T03:59:33.636Z</time>
</trkpt>
<trkpt lat="-26.6989323" lon="152.8669153">
<ele>230.222</ele>
<time>2015-12-18T03:59:36.185Z</time>
</trkpt>
<trkpt lat="-26.6988905" lon="152.8667978">
<ele>230.405</ele>
<time>2015-12-18T03:59:38.777Z</time>
</trkpt>
<trkpt lat="-26.6988599" lon="152.8666832">
<ele>230.528</ele>
<time>2015-12-18T03:59:42.127Z</time>
</trkpt>
<trkpt lat="-26.6988143" lon="152.8665630">
<ele>230.457</ele>
<time>2015-12-18T03:59:46.192Z</time>
</trkpt>
<trkpt lat="-26.6987996" lon="152.8664551">
<ele>230.181</ele>
<time>2015-12-18T03:59:49.605Z</time>
</trkpt>
<trkpt lat="-26.6987513" lon="152.8665514">
<ele>229.821</ele>
<time>2015-12-18T03:59:53.133Z</time>
</trkpt>
<trkpt lat="-26.6987733" lon="152.8666636">
<ele>229.682</ele>
<time>2015-12-18T03:59:55.977Z</time>
</trkpt>
<trkpt lat="-26.6988301" lon="152.8668277">
<ele>229.928</ele>
<time>2015-12-18T03:59:59.038Z</time>
</trkpt>
<trkpt lat="-26.6988833" lon="152.8669548">
<ele>230.403</ele>
<time>2015-12-18T04:00:00.855Z</time>
</trkpt>
<trkpt lat="-26.6989682" lon="152.8671577">
<ele>231.001</ele>
<time>2015-12-18T04:00:03.583Z</time>
</trkpt>
<trkpt lat="-26.6990779" lon="152.8673771">
<ele>231.695</ele>
<time>2015-12-18T04:00:06.459Z</time>
</trkpt>
<trkpt lat="-26.6991441" lon="152.8675596">
<ele>232.334</ele>
<time>2015-12-18T04:00:08.614Z</time>
</trkpt>
<trkpt lat="-26.6991855" lon="152.8677394">
<ele>232.772</ele>
<time>2015-12-18T04:00:10.621Z</time>
</trkpt>
<trkpt lat="-26.6991926" lon="152.8679243">
<ele>232.858</ele>
<time>2015-12-18T04:00:12.604Z</time>
</trkpt>
<trkpt lat="-26.6991995" lon="152.8681160">
<ele>232.370</ele>
<time>2015-12-18T04:00:14.640Z</time>
</trkpt>
<trkpt lat="-26.6991828" lon="152.8683869">
<ele>231.233</ele>
<time>2015-12-18T04:00:17.503Z</time>
</trkpt>
<trkpt lat="-26.6991341" lon="152.8685823">
<ele>229.715</ele>
<time>2015-12-18T04:00:19.650Z</time>
</trkpt>
<trkpt lat="-26.6990803" lon="152.8687703">
<ele>228.368</ele>
<time>2015-12-18T04:00:21.953Z</time>
</trkpt>
<trkpt lat="-26.6990071" lon="152.8689678">
<ele>227.493</ele>
<time>2015-12-18T04:00:24.927Z</time>
</trkpt>
<trkpt lat="-26.6989425" lon="152.8691365">
<ele>226.817</ele>
<time>2015-12-18T04:00:28.593Z</time>
</trkpt>
<trkpt lat="-26.6989119" lon="152.8692354">
<ele>226.078</ele>
<time>2015-12-18T04:00:30.981Z</time>
</trkpt>
<trkpt lat="-26.6988691" lon="152.8693635">
<ele>225.410</ele>
<time>2015-12-18T04:00:34.733Z</time>
</trkpt>
<trkpt lat="-26.6988115" lon="152.8694572">
<ele>224.983</ele>
<time>2015-12-18T04:00:37.882Z</time>
</trkpt>
<trkpt lat="-26.6987691" lon="152.8695468">
<ele>224.803</ele>
<time>2015-12-18T04:00:40.867Z</time>
</trkpt>
<trkpt lat="-26.6987292" lon="152.8696763">
<ele>224.783</ele>
<time>2015-12-18T04:00:43.903Z</time>
</trkpt>
<trkpt lat="-26.6986610" lon="152.8698107">
<ele>224.827</ele>
<time>2015-12-18T04:00:46.156Z</time>
</trkpt>
<trkpt lat="-26.6985206" lon="152.8700377">
<ele>224.880</ele>
<time>2015-12-18T04:00:49.140Z</time>
</trkpt>
<trkpt lat="-26.6983642" lon="152.8702105">
<ele>224.713</ele>
<time>2015-12-18T04:00:51.316Z</time>
</trkpt>
<trkpt lat="-26.6981644" lon="152.8703768">
<ele>224.004</ele>
<time>2015-12-18T04:00:53.440Z</time>
</trkpt>
<trkpt lat="-26.6979346" lon="152.8704944">
<ele>222.680</ele>
<time>2015-12-18T04:00:55.339Z</time>
</trkpt>
<trkpt lat="-26.6975246" lon="152.8705603">
<ele>221.185</ele>
<time>2015-12-18T04:00:58.252Z</time>
</trkpt>
<trkpt lat="-26.6972313" lon="152.8705440">
<ele>220.292</ele>
<time>2015-12-18T04:01:00.261Z</time>
</trkpt>
<trkpt lat="-26.6968329" lon="152.8704088">
<ele>220.649</ele>
<time>2015-12-18T04:01:03.162Z</time>
</trkpt>
<trkpt lat="-26.6965959" lon="152.8702244">
<ele>222.954</ele>
<time>2015-12-18T04:01:05.168Z</time>
</trkpt>
<trkpt lat="-26.6962495" lon="152.8699298">
<ele>227.312</ele>
<time>2015-12-18T04:01:08.149Z</time>
</trkpt>
<trkpt lat="-26.6958566" lon="152.8697163">
<ele>232.317</ele>
<time>2015-12-18T04:01:11.154Z</time>
</trkpt>
<trkpt lat="-26.6955750" lon="152.8696524">
<ele>236.430</ele>
<time>2015-12-18T04:01:13.120Z</time>
</trkpt>
<trkpt lat="-26.6950801" lon="152.8697322">
<ele>239.347</ele>
<time>2015-12-18T04:01:16.428Z</time>
</trkpt>
<trkpt lat="-26.6946115" lon="152.8698534">
<ele>241.640</ele>
<time>2015-12-18T04:01:19.487Z</time>
</trkpt>
<trkpt lat="-26.6943022" lon="152.8699357">
<ele>244.569</ele>
<time>2015-12-18T04:01:21.451Z</time>
</trkpt>
<trkpt lat="-26.6938186" lon="152.8700503">
<ele>248.818</ele>
<time>2015-12-18T04:01:24.442Z</time>
</trkpt>
<trkpt lat="-26.6934889" lon="152.8701389">
<ele>253.468</ele>
<time>2015-12-18T04:01:26.433Z</time>
</trkpt>
<trkpt lat="-26.6931422" lon="152.8702567">
<ele>257.135</ele>
<time>2015-12-18T04:01:28.569Z</time>
</trkpt>
<trkpt lat="-26.6926504" lon="152.8703953">
<ele>259.425</ele>
<time>2015-12-18T04:01:31.595Z</time>
</trkpt>
<trkpt lat="-26.6923291" lon="152.8704631">
<ele>261.184</ele>
<time>2015-12-18T04:01:33.578Z</time>
</trkpt>
<trkpt lat="-26.6919883" lon="152.8704421">
<ele>263.697</ele>
<time>2015-12-18T04:01:35.669Z</time>
</trkpt>
<trkpt lat="-26.6914936" lon="152.8703713">
<ele>267.276</ele>
<time>2015-12-18T04:01:38.752Z</time>
</trkpt>
<trkpt lat="-26.6911981" lon="152.8702753">
<ele>271.362</ele>
<time>2015-12-18T04:01:40.644Z</time>
</trkpt>
<trkpt lat="-26.6908857" lon="152.8701234">
<ele>275.272</ele>
<time>2015-12-18T04:01:42.736Z</time>
</trkpt>
<trkpt lat="-26.6905130" lon="152.8698298">
<ele>278.209</ele>
<time>2015-12-18T04:01:45.510Z</time>
</trkpt>
<trkpt lat="-26.6901433" lon="152.8693443">
<ele>279.652</ele>
<time>2015-12-18T04:01:48.897Z</time>
</trkpt>
<trkpt lat="-26.6899376" lon="152.8688184">
<ele>279.735</ele>
<time>2015-12-18T04:01:51.876Z</time>
</trkpt>
<trkpt lat="-26.6897079" lon="152.8682711">
<ele>278.797</ele>
<time>2015-12-18T04:01:54.943Z</time>
</trkpt>
<trkpt lat="-26.6895706" lon="152.8679040">
<ele>276.799</ele>
<time>2015-12-18T04:01:57.006Z</time>
</trkpt>
<trkpt lat="-26.6893922" lon="152.8674555">
<ele>273.638</ele>
<time>2015-12-18T04:01:59.661Z</time>
</trkpt>
<trkpt lat="-26.6891800" lon="152.8669733">
<ele>270.004</ele>
<time>2015-12-18T04:02:02.699Z</time>
</trkpt>
<trkpt lat="-26.6889992" lon="152.8666637">
<ele>267.049</ele>
<time>2015-12-18T04:02:04.804Z</time>
</trkpt>
<trkpt lat="-26.6887141" lon="152.8662230">
<ele>265.336</ele>
<time>2015-12-18T04:02:07.881Z</time>
</trkpt>
<trkpt lat="-26.6884929" lon="152.8660023">
<ele>265.148</ele>
<time>2015-12-18T04:02:09.730Z</time>
</trkpt>
<trkpt lat="-26.6882402" lon="152.8657627">
<ele>266.566</ele>
<time>2015-12-18T04:02:11.839Z</time>
</trkpt>
<trkpt lat="-26.6877632" lon="152.8657825">
<ele>269.390</ele>
<time>2015-12-18T04:02:14.971Z</time>
</trkpt>
<trkpt lat="-26.6874367" lon="152.8658644">
<ele>273.702</ele>
<time>2015-12-18T04:02:17.256Z</time>
</trkpt>
<trkpt lat="-26.6870063" lon="152.8659230">
<ele>279.423</ele>
<time>2015-12-18T04:02:20.698Z</time>
</trkpt>
<trkpt lat="-26.6867384" lon="152.8659094">
<ele>285.223</ele>
<time>2015-12-18T04:02:23.554Z</time>
</trkpt>
<trkpt lat="-26.6864983" lon="152.8658964">
<ele>289.834</ele>
<time>2015-12-18T04:02:26.654Z</time>
</trkpt>
<trkpt lat="-26.6863671" lon="152.8659181">
<ele>293.171</ele>
<time>2015-12-18T04:02:28.546Z</time>
</trkpt>
<trkpt lat="-26.6861574" lon="152.8658764">
<ele>295.519</ele>
<time>2015-12-18T04:02:31.447Z</time>
</trkpt>
<trkpt lat="-26.6860023" lon="152.8659093">
<ele>297.395</ele>
<time>2015-12-18T04:02:33.291Z</time>
</trkpt>
<trkpt lat="-26.6857258" lon="152.8659667">
<ele>299.564</ele>
<time>2015-12-18T04:02:36.154Z</time>
</trkpt>
<trkpt lat="-26.6855344" lon="152.8660499">
<ele>302.758</ele>
<time>2015-12-18T04:02:37.991Z</time>
</trkpt>
<trkpt lat="-26.6853036" lon="152.8661427">
<ele>307.466</ele>
<time>2015-12-18T04:02:39.941Z</time>
</trkpt>
<trkpt lat="-26.6849423" lon="152.8663200">
<ele>313.310</ele>
<time>2015-12-18T04:02:42.925Z</time>
</trkpt>
<trkpt lat="-26.6846872" lon="152.8664583">
<ele>319.836</ele>
<time>2015-12-18T04:02:44.990Z</time>
</trkpt>
<trkpt lat="-26.6843339" lon="152.8666283">
<ele>326.850</ele>
<time>2015-12-18T04:02:47.761Z</time>
</trkpt>
<trkpt lat="-26.6841075" lon="152.8668165">
<ele>334.070</ele>
<time>2015-12-18T04:02:49.767Z</time>
</trkpt>
<trkpt lat="-26.6837655" lon="152.8670877">
<ele>341.349</ele>
<time>2015-12-18T04:02:52.740Z</time>
</trkpt>
<trkpt lat="-26.6833829" lon="152.8672437">
<ele>348.775</ele>
<time>2015-12-18T04:02:55.585Z</time>
</trkpt>
<trkpt lat="-26.6829531" lon="152.8673427">
<ele>356.805</ele>
<time>2015-12-18T04:02:58.569Z</time>
</trkpt>
<trkpt lat="-26.6826465" lon="152.8673772">
<ele>365.784</ele>
<time>2015-12-18T04:03:00.648Z</time>
</trkpt>
<trkpt lat="-26.6822318" lon="152.8674245">
<ele>374.816</ele>
<time>2015-12-18T04:03:03.507Z</time>
</trkpt>
<trkpt lat="-26.6819609" lon="152.8674499">
<ele>383.101</ele>
<time>2015-12-18T04:03:05.536Z</time>
</trkpt>
<trkpt lat="-26.6817226" lon="152.8674566">
<ele>390.846</ele>
<time>2015-12-18T04:03:07.855Z</time>
</trkpt>
<trkpt lat="-26.6815380" lon="152.8675269">
<ele>397.679</ele>
<time>2015-12-18T04:03:10.904Z</time>
</trkpt>
<trkpt lat="-26.6814481" lon="152.8675523">
<ele>402.330</ele>
<time>2015-12-18T04:03:12.971Z</time>
</trkpt>
<trkpt lat="-26.6814003" lon="152.8676897">
<ele>404.483</ele>
<time>2015-12-18T04:03:17.476Z</time>
</trkpt>
<trkpt lat="-26.6814235" lon="152.8678941">
<ele>405.218</ele>
<time>2015-12-18T04:03:20.164Z</time>
</trkpt>
<trkpt lat="-26.6815217" lon="152.8681371">
<ele>405.909</ele>
<time>2015-12-18T04:03:22.601Z</time>
</trkpt>
<trkpt lat="-26.6817895" lon="152.8686870">
<ele>407.274</ele>
<time>2015-12-18T04:03:26.718Z</time>
</trkpt>
<trkpt lat="-26.6819350" lon="152.8690002">
<ele>409.498</ele>
<time>2015-12-18T04:03:28.835Z</time>
</trkpt>
<trkpt lat="-26.6820324" lon="152.8693075">
<ele>412.132</ele>
<time>2015-12-18T04:03:30.763Z</time>
</trkpt>
<trkpt lat="-26.6820693" lon="152.8698600">
<ele>414.103</ele>
<time>2015-12-18T04:03:33.967Z</time>
</trkpt>
<trkpt lat="-26.6821247" lon="152.8702017">
<ele>414.937</ele>
<time>2015-12-18T04:03:35.917Z</time>
</trkpt>
<trkpt lat="-26.6821929" lon="152.8705473">
<ele>415.352</ele>
<time>2015-12-18T04:03:37.882Z</time>
</trkpt>
<trkpt lat="-26.6823030" lon="152.8710706">
<ele>416.193</ele>
<time>2015-12-18T04:03:40.820Z</time>
</trkpt>
<trkpt lat="-26.6823555" lon="152.8714333">
<ele>417.852</ele>
<time>2015-12-18T04:03:42.809Z</time>
</trkpt>
<trkpt lat="-26.6824271" lon="152.8717935">
<ele>419.976</ele>
<time>2015-12-18T04:03:44.863Z</time>
</trkpt>
<trkpt lat="-26.6825201" lon="152.8722840">
<ele>421.780</ele>
<time>2015-12-18T04:03:47.817Z</time>
</trkpt>
<trkpt lat="-26.6826421" lon="152.8727229">
<ele>422.928</ele>
<time>2015-12-18T04:03:50.641Z</time>
</trkpt>
<trkpt lat="-26.6828841" lon="152.8731235">
<ele>423.712</ele>
<time>2015-12-18T04:03:53.523Z</time>
</trkpt>
<trkpt lat="-26.6830796" lon="152.8733467">
<ele>424.190</ele>
<time>2015-12-18T04:03:55.293Z</time>
</trkpt>
<trkpt lat="-26.6833269" lon="152.8735956">
<ele>424.341</ele>
<time>2015-12-18T04:03:57.388Z</time>
</trkpt>
<trkpt lat="-26.6835369" lon="152.8738512">
<ele>424.460</ele>
<time>2015-12-18T04:03:59.390Z</time>
</trkpt>
<trkpt lat="-26.6837708" lon="152.8740657">
<ele>425.082</ele>
<time>2015-12-18T04:04:01.367Z</time>
</trkpt>
<trkpt lat="-26.6842054" lon="152.8742659">
<ele>426.635</ele>
<time>2015-12-18T04:04:04.459Z</time>
</trkpt>
<trkpt lat="-26.6846190" lon="152.8744705">
<ele>428.721</ele>
<time>2015-12-18T04:04:07.515Z</time>
</trkpt>
<trkpt lat="-26.6848235" lon="152.8746764">
<ele>430.294</ele>
<time>2015-12-18T04:04:09.445Z</time>
</trkpt>
<trkpt lat="-26.6849641" lon="152.8750029">
<ele>430.778</ele>
<time>2015-12-18T04:04:11.636Z</time>
</trkpt>
<trkpt lat="-26.6852476" lon="152.8754106">
<ele>430.144</ele>
<time>2015-12-18T04:04:14.626Z</time>
</trkpt>
<trkpt lat="-26.6854826" lon="152.8756585">
<ele>428.483</ele>
<time>2015-12-18T04:04:16.630Z</time>
</trkpt>
<trkpt lat="-26.6858460" lon="152.8760221">
<ele>425.986</ele>
<time>2015-12-18T04:04:19.644Z</time>
</trkpt>
<trkpt lat="-26.6861857" lon="152.8764105">
<ele>423.301</ele>
<time>2015-12-18T04:04:22.642Z</time>
</trkpt>
<trkpt lat="-26.6864288" lon="152.8766565">
<ele>420.857</ele>
<time>2015-12-18T04:04:24.638Z</time>
</trkpt>
<trkpt lat="-26.6866648" lon="152.8769243">
<ele>418.689</ele>
<time>2015-12-18T04:04:26.670Z</time>
</trkpt>
<trkpt lat="-26.6870320" lon="152.8772880">
<ele>417.198</ele>
<time>2015-12-18T04:04:29.727Z</time>
</trkpt>
<trkpt lat="-26.6872659" lon="152.8777055">
<ele>416.547</ele>
<time>2015-12-18T04:04:32.611Z</time>
</trkpt>
<trkpt lat="-26.6873740" lon="152.8780168">
<ele>415.751</ele>
<time>2015-12-18T04:04:34.553Z</time>
</trkpt>
<trkpt lat="-26.6876485" lon="152.8784359">
<ele>414.134</ele>
<time>2015-12-18T04:04:37.486Z</time>
</trkpt>
<trkpt lat="-26.6878959" lon="152.8786723">
<ele>412.305</ele>
<time>2015-12-18T04:04:39.465Z</time>
</trkpt>
<trkpt lat="-26.6882691" lon="152.8790003">
<ele>411.199</ele>
<time>2015-12-18T04:04:42.352Z</time>
</trkpt>
<trkpt lat="-26.6886506" lon="152.8793295">
<ele>411.035</ele>
<time>2015-12-18T04:04:45.330Z</time>
</trkpt>
<trkpt lat="-26.6888847" lon="152.8795796">
<ele>411.531</ele>
<time>2015-12-18T04:04:47.407Z</time>
</trkpt>
<trkpt lat="-26.6890829" lon="152.8798237">
<ele>412.199</ele>
<time>2015-12-18T04:04:49.382Z</time>
</trkpt>
<trkpt lat="-26.6891996" lon="152.8802953">
<ele>412.625</ele>
<time>2015-12-18T04:04:52.358Z</time>
</trkpt>
<trkpt lat="-26.6892472" lon="152.8806090">
<ele>412.652</ele>
<time>2015-12-18T04:04:54.273Z</time>
</trkpt>
<trkpt lat="-26.6894480" lon="152.8810792">
<ele>412.467</ele>
<time>2015-12-18T04:04:57.347Z</time>
</trkpt>
<trkpt lat="-26.6896741" lon="152.8813255">
<ele>412.424</ele>
<time>2015-12-18T04:04:59.361Z</time>
</trkpt>
<trkpt lat="-26.6899009" lon="152.8815632">
<ele>412.675</ele>
<time>2015-12-18T04:05:01.311Z</time>
</trkpt>
<trkpt lat="-26.6902633" lon="152.8819306">
<ele>413.212</ele>
<time>2015-12-18T04:05:04.393Z</time>
</trkpt>
<trkpt lat="-26.6904923" lon="152.8821260">
<ele>413.899</ele>
<time>2015-12-18T04:05:06.315Z</time>
</trkpt>
<trkpt lat="-26.6907551" lon="152.8824846">
<ele>414.192</ele>
<time>2015-12-18T04:05:09.176Z</time>
</trkpt>
<trkpt lat="-26.6908845" lon="152.8829537">
<ele>413.794</ele>
<time>2015-12-18T04:05:12.167Z</time>
</trkpt>
<trkpt lat="-26.6909836" lon="152.8834911">
<ele>413.060</ele>
<time>2015-12-18T04:05:15.301Z</time>
</trkpt>
<trkpt lat="-26.6911043" lon="152.8838249">
<ele>412.456</ele>
<time>2015-12-18T04:05:17.271Z</time>
</trkpt>
<trkpt lat="-26.6912359" lon="152.8841428">
<ele>412.167</ele>
<time>2015-12-18T04:05:19.133Z</time>
</trkpt>
<trkpt lat="-26.6914392" lon="152.8846880">
<ele>412.483</ele>
<time>2015-12-18T04:05:22.199Z</time>
</trkpt>
<trkpt lat="-26.6916147" lon="152.8850276">
<ele>413.433</ele>
<time>2015-12-18T04:05:24.198Z</time>
</trkpt>
<trkpt lat="-26.6917832" lon="152.8853632">
<ele>414.392</ele>
<time>2015-12-18T04:05:26.157Z</time>
</trkpt>
<trkpt lat="-26.6920610" lon="152.8858685">
<ele>414.760</ele>
<time>2015-12-18T04:05:29.174Z</time>
</trkpt>
<trkpt lat="-26.6922595" lon="152.8861915">
<ele>414.524</ele>
<time>2015-12-18T04:05:31.168Z</time>
</trkpt>
<trkpt lat="-26.6925985" lon="152.8866369">
<ele>414.085</ele>
<time>2015-12-18T04:05:34.156Z</time>
</trkpt>
<trkpt lat="-26.6928313" lon="152.8869146">
<ele>413.774</ele>
<time>2015-12-18T04:05:36.131Z</time>
</trkpt>
<trkpt lat="-26.6930420" lon="152.8872068">
<ele>413.422</ele>
<time>2015-12-18T04:05:38.135Z</time>
</trkpt>
<trkpt lat="-26.6933235" lon="152.8876460">
<ele>412.596</ele>
<time>2015-12-18T04:05:41.108Z</time>
</trkpt>
<trkpt lat="-26.6934023" lon="152.8881634">
<ele>411.135</ele>
<time>2015-12-18T04:05:44.035Z</time>
</trkpt>
<trkpt lat="-26.6934226" lon="152.8885441">
<ele>409.522</ele>
<time>2015-12-18T04:05:46.145Z</time>
</trkpt>
<trkpt lat="-26.6934355" lon="152.8890839">
<ele>408.501</ele>
<time>2015-12-18T04:05:49.186Z</time>
</trkpt>
<trkpt lat="-26.6933619" lon="152.8896075">
<ele>408.188</ele>
<time>2015-12-18T04:05:52.234Z</time>
</trkpt>
<trkpt lat="-26.6932469" lon="152.8899604">
<ele>407.883</ele>
<time>2015-12-18T04:05:54.406Z</time>
</trkpt>
<trkpt lat="-26.6931621" lon="152.8904710">
<ele>407.019</ele>
<time>2015-12-18T04:05:57.487Z</time>
</trkpt>
<trkpt lat="-26.6932075" lon="152.8907807">
<ele>405.391</ele>
<time>2015-12-18T04:05:59.393Z</time>
</trkpt>
<trkpt lat="-26.6932551" lon="152.8912955">
<ele>402.966</ele>
<time>2015-12-18T04:06:02.509Z</time>
</trkpt>
<trkpt lat="-26.6932985" lon="152.8916182">
<ele>400.490</ele>
<time>2015-12-18T04:06:04.513Z</time>
</trkpt>
<trkpt lat="-26.6933183" lon="152.8919127">
<ele>399.407</ele>
<time>2015-12-18T04:06:06.393Z</time>
</trkpt>
<trkpt lat="-26.6932358" lon="152.8923698">
<ele>399.995</ele>
<time>2015-12-18T04:06:09.289Z</time>
</trkpt>
<trkpt lat="-26.6930883" lon="152.8928684">
<ele>401.353</ele>
<time>2015-12-18T04:06:12.343Z</time>
</trkpt>
<trkpt lat="-26.6930158" lon="152.8931978">
<ele>402.807</ele>
<time>2015-12-18T04:06:14.240Z</time>
</trkpt>
<trkpt lat="-26.6929453" lon="152.8935383">
<ele>404.072</ele>
<time>2015-12-18T04:06:16.171Z</time>
</trkpt>
<trkpt lat="-26.6928120" lon="152.8940693">
<ele>404.779</ele>
<time>2015-12-18T04:06:19.201Z</time>
</trkpt>
<trkpt lat="-26.6927288" lon="152.8944165">
<ele>404.631</ele>
<time>2015-12-18T04:06:21.261Z</time>
</trkpt>
<trkpt lat="-26.6926589" lon="152.8947005">
<ele>403.490</ele>
<time>2015-12-18T04:06:23.091Z</time>
</trkpt>
<trkpt lat="-26.6925174" lon="152.8950549">
<ele>401.257</ele>
<time>2015-12-18T04:06:26.124Z</time>
</trkpt>
<trkpt lat="-26.6924324" lon="152.8951801">
<ele>397.969</ele>
<time>2015-12-18T04:06:27.958Z</time>
</trkpt>
<trkpt lat="-26.6923529" lon="152.8952827">
<ele>394.175</ele>
<time>2015-12-18T04:06:30.000Z</time>
</trkpt>
<trkpt lat="-26.6923529" lon="152.8952827">
<ele>391.020</ele>
<time>2015-12-18T04:06:33.000Z</time>
</trkpt>
<trkpt lat="-26.6923529" lon="152.8952827">
<ele>389.474</ele>
<time>2015-12-18T04:06:36.147Z</time>
</trkpt>
<trkpt lat="-26.6924439" lon="152.8954038">
<ele>389.475</ele>
<time>2015-12-18T04:06:41.315Z</time>
</trkpt>
<trkpt lat="-26.6925755" lon="152.8955348">
<ele>389.974</ele>
<time>2015-12-18T04:06:43.537Z</time>
</trkpt>
<trkpt lat="-26.6927640" lon="152.8957201">
<ele>390.192</ele>
<time>2015-12-18T04:06:45.738Z</time>
</trkpt>
<trkpt lat="-26.6930437" lon="152.8960538">
<ele>390.134</ele>
<time>2015-12-18T04:06:48.956Z</time>
</trkpt>
<trkpt lat="-26.6932013" lon="152.8962743">
<ele>390.037</ele>
<time>2015-12-18T04:06:50.791Z</time>
</trkpt>
<trkpt lat="-26.6933717" lon="152.8965449">
<ele>389.811</ele>
<time>2015-12-18T04:06:52.902Z</time>
</trkpt>
<trkpt lat="-26.6934778" lon="152.8968288">
<ele>389.276</ele>
<time>2015-12-18T04:06:54.848Z</time>
</trkpt>
<trkpt lat="-26.6935941" lon="152.8972779">
<ele>388.431</ele>
<time>2015-12-18T04:06:57.778Z</time>
</trkpt>
<trkpt lat="-26.6936972" lon="152.8975790">
<ele>387.501</ele>
<time>2015-12-18T04:06:59.766Z</time>
</trkpt>
<trkpt lat="-26.6939123" lon="152.8979949">
<ele>386.947</ele>
<time>2015-12-18T04:07:02.710Z</time>
</trkpt>
<trkpt lat="-26.6941432" lon="152.8983996">
<ele>387.410</ele>
<time>2015-12-18T04:07:05.685Z</time>
</trkpt>
<trkpt lat="-26.6943340" lon="152.8988353">
<ele>389.430</ele>
<time>2015-12-18T04:07:08.743Z</time>
</trkpt>
<trkpt lat="-26.6944647" lon="152.8991172">
<ele>392.414</ele>
<time>2015-12-18T04:07:10.741Z</time>
</trkpt>
<trkpt lat="-26.6946490" lon="152.8995494">
<ele>394.706</ele>
<time>2015-12-18T04:07:13.666Z</time>
</trkpt>
<trkpt lat="-26.6948470" lon="152.9000169">
<ele>395.240</ele>
<time>2015-12-18T04:07:16.685Z</time>
</trkpt>
<trkpt lat="-26.6949855" lon="152.9003311">
<ele>393.981</ele>
<time>2015-12-18T04:07:18.622Z</time>
</trkpt>
<trkpt lat="-26.6952030" lon="152.9008270">
<ele>391.638</ele>
<time>2015-12-18T04:07:21.619Z</time>
</trkpt>
<trkpt lat="-26.6954151" lon="152.9013305">
<ele>389.005</ele>
<time>2015-12-18T04:07:24.612Z</time>
</trkpt>
<trkpt lat="-26.6957074" lon="152.9017804">
<ele>386.583</ele>
<time>2015-12-18T04:07:27.599Z</time>
</trkpt>
<trkpt lat="-26.6960683" lon="152.9021650">
<ele>385.071</ele>
<time>2015-12-18T04:07:30.609Z</time>
</trkpt>
<trkpt lat="-26.6963174" lon="152.9024016">
<ele>384.827</ele>
<time>2015-12-18T04:07:32.604Z</time>
</trkpt>
<trkpt lat="-26.6965157" lon="152.9027093">
<ele>385.282</ele>
<time>2015-12-18T04:07:34.648Z</time>
</trkpt>
<trkpt lat="-26.6967574" lon="152.9032009">
<ele>385.764</ele>
<time>2015-12-18T04:07:37.624Z</time>
</trkpt>
<trkpt lat="-26.6969318" lon="152.9037441">
<ele>385.694</ele>
<time>2015-12-18T04:07:40.653Z</time>
</trkpt>
<trkpt lat="-26.6970843" lon="152.9040675">
<ele>384.955</ele>
<time>2015-12-18T04:07:42.671Z</time>
</trkpt>
<trkpt lat="-26.6973590" lon="152.9044643">
<ele>384.173</ele>
<time>2015-12-18T04:07:45.591Z</time>
</trkpt>
<trkpt lat="-26.6976258" lon="152.9046361">
<ele>383.942</ele>
<time>2015-12-18T04:07:47.691Z</time>
</trkpt>
<trkpt lat="-26.6979265" lon="152.9047099">
<ele>384.646</ele>
<time>2015-12-18T04:07:49.714Z</time>
</trkpt>
<trkpt lat="-26.6982349" lon="152.9047654">
<ele>386.933</ele>
<time>2015-12-18T04:07:51.745Z</time>
</trkpt>
<trkpt lat="-26.6986681" lon="152.9047985">
<ele>390.572</ele>
<time>2015-12-18T04:07:54.590Z</time>
</trkpt>
<trkpt lat="-26.6991283" lon="152.9048596">
<ele>393.952</ele>
<time>2015-12-18T04:07:57.621Z</time>
</trkpt>
<trkpt lat="-26.6994388" lon="152.9048861">
<ele>395.793</ele>
<time>2015-12-18T04:07:59.638Z</time>
</trkpt>
<trkpt lat="-26.6997465" lon="152.9049155">
<ele>395.964</ele>
<time>2015-12-18T04:08:01.581Z</time>
</trkpt>
<trkpt lat="-26.7002578" lon="152.9048846">
<ele>394.517</ele>
<time>2015-12-18T04:08:04.664Z</time>
</trkpt>
<trkpt lat="-26.7007588" lon="152.9045712">
<ele>391.418</ele>
<time>2015-12-18T04:08:07.943Z</time>
</trkpt>
<trkpt lat="-26.7012092" lon="152.9043053">
<ele>387.365</ele>
<time>2015-12-18T04:08:10.882Z</time>
</trkpt>
<trkpt lat="-26.7016442" lon="152.9040671">
<ele>383.900</ele>
<time>2015-12-18T04:08:13.804Z</time>
</trkpt>
<trkpt lat="-26.7019605" lon="152.9039528">
<ele>382.319</ele>
<time>2015-12-18T04:08:15.887Z</time>
</trkpt>
<trkpt lat="-26.7024276" lon="152.9038398">
<ele>382.955</ele>
<time>2015-12-18T04:08:18.915Z</time>
</trkpt>
<trkpt lat="-26.7027588" lon="152.9037888">
<ele>385.672</ele>
<time>2015-12-18T04:08:21.075Z</time>
</trkpt>
<trkpt lat="-26.7030256" lon="152.9036639">
<ele>389.681</ele>
<time>2015-12-18T04:08:22.949Z</time>
</trkpt>
<trkpt lat="-26.7033918" lon="152.9033293">
<ele>393.243</ele>
<time>2015-12-18T04:08:25.936Z</time>
</trkpt>
<trkpt lat="-26.7035816" lon="152.9030133">
<ele>395.043</ele>
<time>2015-12-18T04:08:27.957Z</time>
</trkpt>
<trkpt lat="-26.7037559" lon="152.9026891">
<ele>395.215</ele>
<time>2015-12-18T04:08:29.925Z</time>
</trkpt>
<trkpt lat="-26.7039352" lon="152.9023608">
<ele>394.338</ele>
<time>2015-12-18T04:08:31.912Z</time>
</trkpt>
<trkpt lat="-26.7042909" lon="152.9019507">
<ele>392.618</ele>
<time>2015-12-18T04:08:34.835Z</time>
</trkpt>
<trkpt lat="-26.7047318" lon="152.9016158">
<ele>390.386</ele>
<time>2015-12-18T04:08:37.862Z</time>
</trkpt>
<trkpt lat="-26.7050138" lon="152.9014103">
<ele>388.353</ele>
<time>2015-12-18T04:08:39.799Z</time>
</trkpt>
<trkpt lat="-26.7052867" lon="152.9011788">
<ele>387.050</ele>
<time>2015-12-18T04:08:41.763Z</time>
</trkpt>
<trkpt lat="-26.7055867" lon="152.9009517">
<ele>386.526</ele>
<time>2015-12-18T04:08:43.847Z</time>
</trkpt>
<trkpt lat="-26.7060177" lon="152.9006251">
<ele>386.597</ele>
<time>2015-12-18T04:08:46.861Z</time>
</trkpt>
<trkpt lat="-26.7064538" lon="152.9003327">
<ele>386.978</ele>
<time>2015-12-18T04:08:49.799Z</time>
</trkpt>
<trkpt lat="-26.7067743" lon="152.9001798">
<ele>387.355</ele>
<time>2015-12-18T04:08:51.791Z</time>
</trkpt>
<trkpt lat="-26.7071147" lon="152.9001036">
<ele>387.452</ele>
<time>2015-12-18T04:08:53.755Z</time>
</trkpt>
<trkpt lat="-26.7074668" lon="152.9000410">
<ele>386.860</ele>
<time>2015-12-18T04:08:55.725Z</time>
</trkpt>
<trkpt lat="-26.7080071" lon="152.8999490">
<ele>385.428</ele>
<time>2015-12-18T04:08:58.703Z</time>
</trkpt>
<trkpt lat="-26.7085434" lon="152.8997784">
<ele>383.854</ele>
<time>2015-12-18T04:09:01.711Z</time>
</trkpt>
<trkpt lat="-26.7088615" lon="152.8995924">
<ele>383.278</ele>
<time>2015-12-18T04:09:03.652Z</time>
</trkpt>
<trkpt lat="-26.7091907" lon="152.8993614">
<ele>384.469</ele>
<time>2015-12-18T04:09:05.774Z</time>
</trkpt>
<trkpt lat="-26.7096618" lon="152.8990305">
<ele>387.117</ele>
<time>2015-12-18T04:09:08.811Z</time>
</trkpt>
<trkpt lat="-26.7101376" lon="152.8987477">
<ele>389.785</ele>
<time>2015-12-18T04:09:11.766Z</time>
</trkpt>
<trkpt lat="-26.7106411" lon="152.8985310">
<ele>391.058</ele>
<time>2015-12-18T04:09:14.739Z</time>
</trkpt>
<trkpt lat="-26.7110157" lon="152.8984286">
<ele>390.804</ele>
<time>2015-12-18T04:09:16.883Z</time>
</trkpt>
<trkpt lat="-26.7115153" lon="152.8982594">
<ele>390.358</ele>
<time>2015-12-18T04:09:19.875Z</time>
</trkpt>
<trkpt lat="-26.7118291" lon="152.8981315">
<ele>390.884</ele>
<time>2015-12-18T04:09:21.890Z</time>
</trkpt>
<trkpt lat="-26.7122634" lon="152.8979600">
<ele>392.016</ele>
<time>2015-12-18T04:09:24.848Z</time>
</trkpt>
<trkpt lat="-26.7126817" lon="152.8980203">
<ele>392.455</ele>
<time>2015-12-18T04:09:27.703Z</time>
</trkpt>
<trkpt lat="-26.7129343" lon="152.8981979">
<ele>391.278</ele>
<time>2015-12-18T04:09:29.674Z</time>
</trkpt>
<trkpt lat="-26.7131418" lon="152.8984813">
<ele>388.957</ele>
<time>2015-12-18T04:09:31.700Z</time>
</trkpt>
<trkpt lat="-26.7134722" lon="152.8989311">
<ele>386.568</ele>
<time>2015-12-18T04:09:34.787Z</time>
</trkpt>
<trkpt lat="-26.7136889" lon="152.8992499">
<ele>383.700</ele>
<time>2015-12-18T04:09:36.846Z</time>
</trkpt>
<trkpt lat="-26.7139252" lon="152.8995240">
<ele>379.373</ele>
<time>2015-12-18T04:09:38.822Z</time>
</trkpt>
<trkpt lat="-26.7143450" lon="152.8998528">
<ele>374.286</ele>
<time>2015-12-18T04:09:41.837Z</time>
</trkpt>
<trkpt lat="-26.7147155" lon="152.8998302">
<ele>370.018</ele>
<time>2015-12-18T04:09:44.061Z</time>
</trkpt>
<trkpt lat="-26.7150501" lon="152.8998525">
<ele>367.387</ele>
<time>2015-12-18T04:09:46.018Z</time>
</trkpt>
<trkpt lat="-26.7153995" lon="152.8996453">
<ele>366.627</ele>
<time>2015-12-18T04:09:48.174Z</time>
</trkpt>
<trkpt lat="-26.7159421" lon="152.8993671">
<ele>367.665</ele>
<time>2015-12-18T04:09:51.314Z</time>
</trkpt>
<trkpt lat="-26.7163057" lon="152.8992308">
<ele>369.754</ele>
<time>2015-12-18T04:09:53.314Z</time>
</trkpt>
<trkpt lat="-26.7168605" lon="152.8991112">
<ele>371.664</ele>
<time>2015-12-18T04:09:56.276Z</time>
</trkpt>
<trkpt lat="-26.7172110" lon="152.8989485">
<ele>372.365</ele>
<time>2015-12-18T04:09:58.250Z</time>
</trkpt>
<trkpt lat="-26.7177505" lon="152.8986629">
<ele>371.670</ele>
<time>2015-12-18T04:10:01.288Z</time>
</trkpt>
<trkpt lat="-26.7183056" lon="152.8984111">
<ele>369.924</ele>
<time>2015-12-18T04:10:04.272Z</time>
</trkpt>
<trkpt lat="-26.7186952" lon="152.8983295">
<ele>367.091</ele>
<time>2015-12-18T04:10:06.233Z</time>
</trkpt>
<trkpt lat="-26.7192887" lon="152.8982804">
<ele>363.281</ele>
<time>2015-12-18T04:10:09.178Z</time>
</trkpt>
<trkpt lat="-26.7198972" lon="152.8983384">
<ele>359.366</ele>
<time>2015-12-18T04:10:12.177Z</time>
</trkpt>
<trkpt lat="-26.7204975" lon="152.8984787">
<ele>356.337</ele>
<time>2015-12-18T04:10:15.181Z</time>
</trkpt>
<trkpt lat="-26.7208674" lon="152.8985978">
<ele>354.850</ele>
<time>2015-12-18T04:10:17.068Z</time>
</trkpt>
<trkpt lat="-26.7214531" lon="152.8988492">
<ele>354.785</ele>
<time>2015-12-18T04:10:20.093Z</time>
</trkpt>
<trkpt lat="-26.7218487" lon="152.8990033">
<ele>354.893</ele>
<time>2015-12-18T04:10:22.079Z</time>
</trkpt>
<trkpt lat="-26.7224454" lon="152.8992280">
<ele>354.244</ele>
<time>2015-12-18T04:10:25.043Z</time>
</trkpt>
<trkpt lat="-26.7230706" lon="152.8994261">
<ele>352.808</ele>
<time>2015-12-18T04:10:28.038Z</time>
</trkpt>
<trkpt lat="-26.7235074" lon="152.8995165">
<ele>351.049</ele>
<time>2015-12-18T04:10:30.040Z</time>
</trkpt>
<trkpt lat="-26.7241664" lon="152.8995652">
<ele>349.993</ele>
<time>2015-12-18T04:10:33.017Z</time>
</trkpt>
<trkpt lat="-26.7246087" lon="152.8995419">
<ele>351.351</ele>
<time>2015-12-18T04:10:35.018Z</time>
</trkpt>
<trkpt lat="-26.7252682" lon="152.8995042">
<ele>355.646</ele>
<time>2015-12-18T04:10:38.037Z</time>
</trkpt>
<trkpt lat="-26.7257144" lon="152.8995287">
<ele>361.480</ele>
<time>2015-12-18T04:10:40.123Z</time>
</trkpt>
<trkpt lat="-26.7261335" lon="152.8995763">
<ele>367.347</ele>
<time>2015-12-18T04:10:42.100Z</time>
</trkpt>
<trkpt lat="-26.7265478" lon="152.8996316">
<ele>372.643</ele>
<time>2015-12-18T04:10:44.050Z</time>
</trkpt>
<trkpt lat="-26.7269902" lon="152.8996722">
<ele>377.101</ele>
<time>2015-12-18T04:10:46.138Z</time>
</trkpt>
<trkpt lat="-26.7276287" lon="152.8997385">
<ele>380.786</ele>
<time>2015-12-18T04:10:49.204Z</time>
</trkpt>
<trkpt lat="-26.7282420" lon="152.8998604">
<ele>384.044</ele>
<time>2015-12-18T04:10:52.285Z</time>
</trkpt>
<trkpt lat="-26.7286152" lon="152.8999757">
<ele>386.992</ele>
<time>2015-12-18T04:10:54.296Z</time>
</trkpt>
<trkpt lat="-26.7289658" lon="152.9001157">
<ele>389.133</ele>
<time>2015-12-18T04:10:56.285Z</time>
</trkpt>
<trkpt lat="-26.7293101" lon="152.9002554">
<ele>389.808</ele>
<time>2015-12-18T04:10:58.223Z</time>
</trkpt>
<trkpt lat="-26.7296466" lon="152.9004677">
<ele>389.090</ele>
<time>2015-12-18T04:11:00.165Z</time>
</trkpt>
<trkpt lat="-26.7299994" lon="152.9007068">
<ele>387.698</ele>
<time>2015-12-18T04:11:02.156Z</time>
</trkpt>
<trkpt lat="-26.7305220" lon="152.9011139">
<ele>386.170</ele>
<time>2015-12-18T04:11:05.208Z</time>
</trkpt>
<trkpt lat="-26.7310555" lon="152.9014297">
<ele>383.863</ele>
<time>2015-12-18T04:11:08.101Z</time>
</trkpt>
<trkpt lat="-26.7314331" lon="152.9016213">
<ele>380.642</ele>
<time>2015-12-18T04:11:10.113Z</time>
</trkpt>
<trkpt lat="-26.7318028" lon="152.9017759">
<ele>377.937</ele>
<time>2015-12-18T04:11:12.074Z</time>
</trkpt>
<trkpt lat="-26.7324006" lon="152.9018871">
<ele>376.761</ele>
<time>2015-12-18T04:11:15.163Z</time>
</trkpt>
<trkpt lat="-26.7329802" lon="152.9019265">
<ele>376.794</ele>
<time>2015-12-18T04:11:18.204Z</time>
</trkpt>
<trkpt lat="-26.7335334" lon="152.9018787">
<ele>377.623</ele>
<time>2015-12-18T04:11:21.118Z</time>
</trkpt>
<trkpt lat="-26.7340952" lon="152.9017581">
<ele>379.040</ele>
<time>2015-12-18T04:11:24.085Z</time>
</trkpt>
<trkpt lat="-26.7346467" lon="152.9015413">
<ele>381.321</ele>
<time>2015-12-18T04:11:27.083Z</time>
</trkpt>
<trkpt lat="-26.7349920" lon="152.9013500">
<ele>384.894</ele>
<time>2015-12-18T04:11:29.045Z</time>
</trkpt>
<trkpt lat="-26.7354937" lon="152.9010055">
<ele>388.995</ele>
<time>2015-12-18T04:11:32.022Z</time>
</trkpt>
<trkpt lat="-26.7358197" lon="152.9007396">
<ele>392.058</ele>
<time>2015-12-18T04:11:34.014Z</time>
</trkpt>
<trkpt lat="-26.7363660" lon="152.9003849">
<ele>393.528</ele>
<time>2015-12-18T04:11:37.100Z</time>
</trkpt>
<trkpt lat="-26.7367079" lon="152.9001424">
<ele>393.882</ele>
<time>2015-12-18T04:11:39.050Z</time>
</trkpt>
<trkpt lat="-26.7372259" lon="152.8997622">
<ele>393.168</ele>
<time>2015-12-18T04:11:42.021Z</time>
</trkpt>
<trkpt lat="-26.7377418" lon="152.8993732">
<ele>391.025</ele>
<time>2015-12-18T04:11:45.008Z</time>
</trkpt>
<trkpt lat="-26.7382591" lon="152.8989885">
<ele>387.641</ele>
<time>2015-12-18T04:11:48.001Z</time>
</trkpt>
<trkpt lat="-26.7387678" lon="152.8985893">
<ele>384.224</ele>
<time>2015-12-18T04:11:50.997Z</time>
</trkpt>
<trkpt lat="-26.7390831" lon="152.8982777">
<ele>382.453</ele>
<time>2015-12-18T04:11:53.031Z</time>
</trkpt>
<trkpt lat="-26.7394967" lon="152.8977732">
<ele>383.123</ele>
<time>2015-12-18T04:11:55.945Z</time>
</trkpt>
<trkpt lat="-26.7397593" lon="152.8973818">
<ele>385.552</ele>
<time>2015-12-18T04:11:58.002Z</time>
</trkpt>
<trkpt lat="-26.7401110" lon="152.8967843">
<ele>388.642</ele>
<time>2015-12-18T04:12:01.109Z</time>
</trkpt>
<trkpt lat="-26.7404723" lon="152.8962847">
<ele>391.299</ele>
<time>2015-12-18T04:12:04.018Z</time>
</trkpt>
<trkpt lat="-26.7407424" lon="152.8959734">
<ele>392.583</ele>
<time>2015-12-18T04:12:06.013Z</time>
</trkpt>
<trkpt lat="-26.7409751" lon="152.8956384">
<ele>392.497</ele>
<time>2015-12-18T04:12:07.947Z</time>
</trkpt>
<trkpt lat="-26.7412977" lon="152.8950763">
<ele>391.642</ele>
<time>2015-12-18T04:12:10.971Z</time>
</trkpt>
<trkpt lat="-26.7415027" lon="152.8947067">
<ele>390.003</ele>
<time>2015-12-18T04:12:12.911Z</time>
</trkpt>
<trkpt lat="-26.7418793" lon="152.8941771">
<ele>387.007</ele>
<time>2015-12-18T04:12:15.888Z</time>
</trkpt>
<trkpt lat="-26.7422964" lon="152.8936754">
<ele>382.219</ele>
<time>2015-12-18T04:12:18.819Z</time>
</trkpt>
<trkpt lat="-26.7427221" lon="152.8931526">
<ele>375.574</ele>
<time>2015-12-18T04:12:21.755Z</time>
</trkpt>
<trkpt lat="-26.7429922" lon="152.8927645">
<ele>367.965</ele>
<time>2015-12-18T04:12:23.750Z</time>
</trkpt>
<trkpt lat="-26.7432365" lon="152.8923636">
<ele>361.399</ele>
<time>2015-12-18T04:12:25.732Z</time>
</trkpt>
<trkpt lat="-26.7434511" lon="152.8919424">
<ele>357.531</ele>
<time>2015-12-18T04:12:27.735Z</time>
</trkpt>
<trkpt lat="-26.7436243" lon="152.8912631">
<ele>356.750</ele>
<time>2015-12-18T04:12:30.727Z</time>
</trkpt>
<trkpt lat="-26.7437957" lon="152.8906150">
<ele>358.859</ele>
<time>2015-12-18T04:12:33.683Z</time>
</trkpt>
<trkpt lat="-26.7439447" lon="152.8902089">
<ele>363.162</ele>
<time>2015-12-18T04:12:35.679Z</time>
</trkpt>
<trkpt lat="-26.7443191" lon="152.8896874">
<ele>368.113</ele>
<time>2015-12-18T04:12:38.680Z</time>
</trkpt>
<trkpt lat="-26.7449263" lon="152.8893614">
<ele>372.493</ele>
<time>2015-12-18T04:12:41.872Z</time>
</trkpt>
<trkpt lat="-26.7455285" lon="152.8890495">
<ele>376.587</ele>
<time>2015-12-18T04:12:44.851Z</time>
</trkpt>
<trkpt lat="-26.7461548" lon="152.8887458">
<ele>380.665</ele>
<time>2015-12-18T04:12:47.866Z</time>
</trkpt>
<trkpt lat="-26.7465876" lon="152.8885536">
<ele>383.888</ele>
<time>2015-12-18T04:12:50.006Z</time>
</trkpt>
<trkpt lat="-26.7471729" lon="152.8882721">
<ele>385.654</ele>
<time>2015-12-18T04:12:53.083Z</time>
</trkpt>
<trkpt lat="-26.7475381" lon="152.8881328">
<ele>386.468</ele>
<time>2015-12-18T04:12:55.144Z</time>
</trkpt>
<trkpt lat="-26.7478851" lon="152.8880422">
<ele>387.022</ele>
<time>2015-12-18T04:12:57.201Z</time>
</trkpt>
<trkpt lat="-26.7483843" lon="152.8880505">
<ele>387.634</ele>
<time>2015-12-18T04:13:00.135Z</time>
</trkpt>
<trkpt lat="-26.7488922" lon="152.8881922">
<ele>388.409</ele>
<time>2015-12-18T04:13:03.164Z</time>
</trkpt>
<trkpt lat="-26.7493707" lon="152.8884430">
<ele>389.271</ele>
<time>2015-12-18T04:13:06.067Z</time>
</trkpt>
<trkpt lat="-26.7498720" lon="152.8888126">
<ele>389.549</ele>
<time>2015-12-18T04:13:09.173Z</time>
</trkpt>
<trkpt lat="-26.7504018" lon="152.8891431">
<ele>388.812</ele>
<time>2015-12-18T04:13:12.252Z</time>
</trkpt>
<trkpt lat="-26.7507597" lon="152.8892654">
<ele>387.436</ele>
<time>2015-12-18T04:13:14.180Z</time>
</trkpt>
<trkpt lat="-26.7513602" lon="152.8893469">
<ele>385.978</ele>
<time>2015-12-18T04:13:17.297Z</time>
</trkpt>
<trkpt lat="-26.7517409" lon="152.8893296">
<ele>384.818</ele>
<time>2015-12-18T04:13:19.239Z</time>
</trkpt>
<trkpt lat="-26.7522994" lon="152.8891616">
<ele>384.212</ele>
<time>2015-12-18T04:13:22.113Z</time>
</trkpt>
<trkpt lat="-26.7528287" lon="152.8888131">
<ele>384.602</ele>
<time>2015-12-18T04:13:25.057Z</time>
</trkpt>
<trkpt lat="-26.7531363" lon="152.8884678">
<ele>386.342</ele>
<time>2015-12-18T04:13:27.117Z</time>
</trkpt>
<trkpt lat="-26.7535632" lon="152.8879282">
<ele>388.985</ele>
<time>2015-12-18T04:13:30.249Z</time>
</trkpt>
<trkpt lat="-26.7539622" lon="152.8874472">
<ele>392.040</ele>
<time>2015-12-18T04:13:33.190Z</time>
</trkpt>
<trkpt lat="-26.7544122" lon="152.8870228">
<ele>395.041</ele>
<time>2015-12-18T04:13:36.160Z</time>
</trkpt>
<trkpt lat="-26.7547601" lon="152.8868340">
<ele>397.088</ele>
<time>2015-12-18T04:13:38.116Z</time>
</trkpt>
<trkpt lat="-26.7551393" lon="152.8867402">
<ele>398.004</ele>
<time>2015-12-18T04:13:40.060Z</time>
</trkpt>
<trkpt lat="-26.7557497" lon="152.8867339">
<ele>398.476</ele>
<time>2015-12-18T04:13:43.081Z</time>
</trkpt>
<trkpt lat="-26.7561682" lon="152.8868859">
<ele>399.008</ele>
<time>2015-12-18T04:13:45.225Z</time>
</trkpt>
<trkpt lat="-26.7565153" lon="152.8871013">
<ele>399.662</ele>
<time>2015-12-18T04:13:47.171Z</time>
</trkpt>
<trkpt lat="-26.7568571" lon="152.8873146">
<ele>400.952</ele>
<time>2015-12-18T04:13:49.141Z</time>
</trkpt>
<trkpt lat="-26.7572196" lon="152.8875335">
<ele>403.493</ele>
<time>2015-12-18T04:13:51.323Z</time>
</trkpt>
<trkpt lat="-26.7577512" lon="152.8877621">
<ele>406.440</ele>
<time>2015-12-18T04:13:54.449Z</time>
</trkpt>
<trkpt lat="-26.7580825" lon="152.8878806">
<ele>409.032</ele>
<time>2015-12-18T04:13:56.307Z</time>
</trkpt>
<trkpt lat="-26.7586830" lon="152.8878064">
<ele>411.778</ele>
<time>2015-12-18T04:13:59.431Z</time>
</trkpt>
<trkpt lat="-26.7590602" lon="152.8877002">
<ele>415.074</ele>
<time>2015-12-18T04:14:01.529Z</time>
</trkpt>
<trkpt lat="-26.7595497" lon="152.8875730">
<ele>418.452</ele>
<time>2015-12-18T04:14:04.570Z</time>
</trkpt>
<trkpt lat="-26.7598346" lon="152.8874798">
<ele>420.961</ele>
<time>2015-12-18T04:14:06.616Z</time>
</trkpt>
<trkpt lat="-26.7601040" lon="152.8873962">
<ele>422.170</ele>
<time>2015-12-18T04:14:08.659Z</time>
</trkpt>
<trkpt lat="-26.7605001" lon="152.8872721">
<ele>422.572</ele>
<time>2015-12-18T04:14:11.918Z</time>
</trkpt>
<trkpt lat="-26.7607298" lon="152.8871711">
<ele>422.665</ele>
<time>2015-12-18T04:14:13.965Z</time>
</trkpt>
<trkpt lat="-26.7610810" lon="152.8870639">
<ele>422.729</ele>
<time>2015-12-18T04:14:17.091Z</time>
</trkpt>
<trkpt lat="-26.7613055" lon="152.8869948">
<ele>422.797</ele>
<time>2015-12-18T04:14:19.135Z</time>
</trkpt>
<trkpt lat="-26.7616276" lon="152.8869086">
<ele>422.764</ele>
<time>2015-12-18T04:14:21.869Z</time>
</trkpt>
<trkpt lat="-26.7620007" lon="152.8868013">
<ele>422.620</ele>
<time>2015-12-18T04:14:24.715Z</time>
</trkpt>
<trkpt lat="-26.7622686" lon="152.8867211">
<ele>422.667</ele>
<time>2015-12-18T04:14:26.712Z</time>
</trkpt>
<trkpt lat="-26.7626694" lon="152.8866026">
<ele>423.133</ele>
<time>2015-12-18T04:14:29.707Z</time>
</trkpt>
<trkpt lat="-26.7630700" lon="152.8864808">
<ele>423.749</ele>
<time>2015-12-18T04:14:32.631Z</time>
</trkpt>
<trkpt lat="-26.7634949" lon="152.8863628">
<ele>424.153</ele>
<time>2015-12-18T04:14:35.618Z</time>
</trkpt>
<trkpt lat="-26.7639233" lon="152.8862302">
<ele>424.309</ele>
<time>2015-12-18T04:14:38.586Z</time>
</trkpt>
<trkpt lat="-26.7642275" lon="152.8861498">
<ele>424.376</ele>
<time>2015-12-18T04:14:40.646Z</time>
</trkpt>
<trkpt lat="-26.7645285" lon="152.8860630">
<ele>424.499</ele>
<time>2015-12-18T04:14:42.700Z</time>
</trkpt>
<trkpt lat="-26.7649681" lon="152.8859423">
<ele>424.692</ele>
<time>2015-12-18T04:14:45.725Z</time>
</trkpt>
<trkpt lat="-26.7652562" lon="152.8858626">
<ele>424.960</ele>
<time>2015-12-18T04:14:47.707Z</time>
</trkpt>
<trkpt lat="-26.7655456" lon="152.8857718">
<ele>425.270</ele>
<time>2015-12-18T04:14:49.689Z</time>
</trkpt>
<trkpt lat="-26.7658374" lon="152.8856839">
<ele>425.575</ele>
<time>2015-12-18T04:14:51.658Z</time>
</trkpt>
<trkpt lat="-26.7662941" lon="152.8855595">
<ele>426.035</ele>
<time>2015-12-18T04:14:54.672Z</time>
</trkpt>
<trkpt lat="-26.7666022" lon="152.8854434">
<ele>426.922</ele>
<time>2015-12-18T04:14:56.777Z</time>
</trkpt>
<trkpt lat="-26.7670424" lon="152.8853161">
<ele>428.183</ele>
<time>2015-12-18T04:14:59.998Z</time>
</trkpt>
<trkpt lat="-26.7674326" lon="152.8851831">
<ele>429.549</ele>
<time>2015-12-18T04:15:03.699Z</time>
</trkpt>
<trkpt lat="-26.7677309" lon="152.8851052">
<ele>430.935</ele>
<time>2015-12-18T04:15:07.743Z</time>
</trkpt>
<trkpt lat="-26.7679514" lon="152.8850631">
<ele>432.257</ele>
<time>2015-12-18T04:15:12.206Z</time>
</trkpt>
<trkpt lat="-26.7681086" lon="152.8851083">
<ele>433.311</ele>
<time>2015-12-18T04:15:15.364Z</time>
</trkpt>
<trkpt lat="-26.7681940" lon="152.8852182">
<ele>434.028</ele>
<time>2015-12-18T04:15:16.951Z</time>
</trkpt>
<trkpt lat="-26.7682125" lon="152.8853508">
<ele>434.451</ele>
<time>2015-12-18T04:15:18.277Z</time>
</trkpt>
<trkpt lat="-26.7682326" lon="152.8857391">
<ele>435.001</ele>
<time>2015-12-18T04:15:21.100Z</time>
</trkpt>
<trkpt lat="-26.7683567" lon="152.8861636">
<ele>436.503</ele>
<time>2015-12-18T04:15:23.729Z</time>
</trkpt>
<trkpt lat="-26.7684864" lon="152.8864759">
<ele>439.085</ele>
<time>2015-12-18T04:15:25.580Z</time>
</trkpt>
<trkpt lat="-26.7686582" lon="152.8868124">
<ele>441.643</ele>
<time>2015-12-18T04:15:27.564Z</time>
</trkpt>
<trkpt lat="-26.7688220" lon="152.8871736">
<ele>443.018</ele>
<time>2015-12-18T04:15:29.600Z</time>
</trkpt>
<trkpt lat="-26.7689853" lon="152.8875228">
<ele>442.959</ele>
<time>2015-12-18T04:15:31.576Z</time>
</trkpt>
<trkpt lat="-26.7691673" lon="152.8878633">
<ele>441.811</ele>
<time>2015-12-18T04:15:33.552Z</time>
</trkpt>
<trkpt lat="-26.7694839" lon="152.8883494">
<ele>440.159</ele>
<time>2015-12-18T04:15:36.487Z</time>
</trkpt>
<trkpt lat="-26.7697757" lon="152.8886287">
<ele>438.510</ele>
<time>2015-12-18T04:15:38.494Z</time>
</trkpt>
<trkpt lat="-26.7703076" lon="152.8889240">
<ele>437.106</ele>
<time>2015-12-18T04:15:41.483Z</time>
</trkpt>
<trkpt lat="-26.7709008" lon="152.8890986">
<ele>435.727</ele>
<time>2015-12-18T04:15:44.500Z</time>
</trkpt>
<trkpt lat="-26.7714849" lon="152.8892594">
<ele>433.856</ele>
<time>2015-12-18T04:15:47.467Z</time>
</trkpt>
<trkpt lat="-26.7719043" lon="152.8893705">
<ele>431.498</ele>
<time>2015-12-18T04:15:49.617Z</time>
</trkpt>
<trkpt lat="-26.7724936" lon="152.8895112">
<ele>429.464</ele>
<time>2015-12-18T04:15:52.672Z</time>
</trkpt>
<trkpt lat="-26.7728755" lon="152.8896270">
<ele>428.654</ele>
<time>2015-12-18T04:15:54.710Z</time>
</trkpt>
<trkpt lat="-26.7732187" lon="152.8898057">
<ele>429.474</ele>
<time>2015-12-18T04:15:56.666Z</time>
</trkpt>
<trkpt lat="-26.7735595" lon="152.8900264">
<ele>431.538</ele>
<time>2015-12-18T04:15:58.660Z</time>
</trkpt>
<trkpt lat="-26.7740015" lon="152.8904527">
<ele>433.858</ele>
<time>2015-12-18T04:16:01.607Z</time>
</trkpt>
<trkpt lat="-26.7742800" lon="152.8907519">
<ele>435.882</ele>
<time>2015-12-18T04:16:03.581Z</time>
</trkpt>
<trkpt lat="-26.7746947" lon="152.8911992">
<ele>437.569</ele>
<time>2015-12-18T04:16:06.531Z</time>
</trkpt>
<trkpt lat="-26.7751394" lon="152.8916697">
<ele>438.662</ele>
<time>2015-12-18T04:16:09.714Z</time>
</trkpt>
<trkpt lat="-26.7755205" lon="152.8921483">
<ele>439.158</ele>
<time>2015-12-18T04:16:12.828Z</time>
</trkpt>
<trkpt lat="-26.7757095" lon="152.8925039">
<ele>439.508</ele>
<time>2015-12-18T04:16:14.879Z</time>
</trkpt>
<trkpt lat="-26.7758204" lon="152.8931002">
<ele>439.378</ele>
<time>2015-12-18T04:16:17.900Z</time>
</trkpt>
<trkpt lat="-26.7757745" lon="152.8934915">
<ele>438.294</ele>
<time>2015-12-18T04:16:19.821Z</time>
</trkpt>
<trkpt lat="-26.7755550" lon="152.8940733">
<ele>436.748</ele>
<time>2015-12-18T04:16:22.787Z</time>
</trkpt>
<trkpt lat="-26.7753659" lon="152.8944542">
<ele>435.544</ele>
<time>2015-12-18T04:16:24.856Z</time>
</trkpt>
<trkpt lat="-26.7751703" lon="152.8950241">
<ele>434.975</ele>
<time>2015-12-18T04:16:27.869Z</time>
</trkpt>
<trkpt lat="-26.7751071" lon="152.8954254">
<ele>435.047</ele>
<time>2015-12-18T04:16:29.893Z</time>
</trkpt>
<trkpt lat="-26.7751724" lon="152.8960146">
<ele>435.860</ele>
<time>2015-12-18T04:16:32.763Z</time>
</trkpt>
<trkpt lat="-26.7752960" lon="152.8966235">
<ele>437.570</ele>
<time>2015-12-18T04:16:35.722Z</time>
</trkpt>
<trkpt lat="-26.7753442" lon="152.8972562">
<ele>439.618</ele>
<time>2015-12-18T04:16:38.719Z</time>
</trkpt>
<trkpt lat="-26.7752504" lon="152.8979041">
<ele>440.552</ele>
<time>2015-12-18T04:16:41.807Z</time>
</trkpt>
<trkpt lat="-26.7751627" lon="152.8985294">
<ele>439.276</ele>
<time>2015-12-18T04:16:44.812Z</time>
</trkpt>
<trkpt lat="-26.7751226" lon="152.8989482">
<ele>436.608</ele>
<time>2015-12-18T04:16:46.811Z</time>
</trkpt>
<trkpt lat="-26.7752200" lon="152.8995585">
<ele>434.441</ele>
<time>2015-12-18T04:16:49.725Z</time>
</trkpt>
<trkpt lat="-26.7754188" lon="152.8999432">
<ele>433.293</ele>
<time>2015-12-18T04:16:51.787Z</time>
</trkpt>
<trkpt lat="-26.7756522" lon="152.9002752">
<ele>432.376</ele>
<time>2015-12-18T04:16:53.712Z</time>
</trkpt>
<trkpt lat="-26.7759636" lon="152.9005355">
<ele>431.210</ele>
<time>2015-12-18T04:16:55.659Z</time>
</trkpt>
<trkpt lat="-26.7763134" lon="152.9007621">
<ele>429.846</ele>
<time>2015-12-18T04:16:57.705Z</time>
</trkpt>
<trkpt lat="-26.7766524" lon="152.9010192">
<ele>428.491</ele>
<time>2015-12-18T04:16:59.844Z</time>
</trkpt>
<trkpt lat="-26.7769909" lon="152.9014993">
<ele>427.246</ele>
<time>2015-12-18T04:17:02.722Z</time>
</trkpt>
<trkpt lat="-26.7771977" lon="152.9021344">
<ele>426.179</ele>
<time>2015-12-18T04:17:05.759Z</time>
</trkpt>
<trkpt lat="-26.7773905" lon="152.9027811">
<ele>425.813</ele>
<time>2015-12-18T04:17:08.769Z</time>
</trkpt>
<trkpt lat="-26.7775259" lon="152.9031853">
<ele>426.373</ele>
<time>2015-12-18T04:17:10.662Z</time>
</trkpt>
<trkpt lat="-26.7776173" lon="152.9036134">
<ele>427.183</ele>
<time>2015-12-18T04:17:12.567Z</time>
</trkpt>
<trkpt lat="-26.7777236" lon="152.9040765">
<ele>427.758</ele>
<time>2015-12-18T04:17:14.611Z</time>
</trkpt>
<trkpt lat="-26.7778210" lon="152.9045398">
<ele>428.230</ele>
<time>2015-12-18T04:17:16.634Z</time>
</trkpt>
<trkpt lat="-26.7779296" lon="152.9052373">
<ele>428.618</ele>
<time>2015-12-18T04:17:19.669Z</time>
</trkpt>
<trkpt lat="-26.7780220" lon="152.9056868">
<ele>428.309</ele>
<time>2015-12-18T04:17:21.660Z</time>
</trkpt>
<trkpt lat="-26.7781423" lon="152.9063742">
<ele>426.439</ele>
<time>2015-12-18T04:17:24.635Z</time>
</trkpt>
<trkpt lat="-26.7782207" lon="152.9068318">
<ele>423.408</ele>
<time>2015-12-18T04:17:26.588Z</time>
</trkpt>
<trkpt lat="-26.7783154" lon="152.9073082">
<ele>420.367</ele>
<time>2015-12-18T04:17:28.642Z</time>
</trkpt>
<trkpt lat="-26.7784863" lon="152.9079888">
<ele>417.399</ele>
<time>2015-12-18T04:17:31.657Z</time>
</trkpt>
<trkpt lat="-26.7786144" lon="152.9084308">
<ele>414.291</ele>
<time>2015-12-18T04:17:33.675Z</time>
</trkpt>
<trkpt lat="-26.7787835" lon="152.9090847">
<ele>411.747</ele>
<time>2015-12-18T04:17:36.704Z</time>
</trkpt>
<trkpt lat="-26.7788929" lon="152.9097341">
<ele>410.524</ele>
<time>2015-12-18T04:17:39.702Z</time>
</trkpt>
<trkpt lat="-26.7789170" lon="152.9103694">
<ele>410.717</ele>
<time>2015-12-18T04:17:42.591Z</time>
</trkpt>
<trkpt lat="-26.7789484" lon="152.9108058">
<ele>411.712</ele>
<time>2015-12-18T04:17:44.559Z</time>
</trkpt>
<trkpt lat="-26.7791062" lon="152.9114673">
<ele>412.419</ele>
<time>2015-12-18T04:17:47.586Z</time>
</trkpt>
<trkpt lat="-26.7793291" lon="152.9121241">
<ele>411.797</ele>
<time>2015-12-18T04:17:50.638Z</time>
</trkpt>
<trkpt lat="-26.7794615" lon="152.9125558">
<ele>409.858</ele>
<time>2015-12-18T04:17:52.603Z</time>
</trkpt>
<trkpt lat="-26.7796809" lon="152.9132251">
<ele>407.775</ele>
<time>2015-12-18T04:17:55.704Z</time>
</trkpt>
<trkpt lat="-26.7797615" lon="152.9136598">
<ele>406.538</ele>
<time>2015-12-18T04:17:57.682Z</time>
</trkpt>
<trkpt lat="-26.7798875" lon="152.9142801">
<ele>406.031</ele>
<time>2015-12-18T04:18:00.577Z</time>
</trkpt>
<trkpt lat="-26.7800072" lon="152.9146839">
<ele>405.651</ele>
<time>2015-12-18T04:18:02.479Z</time>
</trkpt>
<trkpt lat="-26.7801201" lon="152.9151415">
<ele>405.146</ele>
<time>2015-12-18T04:18:04.563Z</time>
</trkpt>
<trkpt lat="-26.7802876" lon="152.9157927">
<ele>404.846</ele>
<time>2015-12-18T04:18:07.570Z</time>
</trkpt>
<trkpt lat="-26.7803804" lon="152.9162100">
<ele>404.991</ele>
<time>2015-12-18T04:18:09.535Z</time>
</trkpt>
<trkpt lat="-26.7804607" lon="152.9166309">
<ele>405.226</ele>
<time>2015-12-18T04:18:11.559Z</time>
</trkpt>
<trkpt lat="-26.7805641" lon="152.9172323">
<ele>405.056</ele>
<time>2015-12-18T04:18:14.487Z</time>
</trkpt>
<trkpt lat="-26.7806661" lon="152.9176197">
<ele>404.454</ele>
<time>2015-12-18T04:18:16.386Z</time>
</trkpt>
<trkpt lat="-26.7809631" lon="152.9181920">
<ele>403.676</ele>
<time>2015-12-18T04:18:19.416Z</time>
</trkpt>
<trkpt lat="-26.7813381" lon="152.9187127">
<ele>402.883</ele>
<time>2015-12-18T04:18:22.446Z</time>
</trkpt>
<trkpt lat="-26.7815759" lon="152.9190302">
<ele>402.102</ele>
<time>2015-12-18T04:18:24.349Z</time>
</trkpt>
<trkpt lat="-26.7819964" lon="152.9194613">
<ele>401.243</ele>
<time>2015-12-18T04:18:27.295Z</time>
</trkpt>
<trkpt lat="-26.7824859" lon="152.9197838">
<ele>400.340</ele>
<time>2015-12-18T04:18:30.183Z</time>
</trkpt>
<trkpt lat="-26.7828561" lon="152.9199641">
<ele>399.709</ele>
<time>2015-12-18T04:18:32.194Z</time>
</trkpt>
<trkpt lat="-26.7832314" lon="152.9201315">
<ele>399.511</ele>
<time>2015-12-18T04:18:34.211Z</time>
</trkpt>
<trkpt lat="-26.7836038" lon="152.9202722">
<ele>399.589</ele>
<time>2015-12-18T04:18:36.214Z</time>
</trkpt>
<trkpt lat="-26.7839786" lon="152.9203937">
<ele>399.736</ele>
<time>2015-12-18T04:18:38.275Z</time>
</trkpt>
<trkpt lat="-26.7845224" lon="152.9205040">
<ele>399.682</ele>
<time>2015-12-18T04:18:41.329Z</time>
</trkpt>
<trkpt lat="-26.7848732" lon="152.9204911">
<ele>398.972</ele>
<time>2015-12-18T04:18:43.358Z</time>
</trkpt>
<trkpt lat="-26.7851918" lon="152.9204848">
<ele>397.330</ele>
<time>2015-12-18T04:18:45.215Z</time>
</trkpt>
<trkpt lat="-26.7857096" lon="152.9205207">
<ele>395.332</ele>
<time>2015-12-18T04:18:48.152Z</time>
</trkpt>
<trkpt lat="-26.7860716" lon="152.9205845">
<ele>393.858</ele>
<time>2015-12-18T04:18:50.119Z</time>
</trkpt>
<trkpt lat="-26.7864520" lon="152.9206625">
<ele>393.147</ele>
<time>2015-12-18T04:18:52.147Z</time>
</trkpt>
<trkpt lat="-26.7870124" lon="152.9207938">
<ele>392.591</ele>
<time>2015-12-18T04:18:55.155Z</time>
</trkpt>
<trkpt lat="-26.7875806" lon="152.9209421">
<ele>391.450</ele>
<time>2015-12-18T04:18:58.244Z</time>
</trkpt>
<trkpt lat="-26.7880929" lon="152.9211546">
<ele>389.429</ele>
<time>2015-12-18T04:19:01.152Z</time>
</trkpt>
<trkpt lat="-26.7884458" lon="152.9212873">
<ele>387.060</ele>
<time>2015-12-18T04:19:03.135Z</time>
</trkpt>
<trkpt lat="-26.7887821" lon="152.9214506">
<ele>385.156</ele>
<time>2015-12-18T04:19:05.078Z</time>
</trkpt>
<trkpt lat="-26.7891182" lon="152.9216546">
<ele>383.889</ele>
<time>2015-12-18T04:19:07.063Z</time>
</trkpt>
<trkpt lat="-26.7896075" lon="152.9220211">
<ele>382.867</ele>
<time>2015-12-18T04:19:10.100Z</time>
</trkpt>
<trkpt lat="-26.7900640" lon="152.9224206">
<ele>381.703</ele>
<time>2015-12-18T04:19:13.095Z</time>
</trkpt>
<trkpt lat="-26.7905723" lon="152.9227373">
<ele>379.793</ele>
<time>2015-12-18T04:19:16.096Z</time>
</trkpt>
<trkpt lat="-26.7909313" lon="152.9229198">
<ele>376.785</ele>
<time>2015-12-18T04:19:18.124Z</time>
</trkpt>
<trkpt lat="-26.7912838" lon="152.9231313">
<ele>373.090</ele>
<time>2015-12-18T04:19:20.162Z</time>
</trkpt>
<trkpt lat="-26.7917737" lon="152.9235055">
<ele>369.364</ele>
<time>2015-12-18T04:19:23.132Z</time>
</trkpt>
<trkpt lat="-26.7922776" lon="152.9238953">
<ele>365.632</ele>
<time>2015-12-18T04:19:26.200Z</time>
</trkpt>
<trkpt lat="-26.7925560" lon="152.9241963">
<ele>361.618</ele>
<time>2015-12-18T04:19:28.176Z</time>
</trkpt>
<trkpt lat="-26.7928362" lon="152.9244834">
<ele>357.270</ele>
<time>2015-12-18T04:19:30.098Z</time>
</trkpt>
<trkpt lat="-26.7931042" lon="152.9248142">
<ele>353.017</ele>
<time>2015-12-18T04:19:32.097Z</time>
</trkpt>
<trkpt lat="-26.7935568" lon="152.9252445">
<ele>349.159</ele>
<time>2015-12-18T04:19:35.074Z</time>
</trkpt>
<trkpt lat="-26.7940656" lon="152.9256270">
<ele>345.544</ele>
<time>2015-12-18T04:19:38.145Z</time>
</trkpt>
<trkpt lat="-26.7943882" lon="152.9258927">
<ele>341.867</ele>
<time>2015-12-18T04:19:40.155Z</time>
</trkpt>
<trkpt lat="-26.7948054" lon="152.9263633">
<ele>338.061</ele>
<time>2015-12-18T04:19:43.121Z</time>
</trkpt>
<trkpt lat="-26.7950441" lon="152.9267110">
<ele>334.190</ele>
<time>2015-12-18T04:19:45.054Z</time>
</trkpt>
<trkpt lat="-26.7954104" lon="152.9272645">
<ele>330.300</ele>
<time>2015-12-18T04:19:48.069Z</time>
</trkpt>
<trkpt lat="-26.7956499" lon="152.9276329">
<ele>326.484</ele>
<time>2015-12-18T04:19:50.073Z</time>
</trkpt>
<trkpt lat="-26.7958871" lon="152.9279861">
<ele>322.771</ele>
<time>2015-12-18T04:19:52.030Z</time>
</trkpt>
<trkpt lat="-26.7961886" lon="152.9285705">
<ele>318.657</ele>
<time>2015-12-18T04:19:55.017Z</time>
</trkpt>
<trkpt lat="-26.7964800" lon="152.9291516">
<ele>313.724</ele>
<time>2015-12-18T04:19:57.912Z</time>
</trkpt>
<trkpt lat="-26.7965925" lon="152.9296383">
<ele>308.233</ele>
<time>2015-12-18T04:20:00.038Z</time>
</trkpt>
<trkpt lat="-26.7966356" lon="152.9300921">
<ele>302.786</ele>
<time>2015-12-18T04:20:01.970Z</time>
</trkpt>
<trkpt lat="-26.7966305" lon="152.9307999">
<ele>298.053</ele>
<time>2015-12-18T04:20:04.986Z</time>
</trkpt>
<trkpt lat="-26.7965618" lon="152.9314900">
<ele>293.925</ele>
<time>2015-12-18T04:20:07.948Z</time>
</trkpt>
<trkpt lat="-26.7963695" lon="152.9321817">
<ele>289.176</ele>
<time>2015-12-18T04:20:11.008Z</time>
</trkpt>
<trkpt lat="-26.7960671" lon="152.9327842">
<ele>282.607</ele>
<time>2015-12-18T04:20:13.906Z</time>
</trkpt>
<trkpt lat="-26.7956395" lon="152.9333175">
<ele>274.290</ele>
<time>2015-12-18T04:20:16.923Z</time>
</trkpt>
<trkpt lat="-26.7953254" lon="152.9336161">
<ele>265.467</ele>
<time>2015-12-18T04:20:18.936Z</time>
</trkpt>
<trkpt lat="-26.7948637" lon="152.9340149">
<ele>257.622</ele>
<time>2015-12-18T04:20:21.823Z</time>
</trkpt>
<trkpt lat="-26.7945636" lon="152.9343343">
<ele>250.798</ele>
<time>2015-12-18T04:20:23.904Z</time>
</trkpt>
<trkpt lat="-26.7942425" lon="152.9348920">
<ele>244.547</ele>
<time>2015-12-18T04:20:26.910Z</time>
</trkpt>
<trkpt lat="-26.7941047" lon="152.9353173">
<ele>239.871</ele>
<time>2015-12-18T04:20:28.955Z</time>
</trkpt>
<trkpt lat="-26.7940335" lon="152.9357545">
<ele>237.273</ele>
<time>2015-12-18T04:20:30.932Z</time>
</trkpt>
<trkpt lat="-26.7940374" lon="152.9363929">
<ele>235.765</ele>
<time>2015-12-18T04:20:33.775Z</time>
</trkpt>
<trkpt lat="-26.7940895" lon="152.9370473">
<ele>234.368</ele>
<time>2015-12-18T04:20:36.694Z</time>
</trkpt>
<trkpt lat="-26.7941021" lon="152.9377304">
<ele>231.944</ele>
<time>2015-12-18T04:20:39.724Z</time>
</trkpt>
<trkpt lat="-26.7941248" lon="152.9381676">
<ele>227.558</ele>
<time>2015-12-18T04:20:41.697Z</time>
</trkpt>
<trkpt lat="-26.7942429" lon="152.9388107">
<ele>222.350</ele>
<time>2015-12-18T04:20:44.711Z</time>
</trkpt>
<trkpt lat="-26.7945576" lon="152.9393348">
<ele>217.549</ele>
<time>2015-12-18T04:20:47.655Z</time>
</trkpt>
<trkpt lat="-26.7949518" lon="152.9398348">
<ele>212.141</ele>
<time>2015-12-18T04:20:50.720Z</time>
</trkpt>
<trkpt lat="-26.7952200" lon="152.9401500">
<ele>205.730</ele>
<time>2015-12-18T04:20:52.677Z</time>
</trkpt>
<trkpt lat="-26.7955070" lon="152.9404503">
<ele>199.910</ele>
<time>2015-12-18T04:20:54.651Z</time>
</trkpt>
<trkpt lat="-26.7959311" lon="152.9408934">
<ele>195.334</ele>
<time>2015-12-18T04:20:57.566Z</time>
</trkpt>
<trkpt lat="-26.7963523" lon="152.9413584">
<ele>190.998</ele>
<time>2015-12-18T04:21:00.536Z</time>
</trkpt>
<trkpt lat="-26.7966406" lon="152.9416968">
<ele>185.583</ele>
<time>2015-12-18T04:21:02.628Z</time>
</trkpt>
<trkpt lat="-26.7969299" lon="152.9420018">
<ele>179.112</ele>
<time>2015-12-18T04:21:04.616Z</time>
</trkpt>
<trkpt lat="-26.7973469" lon="152.9424722">
<ele>173.023</ele>
<time>2015-12-18T04:21:07.557Z</time>
</trkpt>
<trkpt lat="-26.7977811" lon="152.9429483">
<ele>167.520</ele>
<time>2015-12-18T04:21:10.532Z</time>
</trkpt>
<trkpt lat="-26.7981039" lon="152.9432514">
<ele>161.637</ele>
<time>2015-12-18T04:21:12.585Z</time>
</trkpt>
<trkpt lat="-26.7984008" lon="152.9435514">
<ele>155.645</ele>
<time>2015-12-18T04:21:14.559Z</time>
</trkpt>
<trkpt lat="-26.7988214" lon="152.9440050">
<ele>150.603</ele>
<time>2015-12-18T04:21:17.494Z</time>
</trkpt>
<trkpt lat="-26.7989971" lon="152.9444172">
<ele>146.193</ele>
<time>2015-12-18T04:21:19.561Z</time>
</trkpt>
<trkpt lat="-26.7992391" lon="152.9449931">
<ele>141.474</ele>
<time>2015-12-18T04:21:22.408Z</time>
</trkpt>
<trkpt lat="-26.7993112" lon="152.9457058">
<ele>136.352</ele>
<time>2015-12-18T04:21:25.546Z</time>
</trkpt>
<trkpt lat="-26.7992944" lon="152.9461583">
<ele>131.184</ele>
<time>2015-12-18T04:21:27.489Z</time>
</trkpt>
<trkpt lat="-26.7992625" lon="152.9466273">
<ele>126.390</ele>
<time>2015-12-18T04:21:29.471Z</time>
</trkpt>
<trkpt lat="-26.7992101" lon="152.9471017">
<ele>122.390</ele>
<time>2015-12-18T04:21:31.474Z</time>
</trkpt>
<trkpt lat="-26.7991544" lon="152.9478354">
<ele>119.316</ele>
<time>2015-12-18T04:21:34.568Z</time>
</trkpt>
<trkpt lat="-26.7991563" lon="152.9483315">
<ele>116.995</ele>
<time>2015-12-18T04:21:36.690Z</time>
</trkpt>
<trkpt lat="-26.7992317" lon="152.9489912">
<ele>115.296</ele>
<time>2015-12-18T04:21:39.566Z</time>
</trkpt>
<trkpt lat="-26.7994263" lon="152.9496305">
<ele>113.365</ele>
<time>2015-12-18T04:21:42.501Z</time>
</trkpt>
<trkpt lat="-26.7996651" lon="152.9502549">
<ele>110.344</ele>
<time>2015-12-18T04:21:45.438Z</time>
</trkpt>
<trkpt lat="-26.7999227" lon="152.9508873">
<ele>106.571</ele>
<time>2015-12-18T04:21:48.424Z</time>
</trkpt>
<trkpt lat="-26.8001995" lon="152.9515318">
<ele>102.357</ele>
<time>2015-12-18T04:21:51.492Z</time>
</trkpt>
<trkpt lat="-26.8005103" lon="152.9521181">
<ele>97.718</ele>
<time>2015-12-18T04:21:54.476Z</time>
</trkpt>
<trkpt lat="-26.8008498" lon="152.9526327">
<ele>93.045</ele>
<time>2015-12-18T04:21:57.427Z</time>
</trkpt>
<trkpt lat="-26.8010770" lon="152.9529186">
<ele>88.424</ele>
<time>2015-12-18T04:21:59.391Z</time>
</trkpt>
<trkpt lat="-26.8013946" lon="152.9533044">
<ele>84.281</ele>
<time>2015-12-18T04:22:02.267Z</time>
</trkpt>
<trkpt lat="-26.8016275" lon="152.9535099">
<ele>80.993</ele>
<time>2015-12-18T04:22:04.232Z</time>
</trkpt>
<trkpt lat="-26.8019202" lon="152.9538576">
<ele>78.285</ele>
<time>2015-12-18T04:22:07.126Z</time>
</trkpt>
<trkpt lat="-26.8021721" lon="152.9542658">
<ele>76.122</ele>
<time>2015-12-18T04:22:10.111Z</time>
</trkpt>
<trkpt lat="-26.8023203" lon="152.9545690">
<ele>74.415</ele>
<time>2015-12-18T04:22:12.136Z</time>
</trkpt>
<trkpt lat="-26.8025021" lon="152.9550452">
<ele>72.724</ele>
<time>2015-12-18T04:22:15.147Z</time>
</trkpt>
<trkpt lat="-26.8026072" lon="152.9553732">
<ele>70.678</ele>
<time>2015-12-18T04:22:17.147Z</time>
</trkpt>
<trkpt lat="-26.8027732" lon="152.9558653">
<ele>68.484</ele>
<time>2015-12-18T04:22:20.131Z</time>
</trkpt>
<trkpt lat="-26.8028750" lon="152.9561979">
<ele>66.697</ele>
<time>2015-12-18T04:22:22.114Z</time>
</trkpt>
<trkpt lat="-26.8029866" lon="152.9565216">
<ele>65.311</ele>
<time>2015-12-18T04:22:24.105Z</time>
</trkpt>
<trkpt lat="-26.8031135" lon="152.9568281">
<ele>63.853</ele>
<time>2015-12-18T04:22:26.073Z</time>
</trkpt>
<trkpt lat="-26.8032607" lon="152.9571265">
<ele>61.987</ele>
<time>2015-12-18T04:22:28.059Z</time>
</trkpt>
<trkpt lat="-26.8034247" lon="152.9574153">
<ele>59.722</ele>
<time>2015-12-18T04:22:30.064Z</time>
</trkpt>
<trkpt lat="-26.8036862" lon="152.9578146">
<ele>57.248</ele>
<time>2015-12-18T04:22:33.029Z</time>
</trkpt>
<trkpt lat="-26.8039613" lon="152.9581625">
<ele>54.730</ele>
<time>2015-12-18T04:22:35.915Z</time>
</trkpt>
<trkpt lat="-26.8042669" lon="152.9584963">
<ele>52.376</ele>
<time>2015-12-18T04:22:38.978Z</time>
</trkpt>
<trkpt lat="-26.8044681" lon="152.9586998">
<ele>50.330</ele>
<time>2015-12-18T04:22:40.963Z</time>
</trkpt>
<trkpt lat="-26.8046506" lon="152.9589110">
<ele>48.706</ele>
<time>2015-12-18T04:22:42.882Z</time>
</trkpt>
<trkpt lat="-26.8049411" lon="152.9592487">
<ele>47.722</ele>
<time>2015-12-18T04:22:45.955Z</time>
</trkpt>
<trkpt lat="-26.8052053" lon="152.9595731">
<ele>46.970</ele>
<time>2015-12-18T04:22:48.984Z</time>
</trkpt>
<trkpt lat="-26.8054217" lon="152.9598748">
<ele>45.936</ele>
<time>2015-12-18T04:22:52.014Z</time>
</trkpt>
<trkpt lat="-26.8055856" lon="152.9601074">
<ele>44.734</ele>
<time>2015-12-18T04:22:54.775Z</time>
</trkpt>
<trkpt lat="-26.8056515" lon="152.9602669">
<ele>43.355</ele>
<time>2015-12-18T04:22:56.549Z</time>
</trkpt>
<trkpt lat="-26.8057773" lon="152.9606031">
<ele>41.799</ele>
<time>2015-12-18T04:22:59.771Z</time>
</trkpt>
<trkpt lat="-26.8058602" lon="152.9608756">
<ele>40.903</ele>
<time>2015-12-18T04:23:01.822Z</time>
</trkpt>
<trkpt lat="-26.8059599" lon="152.9613402">
<ele>41.254</ele>
<time>2015-12-18T04:23:04.878Z</time>
</trkpt>
<trkpt lat="-26.8060497" lon="152.9616528">
<ele>42.437</ele>
<time>2015-12-18T04:23:06.870Z</time>
</trkpt>
<trkpt lat="-26.8063043" lon="152.9620494">
<ele>43.706</ele>
<time>2015-12-18T04:23:09.802Z</time>
</trkpt>
<trkpt lat="-26.8065467" lon="152.9622809">
<ele>44.676</ele>
<time>2015-12-18T04:23:11.886Z</time>
</trkpt>
<trkpt lat="-26.8067881" lon="152.9624919">
<ele>45.351</ele>
<time>2015-12-18T04:23:13.856Z</time>
</trkpt>
<trkpt lat="-26.8070282" lon="152.9627160">
<ele>45.804</ele>
<time>2015-12-18T04:23:15.865Z</time>
</trkpt>
<trkpt lat="-26.8072679" lon="152.9629374">
<ele>45.939</ele>
<time>2015-12-18T04:23:17.900Z</time>
</trkpt>
<trkpt lat="-26.8076056" lon="152.9632513">
<ele>45.695</ele>
<time>2015-12-18T04:23:20.860Z</time>
</trkpt>
<trkpt lat="-26.8078494" lon="152.9634637">
<ele>45.244</ele>
<time>2015-12-18T04:23:22.946Z</time>
</trkpt>
<trkpt lat="-26.8080830" lon="152.9636716">
<ele>44.703</ele>
<time>2015-12-18T04:23:24.946Z</time>
</trkpt>
<trkpt lat="-26.8084173" lon="152.9640062">
<ele>44.067</ele>
<time>2015-12-18T04:23:28.011Z</time>
</trkpt>
<trkpt lat="-26.8087004" lon="152.9643571">
<ele>42.954</ele>
<time>2015-12-18T04:23:31.028Z</time>
</trkpt>
<trkpt lat="-26.8088455" lon="152.9645821">
<ele>41.089</ele>
<time>2015-12-18T04:23:32.918Z</time>
</trkpt>
<trkpt lat="-26.8089607" lon="152.9648203">
<ele>38.983</ele>
<time>2015-12-18T04:23:34.873Z</time>
</trkpt>
<trkpt lat="-26.8090937" lon="152.9651922">
<ele>37.272</ele>
<time>2015-12-18T04:23:37.896Z</time>
</trkpt>
<trkpt lat="-26.8092373" lon="152.9655435">
<ele>36.101</ele>
<time>2015-12-18T04:23:40.996Z</time>
</trkpt>
<trkpt lat="-26.8093344" lon="152.9658568">
<ele>35.461</ele>
<time>2015-12-18T04:23:43.817Z</time>
</trkpt>
<trkpt lat="-26.8094061" lon="152.9660658">
<ele>35.077</ele>
<time>2015-12-18T04:23:45.839Z</time>
</trkpt>
<trkpt lat="-26.8094513" lon="152.9662567">
<ele>34.735</ele>
<time>2015-12-18T04:23:47.902Z</time>
</trkpt>
<trkpt lat="-26.8094954" lon="152.9664757">
<ele>34.442</ele>
<time>2015-12-18T04:23:51.064Z</time>
</trkpt>
<trkpt lat="-26.8095411" lon="152.9665926">
<ele>34.061</ele>
<time>2015-12-18T04:23:53.712Z</time>
</trkpt>
<trkpt lat="-26.8097624" lon="152.9666808">
<ele>33.500</ele>
<time>2015-12-18T04:23:57.706Z</time>
</trkpt>
<trkpt lat="-26.8099557" lon="152.9666864">
<ele>33.272</ele>
<time>2015-12-18T04:23:59.736Z</time>
</trkpt>
<trkpt lat="-26.8103053" lon="152.9665659">
<ele>33.962</ele>
<time>2015-12-18T04:24:02.982Z</time>
</trkpt>
<trkpt lat="-26.8105362" lon="152.9664950">
<ele>35.232</ele>
<time>2015-12-18T04:24:04.939Z</time>
</trkpt>
<trkpt lat="-26.8107833" lon="152.9664017">
<ele>36.413</ele>
<time>2015-12-18T04:24:07.010Z</time>
</trkpt>
<trkpt lat="-26.8110413" lon="152.9663233">
<ele>37.288</ele>
<time>2015-12-18T04:24:09.096Z</time>
</trkpt>
<trkpt lat="-26.8112892" lon="152.9662577">
<ele>37.798</ele>
<time>2015-12-18T04:24:11.160Z</time>
</trkpt>
<trkpt lat="-26.8116316" lon="152.9661842">
<ele>37.819</ele>
<time>2015-12-18T04:24:14.170Z</time>
</trkpt>
<trkpt lat="-26.8118416" lon="152.9661766">
<ele>37.308</ele>
<time>2015-12-18T04:24:16.289Z</time>
</trkpt>
<trkpt lat="-26.8119725" lon="152.9662035">
<ele>36.437</ele>
<time>2015-12-18T04:24:18.269Z</time>
</trkpt>
<trkpt lat="-26.8120507" lon="152.9662572">
<ele>35.478</ele>
<time>2015-12-18T04:24:20.000Z</time>
</trkpt>
<trkpt lat="-26.8120507" lon="152.9662572">
<ele>34.616</ele>
<time>2015-12-18T04:24:23.000Z</time>
</trkpt>
<trkpt lat="-26.8120507" lon="152.9662572">
<ele>34.132</ele>
<time>2015-12-18T04:24:43.399Z</time>
</trkpt>
<trkpt lat="-26.8121843" lon="152.9663232">
<ele>34.274</ele>
<time>2015-12-18T04:24:48.252Z</time>
</trkpt>
<trkpt lat="-26.8123251" lon="152.9662860">
<ele>34.908</ele>
<time>2015-12-18T04:24:50.362Z</time>
</trkpt>
<trkpt lat="-26.8124905" lon="152.9661099">
<ele>35.710</ele>
<time>2015-12-18T04:24:53.054Z</time>
</trkpt>
<trkpt lat="-26.8126326" lon="152.9658752">
<ele>36.463</ele>
<time>2015-12-18T04:24:55.286Z</time>
</trkpt>
<trkpt lat="-26.8127741" lon="152.9656107">
<ele>37.262</ele>
<time>2015-12-18T04:24:57.333Z</time>
</trkpt>
<trkpt lat="-26.8129695" lon="152.9653458">
<ele>38.326</ele>
<time>2015-12-18T04:24:59.438Z</time>
</trkpt>
<trkpt lat="-26.8133000" lon="152.9649421">
<ele>39.485</ele>
<time>2015-12-18T04:25:02.527Z</time>
</trkpt>
<trkpt lat="-26.8135142" lon="152.9646838">
<ele>40.359</ele>
<time>2015-12-18T04:25:04.491Z</time>
</trkpt>
<trkpt lat="-26.8138459" lon="152.9643328">
<ele>40.936</ele>
<time>2015-12-18T04:25:07.334Z</time>
</trkpt>
<trkpt lat="-26.8142163" lon="152.9640054">
<ele>41.512</ele>
<time>2015-12-18T04:25:10.238Z</time>
</trkpt>
<trkpt lat="-26.8144788" lon="152.9638060">
<ele>42.188</ele>
<time>2015-12-18T04:25:12.189Z</time>
</trkpt>
<trkpt lat="-26.8148754" lon="152.9635607">
<ele>42.847</ele>
<time>2015-12-18T04:25:15.036Z</time>
</trkpt>
<trkpt lat="-26.8151316" lon="152.9634191">
<ele>43.352</ele>
<time>2015-12-18T04:25:16.887Z</time>
</trkpt>
<trkpt lat="-26.8154029" lon="152.9632952">
<ele>43.636</ele>
<time>2015-12-18T04:25:18.755Z</time>
</trkpt>
<trkpt lat="-26.8158528" lon="152.9631054">
<ele>43.247</ele>
<time>2015-12-18T04:25:21.690Z</time>
</trkpt>
<trkpt lat="-26.8163343" lon="152.9629419">
<ele>42.487</ele>
<time>2015-12-18T04:25:24.619Z</time>
</trkpt>
<trkpt lat="-26.8168359" lon="152.9628237">
<ele>42.244</ele>
<time>2015-12-18T04:25:27.544Z</time>
</trkpt>
<trkpt lat="-26.8173140" lon="152.9627290">
<ele>42.403</ele>
<time>2015-12-18T04:25:30.327Z</time>
</trkpt>
<trkpt lat="-26.8176366" lon="152.9626680">
<ele>42.410</ele>
<time>2015-12-18T04:25:32.217Z</time>
</trkpt>
<trkpt lat="-26.8181611" lon="152.9625469">
<ele>42.418</ele>
<time>2015-12-18T04:25:35.246Z</time>
</trkpt>
<trkpt lat="-26.8185133" lon="152.9624717">
<ele>42.745</ele>
<time>2015-12-18T04:25:37.217Z</time>
</trkpt>
<trkpt lat="-26.8190421" lon="152.9623669">
<ele>43.584</ele>
<time>2015-12-18T04:25:40.164Z</time>
</trkpt>
<trkpt lat="-26.8193719" lon="152.9622901">
<ele>44.568</ele>
<time>2015-12-18T04:25:42.035Z</time>
</trkpt>
<trkpt lat="-26.8197071" lon="152.9622190">
<ele>44.990</ele>
<time>2015-12-18T04:25:43.962Z</time>
</trkpt>
<trkpt lat="-26.8202459" lon="152.9621018">
<ele>44.665</ele>
<time>2015-12-18T04:25:47.000Z</time>
</trkpt>
<trkpt lat="-26.8208072" lon="152.9619831">
<ele>44.165</ele>
<time>2015-12-18T04:25:50.000Z</time>
</trkpt>
<trkpt lat="-26.8214055" lon="152.9618363">
<ele>44.131</ele>
<time>2015-12-18T04:25:53.000Z</time>
</trkpt>
<trkpt lat="-26.8218041" lon="152.9617370">
<ele>44.713</ele>
<time>2015-12-18T04:25:55.005Z</time>
</trkpt>
<trkpt lat="-26.8222013" lon="152.9616557">
<ele>45.579</ele>
<time>2015-12-18T04:25:56.967Z</time>
</trkpt>
<trkpt lat="-26.8227967" lon="152.9615624">
<ele>46.218</ele>
<time>2015-12-18T04:25:59.863Z</time>
</trkpt>
<trkpt lat="-26.8233989" lon="152.9613920">
<ele>46.387</ele>
<time>2015-12-18T04:26:02.838Z</time>
</trkpt>
<trkpt lat="-26.8240185" lon="152.9612407">
<ele>46.281</ele>
<time>2015-12-18T04:26:05.872Z</time>
</trkpt>
<trkpt lat="-26.8246212" lon="152.9610906">
<ele>46.249</ele>
<time>2015-12-18T04:26:08.827Z</time>
</trkpt>
<trkpt lat="-26.8250231" lon="152.9609885">
<ele>46.382</ele>
<time>2015-12-18T04:26:10.804Z</time>
</trkpt>
<trkpt lat="-26.8256350" lon="152.9608485">
<ele>46.529</ele>
<time>2015-12-18T04:26:13.809Z</time>
</trkpt>
<trkpt lat="-26.8260495" lon="152.9607268">
<ele>46.616</ele>
<time>2015-12-18T04:26:15.875Z</time>
</trkpt>
<trkpt lat="-26.8264508" lon="152.9606132">
<ele>46.646</ele>
<time>2015-12-18T04:26:17.877Z</time>
</trkpt>
<trkpt lat="-26.8270502" lon="152.9604828">
<ele>46.547</ele>
<time>2015-12-18T04:26:20.868Z</time>
</trkpt>
<trkpt lat="-26.8276936" lon="152.9602848">
<ele>45.971</ele>
<time>2015-12-18T04:26:24.118Z</time>
</trkpt>
<trkpt lat="-26.8282817" lon="152.9601711">
<ele>44.890</ele>
<time>2015-12-18T04:26:27.021Z</time>
</trkpt>
<trkpt lat="-26.8288522" lon="152.9600347">
<ele>43.928</ele>
<time>2015-12-18T04:26:29.918Z</time>
</trkpt>
<trkpt lat="-26.8294423" lon="152.9598671">
<ele>43.383</ele>
<time>2015-12-18T04:26:32.985Z</time>
</trkpt>
<trkpt lat="-26.8298103" lon="152.9597898">
<ele>42.903</ele>
<time>2015-12-18T04:26:34.905Z</time>
</trkpt>
<trkpt lat="-26.8301968" lon="152.9597152">
<ele>42.379</ele>
<time>2015-12-18T04:26:36.921Z</time>
</trkpt>
<trkpt lat="-26.8305949" lon="152.9595940">
<ele>42.354</ele>
<time>2015-12-18T04:26:39.015Z</time>
</trkpt>
<trkpt lat="-26.8309691" lon="152.9594963">
<ele>43.224</ele>
<time>2015-12-18T04:26:40.971Z</time>
</trkpt>
<trkpt lat="-26.8315635" lon="152.9593454">
<ele>44.628</ele>
<time>2015-12-18T04:26:44.073Z</time>
</trkpt>
<trkpt lat="-26.8321219" lon="152.9592352">
<ele>46.224</ele>
<time>2015-12-18T04:26:46.954Z</time>
</trkpt>
<trkpt lat="-26.8325119" lon="152.9591443">
<ele>47.808</ele>
<time>2015-12-18T04:26:48.975Z</time>
</trkpt>
<trkpt lat="-26.8329073" lon="152.9590403">
<ele>48.865</ele>
<time>2015-12-18T04:26:51.008Z</time>
</trkpt>
<trkpt lat="-26.8334904" lon="152.9589242">
<ele>49.192</ele>
<time>2015-12-18T04:26:53.960Z</time>
</trkpt>
<trkpt lat="-26.8338803" lon="152.9588152">
<ele>49.157</ele>
<time>2015-12-18T04:26:55.970Z</time>
</trkpt>
<trkpt lat="-26.8342699" lon="152.9587249">
<ele>49.350</ele>
<time>2015-12-18T04:26:57.974Z</time>
</trkpt>
<trkpt lat="-26.8348557" lon="152.9586378">
<ele>49.992</ele>
<time>2015-12-18T04:27:00.960Z</time>
</trkpt>
<trkpt lat="-26.8354342" lon="152.9585673">
<ele>50.509</ele>
<time>2015-12-18T04:27:03.913Z</time>
</trkpt>
<trkpt lat="-26.8358254" lon="152.9585445">
<ele>50.329</ele>
<time>2015-12-18T04:27:05.908Z</time>
</trkpt>
<trkpt lat="-26.8364173" lon="152.9585398">
<ele>49.692</ele>
<time>2015-12-18T04:27:08.907Z</time>
</trkpt>
<trkpt lat="-26.8370277" lon="152.9585293">
<ele>49.066</ele>
<time>2015-12-18T04:27:11.980Z</time>
</trkpt>
<trkpt lat="-26.8374227" lon="152.9585308">
<ele>48.140</ele>
<time>2015-12-18T04:27:13.974Z</time>
</trkpt>
<trkpt lat="-26.8380083" lon="152.9585329">
<ele>46.636</ele>
<time>2015-12-18T04:27:16.950Z</time>
</trkpt>
<trkpt lat="-26.8385970" lon="152.9585394">
<ele>42.135</ele>
<time>2015-12-18T04:27:19.956Z</time>
</trkpt>
<trkpt lat="-26.8391919" lon="152.9585344">
<ele>33.370</ele>
<time>2015-12-18T04:27:22.972Z</time>
</trkpt>
<trkpt lat="-26.8395867" lon="152.9585334">
<ele>24.992</ele>
<time>2015-12-18T04:27:24.946Z</time>
</trkpt>
<trkpt lat="-26.8401909" lon="152.9585432">
<ele>21.298</ele>
<time>2015-12-18T04:27:27.974Z</time>
</trkpt>
<trkpt lat="-26.8405779" lon="152.9585502">
<ele>20.967</ele>
<time>2015-12-18T04:27:29.941Z</time>
</trkpt>
<trkpt lat="-26.8409696" lon="152.9585544">
<ele>21.785</ele>
<time>2015-12-18T04:27:31.934Z</time>
</trkpt>
<trkpt lat="-26.8415623" lon="152.9585492">
<ele>22.563</ele>
<time>2015-12-18T04:27:34.935Z</time>
</trkpt>
<trkpt lat="-26.8419787" lon="152.9585211">
<ele>23.161</ele>
<time>2015-12-18T04:27:37.040Z</time>
</trkpt>
<trkpt lat="-26.8423667" lon="152.9585217">
<ele>23.785</ele>
<time>2015-12-18T04:27:38.993Z</time>
</trkpt>
<trkpt lat="-26.8429714" lon="152.9585055">
<ele>24.447</ele>
<time>2015-12-18T04:27:42.019Z</time>
</trkpt>
<trkpt lat="-26.8435743" lon="152.9584616">
<ele>24.950</ele>
<time>2015-12-18T04:27:45.008Z</time>
</trkpt>
<trkpt lat="-26.8439769" lon="152.9584349">
<ele>25.190</ele>
<time>2015-12-18T04:27:46.978Z</time>
</trkpt>
<trkpt lat="-26.8443905" lon="152.9584111">
<ele>25.276</ele>
<time>2015-12-18T04:27:48.979Z</time>
</trkpt>
<trkpt lat="-26.8448038" lon="152.9583615">
<ele>25.390</ele>
<time>2015-12-18T04:27:51.000Z</time>
</trkpt>
<trkpt lat="-26.8454134" lon="152.9582969">
<ele>25.641</ele>
<time>2015-12-18T04:27:53.993Z</time>
</trkpt>
<trkpt lat="-26.8458267" lon="152.9582498">
<ele>26.054</ele>
<time>2015-12-18T04:27:56.008Z</time>
</trkpt>
<trkpt lat="-26.8462397" lon="152.9581850">
<ele>26.487</ele>
<time>2015-12-18T04:27:58.023Z</time>
</trkpt>
<trkpt lat="-26.8468464" lon="152.9580934">
<ele>26.676</ele>
<time>2015-12-18T04:28:01.008Z</time>
</trkpt>
<trkpt lat="-26.8472598" lon="152.9580577">
<ele>26.485</ele>
<time>2015-12-18T04:28:03.030Z</time>
</trkpt>
<trkpt lat="-26.8478892" lon="152.9579996">
<ele>25.699</ele>
<time>2015-12-18T04:28:06.072Z</time>
</trkpt>
<trkpt lat="-26.8485369" lon="152.9579714">
<ele>24.369</ele>
<time>2015-12-18T04:28:09.178Z</time>
</trkpt>
<trkpt lat="-26.8489441" lon="152.9580162">
<ele>23.258</ele>
<time>2015-12-18T04:28:11.154Z</time>
</trkpt>
<trkpt lat="-26.8493421" lon="152.9580846">
<ele>23.580</ele>
<time>2015-12-18T04:28:13.119Z</time>
</trkpt>
<trkpt lat="-26.8499284" lon="152.9581936">
<ele>25.531</ele>
<time>2015-12-18T04:28:16.055Z</time>
</trkpt>
<trkpt lat="-26.8503069" lon="152.9582922">
<ele>27.758</ele>
<time>2015-12-18T04:28:18.024Z</time>
</trkpt>
<trkpt lat="-26.8508641" lon="152.9585072">
<ele>28.794</ele>
<time>2015-12-18T04:28:21.041Z</time>
</trkpt>
<trkpt lat="-26.8512331" lon="152.9586456">
<ele>28.494</ele>
<time>2015-12-18T04:28:23.019Z</time>
</trkpt>
<trkpt lat="-26.8517766" lon="152.9588946">
<ele>27.456</ele>
<time>2015-12-18T04:28:26.018Z</time>
</trkpt>
<trkpt lat="-26.8521371" lon="152.9590529">
<ele>26.319</ele>
<time>2015-12-18T04:28:28.001Z</time>
</trkpt>
<trkpt lat="-26.8526919" lon="152.9592893">
<ele>25.318</ele>
<time>2015-12-18T04:28:31.029Z</time>
</trkpt>
<trkpt lat="-26.8532451" lon="152.9595114">
<ele>24.644</ele>
<time>2015-12-18T04:28:34.012Z</time>
</trkpt>
<trkpt lat="-26.8538049" lon="152.9597356">
<ele>24.475</ele>
<time>2015-12-18T04:28:37.015Z</time>
</trkpt>
<trkpt lat="-26.8541923" lon="152.9598807">
<ele>24.648</ele>
<time>2015-12-18T04:28:39.058Z</time>
</trkpt>
<trkpt lat="-26.8547688" lon="152.9601111">
<ele>24.847</ele>
<time>2015-12-18T04:28:42.090Z</time>
</trkpt>
<trkpt lat="-26.8551520" lon="152.9602574">
<ele>24.997</ele>
<time>2015-12-18T04:28:44.087Z</time>
</trkpt>
<trkpt lat="-26.8555443" lon="152.9603897">
<ele>25.073</ele>
<time>2015-12-18T04:28:46.115Z</time>
</trkpt>
<trkpt lat="-26.8561188" lon="152.9606341">
<ele>24.997</ele>
<time>2015-12-18T04:28:49.165Z</time>
</trkpt>
<trkpt lat="-26.8564976" lon="152.9607559">
<ele>24.765</ele>
<time>2015-12-18T04:28:51.133Z</time>
</trkpt>
<trkpt lat="-26.8568693" lon="152.9608977">
<ele>24.533</ele>
<time>2015-12-18T04:28:53.116Z</time>
</trkpt>
<trkpt lat="-26.8574180" lon="152.9611095">
<ele>24.352</ele>
<time>2015-12-18T04:28:56.085Z</time>
</trkpt>
<trkpt lat="-26.8579490" lon="152.9613205">
<ele>23.981</ele>
<time>2015-12-18T04:28:59.044Z</time>
</trkpt>
<trkpt lat="-26.8582934" lon="152.9614649">
<ele>23.316</ele>
<time>2015-12-18T04:29:01.014Z</time>
</trkpt>
<trkpt lat="-26.8588121" lon="152.9616391">
<ele>22.687</ele>
<time>2015-12-18T04:29:03.937Z</time>
</trkpt>
<trkpt lat="-26.8591744" lon="152.9617606">
<ele>22.609</ele>
<time>2015-12-18T04:29:05.968Z</time>
</trkpt>
<trkpt lat="-26.8595423" lon="152.9618688">
<ele>23.195</ele>
<time>2015-12-18T04:29:07.984Z</time>
</trkpt>
<trkpt lat="-26.8600977" lon="152.9620120">
<ele>23.963</ele>
<time>2015-12-18T04:29:10.978Z</time>
</trkpt>
<trkpt lat="-26.8604669" lon="152.9620888">
<ele>24.506</ele>
<time>2015-12-18T04:29:12.949Z</time>
</trkpt>
<trkpt lat="-26.8610279" lon="152.9621728">
<ele>24.937</ele>
<time>2015-12-18T04:29:15.927Z</time>
</trkpt>
<trkpt lat="-26.8615843" lon="152.9622409">
<ele>25.333</ele>
<time>2015-12-18T04:29:18.922Z</time>
</trkpt>
<trkpt lat="-26.8620904" lon="152.9622857">
<ele>25.488</ele>
<time>2015-12-18T04:29:21.854Z</time>
</trkpt>
<trkpt lat="-26.8623821" lon="152.9622882">
<ele>24.934</ele>
<time>2015-12-18T04:29:23.717Z</time>
</trkpt>
<trkpt lat="-26.8627944" lon="152.9622965">
<ele>23.527</ele>
<time>2015-12-18T04:29:26.599Z</time>
</trkpt>
<trkpt lat="-26.8630770" lon="152.9623081">
<ele>21.983</ele>
<time>2015-12-18T04:29:28.645Z</time>
</trkpt>
<trkpt lat="-26.8635287" lon="152.9622929">
<ele>21.148</ele>
<time>2015-12-18T04:29:31.816Z</time>
</trkpt>
<trkpt lat="-26.8638071" lon="152.9622642">
<ele>21.079</ele>
<time>2015-12-18T04:29:33.743Z</time>
</trkpt>
<trkpt lat="-26.8641016" lon="152.9622302">
<ele>21.219</ele>
<time>2015-12-18T04:29:35.793Z</time>
</trkpt>
<trkpt lat="-26.8645502" lon="152.9621602">
<ele>20.997</ele>
<time>2015-12-18T04:29:38.876Z</time>
</trkpt>
<trkpt lat="-26.8649918" lon="152.9620945">
<ele>20.396</ele>
<time>2015-12-18T04:29:41.851Z</time>
</trkpt>
<trkpt lat="-26.8654305" lon="152.9619973">
<ele>19.536</ele>
<time>2015-12-18T04:29:44.818Z</time>
</trkpt>
<trkpt lat="-26.8657226" lon="152.9619211">
<ele>18.245</ele>
<time>2015-12-18T04:29:46.809Z</time>
</trkpt>
<trkpt lat="-26.8660345" lon="152.9618233">
<ele>16.528</ele>
<time>2015-12-18T04:29:48.900Z</time>
</trkpt>
<trkpt lat="-26.8665383" lon="152.9616659">
<ele>14.913</ele>
<time>2015-12-18T04:29:52.045Z</time>
</trkpt>
<trkpt lat="-26.8670461" lon="152.9615215">
<ele>13.886</ele>
<time>2015-12-18T04:29:55.075Z</time>
</trkpt>
<trkpt lat="-26.8673843" lon="152.9614303">
<ele>13.339</ele>
<time>2015-12-18T04:29:57.088Z</time>
</trkpt>
<trkpt lat="-26.8677112" lon="152.9613283">
<ele>12.824</ele>
<time>2015-12-18T04:29:59.060Z</time>
</trkpt>
<trkpt lat="-26.8682091" lon="152.9612323">
<ele>12.372</ele>
<time>2015-12-18T04:30:02.018Z</time>
</trkpt>
<trkpt lat="-26.8687134" lon="152.9611302">
<ele>12.184</ele>
<time>2015-12-18T04:30:05.031Z</time>
</trkpt>
<trkpt lat="-26.8692211" lon="152.9610181">
<ele>12.121</ele>
<time>2015-12-18T04:30:08.066Z</time>
</trkpt>
<trkpt lat="-26.8697252" lon="152.9609188">
<ele>11.991</ele>
<time>2015-12-18T04:30:11.072Z</time>
</trkpt>
<trkpt lat="-26.8700646" lon="152.9608482">
<ele>11.821</ele>
<time>2015-12-18T04:30:13.089Z</time>
</trkpt>
<trkpt lat="-26.8703946" lon="152.9608103">
<ele>11.830</ele>
<time>2015-12-18T04:30:14.997Z</time>
</trkpt>
<trkpt lat="-26.8709134" lon="152.9607286">
<ele>12.209</ele>
<time>2015-12-18T04:30:17.972Z</time>
</trkpt>
<trkpt lat="-26.8712653" lon="152.9606714">
<ele>12.872</ele>
<time>2015-12-18T04:30:19.974Z</time>
</trkpt>
<trkpt lat="-26.8718067" lon="152.9605644">
<ele>13.582</ele>
<time>2015-12-18T04:30:23.053Z</time>
</trkpt>
<trkpt lat="-26.8721598" lon="152.9605005">
<ele>14.171</ele>
<time>2015-12-18T04:30:25.050Z</time>
</trkpt>
<trkpt lat="-26.8726905" lon="152.9603983">
<ele>14.780</ele>
<time>2015-12-18T04:30:28.051Z</time>
</trkpt>
<trkpt lat="-26.8732177" lon="152.9603001">
<ele>15.641</ele>
<time>2015-12-18T04:30:31.031Z</time>
</trkpt>
<trkpt lat="-26.8737565" lon="152.9601923">
<ele>16.522</ele>
<time>2015-12-18T04:30:34.098Z</time>
</trkpt>
<trkpt lat="-26.8740989" lon="152.9601366">
<ele>17.023</ele>
<time>2015-12-18T04:30:36.056Z</time>
</trkpt>
<trkpt lat="-26.8744594" lon="152.9600885">
<ele>16.923</ele>
<time>2015-12-18T04:30:38.113Z</time>
</trkpt>
<trkpt lat="-26.8750072" lon="152.9600937">
<ele>16.349</ele>
<time>2015-12-18T04:30:41.175Z</time>
</trkpt>
<trkpt lat="-26.8753623" lon="152.9601416">
<ele>15.762</ele>
<time>2015-12-18T04:30:43.160Z</time>
</trkpt>
<trkpt lat="-26.8759016" lon="152.9602483">
<ele>15.477</ele>
<time>2015-12-18T04:30:46.189Z</time>
</trkpt>
<trkpt lat="-26.8764072" lon="152.9604549">
<ele>15.447</ele>
<time>2015-12-18T04:30:49.172Z</time>
</trkpt>
<trkpt lat="-26.8767319" lon="152.9606466">
<ele>15.536</ele>
<time>2015-12-18T04:30:51.205Z</time>
</trkpt>
<trkpt lat="-26.8772009" lon="152.9609838">
<ele>15.772</ele>
<time>2015-12-18T04:30:54.255Z</time>
</trkpt>
<trkpt lat="-26.8774904" lon="152.9612346">
<ele>16.377</ele>
<time>2015-12-18T04:30:56.262Z</time>
</trkpt>
<trkpt lat="-26.8777947" lon="152.9614898">
<ele>17.353</ele>
<time>2015-12-18T04:30:58.351Z</time>
</trkpt>
<trkpt lat="-26.8782238" lon="152.9618539">
<ele>18.397</ele>
<time>2015-12-18T04:31:01.314Z</time>
</trkpt>
<trkpt lat="-26.8785080" lon="152.9620841">
<ele>19.230</ele>
<time>2015-12-18T04:31:03.258Z</time>
</trkpt>
<trkpt lat="-26.8788380" lon="152.9622403">
<ele>19.948</ele>
<time>2015-12-18T04:31:05.258Z</time>
</trkpt>
<trkpt lat="-26.8792003" lon="152.9623877">
<ele>20.726</ele>
<time>2015-12-18T04:31:07.394Z</time>
</trkpt>
<trkpt lat="-26.8795550" lon="152.9624972">
<ele>21.356</ele>
<time>2015-12-18T04:31:09.397Z</time>
</trkpt>
<trkpt lat="-26.8801092" lon="152.9625845">
<ele>21.603</ele>
<time>2015-12-18T04:31:12.405Z</time>
</trkpt>
<trkpt lat="-26.8806806" lon="152.9625965">
<ele>21.706</ele>
<time>2015-12-18T04:31:15.433Z</time>
</trkpt>
<trkpt lat="-26.8810607" lon="152.9625495">
<ele>22.093</ele>
<time>2015-12-18T04:31:17.438Z</time>
</trkpt>
<trkpt lat="-26.8816502" lon="152.9624607">
<ele>22.824</ele>
<time>2015-12-18T04:31:20.492Z</time>
</trkpt>
<trkpt lat="-26.8820312" lon="152.9624032">
<ele>23.265</ele>
<time>2015-12-18T04:31:22.437Z</time>
</trkpt>
<trkpt lat="-26.8826110" lon="152.9623334">
<ele>23.020</ele>
<time>2015-12-18T04:31:25.407Z</time>
</trkpt>
<trkpt lat="-26.8830123" lon="152.9622470">
<ele>22.509</ele>
<time>2015-12-18T04:31:27.485Z</time>
</trkpt>
<trkpt lat="-26.8836103" lon="152.9621576">
<ele>22.208</ele>
<time>2015-12-18T04:31:30.547Z</time>
</trkpt>
<trkpt lat="-26.8841770" lon="152.9620618">
<ele>22.191</ele>
<time>2015-12-18T04:31:33.508Z</time>
</trkpt>
<trkpt lat="-26.8845466" lon="152.9620061">
<ele>22.496</ele>
<time>2015-12-18T04:31:35.501Z</time>
</trkpt>
<trkpt lat="-26.8850775" lon="152.9619391">
<ele>23.119</ele>
<time>2015-12-18T04:31:38.473Z</time>
</trkpt>
<trkpt lat="-26.8855770" lon="152.9618430">
<ele>23.804</ele>
<time>2015-12-18T04:31:41.408Z</time>
</trkpt>
<trkpt lat="-26.8859140" lon="152.9618045">
<ele>24.253</ele>
<time>2015-12-18T04:31:43.398Z</time>
</trkpt>
<trkpt lat="-26.8864217" lon="152.9617137">
<ele>24.362</ele>
<time>2015-12-18T04:31:46.408Z</time>
</trkpt>
<trkpt lat="-26.8867627" lon="152.9616825">
<ele>24.221</ele>
<time>2015-12-18T04:31:48.395Z</time>
</trkpt>
<trkpt lat="-26.8872797" lon="152.9615961">
<ele>23.998</ele>
<time>2015-12-18T04:31:51.375Z</time>
</trkpt>
<trkpt lat="-26.8878319" lon="152.9615199">
<ele>23.797</ele>
<time>2015-12-18T04:31:54.396Z</time>
</trkpt>
<trkpt lat="-26.8884046" lon="152.9614219">
<ele>23.665</ele>
<time>2015-12-18T04:31:57.433Z</time>
</trkpt>
<trkpt lat="-26.8887885" lon="152.9613806">
<ele>23.616</ele>
<time>2015-12-18T04:31:59.419Z</time>
</trkpt>
<trkpt lat="-26.8891858" lon="152.9613123">
<ele>23.635</ele>
<time>2015-12-18T04:32:01.457Z</time>
</trkpt>
<trkpt lat="-26.8897708" lon="152.9612351">
<ele>23.639</ele>
<time>2015-12-18T04:32:04.456Z</time>
</trkpt>
<trkpt lat="-26.8901607" lon="152.9611824">
<ele>23.494</ele>
<time>2015-12-18T04:32:06.478Z</time>
</trkpt>
<trkpt lat="-26.8907403" lon="152.9610669">
<ele>23.239</ele>
<time>2015-12-18T04:32:09.499Z</time>
</trkpt>
<trkpt lat="-26.8911156" lon="152.9609643">
<ele>23.266</ele>
<time>2015-12-18T04:32:11.473Z</time>
</trkpt>
<trkpt lat="-26.8916605" lon="152.9607582">
<ele>23.827</ele>
<time>2015-12-18T04:32:14.421Z</time>
</trkpt>
<trkpt lat="-26.8921786" lon="152.9604827">
<ele>24.627</ele>
<time>2015-12-18T04:32:17.407Z</time>
</trkpt>
<trkpt lat="-26.8925074" lon="152.9602644">
<ele>25.271</ele>
<time>2015-12-18T04:32:19.408Z</time>
</trkpt>
<trkpt lat="-26.8930130" lon="152.9599221">
<ele>25.866</ele>
<time>2015-12-18T04:32:22.471Z</time>
</trkpt>
<trkpt lat="-26.8935136" lon="152.9596032">
<ele>26.538</ele>
<time>2015-12-18T04:32:25.449Z</time>
</trkpt>
<trkpt lat="-26.8940136" lon="152.9594055">
<ele>26.948</ele>
<time>2015-12-18T04:32:28.303Z</time>
</trkpt>
<trkpt lat="-26.8943397" lon="152.9592776">
<ele>26.691</ele>
<time>2015-12-18T04:32:30.247Z</time>
</trkpt>
<trkpt lat="-26.8948637" lon="152.9591216">
<ele>25.862</ele>
<time>2015-12-18T04:32:33.295Z</time>
</trkpt>
<trkpt lat="-26.8953825" lon="152.9590312">
<ele>24.947</ele>
<time>2015-12-18T04:32:36.283Z</time>
</trkpt>
<trkpt lat="-26.8957059" lon="152.9590091">
<ele>24.181</ele>
<time>2015-12-18T04:32:38.240Z</time>
</trkpt>
<trkpt lat="-26.8961079" lon="152.9590276">
<ele>23.148</ele>
<time>2015-12-18T04:32:40.928Z</time>
</trkpt>
<trkpt lat="-26.8963740" lon="152.9590613">
<ele>21.607</ele>
<time>2015-12-18T04:32:42.904Z</time>
</trkpt>
<trkpt lat="-26.8967564" lon="152.9591222">
<ele>20.024</ele>
<time>2015-12-18T04:32:45.840Z</time>
</trkpt>
<trkpt lat="-26.8970120" lon="152.9591662">
<ele>18.910</ele>
<time>2015-12-18T04:32:47.818Z</time>
</trkpt>
<trkpt lat="-26.8974195" lon="152.9591879">
<ele>18.382</ele>
<time>2015-12-18T04:32:50.942Z</time>
</trkpt>
<trkpt lat="-26.8977984" lon="152.9592454">
<ele>18.312</ele>
<time>2015-12-18T04:32:53.852Z</time>
</trkpt>
<trkpt lat="-26.8980763" lon="152.9592559">
<ele>18.471</ele>
<time>2015-12-18T04:32:55.926Z</time>
</trkpt>
<trkpt lat="-26.8983843" lon="152.9592853">
<ele>18.882</ele>
<time>2015-12-18T04:32:58.095Z</time>
</trkpt>
<trkpt lat="-26.8988723" lon="152.9593023">
<ele>19.741</ele>
<time>2015-12-18T04:33:01.251Z</time>
</trkpt>
<trkpt lat="-26.8992063" lon="152.9593055">
<ele>20.890</ele>
<time>2015-12-18T04:33:03.292Z</time>
</trkpt>
<trkpt lat="-26.8996889" lon="152.9593506">
<ele>21.831</ele>
<time>2015-12-18T04:33:06.225Z</time>
</trkpt>
<trkpt lat="-26.9001726" lon="152.9594028">
<ele>22.316</ele>
<time>2015-12-18T04:33:09.183Z</time>
</trkpt>
<trkpt lat="-26.9005004" lon="152.9594511">
<ele>22.451</ele>
<time>2015-12-18T04:33:11.193Z</time>
</trkpt>
<trkpt lat="-26.9009939" lon="152.9594963">
<ele>22.609</ele>
<time>2015-12-18T04:33:14.219Z</time>
</trkpt>
<trkpt lat="-26.9013373" lon="152.9595303">
<ele>23.138</ele>
<time>2015-12-18T04:33:16.303Z</time>
</trkpt>
<trkpt lat="-26.9016899" lon="152.9595695">
<ele>23.771</ele>
<time>2015-12-18T04:33:18.387Z</time>
</trkpt>
<trkpt lat="-26.9020307" lon="152.9596086">
<ele>24.115</ele>
<time>2015-12-18T04:33:20.378Z</time>
</trkpt>
<trkpt lat="-26.9023679" lon="152.9596385">
<ele>24.292</ele>
<time>2015-12-18T04:33:22.338Z</time>
</trkpt>
<trkpt lat="-26.9028953" lon="152.9596611">
<ele>24.448</ele>
<time>2015-12-18T04:33:25.348Z</time>
</trkpt>
<trkpt lat="-26.9032454" lon="152.9596439">
<ele>24.566</ele>
<time>2015-12-18T04:33:27.333Z</time>
</trkpt>
<trkpt lat="-26.9037663" lon="152.9595584">
<ele>24.857</ele>
<time>2015-12-18T04:33:30.318Z</time>
</trkpt>
<trkpt lat="-26.9042926" lon="152.9594608">
<ele>25.430</ele>
<time>2015-12-18T04:33:33.325Z</time>
</trkpt>
<trkpt lat="-26.9046517" lon="152.9593951">
<ele>26.270</ele>
<time>2015-12-18T04:33:35.354Z</time>
</trkpt>
<trkpt lat="-26.9050094" lon="152.9593241">
<ele>27.400</ele>
<time>2015-12-18T04:33:37.364Z</time>
</trkpt>
<trkpt lat="-26.9055396" lon="152.9591953">
<ele>28.562</ele>
<time>2015-12-18T04:33:40.376Z</time>
</trkpt>
<trkpt lat="-26.9060602" lon="152.9590872">
<ele>29.247</ele>
<time>2015-12-18T04:33:43.355Z</time>
</trkpt>
<trkpt lat="-26.9064234" lon="152.9590070">
<ele>29.363</ele>
<time>2015-12-18T04:33:45.404Z</time>
</trkpt>
<trkpt lat="-26.9068063" lon="152.9589181">
<ele>29.243</ele>
<time>2015-12-18T04:33:47.461Z</time>
</trkpt>
<trkpt lat="-26.9074059" lon="152.9587771">
<ele>29.393</ele>
<time>2015-12-18T04:33:50.559Z</time>
</trkpt>
<trkpt lat="-26.9077954" lon="152.9587074">
<ele>30.055</ele>
<time>2015-12-18T04:33:52.526Z</time>
</trkpt>
<trkpt lat="-26.9081843" lon="152.9586267">
<ele>30.879</ele>
<time>2015-12-18T04:33:54.501Z</time>
</trkpt>
<trkpt lat="-26.9087689" lon="152.9585061">
<ele>31.609</ele>
<time>2015-12-18T04:33:57.472Z</time>
</trkpt>
<trkpt lat="-26.9093691" lon="152.9583768">
<ele>32.621</ele>
<time>2015-12-18T04:34:00.533Z</time>
</trkpt>
<trkpt lat="-26.9097543" lon="152.9582981">
<ele>34.009</ele>
<time>2015-12-18T04:34:02.485Z</time>
</trkpt>
<trkpt lat="-26.9103475" lon="152.9581794">
<ele>35.305</ele>
<time>2015-12-18T04:34:05.467Z</time>
</trkpt>
<trkpt lat="-26.9109513" lon="152.9580522">
<ele>36.305</ele>
<time>2015-12-18T04:34:08.474Z</time>
</trkpt>
<trkpt lat="-26.9113636" lon="152.9579590">
<ele>37.294</ele>
<time>2015-12-18T04:34:10.504Z</time>
</trkpt>
<trkpt lat="-26.9120004" lon="152.9578492">
<ele>38.412</ele>
<time>2015-12-18T04:34:13.559Z</time>
</trkpt>
<trkpt lat="-26.9124188" lon="152.9577575">
<ele>39.282</ele>
<time>2015-12-18T04:34:15.558Z</time>
</trkpt>
<trkpt lat="-26.9130495" lon="152.9576281">
<ele>39.599</ele>
<time>2015-12-18T04:34:18.552Z</time>
</trkpt>
<trkpt lat="-26.9134718" lon="152.9575908">
<ele>39.615</ele>
<time>2015-12-18T04:34:20.507Z</time>
</trkpt>
<trkpt lat="-26.9141532" lon="152.9575961">
<ele>39.604</ele>
<time>2015-12-18T04:34:23.618Z</time>
</trkpt>
<trkpt lat="-26.9147761" lon="152.9576919">
<ele>39.517</ele>
<time>2015-12-18T04:34:26.537Z</time>
</trkpt>
<trkpt lat="-26.9153964" lon="152.9578218">
<ele>39.120</ele>
<time>2015-12-18T04:34:29.569Z</time>
</trkpt>
<trkpt lat="-26.9160018" lon="152.9579495">
<ele>38.348</ele>
<time>2015-12-18T04:34:32.613Z</time>
</trkpt>
<trkpt lat="-26.9165793" lon="152.9580749">
<ele>37.631</ele>
<time>2015-12-18T04:34:35.571Z</time>
</trkpt>
<trkpt lat="-26.9169615" lon="152.9581798">
<ele>37.333</ele>
<time>2015-12-18T04:34:37.541Z</time>
</trkpt>
<trkpt lat="-26.9173602" lon="152.9582809">
<ele>37.317</ele>
<time>2015-12-18T04:34:39.564Z</time>
</trkpt>
<trkpt lat="-26.9177589" lon="152.9583565">
<ele>37.318</ele>
<time>2015-12-18T04:34:41.542Z</time>
</trkpt>
<trkpt lat="-26.9183815" lon="152.9585050">
<ele>37.224</ele>
<time>2015-12-18T04:34:44.626Z</time>
</trkpt>
<trkpt lat="-26.9189982" lon="152.9586429">
<ele>36.748</ele>
<time>2015-12-18T04:34:47.640Z</time>
</trkpt>
<trkpt lat="-26.9194302" lon="152.9586890">
<ele>35.528</ele>
<time>2015-12-18T04:34:49.714Z</time>
</trkpt>
<trkpt lat="-26.9198476" lon="152.9586715">
<ele>33.896</ele>
<time>2015-12-18T04:34:51.725Z</time>
</trkpt>
<trkpt lat="-26.9204512" lon="152.9586129">
<ele>32.593</ele>
<time>2015-12-18T04:34:54.663Z</time>
</trkpt>
<trkpt lat="-26.9208533" lon="152.9585227">
<ele>31.850</ele>
<time>2015-12-18T04:34:56.662Z</time>
</trkpt>
<trkpt lat="-26.9212421" lon="152.9583779">
<ele>31.542</ele>
<time>2015-12-18T04:34:58.668Z</time>
</trkpt>
<trkpt lat="-26.9218036" lon="152.9580961">
<ele>31.715</ele>
<time>2015-12-18T04:35:01.692Z</time>
</trkpt>
<trkpt lat="-26.9221723" lon="152.9579173">
<ele>32.295</ele>
<time>2015-12-18T04:35:03.685Z</time>
</trkpt>
<trkpt lat="-26.9225235" lon="152.9577437">
<ele>32.877</ele>
<time>2015-12-18T04:35:05.618Z</time>
</trkpt>
<trkpt lat="-26.9230640" lon="152.9574997">
<ele>33.042</ele>
<time>2015-12-18T04:35:08.605Z</time>
</trkpt>
<trkpt lat="-26.9234377" lon="152.9573747">
<ele>32.801</ele>
<time>2015-12-18T04:35:10.612Z</time>
</trkpt>
<trkpt lat="-26.9238227" lon="152.9572803">
<ele>32.466</ele>
<time>2015-12-18T04:35:12.605Z</time>
</trkpt>
<trkpt lat="-26.9244330" lon="152.9571767">
<ele>32.312</ele>
<time>2015-12-18T04:35:15.656Z</time>
</trkpt>
<trkpt lat="-26.9250528" lon="152.9571661">
<ele>32.502</ele>
<time>2015-12-18T04:35:18.680Z</time>
</trkpt>
<trkpt lat="-26.9254523" lon="152.9571850">
<ele>33.005</ele>
<time>2015-12-18T04:35:20.657Z</time>
</trkpt>
<trkpt lat="-26.9260592" lon="152.9572267">
<ele>33.200</ele>
<time>2015-12-18T04:35:23.692Z</time>
</trkpt>
<trkpt lat="-26.9264532" lon="152.9572723">
<ele>32.674</ele>
<time>2015-12-18T04:35:25.674Z</time>
</trkpt>
<trkpt lat="-26.9268397" lon="152.9573172">
<ele>31.885</ele>
<time>2015-12-18T04:35:27.637Z</time>
</trkpt>
<trkpt lat="-26.9272311" lon="152.9573403">
<ele>31.155</ele>
<time>2015-12-18T04:35:29.645Z</time>
</trkpt>
<trkpt lat="-26.9276077" lon="152.9573790">
<ele>30.399</ele>
<time>2015-12-18T04:35:31.615Z</time>
</trkpt>
<trkpt lat="-26.9281679" lon="152.9574219">
<ele>29.774</ele>
<time>2015-12-18T04:35:34.572Z</time>
</trkpt>
<trkpt lat="-26.9287392" lon="152.9574589">
<ele>29.439</ele>
<time>2015-12-18T04:35:37.576Z</time>
</trkpt>
<trkpt lat="-26.9291298" lon="152.9574878">
<ele>29.005</ele>
<time>2015-12-18T04:35:39.614Z</time>
</trkpt>
<trkpt lat="-26.9297198" lon="152.9575242">
<ele>28.183</ele>
<time>2015-12-18T04:35:42.637Z</time>
</trkpt>
<trkpt lat="-26.9301087" lon="152.9575551">
<ele>27.289</ele>
<time>2015-12-18T04:35:44.609Z</time>
</trkpt>
<trkpt lat="-26.9305063" lon="152.9575872">
<ele>26.836</ele>
<time>2015-12-18T04:35:46.624Z</time>
</trkpt>
<trkpt lat="-26.9309005" lon="152.9576197">
<ele>27.033</ele>
<time>2015-12-18T04:35:48.629Z</time>
</trkpt>
<trkpt lat="-26.9314993" lon="152.9576712">
<ele>27.760</ele>
<time>2015-12-18T04:35:51.666Z</time>
</trkpt>
<trkpt lat="-26.9318940" lon="152.9577059">
<ele>28.927</ele>
<time>2015-12-18T04:35:53.640Z</time>
</trkpt>
<trkpt lat="-26.9324830" lon="152.9577661">
<ele>30.658</ele>
<time>2015-12-18T04:35:56.569Z</time>
</trkpt>
<trkpt lat="-26.9329036" lon="152.9577510">
<ele>32.530</ele>
<time>2015-12-18T04:35:58.645Z</time>
</trkpt>
<trkpt lat="-26.9335127" lon="152.9576884">
<ele>33.829</ele>
<time>2015-12-18T04:36:01.657Z</time>
</trkpt>
<trkpt lat="-26.9341212" lon="152.9575728">
<ele>34.396</ele>
<time>2015-12-18T04:36:04.686Z</time>
</trkpt>
<trkpt lat="-26.9345095" lon="152.9574500">
<ele>34.645</ele>
<time>2015-12-18T04:36:06.657Z</time>
</trkpt>
<trkpt lat="-26.9350908" lon="152.9572027">
<ele>35.032</ele>
<time>2015-12-18T04:36:09.671Z</time>
</trkpt>
<trkpt lat="-26.9354741" lon="152.9570109">
<ele>35.578</ele>
<time>2015-12-18T04:36:11.663Z</time>
</trkpt>
<trkpt lat="-26.9358597" lon="152.9568025">
<ele>35.713</ele>
<time>2015-12-18T04:36:13.669Z</time>
</trkpt>
<trkpt lat="-26.9364372" lon="152.9565247">
<ele>35.103</ele>
<time>2015-12-18T04:36:16.636Z</time>
</trkpt>
<trkpt lat="-26.9370342" lon="152.9562999">
<ele>33.484</ele>
<time>2015-12-18T04:36:19.651Z</time>
</trkpt>
<trkpt lat="-26.9374388" lon="152.9561948">
<ele>30.619</ele>
<time>2015-12-18T04:36:21.651Z</time>
</trkpt>
<trkpt lat="-26.9378459" lon="152.9561108">
<ele>27.183</ele>
<time>2015-12-18T04:36:23.664Z</time>
</trkpt>
<trkpt lat="-26.9384426" lon="152.9560075">
<ele>24.320</ele>
<time>2015-12-18T04:36:26.632Z</time>
</trkpt>
<trkpt lat="-26.9388440" lon="152.9559671">
<ele>22.518</ele>
<time>2015-12-18T04:36:28.657Z</time>
</trkpt>
<trkpt lat="-26.9394046" lon="152.9559884">
<ele>21.836</ele>
<time>2015-12-18T04:36:31.551Z</time>
</trkpt>
<trkpt lat="-26.9397803" lon="152.9560802">
<ele>22.018</ele>
<time>2015-12-18T04:36:33.566Z</time>
</trkpt>
<trkpt lat="-26.9403382" lon="152.9562618">
<ele>22.670</ele>
<time>2015-12-18T04:36:36.587Z</time>
</trkpt>
<trkpt lat="-26.9408489" lon="152.9565730">
<ele>23.573</ele>
<time>2015-12-18T04:36:39.557Z</time>
</trkpt>
<trkpt lat="-26.9411795" lon="152.9568215">
<ele>25.026</ele>
<time>2015-12-18T04:36:41.565Z</time>
</trkpt>
<trkpt lat="-26.9416424" lon="152.9572110">
<ele>26.986</ele>
<time>2015-12-18T04:36:44.516Z</time>
</trkpt>
<trkpt lat="-26.9419634" lon="152.9574567">
<ele>28.548</ele>
<time>2015-12-18T04:36:46.539Z</time>
</trkpt>
<trkpt lat="-26.9423049" lon="152.9576548">
<ele>29.170</ele>
<time>2015-12-18T04:36:48.550Z</time>
</trkpt>
<trkpt lat="-26.9428323" lon="152.9579042">
<ele>29.200</ele>
<time>2015-12-18T04:36:51.543Z</time>
</trkpt>
<trkpt lat="-26.9431956" lon="152.9580436">
<ele>29.125</ele>
<time>2015-12-18T04:36:53.552Z</time>
</trkpt>
<trkpt lat="-26.9435596" lon="152.9581200">
<ele>29.193</ele>
<time>2015-12-18T04:36:55.496Z</time>
</trkpt>
<trkpt lat="-26.9441716" lon="152.9581389">
<ele>29.375</ele>
<time>2015-12-18T04:36:58.657Z</time>
</trkpt>
<trkpt lat="-26.9446018" lon="152.9581567">
<ele>29.804</ele>
<time>2015-12-18T04:37:00.786Z</time>
</trkpt>
<trkpt lat="-26.9450248" lon="152.9581907">
<ele>30.558</ele>
<time>2015-12-18T04:37:02.863Z</time>
</trkpt>
<trkpt lat="-26.9456374" lon="152.9581780">
<ele>31.246</ele>
<time>2015-12-18T04:37:05.882Z</time>
</trkpt>
<trkpt lat="-26.9462564" lon="152.9582440">
<ele>31.559</ele>
<time>2015-12-18T04:37:08.914Z</time>
</trkpt>
<trkpt lat="-26.9466771" lon="152.9583337">
<ele>31.898</ele>
<time>2015-12-18T04:37:10.957Z</time>
</trkpt>
<trkpt lat="-26.9472820" lon="152.9585545">
<ele>32.609</ele>
<time>2015-12-18T04:37:13.974Z</time>
</trkpt>
<trkpt lat="-26.9476770" lon="152.9587237">
<ele>33.328</ele>
<time>2015-12-18T04:37:15.966Z</time>
</trkpt>
<trkpt lat="-26.9480836" lon="152.9588692">
<ele>33.612</ele>
<time>2015-12-18T04:37:17.961Z</time>
</trkpt>
<trkpt lat="-26.9486950" lon="152.9591262">
<ele>33.490</ele>
<time>2015-12-18T04:37:21.017Z</time>
</trkpt>
<trkpt lat="-26.9490804" lon="152.9592835">
<ele>33.235</ele>
<time>2015-12-18T04:37:22.976Z</time>
</trkpt>
<trkpt lat="-26.9496638" lon="152.9595276">
<ele>33.068</ele>
<time>2015-12-18T04:37:26.010Z</time>
</trkpt>
<trkpt lat="-26.9502233" lon="152.9597297">
<ele>32.947</ele>
<time>2015-12-18T04:37:28.959Z</time>
</trkpt>
<trkpt lat="-26.9507806" lon="152.9599178">
<ele>32.774</ele>
<time>2015-12-18T04:37:31.973Z</time>
</trkpt>
<trkpt lat="-26.9509646" lon="152.9599663">
<ele>32.118</ele>
<time>2015-12-18T04:37:32.971Z</time>
</trkpt>
<trkpt lat="-26.9517351" lon="152.9601106">
<ele>30.756</ele>
<time>2015-12-18T04:37:37.062Z</time>
</trkpt>
<trkpt lat="-26.9521138" lon="152.9601740">
<ele>29.443</ele>
<time>2015-12-18T04:37:39.044Z</time>
</trkpt>
<trkpt lat="-26.9526750" lon="152.9602568">
<ele>28.723</ele>
<time>2015-12-18T04:37:41.997Z</time>
</trkpt>
<trkpt lat="-26.9530475" lon="152.9602976">
<ele>28.337</ele>
<time>2015-12-18T04:37:43.993Z</time>
</trkpt>
<trkpt lat="-26.9535783" lon="152.9603141">
<ele>28.227</ele>
<time>2015-12-18T04:37:46.892Z</time>
</trkpt>
<trkpt lat="-26.9539473" lon="152.9603141">
<ele>28.568</ele>
<time>2015-12-18T04:37:48.913Z</time>
</trkpt>
<trkpt lat="-26.9545141" lon="152.9602896">
<ele>29.463</ele>
<time>2015-12-18T04:37:51.911Z</time>
</trkpt>
<trkpt lat="-26.9549210" lon="152.9602478">
<ele>31.302</ele>
<time>2015-12-18T04:37:53.950Z</time>
</trkpt>
<trkpt lat="-26.9555271" lon="152.9601961">
<ele>34.304</ele>
<time>2015-12-18T04:37:56.923Z</time>
</trkpt>
<trkpt lat="-26.9561387" lon="152.9601338">
<ele>37.496</ele>
<time>2015-12-18T04:37:59.927Z</time>
</trkpt>
<trkpt lat="-26.9567637" lon="152.9600744">
<ele>39.577</ele>
<time>2015-12-18T04:38:03.009Z</time>
</trkpt>
<trkpt lat="-26.9571724" lon="152.9600672">
<ele>40.350</ele>
<time>2015-12-18T04:38:05.027Z</time>
</trkpt>
<trkpt lat="-26.9575712" lon="152.9600684">
<ele>40.269</ele>
<time>2015-12-18T04:38:07.026Z</time>
</trkpt>
<trkpt lat="-26.9581453" lon="152.9600542">
<ele>39.787</ele>
<time>2015-12-18T04:38:09.940Z</time>
</trkpt>
<trkpt lat="-26.9585449" lon="152.9600575">
<ele>39.361</ele>
<time>2015-12-18T04:38:11.963Z</time>
</trkpt>
<trkpt lat="-26.9589415" lon="152.9600792">
<ele>39.292</ele>
<time>2015-12-18T04:38:13.940Z</time>
</trkpt>
<trkpt lat="-26.9593609" lon="152.9600850">
<ele>39.521</ele>
<time>2015-12-18T04:38:16.001Z</time>
</trkpt>
<trkpt lat="-26.9597743" lon="152.9600943">
<ele>39.604</ele>
<time>2015-12-18T04:38:18.038Z</time>
</trkpt>
<trkpt lat="-26.9601719" lon="152.9601171">
<ele>39.195</ele>
<time>2015-12-18T04:38:20.018Z</time>
</trkpt>
<trkpt lat="-26.9607722" lon="152.9601571">
<ele>38.203</ele>
<time>2015-12-18T04:38:23.017Z</time>
</trkpt>
<trkpt lat="-26.9611737" lon="152.9602015">
<ele>36.731</ele>
<time>2015-12-18T04:38:24.986Z</time>
</trkpt>
<trkpt lat="-26.9616028" lon="152.9602293">
<ele>35.328</ele>
<time>2015-12-18T04:38:26.951Z</time>
</trkpt>
<trkpt lat="-26.9623226" lon="152.9602688">
<ele>34.668</ele>
<time>2015-12-18T04:38:30.015Z</time>
</trkpt>
<trkpt lat="-26.9628298" lon="152.9603113">
<ele>35.044</ele>
<time>2015-12-18T04:38:32.078Z</time>
</trkpt>
<trkpt lat="-26.9633118" lon="152.9603310">
<ele>36.153</ele>
<time>2015-12-18T04:38:34.088Z</time>
</trkpt>
<trkpt lat="-26.9639854" lon="152.9604001">
<ele>36.971</ele>
<time>2015-12-18T04:38:37.051Z</time>
</trkpt>
<trkpt lat="-26.9644014" lon="152.9604365">
<ele>36.640</ele>
<time>2015-12-18T04:38:39.003Z</time>
</trkpt>
<trkpt lat="-26.9650340" lon="152.9604835">
<ele>35.161</ele>
<time>2015-12-18T04:38:41.982Z</time>
</trkpt>
<trkpt lat="-26.9654852" lon="152.9605079">
<ele>33.296</ele>
<time>2015-12-18T04:38:44.013Z</time>
</trkpt>
<trkpt lat="-26.9661799" lon="152.9605495">
<ele>31.999</ele>
<time>2015-12-18T04:38:47.103Z</time>
</trkpt>
<trkpt lat="-26.9668352" lon="152.9606022">
<ele>31.644</ele>
<time>2015-12-18T04:38:50.094Z</time>
</trkpt>
<trkpt lat="-26.9674830" lon="152.9606446">
<ele>31.893</ele>
<time>2015-12-18T04:38:53.143Z</time>
</trkpt>
<trkpt lat="-26.9678919" lon="152.9606720">
<ele>32.305</ele>
<time>2015-12-18T04:38:55.101Z</time>
</trkpt>
<trkpt lat="-26.9685344" lon="152.9607173">
<ele>32.926</ele>
<time>2015-12-18T04:38:58.193Z</time>
</trkpt>
<trkpt lat="-26.9689523" lon="152.9607531">
<ele>33.907</ele>
<time>2015-12-18T04:39:00.228Z</time>
</trkpt>
<trkpt lat="-26.9695640" lon="152.9608380">
<ele>35.131</ele>
<time>2015-12-18T04:39:03.235Z</time>
</trkpt>
<trkpt lat="-26.9699700" lon="152.9608884">
<ele>36.506</ele>
<time>2015-12-18T04:39:05.221Z</time>
</trkpt>
<trkpt lat="-26.9705786" lon="152.9609906">
<ele>37.673</ele>
<time>2015-12-18T04:39:08.217Z</time>
</trkpt>
<trkpt lat="-26.9711738" lon="152.9611418">
<ele>38.159</ele>
<time>2015-12-18T04:39:11.231Z</time>
</trkpt>
<trkpt lat="-26.9717389" lon="152.9613071">
<ele>37.688</ele>
<time>2015-12-18T04:39:14.141Z</time>
</trkpt>
<trkpt lat="-26.9723341" lon="152.9615144">
<ele>36.384</ele>
<time>2015-12-18T04:39:17.206Z</time>
</trkpt>
<trkpt lat="-26.9727226" lon="152.9616620">
<ele>35.011</ele>
<time>2015-12-18T04:39:19.174Z</time>
</trkpt>
<trkpt lat="-26.9733096" lon="152.9619178">
<ele>34.241</ele>
<time>2015-12-18T04:39:22.151Z</time>
</trkpt>
<trkpt lat="-26.9737092" lon="152.9620945">
<ele>33.976</ele>
<time>2015-12-18T04:39:24.132Z</time>
</trkpt>
<trkpt lat="-26.9742897" lon="152.9624363">
<ele>33.924</ele>
<time>2015-12-18T04:39:27.113Z</time>
</trkpt>
<trkpt lat="-26.9748727" lon="152.9628212">
<ele>33.833</ele>
<time>2015-12-18T04:39:30.176Z</time>
</trkpt>
<trkpt lat="-26.9754241" lon="152.9632232">
<ele>33.615</ele>
<time>2015-12-18T04:39:33.200Z</time>
</trkpt>
<trkpt lat="-26.9759302" lon="152.9636449">
<ele>33.350</ele>
<time>2015-12-18T04:39:36.168Z</time>
</trkpt>
<trkpt lat="-26.9764289" lon="152.9640601">
<ele>33.183</ele>
<time>2015-12-18T04:39:39.136Z</time>
</trkpt>
<trkpt lat="-26.9769186" lon="152.9644922">
<ele>32.990</ele>
<time>2015-12-18T04:39:42.134Z</time>
</trkpt>
<trkpt lat="-26.9772253" lon="152.9648046">
<ele>32.681</ele>
<time>2015-12-18T04:39:44.124Z</time>
</trkpt>
<trkpt lat="-26.9776735" lon="152.9652782">
<ele>32.399</ele>
<time>2015-12-18T04:39:47.031Z</time>
</trkpt>
<trkpt lat="-26.9779944" lon="152.9656265">
<ele>32.293</ele>
<time>2015-12-18T04:39:49.047Z</time>
</trkpt>
<trkpt lat="-26.9784877" lon="152.9661636">
<ele>32.622</ele>
<time>2015-12-18T04:39:52.084Z</time>
</trkpt>
<trkpt lat="-26.9787978" lon="152.9665178">
<ele>33.464</ele>
<time>2015-12-18T04:39:54.039Z</time>
</trkpt>
<trkpt lat="-26.9791241" lon="152.9668669">
<ele>34.057</ele>
<time>2015-12-18T04:39:56.029Z</time>
</trkpt>
<trkpt lat="-26.9796222" lon="152.9674028">
<ele>33.870</ele>
<time>2015-12-18T04:39:59.074Z</time>
</trkpt>
<trkpt lat="-26.9799342" lon="152.9677445">
<ele>33.165</ele>
<time>2015-12-18T04:40:01.042Z</time>
</trkpt>
<trkpt lat="-26.9802432" lon="152.9680804">
<ele>32.111</ele>
<time>2015-12-18T04:40:03.019Z</time>
</trkpt>
<trkpt lat="-26.9807013" lon="152.9685803">
<ele>30.892</ele>
<time>2015-12-18T04:40:05.970Z</time>
</trkpt>
<trkpt lat="-26.9811684" lon="152.9690829">
<ele>29.835</ele>
<time>2015-12-18T04:40:08.942Z</time>
</trkpt>
<trkpt lat="-26.9816509" lon="152.9696017">
<ele>28.974</ele>
<time>2015-12-18T04:40:11.981Z</time>
</trkpt>
<trkpt lat="-26.9819591" lon="152.9699531">
<ele>28.327</ele>
<time>2015-12-18T04:40:13.991Z</time>
</trkpt>
<trkpt lat="-26.9824150" lon="152.9704516">
<ele>27.772</ele>
<time>2015-12-18T04:40:16.953Z</time>
</trkpt>
<trkpt lat="-26.9827074" lon="152.9707880">
<ele>26.936</ele>
<time>2015-12-18T04:40:18.951Z</time>
</trkpt>
<trkpt lat="-26.9830073" lon="152.9711121">
<ele>25.675</ele>
<time>2015-12-18T04:40:20.963Z</time>
</trkpt>
<trkpt lat="-26.9834488" lon="152.9715928">
<ele>24.238</ele>
<time>2015-12-18T04:40:23.965Z</time>
</trkpt>
<trkpt lat="-26.9838892" lon="152.9720565">
<ele>22.971</ele>
<time>2015-12-18T04:40:26.942Z</time>
</trkpt>
<trkpt lat="-26.9841976" lon="152.9723824">
<ele>21.839</ele>
<time>2015-12-18T04:40:29.026Z</time>
</trkpt>
<trkpt lat="-26.9846400" lon="152.9728499">
<ele>20.729</ele>
<time>2015-12-18T04:40:32.008Z</time>
</trkpt>
<trkpt lat="-26.9850445" lon="152.9733320">
<ele>19.958</ele>
<time>2015-12-18T04:40:34.945Z</time>
</trkpt>
<trkpt lat="-26.9852916" lon="152.9736894">
<ele>19.664</ele>
<time>2015-12-18T04:40:36.971Z</time>
</trkpt>
<trkpt lat="-26.9856168" lon="152.9742612">
<ele>19.606</ele>
<time>2015-12-18T04:40:40.004Z</time>
</trkpt>
<trkpt lat="-26.9858885" lon="152.9748545">
<ele>20.207</ele>
<time>2015-12-18T04:40:43.001Z</time>
</trkpt>
<trkpt lat="-26.9860749" lon="152.9754766">
<ele>22.561</ele>
<time>2015-12-18T04:40:46.003Z</time>
</trkpt>
<trkpt lat="-26.9861838" lon="152.9758788">
<ele>26.270</ele>
<time>2015-12-18T04:40:48.035Z</time>
</trkpt>
<trkpt lat="-26.9863338" lon="152.9764205">
<ele>29.288</ele>
<time>2015-12-18T04:40:50.973Z</time>
</trkpt>
<trkpt lat="-26.9864254" lon="152.9767470">
<ele>30.330</ele>
<time>2015-12-18T04:40:52.913Z</time>
</trkpt>
<trkpt lat="-26.9865065" lon="152.9770796">
<ele>29.826</ele>
<time>2015-12-18T04:40:54.910Z</time>
</trkpt>
<trkpt lat="-26.9866575" lon="152.9775872">
<ele>28.780</ele>
<time>2015-12-18T04:40:58.025Z</time>
</trkpt>
<trkpt lat="-26.9867596" lon="152.9780662">
<ele>27.816</ele>
<time>2015-12-18T04:41:00.940Z</time>
</trkpt>
<trkpt lat="-26.9868455" lon="152.9783802">
<ele>26.740</ele>
<time>2015-12-18T04:41:02.887Z</time>
</trkpt>
<trkpt lat="-26.9869864" lon="152.9788684">
<ele>25.277</ele>
<time>2015-12-18T04:41:05.899Z</time>
</trkpt>
<trkpt lat="-26.9871208" lon="152.9793416">
<ele>23.486</ele>
<time>2015-12-18T04:41:08.847Z</time>
</trkpt>
<trkpt lat="-26.9873644" lon="152.9796836">
<ele>21.562</ele>
<time>2015-12-18T04:41:11.582Z</time>
</trkpt>
<trkpt lat="-26.9876193" lon="152.9798636">
<ele>19.623</ele>
<time>2015-12-18T04:41:13.773Z</time>
</trkpt>
<trkpt lat="-26.9880359" lon="152.9799718">
<ele>18.010</ele>
<time>2015-12-18T04:41:16.777Z</time>
</trkpt>
<trkpt lat="-26.9885091" lon="152.9798705">
<ele>17.134</ele>
<time>2015-12-18T04:41:19.893Z</time>
</trkpt>
<trkpt lat="-26.9888235" lon="152.9797028">
<ele>17.042</ele>
<time>2015-12-18T04:41:21.895Z</time>
</trkpt>
<trkpt lat="-26.9891724" lon="152.9795053">
<ele>17.298</ele>
<time>2015-12-18T04:41:23.903Z</time>
</trkpt>
<trkpt lat="-26.9895556" lon="152.9792844">
<ele>17.862</ele>
<time>2015-12-18T04:41:25.874Z</time>
</trkpt>
<trkpt lat="-26.9902339" lon="152.9788889">
<ele>19.353</ele>
<time>2015-12-18T04:41:29.057Z</time>
</trkpt>
<trkpt lat="-26.9907232" lon="152.9786326">
<ele>22.238</ele>
<time>2015-12-18T04:41:31.141Z</time>
</trkpt>
<trkpt lat="-26.9914597" lon="152.9783016">
<ele>25.657</ele>
<time>2015-12-18T04:41:34.181Z</time>
</trkpt>
<trkpt lat="-26.9919606" lon="152.9781637">
<ele>27.923</ele>
<time>2015-12-18T04:41:36.218Z</time>
</trkpt>
<trkpt lat="-26.9927007" lon="152.9780548">
<ele>28.039</ele>
<time>2015-12-18T04:41:39.257Z</time>
</trkpt>
<trkpt lat="-26.9931659" lon="152.9779918">
<ele>26.025</ele>
<time>2015-12-18T04:41:41.208Z</time>
</trkpt>
<trkpt lat="-26.9938816" lon="152.9779445">
<ele>22.378</ele>
<time>2015-12-18T04:41:44.148Z</time>
</trkpt>
<trkpt lat="-26.9944023" lon="152.9778964">
<ele>18.161</ele>
<time>2015-12-18T04:41:46.215Z</time>
</trkpt>
<trkpt lat="-26.9951750" lon="152.9778437">
<ele>14.689</ele>
<time>2015-12-18T04:41:49.243Z</time>
</trkpt>
<trkpt lat="-26.9956985" lon="152.9778147">
<ele>12.858</ele>
<time>2015-12-18T04:41:51.253Z</time>
</trkpt>
<trkpt lat="-26.9962145" lon="152.9777924">
<ele>13.120</ele>
<time>2015-12-18T04:41:53.201Z</time>
</trkpt>
<trkpt lat="-26.9967439" lon="152.9777669">
<ele>14.976</ele>
<time>2015-12-18T04:41:55.155Z</time>
</trkpt>
<trkpt lat="-26.9975790" lon="152.9777101">
<ele>16.983</ele>
<time>2015-12-18T04:41:58.164Z</time>
</trkpt>
<trkpt lat="-26.9984332" lon="152.9776681">
<ele>18.242</ele>
<time>2015-12-18T04:42:01.161Z</time>
</trkpt>
<trkpt lat="-26.9990337" lon="152.9776377">
<ele>19.120</ele>
<time>2015-12-18T04:42:03.242Z</time>
</trkpt>
<trkpt lat="-26.9998764" lon="152.9776307">
<ele>20.041</ele>
<time>2015-12-18T04:42:06.144Z</time>
</trkpt>
<trkpt lat="-27.0004600" lon="152.9776125">
<ele>20.880</ele>
<time>2015-12-18T04:42:08.148Z</time>
</trkpt>
<trkpt lat="-27.0010439" lon="152.9775786">
<ele>21.678</ele>
<time>2015-12-18T04:42:10.171Z</time>
</trkpt>
<trkpt lat="-27.0019063" lon="152.9775363">
<ele>22.653</ele>
<time>2015-12-18T04:42:13.180Z</time>
</trkpt>
<trkpt lat="-27.0024704" lon="152.9774922">
<ele>23.394</ele>
<time>2015-12-18T04:42:15.165Z</time>
</trkpt>
<trkpt lat="-27.0033201" lon="152.9774523">
<ele>23.569</ele>
<time>2015-12-18T04:42:18.166Z</time>
</trkpt>
<trkpt lat="-27.0041665" lon="152.9774131">
<ele>23.433</ele>
<time>2015-12-18T04:42:21.167Z</time>
</trkpt>
<trkpt lat="-27.0047378" lon="152.9774105">
<ele>23.181</ele>
<time>2015-12-18T04:42:23.175Z</time>
</trkpt>
<trkpt lat="-27.0056099" lon="152.9773475">
<ele>22.843</ele>
<time>2015-12-18T04:42:26.208Z</time>
</trkpt>
<trkpt lat="-27.0061935" lon="152.9773297">
<ele>22.510</ele>
<time>2015-12-18T04:42:28.210Z</time>
</trkpt>
<trkpt lat="-27.0070743" lon="152.9773297">
<ele>22.101</ele>
<time>2015-12-18T04:42:31.238Z</time>
</trkpt>
<trkpt lat="-27.0079335" lon="152.9772863">
<ele>21.533</ele>
<time>2015-12-18T04:42:34.217Z</time>
</trkpt>
<trkpt lat="-27.0085035" lon="152.9772715">
<ele>21.057</ele>
<time>2015-12-18T04:42:36.184Z</time>
</trkpt>
<trkpt lat="-27.0093839" lon="152.9772278">
<ele>21.238</ele>
<time>2015-12-18T04:42:39.211Z</time>
</trkpt>
<trkpt lat="-27.0099597" lon="152.9772002">
<ele>22.547</ele>
<time>2015-12-18T04:42:41.210Z</time>
</trkpt>
<trkpt lat="-27.0108118" lon="152.9771554">
<ele>24.482</ele>
<time>2015-12-18T04:42:44.194Z</time>
</trkpt>
<trkpt lat="-27.0113859" lon="152.9771387">
<ele>25.422</ele>
<time>2015-12-18T04:42:46.208Z</time>
</trkpt>
<trkpt lat="-27.0122496" lon="152.9770871">
<ele>24.690</ele>
<time>2015-12-18T04:42:49.209Z</time>
</trkpt>
<trkpt lat="-27.0131226" lon="152.9770533">
<ele>23.540</ele>
<time>2015-12-18T04:42:52.197Z</time>
</trkpt>
<trkpt lat="-27.0140123" lon="152.9770546">
<ele>23.223</ele>
<time>2015-12-18T04:42:55.223Z</time>
</trkpt>
<trkpt lat="-27.0146074" lon="152.9770889">
<ele>23.668</ele>
<time>2015-12-18T04:42:57.240Z</time>
</trkpt>
<trkpt lat="-27.0151999" lon="152.9771191">
<ele>24.319</ele>
<time>2015-12-18T04:42:59.253Z</time>
</trkpt>
<trkpt lat="-27.0157833" lon="152.9771639">
<ele>24.770</ele>
<time>2015-12-18T04:43:01.247Z</time>
</trkpt>
<trkpt lat="-27.0166521" lon="152.9772116">
<ele>24.829</ele>
<time>2015-12-18T04:43:04.238Z</time>
</trkpt>
<trkpt lat="-27.0172198" lon="152.9772525">
<ele>24.407</ele>
<time>2015-12-18T04:43:06.229Z</time>
</trkpt>
<trkpt lat="-27.0177744" lon="152.9772855">
<ele>23.841</ele>
<time>2015-12-18T04:43:08.189Z</time>
</trkpt>
<trkpt lat="-27.0186245" lon="152.9773356">
<ele>23.893</ele>
<time>2015-12-18T04:43:11.199Z</time>
</trkpt>
<trkpt lat="-27.0194740" lon="152.9773783">
<ele>25.154</ele>
<time>2015-12-18T04:43:14.221Z</time>
</trkpt>
<trkpt lat="-27.0200428" lon="152.9774062">
<ele>27.472</ele>
<time>2015-12-18T04:43:16.250Z</time>
</trkpt>
<trkpt lat="-27.0208901" lon="152.9774480">
<ele>30.011</ele>
<time>2015-12-18T04:43:19.232Z</time>
</trkpt>
<trkpt lat="-27.0214624" lon="152.9774713">
<ele>32.205</ele>
<time>2015-12-18T04:43:21.238Z</time>
</trkpt>
<trkpt lat="-27.0220277" lon="152.9774994">
<ele>33.948</ele>
<time>2015-12-18T04:43:23.243Z</time>
</trkpt>
<trkpt lat="-27.0228663" lon="152.9775489">
<ele>34.632</ele>
<time>2015-12-18T04:43:26.242Z</time>
</trkpt>
<trkpt lat="-27.0234194" lon="152.9775762">
<ele>34.021</ele>
<time>2015-12-18T04:43:28.225Z</time>
</trkpt>
<trkpt lat="-27.0239789" lon="152.9776139">
<ele>32.841</ele>
<time>2015-12-18T04:43:30.225Z</time>
</trkpt>
<trkpt lat="-27.0245398" lon="152.9776550">
<ele>31.964</ele>
<time>2015-12-18T04:43:32.193Z</time>
</trkpt>
<trkpt lat="-27.0254351" lon="152.9776906">
<ele>31.786</ele>
<time>2015-12-18T04:43:35.262Z</time>
</trkpt>
<trkpt lat="-27.0260395" lon="152.9777185">
<ele>32.078</ele>
<time>2015-12-18T04:43:37.288Z</time>
</trkpt>
<trkpt lat="-27.0266403" lon="152.9777563">
<ele>32.347</ele>
<time>2015-12-18T04:43:39.296Z</time>
</trkpt>
<trkpt lat="-27.0275274" lon="152.9778044">
<ele>32.757</ele>
<time>2015-12-18T04:43:42.275Z</time>
</trkpt>
<trkpt lat="-27.0281163" lon="152.9778575">
<ele>34.134</ele>
<time>2015-12-18T04:43:44.281Z</time>
</trkpt>
<trkpt lat="-27.0287102" lon="152.9778943">
<ele>36.471</ele>
<time>2015-12-18T04:43:46.309Z</time>
</trkpt>
<trkpt lat="-27.0295871" lon="152.9779378">
<ele>38.444</ele>
<time>2015-12-18T04:43:49.327Z</time>
</trkpt>
<trkpt lat="-27.0301538" lon="152.9779696">
<ele>39.355</ele>
<time>2015-12-18T04:43:51.316Z</time>
</trkpt>
<trkpt lat="-27.0309873" lon="152.9780273">
<ele>39.928</ele>
<time>2015-12-18T04:43:54.292Z</time>
</trkpt>
<trkpt lat="-27.0315337" lon="152.9780634">
<ele>40.779</ele>
<time>2015-12-18T04:43:56.271Z</time>
</trkpt>
<trkpt lat="-27.0323778" lon="152.9780936">
<ele>41.697</ele>
<time>2015-12-18T04:43:59.316Z</time>
</trkpt>
<trkpt lat="-27.0329372" lon="152.9781177">
<ele>42.242</ele>
<time>2015-12-18T04:44:01.310Z</time>
</trkpt>
<trkpt lat="-27.0335047" lon="152.9781349">
<ele>42.328</ele>
<time>2015-12-18T04:44:03.307Z</time>
</trkpt>
<trkpt lat="-27.0340866" lon="152.9781334">
<ele>41.934</ele>
<time>2015-12-18T04:44:05.322Z</time>
</trkpt>
<trkpt lat="-27.0349491" lon="152.9781267">
<ele>41.196</ele>
<time>2015-12-18T04:44:08.289Z</time>
</trkpt>
<trkpt lat="-27.0355259" lon="152.9781238">
<ele>40.265</ele>
<time>2015-12-18T04:44:10.285Z</time>
</trkpt>
<trkpt lat="-27.0361064" lon="152.9781145">
<ele>39.249</ele>
<time>2015-12-18T04:44:12.315Z</time>
</trkpt>
<trkpt lat="-27.0369512" lon="152.9780841">
<ele>38.802</ele>
<time>2015-12-18T04:44:15.273Z</time>
</trkpt>
<trkpt lat="-27.0378299" lon="152.9780601">
<ele>39.447</ele>
<time>2015-12-18T04:44:18.325Z</time>
</trkpt>
<trkpt lat="-27.0386938" lon="152.9780251">
<ele>40.524</ele>
<time>2015-12-18T04:44:21.297Z</time>
</trkpt>
<trkpt lat="-27.0392901" lon="152.9780048">
<ele>41.216</ele>
<time>2015-12-18T04:44:23.326Z</time>
</trkpt>
<trkpt lat="-27.0398718" lon="152.9779901">
<ele>41.427</ele>
<time>2015-12-18T04:44:25.302Z</time>
</trkpt>
<trkpt lat="-27.0404562" lon="152.9779839">
<ele>41.304</ele>
<time>2015-12-18T04:44:27.283Z</time>
</trkpt>
<trkpt lat="-27.0413560" lon="152.9779512">
<ele>40.924</ele>
<time>2015-12-18T04:44:30.341Z</time>
</trkpt>
<trkpt lat="-27.0419384" lon="152.9779332">
<ele>40.111</ele>
<time>2015-12-18T04:44:32.363Z</time>
</trkpt>
<trkpt lat="-27.0427847" lon="152.9779059">
<ele>38.884</ele>
<time>2015-12-18T04:44:35.358Z</time>
</trkpt>
<trkpt lat="-27.0433342" lon="152.9778981">
<ele>37.784</ele>
<time>2015-12-18T04:44:37.341Z</time>
</trkpt>
<trkpt lat="-27.0441590" lon="152.9778550">
<ele>36.607</ele>
<time>2015-12-18T04:44:40.353Z</time>
</trkpt>
<trkpt lat="-27.0449648" lon="152.9778001">
<ele>34.488</ele>
<time>2015-12-18T04:44:43.309Z</time>
</trkpt>
<trkpt lat="-27.0457918" lon="152.9777169">
<ele>31.111</ele>
<time>2015-12-18T04:44:46.282Z</time>
</trkpt>
<trkpt lat="-27.0463605" lon="152.9776557">
<ele>26.954</ele>
<time>2015-12-18T04:44:48.257Z</time>
</trkpt>
<trkpt lat="-27.0469487" lon="152.9775829">
<ele>22.871</ele>
<time>2015-12-18T04:44:50.310Z</time>
</trkpt>
<trkpt lat="-27.0477931" lon="152.9774844">
<ele>19.408</ele>
<time>2015-12-18T04:44:53.315Z</time>
</trkpt>
<trkpt lat="-27.0483465" lon="152.9774275">
<ele>16.403</ele>
<time>2015-12-18T04:44:55.361Z</time>
</trkpt>
<trkpt lat="-27.0491394" lon="152.9773385">
<ele>13.964</ele>
<time>2015-12-18T04:44:58.363Z</time>
</trkpt>
<trkpt lat="-27.0496504" lon="152.9772874">
<ele>12.446</ele>
<time>2015-12-18T04:45:00.317Z</time>
</trkpt>
<trkpt lat="-27.0504424" lon="152.9771891">
<ele>11.751</ele>
<time>2015-12-18T04:45:03.325Z</time>
</trkpt>
<trkpt lat="-27.0509783" lon="152.9771188">
<ele>11.432</ele>
<time>2015-12-18T04:45:05.337Z</time>
</trkpt>
<trkpt lat="-27.0517768" lon="152.9770526">
<ele>11.331</ele>
<time>2015-12-18T04:45:08.326Z</time>
</trkpt>
<trkpt lat="-27.0523159" lon="152.9770044">
<ele>11.509</ele>
<time>2015-12-18T04:45:10.358Z</time>
</trkpt>
<trkpt lat="-27.0528467" lon="152.9769731">
<ele>11.998</ele>
<time>2015-12-18T04:45:12.341Z</time>
</trkpt>
<trkpt lat="-27.0536548" lon="152.9769451">
<ele>12.638</ele>
<time>2015-12-18T04:45:15.317Z</time>
</trkpt>
<trkpt lat="-27.0542118" lon="152.9769531">
<ele>13.104</ele>
<time>2015-12-18T04:45:17.342Z</time>
</trkpt>
<trkpt lat="-27.0550510" lon="152.9769862">
<ele>12.916</ele>
<time>2015-12-18T04:45:20.406Z</time>
</trkpt>
<trkpt lat="-27.0555907" lon="152.9770230">
<ele>11.843</ele>
<time>2015-12-18T04:45:22.395Z</time>
</trkpt>
<trkpt lat="-27.0563991" lon="152.9770687">
<ele>10.294</ele>
<time>2015-12-18T04:45:25.386Z</time>
</trkpt>
<trkpt lat="-27.0569424" lon="152.9771163">
<ele>8.949</ele>
<time>2015-12-18T04:45:27.411Z</time>
</trkpt>
<trkpt lat="-27.0577510" lon="152.9772000">
<ele>8.248</ele>
<time>2015-12-18T04:45:30.466Z</time>
</trkpt>
<trkpt lat="-27.0582727" lon="152.9772358">
<ele>8.166</ele>
<time>2015-12-18T04:45:32.501Z</time>
</trkpt>
<trkpt lat="-27.0590281" lon="152.9772760">
<ele>8.087</ele>
<time>2015-12-18T04:45:35.502Z</time>
</trkpt>
<trkpt lat="-27.0597723" lon="152.9773254">
<ele>7.588</ele>
<time>2015-12-18T04:45:38.517Z</time>
</trkpt>
<trkpt lat="-27.0600225" lon="152.9773343">
<ele>7.191</ele>
<time>2015-12-18T04:45:39.534Z</time>
</trkpt>
<trkpt lat="-27.0610404" lon="152.9773797">
<ele>7.418</ele>
<time>2015-12-18T04:45:43.619Z</time>
</trkpt>
<trkpt lat="-27.0617929" lon="152.9774268">
<ele>8.061</ele>
<time>2015-12-18T04:45:46.616Z</time>
</trkpt>
<trkpt lat="-27.0622898" lon="152.9774534">
<ele>8.643</ele>
<time>2015-12-18T04:45:48.588Z</time>
</trkpt>
<trkpt lat="-27.0627927" lon="152.9775004">
<ele>8.826</ele>
<time>2015-12-18T04:45:50.576Z</time>
</trkpt>
<trkpt lat="-27.0633054" lon="152.9775235">
<ele>8.619</ele>
<time>2015-12-18T04:45:52.587Z</time>
</trkpt>
<trkpt lat="-27.0638053" lon="152.9775655">
<ele>8.183</ele>
<time>2015-12-18T04:45:54.545Z</time>
</trkpt>
<trkpt lat="-27.0645822" lon="152.9776227">
<ele>7.630</ele>
<time>2015-12-18T04:45:57.591Z</time>
</trkpt>
<trkpt lat="-27.0653300" lon="152.9776818">
<ele>7.431</ele>
<time>2015-12-18T04:46:00.556Z</time>
</trkpt>
<trkpt lat="-27.0658378" lon="152.9776803">
<ele>7.840</ele>
<time>2015-12-18T04:46:02.581Z</time>
</trkpt>
<trkpt lat="-27.0663436" lon="152.9776944">
<ele>8.397</ele>
<time>2015-12-18T04:46:04.596Z</time>
</trkpt>
<trkpt lat="-27.0671121" lon="152.9777018">
<ele>8.329</ele>
<time>2015-12-18T04:46:07.687Z</time>
</trkpt>
<trkpt lat="-27.0678446" lon="152.9776985">
<ele>7.462</ele>
<time>2015-12-18T04:46:10.726Z</time>
</trkpt>
<trkpt lat="-27.0685426" lon="152.9776826">
<ele>6.477</ele>
<time>2015-12-18T04:46:13.761Z</time>
</trkpt>
<trkpt lat="-27.0689910" lon="152.9776668">
<ele>6.069</ele>
<time>2015-12-18T04:46:15.860Z</time>
</trkpt>
<trkpt lat="-27.0693712" lon="152.9776925">
<ele>6.184</ele>
<time>2015-12-18T04:46:17.761Z</time>
</trkpt>
<trkpt lat="-27.0697481" lon="152.9776919">
<ele>6.321</ele>
<time>2015-12-18T04:46:19.713Z</time>
</trkpt>
<trkpt lat="-27.0703343" lon="152.9776754">
<ele>6.162</ele>
<time>2015-12-18T04:46:22.776Z</time>
</trkpt>
<trkpt lat="-27.0709028" lon="152.9776425">
<ele>5.912</ele>
<time>2015-12-18T04:46:25.766Z</time>
</trkpt>
<trkpt lat="-27.0712848" lon="152.9776005">
<ele>5.829</ele>
<time>2015-12-18T04:46:27.825Z</time>
</trkpt>
<trkpt lat="-27.0718188" lon="152.9775427">
<ele>5.867</ele>
<time>2015-12-18T04:46:30.743Z</time>
</trkpt>
<trkpt lat="-27.0721627" lon="152.9775058">
<ele>5.713</ele>
<time>2015-12-18T04:46:32.655Z</time>
</trkpt>
<trkpt lat="-27.0725194" lon="152.9774871">
<ele>5.401</ele>
<time>2015-12-18T04:46:34.698Z</time>
</trkpt>
<trkpt lat="-27.0730210" lon="152.9775242">
<ele>5.137</ele>
<time>2015-12-18T04:46:37.683Z</time>
</trkpt>
<trkpt lat="-27.0733363" lon="152.9775677">
<ele>4.529</ele>
<time>2015-12-18T04:46:39.746Z</time>
</trkpt>
<trkpt lat="-27.0736114" lon="152.9775696">
<ele>3.369</ele>
<time>2015-12-18T04:46:41.726Z</time>
</trkpt>
<trkpt lat="-27.0739778" lon="152.9774138">
<ele>2.219</ele>
<time>2015-12-18T04:46:44.719Z</time>
</trkpt>
<trkpt lat="-27.0742046" lon="152.9773107">
<ele>1.400</ele>
<time>2015-12-18T04:46:46.758Z</time>
</trkpt>
<trkpt lat="-27.0744176" lon="152.9772858">
<ele>0.874</ele>
<time>2015-12-18T04:46:48.625Z</time>
</trkpt>
<trkpt lat="-27.0747373" lon="152.9774211">
<ele>0.605</ele>
<time>2015-12-18T04:46:51.654Z</time>
</trkpt>
<trkpt lat="-27.0748838" lon="152.9775973">
<ele>0.524</ele>
<time>2015-12-18T04:46:53.558Z</time>
</trkpt>
<trkpt lat="-27.0748599" lon="152.9780549">
<ele>0.526</ele>
<time>2015-12-18T04:46:57.021Z</time>
</trkpt>
<trkpt lat="-27.0746104" lon="152.9783880">
<ele>0.639</ele>
<time>2015-12-18T04:47:00.024Z</time>
</trkpt>
<trkpt lat="-27.0743662" lon="152.9785247">
<ele>0.945</ele>
<time>2015-12-18T04:47:01.849Z</time>
</trkpt>
<trkpt lat="-27.0738661" lon="152.9785889">
<ele>1.453</ele>
<time>2015-12-18T04:47:04.938Z</time>
</trkpt>
<trkpt lat="-27.0734990" lon="152.9785424">
<ele>2.533</ele>
<time>2015-12-18T04:47:06.920Z</time>
</trkpt>
<trkpt lat="-27.0731140" lon="152.9784587">
<ele>4.606</ele>
<time>2015-12-18T04:47:08.928Z</time>
</trkpt>
<trkpt lat="-27.0725649" lon="152.9782144">
<ele>7.418</ele>
<time>2015-12-18T04:47:11.929Z</time>
</trkpt>
<trkpt lat="-27.0720813" lon="152.9778197">
<ele>10.510</ele>
<time>2015-12-18T04:47:14.974Z</time>
</trkpt>
<trkpt lat="-27.0718200" lon="152.9774949">
<ele>13.289</ele>
<time>2015-12-18T04:47:16.982Z</time>
</trkpt>
<trkpt lat="-27.0715328" lon="152.9769434">
<ele>14.822</ele>
<time>2015-12-18T04:47:19.923Z</time>
</trkpt>
<trkpt lat="-27.0713947" lon="152.9765432">
<ele>14.916</ele>
<time>2015-12-18T04:47:21.892Z</time>
</trkpt>
<trkpt lat="-27.0713031" lon="152.9758943">
<ele>14.285</ele>
<time>2015-12-18T04:47:24.882Z</time>
</trkpt>
<trkpt lat="-27.0712887" lon="152.9754442">
<ele>13.531</ele>
<time>2015-12-18T04:47:26.890Z</time>
</trkpt>
<trkpt lat="-27.0713019" lon="152.9747636">
<ele>12.898</ele>
<time>2015-12-18T04:47:29.898Z</time>
</trkpt>
<trkpt lat="-27.0712820" lon="152.9743120">
<ele>12.381</ele>
<time>2015-12-18T04:47:31.877Z</time>
</trkpt>
<trkpt lat="-27.0712594" lon="152.9738521">
<ele>11.497</ele>
<time>2015-12-18T04:47:33.872Z</time>
</trkpt>
<trkpt lat="-27.0712385" lon="152.9731555">
<ele>9.965</ele>
<time>2015-12-18T04:47:36.847Z</time>
</trkpt>
<trkpt lat="-27.0712177" lon="152.9724394">
<ele>8.414</ele>
<time>2015-12-18T04:47:39.843Z</time>
</trkpt>
<trkpt lat="-27.0711939" lon="152.9719553">
<ele>7.761</ele>
<time>2015-12-18T04:47:41.844Z</time>
</trkpt>
<trkpt lat="-27.0712038" lon="152.9712282">
<ele>8.112</ele>
<time>2015-12-18T04:47:44.881Z</time>
</trkpt>
<trkpt lat="-27.0713020" lon="152.9705274">
<ele>8.784</ele>
<time>2015-12-18T04:47:47.907Z</time>
</trkpt>
<trkpt lat="-27.0714702" lon="152.9698876">
<ele>9.138</ele>
<time>2015-12-18T04:47:50.791Z</time>
</trkpt>
<trkpt lat="-27.0716444" lon="152.9694723">
<ele>9.128</ele>
<time>2015-12-18T04:47:52.778Z</time>
</trkpt>
<trkpt lat="-27.0720007" lon="152.9689035">
<ele>9.154</ele>
<time>2015-12-18T04:47:55.782Z</time>
</trkpt>
<trkpt lat="-27.0724357" lon="152.9684169">
<ele>9.545</ele>
<time>2015-12-18T04:47:58.772Z</time>
</trkpt>
<trkpt lat="-27.0728658" lon="152.9679433">
<ele>10.258</ele>
<time>2015-12-18T04:48:01.751Z</time>
</trkpt>
<trkpt lat="-27.0731121" lon="152.9675974">
<ele>11.033</ele>
<time>2015-12-18T04:48:03.736Z</time>
</trkpt>
<trkpt lat="-27.0734556" lon="152.9670521">
<ele>11.335</ele>
<time>2015-12-18T04:48:06.689Z</time>
</trkpt>
<trkpt lat="-27.0737452" lon="152.9664193">
<ele>10.827</ele>
<time>2015-12-18T04:48:09.760Z</time>
</trkpt>
<trkpt lat="-27.0738770" lon="152.9659818">
<ele>10.060</ele>
<time>2015-12-18T04:48:11.711Z</time>
</trkpt>
<trkpt lat="-27.0739830" lon="152.9655025">
<ele>9.757</ele>
<time>2015-12-18T04:48:13.749Z</time>
</trkpt>
<trkpt lat="-27.0740306" lon="152.9650228">
<ele>10.177</ele>
<time>2015-12-18T04:48:15.698Z</time>
</trkpt>
<trkpt lat="-27.0740735" lon="152.9645270">
<ele>11.075</ele>
<time>2015-12-18T04:48:17.683Z</time>
</trkpt>
<trkpt lat="-27.0740688" lon="152.9640138">
<ele>11.724</ele>
<time>2015-12-18T04:48:19.729Z</time>
</trkpt>
<trkpt lat="-27.0739779" lon="152.9632718">
<ele>11.517</ele>
<time>2015-12-18T04:48:22.729Z</time>
</trkpt>
<trkpt lat="-27.0738580" lon="152.9627971">
<ele>10.696</ele>
<time>2015-12-18T04:48:24.711Z</time>
</trkpt>
<trkpt lat="-27.0737059" lon="152.9623254">
<ele>10.088</ele>
<time>2015-12-18T04:48:26.706Z</time>
</trkpt>
<trkpt lat="-27.0734193" lon="152.9616375">
<ele>10.114</ele>
<time>2015-12-18T04:48:29.692Z</time>
</trkpt>
<trkpt lat="-27.0731714" lon="152.9612037">
<ele>10.455</ele>
<time>2015-12-18T04:48:31.682Z</time>
</trkpt>
<trkpt lat="-27.0728746" lon="152.9607917">
<ele>10.727</ele>
<time>2015-12-18T04:48:33.708Z</time>
</trkpt>
<trkpt lat="-27.0725892" lon="152.9603692">
<ele>10.848</ele>
<time>2015-12-18T04:48:35.727Z</time>
</trkpt>
<trkpt lat="-27.0723339" lon="152.9599318">
<ele>10.892</ele>
<time>2015-12-18T04:48:37.727Z</time>
</trkpt>
<trkpt lat="-27.0721056" lon="152.9594879">
<ele>10.949</ele>
<time>2015-12-18T04:48:39.690Z</time>
</trkpt>
<trkpt lat="-27.0718005" lon="152.9587790">
<ele>11.011</ele>
<time>2015-12-18T04:48:42.694Z</time>
</trkpt>
<trkpt lat="-27.0716398" lon="152.9582826">
<ele>10.963</ele>
<time>2015-12-18T04:48:44.691Z</time>
</trkpt>
<trkpt lat="-27.0715017" lon="152.9577646">
<ele>10.766</ele>
<time>2015-12-18T04:48:46.743Z</time>
</trkpt>
<trkpt lat="-27.0714146" lon="152.9572505">
<ele>10.554</ele>
<time>2015-12-18T04:48:48.760Z</time>
</trkpt>
<trkpt lat="-27.0713368" lon="152.9567565">
<ele>10.356</ele>
<time>2015-12-18T04:48:50.714Z</time>
</trkpt>
<trkpt lat="-27.0712776" lon="152.9562485">
<ele>9.943</ele>
<time>2015-12-18T04:48:52.737Z</time>
</trkpt>
<trkpt lat="-27.0712034" lon="152.9555074">
<ele>9.318</ele>
<time>2015-12-18T04:48:55.725Z</time>
</trkpt>
<trkpt lat="-27.0711237" lon="152.9547771">
<ele>9.211</ele>
<time>2015-12-18T04:48:58.717Z</time>
</trkpt>
<trkpt lat="-27.0710699" lon="152.9542896">
<ele>10.038</ele>
<time>2015-12-18T04:49:00.726Z</time>
</trkpt>
<trkpt lat="-27.0709894" lon="152.9535709">
<ele>11.068</ele>
<time>2015-12-18T04:49:03.689Z</time>
</trkpt>
<trkpt lat="-27.0709178" lon="152.9528671">
<ele>11.476</ele>
<time>2015-12-18T04:49:06.588Z</time>
</trkpt>
<trkpt lat="-27.0708112" lon="152.9521370">
<ele>11.286</ele>
<time>2015-12-18T04:49:09.630Z</time>
</trkpt>
<trkpt lat="-27.0707407" lon="152.9516821">
<ele>10.941</ele>
<time>2015-12-18T04:49:11.551Z</time>
</trkpt>
<trkpt lat="-27.0705960" lon="152.9509806">
<ele>10.789</ele>
<time>2015-12-18T04:49:14.584Z</time>
</trkpt>
<trkpt lat="-27.0705017" lon="152.9505376">
<ele>11.434</ele>
<time>2015-12-18T04:49:16.506Z</time>
</trkpt>
<trkpt lat="-27.0703855" lon="152.9498332">
<ele>13.101</ele>
<time>2015-12-18T04:49:19.461Z</time>
</trkpt>
<trkpt lat="-27.0702397" lon="152.9490956">
<ele>15.095</ele>
<time>2015-12-18T04:49:22.471Z</time>
</trkpt>
<trkpt lat="-27.0701488" lon="152.9485978">
<ele>16.884</ele>
<time>2015-12-18T04:49:24.457Z</time>
</trkpt>
<trkpt lat="-27.0700157" lon="152.9478401">
<ele>18.577</ele>
<time>2015-12-18T04:49:27.498Z</time>
</trkpt>
<trkpt lat="-27.0698828" lon="152.9470984">
<ele>20.106</ele>
<time>2015-12-18T04:49:30.510Z</time>
</trkpt>
<trkpt lat="-27.0697877" lon="152.9466119">
<ele>21.187</ele>
<time>2015-12-18T04:49:32.471Z</time>
</trkpt>
<trkpt lat="-27.0696960" lon="152.9461099">
<ele>21.599</ele>
<time>2015-12-18T04:49:34.431Z</time>
</trkpt>
<trkpt lat="-27.0696158" lon="152.9455981">
<ele>21.502</ele>
<time>2015-12-18T04:49:36.354Z</time>
</trkpt>
<trkpt lat="-27.0694619" lon="152.9447887">
<ele>21.200</ele>
<time>2015-12-18T04:49:39.371Z</time>
</trkpt>
<trkpt lat="-27.0693560" lon="152.9442537">
<ele>20.697</ele>
<time>2015-12-18T04:49:41.350Z</time>
</trkpt>
<trkpt lat="-27.0692015" lon="152.9434339">
<ele>19.834</ele>
<time>2015-12-18T04:49:44.376Z</time>
</trkpt>
<trkpt lat="-27.0691067" lon="152.9428899">
<ele>18.862</ele>
<time>2015-12-18T04:49:46.388Z</time>
</trkpt>
<trkpt lat="-27.0689540" lon="152.9420778">
<ele>18.097</ele>
<time>2015-12-18T04:49:49.405Z</time>
</trkpt>
<trkpt lat="-27.0688529" lon="152.9415398">
<ele>17.449</ele>
<time>2015-12-18T04:49:51.389Z</time>
</trkpt>
<trkpt lat="-27.0687118" lon="152.9407157">
<ele>16.887</ele>
<time>2015-12-18T04:49:54.394Z</time>
</trkpt>
<trkpt lat="-27.0686103" lon="152.9401695">
<ele>16.862</ele>
<time>2015-12-18T04:49:56.402Z</time>
</trkpt>
<trkpt lat="-27.0685121" lon="152.9396397">
<ele>17.608</ele>
<time>2015-12-18T04:49:58.413Z</time>
</trkpt>
<trkpt lat="-27.0683859" lon="152.9388742">
<ele>18.544</ele>
<time>2015-12-18T04:50:01.387Z</time>
</trkpt>
<trkpt lat="-27.0683055" lon="152.9383880">
<ele>18.898</ele>
<time>2015-12-18T04:50:03.326Z</time>
</trkpt>
<trkpt lat="-27.0682287" lon="152.9378848">
<ele>18.475</ele>
<time>2015-12-18T04:50:05.330Z</time>
</trkpt>
<trkpt lat="-27.0681278" lon="152.9371233">
<ele>17.660</ele>
<time>2015-12-18T04:50:08.321Z</time>
</trkpt>
<trkpt lat="-27.0680603" lon="152.9365992">
<ele>17.015</ele>
<time>2015-12-18T04:50:10.285Z</time>
</trkpt>
<trkpt lat="-27.0679573" lon="152.9357603">
<ele>16.813</ele>
<time>2015-12-18T04:50:13.311Z</time>
</trkpt>
<trkpt lat="-27.0678490" lon="152.9349010">
<ele>17.471</ele>
<time>2015-12-18T04:50:16.337Z</time>
</trkpt>
<trkpt lat="-27.0677748" lon="152.9343411">
<ele>19.108</ele>
<time>2015-12-18T04:50:18.344Z</time>
</trkpt>
<trkpt lat="-27.0676748" lon="152.9335271">
<ele>20.837</ele>
<time>2015-12-18T04:50:21.305Z</time>
</trkpt>
<trkpt lat="-27.0676144" lon="152.9329838">
<ele>21.776</ele>
<time>2015-12-18T04:50:23.290Z</time>
</trkpt>
<trkpt lat="-27.0675423" lon="152.9324579">
<ele>22.086</ele>
<time>2015-12-18T04:50:25.207Z</time>
</trkpt>
<trkpt lat="-27.0674322" lon="152.9316264">
<ele>22.263</ele>
<time>2015-12-18T04:50:28.217Z</time>
</trkpt>
<trkpt lat="-27.0673141" lon="152.9307949">
<ele>22.774</ele>
<time>2015-12-18T04:50:31.202Z</time>
</trkpt>
<trkpt lat="-27.0672144" lon="152.9299488">
<ele>23.887</ele>
<time>2015-12-18T04:50:34.205Z</time>
</trkpt>
<trkpt lat="-27.0671241" lon="152.9293964">
<ele>25.248</ele>
<time>2015-12-18T04:50:36.187Z</time>
</trkpt>
<trkpt lat="-27.0670108" lon="152.9285559">
<ele>26.292</ele>
<time>2015-12-18T04:50:39.228Z</time>
</trkpt>
<trkpt lat="-27.0668864" lon="152.9277550">
<ele>26.897</ele>
<time>2015-12-18T04:50:42.161Z</time>
</trkpt>
<trkpt lat="-27.0667694" lon="152.9269347">
<ele>27.036</ele>
<time>2015-12-18T04:50:45.138Z</time>
</trkpt>
<trkpt lat="-27.0666066" lon="152.9261142">
<ele>26.722</ele>
<time>2015-12-18T04:50:48.128Z</time>
</trkpt>
<trkpt lat="-27.0665207" lon="152.9255620">
<ele>25.954</ele>
<time>2015-12-18T04:50:50.114Z</time>
</trkpt>
<trkpt lat="-27.0663844" lon="152.9247332">
<ele>24.729</ele>
<time>2015-12-18T04:50:53.088Z</time>
</trkpt>
<trkpt lat="-27.0662490" lon="152.9238881">
<ele>23.610</ele>
<time>2015-12-18T04:50:56.097Z</time>
</trkpt>
<trkpt lat="-27.0661724" lon="152.9233239">
<ele>23.289</ele>
<time>2015-12-18T04:50:58.097Z</time>
</trkpt>
<trkpt lat="-27.0660331" lon="152.9225069">
<ele>23.716</ele>
<time>2015-12-18T04:51:01.040Z</time>
</trkpt>
<trkpt lat="-27.0659127" lon="152.9216778">
<ele>24.389</ele>
<time>2015-12-18T04:51:04.036Z</time>
</trkpt>
<trkpt lat="-27.0658287" lon="152.9211212">
<ele>24.999</ele>
<time>2015-12-18T04:51:06.036Z</time>
</trkpt>
<trkpt lat="-27.0657179" lon="152.9202779">
<ele>25.752</ele>
<time>2015-12-18T04:51:09.041Z</time>
</trkpt>
<trkpt lat="-27.0656095" lon="152.9194380">
<ele>26.746</ele>
<time>2015-12-18T04:51:12.031Z</time>
</trkpt>
<trkpt lat="-27.0655304" lon="152.9188868">
<ele>27.537</ele>
<time>2015-12-18T04:51:14.020Z</time>
</trkpt>
<trkpt lat="-27.0653772" lon="152.9180756">
<ele>27.709</ele>
<time>2015-12-18T04:51:17.014Z</time>
</trkpt>
<trkpt lat="-27.0651638" lon="152.9173020">
<ele>27.503</ele>
<time>2015-12-18T04:51:19.963Z</time>
</trkpt>
<trkpt lat="-27.0649863" lon="152.9167784">
<ele>27.857</ele>
<time>2015-12-18T04:51:21.983Z</time>
</trkpt>
<trkpt lat="-27.0647836" lon="152.9162810">
<ele>29.113</ele>
<time>2015-12-18T04:51:23.949Z</time>
</trkpt>
<trkpt lat="-27.0644312" lon="152.9155594">
<ele>30.377</ele>
<time>2015-12-18T04:51:26.923Z</time>
</trkpt>
<trkpt lat="-27.0641826" lon="152.9150861">
<ele>30.918</ele>
<time>2015-12-18T04:51:28.902Z</time>
</trkpt>
<trkpt lat="-27.0639274" lon="152.9145980">
<ele>30.932</ele>
<time>2015-12-18T04:51:30.913Z</time>
</trkpt>
<trkpt lat="-27.0636758" lon="152.9140986">
<ele>30.856</ele>
<time>2015-12-18T04:51:32.928Z</time>
</trkpt>
<trkpt lat="-27.0634121" lon="152.9136122">
<ele>30.871</ele>
<time>2015-12-18T04:51:34.918Z</time>
</trkpt>
<trkpt lat="-27.0631664" lon="152.9131153">
<ele>30.925</ele>
<time>2015-12-18T04:51:36.903Z</time>
</trkpt>
<trkpt lat="-27.0627619" lon="152.9123833">
<ele>31.012</ele>
<time>2015-12-18T04:51:39.912Z</time>
</trkpt>
<trkpt lat="-27.0625016" lon="152.9118863">
<ele>31.337</ele>
<time>2015-12-18T04:51:41.958Z</time>
</trkpt>
<trkpt lat="-27.0621327" lon="152.9111953">
<ele>31.974</ele>
<time>2015-12-18T04:51:44.901Z</time>
</trkpt>
<trkpt lat="-27.0618835" lon="152.9107474">
<ele>32.541</ele>
<time>2015-12-18T04:51:46.905Z</time>
</trkpt>
<trkpt lat="-27.0616497" lon="152.9103020">
<ele>32.544</ele>
<time>2015-12-18T04:51:48.917Z</time>
</trkpt>
<trkpt lat="-27.0614390" lon="152.9098705">
<ele>31.822</ele>
<time>2015-12-18T04:51:50.859Z</time>
</trkpt>
<trkpt lat="-27.0611253" lon="152.9091844">
<ele>30.764</ele>
<time>2015-12-18T04:51:53.858Z</time>
</trkpt>
<trkpt lat="-27.0608515" lon="152.9084411">
<ele>30.110</ele>
<time>2015-12-18T04:51:56.859Z</time>
</trkpt>
<trkpt lat="-27.0606339" lon="152.9076335">
<ele>30.354</ele>
<time>2015-12-18T04:51:59.911Z</time>
</trkpt>
<trkpt lat="-27.0604813" lon="152.9071082">
<ele>31.384</ele>
<time>2015-12-18T04:52:01.909Z</time>
</trkpt>
<trkpt lat="-27.0602336" lon="152.9063473">
<ele>32.730</ele>
<time>2015-12-18T04:52:04.874Z</time>
</trkpt>
<trkpt lat="-27.0599247" lon="152.9056117">
<ele>33.921</ele>
<time>2015-12-18T04:52:07.881Z</time>
</trkpt>
<trkpt lat="-27.0597135" lon="152.9051412">
<ele>34.564</ele>
<time>2015-12-18T04:52:09.834Z</time>
</trkpt>
<trkpt lat="-27.0594621" lon="152.9046722">
<ele>34.583</ele>
<time>2015-12-18T04:52:11.863Z</time>
</trkpt>
<trkpt lat="-27.0591811" lon="152.9042304">
<ele>34.453</ele>
<time>2015-12-18T04:52:13.884Z</time>
</trkpt>
<trkpt lat="-27.0587325" lon="152.9036208">
<ele>34.546</ele>
<time>2015-12-18T04:52:16.853Z</time>
</trkpt>
<trkpt lat="-27.0584208" lon="152.9032244">
<ele>35.004</ele>
<time>2015-12-18T04:52:18.856Z</time>
</trkpt>
<trkpt lat="-27.0579041" lon="152.9026728">
<ele>35.585</ele>
<time>2015-12-18T04:52:21.893Z</time>
</trkpt>
<trkpt lat="-27.0573379" lon="152.9021649">
<ele>35.787</ele>
<time>2015-12-18T04:52:24.936Z</time>
</trkpt>
<trkpt lat="-27.0569529" lon="152.9018190">
<ele>35.585</ele>
<time>2015-12-18T04:52:26.953Z</time>
</trkpt>
<trkpt lat="-27.0563734" lon="152.9012774">
<ele>35.206</ele>
<time>2015-12-18T04:52:29.990Z</time>
</trkpt>
<trkpt lat="-27.0559884" lon="152.9009060">
<ele>35.024</ele>
<time>2015-12-18T04:52:32.014Z</time>
</trkpt>
<trkpt lat="-27.0554279" lon="152.9003484">
<ele>35.459</ele>
<time>2015-12-18T04:52:34.990Z</time>
</trkpt>
<trkpt lat="-27.0550413" lon="152.8999620">
<ele>36.131</ele>
<time>2015-12-18T04:52:37.021Z</time>
</trkpt>
<trkpt lat="-27.0544627" lon="152.8993794">
<ele>36.429</ele>
<time>2015-12-18T04:52:40.018Z</time>
</trkpt>
<trkpt lat="-27.0538764" lon="152.8987831">
<ele>36.362</ele>
<time>2015-12-18T04:52:43.043Z</time>
</trkpt>
<trkpt lat="-27.0534858" lon="152.8983880">
<ele>36.108</ele>
<time>2015-12-18T04:52:45.055Z</time>
</trkpt>
<trkpt lat="-27.0531104" lon="152.8979998">
<ele>35.776</ele>
<time>2015-12-18T04:52:47.036Z</time>
</trkpt>
<trkpt lat="-27.0527329" lon="152.8976198">
<ele>35.336</ele>
<time>2015-12-18T04:52:49.035Z</time>
</trkpt>
<trkpt lat="-27.0522089" lon="152.8970221">
<ele>34.839</ele>
<time>2015-12-18T04:52:52.005Z</time>
</trkpt>
<trkpt lat="-27.0518735" lon="152.8966051">
<ele>34.045</ele>
<time>2015-12-18T04:52:54.012Z</time>
</trkpt>
<trkpt lat="-27.0515919" lon="152.8961601">
<ele>32.779</ele>
<time>2015-12-18T04:52:55.985Z</time>
</trkpt>
<trkpt lat="-27.0512117" lon="152.8954597">
<ele>31.665</ele>
<time>2015-12-18T04:52:58.971Z</time>
</trkpt>
<trkpt lat="-27.0509539" lon="152.8947002">
<ele>31.279</ele>
<time>2015-12-18T04:53:01.926Z</time>
</trkpt>
<trkpt lat="-27.0507544" lon="152.8938966">
<ele>31.244</ele>
<time>2015-12-18T04:53:04.935Z</time>
</trkpt>
<trkpt lat="-27.0506396" lon="152.8930761">
<ele>30.874</ele>
<time>2015-12-18T04:53:07.938Z</time>
</trkpt>
<trkpt lat="-27.0505361" lon="152.8922856">
<ele>30.011</ele>
<time>2015-12-18T04:53:10.902Z</time>
</trkpt>
<trkpt lat="-27.0504042" lon="152.8915371">
<ele>29.199</ele>
<time>2015-12-18T04:53:13.865Z</time>
</trkpt>
<trkpt lat="-27.0502699" lon="152.8908193">
<ele>28.829</ele>
<time>2015-12-18T04:53:16.884Z</time>
</trkpt>
<trkpt lat="-27.0501651" lon="152.8903814">
<ele>28.536</ele>
<time>2015-12-18T04:53:18.876Z</time>
</trkpt>
<trkpt lat="-27.0499390" lon="152.8897750">
<ele>27.956</ele>
<time>2015-12-18T04:53:21.867Z</time>
</trkpt>
<trkpt lat="-27.0497003" lon="152.8892043">
<ele>27.298</ele>
<time>2015-12-18T04:53:24.776Z</time>
</trkpt>
<trkpt lat="-27.0495203" lon="152.8888038">
<ele>26.912</ele>
<time>2015-12-18T04:53:26.812Z</time>
</trkpt>
<trkpt lat="-27.0493258" lon="152.8884107">
<ele>26.974</ele>
<time>2015-12-18T04:53:28.837Z</time>
</trkpt>
<trkpt lat="-27.0490569" lon="152.8878362">
<ele>27.415</ele>
<time>2015-12-18T04:53:31.783Z</time>
</trkpt>
<trkpt lat="-27.0487842" lon="152.8872560">
<ele>27.661</ele>
<time>2015-12-18T04:53:34.784Z</time>
</trkpt>
<trkpt lat="-27.0486076" lon="152.8868735">
<ele>27.122</ele>
<time>2015-12-18T04:53:36.758Z</time>
</trkpt>
<trkpt lat="-27.0483072" lon="152.8863162">
<ele>26.053</ele>
<time>2015-12-18T04:53:39.761Z</time>
</trkpt>
<trkpt lat="-27.0481083" lon="152.8859553">
<ele>25.098</ele>
<time>2015-12-18T04:53:41.749Z</time>
</trkpt>
<trkpt lat="-27.0478004" lon="152.8854302">
<ele>24.603</ele>
<time>2015-12-18T04:53:44.751Z</time>
</trkpt>
<trkpt lat="-27.0474825" lon="152.8849285">
<ele>24.781</ele>
<time>2015-12-18T04:53:47.749Z</time>
</trkpt>
<trkpt lat="-27.0472901" lon="152.8845994">
<ele>25.696</ele>
<time>2015-12-18T04:53:49.693Z</time>
</trkpt>
<trkpt lat="-27.0470882" lon="152.8842733">
<ele>27.009</ele>
<time>2015-12-18T04:53:51.658Z</time>
</trkpt>
<trkpt lat="-27.0468608" lon="152.8839349">
<ele>28.223</ele>
<time>2015-12-18T04:53:53.697Z</time>
</trkpt>
<trkpt lat="-27.0465664" lon="152.8833610">
<ele>29.522</ele>
<time>2015-12-18T04:53:56.778Z</time>
</trkpt>
<trkpt lat="-27.0462908" lon="152.8828073">
<ele>31.559</ele>
<time>2015-12-18T04:53:59.715Z</time>
</trkpt>
<trkpt lat="-27.0460680" lon="152.8822082">
<ele>33.938</ele>
<time>2015-12-18T04:54:02.733Z</time>
</trkpt>
<trkpt lat="-27.0459899" lon="152.8817899">
<ele>35.560</ele>
<time>2015-12-18T04:54:04.709Z</time>
</trkpt>
<trkpt lat="-27.0459451" lon="152.8813547">
<ele>36.277</ele>
<time>2015-12-18T04:54:06.738Z</time>
</trkpt>
<trkpt lat="-27.0459142" lon="152.8807002">
<ele>36.591</ele>
<time>2015-12-18T04:54:09.764Z</time>
</trkpt>
<trkpt lat="-27.0459008" lon="152.8800643">
<ele>36.657</ele>
<time>2015-12-18T04:54:12.709Z</time>
</trkpt>
<trkpt lat="-27.0458744" lon="152.8794194">
<ele>36.443</ele>
<time>2015-12-18T04:54:15.709Z</time>
</trkpt>
<trkpt lat="-27.0458546" lon="152.8787762">
<ele>36.280</ele>
<time>2015-12-18T04:54:18.698Z</time>
</trkpt>
<trkpt lat="-27.0458607" lon="152.8783379">
<ele>36.456</ele>
<time>2015-12-18T04:54:20.732Z</time>
</trkpt>
<trkpt lat="-27.0458422" lon="152.8777035">
<ele>36.808</ele>
<time>2015-12-18T04:54:23.685Z</time>
</trkpt>
<trkpt lat="-27.0458329" lon="152.8772769">
<ele>37.220</ele>
<time>2015-12-18T04:54:25.680Z</time>
</trkpt>
<trkpt lat="-27.0457974" lon="152.8768389">
<ele>37.951</ele>
<time>2015-12-18T04:54:27.720Z</time>
</trkpt>
<trkpt lat="-27.0457570" lon="152.8764069">
<ele>38.955</ele>
<time>2015-12-18T04:54:29.715Z</time>
</trkpt>
<trkpt lat="-27.0456679" lon="152.8757645">
<ele>39.722</ele>
<time>2015-12-18T04:54:32.693Z</time>
</trkpt>
<trkpt lat="-27.0456101" lon="152.8753322">
<ele>39.976</ele>
<time>2015-12-18T04:54:34.682Z</time>
</trkpt>
<trkpt lat="-27.0455225" lon="152.8746655">
<ele>39.883</ele>
<time>2015-12-18T04:54:37.714Z</time>
</trkpt>
<trkpt lat="-27.0454713" lon="152.8742178">
<ele>39.705</ele>
<time>2015-12-18T04:54:39.736Z</time>
</trkpt>
<trkpt lat="-27.0454094" lon="152.8737795">
<ele>39.545</ele>
<time>2015-12-18T04:54:41.740Z</time>
</trkpt>
<trkpt lat="-27.0453144" lon="152.8731307">
<ele>39.481</ele>
<time>2015-12-18T04:54:44.769Z</time>
</trkpt>
<trkpt lat="-27.0452593" lon="152.8727254">
<ele>39.613</ele>
<time>2015-12-18T04:54:46.697Z</time>
</trkpt>
<trkpt lat="-27.0451771" lon="152.8720999">
<ele>40.015</ele>
<time>2015-12-18T04:54:49.701Z</time>
</trkpt>
<trkpt lat="-27.0450727" lon="152.8716879">
<ele>41.141</ele>
<time>2015-12-18T04:54:51.714Z</time>
</trkpt>
<trkpt lat="-27.0448098" lon="152.8710963">
<ele>43.042</ele>
<time>2015-12-18T04:54:54.747Z</time>
</trkpt>
<trkpt lat="-27.0446120" lon="152.8707124">
<ele>44.931</ele>
<time>2015-12-18T04:54:56.762Z</time>
</trkpt>
<trkpt lat="-27.0443396" lon="152.8701509">
<ele>46.239</ele>
<time>2015-12-18T04:54:59.728Z</time>
</trkpt>
<trkpt lat="-27.0440418" lon="152.8696268">
<ele>46.629</ele>
<time>2015-12-18T04:55:02.699Z</time>
</trkpt>
<trkpt lat="-27.0437980" lon="152.8693168">
<ele>45.856</ele>
<time>2015-12-18T04:55:04.701Z</time>
</trkpt>
<trkpt lat="-27.0435097" lon="152.8690557">
<ele>44.456</ele>
<time>2015-12-18T04:55:06.709Z</time>
</trkpt>
<trkpt lat="-27.0432026" lon="152.8688256">
<ele>43.351</ele>
<time>2015-12-18T04:55:08.678Z</time>
</trkpt>
<trkpt lat="-27.0426417" lon="152.8686162">
<ele>42.869</ele>
<time>2015-12-18T04:55:11.743Z</time>
</trkpt>
<trkpt lat="-27.0422489" lon="152.8685237">
<ele>42.795</ele>
<time>2015-12-18T04:55:13.778Z</time>
</trkpt>
<trkpt lat="-27.0416476" lon="152.8684281">
<ele>42.846</ele>
<time>2015-12-18T04:55:16.913Z</time>
</trkpt>
<trkpt lat="-27.0412882" lon="152.8683494">
<ele>42.922</ele>
<time>2015-12-18T04:55:18.898Z</time>
</trkpt>
<trkpt lat="-27.0407798" lon="152.8682000">
<ele>43.090</ele>
<time>2015-12-18T04:55:21.870Z</time>
</trkpt>
<trkpt lat="-27.0403454" lon="152.8679472">
<ele>43.389</ele>
<time>2015-12-18T04:55:24.792Z</time>
</trkpt>
<trkpt lat="-27.0400901" lon="152.8677125">
<ele>43.914</ele>
<time>2015-12-18T04:55:26.831Z</time>
</trkpt>
<trkpt lat="-27.0398434" lon="152.8672401">
<ele>44.980</ele>
<time>2015-12-18T04:55:29.857Z</time>
</trkpt>
<trkpt lat="-27.0397565" lon="152.8668967">
<ele>46.778</ele>
<time>2015-12-18T04:55:31.852Z</time>
</trkpt>
<trkpt lat="-27.0397367" lon="152.8665472">
<ele>49.078</ele>
<time>2015-12-18T04:55:33.870Z</time>
</trkpt>
<trkpt lat="-27.0397067" lon="152.8662315">
<ele>51.175</ele>
<time>2015-12-18T04:55:35.819Z</time>
</trkpt>
<trkpt lat="-27.0396948" lon="152.8657969">
<ele>52.355</ele>
<time>2015-12-18T04:55:38.688Z</time>
</trkpt>
<trkpt lat="-27.0397057" lon="152.8655082">
<ele>52.490</ele>
<time>2015-12-18T04:55:40.704Z</time>
</trkpt>
<trkpt lat="-27.0397064" lon="152.8652209">
<ele>51.838</ele>
<time>2015-12-18T04:55:42.717Z</time>
</trkpt>
<trkpt lat="-27.0397168" lon="152.8649535">
<ele>50.885</ele>
<time>2015-12-18T04:55:44.680Z</time>
</trkpt>
<trkpt lat="-27.0397292" lon="152.8646083">
<ele>50.147</ele>
<time>2015-12-18T04:55:47.410Z</time>
</trkpt>
<trkpt lat="-27.0397333" lon="152.8642297">
<ele>49.594</ele>
<time>2015-12-18T04:55:50.463Z</time>
</trkpt>
<trkpt lat="-27.0397653" lon="152.8637917">
<ele>48.945</ele>
<time>2015-12-18T04:55:53.599Z</time>
</trkpt>
<trkpt lat="-27.0398115" lon="152.8634674">
<ele>48.671</ele>
<time>2015-12-18T04:55:55.696Z</time>
</trkpt>
<trkpt lat="-27.0398790" lon="152.8631319">
<ele>49.244</ele>
<time>2015-12-18T04:55:57.827Z</time>
</trkpt>
<trkpt lat="-27.0399146" lon="152.8628272">
<ele>50.462</ele>
<time>2015-12-18T04:55:59.779Z</time>
</trkpt>
<trkpt lat="-27.0399743" lon="152.8625242">
<ele>52.002</ele>
<time>2015-12-18T04:56:01.834Z</time>
</trkpt>
<trkpt lat="-27.0400124" lon="152.8620986">
<ele>53.676</ele>
<time>2015-12-18T04:56:04.725Z</time>
</trkpt>
<trkpt lat="-27.0400951" lon="152.8616705">
<ele>55.320</ele>
<time>2015-12-18T04:56:07.672Z</time>
</trkpt>
<trkpt lat="-27.0401536" lon="152.8613473">
<ele>56.698</ele>
<time>2015-12-18T04:56:09.768Z</time>
</trkpt>
<trkpt lat="-27.0401559" lon="152.8608544">
<ele>57.678</ele>
<time>2015-12-18T04:56:12.734Z</time>
</trkpt>
<trkpt lat="-27.0400391" lon="152.8605030">
<ele>58.873</ele>
<time>2015-12-18T04:56:14.938Z</time>
</trkpt>
<trkpt lat="-27.0398618" lon="152.8600672">
<ele>60.644</ele>
<time>2015-12-18T04:56:17.791Z</time>
</trkpt>
<trkpt lat="-27.0395676" lon="152.8596855">
<ele>62.242</ele>
<time>2015-12-18T04:56:20.846Z</time>
</trkpt>
<trkpt lat="-27.0392293" lon="152.8593826">
<ele>62.999</ele>
<time>2015-12-18T04:56:23.847Z</time>
</trkpt>
<trkpt lat="-27.0390091" lon="152.8592078">
<ele>62.989</ele>
<time>2015-12-18T04:56:25.797Z</time>
</trkpt>
<trkpt lat="-27.0387882" lon="152.8590361">
<ele>62.528</ele>
<time>2015-12-18T04:56:27.780Z</time>
</trkpt>
<trkpt lat="-27.0385569" lon="152.8588691">
<ele>62.007</ele>
<time>2015-12-18T04:56:29.800Z</time>
</trkpt>
<trkpt lat="-27.0382120" lon="152.8586012">
<ele>61.668</ele>
<time>2015-12-18T04:56:32.848Z</time>
</trkpt>
<trkpt lat="-27.0379933" lon="152.8584293">
<ele>61.469</ele>
<time>2015-12-18T04:56:34.793Z</time>
</trkpt>
<trkpt lat="-27.0377574" lon="152.8582610">
<ele>61.282</ele>
<time>2015-12-18T04:56:36.820Z</time>
</trkpt>
<trkpt lat="-27.0374277" lon="152.8579604">
<ele>61.092</ele>
<time>2015-12-18T04:56:39.840Z</time>
</trkpt>
<trkpt lat="-27.0370814" lon="152.8576502">
<ele>60.997</ele>
<time>2015-12-18T04:56:42.903Z</time>
</trkpt>
<trkpt lat="-27.0367443" lon="152.8573285">
<ele>61.019</ele>
<time>2015-12-18T04:56:45.884Z</time>
</trkpt>
<trkpt lat="-27.0363953" lon="152.8569980">
<ele>61.008</ele>
<time>2015-12-18T04:56:48.910Z</time>
</trkpt>
<trkpt lat="-27.0361830" lon="152.8567865">
<ele>60.718</ele>
<time>2015-12-18T04:56:50.835Z</time>
</trkpt>
<trkpt lat="-27.0359759" lon="152.8565706">
<ele>60.127</ele>
<time>2015-12-18T04:56:52.835Z</time>
</trkpt>
<trkpt lat="-27.0356601" lon="152.8562984">
<ele>59.511</ele>
<time>2015-12-18T04:56:55.834Z</time>
</trkpt>
<trkpt lat="-27.0353549" lon="152.8560899">
<ele>59.010</ele>
<time>2015-12-18T04:56:58.888Z</time>
</trkpt>
<trkpt lat="-27.0351036" lon="152.8559147">
<ele>58.215</ele>
<time>2015-12-18T04:57:01.784Z</time>
</trkpt>
<trkpt lat="-27.0348694" lon="152.8557681">
<ele>56.834</ele>
<time>2015-12-18T04:57:04.755Z</time>
</trkpt>
<trkpt lat="-27.0346716" lon="152.8556551">
<ele>55.278</ele>
<time>2015-12-18T04:57:07.584Z</time>
</trkpt>
<trkpt lat="-27.0345472" lon="152.8555911">
<ele>53.986</ele>
<time>2015-12-18T04:57:09.795Z</time>
</trkpt>
<trkpt lat="-27.0344519" lon="152.8555201">
<ele>53.028</ele>
<time>2015-12-18T04:57:12.273Z</time>
</trkpt>
<trkpt lat="-27.0343525" lon="152.8554941">
<ele>52.358</ele>
<time>2015-12-18T04:57:17.996Z</time>
</trkpt>
<trkpt lat="-27.0343525" lon="152.8554941">
<ele>51.794</ele>
<time>2015-12-18T04:57:17.997Z</time>
</trkpt>
<trkpt lat="-27.0343525" lon="152.8554941">
<ele>51.268</ele>
<time>2015-12-18T05:02:05.149Z</time>
</trkpt>
<trkpt lat="-27.0341953" lon="152.8554181">
<ele>51.044</ele>
<time>2015-12-18T05:02:14.159Z</time>
</trkpt>
<trkpt lat="-27.0340604" lon="152.8553493">
<ele>51.229</ele>
<time>2015-12-18T05:02:16.586Z</time>
</trkpt>
<trkpt lat="-27.0338481" lon="152.8552551">
<ele>51.603</ele>
<time>2015-12-18T05:02:19.548Z</time>
</trkpt>
<trkpt lat="-27.0336095" lon="152.8551198">
<ele>51.959</ele>
<time>2015-12-18T05:02:22.658Z</time>
</trkpt>
<trkpt lat="-27.0333778" lon="152.8549871">
<ele>52.381</ele>
<time>2015-12-18T05:02:25.631Z</time>
</trkpt>
<trkpt lat="-27.0331442" lon="152.8548379">
<ele>52.943</ele>
<time>2015-12-18T05:02:28.720Z</time>
</trkpt>
<trkpt lat="-27.0330109" lon="152.8547306">
<ele>53.448</ele>
<time>2015-12-18T05:02:30.622Z</time>
</trkpt>
<trkpt lat="-27.0328694" lon="152.8546419">
<ele>53.758</ele>
<time>2015-12-18T05:02:32.446Z</time>
</trkpt>
<trkpt lat="-27.0326966" lon="152.8545569">
<ele>53.976</ele>
<time>2015-12-18T05:02:34.462Z</time>
</trkpt>
<trkpt lat="-27.0324333" lon="152.8544018">
<ele>54.153</ele>
<time>2015-12-18T05:02:37.614Z</time>
</trkpt>
<trkpt lat="-27.0322814" lon="152.8542986">
<ele>54.279</ele>
<time>2015-12-18T05:02:39.505Z</time>
</trkpt>
<trkpt lat="-27.0321228" lon="152.8542066">
<ele>54.359</ele>
<time>2015-12-18T05:02:41.335Z</time>
</trkpt>
<trkpt lat="-27.0319365" lon="152.8541140">
<ele>54.400</ele>
<time>2015-12-18T05:02:43.321Z</time>
</trkpt>
<trkpt lat="-27.0316640" lon="152.8539573">
<ele>54.417</ele>
<time>2015-12-18T05:02:46.273Z</time>
</trkpt>
<trkpt lat="-27.0313839" lon="152.8538228">
<ele>54.435</ele>
<time>2015-12-18T05:02:49.222Z</time>
</trkpt>
<trkpt lat="-27.0310843" lon="152.8537174">
<ele>54.474</ele>
<time>2015-12-18T05:02:52.287Z</time>
</trkpt>
<trkpt lat="-27.0308923" lon="152.8536493">
<ele>54.464</ele>
<time>2015-12-18T05:02:54.313Z</time>
</trkpt>
<trkpt lat="-27.0307023" lon="152.8536076">
<ele>54.352</ele>
<time>2015-12-18T05:02:56.299Z</time>
</trkpt>
<trkpt lat="-27.0305225" lon="152.8535666">
<ele>54.260</ele>
<time>2015-12-18T05:02:58.186Z</time>
</trkpt>
<trkpt lat="-27.0303125" lon="152.8535232">
<ele>54.300</ele>
<time>2015-12-18T05:03:00.504Z</time>
</trkpt>
<trkpt lat="-27.0300611" lon="152.8534652">
<ele>54.346</ele>
<time>2015-12-18T05:03:03.667Z</time>
</trkpt>
<trkpt lat="-27.0299055" lon="152.8534483">
<ele>54.194</ele>
<time>2015-12-18T05:03:05.820Z</time>
</trkpt>
<trkpt lat="-27.0297681" lon="152.8534377">
<ele>53.823</ele>
<time>2015-12-18T05:03:07.742Z</time>
</trkpt>
<trkpt lat="-27.0295529" lon="152.8534074">
<ele>53.417</ele>
<time>2015-12-18T05:03:10.479Z</time>
</trkpt>
<trkpt lat="-27.0292956" lon="152.8533974">
<ele>53.148</ele>
<time>2015-12-18T05:03:13.335Z</time>
</trkpt>
<trkpt lat="-27.0290945" lon="152.8533710">
<ele>53.114</ele>
<time>2015-12-18T05:03:15.362Z</time>
</trkpt>
<trkpt lat="-27.0288891" lon="152.8533319">
<ele>53.313</ele>
<time>2015-12-18T05:03:17.416Z</time>
</trkpt>
<trkpt lat="-27.0286873" lon="152.8532964">
<ele>53.584</ele>
<time>2015-12-18T05:03:19.468Z</time>
</trkpt>
<trkpt lat="-27.0284821" lon="152.8532618">
<ele>53.726</ele>
<time>2015-12-18T05:03:21.561Z</time>
</trkpt>
<trkpt lat="-27.0282063" lon="152.8531849">
<ele>53.688</ele>
<time>2015-12-18T05:03:24.382Z</time>
</trkpt>
<trkpt lat="-27.0279097" lon="152.8530886">
<ele>53.544</ele>
<time>2015-12-18T05:03:27.472Z</time>
</trkpt>
<trkpt lat="-27.0276324" lon="152.8529624">
<ele>53.285</ele>
<time>2015-12-18T05:03:30.499Z</time>
</trkpt>
<trkpt lat="-27.0273540" lon="152.8528270">
<ele>52.868</ele>
<time>2015-12-18T05:03:33.433Z</time>
</trkpt>
<trkpt lat="-27.0270581" lon="152.8526698">
<ele>52.446</ele>
<time>2015-12-18T05:03:36.266Z</time>
</trkpt>
<trkpt lat="-27.0267456" lon="152.8524494">
<ele>52.203</ele>
<time>2015-12-18T05:03:39.165Z</time>
</trkpt>
<trkpt lat="-27.0263863" lon="152.8522084">
<ele>52.139</ele>
<time>2015-12-18T05:03:42.436Z</time>
</trkpt>
<trkpt lat="-27.0261030" lon="152.8519539">
<ele>52.115</ele>
<time>2015-12-18T05:03:45.432Z</time>
</trkpt>
<trkpt lat="-27.0258566" lon="152.8516874">
<ele>51.948</ele>
<time>2015-12-18T05:03:48.264Z</time>
</trkpt>
<trkpt lat="-27.0256060" lon="152.8513944">
<ele>51.621</ele>
<time>2015-12-18T05:03:51.187Z</time>
</trkpt>
<trkpt lat="-27.0254705" lon="152.8511776">
<ele>51.428</ele>
<time>2015-12-18T05:03:53.086Z</time>
</trkpt>
<trkpt lat="-27.0253140" lon="152.8509587">
<ele>51.664</ele>
<time>2015-12-18T05:03:55.201Z</time>
</trkpt>
<trkpt lat="-27.0251113" lon="152.8506453">
<ele>52.089</ele>
<time>2015-12-18T05:03:58.266Z</time>
</trkpt>
<trkpt lat="-27.0249814" lon="152.8504571">
<ele>52.343</ele>
<time>2015-12-18T05:04:00.167Z</time>
</trkpt>
<trkpt lat="-27.0248164" lon="152.8501277">
<ele>52.485</ele>
<time>2015-12-18T05:04:03.103Z</time>
</trkpt>
<trkpt lat="-27.0246795" lon="152.8499154">
<ele>52.840</ele>
<time>2015-12-18T05:04:05.091Z</time>
</trkpt>
<trkpt lat="-27.0244307" lon="152.8496367">
<ele>53.495</ele>
<time>2015-12-18T05:04:08.049Z</time>
</trkpt>
<trkpt lat="-27.0242642" lon="152.8494439">
<ele>54.151</ele>
<time>2015-12-18T05:04:10.072Z</time>
</trkpt>
<trkpt lat="-27.0240779" lon="152.8492722">
<ele>54.480</ele>
<time>2015-12-18T05:04:12.204Z</time>
</trkpt>
<trkpt lat="-27.0238124" lon="152.8490551">
<ele>54.557</ele>
<time>2015-12-18T05:04:15.174Z</time>
</trkpt>
<trkpt lat="-27.0236298" lon="152.8489219">
<ele>54.618</ele>
<time>2015-12-18T05:04:17.194Z</time>
</trkpt>
<trkpt lat="-27.0234572" lon="152.8487893">
<ele>54.784</ele>
<time>2015-12-18T05:04:19.175Z</time>
</trkpt>
<trkpt lat="-27.0232670" lon="152.8486807">
<ele>54.970</ele>
<time>2015-12-18T05:04:21.213Z</time>
</trkpt>
<trkpt lat="-27.0229776" lon="152.8485185">
<ele>55.095</ele>
<time>2015-12-18T05:04:24.622Z</time>
</trkpt>
<trkpt lat="-27.0228291" lon="152.8484130">
<ele>55.171</ele>
<time>2015-12-18T05:04:27.265Z</time>
</trkpt>
<trkpt lat="-27.0226608" lon="152.8483562">
<ele>55.131</ele>
<time>2015-12-18T05:04:32.632Z</time>
</trkpt>
<trkpt lat="-27.0225558" lon="152.8483115">
<ele>54.774</ele>
<time>2015-12-18T05:04:36.273Z</time>
</trkpt>
<trkpt lat="-27.0224397" lon="152.8482513">
<ele>54.131</ele>
<time>2015-12-18T05:04:38.650Z</time>
</trkpt>
<trkpt lat="-27.0223344" lon="152.8481972">
<ele>53.644</ele>
<time>2015-12-18T05:04:40.350Z</time>
</trkpt>
<trkpt lat="-27.0221990" lon="152.8481261">
<ele>53.589</ele>
<time>2015-12-18T05:04:42.351Z</time>
</trkpt>
<trkpt lat="-27.0220285" lon="152.8480077">
<ele>53.774</ele>
<time>2015-12-18T05:04:44.860Z</time>
</trkpt>
<trkpt lat="-27.0218040" lon="152.8478640">
<ele>53.944</ele>
<time>2015-12-18T05:04:47.638Z</time>
</trkpt>
<trkpt lat="-27.0215173" lon="152.8476904">
<ele>54.033</ele>
<time>2015-12-18T05:04:50.669Z</time>
</trkpt>
<trkpt lat="-27.0212344" lon="152.8474889">
<ele>54.079</ele>
<time>2015-12-18T05:04:53.669Z</time>
</trkpt>
<trkpt lat="-27.0210574" lon="152.8473698">
<ele>53.939</ele>
<time>2015-12-18T05:04:55.582Z</time>
</trkpt>
<trkpt lat="-27.0208906" lon="152.8472203">
<ele>53.286</ele>
<time>2015-12-18T05:04:57.583Z</time>
</trkpt>
<trkpt lat="-27.0206515" lon="152.8470025">
<ele>52.189</ele>
<time>2015-12-18T05:05:00.526Z</time>
</trkpt>
<trkpt lat="-27.0205062" lon="152.8468606">
<ele>51.210</ele>
<time>2015-12-18T05:05:02.422Z</time>
</trkpt>
<trkpt lat="-27.0202994" lon="152.8466207">
<ele>50.726</ele>
<time>2015-12-18T05:05:05.372Z</time>
</trkpt>
<trkpt lat="-27.0201681" lon="152.8464587">
<ele>50.668</ele>
<time>2015-12-18T05:05:07.315Z</time>
</trkpt>
<trkpt lat="-27.0200382" lon="152.8462960">
<ele>50.855</ele>
<time>2015-12-18T05:05:09.266Z</time>
</trkpt>
<trkpt lat="-27.0199142" lon="152.8461202">
<ele>51.153</ele>
<time>2015-12-18T05:05:11.272Z</time>
</trkpt>
<trkpt lat="-27.0197903" lon="152.8459402">
<ele>51.525</ele>
<time>2015-12-18T05:05:13.214Z</time>
</trkpt>
<trkpt lat="-27.0195985" lon="152.8456438">
<ele>52.089</ele>
<time>2015-12-18T05:05:16.134Z</time>
</trkpt>
<trkpt lat="-27.0194611" lon="152.8454089">
<ele>52.965</ele>
<time>2015-12-18T05:05:18.163Z</time>
</trkpt>
<trkpt lat="-27.0191767" lon="152.8450796">
<ele>54.244</ele>
<time>2015-12-18T05:05:21.290Z</time>
</trkpt>
<trkpt lat="-27.0188899" lon="152.8447394">
<ele>55.723</ele>
<time>2015-12-18T05:05:24.206Z</time>
</trkpt>
<trkpt lat="-27.0185483" lon="152.8443455">
<ele>57.178</ele>
<time>2015-12-18T05:05:27.335Z</time>
</trkpt>
<trkpt lat="-27.0182694" lon="152.8441234">
<ele>58.734</ele>
<time>2015-12-18T05:05:29.466Z</time>
</trkpt>
<trkpt lat="-27.0179066" lon="152.8437836">
<ele>60.248</ele>
<time>2015-12-18T05:05:32.451Z</time>
</trkpt>
<trkpt lat="-27.0176679" lon="152.8435767">
<ele>61.207</ele>
<time>2015-12-18T05:05:34.380Z</time>
</trkpt>
<trkpt lat="-27.0174119" lon="152.8433816">
<ele>61.641</ele>
<time>2015-12-18T05:05:36.340Z</time>
</trkpt>
<trkpt lat="-27.0169963" lon="152.8431094">
<ele>61.888</ele>
<time>2015-12-18T05:05:39.319Z</time>
</trkpt>
<trkpt lat="-27.0165503" lon="152.8428415">
<ele>62.136</ele>
<time>2015-12-18T05:05:42.309Z</time>
</trkpt>
<trkpt lat="-27.0160615" lon="152.8425920">
<ele>62.591</ele>
<time>2015-12-18T05:05:45.339Z</time>
</trkpt>
<trkpt lat="-27.0157352" lon="152.8424377">
<ele>63.284</ele>
<time>2015-12-18T05:05:47.286Z</time>
</trkpt>
<trkpt lat="-27.0152233" lon="152.8422412">
<ele>64.068</ele>
<time>2015-12-18T05:05:50.248Z</time>
</trkpt>
<trkpt lat="-27.0148678" lon="152.8421307">
<ele>64.772</ele>
<time>2015-12-18T05:05:52.246Z</time>
</trkpt>
<trkpt lat="-27.0143162" lon="152.8419901">
<ele>65.254</ele>
<time>2015-12-18T05:05:55.260Z</time>
</trkpt>
<trkpt lat="-27.0137687" lon="152.8418456">
<ele>65.689</ele>
<time>2015-12-18T05:05:58.186Z</time>
</trkpt>
<trkpt lat="-27.0131857" lon="152.8417235">
<ele>66.686</ele>
<time>2015-12-18T05:06:01.189Z</time>
</trkpt>
<trkpt lat="-27.0125978" lon="152.8415882">
<ele>68.377</ele>
<time>2015-12-18T05:06:04.158Z</time>
</trkpt>
<trkpt lat="-27.0122067" lon="152.8414752">
<ele>70.215</ele>
<time>2015-12-18T05:06:06.136Z</time>
</trkpt>
<trkpt lat="-27.0118078" lon="152.8413450">
<ele>71.682</ele>
<time>2015-12-18T05:06:08.181Z</time>
</trkpt>
<trkpt lat="-27.0114348" lon="152.8412104">
<ele>72.614</ele>
<time>2015-12-18T05:06:10.141Z</time>
</trkpt>
<trkpt lat="-27.0109060" lon="152.8409336">
<ele>72.943</ele>
<time>2015-12-18T05:06:13.115Z</time>
</trkpt>
<trkpt lat="-27.0104378" lon="152.8405969">
<ele>72.834</ele>
<time>2015-12-18T05:06:16.019Z</time>
</trkpt>
<trkpt lat="-27.0100302" lon="152.8401989">
<ele>72.900</ele>
<time>2015-12-18T05:06:18.885Z</time>
</trkpt>
<trkpt lat="-27.0097393" lon="152.8399238">
<ele>73.735</ele>
<time>2015-12-18T05:06:20.891Z</time>
</trkpt>
<trkpt lat="-27.0093283" lon="152.8394721">
<ele>75.033</ele>
<time>2015-12-18T05:06:23.867Z</time>
</trkpt>
<trkpt lat="-27.0089050" lon="152.8390116">
<ele>75.838</ele>
<time>2015-12-18T05:06:26.860Z</time>
</trkpt>
<trkpt lat="-27.0086186" lon="152.8387079">
<ele>75.494</ele>
<time>2015-12-18T05:06:28.865Z</time>
</trkpt>
<trkpt lat="-27.0081872" lon="152.8382670">
<ele>73.943</ele>
<time>2015-12-18T05:06:31.857Z</time>
</trkpt>
<trkpt lat="-27.0077449" lon="152.8378166">
<ele>71.860</ele>
<time>2015-12-18T05:06:34.935Z</time>
</trkpt>
<trkpt lat="-27.0073385" lon="152.8373665">
<ele>70.266</ele>
<time>2015-12-18T05:06:37.911Z</time>
</trkpt>
<trkpt lat="-27.0070944" lon="152.8370526">
<ele>69.596</ele>
<time>2015-12-18T05:06:39.883Z</time>
</trkpt>
<trkpt lat="-27.0067737" lon="152.8365476">
<ele>69.227</ele>
<time>2015-12-18T05:06:42.850Z</time>
</trkpt>
<trkpt lat="-27.0065818" lon="152.8359702">
<ele>68.052</ele>
<time>2015-12-18T05:06:45.823Z</time>
</trkpt>
<trkpt lat="-27.0064903" lon="152.8353704">
<ele>65.441</ele>
<time>2015-12-18T05:06:48.788Z</time>
</trkpt>
<trkpt lat="-27.0064732" lon="152.8347399">
<ele>61.676</ele>
<time>2015-12-18T05:06:51.864Z</time>
</trkpt>
<trkpt lat="-27.0064417" lon="152.8341392">
<ele>57.817</ele>
<time>2015-12-18T05:06:54.808Z</time>
</trkpt>
<trkpt lat="-27.0063699" lon="152.8337475">
<ele>55.054</ele>
<time>2015-12-18T05:06:56.788Z</time>
</trkpt>
<trkpt lat="-27.0062430" lon="152.8333747">
<ele>53.841</ele>
<time>2015-12-18T05:06:58.755Z</time>
</trkpt>
<trkpt lat="-27.0060725" lon="152.8330150">
<ele>53.858</ele>
<time>2015-12-18T05:07:00.744Z</time>
</trkpt>
<trkpt lat="-27.0058236" lon="152.8326891">
<ele>54.433</ele>
<time>2015-12-18T05:07:02.821Z</time>
</trkpt>
<trkpt lat="-27.0054138" lon="152.8322817">
<ele>54.895</ele>
<time>2015-12-18T05:07:05.777Z</time>
</trkpt>
<trkpt lat="-27.0049427" lon="152.8319685">
<ele>55.003</ele>
<time>2015-12-18T05:07:08.719Z</time>
</trkpt>
<trkpt lat="-27.0045712" lon="152.8318279">
<ele>55.102</ele>
<time>2015-12-18T05:07:10.815Z</time>
</trkpt>
<trkpt lat="-27.0040686" lon="152.8315939">
<ele>55.776</ele>
<time>2015-12-18T05:07:13.766Z</time>
</trkpt>
<trkpt lat="-27.0037602" lon="152.8314443">
<ele>57.271</ele>
<time>2015-12-18T05:07:15.666Z</time>
</trkpt>
<trkpt lat="-27.0034428" lon="152.8312892">
<ele>59.064</ele>
<time>2015-12-18T05:07:17.644Z</time>
</trkpt>
<trkpt lat="-27.0029518" lon="152.8310530">
<ele>60.363</ele>
<time>2015-12-18T05:07:20.624Z</time>
</trkpt>
<trkpt lat="-27.0026066" lon="152.8308730">
<ele>61.007</ele>
<time>2015-12-18T05:07:22.675Z</time>
</trkpt>
<trkpt lat="-27.0020340" lon="152.8305799">
<ele>61.235</ele>
<time>2015-12-18T05:07:25.759Z</time>
</trkpt>
<trkpt lat="-27.0014236" lon="152.8303000">
<ele>61.055</ele>
<time>2015-12-18T05:07:28.788Z</time>
</trkpt>
<trkpt lat="-27.0010225" lon="152.8301018">
<ele>60.492</ele>
<time>2015-12-18T05:07:30.776Z</time>
</trkpt>
<trkpt lat="-27.0004593" lon="152.8297594">
<ele>59.841</ele>
<time>2015-12-18T05:07:33.727Z</time>
</trkpt>
<trkpt lat="-27.0001555" lon="152.8294397">
<ele>59.815</ele>
<time>2015-12-18T05:07:35.707Z</time>
</trkpt>
<trkpt lat="-26.9997334" lon="152.8289512">
<ele>60.900</ele>
<time>2015-12-18T05:07:38.673Z</time>
</trkpt>
<trkpt lat="-26.9996604" lon="152.8285188">
<ele>62.721</ele>
<time>2015-12-18T05:07:40.691Z</time>
</trkpt>
<trkpt lat="-26.9995246" lon="152.8279160">
<ele>64.716</ele>
<time>2015-12-18T05:07:43.639Z</time>
</trkpt>
<trkpt lat="-26.9995090" lon="152.8275118">
<ele>66.993</ele>
<time>2015-12-18T05:07:45.593Z</time>
</trkpt>
<trkpt lat="-26.9995161" lon="152.8271075">
<ele>69.463</ele>
<time>2015-12-18T05:07:47.561Z</time>
</trkpt>
<trkpt lat="-26.9995368" lon="152.8267147">
<ele>71.460</ele>
<time>2015-12-18T05:07:49.480Z</time>
</trkpt>
<trkpt lat="-26.9995427" lon="152.8261039">
<ele>72.741</ele>
<time>2015-12-18T05:07:52.447Z</time>
</trkpt>
<trkpt lat="-26.9994951" lon="152.8254651">
<ele>73.652</ele>
<time>2015-12-18T05:07:55.490Z</time>
</trkpt>
<trkpt lat="-26.9994106" lon="152.8250365">
<ele>74.254</ele>
<time>2015-12-18T05:07:57.503Z</time>
</trkpt>
<trkpt lat="-26.9992374" lon="152.8243947">
<ele>74.385</ele>
<time>2015-12-18T05:08:00.512Z</time>
</trkpt>
<trkpt lat="-26.9990532" lon="152.8240003">
<ele>73.872</ele>
<time>2015-12-18T05:08:02.490Z</time>
</trkpt>
<trkpt lat="-26.9988426" lon="152.8236355">
<ele>72.405</ele>
<time>2015-12-18T05:08:04.434Z</time>
</trkpt>
<trkpt lat="-26.9984562" lon="152.8231145">
<ele>70.261</ele>
<time>2015-12-18T05:08:07.444Z</time>
</trkpt>
<trkpt lat="-26.9981778" lon="152.8227366">
<ele>68.576</ele>
<time>2015-12-18T05:08:09.474Z</time>
</trkpt>
<trkpt lat="-26.9976889" lon="152.8221039">
<ele>68.184</ele>
<time>2015-12-18T05:08:12.568Z</time>
</trkpt>
<trkpt lat="-26.9971538" lon="152.8213972">
<ele>70.559</ele>
<time>2015-12-18T05:08:15.633Z</time>
</trkpt>
<trkpt lat="-26.9966355" lon="152.8206441">
<ele>77.808</ele>
<time>2015-12-18T05:08:18.656Z</time>
</trkpt>
<trkpt lat="-26.9963284" lon="152.8201665">
<ele>88.659</ele>
<time>2015-12-18T05:08:20.571Z</time>
</trkpt>
<trkpt lat="-26.9960639" lon="152.8196674">
<ele>98.284</ele>
<time>2015-12-18T05:08:22.524Z</time>
</trkpt>
<trkpt lat="-26.9958508" lon="152.8191417">
<ele>103.367</ele>
<time>2015-12-18T05:08:24.506Z</time>
</trkpt>
<trkpt lat="-26.9955517" lon="152.8183745">
<ele>104.391</ele>
<time>2015-12-18T05:08:27.432Z</time>
</trkpt>
<trkpt lat="-26.9952907" lon="152.8178857">
<ele>103.640</ele>
<time>2015-12-18T05:08:29.443Z</time>
</trkpt>
<trkpt lat="-26.9947561" lon="152.8172923">
<ele>102.832</ele>
<time>2015-12-18T05:08:32.417Z</time>
</trkpt>
<trkpt lat="-26.9940778" lon="152.8168903">
<ele>103.274</ele>
<time>2015-12-18T05:08:35.462Z</time>
</trkpt>
<trkpt lat="-26.9934271" lon="152.8165894">
<ele>106.277</ele>
<time>2015-12-18T05:08:38.349Z</time>
</trkpt>
<trkpt lat="-26.9927975" lon="152.8163746">
<ele>111.828</ele>
<time>2015-12-18T05:08:41.228Z</time>
</trkpt>
<trkpt lat="-26.9922082" lon="152.8160654">
<ele>118.285</ele>
<time>2015-12-18T05:08:44.198Z</time>
</trkpt>
<trkpt lat="-26.9917699" lon="152.8155312">
<ele>124.643</ele>
<time>2015-12-18T05:08:47.181Z</time>
</trkpt>
<trkpt lat="-26.9915372" lon="152.8151214">
<ele>131.200</ele>
<time>2015-12-18T05:08:49.166Z</time>
</trkpt>
<trkpt lat="-26.9914632" lon="152.8143981">
<ele>137.283</ele>
<time>2015-12-18T05:08:52.185Z</time>
</trkpt>
<trkpt lat="-26.9918630" lon="152.8136701">
<ele>142.155</ele>
<time>2015-12-18T05:08:55.690Z</time>
</trkpt>
<trkpt lat="-26.9922969" lon="152.8130744">
<ele>146.398</ele>
<time>2015-12-18T05:08:58.702Z</time>
</trkpt>
<trkpt lat="-26.9925846" lon="152.8123493">
<ele>149.855</ele>
<time>2015-12-18T05:09:01.690Z</time>
</trkpt>
<trkpt lat="-26.9926823" lon="152.8115095">
<ele>151.938</ele>
<time>2015-12-18T05:09:04.787Z</time>
</trkpt>
<trkpt lat="-26.9926412" lon="152.8109643">
<ele>153.121</ele>
<time>2015-12-18T05:09:06.798Z</time>
</trkpt>
<trkpt lat="-26.9926153" lon="152.8104776">
<ele>153.682</ele>
<time>2015-12-18T05:09:08.660Z</time>
</trkpt>
<trkpt lat="-26.9927131" lon="152.8097413">
<ele>153.659</ele>
<time>2015-12-18T05:09:11.613Z</time>
</trkpt>
<trkpt lat="-26.9928354" lon="152.8092532">
<ele>153.288</ele>
<time>2015-12-18T05:09:13.667Z</time>
</trkpt>
<trkpt lat="-26.9929272" lon="152.8087790">
<ele>152.495</ele>
<time>2015-12-18T05:09:15.661Z</time>
</trkpt>
<trkpt lat="-26.9930136" lon="152.8080783">
<ele>151.227</ele>
<time>2015-12-18T05:09:18.629Z</time>
</trkpt>
<trkpt lat="-26.9930211" lon="152.8076362">
<ele>149.981</ele>
<time>2015-12-18T05:09:20.540Z</time>
</trkpt>
<trkpt lat="-26.9929846" lon="152.8069611">
<ele>149.277</ele>
<time>2015-12-18T05:09:23.502Z</time>
</trkpt>
<trkpt lat="-26.9929344" lon="152.8065012">
<ele>149.211</ele>
<time>2015-12-18T05:09:25.534Z</time>
</trkpt>
<trkpt lat="-26.9928138" lon="152.8058656">
<ele>149.576</ele>
<time>2015-12-18T05:09:28.417Z</time>
</trkpt>
<trkpt lat="-26.9927045" lon="152.8054560">
<ele>149.968</ele>
<time>2015-12-18T05:09:30.363Z</time>
</trkpt>
<trkpt lat="-26.9924821" lon="152.8048531">
<ele>149.986</ele>
<time>2015-12-18T05:09:33.342Z</time>
</trkpt>
<trkpt lat="-26.9922054" lon="152.8042896">
<ele>149.496</ele>
<time>2015-12-18T05:09:36.255Z</time>
</trkpt>
<trkpt lat="-26.9918607" lon="152.8037240">
<ele>148.719</ele>
<time>2015-12-18T05:09:39.308Z</time>
</trkpt>
<trkpt lat="-26.9914579" lon="152.8032178">
<ele>147.998</ele>
<time>2015-12-18T05:09:42.279Z</time>
</trkpt>
<trkpt lat="-26.9910503" lon="152.8027288">
<ele>147.360</ele>
<time>2015-12-18T05:09:45.200Z</time>
</trkpt>
<trkpt lat="-26.9907648" lon="152.8023955">
<ele>146.751</ele>
<time>2015-12-18T05:09:47.221Z</time>
</trkpt>
<trkpt lat="-26.9903435" lon="152.8018975">
<ele>146.064</ele>
<time>2015-12-18T05:09:50.218Z</time>
</trkpt>
<trkpt lat="-26.9900877" lon="152.8015582">
<ele>144.888</ele>
<time>2015-12-18T05:09:52.176Z</time>
</trkpt>
<trkpt lat="-26.9897002" lon="152.8010497">
<ele>143.120</ele>
<time>2015-12-18T05:09:55.147Z</time>
</trkpt>
<trkpt lat="-26.9893527" lon="152.8005234">
<ele>141.458</ele>
<time>2015-12-18T05:09:58.066Z</time>
</trkpt>
<trkpt lat="-26.9891178" lon="152.8001630">
<ele>140.958</ele>
<time>2015-12-18T05:10:00.080Z</time>
</trkpt>
<trkpt lat="-26.9887362" lon="152.7996590">
<ele>142.044</ele>
<time>2015-12-18T05:10:03.097Z</time>
</trkpt>
<trkpt lat="-26.9884827" lon="152.7993571">
<ele>143.814</ele>
<time>2015-12-18T05:10:05.035Z</time>
</trkpt>
<trkpt lat="-26.9882310" lon="152.7990703">
<ele>144.836</ele>
<time>2015-12-18T05:10:06.982Z</time>
</trkpt>
<trkpt lat="-26.9879922" lon="152.7987828">
<ele>144.656</ele>
<time>2015-12-18T05:10:08.931Z</time>
</trkpt>
<trkpt lat="-26.9876549" lon="152.7983691">
<ele>143.922</ele>
<time>2015-12-18T05:10:11.811Z</time>
</trkpt>
<trkpt lat="-26.9874053" lon="152.7980693">
<ele>143.369</ele>
<time>2015-12-18T05:10:14.275Z</time>
</trkpt>
<trkpt lat="-26.9872615" lon="152.7978366">
<ele>142.650</ele>
<time>2015-12-18T05:10:16.393Z</time>
</trkpt>
<trkpt lat="-26.9872704" lon="152.7976586">
<ele>141.073</ele>
<time>2015-12-18T05:10:17.905Z</time>
</trkpt>
<trkpt lat="-26.9875179" lon="152.7973734">
<ele>139.126</ele>
<time>2015-12-18T05:10:21.971Z</time>
</trkpt>
<trkpt lat="-26.9877448" lon="152.7971289">
<ele>138.096</ele>
<time>2015-12-18T05:10:24.729Z</time>
</trkpt>
<trkpt lat="-26.9881409" lon="152.7967289">
<ele>138.572</ele>
<time>2015-12-18T05:10:28.039Z</time>
</trkpt>
<trkpt lat="-26.9885683" lon="152.7963079">
<ele>139.956</ele>
<time>2015-12-18T05:10:31.104Z</time>
</trkpt>
<trkpt lat="-26.9890441" lon="152.7959200">
<ele>140.814</ele>
<time>2015-12-18T05:10:34.148Z</time>
</trkpt>
<trkpt lat="-26.9895341" lon="152.7955661">
<ele>139.958</ele>
<time>2015-12-18T05:10:37.112Z</time>
</trkpt>
<trkpt lat="-26.9898954" lon="152.7953780">
<ele>137.477</ele>
<time>2015-12-18T05:10:39.127Z</time>
</trkpt>
<trkpt lat="-26.9904506" lon="152.7951433">
<ele>134.427</ele>
<time>2015-12-18T05:10:42.117Z</time>
</trkpt>
<trkpt lat="-26.9908186" lon="152.7950207">
<ele>131.842</ele>
<time>2015-12-18T05:10:44.037Z</time>
</trkpt>
<trkpt lat="-26.9913923" lon="152.7949168">
<ele>130.287</ele>
<time>2015-12-18T05:10:46.945Z</time>
</trkpt>
<trkpt lat="-26.9919941" lon="152.7948336">
<ele>129.847</ele>
<time>2015-12-18T05:10:49.972Z</time>
</trkpt>
<trkpt lat="-26.9923604" lon="152.7947664">
<ele>130.657</ele>
<time>2015-12-18T05:10:51.831Z</time>
</trkpt>
<trkpt lat="-26.9927537" lon="152.7947122">
<ele>132.941</ele>
<time>2015-12-18T05:10:53.835Z</time>
</trkpt>
<trkpt lat="-26.9931477" lon="152.7946489">
<ele>136.248</ele>
<time>2015-12-18T05:10:55.846Z</time>
</trkpt>
<trkpt lat="-26.9937657" lon="152.7945572">
<ele>139.730</ele>
<time>2015-12-18T05:10:58.968Z</time>
</trkpt>
<trkpt lat="-26.9943832" lon="152.7944645">
<ele>142.883</ele>
<time>2015-12-18T05:11:02.033Z</time>
</trkpt>
<trkpt lat="-26.9947923" lon="152.7944095">
<ele>145.493</ele>
<time>2015-12-18T05:11:04.014Z</time>
</trkpt>
<trkpt lat="-26.9953938" lon="152.7943333">
<ele>147.343</ele>
<time>2015-12-18T05:11:06.925Z</time>
</trkpt>
<trkpt lat="-26.9960242" lon="152.7942162">
<ele>147.884</ele>
<time>2015-12-18T05:11:09.990Z</time>
</trkpt>
<trkpt lat="-26.9964422" lon="152.7941515">
<ele>147.100</ele>
<time>2015-12-18T05:11:11.987Z</time>
</trkpt>
<trkpt lat="-26.9968554" lon="152.7940879">
<ele>146.173</ele>
<time>2015-12-18T05:11:13.970Z</time>
</trkpt>
<trkpt lat="-26.9974858" lon="152.7939997">
<ele>146.026</ele>
<time>2015-12-18T05:11:17.011Z</time>
</trkpt>
<trkpt lat="-26.9978950" lon="152.7939355">
<ele>146.224</ele>
<time>2015-12-18T05:11:19.003Z</time>
</trkpt>
<trkpt lat="-26.9984793" lon="152.7938550">
<ele>146.174</ele>
<time>2015-12-18T05:11:21.894Z</time>
</trkpt>
<trkpt lat="-26.9988680" lon="152.7937940">
<ele>146.092</ele>
<time>2015-12-18T05:11:23.851Z</time>
</trkpt>
<trkpt lat="-26.9994421" lon="152.7936209">
<ele>146.313</ele>
<time>2015-12-18T05:11:26.828Z</time>
</trkpt>
<trkpt lat="-26.9999779" lon="152.7933382">
<ele>146.634</ele>
<time>2015-12-18T05:11:29.785Z</time>
</trkpt>
<trkpt lat="-27.0003207" lon="152.7930994">
<ele>146.759</ele>
<time>2015-12-18T05:11:31.782Z</time>
</trkpt>
<trkpt lat="-27.0006265" lon="152.7927852">
<ele>146.455</ele>
<time>2015-12-18T05:11:33.806Z</time>
</trkpt>
<trkpt lat="-27.0009864" lon="152.7922302">
<ele>145.640</ele>
<time>2015-12-18T05:11:36.793Z</time>
</trkpt>
<trkpt lat="-27.0011575" lon="152.7915417">
<ele>144.699</ele>
<time>2015-12-18T05:11:39.879Z</time>
</trkpt>
<trkpt lat="-27.0012864" lon="152.7908741">
<ele>143.781</ele>
<time>2015-12-18T05:11:42.794Z</time>
</trkpt>
<trkpt lat="-27.0013634" lon="152.7901726">
<ele>142.408</ele>
<time>2015-12-18T05:11:45.823Z</time>
</trkpt>
<trkpt lat="-27.0014252" lon="152.7897188">
<ele>140.379</ele>
<time>2015-12-18T05:11:47.799Z</time>
</trkpt>
<trkpt lat="-27.0014902" lon="152.7890408">
<ele>138.304</ele>
<time>2015-12-18T05:11:50.772Z</time>
</trkpt>
<trkpt lat="-27.0015439" lon="152.7883669">
<ele>136.956</ele>
<time>2015-12-18T05:11:53.740Z</time>
</trkpt>
<trkpt lat="-27.0015849" lon="152.7879189">
<ele>136.489</ele>
<time>2015-12-18T05:11:55.708Z</time>
</trkpt>
<trkpt lat="-27.0016641" lon="152.7872478">
<ele>136.571</ele>
<time>2015-12-18T05:11:58.658Z</time>
</trkpt>
<trkpt lat="-27.0017288" lon="152.7867812">
<ele>136.868</ele>
<time>2015-12-18T05:12:00.705Z</time>
</trkpt>
<trkpt lat="-27.0018851" lon="152.7861137">
<ele>137.059</ele>
<time>2015-12-18T05:12:03.659Z</time>
</trkpt>
<trkpt lat="-27.0021180" lon="152.7854505">
<ele>136.996</ele>
<time>2015-12-18T05:12:06.676Z</time>
</trkpt>
<trkpt lat="-27.0022883" lon="152.7850251">
<ele>137.373</ele>
<time>2015-12-18T05:12:08.644Z</time>
</trkpt>
<trkpt lat="-27.0025147" lon="152.7846331">
<ele>138.686</ele>
<time>2015-12-18T05:12:10.629Z</time>
</trkpt>
<trkpt lat="-27.0028446" lon="152.7839954">
<ele>140.216</ele>
<time>2015-12-18T05:12:13.651Z</time>
</trkpt>
<trkpt lat="-27.0032767" lon="152.7832898">
<ele>141.699</ele>
<time>2015-12-18T05:12:16.846Z</time>
</trkpt>
<trkpt lat="-27.0035749" lon="152.7828230">
<ele>143.434</ele>
<time>2015-12-18T05:12:18.879Z</time>
</trkpt>
<trkpt lat="-27.0039679" lon="152.7821548">
<ele>144.681</ele>
<time>2015-12-18T05:12:21.753Z</time>
</trkpt>
<trkpt lat="-27.0042330" lon="152.7817118">
<ele>144.649</ele>
<time>2015-12-18T05:12:23.698Z</time>
</trkpt>
<trkpt lat="-27.0046584" lon="152.7810453">
<ele>143.699</ele>
<time>2015-12-18T05:12:26.707Z</time>
</trkpt>
<trkpt lat="-27.0051654" lon="152.7804364">
<ele>142.695</ele>
<time>2015-12-18T05:12:29.757Z</time>
</trkpt>
<trkpt lat="-27.0055470" lon="152.7800700">
<ele>142.401</ele>
<time>2015-12-18T05:12:31.798Z</time>
</trkpt>
<trkpt lat="-27.0061344" lon="152.7795887">
<ele>142.919</ele>
<time>2015-12-18T05:12:34.721Z</time>
</trkpt>
<trkpt lat="-27.0065726" lon="152.7793017">
<ele>143.855</ele>
<time>2015-12-18T05:12:36.744Z</time>
</trkpt>
<trkpt lat="-27.0070149" lon="152.7790456">
<ele>144.623</ele>
<time>2015-12-18T05:12:38.729Z</time>
</trkpt>
<trkpt lat="-27.0077218" lon="152.7787472">
<ele>144.931</ele>
<time>2015-12-18T05:12:41.744Z</time>
</trkpt>
<trkpt lat="-27.0084493" lon="152.7785301">
<ele>144.891</ele>
<time>2015-12-18T05:12:44.760Z</time>
</trkpt>
<trkpt lat="-27.0092135" lon="152.7784031">
<ele>144.813</ele>
<time>2015-12-18T05:12:47.853Z</time>
</trkpt>
<trkpt lat="-27.0099504" lon="152.7783781">
<ele>145.295</ele>
<time>2015-12-18T05:12:50.798Z</time>
</trkpt>
<trkpt lat="-27.0107133" lon="152.7783706">
<ele>147.459</ele>
<time>2015-12-18T05:12:53.856Z</time>
</trkpt>
<trkpt lat="-27.0114747" lon="152.7784537">
<ele>151.357</ele>
<time>2015-12-18T05:12:56.872Z</time>
</trkpt>
<trkpt lat="-27.0122464" lon="152.7785648">
<ele>155.729</ele>
<time>2015-12-18T05:12:59.876Z</time>
</trkpt>
<trkpt lat="-27.0129896" lon="152.7786739">
<ele>159.404</ele>
<time>2015-12-18T05:13:02.806Z</time>
</trkpt>
<trkpt lat="-27.0134671" lon="152.7787583">
<ele>161.849</ele>
<time>2015-12-18T05:13:04.755Z</time>
</trkpt>
<trkpt lat="-27.0139561" lon="152.7788304">
<ele>162.959</ele>
<time>2015-12-18T05:13:06.780Z</time>
</trkpt>
<trkpt lat="-27.0147000" lon="152.7788619">
<ele>163.258</ele>
<time>2015-12-18T05:13:09.799Z</time>
</trkpt>
<trkpt lat="-27.0151652" lon="152.7788329">
<ele>163.601</ele>
<time>2015-12-18T05:13:11.684Z</time>
</trkpt>
<trkpt lat="-27.0156215" lon="152.7788237">
<ele>164.356</ele>
<time>2015-12-18T05:13:13.573Z</time>
</trkpt>
<trkpt lat="-27.0161188" lon="152.7788485">
<ele>165.166</ele>
<time>2015-12-18T05:13:15.657Z</time>
</trkpt>
<trkpt lat="-27.0168273" lon="152.7789625">
<ele>165.983</ele>
<time>2015-12-18T05:13:18.630Z</time>
</trkpt>
<trkpt lat="-27.0173406" lon="152.7790457">
<ele>167.284</ele>
<time>2015-12-18T05:13:20.775Z</time>
</trkpt>
<trkpt lat="-27.0180479" lon="152.7791490">
<ele>169.175</ele>
<time>2015-12-18T05:13:23.768Z</time>
</trkpt>
<trkpt lat="-27.0185120" lon="152.7792150">
<ele>171.328</ele>
<time>2015-12-18T05:13:25.776Z</time>
</trkpt>
<trkpt lat="-27.0192686" lon="152.7794470">
<ele>173.218</ele>
<time>2015-12-18T05:13:29.092Z</time>
</trkpt>
<trkpt lat="-27.0197739" lon="152.7796446">
<ele>175.322</ele>
<time>2015-12-18T05:13:31.227Z</time>
</trkpt>
<trkpt lat="-27.0203928" lon="152.7799186">
<ele>178.281</ele>
<time>2015-12-18T05:13:33.937Z</time>
</trkpt>
<trkpt lat="-27.0208047" lon="152.7800684">
<ele>181.032</ele>
<time>2015-12-18T05:13:35.867Z</time>
</trkpt>
<trkpt lat="-27.0212107" lon="152.7802127">
<ele>182.341</ele>
<time>2015-12-18T05:13:37.869Z</time>
</trkpt>
<trkpt lat="-27.0216048" lon="152.7803735">
<ele>182.997</ele>
<time>2015-12-18T05:13:39.862Z</time>
</trkpt>
<trkpt lat="-27.0221669" lon="152.7806027">
<ele>184.240</ele>
<time>2015-12-18T05:13:42.743Z</time>
</trkpt>
<trkpt lat="-27.0226735" lon="152.7807868">
<ele>185.986</ele>
<time>2015-12-18T05:13:45.469Z</time>
</trkpt>
<trkpt lat="-27.0229492" lon="152.7809049">
<ele>187.282</ele>
<time>2015-12-18T05:13:47.123Z</time>
</trkpt>
<trkpt lat="-27.0234035" lon="152.7809915">
<ele>188.067</ele>
<time>2015-12-18T05:13:49.915Z</time>
</trkpt>
<trkpt lat="-27.0236947" lon="152.7809185">
<ele>188.815</ele>
<time>2015-12-18T05:13:51.808Z</time>
</trkpt>
<trkpt lat="-27.0239207" lon="152.7805112">
<ele>189.762</ele>
<time>2015-12-18T05:13:54.593Z</time>
</trkpt>
<trkpt lat="-27.0240752" lon="152.7800878">
<ele>191.299</ele>
<time>2015-12-18T05:13:57.389Z</time>
</trkpt>
<trkpt lat="-27.0240928" lon="152.7798094">
<ele>193.775</ele>
<time>2015-12-18T05:13:59.160Z</time>
</trkpt>
<trkpt lat="-27.0242552" lon="152.7794804">
<ele>196.537</ele>
<time>2015-12-18T05:14:01.766Z</time>
</trkpt>
<trkpt lat="-27.0244526" lon="152.7794029">
<ele>198.618</ele>
<time>2015-12-18T05:14:03.518Z</time>
</trkpt>
<trkpt lat="-27.0248666" lon="152.7795014">
<ele>200.056</ele>
<time>2015-12-18T05:14:07.338Z</time>
</trkpt>
<trkpt lat="-27.0251511" lon="152.7794800">
<ele>201.631</ele>
<time>2015-12-18T05:14:09.784Z</time>
</trkpt>
<trkpt lat="-27.0255320" lon="152.7791879">
<ele>203.782</ele>
<time>2015-12-18T05:14:13.419Z</time>
</trkpt>
<trkpt lat="-27.0256331" lon="152.7788030">
<ele>206.627</ele>
<time>2015-12-18T05:14:16.346Z</time>
</trkpt>
<trkpt lat="-27.0256404" lon="152.7785431">
<ele>210.212</ele>
<time>2015-12-18T05:14:18.341Z</time>
</trkpt>
<trkpt lat="-27.0256194" lon="152.7783164">
<ele>213.768</ele>
<time>2015-12-18T05:14:20.127Z</time>
</trkpt>
<trkpt lat="-27.0257911" lon="152.7780862">
<ele>215.928</ele>
<time>2015-12-18T05:14:22.545Z</time>
</trkpt>
<trkpt lat="-27.0260169" lon="152.7781647">
<ele>216.337</ele>
<time>2015-12-18T05:14:24.860Z</time>
</trkpt>
<trkpt lat="-27.0262411" lon="152.7783149">
<ele>215.784</ele>
<time>2015-12-18T05:14:27.654Z</time>
</trkpt>
<trkpt lat="-27.0264766" lon="152.7785337">
<ele>215.041</ele>
<time>2015-12-18T05:14:30.192Z</time>
</trkpt>
<trkpt lat="-27.0267075" lon="152.7787766">
<ele>214.532</ele>
<time>2015-12-18T05:14:32.351Z</time>
</trkpt>
<trkpt lat="-27.0269110" lon="152.7790049">
<ele>213.981</ele>
<time>2015-12-18T05:14:34.249Z</time>
</trkpt>
<trkpt lat="-27.0271983" lon="152.7792860">
<ele>212.490</ele>
<time>2015-12-18T05:14:36.970Z</time>
</trkpt>
<trkpt lat="-27.0275385" lon="152.7793590">
<ele>209.296</ele>
<time>2015-12-18T05:14:39.639Z</time>
</trkpt>
<trkpt lat="-27.0278478" lon="152.7792570">
<ele>204.777</ele>
<time>2015-12-18T05:14:42.123Z</time>
</trkpt>
<trkpt lat="-27.0281414" lon="152.7791680">
<ele>200.375</ele>
<time>2015-12-18T05:14:44.267Z</time>
</trkpt>
<trkpt lat="-27.0285844" lon="152.7792110">
<ele>197.032</ele>
<time>2015-12-18T05:14:47.241Z</time>
</trkpt>
<trkpt lat="-27.0288877" lon="152.7792769">
<ele>194.220</ele>
<time>2015-12-18T05:14:49.276Z</time>
</trkpt>
<trkpt lat="-27.0293909" lon="152.7793232">
<ele>191.327</ele>
<time>2015-12-18T05:14:52.437Z</time>
</trkpt>
<trkpt lat="-27.0298863" lon="152.7791882">
<ele>188.177</ele>
<time>2015-12-18T05:14:55.468Z</time>
</trkpt>
<trkpt lat="-27.0301828" lon="152.7790379">
<ele>184.768</ele>
<time>2015-12-18T05:14:57.388Z</time>
</trkpt>
<trkpt lat="-27.0304295" lon="152.7788357">
<ele>181.780</ele>
<time>2015-12-18T05:14:59.214Z</time>
</trkpt>
<trkpt lat="-27.0307070" lon="152.7785987">
<ele>180.162</ele>
<time>2015-12-18T05:15:01.290Z</time>
</trkpt>
<trkpt lat="-27.0311173" lon="152.7782612">
<ele>180.217</ele>
<time>2015-12-18T05:15:04.245Z</time>
</trkpt>
<trkpt lat="-27.0314367" lon="152.7781217">
<ele>181.496</ele>
<time>2015-12-18T05:15:06.232Z</time>
</trkpt>
<trkpt lat="-27.0320051" lon="152.7781008">
<ele>183.503</ele>
<time>2015-12-18T05:15:09.516Z</time>
</trkpt>
<trkpt lat="-27.0323022" lon="152.7780827">
<ele>186.792</ele>
<time>2015-12-18T05:15:11.242Z</time>
</trkpt>
<trkpt lat="-27.0326679" lon="152.7780048">
<ele>191.252</ele>
<time>2015-12-18T05:15:13.612Z</time>
</trkpt>
<trkpt lat="-27.0329911" lon="152.7777475">
<ele>195.104</ele>
<time>2015-12-18T05:15:16.432Z</time>
</trkpt>
<trkpt lat="-27.0333541" lon="152.7775213">
<ele>198.125</ele>
<time>2015-12-18T05:15:19.588Z</time>
</trkpt>
<trkpt lat="-27.0336268" lon="152.7772380">
<ele>201.760</ele>
<time>2015-12-18T05:15:22.403Z</time>
</trkpt>
<trkpt lat="-27.0338493" lon="152.7770629">
<ele>206.501</ele>
<time>2015-12-18T05:15:24.455Z</time>
</trkpt>
<trkpt lat="-27.0342078" lon="152.7768429">
<ele>211.897</ele>
<time>2015-12-18T05:15:27.548Z</time>
</trkpt>
<trkpt lat="-27.0344527" lon="152.7765227">
<ele>217.226</ele>
<time>2015-12-18T05:15:30.456Z</time>
</trkpt>
<trkpt lat="-27.0346167" lon="152.7763874">
<ele>221.813</ele>
<time>2015-12-18T05:15:32.062Z</time>
</trkpt>
<trkpt lat="-27.0348234" lon="152.7764133">
<ele>225.672</ele>
<time>2015-12-18T05:15:33.833Z</time>
</trkpt>
<trkpt lat="-27.0350140" lon="152.7765795">
<ele>229.282</ele>
<time>2015-12-18T05:15:36.176Z</time>
</trkpt>
<trkpt lat="-27.0352831" lon="152.7768551">
<ele>233.086</ele>
<time>2015-12-18T05:15:39.743Z</time>
</trkpt>
<trkpt lat="-27.0355246" lon="152.7769162">
<ele>236.863</ele>
<time>2015-12-18T05:15:41.946Z</time>
</trkpt>
<trkpt lat="-27.0358861" lon="152.7771409">
<ele>240.090</ele>
<time>2015-12-18T05:15:45.285Z</time>
</trkpt>
<trkpt lat="-27.0361296" lon="152.7772781">
<ele>243.123</ele>
<time>2015-12-18T05:15:47.367Z</time>
</trkpt>
<trkpt lat="-27.0363669" lon="152.7773497">
<ele>246.574</ele>
<time>2015-12-18T05:15:49.225Z</time>
</trkpt>
<trkpt lat="-27.0365816" lon="152.7773665">
<ele>250.203</ele>
<time>2015-12-18T05:15:50.938Z</time>
</trkpt>
<trkpt lat="-27.0369001" lon="152.7773025">
<ele>253.452</ele>
<time>2015-12-18T05:15:53.729Z</time>
</trkpt>
<trkpt lat="-27.0371345" lon="152.7773769">
<ele>256.464</ele>
<time>2015-12-18T05:15:55.863Z</time>
</trkpt>
<trkpt lat="-27.0374921" lon="152.7773763">
<ele>259.701</ele>
<time>2015-12-18T05:15:58.925Z</time>
</trkpt>
<trkpt lat="-27.0378290" lon="152.7771949">
<ele>263.089</ele>
<time>2015-12-18T05:16:02.019Z</time>
</trkpt>
<trkpt lat="-27.0381971" lon="152.7772572">
<ele>266.654</ele>
<time>2015-12-18T05:16:05.026Z</time>
</trkpt>
<trkpt lat="-27.0384181" lon="152.7772168">
<ele>270.784</ele>
<time>2015-12-18T05:16:06.862Z</time>
</trkpt>
<trkpt lat="-27.0386745" lon="152.7771058">
<ele>275.115</ele>
<time>2015-12-18T05:16:09.159Z</time>
</trkpt>
<trkpt lat="-27.0389102" lon="152.7769840">
<ele>278.880</ele>
<time>2015-12-18T05:16:11.288Z</time>
</trkpt>
<trkpt lat="-27.0392411" lon="152.7769712">
<ele>281.909</ele>
<time>2015-12-18T05:16:14.038Z</time>
</trkpt>
<trkpt lat="-27.0395187" lon="152.7772457">
<ele>284.639</ele>
<time>2015-12-18T05:16:17.242Z</time>
</trkpt>
<trkpt lat="-27.0400144" lon="152.7772473">
<ele>287.911</ele>
<time>2015-12-18T05:16:21.180Z</time>
</trkpt>
<trkpt lat="-27.0404478" lon="152.7772627">
<ele>292.528</ele>
<time>2015-12-18T05:16:24.191Z</time>
</trkpt>
<trkpt lat="-27.0409484" lon="152.7773505">
<ele>298.314</ele>
<time>2015-12-18T05:16:27.453Z</time>
</trkpt>
<trkpt lat="-27.0412547" lon="152.7773726">
<ele>304.497</ele>
<time>2015-12-18T05:16:29.360Z</time>
</trkpt>
<trkpt lat="-27.0417349" lon="152.7773786">
<ele>310.385</ele>
<time>2015-12-18T05:16:32.380Z</time>
</trkpt>
<trkpt lat="-27.0422239" lon="152.7774245">
<ele>315.648</ele>
<time>2015-12-18T05:16:35.519Z</time>
</trkpt>
<trkpt lat="-27.0426005" lon="152.7775264">
<ele>320.670</ele>
<time>2015-12-18T05:16:38.061Z</time>
</trkpt>
<trkpt lat="-27.0429433" lon="152.7775190">
<ele>325.696</ele>
<time>2015-12-18T05:16:40.335Z</time>
</trkpt>
<trkpt lat="-27.0434305" lon="152.7775177">
<ele>330.130</ele>
<time>2015-12-18T05:16:43.462Z</time>
</trkpt>
<trkpt lat="-27.0437521" lon="152.7774756">
<ele>334.134</ele>
<time>2015-12-18T05:16:45.500Z</time>
</trkpt>
<trkpt lat="-27.0442329" lon="152.7773137">
<ele>338.353</ele>
<time>2015-12-18T05:16:48.603Z</time>
</trkpt>
<trkpt lat="-27.0445566" lon="152.7771841">
<ele>342.656</ele>
<time>2015-12-18T05:16:50.714Z</time>
</trkpt>
<trkpt lat="-27.0449797" lon="152.7769524">
<ele>346.576</ele>
<time>2015-12-18T05:16:53.771Z</time>
</trkpt>
<trkpt lat="-27.0451839" lon="152.7768952">
<ele>349.880</ele>
<time>2015-12-18T05:16:55.354Z</time>
</trkpt>
<trkpt lat="-27.0453912" lon="152.7767865">
<ele>352.510</ele>
<time>2015-12-18T05:16:57.374Z</time>
</trkpt>
<trkpt lat="-27.0455578" lon="152.7765021">
<ele>354.740</ele>
<time>2015-12-18T05:17:00.264Z</time>
</trkpt>
<trkpt lat="-27.0455954" lon="152.7761363">
<ele>357.217</ele>
<time>2015-12-18T05:17:03.397Z</time>
</trkpt>
<trkpt lat="-27.0458695" lon="152.7759004">
<ele>360.604</ele>
<time>2015-12-18T05:17:06.675Z</time>
</trkpt>
<trkpt lat="-27.0460632" lon="152.7757520">
<ele>365.074</ele>
<time>2015-12-18T05:17:08.862Z</time>
</trkpt>
<trkpt lat="-27.0462259" lon="152.7755640">
<ele>369.798</ele>
<time>2015-12-18T05:17:10.961Z</time>
</trkpt>
<trkpt lat="-27.0463441" lon="152.7751961">
<ele>373.715</ele>
<time>2015-12-18T05:17:13.953Z</time>
</trkpt>
<trkpt lat="-27.0462695" lon="152.7747080">
<ele>376.643</ele>
<time>2015-12-18T05:17:17.411Z</time>
</trkpt>
<trkpt lat="-27.0462323" lon="152.7742649">
<ele>379.235</ele>
<time>2015-12-18T05:17:20.401Z</time>
</trkpt>
<trkpt lat="-27.0461182" lon="152.7739981">
<ele>382.265</ele>
<time>2015-12-18T05:17:22.394Z</time>
</trkpt>
<trkpt lat="-27.0460504" lon="152.7737175">
<ele>385.999</ele>
<time>2015-12-18T05:17:24.277Z</time>
</trkpt>
<trkpt lat="-27.0461238" lon="152.7732155">
<ele>390.063</ele>
<time>2015-12-18T05:17:27.402Z</time>
</trkpt>
<trkpt lat="-27.0462193" lon="152.7728858">
<ele>394.234</ele>
<time>2015-12-18T05:17:29.366Z</time>
</trkpt>
<trkpt lat="-27.0465446" lon="152.7724479">
<ele>398.321</ele>
<time>2015-12-18T05:17:32.440Z</time>
</trkpt>
<trkpt lat="-27.0468480" lon="152.7722440">
<ele>402.151</ele>
<time>2015-12-18T05:17:34.368Z</time>
</trkpt>
<trkpt lat="-27.0473833" lon="152.7719491">
<ele>406.139</ele>
<time>2015-12-18T05:17:37.405Z</time>
</trkpt>
<trkpt lat="-27.0479452" lon="152.7716331">
<ele>411.043</ele>
<time>2015-12-18T05:17:40.381Z</time>
</trkpt>
<trkpt lat="-27.0485758" lon="152.7713305">
<ele>417.155</ele>
<time>2015-12-18T05:17:43.516Z</time>
</trkpt>
<trkpt lat="-27.0489780" lon="152.7711358">
<ele>423.615</ele>
<time>2015-12-18T05:17:45.579Z</time>
</trkpt>
<trkpt lat="-27.0493569" lon="152.7709792">
<ele>428.684</ele>
<time>2015-12-18T05:17:47.559Z</time>
</trkpt>
<trkpt lat="-27.0497396" lon="152.7708640">
<ele>431.279</ele>
<time>2015-12-18T05:17:49.547Z</time>
</trkpt>
<trkpt lat="-27.0503259" lon="152.7709012">
<ele>432.009</ele>
<time>2015-12-18T05:17:52.493Z</time>
</trkpt>
<trkpt lat="-27.0507189" lon="152.7710372">
<ele>432.238</ele>
<time>2015-12-18T05:17:54.480Z</time>
</trkpt>
<trkpt lat="-27.0511179" lon="152.7712382">
<ele>432.598</ele>
<time>2015-12-18T05:17:56.484Z</time>
</trkpt>
<trkpt lat="-27.0515038" lon="152.7715226">
<ele>432.926</ele>
<time>2015-12-18T05:17:58.503Z</time>
</trkpt>
<trkpt lat="-27.0520697" lon="152.7720159">
<ele>432.902</ele>
<time>2015-12-18T05:18:01.583Z</time>
</trkpt>
<trkpt lat="-27.0524413" lon="152.7723618">
<ele>432.124</ele>
<time>2015-12-18T05:18:03.692Z</time>
</trkpt>
<trkpt lat="-27.0529404" lon="152.7728408">
<ele>430.210</ele>
<time>2015-12-18T05:18:06.651Z</time>
</trkpt>
<trkpt lat="-27.0534326" lon="152.7732616">
<ele>427.646</ele>
<time>2015-12-18T05:18:09.514Z</time>
</trkpt>
<trkpt lat="-27.0538255" lon="152.7735098">
<ele>425.274</ele>
<time>2015-12-18T05:18:11.551Z</time>
</trkpt>
<trkpt lat="-27.0544796" lon="152.7737491">
<ele>423.452</ele>
<time>2015-12-18T05:18:14.559Z</time>
</trkpt>
<trkpt lat="-27.0549437" lon="152.7738762">
<ele>422.415</ele>
<time>2015-12-18T05:18:16.553Z</time>
</trkpt>
<trkpt lat="-27.0556762" lon="152.7740699">
<ele>422.443</ele>
<time>2015-12-18T05:18:19.578Z</time>
</trkpt>
<trkpt lat="-27.0564003" lon="152.7742652">
<ele>423.849</ele>
<time>2015-12-18T05:18:22.550Z</time>
</trkpt>
<trkpt lat="-27.0568784" lon="152.7743909">
<ele>426.328</ele>
<time>2015-12-18T05:18:24.548Z</time>
</trkpt>
<trkpt lat="-27.0573394" lon="152.7745039">
<ele>428.474</ele>
<time>2015-12-18T05:18:26.536Z</time>
</trkpt>
<trkpt lat="-27.0580020" lon="152.7746828">
<ele>429.325</ele>
<time>2015-12-18T05:18:29.479Z</time>
</trkpt>
<trkpt lat="-27.0586306" lon="152.7749642">
<ele>429.093</ele>
<time>2015-12-18T05:18:32.457Z</time>
</trkpt>
<trkpt lat="-27.0590094" lon="152.7752420">
<ele>428.384</ele>
<time>2015-12-18T05:18:34.444Z</time>
</trkpt>
<trkpt lat="-27.0594700" lon="152.7757905">
<ele>427.873</ele>
<time>2015-12-18T05:18:37.350Z</time>
</trkpt>
<trkpt lat="-27.0599291" lon="152.7763993">
<ele>429.069</ele>
<time>2015-12-18T05:18:40.352Z</time>
</trkpt>
<trkpt lat="-27.0603569" lon="152.7770370">
<ele>432.768</ele>
<time>2015-12-18T05:18:43.312Z</time>
</trkpt>
<trkpt lat="-27.0608216" lon="152.7776618">
<ele>436.964</ele>
<time>2015-12-18T05:18:46.323Z</time>
</trkpt>
<trkpt lat="-27.0613100" lon="152.7782541">
<ele>439.248</ele>
<time>2015-12-18T05:18:49.329Z</time>
</trkpt>
<trkpt lat="-27.0618265" lon="152.7787868">
<ele>439.599</ele>
<time>2015-12-18T05:18:52.361Z</time>
</trkpt>
<trkpt lat="-27.0623129" lon="152.7792684">
<ele>439.895</ele>
<time>2015-12-18T05:18:55.354Z</time>
</trkpt>
<trkpt lat="-27.0627943" lon="152.7796922">
<ele>441.526</ele>
<time>2015-12-18T05:18:58.372Z</time>
</trkpt>
<trkpt lat="-27.0632517" lon="152.7800834">
<ele>443.776</ele>
<time>2015-12-18T05:19:01.339Z</time>
</trkpt>
<trkpt lat="-27.0635483" lon="152.7803244">
<ele>446.169</ele>
<time>2015-12-18T05:19:03.326Z</time>
</trkpt>
<trkpt lat="-27.0640023" lon="152.7806037">
<ele>448.907</ele>
<time>2015-12-18T05:19:06.257Z</time>
</trkpt>
<trkpt lat="-27.0643106" lon="152.7807355">
<ele>451.458</ele>
<time>2015-12-18T05:19:08.283Z</time>
</trkpt>
<trkpt lat="-27.0646025" lon="152.7808163">
<ele>453.368</ele>
<time>2015-12-18T05:19:10.403Z</time>
</trkpt>
<trkpt lat="-27.0649529" lon="152.7808651">
<ele>454.508</ele>
<time>2015-12-18T05:19:13.385Z</time>
</trkpt>
<trkpt lat="-27.0652139" lon="152.7809210">
<ele>454.816</ele>
<time>2015-12-18T05:19:16.590Z</time>
</trkpt>
<trkpt lat="-27.0652179" lon="152.7810236">
<ele>454.538</ele>
<time>2015-12-18T05:19:18.023Z</time>
</trkpt>
<trkpt lat="-27.0652966" lon="152.7811354">
<ele>453.933</ele>
<time>2015-12-18T05:19:21.098Z</time>
</trkpt>
<trkpt lat="-27.0653848" lon="152.7811148">
<ele>453.340</ele>
<time>2015-12-18T05:19:23.238Z</time>
</trkpt>
<trkpt lat="-27.0654779" lon="152.7810503">
<ele>453.011</ele>
<time>2015-12-18T05:19:25.996Z</time>
</trkpt>
<trkpt lat="-27.0654779" lon="152.7810503">
<ele>452.868</ele>
<time>2015-12-18T05:19:32.996Z</time>
</trkpt>
<trkpt lat="-27.0654779" lon="152.7810503">
<ele>452.724</ele>
<time>2015-12-18T05:20:22.776Z</time>
</trkpt>
<trkpt lat="-27.0653344" lon="152.7810831">
<ele>452.412</ele>
<time>2015-12-18T05:20:29.538Z</time>
</trkpt>
<trkpt lat="-27.0652304" lon="152.7810939">
<ele>454.492</ele>
<time>2015-12-18T05:20:32.841Z</time>
</trkpt>
<trkpt lat="-27.0651695" lon="152.7810101">
<ele>460.088</ele>
<time>2015-12-18T05:20:36.253Z</time>
</trkpt>
<trkpt lat="-27.0652102" lon="152.7809054">
<ele>465.857</ele>
<time>2015-12-18T05:20:38.692Z</time>
</trkpt>
<trkpt lat="-27.0654620" lon="152.7808583">
<ele>468.650</ele>
<time>2015-12-18T05:20:42.177Z</time>
</trkpt>
<trkpt lat="-27.0657389" lon="152.7808071">
<ele>469.623</ele>
<time>2015-12-18T05:20:44.493Z</time>
</trkpt>
<trkpt lat="-27.0661100" lon="152.7808819">
<ele>470.884</ele>
<time>2015-12-18T05:20:47.242Z</time>
</trkpt>
<trkpt lat="-27.0666053" lon="152.7809084">
<ele>473.761</ele>
<time>2015-12-18T05:20:50.420Z</time>
</trkpt>
<trkpt lat="-27.0671765" lon="152.7810008">
<ele>478.442</ele>
<time>2015-12-18T05:20:53.659Z</time>
</trkpt>
<trkpt lat="-27.0677606" lon="152.7811045">
<ele>483.943</ele>
<time>2015-12-18T05:20:56.641Z</time>
</trkpt>
<trkpt lat="-27.0681277" lon="152.7811437">
<ele>488.684</ele>
<time>2015-12-18T05:20:58.467Z</time>
</trkpt>
<trkpt lat="-27.0687098" lon="152.7812485">
<ele>491.621</ele>
<time>2015-12-18T05:21:01.374Z</time>
</trkpt>
<trkpt lat="-27.0692965" lon="152.7814198">
<ele>492.616</ele>
<time>2015-12-18T05:21:04.331Z</time>
</trkpt>
<trkpt lat="-27.0696860" lon="152.7815296">
<ele>492.172</ele>
<time>2015-12-18T05:21:06.273Z</time>
</trkpt>
<trkpt lat="-27.0700867" lon="152.7816209">
<ele>490.634</ele>
<time>2015-12-18T05:21:08.245Z</time>
</trkpt>
<trkpt lat="-27.0707009" lon="152.7816549">
<ele>488.443</ele>
<time>2015-12-18T05:21:11.220Z</time>
</trkpt>
<trkpt lat="-27.0710600" lon="152.7816105">
<ele>486.407</ele>
<time>2015-12-18T05:21:12.982Z</time>
</trkpt>
<trkpt lat="-27.0714748" lon="152.7816112">
<ele>485.045</ele>
<time>2015-12-18T05:21:15.008Z</time>
</trkpt>
<trkpt lat="-27.0720775" lon="152.7817115">
<ele>484.027</ele>
<time>2015-12-18T05:21:17.941Z</time>
</trkpt>
<trkpt lat="-27.0724768" lon="152.7818285">
<ele>482.479</ele>
<time>2015-12-18T05:21:19.915Z</time>
</trkpt>
<trkpt lat="-27.0730963" lon="152.7819394">
<ele>479.910</ele>
<time>2015-12-18T05:21:22.964Z</time>
</trkpt>
<trkpt lat="-27.0736598" lon="152.7819366">
<ele>476.347</ele>
<time>2015-12-18T05:21:25.711Z</time>
</trkpt>
<trkpt lat="-27.0742540" lon="152.7818332">
<ele>472.333</ele>
<time>2015-12-18T05:21:28.618Z</time>
</trkpt>
<trkpt lat="-27.0746781" lon="152.7818267">
<ele>468.990</ele>
<time>2015-12-18T05:21:30.690Z</time>
</trkpt>
<trkpt lat="-27.0751126" lon="152.7818869">
<ele>466.986</ele>
<time>2015-12-18T05:21:32.867Z</time>
</trkpt>
<trkpt lat="-27.0757059" lon="152.7819868">
<ele>466.056</ele>
<time>2015-12-18T05:21:35.923Z</time>
</trkpt>
<trkpt lat="-27.0760955" lon="152.7819924">
<ele>465.552</ele>
<time>2015-12-18T05:21:37.887Z</time>
</trkpt>
<trkpt lat="-27.0764893" lon="152.7819367">
<ele>464.922</ele>
<time>2015-12-18T05:21:39.868Z</time>
</trkpt>
<trkpt lat="-27.0768517" lon="152.7818170">
<ele>464.334</ele>
<time>2015-12-18T05:21:41.748Z</time>
</trkpt>
<trkpt lat="-27.0774165" lon="152.7815312">
<ele>464.231</ele>
<time>2015-12-18T05:21:44.818Z</time>
</trkpt>
<trkpt lat="-27.0778805" lon="152.7811185">
<ele>464.679</ele>
<time>2015-12-18T05:21:47.696Z</time>
</trkpt>
<trkpt lat="-27.0781860" lon="152.7807684">
<ele>465.886</ele>
<time>2015-12-18T05:21:49.863Z</time>
</trkpt>
<trkpt lat="-27.0784403" lon="152.7804171">
<ele>468.538</ele>
<time>2015-12-18T05:21:51.978Z</time>
</trkpt>
<trkpt lat="-27.0787837" lon="152.7799439">
<ele>472.276</ele>
<time>2015-12-18T05:21:55.131Z</time>
</trkpt>
<trkpt lat="-27.0790047" lon="152.7794514">
<ele>475.402</ele>
<time>2015-12-18T05:21:58.146Z</time>
</trkpt>
<trkpt lat="-27.0791141" lon="152.7789409">
<ele>477.278</ele>
<time>2015-12-18T05:22:01.035Z</time>
</trkpt>
<trkpt lat="-27.0791928" lon="152.7784071">
<ele>478.894</ele>
<time>2015-12-18T05:22:04.042Z</time>
</trkpt>
<trkpt lat="-27.0792056" lon="152.7780523">
<ele>481.108</ele>
<time>2015-12-18T05:22:06.037Z</time>
</trkpt>
<trkpt lat="-27.0792226" lon="152.7775670">
<ele>483.764</ele>
<time>2015-12-18T05:22:08.690Z</time>
</trkpt>
<trkpt lat="-27.0792052" lon="152.7769935">
<ele>485.996</ele>
<time>2015-12-18T05:22:11.738Z</time>
</trkpt>
<trkpt lat="-27.0791436" lon="152.7766241">
<ele>486.830</ele>
<time>2015-12-18T05:22:13.785Z</time>
</trkpt>
<trkpt lat="-27.0790354" lon="152.7762874">
<ele>486.157</ele>
<time>2015-12-18T05:22:15.815Z</time>
</trkpt>
<trkpt lat="-27.0789592" lon="152.7759588">
<ele>484.866</ele>
<time>2015-12-18T05:22:17.777Z</time>
</trkpt>
<trkpt lat="-27.0789242" lon="152.7754513">
<ele>483.846</ele>
<time>2015-12-18T05:22:20.715Z</time>
</trkpt>
<trkpt lat="-27.0789664" lon="152.7751122">
<ele>483.486</ele>
<time>2015-12-18T05:22:22.670Z</time>
</trkpt>
<trkpt lat="-27.0791049" lon="152.7746092">
<ele>483.737</ele>
<time>2015-12-18T05:22:25.650Z</time>
</trkpt>
<trkpt lat="-27.0792901" lon="152.7741313">
<ele>484.017</ele>
<time>2015-12-18T05:22:28.742Z</time>
</trkpt>
<trkpt lat="-27.0794151" lon="152.7738584">
<ele>483.900</ele>
<time>2015-12-18T05:22:30.647Z</time>
</trkpt>
<trkpt lat="-27.0796494" lon="152.7735031">
<ele>483.539</ele>
<time>2015-12-18T05:22:33.405Z</time>
</trkpt>
<trkpt lat="-27.0798571" lon="152.7733002">
<ele>483.136</ele>
<time>2015-12-18T05:22:35.312Z</time>
</trkpt>
<trkpt lat="-27.0801914" lon="152.7729915">
<ele>482.410</ele>
<time>2015-12-18T05:22:38.316Z</time>
</trkpt>
<trkpt lat="-27.0804045" lon="152.7727779">
<ele>481.113</ele>
<time>2015-12-18T05:22:40.330Z</time>
</trkpt>
<trkpt lat="-27.0806022" lon="152.7725498">
<ele>479.708</ele>
<time>2015-12-18T05:22:42.314Z</time>
</trkpt>
<trkpt lat="-27.0807393" lon="152.7722512">
<ele>478.866</ele>
<time>2015-12-18T05:22:44.333Z</time>
</trkpt>
<trkpt lat="-27.0808460" lon="152.7717562">
<ele>478.637</ele>
<time>2015-12-18T05:22:47.293Z</time>
</trkpt>
<trkpt lat="-27.0808569" lon="152.7714030">
<ele>478.771</ele>
<time>2015-12-18T05:22:49.305Z</time>
</trkpt>
<trkpt lat="-27.0807576" lon="152.7708908">
<ele>479.335</ele>
<time>2015-12-18T05:22:52.365Z</time>
</trkpt>
<trkpt lat="-27.0806375" lon="152.7705746">
<ele>480.518</ele>
<time>2015-12-18T05:22:54.529Z</time>
</trkpt>
<trkpt lat="-27.0805884" lon="152.7701295">
<ele>481.998</ele>
<time>2015-12-18T05:22:57.382Z</time>
</trkpt>
<trkpt lat="-27.0807226" lon="152.7698198">
<ele>483.415</ele>
<time>2015-12-18T05:22:59.402Z</time>
</trkpt>
<trkpt lat="-27.0808480" lon="152.7694816">
<ele>484.668</ele>
<time>2015-12-18T05:23:01.418Z</time>
</trkpt>
<trkpt lat="-27.0808834" lon="152.7689540">
<ele>485.786</ele>
<time>2015-12-18T05:23:04.255Z</time>
</trkpt>
<trkpt lat="-27.0809038" lon="152.7683886">
<ele>487.108</ele>
<time>2015-12-18T05:23:07.296Z</time>
</trkpt>
<trkpt lat="-27.0809232" lon="152.7680326">
<ele>488.976</ele>
<time>2015-12-18T05:23:09.219Z</time>
</trkpt>
<trkpt lat="-27.0809642" lon="152.7676653">
<ele>491.346</ele>
<time>2015-12-18T05:23:11.163Z</time>
</trkpt>
<trkpt lat="-27.0809868" lon="152.7670943">
<ele>493.774</ele>
<time>2015-12-18T05:23:14.102Z</time>
</trkpt>
<trkpt lat="-27.0809821" lon="152.7667291">
<ele>495.401</ele>
<time>2015-12-18T05:23:15.941Z</time>
</trkpt>
<trkpt lat="-27.0809972" lon="152.7663215">
<ele>495.568</ele>
<time>2015-12-18T05:23:17.980Z</time>
</trkpt>
<trkpt lat="-27.0810258" lon="152.7657282">
<ele>494.298</ele>
<time>2015-12-18T05:23:20.939Z</time>
</trkpt>
<trkpt lat="-27.0811164" lon="152.7651414">
<ele>492.413</ele>
<time>2015-12-18T05:23:23.995Z</time>
</trkpt>
<trkpt lat="-27.0812721" lon="152.7646185">
<ele>491.031</ele>
<time>2015-12-18T05:23:26.998Z</time>
</trkpt>
<trkpt lat="-27.0815233" lon="152.7641652">
<ele>490.543</ele>
<time>2015-12-18T05:23:30.022Z</time>
</trkpt>
<trkpt lat="-27.0817086" lon="152.7638942">
<ele>490.715</ele>
<time>2015-12-18T05:23:31.974Z</time>
</trkpt>
<trkpt lat="-27.0819120" lon="152.7636360">
<ele>491.218</ele>
<time>2015-12-18T05:23:33.932Z</time>
</trkpt>
<trkpt lat="-27.0822229" lon="152.7632400">
<ele>491.533</ele>
<time>2015-12-18T05:23:36.953Z</time>
</trkpt>
<trkpt lat="-27.0824166" lon="152.7627674">
<ele>490.977</ele>
<time>2015-12-18T05:23:39.946Z</time>
</trkpt>
<trkpt lat="-27.0824606" lon="152.7624305">
<ele>489.034</ele>
<time>2015-12-18T05:23:41.873Z</time>
</trkpt>
<trkpt lat="-27.0824115" lon="152.7618935">
<ele>486.195</ele>
<time>2015-12-18T05:23:44.897Z</time>
</trkpt>
<trkpt lat="-27.0823653" lon="152.7615466">
<ele>483.850</ele>
<time>2015-12-18T05:23:46.936Z</time>
</trkpt>
<trkpt lat="-27.0823464" lon="152.7610580">
<ele>482.749</ele>
<time>2015-12-18T05:23:49.946Z</time>
</trkpt>
<trkpt lat="-27.0824682" lon="152.7606492">
<ele>482.332</ele>
<time>2015-12-18T05:23:52.792Z</time>
</trkpt>
<trkpt lat="-27.0826132" lon="152.7603930">
<ele>481.913</ele>
<time>2015-12-18T05:23:54.865Z</time>
</trkpt>
<trkpt lat="-27.0828498" lon="152.7602025">
<ele>481.684</ele>
<time>2015-12-18T05:23:56.967Z</time>
</trkpt>
<trkpt lat="-27.0833264" lon="152.7601445">
<ele>482.024</ele>
<time>2015-12-18T05:23:59.978Z</time>
</trkpt>
<trkpt lat="-27.0837323" lon="152.7598012">
<ele>482.797</ele>
<time>2015-12-18T05:24:02.779Z</time>
</trkpt>
<trkpt lat="-27.0839947" lon="152.7595021">
<ele>484.026</ele>
<time>2015-12-18T05:24:04.723Z</time>
</trkpt>
<trkpt lat="-27.0842517" lon="152.7591728">
<ele>485.997</ele>
<time>2015-12-18T05:24:06.718Z</time>
</trkpt>
<trkpt lat="-27.0845253" lon="152.7588512">
<ele>488.464</ele>
<time>2015-12-18T05:24:08.752Z</time>
</trkpt>
<trkpt lat="-27.0849142" lon="152.7583623">
<ele>490.695</ele>
<time>2015-12-18T05:24:11.821Z</time>
</trkpt>
<trkpt lat="-27.0851493" lon="152.7580362">
<ele>492.436</ele>
<time>2015-12-18T05:24:13.794Z</time>
</trkpt>
<trkpt lat="-27.0854714" lon="152.7575282">
<ele>494.062</ele>
<time>2015-12-18T05:24:16.614Z</time>
</trkpt>
<trkpt lat="-27.0856525" lon="152.7571365">
<ele>495.789</ele>
<time>2015-12-18T05:24:18.533Z</time>
</trkpt>
<trkpt lat="-27.0858520" lon="152.7564865">
<ele>497.574</ele>
<time>2015-12-18T05:24:21.412Z</time>
</trkpt>
<trkpt lat="-27.0860114" lon="152.7557861">
<ele>499.428</ele>
<time>2015-12-18T05:24:24.370Z</time>
</trkpt>
<trkpt lat="-27.0861621" lon="152.7553345">
<ele>501.088</ele>
<time>2015-12-18T05:24:26.341Z</time>
</trkpt>
<trkpt lat="-27.0863505" lon="152.7549035">
<ele>502.390</ele>
<time>2015-12-18T05:24:28.344Z</time>
</trkpt>
<trkpt lat="-27.0865510" lon="152.7545073">
<ele>503.468</ele>
<time>2015-12-18T05:24:30.261Z</time>
</trkpt>
<trkpt lat="-27.0868546" lon="152.7538724">
<ele>504.228</ele>
<time>2015-12-18T05:24:33.294Z</time>
</trkpt>
<trkpt lat="-27.0870766" lon="152.7532360">
<ele>504.749</ele>
<time>2015-12-18T05:24:36.225Z</time>
</trkpt>
<trkpt lat="-27.0872098" lon="152.7528185">
<ele>505.869</ele>
<time>2015-12-18T05:24:38.148Z</time>
</trkpt>
<trkpt lat="-27.0873062" lon="152.7523660">
<ele>507.970</ele>
<time>2015-12-18T05:24:40.147Z</time>
</trkpt>
<trkpt lat="-27.0874700" lon="152.7516996">
<ele>510.574</ele>
<time>2015-12-18T05:24:43.109Z</time>
</trkpt>
<trkpt lat="-27.0875722" lon="152.7512542">
<ele>513.823</ele>
<time>2015-12-18T05:24:45.083Z</time>
</trkpt>
<trkpt lat="-27.0876856" lon="152.7508185">
<ele>517.643</ele>
<time>2015-12-18T05:24:47.048Z</time>
</trkpt>
<trkpt lat="-27.0878431" lon="152.7501581">
<ele>521.382</ele>
<time>2015-12-18T05:24:50.013Z</time>
</trkpt>
<trkpt lat="-27.0880041" lon="152.7495044">
<ele>524.994</ele>
<time>2015-12-18T05:24:52.981Z</time>
</trkpt>
<trkpt lat="-27.0881026" lon="152.7490782">
<ele>528.750</ele>
<time>2015-12-18T05:24:54.951Z</time>
</trkpt>
<trkpt lat="-27.0882369" lon="152.7486516">
<ele>532.392</ele>
<time>2015-12-18T05:24:56.975Z</time>
</trkpt>
<trkpt lat="-27.0885058" lon="152.7480701">
<ele>535.461</ele>
<time>2015-12-18T05:24:59.878Z</time>
</trkpt>
<trkpt lat="-27.0889153" lon="152.7475477">
<ele>537.788</ele>
<time>2015-12-18T05:25:02.909Z</time>
</trkpt>
<trkpt lat="-27.0892207" lon="152.7472419">
<ele>539.635</ele>
<time>2015-12-18T05:25:04.884Z</time>
</trkpt>
<trkpt lat="-27.0897743" lon="152.7469437">
<ele>540.823</ele>
<time>2015-12-18T05:25:07.844Z</time>
</trkpt>
<trkpt lat="-27.0901492" lon="152.7468106">
<ele>541.297</ele>
<time>2015-12-18T05:25:09.739Z</time>
</trkpt>
<trkpt lat="-27.0907711" lon="152.7467437">
<ele>541.446</ele>
<time>2015-12-18T05:25:12.763Z</time>
</trkpt>
<trkpt lat="-27.0909699" lon="152.7467656">
<ele>541.401</ele>
<time>2015-12-18T05:25:13.734Z</time>
</trkpt>
<trkpt lat="-27.0917524" lon="152.7469839">
<ele>540.928</ele>
<time>2015-12-18T05:25:17.649Z</time>
</trkpt>
<trkpt lat="-27.0922794" lon="152.7473331">
<ele>539.174</ele>
<time>2015-12-18T05:25:20.614Z</time>
</trkpt>
<trkpt lat="-27.0927645" lon="152.7477302">
<ele>535.694</ele>
<time>2015-12-18T05:25:23.523Z</time>
</trkpt>
<trkpt lat="-27.0930790" lon="152.7480103">
<ele>531.549</ele>
<time>2015-12-18T05:25:25.478Z</time>
</trkpt>
<trkpt lat="-27.0935945" lon="152.7484190">
<ele>528.179</ele>
<time>2015-12-18T05:25:28.578Z</time>
</trkpt>
<trkpt lat="-27.0941418" lon="152.7486763">
<ele>525.852</ele>
<time>2015-12-18T05:25:31.495Z</time>
</trkpt>
<trkpt lat="-27.0947527" lon="152.7487590">
<ele>523.846</ele>
<time>2015-12-18T05:25:34.487Z</time>
</trkpt>
<trkpt lat="-27.0953409" lon="152.7487136">
<ele>521.572</ele>
<time>2015-12-18T05:25:37.287Z</time>
</trkpt>
<trkpt lat="-27.0960290" lon="152.7485937">
<ele>519.007</ele>
<time>2015-12-18T05:25:40.439Z</time>
</trkpt>
<trkpt lat="-27.0967244" lon="152.7484662">
<ele>515.841</ele>
<time>2015-12-18T05:25:43.538Z</time>
</trkpt>
<trkpt lat="-27.0971742" lon="152.7483822">
<ele>511.966</ele>
<time>2015-12-18T05:25:45.607Z</time>
</trkpt>
<trkpt lat="-27.0977753" lon="152.7482868">
<ele>508.306</ele>
<time>2015-12-18T05:25:48.424Z</time>
</trkpt>
<trkpt lat="-27.0981760" lon="152.7482752">
<ele>505.869</ele>
<time>2015-12-18T05:25:50.330Z</time>
</trkpt>
<trkpt lat="-27.0985867" lon="152.7482915">
<ele>504.772</ele>
<time>2015-12-18T05:25:52.298Z</time>
</trkpt>
<trkpt lat="-27.0991980" lon="152.7484413">
<ele>504.758</ele>
<time>2015-12-18T05:25:55.295Z</time>
</trkpt>
<trkpt lat="-27.0995782" lon="152.7486000">
<ele>505.459</ele>
<time>2015-12-18T05:25:57.219Z</time>
</trkpt>
<trkpt lat="-27.1001426" lon="152.7489079">
<ele>506.441</ele>
<time>2015-12-18T05:26:00.162Z</time>
</trkpt>
<trkpt lat="-27.1004929" lon="152.7491867">
<ele>507.375</ele>
<time>2015-12-18T05:26:02.156Z</time>
</trkpt>
<trkpt lat="-27.1009366" lon="152.7496793">
<ele>507.950</ele>
<time>2015-12-18T05:26:05.074Z</time>
</trkpt>
<trkpt lat="-27.1011787" lon="152.7500423">
<ele>507.819</ele>
<time>2015-12-18T05:26:07.002Z</time>
</trkpt>
<trkpt lat="-27.1016301" lon="152.7505662">
<ele>506.671</ele>
<time>2015-12-18T05:26:10.169Z</time>
</trkpt>
<trkpt lat="-27.1019295" lon="152.7508194">
<ele>504.811</ele>
<time>2015-12-18T05:26:12.046Z</time>
</trkpt>
<trkpt lat="-27.1024994" lon="152.7511085">
<ele>503.341</ele>
<time>2015-12-18T05:26:15.179Z</time>
</trkpt>
<trkpt lat="-27.1029052" lon="152.7512161">
<ele>503.282</ele>
<time>2015-12-18T05:26:17.227Z</time>
</trkpt>
<trkpt lat="-27.1034815" lon="152.7513551">
<ele>504.856</ele>
<time>2015-12-18T05:26:20.109Z</time>
</trkpt>
<trkpt lat="-27.1040644" lon="152.7514817">
<ele>507.404</ele>
<time>2015-12-18T05:26:22.994Z</time>
</trkpt>
<trkpt lat="-27.1046795" lon="152.7514453">
<ele>509.951</ele>
<time>2015-12-18T05:26:25.944Z</time>
</trkpt>
<trkpt lat="-27.1051300" lon="152.7513694">
<ele>511.985</ele>
<time>2015-12-18T05:26:28.077Z</time>
</trkpt>
<trkpt lat="-27.1057738" lon="152.7512493">
<ele>513.512</ele>
<time>2015-12-18T05:26:31.100Z</time>
</trkpt>
<trkpt lat="-27.1064064" lon="152.7511116">
<ele>514.923</ele>
<time>2015-12-18T05:26:34.078Z</time>
</trkpt>
<trkpt lat="-27.1068256" lon="152.7510108">
<ele>516.290</ele>
<time>2015-12-18T05:26:36.059Z</time>
</trkpt>
<trkpt lat="-27.1072536" lon="152.7509104">
<ele>517.403</ele>
<time>2015-12-18T05:26:38.098Z</time>
</trkpt>
<trkpt lat="-27.1076761" lon="152.7508277">
<ele>518.264</ele>
<time>2015-12-18T05:26:40.115Z</time>
</trkpt>
<trkpt lat="-27.1083029" lon="152.7506983">
<ele>518.949</ele>
<time>2015-12-18T05:26:43.110Z</time>
</trkpt>
<trkpt lat="-27.1086976" lon="152.7506000">
<ele>519.593</ele>
<time>2015-12-18T05:26:45.047Z</time>
</trkpt>
<trkpt lat="-27.1090835" lon="152.7505302">
<ele>520.281</ele>
<time>2015-12-18T05:26:46.991Z</time>
</trkpt>
<trkpt lat="-27.1096602" lon="152.7504697">
<ele>520.637</ele>
<time>2015-12-18T05:26:49.913Z</time>
</trkpt>
<trkpt lat="-27.1100032" lon="152.7505217">
<ele>520.340</ele>
<time>2015-12-18T05:26:51.631Z</time>
</trkpt>
<trkpt lat="-27.1106406" lon="152.7505752">
<ele>519.663</ele>
<time>2015-12-18T05:26:54.720Z</time>
</trkpt>
<trkpt lat="-27.1110689" lon="152.7506736">
<ele>519.235</ele>
<time>2015-12-18T05:26:56.782Z</time>
</trkpt>
<trkpt lat="-27.1116638" lon="152.7508809">
<ele>519.327</ele>
<time>2015-12-18T05:26:59.723Z</time>
</trkpt>
<trkpt lat="-27.1122416" lon="152.7511616">
<ele>519.645</ele>
<time>2015-12-18T05:27:02.731Z</time>
</trkpt>
<trkpt lat="-27.1128161" lon="152.7514091">
<ele>519.917</ele>
<time>2015-12-18T05:27:05.694Z</time>
</trkpt>
<trkpt lat="-27.1133657" lon="152.7516824">
<ele>520.167</ele>
<time>2015-12-18T05:27:08.602Z</time>
</trkpt>
<trkpt lat="-27.1137418" lon="152.7518532">
<ele>520.682</ele>
<time>2015-12-18T05:27:10.570Z</time>
</trkpt>
<trkpt lat="-27.1143006" lon="152.7521106">
<ele>521.693</ele>
<time>2015-12-18T05:27:13.497Z</time>
</trkpt>
<trkpt lat="-27.1146708" lon="152.7522741">
<ele>522.856</ele>
<time>2015-12-18T05:27:15.441Z</time>
</trkpt>
<trkpt lat="-27.1151793" lon="152.7525822">
<ele>523.538</ele>
<time>2015-12-18T05:27:18.329Z</time>
</trkpt>
<trkpt lat="-27.1156278" lon="152.7530132">
<ele>523.620</ele>
<time>2015-12-18T05:27:21.317Z</time>
</trkpt>
<trkpt lat="-27.1159096" lon="152.7533648">
<ele>523.448</ele>
<time>2015-12-18T05:27:23.422Z</time>
</trkpt>
<trkpt lat="-27.1163448" lon="152.7538490">
<ele>523.320</ele>
<time>2015-12-18T05:27:26.445Z</time>
</trkpt>
<trkpt lat="-27.1168048" lon="152.7542602">
<ele>523.179</ele>
<time>2015-12-18T05:27:29.359Z</time>
</trkpt>
<trkpt lat="-27.1171815" lon="152.7544289">
<ele>522.626</ele>
<time>2015-12-18T05:27:31.386Z</time>
</trkpt>
<trkpt lat="-27.1175447" lon="152.7545803">
<ele>521.554</ele>
<time>2015-12-18T05:27:33.307Z</time>
</trkpt>
<trkpt lat="-27.1181036" lon="152.7547742">
<ele>520.493</ele>
<time>2015-12-18T05:27:36.202Z</time>
</trkpt>
<trkpt lat="-27.1184912" lon="152.7549154">
<ele>519.485</ele>
<time>2015-12-18T05:27:38.220Z</time>
</trkpt>
<trkpt lat="-27.1190446" lon="152.7551894">
<ele>518.005</ele>
<time>2015-12-18T05:27:41.200Z</time>
</trkpt>
<trkpt lat="-27.1196001" lon="152.7555188">
<ele>516.138</ele>
<time>2015-12-18T05:27:44.227Z</time>
</trkpt>
<trkpt lat="-27.1199916" lon="152.7557548">
<ele>514.482</ele>
<time>2015-12-18T05:27:46.305Z</time>
</trkpt>
<trkpt lat="-27.1204891" lon="152.7561142">
<ele>513.079</ele>
<time>2015-12-18T05:27:49.100Z</time>
</trkpt>
<trkpt lat="-27.1210041" lon="152.7564325">
<ele>511.307</ele>
<time>2015-12-18T05:27:51.996Z</time>
</trkpt>
<trkpt lat="-27.1213450" lon="152.7566652">
<ele>508.590</ele>
<time>2015-12-18T05:27:53.997Z</time>
</trkpt>
<trkpt lat="-27.1216814" lon="152.7569056">
<ele>505.395</ele>
<time>2015-12-18T05:27:55.995Z</time>
</trkpt>
<trkpt lat="-27.1221508" lon="152.7573065">
<ele>502.944</ele>
<time>2015-12-18T05:27:58.979Z</time>
</trkpt>
<trkpt lat="-27.1224118" lon="152.7576261">
<ele>502.275</ele>
<time>2015-12-18T05:28:00.978Z</time>
</trkpt>
<trkpt lat="-27.1226432" lon="152.7579302">
<ele>503.236</ele>
<time>2015-12-18T05:28:02.884Z</time>
</trkpt>
<trkpt lat="-27.1228217" lon="152.7585847">
<ele>504.759</ele>
<time>2015-12-18T05:28:06.071Z</time>
</trkpt>
<trkpt lat="-27.1229608" lon="152.7590659">
<ele>506.232</ele>
<time>2015-12-18T05:28:08.274Z</time>
</trkpt>
<trkpt lat="-27.1232347" lon="152.7597009">
<ele>507.648</ele>
<time>2015-12-18T05:28:11.274Z</time>
</trkpt>
<trkpt lat="-27.1234612" lon="152.7603367">
<ele>508.696</ele>
<time>2015-12-18T05:28:14.226Z</time>
</trkpt>
<trkpt lat="-27.1236553" lon="152.7609766">
<ele>508.907</ele>
<time>2015-12-18T05:28:17.173Z</time>
</trkpt>
<trkpt lat="-27.1237250" lon="152.7614525">
<ele>508.322</ele>
<time>2015-12-18T05:28:19.234Z</time>
</trkpt>
<trkpt lat="-27.1237956" lon="152.7619197">
<ele>507.708</ele>
<time>2015-12-18T05:28:21.224Z</time>
</trkpt>
<trkpt lat="-27.1239346" lon="152.7625769">
<ele>507.646</ele>
<time>2015-12-18T05:28:24.069Z</time>
</trkpt>
<trkpt lat="-27.1239820" lon="152.7630422">
<ele>507.793</ele>
<time>2015-12-18T05:28:26.041Z</time>
</trkpt>
<trkpt lat="-27.1240607" lon="152.7635138">
<ele>507.458</ele>
<time>2015-12-18T05:28:28.045Z</time>
</trkpt>
<trkpt lat="-27.1241095" lon="152.7639815">
<ele>506.043</ele>
<time>2015-12-18T05:28:30.011Z</time>
</trkpt>
<trkpt lat="-27.1242552" lon="152.7646293">
<ele>503.745</ele>
<time>2015-12-18T05:28:32.866Z</time>
</trkpt>
<trkpt lat="-27.1243969" lon="152.7650062">
<ele>501.500</ele>
<time>2015-12-18T05:28:34.692Z</time>
</trkpt>
<trkpt lat="-27.1246879" lon="152.7655152">
<ele>499.955</ele>
<time>2015-12-18T05:28:37.549Z</time>
</trkpt>
<trkpt lat="-27.1249135" lon="152.7657699">
<ele>499.208</ele>
<time>2015-12-18T05:28:39.341Z</time>
</trkpt>
<trkpt lat="-27.1254856" lon="152.7659674">
<ele>499.081</ele>
<time>2015-12-18T05:28:42.757Z</time>
</trkpt>
<trkpt lat="-27.1258191" lon="152.7660782">
<ele>499.009</ele>
<time>2015-12-18T05:28:44.700Z</time>
</trkpt>
<trkpt lat="-27.1262809" lon="152.7663152">
<ele>498.422</ele>
<time>2015-12-18T05:28:47.584Z</time>
</trkpt>
<trkpt lat="-27.1265604" lon="152.7665223">
<ele>496.891</ele>
<time>2015-12-18T05:28:49.537Z</time>
</trkpt>
<trkpt lat="-27.1268629" lon="152.7667262">
<ele>494.653</ele>
<time>2015-12-18T05:28:51.604Z</time>
</trkpt>
<trkpt lat="-27.1271412" lon="152.7669506">
<ele>492.212</ele>
<time>2015-12-18T05:28:53.589Z</time>
</trkpt>
<trkpt lat="-27.1274780" lon="152.7673709">
<ele>489.571</ele>
<time>2015-12-18T05:28:56.517Z</time>
</trkpt>
<trkpt lat="-27.1276528" lon="152.7678438">
<ele>486.621</ele>
<time>2015-12-18T05:28:59.289Z</time>
</trkpt>
<trkpt lat="-27.1275515" lon="152.7683960">
<ele>483.597</ele>
<time>2015-12-18T05:29:02.568Z</time>
</trkpt>
<trkpt lat="-27.1273147" lon="152.7688400">
<ele>480.436</ele>
<time>2015-12-18T05:29:05.678Z</time>
</trkpt>
<trkpt lat="-27.1269876" lon="152.7691051">
<ele>477.007</ele>
<time>2015-12-18T05:29:08.219Z</time>
</trkpt>
<trkpt lat="-27.1264718" lon="152.7691993">
<ele>473.651</ele>
<time>2015-12-18T05:29:11.301Z</time>
</trkpt>
<trkpt lat="-27.1259752" lon="152.7693041">
<ele>471.144</ele>
<time>2015-12-18T05:29:14.294Z</time>
</trkpt>
<trkpt lat="-27.1256779" lon="152.7694169">
<ele>469.672</ele>
<time>2015-12-18T05:29:16.214Z</time>
</trkpt>
<trkpt lat="-27.1253800" lon="152.7695891">
<ele>468.819</ele>
<time>2015-12-18T05:29:18.318Z</time>
</trkpt>
<trkpt lat="-27.1251840" lon="152.7698598">
<ele>468.494</ele>
<time>2015-12-18T05:29:20.294Z</time>
</trkpt>
<trkpt lat="-27.1250270" lon="152.7701604">
<ele>468.890</ele>
<time>2015-12-18T05:29:22.278Z</time>
</trkpt>
<trkpt lat="-27.1249586" lon="152.7705847">
<ele>470.171</ele>
<time>2015-12-18T05:29:24.589Z</time>
</trkpt>
<trkpt lat="-27.1248845" lon="152.7709405">
<ele>472.219</ele>
<time>2015-12-18T05:29:26.508Z</time>
</trkpt>
<trkpt lat="-27.1247846" lon="152.7712686">
<ele>474.184</ele>
<time>2015-12-18T05:29:28.397Z</time>
</trkpt>
<trkpt lat="-27.1244616" lon="152.7716387">
<ele>475.259</ele>
<time>2015-12-18T05:29:31.263Z</time>
</trkpt>
<trkpt lat="-27.1239788" lon="152.7719203">
<ele>476.008</ele>
<time>2015-12-18T05:29:34.384Z</time>
</trkpt>
<trkpt lat="-27.1234847" lon="152.7722216">
<ele>477.171</ele>
<time>2015-12-18T05:29:37.366Z</time>
</trkpt>
<trkpt lat="-27.1231806" lon="152.7724873">
<ele>478.114</ele>
<time>2015-12-18T05:29:39.358Z</time>
</trkpt>
<trkpt lat="-27.1227856" lon="152.7729965">
<ele>478.122</ele>
<time>2015-12-18T05:29:42.361Z</time>
</trkpt>
<trkpt lat="-27.1225385" lon="152.7733621">
<ele>477.636</ele>
<time>2015-12-18T05:29:44.343Z</time>
</trkpt>
<trkpt lat="-27.1222823" lon="152.7737046">
<ele>477.244</ele>
<time>2015-12-18T05:29:46.273Z</time>
</trkpt>
<trkpt lat="-27.1218581" lon="152.7742104">
<ele>477.097</ele>
<time>2015-12-18T05:29:49.277Z</time>
</trkpt>
<trkpt lat="-27.1213769" lon="152.7746782">
<ele>477.127</ele>
<time>2015-12-18T05:29:52.326Z</time>
</trkpt>
<trkpt lat="-27.1210554" lon="152.7749636">
<ele>477.512</ele>
<time>2015-12-18T05:29:54.282Z</time>
</trkpt>
<trkpt lat="-27.1205939" lon="152.7753866">
<ele>478.369</ele>
<time>2015-12-18T05:29:57.178Z</time>
</trkpt>
<trkpt lat="-27.1203003" lon="152.7756802">
<ele>479.225</ele>
<time>2015-12-18T05:29:59.158Z</time>
</trkpt>
<trkpt lat="-27.1200754" lon="152.7760087">
<ele>479.627</ele>
<time>2015-12-18T05:30:01.067Z</time>
</trkpt>
<trkpt lat="-27.1198937" lon="152.7764312">
<ele>479.667</ele>
<time>2015-12-18T05:30:03.188Z</time>
</trkpt>
<trkpt lat="-27.1196446" lon="152.7770634">
<ele>479.564</ele>
<time>2015-12-18T05:30:06.175Z</time>
</trkpt>
<trkpt lat="-27.1194812" lon="152.7774788">
<ele>479.455</ele>
<time>2015-12-18T05:30:08.110Z</time>
</trkpt>
<trkpt lat="-27.1191921" lon="152.7780421">
<ele>478.932</ele>
<time>2015-12-18T05:30:10.951Z</time>
</trkpt>
<trkpt lat="-27.1187846" lon="152.7785165">
<ele>477.514</ele>
<time>2015-12-18T05:30:13.876Z</time>
</trkpt>
<trkpt lat="-27.1185113" lon="152.7788048">
<ele>475.760</ele>
<time>2015-12-18T05:30:15.743Z</time>
</trkpt>
<trkpt lat="-27.1180917" lon="152.7792499">
<ele>474.641</ele>
<time>2015-12-18T05:30:18.648Z</time>
</trkpt>
<trkpt lat="-27.1177790" lon="152.7795345">
<ele>474.432</ele>
<time>2015-12-18T05:30:20.682Z</time>
</trkpt>
<trkpt lat="-27.1173257" lon="152.7799724">
<ele>474.836</ele>
<time>2015-12-18T05:30:23.672Z</time>
</trkpt>
<trkpt lat="-27.1170173" lon="152.7802600">
<ele>475.323</ele>
<time>2015-12-18T05:30:25.666Z</time>
</trkpt>
<trkpt lat="-27.1165731" lon="152.7807269">
<ele>475.182</ele>
<time>2015-12-18T05:30:28.662Z</time>
</trkpt>
<trkpt lat="-27.1163714" lon="152.7810861">
<ele>473.542</ele>
<time>2015-12-18T05:30:30.540Z</time>
</trkpt>
<trkpt lat="-27.1161414" lon="152.7817199">
<ele>470.344</ele>
<time>2015-12-18T05:30:33.594Z</time>
</trkpt>
<trkpt lat="-27.1161207" lon="152.7823810">
<ele>467.071</ele>
<time>2015-12-18T05:30:36.499Z</time>
</trkpt>
<trkpt lat="-27.1161498" lon="152.7828231">
<ele>465.229</ele>
<time>2015-12-18T05:30:38.416Z</time>
</trkpt>
<trkpt lat="-27.1162086" lon="152.7835067">
<ele>464.897</ele>
<time>2015-12-18T05:30:41.361Z</time>
</trkpt>
<trkpt lat="-27.1162383" lon="152.7839607">
<ele>465.490</ele>
<time>2015-12-18T05:30:43.330Z</time>
</trkpt>
<trkpt lat="-27.1162082" lon="152.7846284">
<ele>466.492</ele>
<time>2015-12-18T05:30:46.274Z</time>
</trkpt>
<trkpt lat="-27.1161857" lon="152.7850298">
<ele>467.905</ele>
<time>2015-12-18T05:30:48.081Z</time>
</trkpt>
<trkpt lat="-27.1161746" lon="152.7854506">
<ele>469.762</ele>
<time>2015-12-18T05:30:50.026Z</time>
</trkpt>
<trkpt lat="-27.1161688" lon="152.7858407">
<ele>471.593</ele>
<time>2015-12-18T05:30:51.905Z</time>
</trkpt>
<trkpt lat="-27.1161981" lon="152.7863685">
<ele>472.930</ele>
<time>2015-12-18T05:30:54.631Z</time>
</trkpt>
<trkpt lat="-27.1162528" lon="152.7867298">
<ele>473.691</ele>
<time>2015-12-18T05:30:56.590Z</time>
</trkpt>
<trkpt lat="-27.1164459" lon="152.7872360">
<ele>474.211</ele>
<time>2015-12-18T05:30:59.552Z</time>
</trkpt>
<trkpt lat="-27.1166177" lon="152.7875592">
<ele>475.168</ele>
<time>2015-12-18T05:31:01.541Z</time>
</trkpt>
<trkpt lat="-27.1169300" lon="152.7880067">
<ele>476.424</ele>
<time>2015-12-18T05:31:04.491Z</time>
</trkpt>
<trkpt lat="-27.1171568" lon="152.7882437">
<ele>476.678</ele>
<time>2015-12-18T05:31:06.307Z</time>
</trkpt>
<trkpt lat="-27.1174213" lon="152.7884441">
<ele>474.946</ele>
<time>2015-12-18T05:31:08.239Z</time>
</trkpt>
<trkpt lat="-27.1179264" lon="152.7886525">
<ele>471.974</ele>
<time>2015-12-18T05:31:11.548Z</time>
</trkpt>
<trkpt lat="-27.1183855" lon="152.7888471">
<ele>469.078</ele>
<time>2015-12-18T05:31:14.507Z</time>
</trkpt>
<trkpt lat="-27.1187736" lon="152.7891440">
<ele>466.486</ele>
<time>2015-12-18T05:31:17.381Z</time>
</trkpt>
<trkpt lat="-27.1190781" lon="152.7896196">
<ele>463.887</ele>
<time>2015-12-18T05:31:20.586Z</time>
</trkpt>
<trkpt lat="-27.1194256" lon="152.7900446">
<ele>461.306</ele>
<time>2015-12-18T05:31:23.585Z</time>
</trkpt>
<trkpt lat="-27.1196122" lon="152.7903312">
<ele>459.099</ele>
<time>2015-12-18T05:31:25.403Z</time>
</trkpt>
<trkpt lat="-27.1197754" lon="152.7908614">
<ele>457.645</ele>
<time>2015-12-18T05:31:28.442Z</time>
</trkpt>
<trkpt lat="-27.1198846" lon="152.7912490">
<ele>457.453</ele>
<time>2015-12-18T05:31:30.644Z</time>
</trkpt>
<trkpt lat="-27.1200533" lon="152.7916072">
<ele>458.671</ele>
<time>2015-12-18T05:31:32.710Z</time>
</trkpt>
<trkpt lat="-27.1203787" lon="152.7920845">
<ele>460.371</ele>
<time>2015-12-18T05:31:35.714Z</time>
</trkpt>
<trkpt lat="-27.1206413" lon="152.7923443">
<ele>461.475</ele>
<time>2015-12-18T05:31:37.677Z</time>
</trkpt>
<trkpt lat="-27.1209563" lon="152.7925240">
<ele>461.568</ele>
<time>2015-12-18T05:31:39.659Z</time>
</trkpt>
<trkpt lat="-27.1214432" lon="152.7927413">
<ele>460.574</ele>
<time>2015-12-18T05:31:42.634Z</time>
</trkpt>
<trkpt lat="-27.1217645" lon="152.7928917">
<ele>458.895</ele>
<time>2015-12-18T05:31:44.622Z</time>
</trkpt>
<trkpt lat="-27.1220718" lon="152.7930981">
<ele>457.314</ele>
<time>2015-12-18T05:31:46.648Z</time>
</trkpt>
<trkpt lat="-27.1223646" lon="152.7933437">
<ele>456.279</ele>
<time>2015-12-18T05:31:48.674Z</time>
</trkpt>
<trkpt lat="-27.1227563" lon="152.7937514">
<ele>455.437</ele>
<time>2015-12-18T05:31:51.634Z</time>
</trkpt>
<trkpt lat="-27.1229719" lon="152.7940328">
<ele>454.103</ele>
<time>2015-12-18T05:31:53.485Z</time>
</trkpt>
<trkpt lat="-27.1232951" lon="152.7944762">
<ele>452.124</ele>
<time>2015-12-18T05:31:56.386Z</time>
</trkpt>
<trkpt lat="-27.1234702" lon="152.7948118">
<ele>450.143</ele>
<time>2015-12-18T05:31:58.368Z</time>
</trkpt>
<trkpt lat="-27.1236623" lon="152.7951232">
<ele>448.917</ele>
<time>2015-12-18T05:32:00.322Z</time>
</trkpt>
<trkpt lat="-27.1239089" lon="152.7955444">
<ele>448.467</ele>
<time>2015-12-18T05:32:03.032Z</time>
</trkpt>
<trkpt lat="-27.1239897" lon="152.7959323">
<ele>447.276</ele>
<time>2015-12-18T05:32:05.333Z</time>
</trkpt>
<trkpt lat="-27.1237905" lon="152.7961992">
<ele>444.360</ele>
<time>2015-12-18T05:32:07.670Z</time>
</trkpt>
<trkpt lat="-27.1237428" lon="152.7964776">
<ele>441.208</ele>
<time>2015-12-18T05:32:09.792Z</time>
</trkpt>
<trkpt lat="-27.1238408" lon="152.7967659">
<ele>439.609</ele>
<time>2015-12-18T05:32:12.094Z</time>
</trkpt>
<trkpt lat="-27.1241586" lon="152.7970730">
<ele>439.461</ele>
<time>2015-12-18T05:32:15.227Z</time>
</trkpt>
<trkpt lat="-27.1246029" lon="152.7972803">
<ele>439.698</ele>
<time>2015-12-18T05:32:18.496Z</time>
</trkpt>
<trkpt lat="-27.1249339" lon="152.7976785">
<ele>439.564</ele>
<time>2015-12-18T05:32:21.536Z</time>
</trkpt>
<trkpt lat="-27.1251262" lon="152.7980376">
<ele>439.402</ele>
<time>2015-12-18T05:32:23.764Z</time>
</trkpt>
<trkpt lat="-27.1252853" lon="152.7983676">
<ele>439.687</ele>
<time>2015-12-18T05:32:25.673Z</time>
</trkpt>
<trkpt lat="-27.1255159" lon="152.7987638">
<ele>440.037</ele>
<time>2015-12-18T05:32:28.183Z</time>
</trkpt>
<trkpt lat="-27.1257440" lon="152.7988428">
<ele>439.183</ele>
<time>2015-12-18T05:32:29.718Z</time>
</trkpt>
<trkpt lat="-27.1260837" lon="152.7989295">
<ele>436.672</ele>
<time>2015-12-18T05:32:32.422Z</time>
</trkpt>
<trkpt lat="-27.1262094" lon="152.7991371">
<ele>433.648</ele>
<time>2015-12-18T05:32:34.310Z</time>
</trkpt>
<trkpt lat="-27.1262934" lon="152.7997540">
<ele>431.363</ele>
<time>2015-12-18T05:32:38.955Z</time>
</trkpt>
<trkpt lat="-27.1263265" lon="152.8002800">
<ele>430.177</ele>
<time>2015-12-18T05:32:42.090Z</time>
</trkpt>
<trkpt lat="-27.1262203" lon="152.8008266">
<ele>429.593</ele>
<time>2015-12-18T05:32:45.125Z</time>
</trkpt>
<trkpt lat="-27.1262005" lon="152.8011763">
<ele>428.450</ele>
<time>2015-12-18T05:32:47.009Z</time>
</trkpt>
<trkpt lat="-27.1262211" lon="152.8015368">
<ele>426.395</ele>
<time>2015-12-18T05:32:48.965Z</time>
</trkpt>
<trkpt lat="-27.1264472" lon="152.8018406">
<ele>424.187</ele>
<time>2015-12-18T05:32:51.141Z</time>
</trkpt>
<trkpt lat="-27.1266668" lon="152.8021258">
<ele>422.285</ele>
<time>2015-12-18T05:32:53.210Z</time>
</trkpt>
<trkpt lat="-27.1271517" lon="152.8024236">
<ele>420.504</ele>
<time>2015-12-18T05:32:56.409Z</time>
</trkpt>
<trkpt lat="-27.1276470" lon="152.8026866">
<ele>418.984</ele>
<time>2015-12-18T05:32:59.440Z</time>
</trkpt>
<trkpt lat="-27.1281123" lon="152.8029344">
<ele>417.641</ele>
<time>2015-12-18T05:33:02.387Z</time>
</trkpt>
<trkpt lat="-27.1283667" lon="152.8030964">
<ele>415.461</ele>
<time>2015-12-18T05:33:04.178Z</time>
</trkpt>
<trkpt lat="-27.1285939" lon="152.8032550">
<ele>412.320</ele>
<time>2015-12-18T05:33:05.935Z</time>
</trkpt>
<trkpt lat="-27.1288946" lon="152.8036691">
<ele>409.556</ele>
<time>2015-12-18T05:33:09.133Z</time>
</trkpt>
<trkpt lat="-27.1291794" lon="152.8040880">
<ele>408.084</ele>
<time>2015-12-18T05:33:12.160Z</time>
</trkpt>
<trkpt lat="-27.1293424" lon="152.8043647">
<ele>407.325</ele>
<time>2015-12-18T05:33:14.059Z</time>
</trkpt>
<trkpt lat="-27.1296145" lon="152.8047222">
<ele>406.273</ele>
<time>2015-12-18T05:33:16.865Z</time>
</trkpt>
<trkpt lat="-27.1299764" lon="152.8050010">
<ele>404.349</ele>
<time>2015-12-18T05:33:19.865Z</time>
</trkpt>
<trkpt lat="-27.1303291" lon="152.8052934">
<ele>401.543</ele>
<time>2015-12-18T05:33:22.844Z</time>
</trkpt>
<trkpt lat="-27.1305386" lon="152.8057072">
<ele>398.598</ele>
<time>2015-12-18T05:33:25.730Z</time>
</trkpt>
<trkpt lat="-27.1305990" lon="152.8060705">
<ele>396.537</ele>
<time>2015-12-18T05:33:27.941Z</time>
</trkpt>
<trkpt lat="-27.1307978" lon="152.8066075">
<ele>395.664</ele>
<time>2015-12-18T05:33:31.180Z</time>
</trkpt>
<trkpt lat="-27.1311043" lon="152.8069974">
<ele>395.620</ele>
<time>2015-12-18T05:33:34.071Z</time>
</trkpt>
<trkpt lat="-27.1314719" lon="152.8071589">
<ele>395.878</ele>
<time>2015-12-18T05:33:36.769Z</time>
</trkpt>
<trkpt lat="-27.1317351" lon="152.8071180">
<ele>395.819</ele>
<time>2015-12-18T05:33:38.729Z</time>
</trkpt>
<trkpt lat="-27.1321667" lon="152.8069702">
<ele>395.207</ele>
<time>2015-12-18T05:33:42.116Z</time>
</trkpt>
<trkpt lat="-27.1324514" lon="152.8068606">
<ele>394.498</ele>
<time>2015-12-18T05:33:44.204Z</time>
</trkpt>
<trkpt lat="-27.1329540" lon="152.8067877">
<ele>394.171</ele>
<time>2015-12-18T05:33:47.462Z</time>
</trkpt>
<trkpt lat="-27.1332504" lon="152.8068370">
<ele>394.155</ele>
<time>2015-12-18T05:33:49.357Z</time>
</trkpt>
<trkpt lat="-27.1336939" lon="152.8070669">
<ele>394.241</ele>
<time>2015-12-18T05:33:52.395Z</time>
</trkpt>
<trkpt lat="-27.1339769" lon="152.8072548">
<ele>394.470</ele>
<time>2015-12-18T05:33:54.383Z</time>
</trkpt>
<trkpt lat="-27.1342642" lon="152.8074387">
<ele>395.184</ele>
<time>2015-12-18T05:33:56.348Z</time>
</trkpt>
<trkpt lat="-27.1345724" lon="152.8075944">
<ele>396.479</ele>
<time>2015-12-18T05:33:58.352Z</time>
</trkpt>
<trkpt lat="-27.1348883" lon="152.8077050">
<ele>397.863</ele>
<time>2015-12-18T05:34:00.337Z</time>
</trkpt>
<trkpt lat="-27.1353571" lon="152.8078272">
<ele>398.721</ele>
<time>2015-12-18T05:34:03.293Z</time>
</trkpt>
<trkpt lat="-27.1356701" lon="152.8078920">
<ele>398.959</ele>
<time>2015-12-18T05:34:05.264Z</time>
</trkpt>
<trkpt lat="-27.1361572" lon="152.8080200">
<ele>398.889</ele>
<time>2015-12-18T05:34:08.339Z</time>
</trkpt>
<trkpt lat="-27.1364637" lon="152.8080804">
<ele>399.198</ele>
<time>2015-12-18T05:34:10.247Z</time>
</trkpt>
<trkpt lat="-27.1369419" lon="152.8081066">
<ele>400.470</ele>
<time>2015-12-18T05:34:13.254Z</time>
</trkpt>
<trkpt lat="-27.1372568" lon="152.8080595">
<ele>402.381</ele>
<time>2015-12-18T05:34:15.290Z</time>
</trkpt>
<trkpt lat="-27.1375531" lon="152.8079820">
<ele>404.001</ele>
<time>2015-12-18T05:34:17.259Z</time>
</trkpt>
<trkpt lat="-27.1379897" lon="152.8078868">
<ele>404.682</ele>
<time>2015-12-18T05:34:20.173Z</time>
</trkpt>
<trkpt lat="-27.1384582" lon="152.8079273">
<ele>404.098</ele>
<time>2015-12-18T05:34:23.227Z</time>
</trkpt>
<trkpt lat="-27.1387452" lon="152.8080534">
<ele>402.638</ele>
<time>2015-12-18T05:34:25.202Z</time>
</trkpt>
<trkpt lat="-27.1391326" lon="152.8083071">
<ele>400.720</ele>
<time>2015-12-18T05:34:28.056Z</time>
</trkpt>
<trkpt lat="-27.1395940" lon="152.8085206">
<ele>398.335</ele>
<time>2015-12-18T05:34:31.155Z</time>
</trkpt>
<trkpt lat="-27.1400539" lon="152.8087166">
<ele>395.614</ele>
<time>2015-12-18T05:34:34.143Z</time>
</trkpt>
<trkpt lat="-27.1403276" lon="152.8088567">
<ele>392.864</ele>
<time>2015-12-18T05:34:36.008Z</time>
</trkpt>
<trkpt lat="-27.1405799" lon="152.8089565">
<ele>390.120</ele>
<time>2015-12-18T05:34:37.768Z</time>
</trkpt>
<trkpt lat="-27.1409458" lon="152.8089156">
<ele>387.126</ele>
<time>2015-12-18T05:34:40.450Z</time>
</trkpt>
<trkpt lat="-27.1412236" lon="152.8088034">
<ele>383.550</ele>
<time>2015-12-18T05:34:42.722Z</time>
</trkpt>
<trkpt lat="-27.1414858" lon="152.8087357">
<ele>379.933</ele>
<time>2015-12-18T05:34:44.767Z</time>
</trkpt>
<trkpt lat="-27.1418082" lon="152.8089504">
<ele>377.310</ele>
<time>2015-12-18T05:34:47.565Z</time>
</trkpt>
<trkpt lat="-27.1419331" lon="152.8091785">
<ele>375.967</ele>
<time>2015-12-18T05:34:49.400Z</time>
</trkpt>
<trkpt lat="-27.1420504" lon="152.8094057">
<ele>375.359</ele>
<time>2015-12-18T05:34:51.290Z</time>
</trkpt>
<trkpt lat="-27.1423589" lon="152.8095668">
<ele>374.988</ele>
<time>2015-12-18T05:34:54.080Z</time>
</trkpt>
<trkpt lat="-27.1426162" lon="152.8095998">
<ele>374.748</ele>
<time>2015-12-18T05:34:56.221Z</time>
</trkpt>
<trkpt lat="-27.1428201" lon="152.8097620">
<ele>374.653</ele>
<time>2015-12-18T05:34:58.229Z</time>
</trkpt>
<trkpt lat="-27.1430090" lon="152.8101746">
<ele>374.631</ele>
<time>2015-12-18T05:35:01.492Z</time>
</trkpt>
<trkpt lat="-27.1430902" lon="152.8104448">
<ele>374.467</ele>
<time>2015-12-18T05:35:03.487Z</time>
</trkpt>
<trkpt lat="-27.1432413" lon="152.8106129">
<ele>373.813</ele>
<time>2015-12-18T05:35:05.143Z</time>
</trkpt>
<trkpt lat="-27.1435080" lon="152.8106386">
<ele>372.556</ele>
<time>2015-12-18T05:35:07.345Z</time>
</trkpt>
<trkpt lat="-27.1438873" lon="152.8106093">
<ele>371.136</ele>
<time>2015-12-18T05:35:10.482Z</time>
</trkpt>
<trkpt lat="-27.1440832" lon="152.8108320">
<ele>369.695</ele>
<time>2015-12-18T05:35:12.720Z</time>
</trkpt>
<trkpt lat="-27.1442554" lon="152.8110813">
<ele>368.128</ele>
<time>2015-12-18T05:35:14.895Z</time>
</trkpt>
<trkpt lat="-27.1445933" lon="152.8113775">
<ele>366.904</ele>
<time>2015-12-18T05:35:17.956Z</time>
</trkpt>
<trkpt lat="-27.1450535" lon="152.8115295">
<ele>366.027</ele>
<time>2015-12-18T05:35:21.124Z</time>
</trkpt>
<trkpt lat="-27.1453861" lon="152.8115903">
<ele>364.877</ele>
<time>2015-12-18T05:35:23.229Z</time>
</trkpt>
<trkpt lat="-27.1457829" lon="152.8119331">
<ele>363.275</ele>
<time>2015-12-18T05:35:26.245Z</time>
</trkpt>
<trkpt lat="-27.1461941" lon="152.8123785">
<ele>361.280</ele>
<time>2015-12-18T05:35:29.549Z</time>
</trkpt>
<trkpt lat="-27.1466063" lon="152.8126855">
<ele>358.872</ele>
<time>2015-12-18T05:35:32.354Z</time>
</trkpt>
<trkpt lat="-27.1468777" lon="152.8128889">
<ele>355.979</ele>
<time>2015-12-18T05:35:34.243Z</time>
</trkpt>
<trkpt lat="-27.1472930" lon="152.8132157">
<ele>352.713</ele>
<time>2015-12-18T05:35:37.254Z</time>
</trkpt>
<trkpt lat="-27.1475888" lon="152.8136402">
<ele>349.827</ele>
<time>2015-12-18T05:35:40.176Z</time>
</trkpt>
<trkpt lat="-27.1476711" lon="152.8141305">
<ele>347.735</ele>
<time>2015-12-18T05:35:43.022Z</time>
</trkpt>
<trkpt lat="-27.1476464" lon="152.8144254">
<ele>345.549</ele>
<time>2015-12-18T05:35:44.783Z</time>
</trkpt>
<trkpt lat="-27.1476049" lon="152.8148670">
<ele>342.525</ele>
<time>2015-12-18T05:35:47.585Z</time>
</trkpt>
<trkpt lat="-27.1476587" lon="152.8151726">
<ele>339.472</ele>
<time>2015-12-18T05:35:49.621Z</time>
</trkpt>
<trkpt lat="-27.1477492" lon="152.8154353">
<ele>337.513</ele>
<time>2015-12-18T05:35:51.524Z</time>
</trkpt>
<trkpt lat="-27.1479578" lon="152.8156402">
<ele>336.723</ele>
<time>2015-12-18T05:35:53.645Z</time>
</trkpt>
<trkpt lat="-27.1482460" lon="152.8157369">
<ele>336.505</ele>
<time>2015-12-18T05:35:55.943Z</time>
</trkpt>
<trkpt lat="-27.1486407" lon="152.8158111">
<ele>336.240</ele>
<time>2015-12-18T05:35:58.901Z</time>
</trkpt>
<trkpt lat="-27.1488832" lon="152.8159514">
<ele>335.377</ele>
<time>2015-12-18T05:36:00.894Z</time>
</trkpt>
<trkpt lat="-27.1491264" lon="152.8163145">
<ele>333.764</ele>
<time>2015-12-18T05:36:03.910Z</time>
</trkpt>
<trkpt lat="-27.1492105" lon="152.8168071">
<ele>331.995</ele>
<time>2015-12-18T05:36:07.156Z</time>
</trkpt>
<trkpt lat="-27.1493182" lon="152.8172917">
<ele>330.412</ele>
<time>2015-12-18T05:36:10.242Z</time>
</trkpt>
<trkpt lat="-27.1494402" lon="152.8175601">
<ele>328.208</ele>
<time>2015-12-18T05:36:12.127Z</time>
</trkpt>
<trkpt lat="-27.1496447" lon="152.8177720">
<ele>325.173</ele>
<time>2015-12-18T05:36:14.113Z</time>
</trkpt>
<trkpt lat="-27.1500576" lon="152.8179526">
<ele>322.299</ele>
<time>2015-12-18T05:36:17.166Z</time>
</trkpt>
<trkpt lat="-27.1504828" lon="152.8181425">
<ele>320.171</ele>
<time>2015-12-18T05:36:20.165Z</time>
</trkpt>
<trkpt lat="-27.1507628" lon="152.8182926">
<ele>318.257</ele>
<time>2015-12-18T05:36:22.200Z</time>
</trkpt>
<trkpt lat="-27.1509956" lon="152.8185829">
<ele>315.803</ele>
<time>2015-12-18T05:36:24.725Z</time>
</trkpt>
<trkpt lat="-27.1508753" lon="152.8189921">
<ele>312.782</ele>
<time>2015-12-18T05:36:27.767Z</time>
</trkpt>
<trkpt lat="-27.1508082" lon="152.8192667">
<ele>310.127</ele>
<time>2015-12-18T05:36:29.791Z</time>
</trkpt>
<trkpt lat="-27.1508339" lon="152.8195599">
<ele>308.576</ele>
<time>2015-12-18T05:36:31.780Z</time>
</trkpt>
<trkpt lat="-27.1511345" lon="152.8199277">
<ele>307.928</ele>
<time>2015-12-18T05:36:35.006Z</time>
</trkpt>
<trkpt lat="-27.1515041" lon="152.8202705">
<ele>307.512</ele>
<time>2015-12-18T05:36:38.272Z</time>
</trkpt>
<trkpt lat="-27.1517449" lon="152.8206883">
<ele>306.264</ele>
<time>2015-12-18T05:36:41.190Z</time>
</trkpt>
<trkpt lat="-27.1517110" lon="152.8212812">
<ele>303.433</ele>
<time>2015-12-18T05:36:44.563Z</time>
</trkpt>
<trkpt lat="-27.1517403" lon="152.8218450">
<ele>300.047</ele>
<time>2015-12-18T05:36:47.535Z</time>
</trkpt>
<trkpt lat="-27.1517744" lon="152.8222235">
<ele>297.756</ele>
<time>2015-12-18T05:36:49.486Z</time>
</trkpt>
<trkpt lat="-27.1518460" lon="152.8227947">
<ele>296.589</ele>
<time>2015-12-18T05:36:52.460Z</time>
</trkpt>
<trkpt lat="-27.1518931" lon="152.8232802">
<ele>295.268</ele>
<time>2015-12-18T05:36:55.085Z</time>
</trkpt>
<trkpt lat="-27.1519697" lon="152.8236037">
<ele>292.667</ele>
<time>2015-12-18T05:36:56.978Z</time>
</trkpt>
<trkpt lat="-27.1522718" lon="152.8239117">
<ele>288.709</ele>
<time>2015-12-18T05:36:59.696Z</time>
</trkpt>
<trkpt lat="-27.1525523" lon="152.8241251">
<ele>284.458</ele>
<time>2015-12-18T05:37:01.918Z</time>
</trkpt>
<trkpt lat="-27.1529686" lon="152.8244612">
<ele>281.219</ele>
<time>2015-12-18T05:37:05.007Z</time>
</trkpt>
<trkpt lat="-27.1532993" lon="152.8248225">
<ele>279.283</ele>
<time>2015-12-18T05:37:07.793Z</time>
</trkpt>
<trkpt lat="-27.1535528" lon="152.8252303">
<ele>277.419</ele>
<time>2015-12-18T05:37:10.644Z</time>
</trkpt>
<trkpt lat="-27.1536872" lon="152.8254758">
<ele>274.458</ele>
<time>2015-12-18T05:37:12.383Z</time>
</trkpt>
<trkpt lat="-27.1538326" lon="152.8257922">
<ele>270.805</ele>
<time>2015-12-18T05:37:14.713Z</time>
</trkpt>
<trkpt lat="-27.1539949" lon="152.8259670">
<ele>267.276</ele>
<time>2015-12-18T05:37:16.487Z</time>
</trkpt>
<trkpt lat="-27.1543330" lon="152.8260475">
<ele>264.152</ele>
<time>2015-12-18T05:37:19.583Z</time>
</trkpt>
<trkpt lat="-27.1546455" lon="152.8257164">
<ele>261.824</ele>
<time>2015-12-18T05:37:23.745Z</time>
</trkpt>
<trkpt lat="-27.1548768" lon="152.8254579">
<ele>260.311</ele>
<time>2015-12-18T05:37:26.572Z</time>
</trkpt>
<trkpt lat="-27.1553257" lon="152.8253776">
<ele>259.158</ele>
<time>2015-12-18T05:37:29.912Z</time>
</trkpt>
<trkpt lat="-27.1555830" lon="152.8254075">
<ele>257.779</ele>
<time>2015-12-18T05:37:31.740Z</time>
</trkpt>
<trkpt lat="-27.1558456" lon="152.8253060">
<ele>255.385</ele>
<time>2015-12-18T05:37:33.856Z</time>
</trkpt>
<trkpt lat="-27.1560309" lon="152.8251554">
<ele>252.029</ele>
<time>2015-12-18T05:37:35.690Z</time>
</trkpt>
<trkpt lat="-27.1561443" lon="152.8248529">
<ele>248.824</ele>
<time>2015-12-18T05:37:38.179Z</time>
</trkpt>
<trkpt lat="-27.1562508" lon="152.8245600">
<ele>246.658</ele>
<time>2015-12-18T05:37:40.491Z</time>
</trkpt>
<trkpt lat="-27.1565713" lon="152.8243756">
<ele>244.946</ele>
<time>2015-12-18T05:37:43.443Z</time>
</trkpt>
<trkpt lat="-27.1568458" lon="152.8245232">
<ele>242.404</ele>
<time>2015-12-18T05:37:46.112Z</time>
</trkpt>
<trkpt lat="-27.1571199" lon="152.8246113">
<ele>239.356</ele>
<time>2015-12-18T05:37:48.554Z</time>
</trkpt>
<trkpt lat="-27.1574790" lon="152.8246961">
<ele>236.883</ele>
<time>2015-12-18T05:37:51.469Z</time>
</trkpt>
<trkpt lat="-27.1577322" lon="152.8248223">
<ele>235.030</ele>
<time>2015-12-18T05:37:53.599Z</time>
</trkpt>
<trkpt lat="-27.1580659" lon="152.8249668">
<ele>233.528</ele>
<time>2015-12-18T05:37:56.443Z</time>
</trkpt>
<trkpt lat="-27.1582809" lon="152.8249114">
<ele>232.142</ele>
<time>2015-12-18T05:37:58.423Z</time>
</trkpt>
<trkpt lat="-27.1585236" lon="152.8247892">
<ele>230.792</ele>
<time>2015-12-18T05:38:00.904Z</time>
</trkpt>
<trkpt lat="-27.1587562" lon="152.8248006">
<ele>229.687</ele>
<time>2015-12-18T05:38:03.023Z</time>
</trkpt>
<trkpt lat="-27.1589147" lon="152.8250082">
<ele>228.690</ele>
<time>2015-12-18T05:38:05.221Z</time>
</trkpt>
<trkpt lat="-27.1590411" lon="152.8252151">
<ele>227.622</ele>
<time>2015-12-18T05:38:07.283Z</time>
</trkpt>
<trkpt lat="-27.1593405" lon="152.8252948">
<ele>226.344</ele>
<time>2015-12-18T05:38:10.227Z</time>
</trkpt>
<trkpt lat="-27.1595431" lon="152.8252222">
<ele>224.745</ele>
<time>2015-12-18T05:38:12.180Z</time>
</trkpt>
<trkpt lat="-27.1597970" lon="152.8250202">
<ele>223.293</ele>
<time>2015-12-18T05:38:14.629Z</time>
</trkpt>
<trkpt lat="-27.1600226" lon="152.8247976">
<ele>222.531</ele>
<time>2015-12-18T05:38:16.772Z</time>
</trkpt>
<trkpt lat="-27.1603430" lon="152.8244955">
<ele>221.889</ele>
<time>2015-12-18T05:38:19.741Z</time>
</trkpt>
<trkpt lat="-27.1605762" lon="152.8243085">
<ele>220.229</ele>
<time>2015-12-18T05:38:21.817Z</time>
</trkpt>
<trkpt lat="-27.1608611" lon="152.8242684">
<ele>217.518</ele>
<time>2015-12-18T05:38:24.021Z</time>
</trkpt>
<trkpt lat="-27.1610568" lon="152.8241655">
<ele>214.788</ele>
<time>2015-12-18T05:38:25.786Z</time>
</trkpt>
<trkpt lat="-27.1612196" lon="152.8239387">
<ele>212.466</ele>
<time>2015-12-18T05:38:27.749Z</time>
</trkpt>
<trkpt lat="-27.1615475" lon="152.8235530">
<ele>210.482</ele>
<time>2015-12-18T05:38:31.054Z</time>
</trkpt>
<trkpt lat="-27.1617874" lon="152.8233486">
<ele>208.870</ele>
<time>2015-12-18T05:38:32.989Z</time>
</trkpt>
<trkpt lat="-27.1622138" lon="152.8230859">
<ele>207.561</ele>
<time>2015-12-18T05:38:36.132Z</time>
</trkpt>
<trkpt lat="-27.1626871" lon="152.8230306">
<ele>206.099</ele>
<time>2015-12-18T05:38:39.146Z</time>
</trkpt>
<trkpt lat="-27.1630605" lon="152.8231021">
<ele>203.833</ele>
<time>2015-12-18T05:38:41.380Z</time>
</trkpt>
<trkpt lat="-27.1635012" lon="152.8235008">
<ele>200.990</ele>
<time>2015-12-18T05:38:44.504Z</time>
</trkpt>
<trkpt lat="-27.1639329" lon="152.8238981">
<ele>198.652</ele>
<time>2015-12-18T05:38:47.637Z</time>
</trkpt>
<trkpt lat="-27.1641562" lon="152.8241870">
<ele>197.254</ele>
<time>2015-12-18T05:38:49.791Z</time>
</trkpt>
<trkpt lat="-27.1643036" lon="152.8244488">
<ele>196.125</ele>
<time>2015-12-18T05:38:51.679Z</time>
</trkpt>
<trkpt lat="-27.1643994" lon="152.8247063">
<ele>193.804</ele>
<time>2015-12-18T05:38:53.397Z</time>
</trkpt>
<trkpt lat="-27.1643475" lon="152.8252481">
<ele>190.134</ele>
<time>2015-12-18T05:38:56.641Z</time>
</trkpt>
<trkpt lat="-27.1641863" lon="152.8256813">
<ele>186.600</ele>
<time>2015-12-18T05:38:59.494Z</time>
</trkpt>
<trkpt lat="-27.1640613" lon="152.8260114">
<ele>183.803</ele>
<time>2015-12-18T05:39:01.889Z</time>
</trkpt>
<trkpt lat="-27.1638816" lon="152.8263775">
<ele>181.218</ele>
<time>2015-12-18T05:39:05.041Z</time>
</trkpt>
<trkpt lat="-27.1639239" lon="152.8267499">
<ele>177.828</ele>
<time>2015-12-18T05:39:07.794Z</time>
</trkpt>
<trkpt lat="-27.1641732" lon="152.8269125">
<ele>173.347</ele>
<time>2015-12-18T05:39:09.919Z</time>
</trkpt>
<trkpt lat="-27.1646989" lon="152.8270591">
<ele>169.524</ele>
<time>2015-12-18T05:39:13.259Z</time>
</trkpt>
<trkpt lat="-27.1650206" lon="152.8271449">
<ele>167.768</ele>
<time>2015-12-18T05:39:15.200Z</time>
</trkpt>
<trkpt lat="-27.1655664" lon="152.8270754">
<ele>167.404</ele>
<time>2015-12-18T05:39:18.252Z</time>
</trkpt>
<trkpt lat="-27.1661094" lon="152.8269302">
<ele>167.242</ele>
<time>2015-12-18T05:39:21.285Z</time>
</trkpt>
<trkpt lat="-27.1666450" lon="152.8267737">
<ele>166.509</ele>
<time>2015-12-18T05:39:24.290Z</time>
</trkpt>
<trkpt lat="-27.1671989" lon="152.8266647">
<ele>164.882</ele>
<time>2015-12-18T05:39:27.513Z</time>
</trkpt>
<trkpt lat="-27.1674618" lon="152.8266384">
<ele>162.323</ele>
<time>2015-12-18T05:39:29.051Z</time>
</trkpt>
<trkpt lat="-27.1679682" lon="152.8268081">
<ele>159.220</ele>
<time>2015-12-18T05:39:32.174Z</time>
</trkpt>
<trkpt lat="-27.1682172" lon="152.8269940">
<ele>155.876</ele>
<time>2015-12-18T05:39:33.994Z</time>
</trkpt>
<trkpt lat="-27.1686256" lon="152.8272379">
<ele>152.466</ele>
<time>2015-12-18T05:39:37.148Z</time>
</trkpt>
<trkpt lat="-27.1688777" lon="152.8272588">
<ele>149.537</ele>
<time>2015-12-18T05:39:38.955Z</time>
</trkpt>
<trkpt lat="-27.1692332" lon="152.8270295">
<ele>147.255</ele>
<time>2015-12-18T05:39:41.862Z</time>
</trkpt>
<trkpt lat="-27.1694461" lon="152.8266002">
<ele>144.790</ele>
<time>2015-12-18T05:39:44.827Z</time>
</trkpt>
<trkpt lat="-27.1694665" lon="152.8262404">
<ele>141.771</ele>
<time>2015-12-18T05:39:46.987Z</time>
</trkpt>
<trkpt lat="-27.1695650" lon="152.8259627">
<ele>138.889</ele>
<time>2015-12-18T05:39:48.739Z</time>
</trkpt>
<trkpt lat="-27.1697631" lon="152.8257412">
<ele>136.682</ele>
<time>2015-12-18T05:39:50.530Z</time>
</trkpt>
<trkpt lat="-27.1701659" lon="152.8254128">
<ele>135.102</ele>
<time>2015-12-18T05:39:53.696Z</time>
</trkpt>
<trkpt lat="-27.1704266" lon="152.8252355">
<ele>134.111</ele>
<time>2015-12-18T05:39:55.681Z</time>
</trkpt>
<trkpt lat="-27.1708603" lon="152.8250634">
<ele>133.387</ele>
<time>2015-12-18T05:39:58.698Z</time>
</trkpt>
<trkpt lat="-27.1712998" lon="152.8250899">
<ele>132.452</ele>
<time>2015-12-18T05:40:01.477Z</time>
</trkpt>
<trkpt lat="-27.1716366" lon="152.8251562">
<ele>131.182</ele>
<time>2015-12-18T05:40:03.584Z</time>
</trkpt>
<trkpt lat="-27.1719435" lon="152.8251753">
<ele>129.445</ele>
<time>2015-12-18T05:40:05.454Z</time>
</trkpt>
<trkpt lat="-27.1722503" lon="152.8251183">
<ele>127.367</ele>
<time>2015-12-18T05:40:07.320Z</time>
</trkpt>
<trkpt lat="-27.1727213" lon="152.8249614">
<ele>125.365</ele>
<time>2015-12-18T05:40:10.206Z</time>
</trkpt>
<trkpt lat="-27.1732571" lon="152.8249669">
<ele>123.367</ele>
<time>2015-12-18T05:40:13.233Z</time>
</trkpt>
<trkpt lat="-27.1738150" lon="152.8250142">
<ele>121.224</ele>
<time>2015-12-18T05:40:16.307Z</time>
</trkpt>
<trkpt lat="-27.1741783" lon="152.8250383">
<ele>118.965</ele>
<time>2015-12-18T05:40:18.360Z</time>
</trkpt>
<trkpt lat="-27.1746073" lon="152.8252610">
<ele>115.813</ele>
<time>2015-12-18T05:40:21.080Z</time>
</trkpt>
<trkpt lat="-27.1749778" lon="152.8257410">
<ele>111.095</ele>
<time>2015-12-18T05:40:24.324Z</time>
</trkpt>
<trkpt lat="-27.1753819" lon="152.8261311">
<ele>106.081</ele>
<time>2015-12-18T05:40:27.366Z</time>
</trkpt>
<trkpt lat="-27.1757024" lon="152.8262894">
<ele>102.110</ele>
<time>2015-12-18T05:40:29.264Z</time>
</trkpt>
<trkpt lat="-27.1762700" lon="152.8264525">
<ele>99.223</ele>
<time>2015-12-18T05:40:32.224Z</time>
</trkpt>
<trkpt lat="-27.1766488" lon="152.8265342">
<ele>97.465</ele>
<time>2015-12-18T05:40:34.142Z</time>
</trkpt>
<trkpt lat="-27.1770177" lon="152.8266047">
<ele>96.830</ele>
<time>2015-12-18T05:40:36.097Z</time>
</trkpt>
<trkpt lat="-27.1775530" lon="152.8267337">
<ele>96.389</ele>
<time>2015-12-18T05:40:39.058Z</time>
</trkpt>
<trkpt lat="-27.1780785" lon="152.8268864">
<ele>95.085</ele>
<time>2015-12-18T05:40:42.061Z</time>
</trkpt>
<trkpt lat="-27.1784313" lon="152.8269726">
<ele>93.031</ele>
<time>2015-12-18T05:40:44.065Z</time>
</trkpt>
<trkpt lat="-27.1787722" lon="152.8270438">
<ele>91.408</ele>
<time>2015-12-18T05:40:45.995Z</time>
</trkpt>
<trkpt lat="-27.1792920" lon="152.8271537">
<ele>90.765</ele>
<time>2015-12-18T05:40:48.935Z</time>
</trkpt>
<trkpt lat="-27.1796274" lon="152.8272388">
<ele>90.744</ele>
<time>2015-12-18T05:40:50.836Z</time>
</trkpt>
<trkpt lat="-27.1799831" lon="152.8273331">
<ele>90.472</ele>
<time>2015-12-18T05:40:52.862Z</time>
</trkpt>
<trkpt lat="-27.1804973" lon="152.8274662">
<ele>89.120</ele>
<time>2015-12-18T05:40:55.822Z</time>
</trkpt>
<trkpt lat="-27.1808293" lon="152.8275409">
<ele>86.876</ele>
<time>2015-12-18T05:40:57.756Z</time>
</trkpt>
<trkpt lat="-27.1813652" lon="152.8275703">
<ele>84.682</ele>
<time>2015-12-18T05:41:00.805Z</time>
</trkpt>
<trkpt lat="-27.1817250" lon="152.8275792">
<ele>82.738</ele>
<time>2015-12-18T05:41:02.825Z</time>
</trkpt>
<trkpt lat="-27.1822284" lon="152.8276813">
<ele>80.446</ele>
<time>2015-12-18T05:41:05.713Z</time>
</trkpt>
<trkpt lat="-27.1825710" lon="152.8277633">
<ele>77.829</ele>
<time>2015-12-18T05:41:07.710Z</time>
</trkpt>
<trkpt lat="-27.1830716" lon="152.8278949">
<ele>75.485</ele>
<time>2015-12-18T05:41:10.657Z</time>
</trkpt>
<trkpt lat="-27.1835580" lon="152.8280406">
<ele>73.229</ele>
<time>2015-12-18T05:41:13.593Z</time>
</trkpt>
<trkpt lat="-27.1838557" lon="152.8281765">
<ele>70.699</ele>
<time>2015-12-18T05:41:15.542Z</time>
</trkpt>
<trkpt lat="-27.1841206" lon="152.8283765">
<ele>68.075</ele>
<time>2015-12-18T05:41:17.515Z</time>
</trkpt>
<trkpt lat="-27.1843845" lon="152.8285909">
<ele>65.548</ele>
<time>2015-12-18T05:41:19.615Z</time>
</trkpt>
<trkpt lat="-27.1847549" lon="152.8288623">
<ele>63.237</ele>
<time>2015-12-18T05:41:22.661Z</time>
</trkpt>
<trkpt lat="-27.1850121" lon="152.8289653">
<ele>60.516</ele>
<time>2015-12-18T05:41:24.633Z</time>
</trkpt>
<trkpt lat="-27.1854343" lon="152.8289136">
<ele>56.864</ele>
<time>2015-12-18T05:41:27.524Z</time>
</trkpt>
<trkpt lat="-27.1858631" lon="152.8286764">
<ele>53.359</ele>
<time>2015-12-18T05:41:30.492Z</time>
</trkpt>
<trkpt lat="-27.1861509" lon="152.8284760">
<ele>50.985</ele>
<time>2015-12-18T05:41:32.480Z</time>
</trkpt>
<trkpt lat="-27.1865921" lon="152.8281694">
<ele>49.521</ele>
<time>2015-12-18T05:41:35.503Z</time>
</trkpt>
<trkpt lat="-27.1868864" lon="152.8279665">
<ele>48.694</ele>
<time>2015-12-18T05:41:37.580Z</time>
</trkpt>
<trkpt lat="-27.1872803" lon="152.8276580">
<ele>48.275</ele>
<time>2015-12-18T05:41:40.589Z</time>
</trkpt>
<trkpt lat="-27.1876200" lon="152.8273533">
<ele>47.916</ele>
<time>2015-12-18T05:41:43.443Z</time>
</trkpt>
<trkpt lat="-27.1879353" lon="152.8270016">
<ele>47.414</ele>
<time>2015-12-18T05:41:46.498Z</time>
</trkpt>
<trkpt lat="-27.1882313" lon="152.8266859">
<ele>46.920</ele>
<time>2015-12-18T05:41:49.417Z</time>
</trkpt>
<trkpt lat="-27.1885954" lon="152.8264620">
<ele>46.954</ele>
<time>2015-12-18T05:41:52.397Z</time>
</trkpt>
<trkpt lat="-27.1890128" lon="152.8263550">
<ele>47.709</ele>
<time>2015-12-18T05:41:55.451Z</time>
</trkpt>
<trkpt lat="-27.1892870" lon="152.8263511">
<ele>48.657</ele>
<time>2015-12-18T05:41:57.471Z</time>
</trkpt>
<trkpt lat="-27.1896656" lon="152.8264063">
<ele>49.156</ele>
<time>2015-12-18T05:42:00.294Z</time>
</trkpt>
<trkpt lat="-27.1900796" lon="152.8264317">
<ele>49.161</ele>
<time>2015-12-18T05:42:03.242Z</time>
</trkpt>
<trkpt lat="-27.1905271" lon="152.8264827">
<ele>48.969</ele>
<time>2015-12-18T05:42:06.356Z</time>
</trkpt>
<trkpt lat="-27.1909137" lon="152.8265167">
<ele>48.822</ele>
<time>2015-12-18T05:42:09.181Z</time>
</trkpt>
<trkpt lat="-27.1911588" lon="152.8265375">
<ele>48.526</ele>
<time>2015-12-18T05:42:11.056Z</time>
</trkpt>
<trkpt lat="-27.1914344" lon="152.8265597">
<ele>47.867</ele>
<time>2015-12-18T05:42:13.086Z</time>
</trkpt>
<trkpt lat="-27.1918266" lon="152.8265983">
<ele>47.155</ele>
<time>2015-12-18T05:42:15.869Z</time>
</trkpt>
<trkpt lat="-27.1921228" lon="152.8266076">
<ele>46.808</ele>
<time>2015-12-18T05:42:17.927Z</time>
</trkpt>
<trkpt lat="-27.1925318" lon="152.8266532">
<ele>46.813</ele>
<time>2015-12-18T05:42:20.822Z</time>
</trkpt>
<trkpt lat="-27.1929783" lon="152.8266422">
<ele>46.780</ele>
<time>2015-12-18T05:42:23.960Z</time>
</trkpt>
<trkpt lat="-27.1933873" lon="152.8265479">
<ele>46.439</ele>
<time>2015-12-18T05:42:26.901Z</time>
</trkpt>
<trkpt lat="-27.1936555" lon="152.8264795">
<ele>45.882</ele>
<time>2015-12-18T05:42:28.895Z</time>
</trkpt>
<trkpt lat="-27.1940543" lon="152.8263640">
<ele>45.058</ele>
<time>2015-12-18T05:42:31.984Z</time>
</trkpt>
<trkpt lat="-27.1942983" lon="152.8262931">
<ele>43.832</ele>
<time>2015-12-18T05:42:34.000Z</time>
</trkpt>
<trkpt lat="-27.1945217" lon="152.8262315">
<ele>42.571</ele>
<time>2015-12-18T05:42:35.981Z</time>
</trkpt>
<trkpt lat="-27.1947215" lon="152.8261700">
<ele>41.780</ele>
<time>2015-12-18T05:42:38.006Z</time>
</trkpt>
<trkpt lat="-27.1949383" lon="152.8261046">
<ele>41.501</ele>
<time>2015-12-18T05:42:40.580Z</time>
</trkpt>
<trkpt lat="-27.1950315" lon="152.8260881">
<ele>41.393</ele>
<time>2015-12-18T05:42:42.000Z</time>
</trkpt>
<trkpt lat="-27.1950315" lon="152.8260881">
<ele>41.245</ele>
<time>2015-12-18T05:42:47.000Z</time>
</trkpt>
<trkpt lat="-27.1950315" lon="152.8260881">
<ele>41.124</ele>
<time>2015-12-18T05:53:29.296Z</time>
</trkpt>
<trkpt lat="-27.1952579" lon="152.8259951">
<ele>41.109</ele>
<time>2015-12-18T05:53:35.620Z</time>
</trkpt>
<trkpt lat="-27.1955239" lon="152.8259578">
<ele>41.056</ele>
<time>2015-12-18T05:53:39.648Z</time>
</trkpt>
<trkpt lat="-27.1956204" lon="152.8259223">
<ele>40.753</ele>
<time>2015-12-18T05:53:42.434Z</time>
</trkpt>
<trkpt lat="-27.1957357" lon="152.8259216">
<ele>40.098</ele>
<time>2015-12-18T05:53:46.000Z</time>
</trkpt>
<trkpt lat="-27.1957357" lon="152.8259216">
<ele>39.269</ele>
<time>2015-12-18T05:53:50.000Z</time>
</trkpt>
<trkpt lat="-27.1957357" lon="152.8259216">
<ele>38.745</ele>
<time>2015-12-18T05:53:57.491Z</time>
</trkpt>
<trkpt lat="-27.1958941" lon="152.8257878">
<ele>38.870</ele>
<time>2015-12-18T05:54:02.256Z</time>
</trkpt>
<trkpt lat="-27.1959323" lon="152.8254658">
<ele>39.415</ele>
<time>2015-12-18T05:54:05.506Z</time>
</trkpt>
<trkpt lat="-27.1959600" lon="152.8251163">
<ele>39.997</ele>
<time>2015-12-18T05:54:08.638Z</time>
</trkpt>
<trkpt lat="-27.1959752" lon="152.8249079">
<ele>40.457</ele>
<time>2015-12-18T05:54:10.680Z</time>
</trkpt>
<trkpt lat="-27.1960013" lon="152.8247264">
<ele>40.664</ele>
<time>2015-12-18T05:54:12.753Z</time>
</trkpt>
<trkpt lat="-27.1961330" lon="152.8245244">
<ele>40.445</ele>
<time>2015-12-18T05:54:15.675Z</time>
</trkpt>
<trkpt lat="-27.1962198" lon="152.8243659">
<ele>39.904</ele>
<time>2015-12-18T05:54:17.527Z</time>
</trkpt>
<trkpt lat="-27.1963954" lon="152.8240908">
<ele>39.383</ele>
<time>2015-12-18T05:54:20.539Z</time>
</trkpt>
<trkpt lat="-27.1965781" lon="152.8237736">
<ele>39.240</ele>
<time>2015-12-18T05:54:23.642Z</time>
</trkpt>
<trkpt lat="-27.1967508" lon="152.8234741">
<ele>39.529</ele>
<time>2015-12-18T05:54:26.611Z</time>
</trkpt>
<trkpt lat="-27.1968758" lon="152.8232868">
<ele>39.934</ele>
<time>2015-12-18T05:54:28.700Z</time>
</trkpt>
<trkpt lat="-27.1969836" lon="152.8231133">
<ele>40.182</ele>
<time>2015-12-18T05:54:30.970Z</time>
</trkpt>
<trkpt lat="-27.1970908" lon="152.8229071">
<ele>40.320</ele>
<time>2015-12-18T05:54:34.133Z</time>
</trkpt>
<trkpt lat="-27.1971775" lon="152.8227521">
<ele>40.525</ele>
<time>2015-12-18T05:54:37.392Z</time>
</trkpt>
<trkpt lat="-27.1972950" lon="152.8227770">
<ele>40.860</ele>
<time>2015-12-18T05:54:39.821Z</time>
</trkpt>
<trkpt lat="-27.1975033" lon="152.8229504">
<ele>41.577</ele>
<time>2015-12-18T05:54:43.062Z</time>
</trkpt>
<trkpt lat="-27.1978401" lon="152.8231378">
<ele>43.024</ele>
<time>2015-12-18T05:54:46.347Z</time>
</trkpt>
<trkpt lat="-27.1980742" lon="152.8231759">
<ele>44.916</ele>
<time>2015-12-18T05:54:48.184Z</time>
</trkpt>
<trkpt lat="-27.1983338" lon="152.8232175">
<ele>46.456</ele>
<time>2015-12-18T05:54:50.238Z</time>
</trkpt>
<trkpt lat="-27.1985851" lon="152.8232688">
<ele>46.995</ele>
<time>2015-12-18T05:54:52.258Z</time>
</trkpt>
<trkpt lat="-27.1989466" lon="152.8233481">
<ele>46.163</ele>
<time>2015-12-18T05:54:55.096Z</time>
</trkpt>
<trkpt lat="-27.1992084" lon="152.8234004">
<ele>44.258</ele>
<time>2015-12-18T05:54:57.118Z</time>
</trkpt>
<trkpt lat="-27.1995883" lon="152.8234959">
<ele>42.252</ele>
<time>2015-12-18T05:55:00.103Z</time>
</trkpt>
<trkpt lat="-27.1998476" lon="152.8235553">
<ele>40.974</ele>
<time>2015-12-18T05:55:02.153Z</time>
</trkpt>
<trkpt lat="-27.2001005" lon="152.8236213">
<ele>40.384</ele>
<time>2015-12-18T05:55:04.228Z</time>
</trkpt>
<trkpt lat="-27.2004323" lon="152.8238331">
<ele>39.969</ele>
<time>2015-12-18T05:55:07.269Z</time>
</trkpt>
<trkpt lat="-27.2005814" lon="152.8240571">
<ele>39.553</ele>
<time>2015-12-18T05:55:09.212Z</time>
</trkpt>
<trkpt lat="-27.2007968" lon="152.8243435">
<ele>39.190</ele>
<time>2015-12-18T05:55:11.771Z</time>
</trkpt>
<trkpt lat="-27.2011320" lon="152.8246423">
<ele>38.786</ele>
<time>2015-12-18T05:55:14.921Z</time>
</trkpt>
<trkpt lat="-27.2013714" lon="152.8248679">
<ele>38.245</ele>
<time>2015-12-18T05:55:17.097Z</time>
</trkpt>
<trkpt lat="-27.2015961" lon="152.8250792">
<ele>37.673</ele>
<time>2015-12-18T05:55:19.007Z</time>
</trkpt>
<trkpt lat="-27.2019919" lon="152.8254481">
<ele>37.350</ele>
<time>2015-12-18T05:55:21.983Z</time>
</trkpt>
<trkpt lat="-27.2024105" lon="152.8258679">
<ele>37.643</ele>
<time>2015-12-18T05:55:24.935Z</time>
</trkpt>
<trkpt lat="-27.2027145" lon="152.8261567">
<ele>38.712</ele>
<time>2015-12-18T05:55:26.939Z</time>
</trkpt>
<trkpt lat="-27.2030176" lon="152.8264443">
<ele>40.106</ele>
<time>2015-12-18T05:55:28.925Z</time>
</trkpt>
<trkpt lat="-27.2034827" lon="152.8268786">
<ele>40.915</ele>
<time>2015-12-18T05:55:31.956Z</time>
</trkpt>
<trkpt lat="-27.2039189" lon="152.8272846">
<ele>40.729</ele>
<time>2015-12-18T05:55:34.791Z</time>
</trkpt>
<trkpt lat="-27.2042417" lon="152.8275616">
<ele>40.023</ele>
<time>2015-12-18T05:55:36.790Z</time>
</trkpt>
<trkpt lat="-27.2047498" lon="152.8279972">
<ele>39.452</ele>
<time>2015-12-18T05:55:39.937Z</time>
</trkpt>
<trkpt lat="-27.2052352" lon="152.8283920">
<ele>39.050</ele>
<time>2015-12-18T05:55:42.930Z</time>
</trkpt>
<trkpt lat="-27.2055785" lon="152.8286274">
<ele>38.561</ele>
<time>2015-12-18T05:55:44.960Z</time>
</trkpt>
<trkpt lat="-27.2061127" lon="152.8289063">
<ele>38.041</ele>
<time>2015-12-18T05:55:47.946Z</time>
</trkpt>
<trkpt lat="-27.2066354" lon="152.8292215">
<ele>37.675</ele>
<time>2015-12-18T05:55:50.973Z</time>
</trkpt>
<trkpt lat="-27.2069608" lon="152.8294772">
<ele>37.496</ele>
<time>2015-12-18T05:55:53.001Z</time>
</trkpt>
<trkpt lat="-27.2074369" lon="152.8298397">
<ele>37.323</ele>
<time>2015-12-18T05:55:55.971Z</time>
</trkpt>
<trkpt lat="-27.2077490" lon="152.8300427">
<ele>36.865</ele>
<time>2015-12-18T05:55:57.928Z</time>
</trkpt>
<trkpt lat="-27.2080444" lon="152.8302467">
<ele>36.144</ele>
<time>2015-12-18T05:55:59.841Z</time>
</trkpt>
<trkpt lat="-27.2083390" lon="152.8304620">
<ele>35.509</ele>
<time>2015-12-18T05:56:01.707Z</time>
</trkpt>
<trkpt lat="-27.2088729" lon="152.8307084">
<ele>35.391</ele>
<time>2015-12-18T05:56:04.679Z</time>
</trkpt>
<trkpt lat="-27.2094262" lon="152.8309904">
<ele>36.442</ele>
<time>2015-12-18T05:56:07.738Z</time>
</trkpt>
<trkpt lat="-27.2099633" lon="152.8312610">
<ele>38.542</ele>
<time>2015-12-18T05:56:10.721Z</time>
</trkpt>
<trkpt lat="-27.2103251" lon="152.8314220">
<ele>40.381</ele>
<time>2015-12-18T05:56:12.704Z</time>
</trkpt>
<trkpt lat="-27.2107003" lon="152.8316003">
<ele>41.065</ele>
<time>2015-12-18T05:56:14.795Z</time>
</trkpt>
<trkpt lat="-27.2112329" lon="152.8318352">
<ele>40.718</ele>
<time>2015-12-18T05:56:17.765Z</time>
</trkpt>
<trkpt lat="-27.2115908" lon="152.8319800">
<ele>39.648</ele>
<time>2015-12-18T05:56:19.768Z</time>
</trkpt>
<trkpt lat="-27.2119556" lon="152.8321240">
<ele>37.834</ele>
<time>2015-12-18T05:56:21.819Z</time>
</trkpt>
<trkpt lat="-27.2123075" lon="152.8322634">
<ele>35.497</ele>
<time>2015-12-18T05:56:23.815Z</time>
</trkpt>
<trkpt lat="-27.2128435" lon="152.8324615">
<ele>33.563</ele>
<time>2015-12-18T05:56:26.825Z</time>
</trkpt>
<trkpt lat="-27.2133832" lon="152.8326681">
<ele>32.579</ele>
<time>2015-12-18T05:56:29.841Z</time>
</trkpt>
<trkpt lat="-27.2137480" lon="152.8328251">
<ele>32.191</ele>
<time>2015-12-18T05:56:31.865Z</time>
</trkpt>
<trkpt lat="-27.2141157" lon="152.8329667">
<ele>32.048</ele>
<time>2015-12-18T05:56:33.842Z</time>
</trkpt>
<trkpt lat="-27.2144928" lon="152.8330876">
<ele>32.318</ele>
<time>2015-12-18T05:56:35.837Z</time>
</trkpt>
<trkpt lat="-27.2150599" lon="152.8332131">
<ele>33.169</ele>
<time>2015-12-18T05:56:38.779Z</time>
</trkpt>
<trkpt lat="-27.2154483" lon="152.8332881">
<ele>34.326</ele>
<time>2015-12-18T05:56:40.781Z</time>
</trkpt>
<trkpt lat="-27.2160262" lon="152.8333348">
<ele>35.404</ele>
<time>2015-12-18T05:56:43.654Z</time>
</trkpt>
<trkpt lat="-27.2166515" lon="152.8333207">
<ele>36.128</ele>
<time>2015-12-18T05:56:46.532Z</time>
</trkpt>
<trkpt lat="-27.2173667" lon="152.8332070">
<ele>36.792</ele>
<time>2015-12-18T05:56:49.551Z</time>
</trkpt>
<trkpt lat="-27.2178762" lon="152.8330732">
<ele>38.458</ele>
<time>2015-12-18T05:56:51.673Z</time>
</trkpt>
<trkpt lat="-27.2185500" lon="152.8328168">
<ele>41.067</ele>
<time>2015-12-18T05:56:54.641Z</time>
</trkpt>
<trkpt lat="-27.2192163" lon="152.8325503">
<ele>43.543</ele>
<time>2015-12-18T05:56:57.610Z</time>
</trkpt>
<trkpt lat="-27.2196767" lon="152.8323396">
<ele>45.371</ele>
<time>2015-12-18T05:56:59.626Z</time>
</trkpt>
<trkpt lat="-27.2201306" lon="152.8321128">
<ele>46.595</ele>
<time>2015-12-18T05:57:01.617Z</time>
</trkpt>
<trkpt lat="-27.2208325" lon="152.8318054">
<ele>47.300</ele>
<time>2015-12-18T05:57:04.621Z</time>
</trkpt>
<trkpt lat="-27.2215457" lon="152.8314604">
<ele>47.642</ele>
<time>2015-12-18T05:57:07.705Z</time>
</trkpt>
<trkpt lat="-27.2220013" lon="152.8312190">
<ele>47.837</ele>
<time>2015-12-18T05:57:09.716Z</time>
</trkpt>
<trkpt lat="-27.2226728" lon="152.8308647">
<ele>48.203</ele>
<time>2015-12-18T05:57:12.696Z</time>
</trkpt>
<trkpt lat="-27.2231216" lon="152.8306375">
<ele>48.733</ele>
<time>2015-12-18T05:57:14.696Z</time>
</trkpt>
<trkpt lat="-27.2237967" lon="152.8303417">
<ele>49.392</ele>
<time>2015-12-18T05:57:17.650Z</time>
</trkpt>
<trkpt lat="-27.2242679" lon="152.8301448">
<ele>50.541</ele>
<time>2015-12-18T05:57:19.694Z</time>
</trkpt>
<trkpt lat="-27.2249845" lon="152.8299127">
<ele>52.609</ele>
<time>2015-12-18T05:57:22.712Z</time>
</trkpt>
<trkpt lat="-27.2254742" lon="152.8298118">
<ele>55.416</ele>
<time>2015-12-18T05:57:24.722Z</time>
</trkpt>
<trkpt lat="-27.2262073" lon="152.8297190">
<ele>58.396</ele>
<time>2015-12-18T05:57:27.714Z</time>
</trkpt>
<trkpt lat="-27.2269144" lon="152.8297503">
<ele>61.227</ele>
<time>2015-12-18T05:57:30.586Z</time>
</trkpt>
<trkpt lat="-27.2276645" lon="152.8297863">
<ele>63.533</ele>
<time>2015-12-18T05:57:33.610Z</time>
</trkpt>
<trkpt lat="-27.2281705" lon="152.8298249">
<ele>65.160</ele>
<time>2015-12-18T05:57:35.650Z</time>
</trkpt>
<trkpt lat="-27.2289020" lon="152.8298685">
<ele>66.382</ele>
<time>2015-12-18T05:57:38.625Z</time>
</trkpt>
<trkpt lat="-27.2296371" lon="152.8298920">
<ele>67.251</ele>
<time>2015-12-18T05:57:41.663Z</time>
</trkpt>
<trkpt lat="-27.2303454" lon="152.8299256">
<ele>67.860</ele>
<time>2015-12-18T05:57:44.650Z</time>
</trkpt>
<trkpt lat="-27.2310468" lon="152.8299786">
<ele>68.763</ele>
<time>2015-12-18T05:57:47.673Z</time>
</trkpt>
<trkpt lat="-27.2314827" lon="152.8300398">
<ele>70.185</ele>
<time>2015-12-18T05:57:49.572Z</time>
</trkpt>
<trkpt lat="-27.2321774" lon="152.8301439">
<ele>72.038</ele>
<time>2015-12-18T05:57:52.573Z</time>
</trkpt>
<trkpt lat="-27.2326266" lon="152.8302438">
<ele>74.418</ele>
<time>2015-12-18T05:57:54.481Z</time>
</trkpt>
<trkpt lat="-27.2333614" lon="152.8304572">
<ele>76.959</ele>
<time>2015-12-18T05:57:57.589Z</time>
</trkpt>
<trkpt lat="-27.2338291" lon="152.8306095">
<ele>78.987</ele>
<time>2015-12-18T05:57:59.553Z</time>
</trkpt>
<trkpt lat="-27.2343019" lon="152.8307941">
<ele>80.355</ele>
<time>2015-12-18T05:58:01.562Z</time>
</trkpt>
<trkpt lat="-27.2349891" lon="152.8311342">
<ele>81.247</ele>
<time>2015-12-18T05:58:04.561Z</time>
</trkpt>
<trkpt lat="-27.2354458" lon="152.8313647">
<ele>81.800</ele>
<time>2015-12-18T05:58:06.555Z</time>
</trkpt>
<trkpt lat="-27.2361367" lon="152.8317324">
<ele>82.051</ele>
<time>2015-12-18T05:58:09.617Z</time>
</trkpt>
<trkpt lat="-27.2368009" lon="152.8320421">
<ele>81.564</ele>
<time>2015-12-18T05:58:12.508Z</time>
</trkpt>
<trkpt lat="-27.2375457" lon="152.8322910">
<ele>79.643</ele>
<time>2015-12-18T05:58:15.602Z</time>
</trkpt>
<trkpt lat="-27.2380400" lon="152.8324014">
<ele>76.628</ele>
<time>2015-12-18T05:58:17.614Z</time>
</trkpt>
<trkpt lat="-27.2385321" lon="152.8324688">
<ele>73.798</ele>
<time>2015-12-18T05:58:19.597Z</time>
</trkpt>
<trkpt lat="-27.2393011" lon="152.8325231">
<ele>71.718</ele>
<time>2015-12-18T05:58:22.656Z</time>
</trkpt>
<trkpt lat="-27.2398134" lon="152.8325345">
<ele>70.239</ele>
<time>2015-12-18T05:58:24.708Z</time>
</trkpt>
<trkpt lat="-27.2403061" lon="152.8325484">
<ele>69.326</ele>
<time>2015-12-18T05:58:26.713Z</time>
</trkpt>
<trkpt lat="-27.2409847" lon="152.8327464">
<ele>68.925</ele>
<time>2015-12-18T05:58:29.554Z</time>
</trkpt>
<trkpt lat="-27.2414892" lon="152.8328611">
<ele>68.760</ele>
<time>2015-12-18T05:58:31.602Z</time>
</trkpt>
<trkpt lat="-27.2419661" lon="152.8330487">
<ele>68.368</ele>
<time>2015-12-18T05:58:33.615Z</time>
</trkpt>
<trkpt lat="-27.2426658" lon="152.8333371">
<ele>67.552</ele>
<time>2015-12-18T05:58:36.595Z</time>
</trkpt>
<trkpt lat="-27.2433946" lon="152.8335493">
<ele>66.336</ele>
<time>2015-12-18T05:58:39.626Z</time>
</trkpt>
<trkpt lat="-27.2438624" lon="152.8336373">
<ele>64.755</ele>
<time>2015-12-18T05:58:41.569Z</time>
</trkpt>
<trkpt lat="-27.2443373" lon="152.8337217">
<ele>63.207</ele>
<time>2015-12-18T05:58:43.557Z</time>
</trkpt>
<trkpt lat="-27.2450488" lon="152.8339065">
<ele>62.203</ele>
<time>2015-12-18T05:58:46.593Z</time>
</trkpt>
<trkpt lat="-27.2455187" lon="152.8340927">
<ele>61.783</ele>
<time>2015-12-18T05:58:48.669Z</time>
</trkpt>
<trkpt lat="-27.2459610" lon="152.8343370">
<ele>61.924</ele>
<time>2015-12-18T05:58:50.723Z</time>
</trkpt>
<trkpt lat="-27.2465590" lon="152.8347633">
<ele>62.568</ele>
<time>2015-12-18T05:58:53.649Z</time>
</trkpt>
<trkpt lat="-27.2469306" lon="152.8352215">
<ele>63.066</ele>
<time>2015-12-18T05:58:55.870Z</time>
</trkpt>
<trkpt lat="-27.2472985" lon="152.8356204">
<ele>62.534</ele>
<time>2015-12-18T05:58:57.954Z</time>
</trkpt>
<trkpt lat="-27.2476006" lon="152.8359593">
<ele>60.348</ele>
<time>2015-12-18T05:58:59.746Z</time>
</trkpt>
<trkpt lat="-27.2479205" lon="152.8363461">
<ele>56.444</ele>
<time>2015-12-18T05:59:01.737Z</time>
</trkpt>
<trkpt lat="-27.2482435" lon="152.8367132">
<ele>52.132</ele>
<time>2015-12-18T05:59:03.700Z</time>
</trkpt>
<trkpt lat="-27.2487299" lon="152.8372786">
<ele>48.726</ele>
<time>2015-12-18T05:59:06.707Z</time>
</trkpt>
<trkpt lat="-27.2490318" lon="152.8376901">
<ele>45.973</ele>
<time>2015-12-18T05:59:08.742Z</time>
</trkpt>
<trkpt lat="-27.2494131" lon="152.8383517">
<ele>43.621</ele>
<time>2015-12-18T05:59:11.744Z</time>
</trkpt>
<trkpt lat="-27.2496319" lon="152.8388058">
<ele>42.759</ele>
<time>2015-12-18T05:59:13.706Z</time>
</trkpt>
<trkpt lat="-27.2498149" lon="152.8392832">
<ele>44.128</ele>
<time>2015-12-18T05:59:15.647Z</time>
</trkpt>
<trkpt lat="-27.2499792" lon="152.8397836">
<ele>47.592</ele>
<time>2015-12-18T05:59:17.591Z</time>
</trkpt>
<trkpt lat="-27.2501599" lon="152.8406051">
<ele>52.054</ele>
<time>2015-12-18T05:59:20.646Z</time>
</trkpt>
<trkpt lat="-27.2502878" lon="152.8411277">
<ele>55.582</ele>
<time>2015-12-18T05:59:22.589Z</time>
</trkpt>
<trkpt lat="-27.2503825" lon="152.8416689">
<ele>56.883</ele>
<time>2015-12-18T05:59:24.561Z</time>
</trkpt>
<trkpt lat="-27.2504924" lon="152.8421972">
<ele>56.055</ele>
<time>2015-12-18T05:59:26.511Z</time>
</trkpt>
<trkpt lat="-27.2506328" lon="152.8427217">
<ele>53.626</ele>
<time>2015-12-18T05:59:28.478Z</time>
</trkpt>
<trkpt lat="-27.2508198" lon="152.8432178">
<ele>50.565</ele>
<time>2015-12-18T05:59:30.406Z</time>
</trkpt>
<trkpt lat="-27.2511697" lon="152.8439540">
<ele>48.060</ele>
<time>2015-12-18T05:59:33.395Z</time>
</trkpt>
<trkpt lat="-27.2515694" lon="152.8446512">
<ele>46.165</ele>
<time>2015-12-18T05:59:36.376Z</time>
</trkpt>
<trkpt lat="-27.2518710" lon="152.8450701">
<ele>44.093</ele>
<time>2015-12-18T05:59:38.311Z</time>
</trkpt>
<trkpt lat="-27.2521832" lon="152.8455040">
<ele>42.029</ele>
<time>2015-12-18T05:59:40.315Z</time>
</trkpt>
<trkpt lat="-27.2525027" lon="152.8459430">
<ele>40.783</ele>
<time>2015-12-18T05:59:42.349Z</time>
</trkpt>
<trkpt lat="-27.2529680" lon="152.8466015">
<ele>40.411</ele>
<time>2015-12-18T05:59:45.345Z</time>
</trkpt>
<trkpt lat="-27.2532814" lon="152.8470285">
<ele>40.483</ele>
<time>2015-12-18T05:59:47.311Z</time>
</trkpt>
<trkpt lat="-27.2537494" lon="152.8476911">
<ele>40.605</ele>
<time>2015-12-18T05:59:50.321Z</time>
</trkpt>
<trkpt lat="-27.2540625" lon="152.8481237">
<ele>40.250</ele>
<time>2015-12-18T05:59:52.329Z</time>
</trkpt>
<trkpt lat="-27.2543902" lon="152.8485348">
<ele>39.209</ele>
<time>2015-12-18T05:59:54.320Z</time>
</trkpt>
<trkpt lat="-27.2548868" lon="152.8491505">
<ele>38.137</ele>
<time>2015-12-18T05:59:57.286Z</time>
</trkpt>
<trkpt lat="-27.2552369" lon="152.8495631">
<ele>38.166</ele>
<time>2015-12-18T05:59:59.267Z</time>
</trkpt>
<trkpt lat="-27.2556640" lon="152.8499204">
<ele>39.632</ele>
<time>2015-12-18T06:00:01.332Z</time>
</trkpt>
<trkpt lat="-27.2560641" lon="152.8502473">
<ele>41.672</ele>
<time>2015-12-18T06:00:03.285Z</time>
</trkpt>
<trkpt lat="-27.2567151" lon="152.8506490">
<ele>43.390</ele>
<time>2015-12-18T06:00:06.260Z</time>
</trkpt>
<trkpt lat="-27.2573991" lon="152.8510362">
<ele>44.582</ele>
<time>2015-12-18T06:00:09.349Z</time>
</trkpt>
<trkpt lat="-27.2580893" lon="152.8513143">
<ele>45.104</ele>
<time>2015-12-18T06:00:12.315Z</time>
</trkpt>
<trkpt lat="-27.2585505" lon="152.8514677">
<ele>44.809</ele>
<time>2015-12-18T06:00:14.274Z</time>
</trkpt>
<trkpt lat="-27.2590333" lon="152.8515936">
<ele>43.777</ele>
<time>2015-12-18T06:00:16.289Z</time>
</trkpt>
<trkpt lat="-27.2597664" lon="152.8517063">
<ele>42.514</ele>
<time>2015-12-18T06:00:19.281Z</time>
</trkpt>
<trkpt lat="-27.2602497" lon="152.8517449">
<ele>41.666</ele>
<time>2015-12-18T06:00:21.230Z</time>
</trkpt>
<trkpt lat="-27.2610209" lon="152.8517324">
<ele>40.829</ele>
<time>2015-12-18T06:00:24.294Z</time>
</trkpt>
<trkpt lat="-27.2615266" lon="152.8516843">
<ele>39.403</ele>
<time>2015-12-18T06:00:26.277Z</time>
</trkpt>
<trkpt lat="-27.2620415" lon="152.8516141">
<ele>38.010</ele>
<time>2015-12-18T06:00:28.309Z</time>
</trkpt>
<trkpt lat="-27.2628058" lon="152.8514896">
<ele>37.449</ele>
<time>2015-12-18T06:00:31.355Z</time>
</trkpt>
<trkpt lat="-27.2633124" lon="152.8514027">
<ele>37.592</ele>
<time>2015-12-18T06:00:33.379Z</time>
</trkpt>
<trkpt lat="-27.2638279" lon="152.8513157">
<ele>38.252</ele>
<time>2015-12-18T06:00:35.439Z</time>
</trkpt>
<trkpt lat="-27.2645518" lon="152.8511720">
<ele>39.580</ele>
<time>2015-12-18T06:00:38.369Z</time>
</trkpt>
<trkpt lat="-27.2650551" lon="152.8511059">
<ele>41.785</ele>
<time>2015-12-18T06:00:40.403Z</time>
</trkpt>
<trkpt lat="-27.2655408" lon="152.8509974">
<ele>44.484</ele>
<time>2015-12-18T06:00:42.379Z</time>
</trkpt>
<trkpt lat="-27.2662830" lon="152.8508636">
<ele>47.066</ele>
<time>2015-12-18T06:00:45.365Z</time>
</trkpt>
<trkpt lat="-27.2667947" lon="152.8507772">
<ele>49.097</ele>
<time>2015-12-18T06:00:47.420Z</time>
</trkpt>
<trkpt lat="-27.2672889" lon="152.8506635">
<ele>50.264</ele>
<time>2015-12-18T06:00:49.428Z</time>
</trkpt>
<trkpt lat="-27.2680344" lon="152.8505617">
<ele>50.446</ele>
<time>2015-12-18T06:00:52.400Z</time>
</trkpt>
<trkpt lat="-27.2688128" lon="152.8504043">
<ele>49.879</ele>
<time>2015-12-18T06:00:55.500Z</time>
</trkpt>
<trkpt lat="-27.2693045" lon="152.8503411">
<ele>48.911</ele>
<time>2015-12-18T06:00:57.445Z</time>
</trkpt>
<trkpt lat="-27.2700563" lon="152.8501914">
<ele>47.902</ele>
<time>2015-12-18T06:01:00.464Z</time>
</trkpt>
<trkpt lat="-27.2705423" lon="152.8501220">
<ele>46.715</ele>
<time>2015-12-18T06:01:02.424Z</time>
</trkpt>
<trkpt lat="-27.2710302" lon="152.8500279">
<ele>45.207</ele>
<time>2015-12-18T06:01:04.419Z</time>
</trkpt>
<trkpt lat="-27.2714642" lon="152.8499609">
<ele>43.800</ele>
<time>2015-12-18T06:01:06.185Z</time>
</trkpt>
<trkpt lat="-27.2719660" lon="152.8498603">
<ele>42.914</ele>
<time>2015-12-18T06:01:08.225Z</time>
</trkpt>
<trkpt lat="-27.2727179" lon="152.8497080">
<ele>42.509</ele>
<time>2015-12-18T06:01:11.259Z</time>
</trkpt>
<trkpt lat="-27.2734397" lon="152.8495378">
<ele>41.865</ele>
<time>2015-12-18T06:01:14.185Z</time>
</trkpt>
<trkpt lat="-27.2741458" lon="152.8493835">
<ele>40.470</ele>
<time>2015-12-18T06:01:17.067Z</time>
</trkpt>
<trkpt lat="-27.2748899" lon="152.8491696">
<ele>39.149</ele>
<time>2015-12-18T06:01:20.145Z</time>
</trkpt>
<trkpt lat="-27.2756325" lon="152.8489155">
<ele>38.776</ele>
<time>2015-12-18T06:01:23.214Z</time>
</trkpt>
<trkpt lat="-27.2763764" lon="152.8486660">
<ele>39.567</ele>
<time>2015-12-18T06:01:26.286Z</time>
</trkpt>
<trkpt lat="-27.2768564" lon="152.8484834">
<ele>41.300</ele>
<time>2015-12-18T06:01:28.322Z</time>
</trkpt>
<trkpt lat="-27.2775472" lon="152.8481933">
<ele>42.975</ele>
<time>2015-12-18T06:01:31.312Z</time>
</trkpt>
<trkpt lat="-27.2779736" lon="152.8479359">
<ele>43.717</ele>
<time>2015-12-18T06:01:33.289Z</time>
</trkpt>
<trkpt lat="-27.2786488" lon="152.8475844">
<ele>43.647</ele>
<time>2015-12-18T06:01:36.336Z</time>
</trkpt>
<trkpt lat="-27.2793012" lon="152.8472410">
<ele>43.290</ele>
<time>2015-12-18T06:01:39.294Z</time>
</trkpt>
<trkpt lat="-27.2797354" lon="152.8469912">
<ele>42.852</ele>
<time>2015-12-18T06:01:41.285Z</time>
</trkpt>
<trkpt lat="-27.2801783" lon="152.8466853">
<ele>42.297</ele>
<time>2015-12-18T06:01:43.404Z</time>
</trkpt>
<trkpt lat="-27.2806127" lon="152.8464595">
<ele>41.745</ele>
<time>2015-12-18T06:01:45.377Z</time>
</trkpt>
<trkpt lat="-27.2812886" lon="152.8461236">
<ele>40.916</ele>
<time>2015-12-18T06:01:48.428Z</time>
</trkpt>
<trkpt lat="-27.2817419" lon="152.8459325">
<ele>39.594</ele>
<time>2015-12-18T06:01:50.394Z</time>
</trkpt>
<trkpt lat="-27.2822041" lon="152.8456838">
<ele>38.371</ele>
<time>2015-12-18T06:01:52.458Z</time>
</trkpt>
<trkpt lat="-27.2828752" lon="152.8453141">
<ele>37.626</ele>
<time>2015-12-18T06:01:55.483Z</time>
</trkpt>
<trkpt lat="-27.2832949" lon="152.8450734">
<ele>37.057</ele>
<time>2015-12-18T06:01:57.396Z</time>
</trkpt>
<trkpt lat="-27.2837246" lon="152.8448456">
<ele>36.462</ele>
<time>2015-12-18T06:01:59.298Z</time>
</trkpt>
<trkpt lat="-27.2842137" lon="152.8445886">
<ele>35.975</ele>
<time>2015-12-18T06:02:01.425Z</time>
</trkpt>
<trkpt lat="-27.2849058" lon="152.8442379">
<ele>35.790</ele>
<time>2015-12-18T06:02:04.409Z</time>
</trkpt>
<trkpt lat="-27.2853631" lon="152.8440046">
<ele>35.845</ele>
<time>2015-12-18T06:02:06.379Z</time>
</trkpt>
<trkpt lat="-27.2858630" lon="152.8437836">
<ele>36.014</ele>
<time>2015-12-18T06:02:08.448Z</time>
</trkpt>
<trkpt lat="-27.2866134" lon="152.8435272">
<ele>36.273</ele>
<time>2015-12-18T06:02:11.412Z</time>
</trkpt>
<trkpt lat="-27.2871441" lon="152.8433856">
<ele>36.874</ele>
<time>2015-12-18T06:02:13.427Z</time>
</trkpt>
<trkpt lat="-27.2876886" lon="152.8432627">
<ele>38.069</ele>
<time>2015-12-18T06:02:15.481Z</time>
</trkpt>
<trkpt lat="-27.2884502" lon="152.8430868">
<ele>39.402</ele>
<time>2015-12-18T06:02:18.361Z</time>
</trkpt>
<trkpt lat="-27.2892513" lon="152.8428791">
<ele>39.740</ele>
<time>2015-12-18T06:02:21.389Z</time>
</trkpt>
<trkpt lat="-27.2897660" lon="152.8427378">
<ele>38.772</ele>
<time>2015-12-18T06:02:23.320Z</time>
</trkpt>
<trkpt lat="-27.2903079" lon="152.8426051">
<ele>37.494</ele>
<time>2015-12-18T06:02:25.367Z</time>
</trkpt>
<trkpt lat="-27.2910917" lon="152.8424253">
<ele>36.631</ele>
<time>2015-12-18T06:02:28.424Z</time>
</trkpt>
<trkpt lat="-27.2918262" lon="152.8422687">
<ele>35.609</ele>
<time>2015-12-18T06:02:31.406Z</time>
</trkpt>
<trkpt lat="-27.2925650" lon="152.8421791">
<ele>34.153</ele>
<time>2015-12-18T06:02:34.398Z</time>
</trkpt>
<trkpt lat="-27.2930561" lon="152.8421116">
<ele>33.054</ele>
<time>2015-12-18T06:02:36.357Z</time>
</trkpt>
<trkpt lat="-27.2938329" lon="152.8421667">
<ele>32.851</ele>
<time>2015-12-18T06:02:39.404Z</time>
</trkpt>
<trkpt lat="-27.2943404" lon="152.8422130">
<ele>33.124</ele>
<time>2015-12-18T06:02:41.372Z</time>
</trkpt>
<trkpt lat="-27.2948557" lon="152.8422799">
<ele>33.470</ele>
<time>2015-12-18T06:02:43.364Z</time>
</trkpt>
<trkpt lat="-27.2956411" lon="152.8424415">
<ele>33.837</ele>
<time>2015-12-18T06:02:46.447Z</time>
</trkpt>
<trkpt lat="-27.2963994" lon="152.8426063">
<ele>34.158</ele>
<time>2015-12-18T06:02:49.463Z</time>
</trkpt>
<trkpt lat="-27.2971566" lon="152.8427658">
<ele>34.050</ele>
<time>2015-12-18T06:02:52.482Z</time>
</trkpt>
<trkpt lat="-27.2976495" lon="152.8428706">
<ele>33.350</ele>
<time>2015-12-18T06:02:54.460Z</time>
</trkpt>
<trkpt lat="-27.2983814" lon="152.8430374">
<ele>32.450</ele>
<time>2015-12-18T06:02:57.450Z</time>
</trkpt>
<trkpt lat="-27.2990890" lon="152.8432040">
<ele>31.713</ele>
<time>2015-12-18T06:03:00.432Z</time>
</trkpt>
<trkpt lat="-27.2997847" lon="152.8433489">
<ele>31.069</ele>
<time>2015-12-18T06:03:03.463Z</time>
</trkpt>
<trkpt lat="-27.3004408" lon="152.8434286">
<ele>30.472</ele>
<time>2015-12-18T06:03:06.351Z</time>
</trkpt>
<trkpt lat="-27.3009114" lon="152.8434370">
<ele>30.142</ele>
<time>2015-12-18T06:03:08.345Z</time>
</trkpt>
<trkpt lat="-27.3016490" lon="152.8433716">
<ele>30.363</ele>
<time>2015-12-18T06:03:11.415Z</time>
</trkpt>
<trkpt lat="-27.3021192" lon="152.8432661">
<ele>31.207</ele>
<time>2015-12-18T06:03:13.420Z</time>
</trkpt>
<trkpt lat="-27.3025741" lon="152.8431658">
<ele>32.774</ele>
<time>2015-12-18T06:03:15.370Z</time>
</trkpt>
<trkpt lat="-27.3032909" lon="152.8430331">
<ele>34.975</ele>
<time>2015-12-18T06:03:18.392Z</time>
</trkpt>
<trkpt lat="-27.3037933" lon="152.8429391">
<ele>37.953</ele>
<time>2015-12-18T06:03:20.491Z</time>
</trkpt>
<trkpt lat="-27.3044919" lon="152.8428063">
<ele>42.087</ele>
<time>2015-12-18T06:03:23.472Z</time>
</trkpt>
<trkpt lat="-27.3049347" lon="152.8427175">
<ele>46.406</ele>
<time>2015-12-18T06:03:25.439Z</time>
</trkpt>
<trkpt lat="-27.3053751" lon="152.8426337">
<ele>48.901</ele>
<time>2015-12-18T06:03:27.382Z</time>
</trkpt>
<trkpt lat="-27.3058416" lon="152.8425606">
<ele>49.160</ele>
<time>2015-12-18T06:03:29.381Z</time>
</trkpt>
<trkpt lat="-27.3065450" lon="152.8425461">
<ele>48.377</ele>
<time>2015-12-18T06:03:32.321Z</time>
</trkpt>
<trkpt lat="-27.3070188" lon="152.8426010">
<ele>47.434</ele>
<time>2015-12-18T06:03:34.283Z</time>
</trkpt>
<trkpt lat="-27.3074940" lon="152.8427005">
<ele>46.572</ele>
<time>2015-12-18T06:03:36.261Z</time>
</trkpt>
<trkpt lat="-27.3079639" lon="152.8428560">
<ele>46.039</ele>
<time>2015-12-18T06:03:38.264Z</time>
</trkpt>
<trkpt lat="-27.3084125" lon="152.8430736">
<ele>46.347</ele>
<time>2015-12-18T06:03:40.263Z</time>
</trkpt>
<trkpt lat="-27.3090545" lon="152.8434697">
<ele>48.220</ele>
<time>2015-12-18T06:03:43.246Z</time>
</trkpt>
<trkpt lat="-27.3094581" lon="152.8438269">
<ele>51.440</ele>
<time>2015-12-18T06:03:45.319Z</time>
</trkpt>
<trkpt lat="-27.3098055" lon="152.8442184">
<ele>54.627</ele>
<time>2015-12-18T06:03:47.318Z</time>
</trkpt>
<trkpt lat="-27.3102587" lon="152.8448320">
<ele>56.735</ele>
<time>2015-12-18T06:03:50.214Z</time>
</trkpt>
<trkpt lat="-27.3105070" lon="152.8453096">
<ele>57.335</ele>
<time>2015-12-18T06:03:52.203Z</time>
</trkpt>
<trkpt lat="-27.3108072" lon="152.8460768">
<ele>56.428</ele>
<time>2015-12-18T06:03:55.192Z</time>
</trkpt>
<trkpt lat="-27.3109265" lon="152.8466147">
<ele>54.488</ele>
<time>2015-12-18T06:03:57.154Z</time>
</trkpt>
<trkpt lat="-27.3110156" lon="152.8471697">
<ele>52.327</ele>
<time>2015-12-18T06:03:59.146Z</time>
</trkpt>
<trkpt lat="-27.3110497" lon="152.8480132">
<ele>50.693</ele>
<time>2015-12-18T06:04:02.144Z</time>
</trkpt>
<trkpt lat="-27.3110071" lon="152.8485568">
<ele>49.720</ele>
<time>2015-12-18T06:04:04.102Z</time>
</trkpt>
<trkpt lat="-27.3108615" lon="152.8493640">
<ele>49.164</ele>
<time>2015-12-18T06:04:07.066Z</time>
</trkpt>
<trkpt lat="-27.3106669" lon="152.8501554">
<ele>48.794</ele>
<time>2015-12-18T06:04:10.036Z</time>
</trkpt>
<trkpt lat="-27.3105269" lon="152.8506903">
<ele>48.196</ele>
<time>2015-12-18T06:04:12.064Z</time>
</trkpt>
<trkpt lat="-27.3103719" lon="152.8514792">
<ele>47.342</ele>
<time>2015-12-18T06:04:15.021Z</time>
</trkpt>
<trkpt lat="-27.3103073" lon="152.8522744">
<ele>46.839</ele>
<time>2015-12-18T06:04:17.971Z</time>
</trkpt>
<trkpt lat="-27.3103317" lon="152.8528299">
<ele>47.047</ele>
<time>2015-12-18T06:04:19.997Z</time>
</trkpt>
<trkpt lat="-27.3104864" lon="152.8536500">
<ele>47.594</ele>
<time>2015-12-18T06:04:22.987Z</time>
</trkpt>
<trkpt lat="-27.3107782" lon="152.8544470">
<ele>49.044</ele>
<time>2015-12-18T06:04:26.002Z</time>
</trkpt>
<trkpt lat="-27.3111944" lon="152.8551737">
<ele>52.412</ele>
<time>2015-12-18T06:04:29.006Z</time>
</trkpt>
<trkpt lat="-27.3117217" lon="152.8557970">
<ele>57.003</ele>
<time>2015-12-18T06:04:32.014Z</time>
</trkpt>
<trkpt lat="-27.3122949" lon="152.8563099">
<ele>61.228</ele>
<time>2015-12-18T06:04:34.939Z</time>
</trkpt>
<trkpt lat="-27.3127284" lon="152.8565936">
<ele>64.491</ele>
<time>2015-12-18T06:04:36.949Z</time>
</trkpt>
<trkpt lat="-27.3134456" lon="152.8568861">
<ele>66.719</ele>
<time>2015-12-18T06:04:39.986Z</time>
</trkpt>
<trkpt lat="-27.3139134" lon="152.8570403">
<ele>67.903</ele>
<time>2015-12-18T06:04:41.982Z</time>
</trkpt>
<trkpt lat="-27.3145438" lon="152.8573809">
<ele>68.207</ele>
<time>2015-12-18T06:04:44.940Z</time>
</trkpt>
<trkpt lat="-27.3151279" lon="152.8578699">
<ele>68.623</ele>
<time>2015-12-18T06:04:48.064Z</time>
</trkpt>
<trkpt lat="-27.3156080" lon="152.8584417">
<ele>69.821</ele>
<time>2015-12-18T06:04:51.009Z</time>
</trkpt>
<trkpt lat="-27.3159034" lon="152.8588644">
<ele>71.140</ele>
<time>2015-12-18T06:04:53.012Z</time>
</trkpt>
<trkpt lat="-27.3162251" lon="152.8592645">
<ele>71.727</ele>
<time>2015-12-18T06:04:55.059Z</time>
</trkpt>
<trkpt lat="-27.3167925" lon="152.8597354">
<ele>71.591</ele>
<time>2015-12-18T06:04:58.101Z</time>
</trkpt>
<trkpt lat="-27.3171939" lon="152.8599791">
<ele>70.683</ele>
<time>2015-12-18T06:05:00.060Z</time>
</trkpt>
<trkpt lat="-27.3176241" lon="152.8601995">
<ele>68.990</ele>
<time>2015-12-18T06:05:02.067Z</time>
</trkpt>
<trkpt lat="-27.3180916" lon="152.8603073">
<ele>67.110</ele>
<time>2015-12-18T06:05:04.054Z</time>
</trkpt>
<trkpt lat="-27.3185614" lon="152.8604273">
<ele>65.795</ele>
<time>2015-12-18T06:05:06.025Z</time>
</trkpt>
<trkpt lat="-27.3190456" lon="152.8605540">
<ele>65.217</ele>
<time>2015-12-18T06:05:08.049Z</time>
</trkpt>
<trkpt lat="-27.3197724" lon="152.8607406">
<ele>65.147</ele>
<time>2015-12-18T06:05:11.115Z</time>
</trkpt>
<trkpt lat="-27.3202249" lon="152.8608525">
<ele>65.081</ele>
<time>2015-12-18T06:05:13.118Z</time>
</trkpt>
<trkpt lat="-27.3206489" lon="152.8609626">
<ele>64.394</ele>
<time>2015-12-18T06:05:15.074Z</time>
</trkpt>
<trkpt lat="-27.3212541" lon="152.8611128">
<ele>62.575</ele>
<time>2015-12-18T06:05:18.009Z</time>
</trkpt>
<trkpt lat="-27.3218537" lon="152.8612763">
<ele>59.743</ele>
<time>2015-12-18T06:05:21.001Z</time>
</trkpt>
<trkpt lat="-27.3222565" lon="152.8613709">
<ele>56.709</ele>
<time>2015-12-18T06:05:23.023Z</time>
</trkpt>
<trkpt lat="-27.3226468" lon="152.8614715">
<ele>54.365</ele>
<time>2015-12-18T06:05:24.994Z</time>
</trkpt>
<trkpt lat="-27.3230389" lon="152.8615763">
<ele>53.111</ele>
<time>2015-12-18T06:05:26.973Z</time>
</trkpt>
<trkpt lat="-27.3234286" lon="152.8617127">
<ele>53.007</ele>
<time>2015-12-18T06:05:28.967Z</time>
</trkpt>
<trkpt lat="-27.3239820" lon="152.8620188">
<ele>53.722</ele>
<time>2015-12-18T06:05:31.975Z</time>
</trkpt>
<trkpt lat="-27.3243217" lon="152.8622817">
<ele>53.954</ele>
<time>2015-12-18T06:05:33.982Z</time>
</trkpt>
<trkpt lat="-27.3246388" lon="152.8625903">
<ele>52.871</ele>
<time>2015-12-18T06:05:36.008Z</time>
</trkpt>
<trkpt lat="-27.3250869" lon="152.8630945">
<ele>51.306</ele>
<time>2015-12-18T06:05:39.071Z</time>
</trkpt>
<trkpt lat="-27.3254587" lon="152.8636292">
<ele>50.020</ele>
<time>2015-12-18T06:05:42.049Z</time>
</trkpt>
<trkpt lat="-27.3258221" lon="152.8641621">
<ele>48.930</ele>
<time>2015-12-18T06:05:45.079Z</time>
</trkpt>
<trkpt lat="-27.3260352" lon="152.8644957">
<ele>48.113</ele>
<time>2015-12-18T06:05:46.955Z</time>
</trkpt>
<trkpt lat="-27.3263014" lon="152.8648426">
<ele>47.508</ele>
<time>2015-12-18T06:05:49.035Z</time>
</trkpt>
<trkpt lat="-27.3265577" lon="152.8652086">
<ele>46.911</ele>
<time>2015-12-18T06:05:51.138Z</time>
</trkpt>
<trkpt lat="-27.3269541" lon="152.8657201">
<ele>46.435</ele>
<time>2015-12-18T06:05:54.200Z</time>
</trkpt>
<trkpt lat="-27.3272297" lon="152.8659948">
<ele>46.214</ele>
<time>2015-12-18T06:05:56.091Z</time>
</trkpt>
<trkpt lat="-27.3277034" lon="152.8663600">
<ele>45.872</ele>
<time>2015-12-18T06:05:59.059Z</time>
</trkpt>
<trkpt lat="-27.3280543" lon="152.8665265">
<ele>45.086</ele>
<time>2015-12-18T06:06:01.014Z</time>
</trkpt>
<trkpt lat="-27.3284440" lon="152.8666576">
<ele>44.127</ele>
<time>2015-12-18T06:06:03.099Z</time>
</trkpt>
<trkpt lat="-27.3288246" lon="152.8667719">
<ele>43.396</ele>
<time>2015-12-18T06:06:05.122Z</time>
</trkpt>
<trkpt lat="-27.3293847" lon="152.8669228">
<ele>42.983</ele>
<time>2015-12-18T06:06:08.079Z</time>
</trkpt>
<trkpt lat="-27.3297595" lon="152.8670389">
<ele>43.002</ele>
<time>2015-12-18T06:06:10.066Z</time>
</trkpt>
<trkpt lat="-27.3301133" lon="152.8671942">
<ele>43.809</ele>
<time>2015-12-18T06:06:12.009Z</time>
</trkpt>
<trkpt lat="-27.3304700" lon="152.8673949">
<ele>46.097</ele>
<time>2015-12-18T06:06:14.054Z</time>
</trkpt>
<trkpt lat="-27.3309617" lon="152.8677403">
<ele>49.913</ele>
<time>2015-12-18T06:06:17.036Z</time>
</trkpt>
<trkpt lat="-27.3312592" lon="152.8679983">
<ele>54.293</ele>
<time>2015-12-18T06:06:18.980Z</time>
</trkpt>
<trkpt lat="-27.3316475" lon="152.8684683">
<ele>58.331</ele>
<time>2015-12-18T06:06:21.934Z</time>
</trkpt>
<trkpt lat="-27.3319945" lon="152.8690074">
<ele>61.795</ele>
<time>2015-12-18T06:06:24.958Z</time>
</trkpt>
<trkpt lat="-27.3322252" lon="152.8696349">
<ele>64.400</ele>
<time>2015-12-18T06:06:27.959Z</time>
</trkpt>
<trkpt lat="-27.3323676" lon="152.8700728">
<ele>65.326</ele>
<time>2015-12-18T06:06:29.975Z</time>
</trkpt>
<trkpt lat="-27.3325817" lon="152.8707274">
<ele>64.047</ele>
<time>2015-12-18T06:06:32.986Z</time>
</trkpt>
<trkpt lat="-27.3329225" lon="152.8713259">
<ele>60.639</ele>
<time>2015-12-18T06:06:36.075Z</time>
</trkpt>
<trkpt lat="-27.3334395" lon="152.8716589">
<ele>55.188</ele>
<time>2015-12-18T06:06:39.014Z</time>
</trkpt>
<trkpt lat="-27.3338082" lon="152.8718544">
<ele>49.215</ele>
<time>2015-12-18T06:06:40.964Z</time>
</trkpt>
<trkpt lat="-27.3344608" lon="152.8720429">
<ele>45.553</ele>
<time>2015-12-18T06:06:44.102Z</time>
</trkpt>
<trkpt lat="-27.3348271" lon="152.8718936">
<ele>46.007</ele>
<time>2015-12-18T06:06:45.987Z</time>
</trkpt>
<trkpt lat="-27.3353912" lon="152.8717152">
<ele>50.239</ele>
<time>2015-12-18T06:06:48.931Z</time>
</trkpt>
<trkpt lat="-27.3357657" lon="152.8715943">
<ele>56.369</ele>
<time>2015-12-18T06:06:50.935Z</time>
</trkpt>
<trkpt lat="-27.3361332" lon="152.8715189">
<ele>62.057</ele>
<time>2015-12-18T06:06:52.882Z</time>
</trkpt>
<trkpt lat="-27.3364999" lon="152.8714771">
<ele>65.954</ele>
<time>2015-12-18T06:06:54.822Z</time>
</trkpt>
<trkpt lat="-27.3370609" lon="152.8714521">
<ele>67.996</ele>
<time>2015-12-18T06:06:57.798Z</time>
</trkpt>
<trkpt lat="-27.3376501" lon="152.8715147">
<ele>68.758</ele>
<time>2015-12-18T06:07:00.906Z</time>
</trkpt>
<trkpt lat="-27.3382565" lon="152.8715484">
<ele>68.632</ele>
<time>2015-12-18T06:07:03.973Z</time>
</trkpt>
<trkpt lat="-27.3386669" lon="152.8715644">
<ele>68.035</ele>
<time>2015-12-18T06:07:06.007Z</time>
</trkpt>
<trkpt lat="-27.3392414" lon="152.8715815">
<ele>67.058</ele>
<time>2015-12-18T06:07:08.882Z</time>
</trkpt>
<trkpt lat="-27.3398471" lon="152.8716217">
<ele>65.595</ele>
<time>2015-12-18T06:07:11.927Z</time>
</trkpt>
<trkpt lat="-27.3402501" lon="152.8716363">
<ele>64.064</ele>
<time>2015-12-18T06:07:13.917Z</time>
</trkpt>
<trkpt lat="-27.3408797" lon="152.8717219">
<ele>63.301</ele>
<time>2015-12-18T06:07:17.005Z</time>
</trkpt>
<trkpt lat="-27.3412841" lon="152.8717686">
<ele>63.862</ele>
<time>2015-12-18T06:07:18.967Z</time>
</trkpt>
<trkpt lat="-27.3418878" lon="152.8718211">
<ele>65.589</ele>
<time>2015-12-18T06:07:21.923Z</time>
</trkpt>
<trkpt lat="-27.3424821" lon="152.8719068">
<ele>67.882</ele>
<time>2015-12-18T06:07:24.952Z</time>
</trkpt>
<trkpt lat="-27.3430238" lon="152.8721404">
<ele>70.206</ele>
<time>2015-12-18T06:07:27.950Z</time>
</trkpt>
<trkpt lat="-27.3433896" lon="152.8724038">
<ele>71.969</ele>
<time>2015-12-18T06:07:30.106Z</time>
</trkpt>
<trkpt lat="-27.3437384" lon="152.8726375">
<ele>72.615</ele>
<time>2015-12-18T06:07:32.065Z</time>
</trkpt>
<trkpt lat="-27.3440947" lon="152.8729016">
<ele>71.855</ele>
<time>2015-12-18T06:07:34.159Z</time>
</trkpt>
<trkpt lat="-27.3445658" lon="152.8732350">
<ele>69.564</ele>
<time>2015-12-18T06:07:37.012Z</time>
</trkpt>
<trkpt lat="-27.3448307" lon="152.8735060">
<ele>66.618</ele>
<time>2015-12-18T06:07:38.957Z</time>
</trkpt>
<trkpt lat="-27.3450646" lon="152.8738390">
<ele>64.744</ele>
<time>2015-12-18T06:07:41.030Z</time>
</trkpt>
<trkpt lat="-27.3451683" lon="152.8742533">
<ele>64.976</ele>
<time>2015-12-18T06:07:43.107Z</time>
</trkpt>
<trkpt lat="-27.3452075" lon="152.8746731">
<ele>66.836</ele>
<time>2015-12-18T06:07:45.103Z</time>
</trkpt>
<trkpt lat="-27.3452720" lon="152.8750895">
<ele>69.495</ele>
<time>2015-12-18T06:07:47.090Z</time>
</trkpt>
<trkpt lat="-27.3454742" lon="152.8756901">
<ele>72.216</ele>
<time>2015-12-18T06:07:50.094Z</time>
</trkpt>
<trkpt lat="-27.3456291" lon="152.8760813">
<ele>74.078</ele>
<time>2015-12-18T06:07:52.068Z</time>
</trkpt>
<trkpt lat="-27.3458649" lon="152.8766972">
<ele>74.739</ele>
<time>2015-12-18T06:07:55.171Z</time>
</trkpt>
<trkpt lat="-27.3460574" lon="152.8772762">
<ele>74.902</ele>
<time>2015-12-18T06:07:58.093Z</time>
</trkpt>
<trkpt lat="-27.3461556" lon="152.8776847">
<ele>75.173</ele>
<time>2015-12-18T06:08:00.130Z</time>
</trkpt>
<trkpt lat="-27.3462044" lon="152.8780722">
<ele>75.711</ele>
<time>2015-12-18T06:08:02.052Z</time>
</trkpt>
<trkpt lat="-27.3463058" lon="152.8784457">
<ele>76.481</ele>
<time>2015-12-18T06:08:04.013Z</time>
</trkpt>
<trkpt lat="-27.3465959" lon="152.8789100">
<ele>77.469</ele>
<time>2015-12-18T06:08:06.879Z</time>
</trkpt>
<trkpt lat="-27.3468290" lon="152.8792274">
<ele>78.705</ele>
<time>2015-12-18T06:08:08.918Z</time>
</trkpt>
<trkpt lat="-27.3470766" lon="152.8795413">
<ele>79.975</ele>
<time>2015-12-18T06:08:10.950Z</time>
</trkpt>
<trkpt lat="-27.3473240" lon="152.8798581">
<ele>80.267</ele>
<time>2015-12-18T06:08:12.949Z</time>
</trkpt>
<trkpt lat="-27.3476909" lon="152.8803678">
<ele>79.044</ele>
<time>2015-12-18T06:08:16.025Z</time>
</trkpt>
<trkpt lat="-27.3479333" lon="152.8807136">
<ele>76.904</ele>
<time>2015-12-18T06:08:18.127Z</time>
</trkpt>
<trkpt lat="-27.3483043" lon="152.8811090">
<ele>74.554</ele>
<time>2015-12-18T06:08:20.967Z</time>
</trkpt>
<trkpt lat="-27.3486868" lon="152.8814906">
<ele>72.382</ele>
<time>2015-12-18T06:08:24.062Z</time>
</trkpt>
<trkpt lat="-27.3490147" lon="152.8817876">
<ele>70.299</ele>
<time>2015-12-18T06:08:27.060Z</time>
</trkpt>
<trkpt lat="-27.3492788" lon="152.8820122">
<ele>67.562</ele>
<time>2015-12-18T06:08:29.845Z</time>
</trkpt>
<trkpt lat="-27.3493677" lon="152.8822357">
<ele>64.202</ele>
<time>2015-12-18T06:08:31.780Z</time>
</trkpt>
<trkpt lat="-27.3494971" lon="152.8824841">
<ele>61.382</ele>
<time>2015-12-18T06:08:33.833Z</time>
</trkpt>
<trkpt lat="-27.3497103" lon="152.8829252">
<ele>60.532</ele>
<time>2015-12-18T06:08:36.960Z</time>
</trkpt>
<trkpt lat="-27.3498186" lon="152.8832777">
<ele>62.781</ele>
<time>2015-12-18T06:08:39.032Z</time>
</trkpt>
<trkpt lat="-27.3499004" lon="152.8838300">
<ele>67.610</ele>
<time>2015-12-18T06:08:42.063Z</time>
</trkpt>
<trkpt lat="-27.3498839" lon="152.8841934">
<ele>72.910</ele>
<time>2015-12-18T06:08:44.009Z</time>
</trkpt>
<trkpt lat="-27.3497723" lon="152.8847519">
<ele>77.463</ele>
<time>2015-12-18T06:08:46.941Z</time>
</trkpt>
<trkpt lat="-27.3495432" lon="152.8853518">
<ele>81.392</ele>
<time>2015-12-18T06:08:49.997Z</time>
</trkpt>
<trkpt lat="-27.3493395" lon="152.8857417">
<ele>84.457</ele>
<time>2015-12-18T06:08:52.009Z</time>
</trkpt>
<trkpt lat="-27.3491230" lon="152.8861122">
<ele>86.146</ele>
<time>2015-12-18T06:08:53.991Z</time>
</trkpt>
<trkpt lat="-27.3488107" lon="152.8866562">
<ele>86.486</ele>
<time>2015-12-18T06:08:56.919Z</time>
</trkpt>
<trkpt lat="-27.3484887" lon="152.8871626">
<ele>85.667</ele>
<time>2015-12-18T06:08:59.762Z</time>
</trkpt>
<trkpt lat="-27.3482398" lon="152.8875015">
<ele>83.780</ele>
<time>2015-12-18T06:09:01.765Z</time>
</trkpt>
<trkpt lat="-27.3479600" lon="152.8878196">
<ele>81.011</ele>
<time>2015-12-18T06:09:03.808Z</time>
</trkpt>
<trkpt lat="-27.3474941" lon="152.8882089">
<ele>77.836</ele>
<time>2015-12-18T06:09:06.850Z</time>
</trkpt>
<trkpt lat="-27.3471349" lon="152.8886561">
<ele>75.072</ele>
<time>2015-12-18T06:09:09.792Z</time>
</trkpt>
<trkpt lat="-27.3468276" lon="152.8890987">
<ele>73.160</ele>
<time>2015-12-18T06:09:12.674Z</time>
</trkpt>
<trkpt lat="-27.3466733" lon="152.8894273">
<ele>71.952</ele>
<time>2015-12-18T06:09:14.659Z</time>
</trkpt>
<trkpt lat="-27.3465560" lon="152.8897565">
<ele>71.593</ele>
<time>2015-12-18T06:09:16.615Z</time>
</trkpt>
<trkpt lat="-27.3464481" lon="152.8900864">
<ele>72.214</ele>
<time>2015-12-18T06:09:18.616Z</time>
</trkpt>
<trkpt lat="-27.3463711" lon="152.8905941">
<ele>73.510</ele>
<time>2015-12-18T06:09:21.614Z</time>
</trkpt>
<trkpt lat="-27.3463780" lon="152.8910989">
<ele>74.856</ele>
<time>2015-12-18T06:09:24.603Z</time>
</trkpt>
<trkpt lat="-27.3464271" lon="152.8914079">
<ele>75.555</ele>
<time>2015-12-18T06:09:26.506Z</time>
</trkpt>
<trkpt lat="-27.3465423" lon="152.8918704">
<ele>75.405</ele>
<time>2015-12-18T06:09:29.471Z</time>
</trkpt>
<trkpt lat="-27.3466409" lon="152.8921689">
<ele>74.736</ele>
<time>2015-12-18T06:09:31.457Z</time>
</trkpt>
<trkpt lat="-27.3467412" lon="152.8924713">
<ele>73.934</ele>
<time>2015-12-18T06:09:33.478Z</time>
</trkpt>
<trkpt lat="-27.3468449" lon="152.8929584">
<ele>73.370</ele>
<time>2015-12-18T06:09:36.609Z</time>
</trkpt>
<trkpt lat="-27.3468793" lon="152.8932629">
<ele>73.748</ele>
<time>2015-12-18T06:09:38.549Z</time>
</trkpt>
<trkpt lat="-27.3468912" lon="152.8935795">
<ele>75.369</ele>
<time>2015-12-18T06:09:40.528Z</time>
</trkpt>
<trkpt lat="-27.3469059" lon="152.8940946">
<ele>77.602</ele>
<time>2015-12-18T06:09:43.606Z</time>
</trkpt>
<trkpt lat="-27.3469514" lon="152.8946019">
<ele>79.837</ele>
<time>2015-12-18T06:09:46.571Z</time>
</trkpt>
<trkpt lat="-27.3470130" lon="152.8949421">
<ele>81.784</ele>
<time>2015-12-18T06:09:48.564Z</time>
</trkpt>
<trkpt lat="-27.3470981" lon="152.8952935">
<ele>83.114</ele>
<time>2015-12-18T06:09:50.611Z</time>
</trkpt>
<trkpt lat="-27.3471935" lon="152.8956299">
<ele>83.892</ele>
<time>2015-12-18T06:09:52.602Z</time>
</trkpt>
<trkpt lat="-27.3473461" lon="152.8961204">
<ele>84.408</ele>
<time>2015-12-18T06:09:55.596Z</time>
</trkpt>
<trkpt lat="-27.3474474" lon="152.8964595">
<ele>85.096</ele>
<time>2015-12-18T06:09:57.691Z</time>
</trkpt>
<trkpt lat="-27.3475587" lon="152.8967775">
<ele>86.420</ele>
<time>2015-12-18T06:09:59.681Z</time>
</trkpt>
<trkpt lat="-27.3477027" lon="152.8972615">
<ele>88.320</ele>
<time>2015-12-18T06:10:02.640Z</time>
</trkpt>
<trkpt lat="-27.3477769" lon="152.8975896">
<ele>90.361</ele>
<time>2015-12-18T06:10:04.622Z</time>
</trkpt>
<trkpt lat="-27.3478313" lon="152.8978961">
<ele>92.061</ele>
<time>2015-12-18T06:10:06.491Z</time>
</trkpt>
<trkpt lat="-27.3478662" lon="152.8983924">
<ele>93.049</ele>
<time>2015-12-18T06:10:09.462Z</time>
</trkpt>
<trkpt lat="-27.3478782" lon="152.8987570">
<ele>93.235</ele>
<time>2015-12-18T06:10:11.534Z</time>
</trkpt>
<trkpt lat="-27.3478875" lon="152.8991225">
<ele>92.770</ele>
<time>2015-12-18T06:10:13.551Z</time>
</trkpt>
<trkpt lat="-27.3478957" lon="152.8996558">
<ele>92.037</ele>
<time>2015-12-18T06:10:16.490Z</time>
</trkpt>
<trkpt lat="-27.3479366" lon="152.9000237">
<ele>91.500</ele>
<time>2015-12-18T06:10:18.505Z</time>
</trkpt>
<trkpt lat="-27.3479738" lon="152.9004093">
<ele>91.538</ele>
<time>2015-12-18T06:10:20.559Z</time>
</trkpt>
<trkpt lat="-27.3480367" lon="152.9009746">
<ele>92.360</ele>
<time>2015-12-18T06:10:23.557Z</time>
</trkpt>
<trkpt lat="-27.3480935" lon="152.9013488">
<ele>93.821</ele>
<time>2015-12-18T06:10:25.585Z</time>
</trkpt>
<trkpt lat="-27.3481622" lon="152.9018922">
<ele>95.576</ele>
<time>2015-12-18T06:10:28.532Z</time>
</trkpt>
<trkpt lat="-27.3481971" lon="152.9022655">
<ele>97.237</ele>
<time>2015-12-18T06:10:30.537Z</time>
</trkpt>
<trkpt lat="-27.3482166" lon="152.9026430">
<ele>98.431</ele>
<time>2015-12-18T06:10:32.559Z</time>
</trkpt>
<trkpt lat="-27.3481562" lon="152.9031908">
<ele>99.040</ele>
<time>2015-12-18T06:10:35.503Z</time>
</trkpt>
<trkpt lat="-27.3480467" lon="152.9035564">
<ele>98.949</ele>
<time>2015-12-18T06:10:37.546Z</time>
</trkpt>
<trkpt lat="-27.3479272" lon="152.9039168">
<ele>98.079</ele>
<time>2015-12-18T06:10:39.544Z</time>
</trkpt>
<trkpt lat="-27.3476382" lon="152.9044777">
<ele>96.894</ele>
<time>2015-12-18T06:10:42.750Z</time>
</trkpt>
<trkpt lat="-27.3474395" lon="152.9048285">
<ele>95.376</ele>
<time>2015-12-18T06:10:44.728Z</time>
</trkpt>
<trkpt lat="-27.3472386" lon="152.9051952">
<ele>93.140</ele>
<time>2015-12-18T06:10:46.773Z</time>
</trkpt>
<trkpt lat="-27.3470427" lon="152.9055310">
<ele>90.679</ele>
<time>2015-12-18T06:10:48.701Z</time>
</trkpt>
<trkpt lat="-27.3468466" lon="152.9058747">
<ele>88.524</ele>
<time>2015-12-18T06:10:50.691Z</time>
</trkpt>
<trkpt lat="-27.3466353" lon="152.9062186">
<ele>86.094</ele>
<time>2015-12-18T06:10:52.732Z</time>
</trkpt>
<trkpt lat="-27.3462432" lon="152.9066612">
<ele>82.956</ele>
<time>2015-12-18T06:10:55.688Z</time>
</trkpt>
<trkpt lat="-27.3458586" lon="152.9071258">
<ele>79.296</ele>
<time>2015-12-18T06:10:58.664Z</time>
</trkpt>
<trkpt lat="-27.3455694" lon="152.9073526">
<ele>75.168</ele>
<time>2015-12-18T06:11:00.548Z</time>
</trkpt>
<trkpt lat="-27.3453136" lon="152.9076717">
<ele>70.799</ele>
<time>2015-12-18T06:11:02.603Z</time>
</trkpt>
<trkpt lat="-27.3450558" lon="152.9079776">
<ele>66.702</ele>
<time>2015-12-18T06:11:04.614Z</time>
</trkpt>
<trkpt lat="-27.3446575" lon="152.9084494">
<ele>62.640</ele>
<time>2015-12-18T06:11:07.687Z</time>
</trkpt>
<trkpt lat="-27.3444056" lon="152.9087394">
<ele>58.033</ele>
<time>2015-12-18T06:11:09.587Z</time>
</trkpt>
<trkpt lat="-27.3441407" lon="152.9090487">
<ele>53.100</ele>
<time>2015-12-18T06:11:11.594Z</time>
</trkpt>
<trkpt lat="-27.3437534" lon="152.9094854">
<ele>48.588</ele>
<time>2015-12-18T06:11:14.476Z</time>
</trkpt>
<trkpt lat="-27.3435888" lon="152.9098951">
<ele>44.601</ele>
<time>2015-12-18T06:11:16.606Z</time>
</trkpt>
<trkpt lat="-27.3434205" lon="152.9102476">
<ele>40.546</ele>
<time>2015-12-18T06:11:18.526Z</time>
</trkpt>
<trkpt lat="-27.3432802" lon="152.9108144">
<ele>36.000</ele>
<time>2015-12-18T06:11:21.384Z</time>
</trkpt>
<trkpt lat="-27.3432426" lon="152.9112273">
<ele>31.121</ele>
<time>2015-12-18T06:11:23.405Z</time>
</trkpt>
<trkpt lat="-27.3432494" lon="152.9118391">
<ele>26.933</ele>
<time>2015-12-18T06:11:26.370Z</time>
</trkpt>
<trkpt lat="-27.3433332" lon="152.9124503">
<ele>24.433</ele>
<time>2015-12-18T06:11:29.348Z</time>
</trkpt>
<trkpt lat="-27.3434066" lon="152.9128640">
<ele>23.593</ele>
<time>2015-12-18T06:11:31.364Z</time>
</trkpt>
<trkpt lat="-27.3435050" lon="152.9135079">
<ele>24.031</ele>
<time>2015-12-18T06:11:34.452Z</time>
</trkpt>
<trkpt lat="-27.3435371" lon="152.9139201">
<ele>26.477</ele>
<time>2015-12-18T06:11:36.427Z</time>
</trkpt>
<trkpt lat="-27.3435203" lon="152.9143091">
<ele>30.861</ele>
<time>2015-12-18T06:11:38.366Z</time>
</trkpt>
<trkpt lat="-27.3433491" lon="152.9148518">
<ele>35.264</ele>
<time>2015-12-18T06:11:41.328Z</time>
</trkpt>
<trkpt lat="-27.3431605" lon="152.9151784">
<ele>39.015</ele>
<time>2015-12-18T06:11:43.329Z</time>
</trkpt>
<trkpt lat="-27.3427759" lon="152.9155865">
<ele>42.538</ele>
<time>2015-12-18T06:11:46.330Z</time>
</trkpt>
<trkpt lat="-27.3422729" lon="152.9158639">
<ele>45.568</ele>
<time>2015-12-18T06:11:49.428Z</time>
</trkpt>
<trkpt lat="-27.3417558" lon="152.9159481">
<ele>48.524</ele>
<time>2015-12-18T06:11:52.323Z</time>
</trkpt>
<trkpt lat="-27.3412226" lon="152.9159022">
<ele>51.981</ele>
<time>2015-12-18T06:11:55.327Z</time>
</trkpt>
<trkpt lat="-27.3406750" lon="152.9157049">
<ele>55.580</ele>
<time>2015-12-18T06:11:58.478Z</time>
</trkpt>
<trkpt lat="-27.3401404" lon="152.9155219">
<ele>59.107</ele>
<time>2015-12-18T06:12:01.537Z</time>
</trkpt>
<trkpt lat="-27.3396567" lon="152.9153883">
<ele>62.273</ele>
<time>2015-12-18T06:12:04.407Z</time>
</trkpt>
<trkpt lat="-27.3391910" lon="152.9152518">
<ele>64.553</ele>
<time>2015-12-18T06:12:07.335Z</time>
</trkpt>
<trkpt lat="-27.3388796" lon="152.9151434">
<ele>65.804</ele>
<time>2015-12-18T06:12:09.351Z</time>
</trkpt>
<trkpt lat="-27.3384011" lon="152.9150036">
<ele>66.477</ele>
<time>2015-12-18T06:12:12.396Z</time>
</trkpt>
<trkpt lat="-27.3380893" lon="152.9149101">
<ele>66.953</ele>
<time>2015-12-18T06:12:14.397Z</time>
</trkpt>
<trkpt lat="-27.3377888" lon="152.9148924">
<ele>67.301</ele>
<time>2015-12-18T06:12:16.313Z</time>
</trkpt>
<trkpt lat="-27.3374847" lon="152.9149308">
<ele>67.429</ele>
<time>2015-12-18T06:12:18.303Z</time>
</trkpt>
<trkpt lat="-27.3370227" lon="152.9150561">
<ele>67.486</ele>
<time>2015-12-18T06:12:21.359Z</time>
</trkpt>
<trkpt lat="-27.3367408" lon="152.9151888">
<ele>67.779</ele>
<time>2015-12-18T06:12:23.310Z</time>
</trkpt>
<trkpt lat="-27.3363607" lon="152.9154794">
<ele>68.410</ele>
<time>2015-12-18T06:12:26.272Z</time>
</trkpt>
<trkpt lat="-27.3360203" lon="152.9158748">
<ele>69.069</ele>
<time>2015-12-18T06:12:29.445Z</time>
</trkpt>
<trkpt lat="-27.3358018" lon="152.9161160">
<ele>69.762</ele>
<time>2015-12-18T06:12:31.427Z</time>
</trkpt>
<trkpt lat="-27.3355134" lon="152.9166333">
<ele>70.883</ele>
<time>2015-12-18T06:12:34.940Z</time>
</trkpt>
<trkpt lat="-27.3352772" lon="152.9168551">
<ele>72.609</ele>
<time>2015-12-18T06:12:36.953Z</time>
</trkpt>
<trkpt lat="-27.3348678" lon="152.9170247">
<ele>75.076</ele>
<time>2015-12-18T06:12:39.849Z</time>
</trkpt>
<trkpt lat="-27.3344027" lon="152.9170524">
<ele>78.386</ele>
<time>2015-12-18T06:12:42.954Z</time>
</trkpt>
<trkpt lat="-27.3341111" lon="152.9169873">
<ele>82.397</ele>
<time>2015-12-18T06:12:44.979Z</time>
</trkpt>
<trkpt lat="-27.3338738" lon="152.9168829">
<ele>86.491</ele>
<time>2015-12-18T06:12:46.893Z</time>
</trkpt>
<trkpt lat="-27.3335698" lon="152.9168083">
<ele>89.689</ele>
<time>2015-12-18T06:12:49.525Z</time>
</trkpt>
<trkpt lat="-27.3332756" lon="152.9167897">
<ele>91.627</ele>
<time>2015-12-18T06:12:52.390Z</time>
</trkpt>
<trkpt lat="-27.3329787" lon="152.9169038">
<ele>92.994</ele>
<time>2015-12-18T06:12:55.479Z</time>
</trkpt>
<trkpt lat="-27.3328252" lon="152.9170150">
<ele>94.500</ele>
<time>2015-12-18T06:12:57.218Z</time>
</trkpt>
<trkpt lat="-27.3326801" lon="152.9172516">
<ele>96.045</ele>
<time>2015-12-18T06:12:59.497Z</time>
</trkpt>
<trkpt lat="-27.3325998" lon="152.9176756">
<ele>97.239</ele>
<time>2015-12-18T06:13:02.601Z</time>
</trkpt>
<trkpt lat="-27.3325714" lon="152.9180227">
<ele>98.107</ele>
<time>2015-12-18T06:13:04.803Z</time>
</trkpt>
<trkpt lat="-27.3325323" lon="152.9185172">
<ele>98.720</ele>
<time>2015-12-18T06:13:07.838Z</time>
</trkpt>
<trkpt lat="-27.3324652" lon="152.9188090">
<ele>98.974</ele>
<time>2015-12-18T06:13:09.761Z</time>
</trkpt>
<trkpt lat="-27.3322725" lon="152.9192154">
<ele>98.846</ele>
<time>2015-12-18T06:13:12.749Z</time>
</trkpt>
<trkpt lat="-27.3319823" lon="152.9195770">
<ele>98.504</ele>
<time>2015-12-18T06:13:15.741Z</time>
</trkpt>
<trkpt lat="-27.3315768" lon="152.9198815">
<ele>98.184</ele>
<time>2015-12-18T06:13:18.869Z</time>
</trkpt>
<trkpt lat="-27.3313145" lon="152.9200417">
<ele>97.684</ele>
<time>2015-12-18T06:13:20.749Z</time>
</trkpt>
<trkpt lat="-27.3308850" lon="152.9203506">
<ele>96.465</ele>
<time>2015-12-18T06:13:23.909Z</time>
</trkpt>
<trkpt lat="-27.3306374" lon="152.9205956">
<ele>94.693</ele>
<time>2015-12-18T06:13:25.909Z</time>
</trkpt>
<trkpt lat="-27.3303699" lon="152.9210397">
<ele>93.175</ele>
<time>2015-12-18T06:13:28.837Z</time>
</trkpt>
<trkpt lat="-27.3302994" lon="152.9215706">
<ele>92.210</ele>
<time>2015-12-18T06:13:31.779Z</time>
</trkpt>
<trkpt lat="-27.3303217" lon="152.9219539">
<ele>91.584</ele>
<time>2015-12-18T06:13:33.812Z</time>
</trkpt>
<trkpt lat="-27.3305021" lon="152.9224869">
<ele>91.177</ele>
<time>2015-12-18T06:13:36.733Z</time>
</trkpt>
<trkpt lat="-27.3306014" lon="152.9228601">
<ele>90.910</ele>
<time>2015-12-18T06:13:38.681Z</time>
</trkpt>
<trkpt lat="-27.3307597" lon="152.9234406">
<ele>90.390</ele>
<time>2015-12-18T06:13:41.719Z</time>
</trkpt>
<trkpt lat="-27.3308063" lon="152.9239727">
<ele>88.836</ele>
<time>2015-12-18T06:13:44.470Z</time>
</trkpt>
<trkpt lat="-27.3308461" lon="152.9243802">
<ele>86.335</ele>
<time>2015-12-18T06:13:46.588Z</time>
</trkpt>
<trkpt lat="-27.3308402" lon="152.9249966">
<ele>84.214</ele>
<time>2015-12-18T06:13:49.690Z</time>
</trkpt>
<trkpt lat="-27.3308375" lon="152.9253987">
<ele>83.560</ele>
<time>2015-12-18T06:13:51.717Z</time>
</trkpt>
<trkpt lat="-27.3308745" lon="152.9257862">
<ele>84.231</ele>
<time>2015-12-18T06:13:53.683Z</time>
</trkpt>
<trkpt lat="-27.3309741" lon="152.9261782">
<ele>85.261</ele>
<time>2015-12-18T06:13:55.731Z</time>
</trkpt>
<trkpt lat="-27.3311221" lon="152.9265156">
<ele>85.803</ele>
<time>2015-12-18T06:13:57.638Z</time>
</trkpt>
<trkpt lat="-27.3312362" lon="152.9268816">
<ele>85.775</ele>
<time>2015-12-18T06:13:59.630Z</time>
</trkpt>
<trkpt lat="-27.3312702" lon="152.9274863">
<ele>85.123</ele>
<time>2015-12-18T06:14:02.688Z</time>
</trkpt>
<trkpt lat="-27.3311960" lon="152.9281423">
<ele>83.815</ele>
<time>2015-12-18T06:14:05.923Z</time>
</trkpt>
<trkpt lat="-27.3311268" lon="152.9285340">
<ele>82.429</ele>
<time>2015-12-18T06:14:07.879Z</time>
</trkpt>
<trkpt lat="-27.3309275" lon="152.9291025">
<ele>81.618</ele>
<time>2015-12-18T06:14:10.949Z</time>
</trkpt>
<trkpt lat="-27.3306679" lon="152.9296109">
<ele>81.435</ele>
<time>2015-12-18T06:14:13.947Z</time>
</trkpt>
<trkpt lat="-27.3302763" lon="152.9299848">
<ele>81.596</ele>
<time>2015-12-18T06:14:16.868Z</time>
</trkpt>
<trkpt lat="-27.3299975" lon="152.9302391">
<ele>81.840</ele>
<time>2015-12-18T06:14:18.889Z</time>
</trkpt>
<trkpt lat="-27.3296010" lon="152.9306381">
<ele>82.075</ele>
<time>2015-12-18T06:14:21.876Z</time>
</trkpt>
<trkpt lat="-27.3292962" lon="152.9311271">
<ele>82.238</ele>
<time>2015-12-18T06:14:24.794Z</time>
</trkpt>
<trkpt lat="-27.3290027" lon="152.9317034">
<ele>81.760</ele>
<time>2015-12-18T06:14:27.905Z</time>
</trkpt>
<trkpt lat="-27.3288133" lon="152.9320778">
<ele>80.004</ele>
<time>2015-12-18T06:14:29.925Z</time>
</trkpt>
<trkpt lat="-27.3285499" lon="152.9326058">
<ele>77.455</ele>
<time>2015-12-18T06:14:32.904Z</time>
</trkpt>
<trkpt lat="-27.3283143" lon="152.9331310">
<ele>75.070</ele>
<time>2015-12-18T06:14:35.961Z</time>
</trkpt>
<trkpt lat="-27.3280607" lon="152.9336190">
<ele>73.290</ele>
<time>2015-12-18T06:14:38.990Z</time>
</trkpt>
<trkpt lat="-27.3278919" lon="152.9340663">
<ele>72.329</ele>
<time>2015-12-18T06:14:41.693Z</time>
</trkpt>
<trkpt lat="-27.3278142" lon="152.9344074">
<ele>71.662</ele>
<time>2015-12-18T06:14:43.699Z</time>
</trkpt>
<trkpt lat="-27.3278034" lon="152.9347667">
<ele>70.453</ele>
<time>2015-12-18T06:14:45.727Z</time>
</trkpt>
<trkpt lat="-27.3279793" lon="152.9352802">
<ele>68.720</ele>
<time>2015-12-18T06:14:48.726Z</time>
</trkpt>
<trkpt lat="-27.3283159" lon="152.9356914">
<ele>66.719</ele>
<time>2015-12-18T06:14:51.704Z</time>
</trkpt>
<trkpt lat="-27.3287503" lon="152.9360605">
<ele>64.757</ele>
<time>2015-12-18T06:14:54.875Z</time>
</trkpt>
<trkpt lat="-27.3290258" lon="152.9363085">
<ele>63.372</ele>
<time>2015-12-18T06:14:56.894Z</time>
</trkpt>
<trkpt lat="-27.3294004" lon="152.9367232">
<ele>62.660</ele>
<time>2015-12-18T06:14:59.859Z</time>
</trkpt>
<trkpt lat="-27.3295768" lon="152.9371030">
<ele>62.243</ele>
<time>2015-12-18T06:15:01.958Z</time>
</trkpt>
<trkpt lat="-27.3297271" lon="152.9376721">
<ele>61.727</ele>
<time>2015-12-18T06:15:04.855Z</time>
</trkpt>
<trkpt lat="-27.3297676" lon="152.9380955">
<ele>60.645</ele>
<time>2015-12-18T06:15:06.874Z</time>
</trkpt>
<trkpt lat="-27.3297170" lon="152.9388375">
<ele>58.886</ele>
<time>2015-12-18T06:15:10.196Z</time>
</trkpt>
<trkpt lat="-27.3296962" lon="152.9393326">
<ele>56.531</ele>
<time>2015-12-18T06:15:12.297Z</time>
</trkpt>
<trkpt lat="-27.3296226" lon="152.9400275">
<ele>53.585</ele>
<time>2015-12-18T06:15:15.261Z</time>
</trkpt>
<trkpt lat="-27.3295701" lon="152.9404819">
<ele>49.930</ele>
<time>2015-12-18T06:15:17.233Z</time>
</trkpt>
<trkpt lat="-27.3295093" lon="152.9411485">
<ele>45.549</ele>
<time>2015-12-18T06:15:20.139Z</time>
</trkpt>
<trkpt lat="-27.3294642" lon="152.9416092">
<ele>41.181</ele>
<time>2015-12-18T06:15:22.137Z</time>
</trkpt>
<trkpt lat="-27.3294157" lon="152.9423064">
<ele>38.161</ele>
<time>2015-12-18T06:15:25.123Z</time>
</trkpt>
<trkpt lat="-27.3293745" lon="152.9427706">
<ele>36.869</ele>
<time>2015-12-18T06:15:27.091Z</time>
</trkpt>
<trkpt lat="-27.3293560" lon="152.9432535">
<ele>36.593</ele>
<time>2015-12-18T06:15:29.133Z</time>
</trkpt>
<trkpt lat="-27.3293212" lon="152.9437166">
<ele>36.514</ele>
<time>2015-12-18T06:15:31.147Z</time>
</trkpt>
<trkpt lat="-27.3292983" lon="152.9443759">
<ele>36.134</ele>
<time>2015-12-18T06:15:34.078Z</time>
</trkpt>
<trkpt lat="-27.3292728" lon="152.9448274">
<ele>35.455</ele>
<time>2015-12-18T06:15:36.132Z</time>
</trkpt>
<trkpt lat="-27.3292436" lon="152.9452674">
<ele>35.214</ele>
<time>2015-12-18T06:15:38.149Z</time>
</trkpt>
<trkpt lat="-27.3292094" lon="152.9459103">
<ele>36.151</ele>
<time>2015-12-18T06:15:41.097Z</time>
</trkpt>
<trkpt lat="-27.3291986" lon="152.9465262">
<ele>37.781</ele>
<time>2015-12-18T06:15:43.902Z</time>
</trkpt>
<trkpt lat="-27.3292216" lon="152.9469762">
<ele>39.019</ele>
<time>2015-12-18T06:15:45.905Z</time>
</trkpt>
<trkpt lat="-27.3292794" lon="152.9474680">
<ele>38.701</ele>
<time>2015-12-18T06:15:48.036Z</time>
</trkpt>
<trkpt lat="-27.3293740" lon="152.9479432">
<ele>36.646</ele>
<time>2015-12-18T06:15:50.107Z</time>
</trkpt>
<trkpt lat="-27.3294909" lon="152.9483734">
<ele>34.728</ele>
<time>2015-12-18T06:15:52.060Z</time>
</trkpt>
<trkpt lat="-27.3296204" lon="152.9487988">
<ele>34.862</ele>
<time>2015-12-18T06:15:54.065Z</time>
</trkpt>
<trkpt lat="-27.3298439" lon="152.9494088">
<ele>36.550</ele>
<time>2015-12-18T06:15:57.029Z</time>
</trkpt>
<trkpt lat="-27.3299779" lon="152.9498409">
<ele>38.117</ele>
<time>2015-12-18T06:15:59.041Z</time>
</trkpt>
<trkpt lat="-27.3302152" lon="152.9504810">
<ele>38.435</ele>
<time>2015-12-18T06:16:02.054Z</time>
</trkpt>
<trkpt lat="-27.3304647" lon="152.9511076">
<ele>37.486</ele>
<time>2015-12-18T06:16:05.076Z</time>
</trkpt>
<trkpt lat="-27.3307204" lon="152.9516838">
<ele>35.654</ele>
<time>2015-12-18T06:16:08.009Z</time>
</trkpt>
<trkpt lat="-27.3309966" lon="152.9522148">
<ele>32.982</ele>
<time>2015-12-18T06:16:10.943Z</time>
</trkpt>
<trkpt lat="-27.3311874" lon="152.9525151">
<ele>29.353</ele>
<time>2015-12-18T06:16:12.809Z</time>
</trkpt>
<trkpt lat="-27.3313644" lon="152.9527980">
<ele>25.526</ele>
<time>2015-12-18T06:16:14.644Z</time>
</trkpt>
<trkpt lat="-27.3315957" lon="152.9532905">
<ele>22.428</ele>
<time>2015-12-18T06:16:17.740Z</time>
</trkpt>
<trkpt lat="-27.3317737" lon="152.9535393">
<ele>20.088</ele>
<time>2015-12-18T06:16:19.606Z</time>
</trkpt>
<trkpt lat="-27.3320573" lon="152.9539366">
<ele>18.284</ele>
<time>2015-12-18T06:16:22.613Z</time>
</trkpt>
<trkpt lat="-27.3322390" lon="152.9542246">
<ele>17.149</ele>
<time>2015-12-18T06:16:24.652Z</time>
</trkpt>
<trkpt lat="-27.3324078" lon="152.9545191">
<ele>16.554</ele>
<time>2015-12-18T06:16:26.660Z</time>
</trkpt>
<trkpt lat="-27.3325748" lon="152.9548250">
<ele>16.012</ele>
<time>2015-12-18T06:16:28.699Z</time>
</trkpt>
<trkpt lat="-27.3327613" lon="152.9551453">
<ele>15.282</ele>
<time>2015-12-18T06:16:30.860Z</time>
</trkpt>
<trkpt lat="-27.3329394" lon="152.9554322">
<ele>14.586</ele>
<time>2015-12-18T06:16:32.864Z</time>
</trkpt>
<trkpt lat="-27.3331720" lon="152.9558621">
<ele>14.067</ele>
<time>2015-12-18T06:16:35.805Z</time>
</trkpt>
<trkpt lat="-27.3333947" lon="152.9562689">
<ele>13.471</ele>
<time>2015-12-18T06:16:38.691Z</time>
</trkpt>
<trkpt lat="-27.3335711" lon="152.9565120">
<ele>12.467</ele>
<time>2015-12-18T06:16:40.654Z</time>
</trkpt>
<trkpt lat="-27.3338393" lon="152.9568690">
<ele>11.147</ele>
<time>2015-12-18T06:16:43.543Z</time>
</trkpt>
<trkpt lat="-27.3341599" lon="152.9572617">
<ele>9.918</ele>
<time>2015-12-18T06:16:46.684Z</time>
</trkpt>
<trkpt lat="-27.3344904" lon="152.9576551">
<ele>9.017</ele>
<time>2015-12-18T06:16:49.781Z</time>
</trkpt>
<trkpt lat="-27.3346950" lon="152.9578951">
<ele>8.452</ele>
<time>2015-12-18T06:16:51.668Z</time>
</trkpt>
<trkpt lat="-27.3350355" lon="152.9582892">
<ele>8.150</ele>
<time>2015-12-18T06:16:54.789Z</time>
</trkpt>
<trkpt lat="-27.3353783" lon="152.9586586">
<ele>8.213</ele>
<time>2015-12-18T06:16:57.863Z</time>
</trkpt>
<trkpt lat="-27.3355904" lon="152.9589000">
<ele>8.741</ele>
<time>2015-12-18T06:16:59.921Z</time>
</trkpt>
<trkpt lat="-27.3358345" lon="152.9592439">
<ele>9.443</ele>
<time>2015-12-18T06:17:02.860Z</time>
</trkpt>
<trkpt lat="-27.3359085" lon="152.9594214">
<ele>9.968</ele>
<time>2015-12-18T06:17:04.545Z</time>
</trkpt>
<trkpt lat="-27.3359440" lon="152.9595459">
<ele>10.070</ele>
<time>2015-12-18T06:17:06.000Z</time>
</trkpt>
<trkpt lat="-27.3359440" lon="152.9595459">
<ele>9.718</ele>
<time>2015-12-18T06:17:11.000Z</time>
</trkpt>
<trkpt lat="-27.3359440" lon="152.9595459">
<ele>9.360</ele>
<time>2015-12-18T06:17:31.062Z</time>
</trkpt>
<trkpt lat="-27.3360124" lon="152.9594127">
<ele>9.355</ele>
<time>2015-12-18T06:17:33.693Z</time>
</trkpt>
<trkpt lat="-27.3358502" lon="152.9590898">
<ele>9.541</ele>
<time>2015-12-18T06:17:36.821Z</time>
</trkpt>
<trkpt lat="-27.3355606" lon="152.9587167">
<ele>9.727</ele>
<time>2015-12-18T06:17:40.000Z</time>
</trkpt>
<trkpt lat="-27.3353578" lon="152.9584577">
<ele>9.897</ele>
<time>2015-12-18T06:17:42.007Z</time>
</trkpt>
<trkpt lat="-27.3350615" lon="152.9581354">
<ele>9.980</ele>
<time>2015-12-18T06:17:44.677Z</time>
</trkpt>
<trkpt lat="-27.3347499" lon="152.9577694">
<ele>9.804</ele>
<time>2015-12-18T06:17:47.636Z</time>
</trkpt>
<trkpt lat="-27.3345531" lon="152.9575521">
<ele>9.077</ele>
<time>2015-12-18T06:17:49.513Z</time>
</trkpt>
<trkpt lat="-27.3342753" lon="152.9572055">
<ele>7.834</ele>
<time>2015-12-18T06:17:52.454Z</time>
</trkpt>
<trkpt lat="-27.3341229" lon="152.9569811">
<ele>6.651</ele>
<time>2015-12-18T06:17:54.364Z</time>
</trkpt>
<trkpt lat="-27.3339074" lon="152.9566943">
<ele>5.905</ele>
<time>2015-12-18T06:17:57.219Z</time>
</trkpt>
<trkpt lat="-27.3338030" lon="152.9565283">
<ele>5.405</ele>
<time>2015-12-18T06:17:59.052Z</time>
</trkpt>
<trkpt lat="-27.3337364" lon="152.9563245">
<ele>4.982</ele>
<time>2015-12-18T06:18:01.476Z</time>
</trkpt>
<trkpt lat="-27.3337738" lon="152.9562084">
<ele>4.510</ele>
<time>2015-12-18T06:18:03.084Z</time>
</trkpt>
<trkpt lat="-27.3338949" lon="152.9561018">
<ele>3.925</ele>
<time>2015-12-18T06:18:05.835Z</time>
</trkpt>
<trkpt lat="-27.3340289" lon="152.9560711">
<ele>3.412</ele>
<time>2015-12-18T06:18:08.913Z</time>
</trkpt>
<trkpt lat="-27.3340799" lon="152.9561739">
<ele>3.157</ele>
<time>2015-12-18T06:18:11.829Z</time>
</trkpt>
<trkpt lat="-27.3340843" lon="152.9562938">
<ele>3.156</ele>
<time>2015-12-18T06:18:15.178Z</time>
</trkpt>
<trkpt lat="-27.3342210" lon="152.9563045">
<ele>3.343</ele>
<time>2015-12-18T06:18:20.000Z</time>
</trkpt>
<trkpt lat="-27.3342210" lon="152.9563045">
<ele>3.547</ele>
<time>2015-12-18T06:18:24.000Z</time>
</trkpt>
<trkpt lat="-27.3342210" lon="152.9563045">
<ele>3.635</ele>
<time>2015-12-18T06:31:42.618Z</time>
</trkpt>
<trkpt lat="-27.3341003" lon="152.9562089">
<ele>3.622</ele>
<time>2015-12-18T06:31:52.856Z</time>
</trkpt>
<trkpt lat="-27.3340502" lon="152.9561095">
<ele>4.736</ele>
<time>2015-12-18T06:31:58.287Z</time>
</trkpt>
<trkpt lat="-27.3340061" lon="152.9560177">
<ele>7.743</ele>
<time>2015-12-18T06:32:03.253Z</time>
</trkpt>
<trkpt lat="-27.3340835" lon="152.9558861">
<ele>10.886</ele>
<time>2015-12-18T06:32:09.769Z</time>
</trkpt>
<trkpt lat="-27.3342149" lon="152.9557859">
<ele>12.483</ele>
<time>2015-12-18T06:32:13.320Z</time>
</trkpt>
<trkpt lat="-27.3344097" lon="152.9557049">
<ele>12.946</ele>
<time>2015-12-18T06:32:16.456Z</time>
</trkpt>
<trkpt lat="-27.3344917" lon="152.9555572">
<ele>13.035</ele>
<time>2015-12-18T06:32:18.879Z</time>
</trkpt>
<trkpt lat="-27.3344268" lon="152.9554224">
<ele>13.172</ele>
<time>2015-12-18T06:32:21.390Z</time>
</trkpt>
<trkpt lat="-27.3342845" lon="152.9554223">
<ele>13.399</ele>
<time>2015-12-18T06:32:24.126Z</time>
</trkpt>
<trkpt lat="-27.3340547" lon="152.9556742">
<ele>13.597</ele>
<time>2015-12-18T06:32:28.072Z</time>
</trkpt>
<trkpt lat="-27.3338039" lon="152.9558884">
<ele>13.952</ele>
<time>2015-12-18T06:32:31.141Z</time>
</trkpt>
<trkpt lat="-27.3335485" lon="152.9561389">
<ele>14.621</ele>
<time>2015-12-18T06:32:34.603Z</time>
</trkpt>
<trkpt lat="-27.3335038" lon="152.9563553">
<ele>15.194</ele>
<time>2015-12-18T06:32:36.817Z</time>
</trkpt>
<trkpt lat="-27.3336772" lon="152.9566551">
<ele>15.313</ele>
<time>2015-12-18T06:32:39.984Z</time>
</trkpt>
<trkpt lat="-27.3338813" lon="152.9569361">
<ele>15.234</ele>
<time>2015-12-18T06:32:42.312Z</time>
</trkpt>
<trkpt lat="-27.3341903" lon="152.9573230">
<ele>15.444</ele>
<time>2015-12-18T06:32:45.281Z</time>
</trkpt>
<trkpt lat="-27.3345089" lon="152.9577019">
<ele>16.037</ele>
<time>2015-12-18T06:32:48.179Z</time>
</trkpt>
<trkpt lat="-27.3348364" lon="152.9580610">
<ele>16.789</ele>
<time>2015-12-18T06:32:51.053Z</time>
</trkpt>
<trkpt lat="-27.3350712" lon="152.9583292">
<ele>17.517</ele>
<time>2015-12-18T06:32:53.198Z</time>
</trkpt>
<trkpt lat="-27.3353720" lon="152.9586790">
<ele>18.041</ele>
<time>2015-12-18T06:32:56.042Z</time>
</trkpt>
<trkpt lat="-27.3355581" lon="152.9589089">
<ele>18.588</ele>
<time>2015-12-18T06:32:57.921Z</time>
</trkpt>
<trkpt lat="-27.3357957" lon="152.9592858">
<ele>19.535</ele>
<time>2015-12-18T06:33:00.777Z</time>
</trkpt>
<trkpt lat="-27.3358895" lon="152.9595719">
<ele>20.580</ele>
<time>2015-12-18T06:33:02.751Z</time>
</trkpt>
<trkpt lat="-27.3359807" lon="152.9599763">
<ele>21.261</ele>
<time>2015-12-18T06:33:05.651Z</time>
</trkpt>
<trkpt lat="-27.3360128" lon="152.9601940">
<ele>21.550</ele>
<time>2015-12-18T06:33:07.418Z</time>
</trkpt>
<trkpt lat="-27.3360658" lon="152.9604592">
<ele>21.374</ele>
<time>2015-12-18T06:33:10.060Z</time>
</trkpt>
<trkpt lat="-27.3360658" lon="152.9604592">
<ele>20.772</ele>
<time>2015-12-18T06:33:17.065Z</time>
</trkpt>
<trkpt lat="-27.3360658" lon="152.9604592">
<ele>20.271</ele>
<time>2015-12-18T06:34:42.055Z</time>
</trkpt>
<trkpt lat="-27.3361569" lon="152.9606970">
<ele>20.272</ele>
<time>2015-12-18T06:34:59.556Z</time>
</trkpt>
<trkpt lat="-27.3362300" lon="152.9608409">
<ele>20.442</ele>
<time>2015-12-18T06:35:01.575Z</time>
</trkpt>
<trkpt lat="-27.3364260" lon="152.9608964">
<ele>20.412</ele>
<time>2015-12-18T06:35:03.881Z</time>
</trkpt>
<trkpt lat="-27.3366155" lon="152.9608542">
<ele>20.345</ele>
<time>2015-12-18T06:35:05.555Z</time>
</trkpt>
<trkpt lat="-27.3369637" lon="152.9608397">
<ele>20.601</ele>
<time>2015-12-18T06:35:08.307Z</time>
</trkpt>
<trkpt lat="-27.3371732" lon="152.9608016">
<ele>21.414</ele>
<time>2015-12-18T06:35:09.874Z</time>
</trkpt>
<trkpt lat="-27.3375817" lon="152.9607273">
<ele>22.606</ele>
<time>2015-12-18T06:35:13.040Z</time>
</trkpt>
<trkpt lat="-27.3378084" lon="152.9606870">
<ele>23.716</ele>
<time>2015-12-18T06:35:15.079Z</time>
</trkpt>
<trkpt lat="-27.3379637" lon="152.9606598">
<ele>24.349</ele>
<time>2015-12-18T06:35:16.764Z</time>
</trkpt>
<trkpt lat="-27.3381590" lon="152.9606294">
<ele>24.378</ele>
<time>2015-12-18T06:35:19.304Z</time>
</trkpt>
<trkpt lat="-27.3381464" lon="152.9613748">
<ele>23.913</ele>
<time>2015-12-18T06:35:27.808Z</time>
</trkpt>
<trkpt lat="-27.3381431" lon="152.9615393">
<ele>23.030</ele>
<time>2015-12-18T06:35:30.148Z</time>
</trkpt>
<trkpt lat="-27.3382432" lon="152.9616112">
<ele>21.295</ele>
<time>2015-12-18T06:35:32.654Z</time>
</trkpt>
<trkpt lat="-27.3383777" lon="152.9616305">
<ele>18.749</ele>
<time>2015-12-18T06:35:36.316Z</time>
</trkpt>
<trkpt lat="-27.3384749" lon="152.9616007">
<ele>16.450</ele>
<time>2015-12-18T06:35:39.785Z</time>
</trkpt>
<trkpt lat="-27.3385289" lon="152.9614879">
<ele>15.237</ele>
<time>2015-12-18T06:35:43.982Z</time>
</trkpt>
<trkpt lat="-27.3385485" lon="152.9613496">
<ele>15.019</ele>
<time>2015-12-18T06:35:47.503Z</time>
</trkpt>
<trkpt lat="-27.3385754" lon="152.9612461">
<ele>15.361</ele>
<time>2015-12-18T06:35:50.083Z</time>
</trkpt>
<trkpt lat="-27.3385754" lon="152.9612461">
<ele>15.755</ele>
<time>2015-12-18T06:35:56.077Z</time>
</trkpt>
</trkseg>
</trk>
<extensions>
<fpdata xmlns="http://www.motionx.com/GPX-Extensions/1/1" sfv="10" origin="MotionXGPSFull 24.1 Build 5049R64">
<bin enc="base64">
RgIAAAACAAAA5pQXhcic1UEBAAAAY9C2Be2c1UEAAPBiJkPSQKIcAADyYSQCjKXTAu/i
KUAe9+rKeIIvQAAAAAATAAAAVG9uaSdzIEJpZyBEYXkgT3V0ABUAAAAxOCBEZWMgMjAx
NSAgNjo1OSBhbQAAAAAAidC2Be2c1UG6pGcU7ZzVQcOKHwE0DpOdMgeeQCwAAAABAAAA
lBM00ZseY0ADHAB4XFs7wIyl0wLv4ilAAAAAAAAAJEAAAAAAAAA4QAAAAAAA5qxAAAAA
AAAAAAAAAAAAzczMzMw8V0CKhZrMxek3QAEAAACxDzdzmMiDPwEAAAABAAAAchfmagoI
xD/fA+B1gfXGvwEAAAABAAAAAAAAAAAAAAAAAAAAAAAAAAAAAAABAAAADgAAAFRyYWNr
XzAwMS5ncHgAAQAAAJxS6AXtnNVBCgAAAAEAAAAKAAAAVHJhY2sgMDAxAAAAAAAMAAAA
AAAAAAAAAADBCQAA+PwEU+qc1UEAAAAAAAAAAAAAAAAAAAAA/yVEvAIAAAAAAAAAAAAA
AAEAAAAnAAAAMjQuMSBCdWlsZCA1MDQ5UjY0LCBNWEFFIDguMSBiLiA2MjZSNjQAAAAA
AMBsAAABAAAAARwAAAAUInNWTKlzVgQp0IWXyJzVQSnQhZfInNVBAAAAijxuUkAAAAAA
Av+UF4XInNVBJO1HCMmc1UEAAKAEC2aAQAAAAAACWFbKDsmc1UET00lIyZzVQQAAAJz6
lYdAAAAAAAJEhAhwyZzVQTc3hp7KnNVBAAAwfdiynkAAAAAAAkxODKLOnNVBkLwHqM6c
1UEAAHBhjxKfQAAAAAACnN4Kqs6c1UHh0ccX0JzVQQAA4Eov96pAAAAAAALwvQgd0JzV
Qb+ByJLTnNVBAACstJZSu0AAAAAAAn6rSJjTnNVBVFbJjNSc1UEAAARgmSS/QAAAAAAC
HJkLqNac1UGDFURV15zVQQAA0Ki97MBAAAAAAAIBM0lf15zVQZ5FhUDYnNVBAAAKzjWv
wkAAAAAAAiRGiYbYnNVB1hvHx9ic1UEAAG55sTHDQAAAAAACOuiIytic1UH35cbi2JzV
QQAA6HQtYsNAAAAAAALysIqM2ZzVQUPlh5HZnNVBAACK3Sdsw0AAAAAAAhzwiJXZnNVB
vJeGvdqc1UEAAMosI7zFQAAAAAACwvbKz9qc1UGEn0bU2pzVQQAATn4axcVAAAAAAAJ/
aggA25zVQVsmhwXbnNVBAAAG9hfQxUAAAAAAAqm/CLngnNVBq0HFueCc1UEAAAr6kNHF
QAAAAAACLUNJ/+Cc1UHY7gYM4ZzVQQAAYFEM68VAAAAAAALJdooa4ZzVQRCzRJLhnNVB
AADuyYDaxkAAAAAAAmMpBpThnNVB5xvGneKc1UEAAPauAO7IQAAAAAACGjXIo+Kc1UFz
9oeL5JzVQQAAqDGAvcxAAAAAAALfpwfV5JzVQeXVRdnlnNVBAAC0jfzFzkAAAAAAAlr1
h+blnNVBvqXFNeec1UEAAD73O7LQQAAAAAACKJiK1+ec1UEVcIbb55zVQQAAK883ttBA
AAAAAAKO5Uve55zVQbSUxjnpnNVBAABRfrIR0kAAAAAAApTDSz/pnNVBfxUJTOmc1UEA
ADzQbx7SQAAAAAACvJRLFeqc1UGjdkcr6pzVQQAAI7JrNNJAAAAAAAI7OE5E6pzVQQjp
CFPqnNVBAADwYiZD0kAAAAAAAAAAAA==
</bin>
</fpdata>
</extensions>
</gpx>